<?xml version='1.0' encoding='UTF-8'?><gpx version="1.1" creator="JPX - https://github.com/jenetics/jpx" xmlns="http://www.topografix.com/GPX/1/1"><trk><trkseg><trkpt lat="44.4553539" lon="11.1198694"><ele>146.0</ele><time>2026-04-03T11:37:33.567Z</time></trkpt><trkpt lat="44.4553226" lon="11.1196755"><ele>146.0</ele><time>2026-04-03T11:37:34.501Z</time></trkpt><trkpt lat="44.4552717" lon="11.1195414"><ele>146.0</ele><time>2026-04-03T11:37:35.579Z</time></trkpt><trkpt lat="44.4551813" lon="11.119515"><ele>146.0</ele><time>2026-04-03T11:37:36.575Z</time></trkpt><trkpt lat="44.4550893" lon="11.1195011"><ele>146.0</ele><time>2026-04-03T11:37:37.575Z</time></trkpt><trkpt lat="44.4549979" lon="11.119492"><ele>146.0</ele><time>2026-04-03T11:37:38.576Z</time></trkpt><trkpt lat="44.4548933" lon="11.1194867"><ele>146.0</ele><time>2026-04-03T11:37:39.57Z</time></trkpt><trkpt lat="44.4547933" lon="11.119485"><ele>146.0</ele><time>2026-04-03T11:37:40.571Z</time></trkpt><trkpt lat="44.4546917" lon="11.119485"><ele>146.0</ele><time>2026-04-03T11:37:41.582Z</time></trkpt><trkpt lat="44.45459" lon="11.119485"><ele>146.0</ele><time>2026-04-03T11:37:42.572Z</time></trkpt><trkpt lat="44.45449" lon="11.1194867"><ele>145.8</ele><time>2026-04-03T11:37:43.577Z</time></trkpt><trkpt lat="44.454395" lon="11.1194867"><ele>145.6</ele><time>2026-04-03T11:37:44.571Z</time></trkpt><trkpt lat="44.4543033" lon="11.11949"><ele>145.4</ele><time>2026-04-03T11:37:45.572Z</time></trkpt><trkpt lat="44.45421" lon="11.1194883"><ele>145.2</ele><time>2026-04-03T11:37:46.575Z</time></trkpt><trkpt lat="44.45411" lon="11.1194867"><ele>145.0</ele><time>2026-04-03T11:37:47.572Z</time></trkpt><trkpt lat="44.454005" lon="11.1194833"><ele>145.0</ele><time>2026-04-03T11:37:48.571Z</time></trkpt><trkpt lat="44.4538967" lon="11.1194833"><ele>145.0</ele><time>2026-04-03T11:37:49.569Z</time></trkpt><trkpt lat="44.4537917" lon="11.119485"><ele>145.0</ele><time>2026-04-03T11:37:50.57Z</time></trkpt><trkpt lat="44.453685" lon="11.1194867"><ele>145.0</ele><time>2026-04-03T11:37:51.57Z</time></trkpt><trkpt lat="44.4535767" lon="11.119485"><ele>145.0</ele><time>2026-04-03T11:37:52.568Z</time></trkpt><trkpt lat="44.4534667" lon="11.119485"><ele>145.25</ele><time>2026-04-03T11:37:53.566Z</time></trkpt><trkpt lat="44.453355" lon="11.1194883"><ele>145.5</ele><time>2026-04-03T11:37:54.57Z</time></trkpt><trkpt lat="44.4532383" lon="11.1194917"><ele>145.75</ele><time>2026-04-03T11:37:55.57Z</time></trkpt><trkpt lat="44.4531183" lon="11.119495"><ele>146.0</ele><time>2026-04-03T11:37:56.574Z</time></trkpt><trkpt lat="44.4529983" lon="11.1195017"><ele>146.5</ele><time>2026-04-03T11:37:57.571Z</time></trkpt><trkpt lat="44.4528767" lon="11.1195133"><ele>147.0</ele><time>2026-04-03T11:37:58.573Z</time></trkpt><trkpt lat="44.4527567" lon="11.119525"><ele>147.5</ele><time>2026-04-03T11:37:59.571Z</time></trkpt><trkpt lat="44.4526383" lon="11.1195283"><ele>148.0</ele><time>2026-04-03T11:38:00.577Z</time></trkpt><trkpt lat="44.45252" lon="11.1195367"><ele>148.0</ele><time>2026-04-03T11:38:01.577Z</time></trkpt><trkpt lat="44.4524" lon="11.1195433"><ele>148.0</ele><time>2026-04-03T11:38:02.58Z</time></trkpt><trkpt lat="44.4522817" lon="11.1195467"><ele>148.0</ele><time>2026-04-03T11:38:03.571Z</time></trkpt><trkpt lat="44.45216" lon="11.1195467"><ele>148.0</ele><time>2026-04-03T11:38:04.577Z</time></trkpt><trkpt lat="44.4520367" lon="11.1195467"><ele>148.25</ele><time>2026-04-03T11:38:05.577Z</time></trkpt><trkpt lat="44.4519167" lon="11.1195433"><ele>148.5</ele><time>2026-04-03T11:38:06.57Z</time></trkpt><trkpt lat="44.4517933" lon="11.11955"><ele>148.75</ele><time>2026-04-03T11:38:07.571Z</time></trkpt><trkpt lat="44.451675" lon="11.1195467"><ele>149.0</ele><time>2026-04-03T11:38:08.571Z</time></trkpt><trkpt lat="44.4515517" lon="11.11955"><ele>149.0</ele><time>2026-04-03T11:38:09.577Z</time></trkpt><trkpt lat="44.4514283" lon="11.1195533"><ele>149.0</ele><time>2026-04-03T11:38:10.574Z</time></trkpt><trkpt lat="44.4513017" lon="11.1195533"><ele>149.0</ele><time>2026-04-03T11:38:11.572Z</time></trkpt><trkpt lat="44.451175" lon="11.119555"><ele>149.0</ele><time>2026-04-03T11:38:12.571Z</time></trkpt><trkpt lat="44.4510483" lon="11.119555"><ele>149.25</ele><time>2026-04-03T11:38:13.574Z</time></trkpt><trkpt lat="44.450925" lon="11.1195583"><ele>149.5</ele><time>2026-04-03T11:38:14.577Z</time></trkpt><trkpt lat="44.4508017" lon="11.1195583"><ele>149.75</ele><time>2026-04-03T11:38:15.573Z</time></trkpt><trkpt lat="44.45068" lon="11.1195617"><ele>150.0</ele><time>2026-04-03T11:38:16.577Z</time></trkpt><trkpt lat="44.4505567" lon="11.11956"><ele>149.75</ele><time>2026-04-03T11:38:17.573Z</time></trkpt><trkpt lat="44.4504283" lon="11.1195567"><ele>149.5</ele><time>2026-04-03T11:38:18.571Z</time></trkpt><trkpt lat="44.4502983" lon="11.1195583"><ele>149.25</ele><time>2026-04-03T11:38:19.569Z</time></trkpt><trkpt lat="44.45017" lon="11.1195583"><ele>149.0</ele><time>2026-04-03T11:38:20.572Z</time></trkpt><trkpt lat="44.45005" lon="11.1195583"><ele>149.0</ele><time>2026-04-03T11:38:21.575Z</time></trkpt><trkpt lat="44.4499383" lon="11.1195633"><ele>149.0</ele><time>2026-04-03T11:38:22.572Z</time></trkpt><trkpt lat="44.4498267" lon="11.1195667"><ele>149.0</ele><time>2026-04-03T11:38:23.571Z</time></trkpt><trkpt lat="44.4497183" lon="11.1195717"><ele>149.0</ele><time>2026-04-03T11:38:24.574Z</time></trkpt><trkpt lat="44.4496167" lon="11.1195767"><ele>149.0</ele><time>2026-04-03T11:38:25.571Z</time></trkpt><trkpt lat="44.4495333" lon="11.11958"><ele>149.33333333333331</ele><time>2026-04-03T11:38:26.569Z</time></trkpt><trkpt lat="44.44946" lon="11.1195817"><ele>149.66666666666666</ele><time>2026-04-03T11:38:27.569Z</time></trkpt><trkpt lat="44.4493667" lon="11.119575"><ele>150.0</ele><time>2026-04-03T11:38:29.57Z</time></trkpt><trkpt lat="44.4493717" lon="11.11945"><ele>150.33333333333334</ele><time>2026-04-03T11:38:31.574Z</time></trkpt><trkpt lat="44.4493933" lon="11.1193617"><ele>150.66666666666669</ele><time>2026-04-03T11:38:32.571Z</time></trkpt><trkpt lat="44.4494283" lon="11.1192567"><ele>151.0</ele><time>2026-04-03T11:38:33.576Z</time></trkpt><trkpt lat="44.4494733" lon="11.1191333"><ele>151.0</ele><time>2026-04-03T11:38:34.571Z</time></trkpt><trkpt lat="44.449515" lon="11.1189933"><ele>151.0</ele><time>2026-04-03T11:38:35.572Z</time></trkpt><trkpt lat="44.449555" lon="11.1188483"><ele>151.0</ele><time>2026-04-03T11:38:36.578Z</time></trkpt><trkpt lat="44.449595" lon="11.1187017"><ele>151.0</ele><time>2026-04-03T11:38:37.574Z</time></trkpt><trkpt lat="44.4496333" lon="11.1185533"><ele>151.0</ele><time>2026-04-03T11:38:38.572Z</time></trkpt><trkpt lat="44.4496717" lon="11.118405"><ele>150.8</ele><time>2026-04-03T11:38:39.571Z</time></trkpt><trkpt lat="44.4497083" lon="11.1182533"><ele>150.6</ele><time>2026-04-03T11:38:40.571Z</time></trkpt><trkpt lat="44.449745" lon="11.118105"><ele>150.4</ele><time>2026-04-03T11:38:41.576Z</time></trkpt><trkpt lat="44.4497783" lon="11.1179667"><ele>150.2</ele><time>2026-04-03T11:38:42.573Z</time></trkpt><trkpt lat="44.4498017" lon="11.1178367"><ele>150.0</ele><time>2026-04-03T11:38:43.577Z</time></trkpt><trkpt lat="44.4498133" lon="11.117715"><ele>149.5</ele><time>2026-04-03T11:38:44.578Z</time></trkpt><trkpt lat="44.4498167" lon="11.1175983"><ele>149.0</ele><time>2026-04-03T11:38:45.569Z</time></trkpt><trkpt lat="44.44981" lon="11.1174817"><ele>148.5</ele><time>2026-04-03T11:38:46.57Z</time></trkpt><trkpt lat="44.4497967" lon="11.117355"><ele>148.0</ele><time>2026-04-03T11:38:47.574Z</time></trkpt><trkpt lat="44.4497833" lon="11.1172267"><ele>147.5</ele><time>2026-04-03T11:38:48.574Z</time></trkpt><trkpt lat="44.4497683" lon="11.1171067"><ele>147.0</ele><time>2026-04-03T11:38:49.573Z</time></trkpt><trkpt lat="44.4497517" lon="11.1169983"><ele>147.0</ele><time>2026-04-03T11:38:50.571Z</time></trkpt><trkpt lat="44.4497283" lon="11.116895"><ele>147.0</ele><time>2026-04-03T11:38:51.575Z</time></trkpt><trkpt lat="44.449695" lon="11.1167917"><ele>147.0</ele><time>2026-04-03T11:38:52.568Z</time></trkpt><trkpt lat="44.4496467" lon="11.1166817"><ele>147.0</ele><time>2026-04-03T11:38:53.574Z</time></trkpt><trkpt lat="44.44958" lon="11.1165633"><ele>147.0</ele><time>2026-04-03T11:38:54.571Z</time></trkpt><trkpt lat="44.4495117" lon="11.1164367"><ele>147.2</ele><time>2026-04-03T11:38:55.572Z</time></trkpt><trkpt lat="44.449445" lon="11.116315"><ele>147.39999999999998</ele><time>2026-04-03T11:38:56.573Z</time></trkpt><trkpt lat="44.44938" lon="11.11619"><ele>147.60000000000002</ele><time>2026-04-03T11:38:57.578Z</time></trkpt><trkpt lat="44.44932" lon="11.1160583"><ele>147.8</ele><time>2026-04-03T11:38:58.571Z</time></trkpt><trkpt lat="44.4492617" lon="11.1159217"><ele>148.0</ele><time>2026-04-03T11:38:59.572Z</time></trkpt><trkpt lat="44.4492033" lon="11.11578"><ele>148.25</ele><time>2026-04-03T11:39:00.571Z</time></trkpt><trkpt lat="44.4491417" lon="11.1156333"><ele>148.5</ele><time>2026-04-03T11:39:01.57Z</time></trkpt><trkpt lat="44.4490783" lon="11.115495"><ele>148.75</ele><time>2026-04-03T11:39:02.571Z</time></trkpt><trkpt lat="44.4490217" lon="11.115365"><ele>149.0</ele><time>2026-04-03T11:39:03.572Z</time></trkpt><trkpt lat="44.4489683" lon="11.1152417"><ele>149.0</ele><time>2026-04-03T11:39:04.57Z</time></trkpt><trkpt lat="44.448925" lon="11.1151333"><ele>149.0</ele><time>2026-04-03T11:39:05.578Z</time></trkpt><trkpt lat="44.4488917" lon="11.115035"><ele>149.0</ele><time>2026-04-03T11:39:06.569Z</time></trkpt><trkpt lat="44.4488767" lon="11.1149417"><ele>149.0</ele><time>2026-04-03T11:39:07.581Z</time></trkpt><trkpt lat="44.44891" lon="11.1147917"><ele>149.0</ele><time>2026-04-03T11:39:09.57Z</time></trkpt><trkpt lat="44.4489767" lon="11.1147583"><ele>149.0</ele><time>2026-04-03T11:39:10.576Z</time></trkpt><trkpt lat="44.4490567" lon="11.114735"><ele>149.6</ele><time>2026-04-03T11:39:11.568Z</time></trkpt><trkpt lat="44.449145" lon="11.1147067"><ele>150.2</ele><time>2026-04-03T11:39:12.579Z</time></trkpt><trkpt lat="44.4492417" lon="11.1146767"><ele>150.79999999999998</ele><time>2026-04-03T11:39:13.571Z</time></trkpt><trkpt lat="44.449345" lon="11.1146433"><ele>151.4</ele><time>2026-04-03T11:39:14.579Z</time></trkpt><trkpt lat="44.44945" lon="11.1146067"><ele>152.0</ele><time>2026-04-03T11:39:15.573Z</time></trkpt><trkpt lat="44.4495567" lon="11.1145733"><ele>151.5</ele><time>2026-04-03T11:39:16.568Z</time></trkpt><trkpt lat="44.4496683" lon="11.1145367"><ele>151.0</ele><time>2026-04-03T11:39:17.571Z</time></trkpt><trkpt lat="44.4497817" lon="11.1145"><ele>150.5</ele><time>2026-04-03T11:39:18.572Z</time></trkpt><trkpt lat="44.4498983" lon="11.1144633"><ele>150.0</ele><time>2026-04-03T11:39:19.575Z</time></trkpt><trkpt lat="44.4500117" lon="11.1144233"><ele>150.0</ele><time>2026-04-03T11:39:20.571Z</time></trkpt><trkpt lat="44.4501267" lon="11.1143867"><ele>150.0</ele><time>2026-04-03T11:39:21.572Z</time></trkpt><trkpt lat="44.4502417" lon="11.1143483"><ele>150.0</ele><time>2026-04-03T11:39:22.57Z</time></trkpt><trkpt lat="44.4503567" lon="11.11431"><ele>150.0</ele><time>2026-04-03T11:39:23.577Z</time></trkpt><trkpt lat="44.4504683" lon="11.11427"><ele>149.4</ele><time>2026-04-03T11:39:24.57Z</time></trkpt><trkpt lat="44.4505767" lon="11.114235"><ele>148.8</ele><time>2026-04-03T11:39:25.569Z</time></trkpt><trkpt lat="44.4506817" lon="11.1142"><ele>148.2</ele><time>2026-04-03T11:39:26.57Z</time></trkpt><trkpt lat="44.450785" lon="11.1141717"><ele>147.6</ele><time>2026-04-03T11:39:27.571Z</time></trkpt><trkpt lat="44.4508867" lon="11.114155"><ele>147.0</ele><time>2026-04-03T11:39:28.573Z</time></trkpt><trkpt lat="44.450995" lon="11.1141567"><ele>147.0</ele><time>2026-04-03T11:39:29.579Z</time></trkpt><trkpt lat="44.451105" lon="11.11417"><ele>147.0</ele><time>2026-04-03T11:39:30.571Z</time></trkpt><trkpt lat="44.45122" lon="11.1141967"><ele>147.0</ele><time>2026-04-03T11:39:31.571Z</time></trkpt><trkpt lat="44.4513367" lon="11.11422"><ele>147.0</ele><time>2026-04-03T11:39:32.57Z</time></trkpt><trkpt lat="44.4514533" lon="11.1142467"><ele>147.0</ele><time>2026-04-03T11:39:33.578Z</time></trkpt><trkpt lat="44.4515717" lon="11.11427"><ele>147.0</ele><time>2026-04-03T11:39:34.571Z</time></trkpt><trkpt lat="44.4516917" lon="11.1142983"><ele>147.0</ele><time>2026-04-03T11:39:35.579Z</time></trkpt><trkpt lat="44.451815" lon="11.1143317"><ele>147.0</ele><time>2026-04-03T11:39:36.572Z</time></trkpt><trkpt lat="44.4519383" lon="11.1143617"><ele>147.0</ele><time>2026-04-03T11:39:37.576Z</time></trkpt><trkpt lat="44.45206" lon="11.1143917"><ele>147.0</ele><time>2026-04-03T11:39:38.571Z</time></trkpt><trkpt lat="44.45218" lon="11.11442"><ele>147.0</ele><time>2026-04-03T11:39:39.573Z</time></trkpt><trkpt lat="44.4522983" lon="11.1144467"><ele>147.0</ele><time>2026-04-03T11:39:40.575Z</time></trkpt><trkpt lat="44.45242" lon="11.1144767"><ele>146.5</ele><time>2026-04-03T11:39:41.571Z</time></trkpt><trkpt lat="44.4525417" lon="11.114505"><ele>146.0</ele><time>2026-04-03T11:39:42.573Z</time></trkpt><trkpt lat="44.4526617" lon="11.1145317"><ele>145.5</ele><time>2026-04-03T11:39:43.572Z</time></trkpt><trkpt lat="44.45278" lon="11.1145567"><ele>145.0</ele><time>2026-04-03T11:39:44.574Z</time></trkpt><trkpt lat="44.4529" lon="11.114585"><ele>145.25</ele><time>2026-04-03T11:39:45.57Z</time></trkpt><trkpt lat="44.4530267" lon="11.1146217"><ele>145.5</ele><time>2026-04-03T11:39:46.568Z</time></trkpt><trkpt lat="44.4531517" lon="11.1146517"><ele>145.75</ele><time>2026-04-03T11:39:47.576Z</time></trkpt><trkpt lat="44.4532717" lon="11.1146783"><ele>146.0</ele><time>2026-04-03T11:39:48.575Z</time></trkpt><trkpt lat="44.4533967" lon="11.1147033"><ele>146.0</ele><time>2026-04-03T11:39:49.571Z</time></trkpt><trkpt lat="44.4535183" lon="11.11473"><ele>146.0</ele><time>2026-04-03T11:39:50.571Z</time></trkpt><trkpt lat="44.4536367" lon="11.1147617"><ele>146.0</ele><time>2026-04-03T11:39:51.573Z</time></trkpt><trkpt lat="44.453755" lon="11.1147917"><ele>146.0</ele><time>2026-04-03T11:39:52.577Z</time></trkpt><trkpt lat="44.45387" lon="11.1148217"><ele>145.8</ele><time>2026-04-03T11:39:53.573Z</time></trkpt><trkpt lat="44.4539833" lon="11.1148517"><ele>145.6</ele><time>2026-04-03T11:39:54.571Z</time></trkpt><trkpt lat="44.4540933" lon="11.1148783"><ele>145.4</ele><time>2026-04-03T11:39:55.57Z</time></trkpt><trkpt lat="44.4542017" lon="11.1149033"><ele>145.2</ele><time>2026-04-03T11:39:56.576Z</time></trkpt><trkpt lat="44.4543033" lon="11.1149283"><ele>145.0</ele><time>2026-04-03T11:39:57.573Z</time></trkpt><trkpt lat="44.4543967" lon="11.114945"><ele>144.8</ele><time>2026-04-03T11:39:58.568Z</time></trkpt><trkpt lat="44.4544833" lon="11.1149483"><ele>144.6</ele><time>2026-04-03T11:39:59.57Z</time></trkpt><trkpt lat="44.4545683" lon="11.1149417"><ele>144.4</ele><time>2026-04-03T11:40:00.57Z</time></trkpt><trkpt lat="44.4546583" lon="11.1149167"><ele>144.2</ele><time>2026-04-03T11:40:01.57Z</time></trkpt><trkpt lat="44.4547533" lon="11.1148717"><ele>144.0</ele><time>2026-04-03T11:40:02.574Z</time></trkpt><trkpt lat="44.454855" lon="11.11482"><ele>143.75</ele><time>2026-04-03T11:40:03.573Z</time></trkpt><trkpt lat="44.4549583" lon="11.1147567"><ele>143.5</ele><time>2026-04-03T11:40:04.568Z</time></trkpt><trkpt lat="44.4550683" lon="11.114695"><ele>143.25</ele><time>2026-04-03T11:40:05.577Z</time></trkpt><trkpt lat="44.4551817" lon="11.11463"><ele>143.0</ele><time>2026-04-03T11:40:06.569Z</time></trkpt><trkpt lat="44.4552967" lon="11.11457"><ele>143.0</ele><time>2026-04-03T11:40:07.57Z</time></trkpt><trkpt lat="44.4554083" lon="11.1145067"><ele>143.0</ele><time>2026-04-03T11:40:08.567Z</time></trkpt><trkpt lat="44.4555183" lon="11.114445"><ele>143.0</ele><time>2026-04-03T11:40:09.572Z</time></trkpt><trkpt lat="44.4556217" lon="11.11438"><ele>143.0</ele><time>2026-04-03T11:40:10.571Z</time></trkpt><trkpt lat="44.4557283" lon="11.1143283"><ele>142.25</ele><time>2026-04-03T11:40:11.571Z</time></trkpt><trkpt lat="44.4558383" lon="11.11428"><ele>141.5</ele><time>2026-04-03T11:40:12.572Z</time></trkpt><trkpt lat="44.4559483" lon="11.1142467"><ele>140.75</ele><time>2026-04-03T11:40:13.57Z</time></trkpt><trkpt lat="44.4560633" lon="11.1142433"><ele>140.0</ele><time>2026-04-03T11:40:14.57Z</time></trkpt><trkpt lat="44.456175" lon="11.1142583"><ele>139.75</ele><time>2026-04-03T11:40:15.57Z</time></trkpt><trkpt lat="44.4562867" lon="11.1142883"><ele>139.5</ele><time>2026-04-03T11:40:16.572Z</time></trkpt><trkpt lat="44.4564" lon="11.1143133"><ele>139.25</ele><time>2026-04-03T11:40:17.571Z</time></trkpt><trkpt lat="44.4565117" lon="11.1143217"><ele>139.0</ele><time>2026-04-03T11:40:18.572Z</time></trkpt><trkpt lat="44.4566217" lon="11.1143083"><ele>139.0</ele><time>2026-04-03T11:40:19.572Z</time></trkpt><trkpt lat="44.45673" lon="11.1142717"><ele>139.0</ele><time>2026-04-03T11:40:20.571Z</time></trkpt><trkpt lat="44.4568333" lon="11.1142133"><ele>139.0</ele><time>2026-04-03T11:40:21.57Z</time></trkpt><trkpt lat="44.45693" lon="11.1141383"><ele>139.0</ele><time>2026-04-03T11:40:22.576Z</time></trkpt><trkpt lat="44.4570267" lon="11.1140617"><ele>139.0</ele><time>2026-04-03T11:40:23.569Z</time></trkpt><trkpt lat="44.45712" lon="11.113985"><ele>140.8</ele><time>2026-04-03T11:40:24.569Z</time></trkpt><trkpt lat="44.4572117" lon="11.113905"><ele>142.60000000000002</ele><time>2026-04-03T11:40:25.567Z</time></trkpt><trkpt lat="44.457305" lon="11.1138283"><ele>144.4</ele><time>2026-04-03T11:40:26.57Z</time></trkpt><trkpt lat="44.457405" lon="11.1137633"><ele>146.20000000000002</ele><time>2026-04-03T11:40:27.578Z</time></trkpt><trkpt lat="44.457515" lon="11.1137133"><ele>148.0</ele><time>2026-04-03T11:40:28.571Z</time></trkpt><trkpt lat="44.4576267" lon="11.113665"><ele>148.0</ele><time>2026-04-03T11:40:29.577Z</time></trkpt><trkpt lat="44.457735" lon="11.113625"><ele>148.0</ele><time>2026-04-03T11:40:30.57Z</time></trkpt><trkpt lat="44.4578383" lon="11.113595"><ele>148.0</ele><time>2026-04-03T11:40:31.568Z</time></trkpt><trkpt lat="44.4579417" lon="11.1135717"><ele>148.0</ele><time>2026-04-03T11:40:32.573Z</time></trkpt><trkpt lat="44.4580417" lon="11.1135583"><ele>148.0</ele><time>2026-04-03T11:40:33.574Z</time></trkpt><trkpt lat="44.458145" lon="11.1135817"><ele>148.0</ele><time>2026-04-03T11:40:34.575Z</time></trkpt><trkpt lat="44.458245" lon="11.1136183"><ele>148.0</ele><time>2026-04-03T11:40:35.577Z</time></trkpt><trkpt lat="44.45835" lon="11.1136867"><ele>148.0</ele><time>2026-04-03T11:40:36.568Z</time></trkpt><trkpt lat="44.4584567" lon="11.1137683"><ele>148.0</ele><time>2026-04-03T11:40:37.567Z</time></trkpt><trkpt lat="44.45856" lon="11.1138517"><ele>148.0</ele><time>2026-04-03T11:40:38.571Z</time></trkpt><trkpt lat="44.45866" lon="11.1139283"><ele>148.0</ele><time>2026-04-03T11:40:39.578Z</time></trkpt><trkpt lat="44.4587533" lon="11.1140067"><ele>148.0</ele><time>2026-04-03T11:40:40.574Z</time></trkpt><trkpt lat="44.4588417" lon="11.1140783"><ele>148.0</ele><time>2026-04-03T11:40:41.571Z</time></trkpt><trkpt lat="44.4589283" lon="11.1141383"><ele>148.0</ele><time>2026-04-03T11:40:42.571Z</time></trkpt><trkpt lat="44.4590133" lon="11.11419"><ele>146.5</ele><time>2026-04-03T11:40:43.574Z</time></trkpt><trkpt lat="44.4590917" lon="11.1142317"><ele>145.0</ele><time>2026-04-03T11:40:44.57Z</time></trkpt><trkpt lat="44.459165" lon="11.11427"><ele>143.5</ele><time>2026-04-03T11:40:45.572Z</time></trkpt><trkpt lat="44.4592367" lon="11.114305"><ele>142.0</ele><time>2026-04-03T11:40:46.569Z</time></trkpt><trkpt lat="44.4593117" lon="11.114335"><ele>140.5</ele><time>2026-04-03T11:40:47.576Z</time></trkpt><trkpt lat="44.45938" lon="11.1143633"><ele>139.0</ele><time>2026-04-03T11:40:48.571Z</time></trkpt><trkpt lat="44.4594467" lon="11.1143917"><ele>139.0</ele><time>2026-04-03T11:40:49.57Z</time></trkpt><trkpt lat="44.4595233" lon="11.1144267"><ele>139.0</ele><time>2026-04-03T11:40:50.574Z</time></trkpt><trkpt lat="44.459605" lon="11.1144667"><ele>139.0</ele><time>2026-04-03T11:40:51.574Z</time></trkpt><trkpt lat="44.4596883" lon="11.1145083"><ele>139.0</ele><time>2026-04-03T11:40:52.573Z</time></trkpt><trkpt lat="44.4597733" lon="11.1145567"><ele>139.0</ele><time>2026-04-03T11:40:53.572Z</time></trkpt><trkpt lat="44.4598617" lon="11.11461"><ele>139.0</ele><time>2026-04-03T11:40:54.584Z</time></trkpt><trkpt lat="44.4599533" lon="11.11466"><ele>139.0</ele><time>2026-04-03T11:40:55.572Z</time></trkpt><trkpt lat="44.4600467" lon="11.1147167"><ele>139.0</ele><time>2026-04-03T11:40:56.573Z</time></trkpt><trkpt lat="44.460145" lon="11.11478"><ele>139.0</ele><time>2026-04-03T11:40:57.568Z</time></trkpt><trkpt lat="44.460245" lon="11.11484"><ele>139.0</ele><time>2026-04-03T11:40:58.572Z</time></trkpt><trkpt lat="44.4603417" lon="11.1149017"><ele>139.0</ele><time>2026-04-03T11:40:59.57Z</time></trkpt><trkpt lat="44.4604433" lon="11.1149667"><ele>138.5</ele><time>2026-04-03T11:41:00.572Z</time></trkpt><trkpt lat="44.4605467" lon="11.1150317"><ele>138.0</ele><time>2026-04-03T11:41:01.574Z</time></trkpt><trkpt lat="44.4606517" lon="11.1150983"><ele>137.5</ele><time>2026-04-03T11:41:02.578Z</time></trkpt><trkpt lat="44.4607533" lon="11.1151667"><ele>137.0</ele><time>2026-04-03T11:41:03.571Z</time></trkpt><trkpt lat="44.4608567" lon="11.1152317"><ele>137.0</ele><time>2026-04-03T11:41:04.569Z</time></trkpt><trkpt lat="44.4609617" lon="11.1152967"><ele>137.0</ele><time>2026-04-03T11:41:05.573Z</time></trkpt><trkpt lat="44.4610633" lon="11.115365"><ele>137.0</ele><time>2026-04-03T11:41:06.577Z</time></trkpt><trkpt lat="44.4611633" lon="11.11543"><ele>137.0</ele><time>2026-04-03T11:41:07.573Z</time></trkpt><trkpt lat="44.46126" lon="11.1154967"><ele>137.0</ele><time>2026-04-03T11:41:08.572Z</time></trkpt><trkpt lat="44.4613517" lon="11.1155617"><ele>136.6</ele><time>2026-04-03T11:41:09.569Z</time></trkpt><trkpt lat="44.4614483" lon="11.1156283"><ele>136.2</ele><time>2026-04-03T11:41:10.569Z</time></trkpt><trkpt lat="44.4615433" lon="11.1156867"><ele>135.8</ele><time>2026-04-03T11:41:11.572Z</time></trkpt><trkpt lat="44.4616417" lon="11.1157517"><ele>135.4</ele><time>2026-04-03T11:41:12.574Z</time></trkpt><trkpt lat="44.461745" lon="11.1158183"><ele>135.0</ele><time>2026-04-03T11:41:13.569Z</time></trkpt><trkpt lat="44.4618533" lon="11.1158917"><ele>135.2</ele><time>2026-04-03T11:41:14.577Z</time></trkpt><trkpt lat="44.4619633" lon="11.1159683"><ele>135.4</ele><time>2026-04-03T11:41:15.568Z</time></trkpt><trkpt lat="44.46207" lon="11.1160367"><ele>135.6</ele><time>2026-04-03T11:41:16.573Z</time></trkpt><trkpt lat="44.4621683" lon="11.1160983"><ele>135.8</ele><time>2026-04-03T11:41:17.571Z</time></trkpt><trkpt lat="44.462255" lon="11.1161583"><ele>136.0</ele><time>2026-04-03T11:41:18.572Z</time></trkpt><trkpt lat="44.4623417" lon="11.1162"><ele>136.0</ele><time>2026-04-03T11:41:19.569Z</time></trkpt><trkpt lat="44.462435" lon="11.1162033"><ele>136.0</ele><time>2026-04-03T11:41:20.572Z</time></trkpt><trkpt lat="44.4625333" lon="11.1161683"><ele>136.0</ele><time>2026-04-03T11:41:21.573Z</time></trkpt><trkpt lat="44.4626233" lon="11.116105"><ele>136.0</ele><time>2026-04-03T11:41:22.572Z</time></trkpt><trkpt lat="44.4627083" lon="11.1160367"><ele>136.0</ele><time>2026-04-03T11:41:23.572Z</time></trkpt><trkpt lat="44.46279" lon="11.1159633"><ele>136.0</ele><time>2026-04-03T11:41:24.57Z</time></trkpt><trkpt lat="44.462865" lon="11.11589"><ele>136.0</ele><time>2026-04-03T11:41:25.569Z</time></trkpt><trkpt lat="44.4629317" lon="11.1158183"><ele>136.0</ele><time>2026-04-03T11:41:26.568Z</time></trkpt><trkpt lat="44.4629917" lon="11.1157533"><ele>136.0</ele><time>2026-04-03T11:41:27.568Z</time></trkpt><trkpt lat="44.4630567" lon="11.1156833"><ele>136.0</ele><time>2026-04-03T11:41:28.574Z</time></trkpt><trkpt lat="44.4631133" lon="11.1155883"><ele>136.0</ele><time>2026-04-03T11:41:29.573Z</time></trkpt><trkpt lat="44.4631683" lon="11.1154883"><ele>136.16666666666669</ele><time>2026-04-03T11:41:30.569Z</time></trkpt><trkpt lat="44.4632233" lon="11.1153883"><ele>136.33333333333334</ele><time>2026-04-03T11:41:31.567Z</time></trkpt><trkpt lat="44.4632817" lon="11.115295"><ele>136.5</ele><time>2026-04-03T11:41:32.572Z</time></trkpt><trkpt lat="44.4633417" lon="11.1151967"><ele>136.66666666666666</ele><time>2026-04-03T11:41:33.581Z</time></trkpt><trkpt lat="44.4634083" lon="11.1151067"><ele>136.83333333333331</ele><time>2026-04-03T11:41:34.572Z</time></trkpt><trkpt lat="44.4634667" lon="11.11503"><ele>137.0</ele><time>2026-04-03T11:41:35.571Z</time></trkpt><trkpt lat="44.463525" lon="11.1149533"><ele>137.66666666666666</ele><time>2026-04-03T11:41:36.571Z</time></trkpt><trkpt lat="44.463575" lon="11.1148717"><ele>138.33333333333331</ele><time>2026-04-03T11:41:37.578Z</time></trkpt><trkpt lat="44.463605" lon="11.11477"><ele>139.0</ele><time>2026-04-03T11:41:38.576Z</time></trkpt><trkpt lat="44.4636233" lon="11.1146633"><ele>139.66666666666666</ele><time>2026-04-03T11:41:39.574Z</time></trkpt><trkpt lat="44.4636333" lon="11.1145467"><ele>140.33333333333334</ele><time>2026-04-03T11:41:40.568Z</time></trkpt><trkpt lat="44.4636417" lon="11.11442"><ele>141.0</ele><time>2026-04-03T11:41:41.57Z</time></trkpt><trkpt lat="44.4636483" lon="11.1142867"><ele>141.0</ele><time>2026-04-03T11:41:42.574Z</time></trkpt><trkpt lat="44.4636567" lon="11.114145"><ele>141.0</ele><time>2026-04-03T11:41:43.57Z</time></trkpt><trkpt lat="44.4636683" lon="11.1140017"><ele>141.0</ele><time>2026-04-03T11:41:44.574Z</time></trkpt><trkpt lat="44.4636783" lon="11.11386"><ele>141.0</ele><time>2026-04-03T11:41:45.576Z</time></trkpt><trkpt lat="44.4636917" lon="11.1137183"><ele>141.0</ele><time>2026-04-03T11:41:46.575Z</time></trkpt><trkpt lat="44.4637067" lon="11.11358"><ele>142.0</ele><time>2026-04-03T11:41:47.574Z</time></trkpt><trkpt lat="44.4637117" lon="11.11344"><ele>143.0</ele><time>2026-04-03T11:41:48.57Z</time></trkpt><trkpt lat="44.4637067" lon="11.113305"><ele>144.0</ele><time>2026-04-03T11:41:49.577Z</time></trkpt><trkpt lat="44.4636967" lon="11.1131683"><ele>145.0</ele><time>2026-04-03T11:41:50.571Z</time></trkpt><trkpt lat="44.463685" lon="11.113025"><ele>146.0</ele><time>2026-04-03T11:41:51.571Z</time></trkpt><trkpt lat="44.46367" lon="11.1128733"><ele>147.0</ele><time>2026-04-03T11:41:52.572Z</time></trkpt><trkpt lat="44.4636483" lon="11.1127283"><ele>148.0</ele><time>2026-04-03T11:41:53.574Z</time></trkpt><trkpt lat="44.4636317" lon="11.1125817"><ele>149.0</ele><time>2026-04-03T11:41:54.576Z</time></trkpt><trkpt lat="44.46362" lon="11.112435"><ele>150.0</ele><time>2026-04-03T11:41:55.573Z</time></trkpt><trkpt lat="44.4636183" lon="11.1122883"><ele>151.0</ele><time>2026-04-03T11:41:56.571Z</time></trkpt><trkpt lat="44.46363" lon="11.1121417"><ele>152.8</ele><time>2026-04-03T11:41:57.57Z</time></trkpt><trkpt lat="44.463655" lon="11.111995"><ele>154.6</ele><time>2026-04-03T11:41:58.573Z</time></trkpt><trkpt lat="44.4636817" lon="11.11185"><ele>156.4</ele><time>2026-04-03T11:41:59.568Z</time></trkpt><trkpt lat="44.463715" lon="11.1117067"><ele>158.2</ele><time>2026-04-03T11:42:00.573Z</time></trkpt><trkpt lat="44.4637467" lon="11.1115683"><ele>160.0</ele><time>2026-04-03T11:42:01.574Z</time></trkpt><trkpt lat="44.4637783" lon="11.11143"><ele>162.8</ele><time>2026-04-03T11:42:02.573Z</time></trkpt><trkpt lat="44.4638133" lon="11.1112967"><ele>165.6</ele><time>2026-04-03T11:42:03.575Z</time></trkpt><trkpt lat="44.4638467" lon="11.111175"><ele>168.39999999999998</ele><time>2026-04-03T11:42:04.572Z</time></trkpt><trkpt lat="44.46387" lon="11.1110683"><ele>171.2</ele><time>2026-04-03T11:42:05.571Z</time></trkpt><trkpt lat="44.4638867" lon="11.110975"><ele>174.0</ele><time>2026-04-03T11:42:06.575Z</time></trkpt><trkpt lat="44.4638783" lon="11.1108117"><ele>176.6</ele><time>2026-04-03T11:42:08.575Z</time></trkpt><trkpt lat="44.4638383" lon="11.1107367"><ele>179.2</ele><time>2026-04-03T11:42:09.578Z</time></trkpt><trkpt lat="44.4637317" lon="11.1106217"><ele>181.79999999999998</ele><time>2026-04-03T11:42:11.572Z</time></trkpt><trkpt lat="44.4636417" lon="11.1105667"><ele>184.39999999999998</ele><time>2026-04-03T11:42:12.568Z</time></trkpt><trkpt lat="44.4635483" lon="11.1105"><ele>187.0</ele><time>2026-04-03T11:42:13.571Z</time></trkpt><trkpt lat="44.46347" lon="11.11043"><ele>187.0</ele><time>2026-04-03T11:42:14.576Z</time></trkpt><trkpt lat="44.4633817" lon="11.1103583"><ele>187.0</ele><time>2026-04-03T11:42:15.571Z</time></trkpt><trkpt lat="44.4632983" lon="11.1102783"><ele>187.0</ele><time>2026-04-03T11:42:16.569Z</time></trkpt><trkpt lat="44.4632133" lon="11.110195"><ele>187.0</ele><time>2026-04-03T11:42:17.571Z</time></trkpt><trkpt lat="44.46313" lon="11.1101083"><ele>187.0</ele><time>2026-04-03T11:42:18.573Z</time></trkpt><trkpt lat="44.463045" lon="11.11002"><ele>187.0</ele><time>2026-04-03T11:42:19.569Z</time></trkpt><trkpt lat="44.46296" lon="11.1099333"><ele>187.0</ele><time>2026-04-03T11:42:20.568Z</time></trkpt><trkpt lat="44.46288" lon="11.10985"><ele>187.0</ele><time>2026-04-03T11:42:21.569Z</time></trkpt><trkpt lat="44.4628" lon="11.109775"><ele>187.0</ele><time>2026-04-03T11:42:22.569Z</time></trkpt><trkpt lat="44.462715" lon="11.1096983"><ele>187.0</ele><time>2026-04-03T11:42:23.567Z</time></trkpt><trkpt lat="44.46263" lon="11.109625"><ele>188.0</ele><time>2026-04-03T11:42:24.571Z</time></trkpt><trkpt lat="44.462545" lon="11.10955"><ele>189.0</ele><time>2026-04-03T11:42:25.575Z</time></trkpt><trkpt lat="44.4624683" lon="11.109485"><ele>190.0</ele><time>2026-04-03T11:42:26.571Z</time></trkpt><trkpt lat="44.462405" lon="11.1094267"><ele>191.0</ele><time>2026-04-03T11:42:27.575Z</time></trkpt><trkpt lat="44.462295" lon="11.1093483"><ele>192.0</ele><time>2026-04-03T11:42:29.57Z</time></trkpt><trkpt lat="44.4622283" lon="11.1093317"><ele>192.0</ele><time>2026-04-03T11:42:30.57Z</time></trkpt><trkpt lat="44.46215" lon="11.1093267"><ele>192.0</ele><time>2026-04-03T11:42:31.57Z</time></trkpt><trkpt lat="44.462065" lon="11.1093217"><ele>192.0</ele><time>2026-04-03T11:42:32.574Z</time></trkpt><trkpt lat="44.4619783" lon="11.109325"><ele>192.0</ele><time>2026-04-03T11:42:33.571Z</time></trkpt><trkpt lat="44.4618933" lon="11.1093317"><ele>192.0</ele><time>2026-04-03T11:42:34.568Z</time></trkpt><trkpt lat="44.4618067" lon="11.10934"><ele>192.0</ele><time>2026-04-03T11:42:35.574Z</time></trkpt><trkpt lat="44.4617167" lon="11.1093383"><ele>193.0</ele><time>2026-04-03T11:42:36.569Z</time></trkpt><trkpt lat="44.46163" lon="11.1093417"><ele>194.0</ele><time>2026-04-03T11:42:37.569Z</time></trkpt><trkpt lat="44.46154" lon="11.1093517"><ele>195.0</ele><time>2026-04-03T11:42:38.57Z</time></trkpt><trkpt lat="44.4614467" lon="11.1093767"><ele>196.0</ele><time>2026-04-03T11:42:39.576Z</time></trkpt><trkpt lat="44.4613533" lon="11.1093983"><ele>197.0</ele><time>2026-04-03T11:42:40.57Z</time></trkpt><trkpt lat="44.4612617" lon="11.1094167"><ele>198.0</ele><time>2026-04-03T11:42:41.574Z</time></trkpt><trkpt lat="44.4611683" lon="11.1094317"><ele>199.0</ele><time>2026-04-03T11:42:42.577Z</time></trkpt><trkpt lat="44.461075" lon="11.10945"><ele>200.0</ele><time>2026-04-03T11:42:43.576Z</time></trkpt><trkpt lat="44.46098" lon="11.1094683"><ele>201.0</ele><time>2026-04-03T11:42:44.572Z</time></trkpt><trkpt lat="44.4608883" lon="11.1094917"><ele>202.0</ele><time>2026-04-03T11:42:45.571Z</time></trkpt><trkpt lat="44.4607983" lon="11.1095183"><ele>202.0</ele><time>2026-04-03T11:42:46.571Z</time></trkpt><trkpt lat="44.4607083" lon="11.109555"><ele>202.0</ele><time>2026-04-03T11:42:47.572Z</time></trkpt><trkpt lat="44.4606183" lon="11.1096067"><ele>202.0</ele><time>2026-04-03T11:42:48.567Z</time></trkpt><trkpt lat="44.4605317" lon="11.109665"><ele>202.0</ele><time>2026-04-03T11:42:49.572Z</time></trkpt><trkpt lat="44.46045" lon="11.1097167"><ele>202.0</ele><time>2026-04-03T11:42:50.575Z</time></trkpt><trkpt lat="44.4603683" lon="11.1097533"><ele>204.6</ele><time>2026-04-03T11:42:51.569Z</time></trkpt><trkpt lat="44.460285" lon="11.1097867"><ele>207.2</ele><time>2026-04-03T11:42:52.574Z</time></trkpt><trkpt lat="44.4602067" lon="11.1098283"><ele>209.8</ele><time>2026-04-03T11:42:53.572Z</time></trkpt><trkpt lat="44.4601167" lon="11.10987"><ele>212.4</ele><time>2026-04-03T11:42:54.572Z</time></trkpt><trkpt lat="44.4600283" lon="11.109915"><ele>215.0</ele><time>2026-04-03T11:42:55.569Z</time></trkpt><trkpt lat="44.4599317" lon="11.109955"><ele>215.0</ele><time>2026-04-03T11:42:56.571Z</time></trkpt><trkpt lat="44.4598283" lon="11.1099933"><ele>215.0</ele><time>2026-04-03T11:42:57.569Z</time></trkpt><trkpt lat="44.4597283" lon="11.1100283"><ele>215.0</ele><time>2026-04-03T11:42:58.57Z</time></trkpt><trkpt lat="44.4596283" lon="11.110075"><ele>215.0</ele><time>2026-04-03T11:42:59.571Z</time></trkpt><trkpt lat="44.45954" lon="11.11012"><ele>215.0</ele><time>2026-04-03T11:43:00.57Z</time></trkpt><trkpt lat="44.4594567" lon="11.1101717"><ele>215.66666666666669</ele><time>2026-04-03T11:43:01.569Z</time></trkpt><trkpt lat="44.459375" lon="11.11023"><ele>216.33333333333334</ele><time>2026-04-03T11:43:02.574Z</time></trkpt><trkpt lat="44.4593017" lon="11.1102983"><ele>217.0</ele><time>2026-04-03T11:43:03.574Z</time></trkpt><trkpt lat="44.4592417" lon="11.1103667"><ele>217.66666666666669</ele><time>2026-04-03T11:43:04.575Z</time></trkpt><trkpt lat="44.4591767" lon="11.1104133"><ele>218.33333333333334</ele><time>2026-04-03T11:43:05.572Z</time></trkpt><trkpt lat="44.4591067" lon="11.1104467"><ele>219.0</ele><time>2026-04-03T11:43:06.57Z</time></trkpt><trkpt lat="44.459025" lon="11.11045"><ele>219.0</ele><time>2026-04-03T11:43:07.572Z</time></trkpt><trkpt lat="44.4589233" lon="11.1104317"><ele>218.99999999999997</ele><time>2026-04-03T11:43:08.575Z</time></trkpt><trkpt lat="44.4588167" lon="11.1104017"><ele>218.99999999999997</ele><time>2026-04-03T11:43:09.578Z</time></trkpt><trkpt lat="44.45872" lon="11.1103667"><ele>219.0</ele><time>2026-04-03T11:43:10.574Z</time></trkpt><trkpt lat="44.4586217" lon="11.11036"><ele>219.0</ele><time>2026-04-03T11:43:11.572Z</time></trkpt><trkpt lat="44.4585217" lon="11.1103533"><ele>218.33333333333334</ele><time>2026-04-03T11:43:12.571Z</time></trkpt><trkpt lat="44.4584383" lon="11.1103467"><ele>217.66666666666669</ele><time>2026-04-03T11:43:13.571Z</time></trkpt><trkpt lat="44.4583617" lon="11.110335"><ele>217.0</ele><time>2026-04-03T11:43:14.576Z</time></trkpt><trkpt lat="44.458285" lon="11.110315"><ele>216.33333333333334</ele><time>2026-04-03T11:43:15.57Z</time></trkpt><trkpt lat="44.4582117" lon="11.1102767"><ele>215.66666666666669</ele><time>2026-04-03T11:43:16.574Z</time></trkpt><trkpt lat="44.4581383" lon="11.1102083"><ele>215.0</ele><time>2026-04-03T11:43:17.569Z</time></trkpt><trkpt lat="44.4580533" lon="11.110085"><ele>215.0</ele><time>2026-04-03T11:43:18.569Z</time></trkpt><trkpt lat="44.4579817" lon="11.109965"><ele>215.0</ele><time>2026-04-03T11:43:19.569Z</time></trkpt><trkpt lat="44.457905" lon="11.10984"><ele>215.0</ele><time>2026-04-03T11:43:20.572Z</time></trkpt><trkpt lat="44.4578233" lon="11.10973"><ele>215.0</ele><time>2026-04-03T11:43:21.573Z</time></trkpt><trkpt lat="44.457735" lon="11.1096367"><ele>212.5</ele><time>2026-04-03T11:43:22.569Z</time></trkpt><trkpt lat="44.4576333" lon="11.1095583"><ele>210.0</ele><time>2026-04-03T11:43:23.571Z</time></trkpt><trkpt lat="44.4575133" lon="11.1095017"><ele>207.5</ele><time>2026-04-03T11:43:24.571Z</time></trkpt><trkpt lat="44.4573933" lon="11.10945"><ele>205.0</ele><time>2026-04-03T11:43:25.572Z</time></trkpt><trkpt lat="44.4572783" lon="11.1093983"><ele>205.0</ele><time>2026-04-03T11:43:26.577Z</time></trkpt><trkpt lat="44.4571667" lon="11.10935"><ele>205.0</ele><time>2026-04-03T11:43:27.574Z</time></trkpt><trkpt lat="44.4570583" lon="11.1093033"><ele>205.0</ele><time>2026-04-03T11:43:28.569Z</time></trkpt><trkpt lat="44.456945" lon="11.10926"><ele>205.0</ele><time>2026-04-03T11:43:29.569Z</time></trkpt><trkpt lat="44.4568333" lon="11.1092183"><ele>204.6</ele><time>2026-04-03T11:43:30.569Z</time></trkpt><trkpt lat="44.45672" lon="11.1091817"><ele>204.2</ele><time>2026-04-03T11:43:31.568Z</time></trkpt><trkpt lat="44.4566083" lon="11.1091467"><ele>203.8</ele><time>2026-04-03T11:43:32.57Z</time></trkpt><trkpt lat="44.4565033" lon="11.109115"><ele>203.4</ele><time>2026-04-03T11:43:33.574Z</time></trkpt><trkpt lat="44.4564067" lon="11.1090833"><ele>203.0</ele><time>2026-04-03T11:43:34.568Z</time></trkpt><trkpt lat="44.45632" lon="11.109045"><ele>202.4</ele><time>2026-04-03T11:43:35.57Z</time></trkpt><trkpt lat="44.4562433" lon="11.109"><ele>201.8</ele><time>2026-04-03T11:43:36.57Z</time></trkpt><trkpt lat="44.456165" lon="11.1089583"><ele>201.2</ele><time>2026-04-03T11:43:37.568Z</time></trkpt><trkpt lat="44.45607" lon="11.1089217"><ele>200.6</ele><time>2026-04-03T11:43:38.575Z</time></trkpt><trkpt lat="44.4559617" lon="11.1088883"><ele>200.0</ele><time>2026-04-03T11:43:39.573Z</time></trkpt><trkpt lat="44.4558467" lon="11.10886"><ele>200.0</ele><time>2026-04-03T11:43:40.572Z</time></trkpt><trkpt lat="44.455725" lon="11.10884"><ele>200.0</ele><time>2026-04-03T11:43:41.57Z</time></trkpt><trkpt lat="44.4556" lon="11.10882"><ele>200.0</ele><time>2026-04-03T11:43:42.571Z</time></trkpt><trkpt lat="44.455475" lon="11.10879"><ele>200.0</ele><time>2026-04-03T11:43:43.572Z</time></trkpt><trkpt lat="44.4553483" lon="11.10875"><ele>200.5</ele><time>2026-04-03T11:43:44.571Z</time></trkpt><trkpt lat="44.4552233" lon="11.1086983"><ele>201.0</ele><time>2026-04-03T11:43:45.574Z</time></trkpt><trkpt lat="44.4550983" lon="11.1086417"><ele>201.5</ele><time>2026-04-03T11:43:46.573Z</time></trkpt><trkpt lat="44.4549717" lon="11.1085883"><ele>202.0</ele><time>2026-04-03T11:43:47.566Z</time></trkpt><trkpt lat="44.4548467" lon="11.108535"><ele>202.0</ele><time>2026-04-03T11:43:48.568Z</time></trkpt><trkpt lat="44.454735" lon="11.1084733"><ele>202.0</ele><time>2026-04-03T11:43:49.573Z</time></trkpt><trkpt lat="44.45463" lon="11.1084083"><ele>202.0</ele><time>2026-04-03T11:43:50.573Z</time></trkpt><trkpt lat="44.4545283" lon="11.10833"><ele>202.0</ele><time>2026-04-03T11:43:51.574Z</time></trkpt><trkpt lat="44.4544183" lon="11.108255"><ele>202.0</ele><time>2026-04-03T11:43:52.578Z</time></trkpt><trkpt lat="44.4543017" lon="11.1081983"><ele>202.0</ele><time>2026-04-03T11:43:53.572Z</time></trkpt><trkpt lat="44.4541833" lon="11.108155"><ele>202.0</ele><time>2026-04-03T11:43:54.571Z</time></trkpt><trkpt lat="44.4540533" lon="11.10813"><ele>202.0</ele><time>2026-04-03T11:43:55.575Z</time></trkpt><trkpt lat="44.4539167" lon="11.108115"><ele>205.5</ele><time>2026-04-03T11:43:56.576Z</time></trkpt><trkpt lat="44.4537683" lon="11.1081067"><ele>209.0</ele><time>2026-04-03T11:43:57.575Z</time></trkpt><trkpt lat="44.4536233" lon="11.1081017"><ele>212.5</ele><time>2026-04-03T11:43:58.58Z</time></trkpt><trkpt lat="44.4534933" lon="11.108095"><ele>216.0</ele><time>2026-04-03T11:43:59.571Z</time></trkpt><trkpt lat="44.4533767" lon="11.10809"><ele>216.0</ele><time>2026-04-03T11:44:00.572Z</time></trkpt><trkpt lat="44.4532683" lon="11.1080833"><ele>216.00000000000003</ele><time>2026-04-03T11:44:01.575Z</time></trkpt><trkpt lat="44.4531667" lon="11.1080767"><ele>216.00000000000003</ele><time>2026-04-03T11:44:02.575Z</time></trkpt><trkpt lat="44.453065" lon="11.1080667"><ele>216.0</ele><time>2026-04-03T11:44:03.575Z</time></trkpt><trkpt lat="44.452965" lon="11.1080567"><ele>216.0</ele><time>2026-04-03T11:44:04.582Z</time></trkpt><trkpt lat="44.4528633" lon="11.108045"><ele>215.4</ele><time>2026-04-03T11:44:05.571Z</time></trkpt><trkpt lat="44.452765" lon="11.1080233"><ele>214.8</ele><time>2026-04-03T11:44:06.571Z</time></trkpt><trkpt lat="44.4526633" lon="11.108"><ele>214.20000000000002</ele><time>2026-04-03T11:44:07.571Z</time></trkpt><trkpt lat="44.4525533" lon="11.1079767"><ele>213.60000000000002</ele><time>2026-04-03T11:44:08.574Z</time></trkpt><trkpt lat="44.4524433" lon="11.1079533"><ele>213.0</ele><time>2026-04-03T11:44:09.57Z</time></trkpt><trkpt lat="44.452335" lon="11.1079333"><ele>213.0</ele><time>2026-04-03T11:44:10.577Z</time></trkpt><trkpt lat="44.4522267" lon="11.1079167"><ele>213.0</ele><time>2026-04-03T11:44:11.569Z</time></trkpt><trkpt lat="44.4521233" lon="11.1078933"><ele>213.0</ele><time>2026-04-03T11:44:12.578Z</time></trkpt><trkpt lat="44.452025" lon="11.1078717"><ele>213.0</ele><time>2026-04-03T11:44:13.57Z</time></trkpt><trkpt lat="44.45192" lon="11.10784"><ele>213.0</ele><time>2026-04-03T11:44:14.578Z</time></trkpt><trkpt lat="44.4518083" lon="11.1078167"><ele>214.5</ele><time>2026-04-03T11:44:15.572Z</time></trkpt><trkpt lat="44.4516917" lon="11.1078017"><ele>216.0</ele><time>2026-04-03T11:44:16.57Z</time></trkpt><trkpt lat="44.4515733" lon="11.10779"><ele>217.5</ele><time>2026-04-03T11:44:17.571Z</time></trkpt><trkpt lat="44.4514533" lon="11.10777"><ele>219.0</ele><time>2026-04-03T11:44:18.572Z</time></trkpt><trkpt lat="44.4513317" lon="11.1077417"><ele>219.75</ele><time>2026-04-03T11:44:19.567Z</time></trkpt><trkpt lat="44.45121" lon="11.1077083"><ele>220.5</ele><time>2026-04-03T11:44:20.573Z</time></trkpt><trkpt lat="44.45109" lon="11.107675"><ele>221.25</ele><time>2026-04-03T11:44:21.575Z</time></trkpt><trkpt lat="44.4509767" lon="11.10764"><ele>222.0</ele><time>2026-04-03T11:44:22.568Z</time></trkpt><trkpt lat="44.4508633" lon="11.1075933"><ele>222.0</ele><time>2026-04-03T11:44:23.575Z</time></trkpt><trkpt lat="44.45074" lon="11.1075267"><ele>222.0</ele><time>2026-04-03T11:44:24.573Z</time></trkpt><trkpt lat="44.4506133" lon="11.1074633"><ele>222.0</ele><time>2026-04-03T11:44:25.572Z</time></trkpt><trkpt lat="44.450485" lon="11.10741"><ele>222.0</ele><time>2026-04-03T11:44:26.571Z</time></trkpt><trkpt lat="44.450365" lon="11.1073683"><ele>223.5</ele><time>2026-04-03T11:44:27.573Z</time></trkpt><trkpt lat="44.4502467" lon="11.1073367"><ele>225.0</ele><time>2026-04-03T11:44:28.574Z</time></trkpt><trkpt lat="44.4501333" lon="11.107305"><ele>226.5</ele><time>2026-04-03T11:44:29.573Z</time></trkpt><trkpt lat="44.450025" lon="11.10727"><ele>228.0</ele><time>2026-04-03T11:44:30.57Z</time></trkpt><trkpt lat="44.44992" lon="11.107245"><ele>228.0</ele><time>2026-04-03T11:44:31.574Z</time></trkpt><trkpt lat="44.4498167" lon="11.1072417"><ele>228.0</ele><time>2026-04-03T11:44:32.576Z</time></trkpt><trkpt lat="44.4497183" lon="11.107265"><ele>228.0</ele><time>2026-04-03T11:44:33.576Z</time></trkpt><trkpt lat="44.4496267" lon="11.1073067"><ele>228.0</ele><time>2026-04-03T11:44:34.569Z</time></trkpt><trkpt lat="44.4495433" lon="11.107355"><ele>228.0</ele><time>2026-04-03T11:44:35.573Z</time></trkpt><trkpt lat="44.449465" lon="11.1074017"><ele>228.0</ele><time>2026-04-03T11:44:36.575Z</time></trkpt><trkpt lat="44.4493883" lon="11.1074383"><ele>228.0</ele><time>2026-04-03T11:44:37.572Z</time></trkpt><trkpt lat="44.44931" lon="11.1074567"><ele>228.0</ele><time>2026-04-03T11:44:38.576Z</time></trkpt><trkpt lat="44.4492283" lon="11.10745"><ele>228.0</ele><time>2026-04-03T11:44:39.571Z</time></trkpt><trkpt lat="44.4491333" lon="11.107425"><ele>228.0</ele><time>2026-04-03T11:44:40.573Z</time></trkpt><trkpt lat="44.44903" lon="11.1073867"><ele>228.0</ele><time>2026-04-03T11:44:41.572Z</time></trkpt><trkpt lat="44.4489167" lon="11.107345"><ele>228.0</ele><time>2026-04-03T11:44:42.575Z</time></trkpt><trkpt lat="44.448805" lon="11.107305"><ele>228.0</ele><time>2026-04-03T11:44:43.573Z</time></trkpt><trkpt lat="44.448695" lon="11.10727"><ele>228.0</ele><time>2026-04-03T11:44:44.569Z</time></trkpt><trkpt lat="44.4485883" lon="11.1072367"><ele>228.0</ele><time>2026-04-03T11:44:45.578Z</time></trkpt><trkpt lat="44.4484817" lon="11.1072017"><ele>228.0</ele><time>2026-04-03T11:44:46.57Z</time></trkpt><trkpt lat="44.4483717" lon="11.107185"><ele>228.0</ele><time>2026-04-03T11:44:47.576Z</time></trkpt><trkpt lat="44.4482567" lon="11.10718"><ele>228.0</ele><time>2026-04-03T11:44:48.575Z</time></trkpt><trkpt lat="44.44814" lon="11.107185"><ele>228.0</ele><time>2026-04-03T11:44:49.569Z</time></trkpt><trkpt lat="44.4480217" lon="11.107195"><ele>228.0</ele><time>2026-04-03T11:44:50.574Z</time></trkpt><trkpt lat="44.4479067" lon="11.107195"><ele>229.60000000000002</ele><time>2026-04-03T11:44:51.568Z</time></trkpt><trkpt lat="44.4477983" lon="11.1071983"><ele>231.20000000000002</ele><time>2026-04-03T11:44:52.57Z</time></trkpt><trkpt lat="44.4476967" lon="11.1071967"><ele>232.8</ele><time>2026-04-03T11:44:53.573Z</time></trkpt><trkpt lat="44.4475967" lon="11.1072017"><ele>234.4</ele><time>2026-04-03T11:44:54.578Z</time></trkpt><trkpt lat="44.4474983" lon="11.1072083"><ele>236.0</ele><time>2026-04-03T11:44:55.571Z</time></trkpt><trkpt lat="44.4474017" lon="11.107215"><ele>236.0</ele><time>2026-04-03T11:44:56.578Z</time></trkpt><trkpt lat="44.4473" lon="11.1072167"><ele>236.00000000000003</ele><time>2026-04-03T11:44:57.574Z</time></trkpt><trkpt lat="44.4472" lon="11.1072133"><ele>236.00000000000003</ele><time>2026-04-03T11:44:58.57Z</time></trkpt><trkpt lat="44.4471117" lon="11.1071983"><ele>236.0</ele><time>2026-04-03T11:44:59.574Z</time></trkpt><trkpt lat="44.4470283" lon="11.1071783"><ele>236.0</ele><time>2026-04-03T11:45:00.575Z</time></trkpt><trkpt lat="44.4469533" lon="11.1071533"><ele>237.33333333333334</ele><time>2026-04-03T11:45:01.57Z</time></trkpt><trkpt lat="44.44688" lon="11.1071167"><ele>238.66666666666669</ele><time>2026-04-03T11:45:02.575Z</time></trkpt><trkpt lat="44.446815" lon="11.1070767"><ele>240.0</ele><time>2026-04-03T11:45:03.572Z</time></trkpt><trkpt lat="44.446745" lon="11.1070283"><ele>241.33333333333331</ele><time>2026-04-03T11:45:04.569Z</time></trkpt><trkpt lat="44.4466717" lon="11.1069617"><ele>242.66666666666666</ele><time>2026-04-03T11:45:05.575Z</time></trkpt><trkpt lat="44.4465867" lon="11.1069"><ele>244.0</ele><time>2026-04-03T11:45:06.576Z</time></trkpt><trkpt lat="44.4464983" lon="11.106835"><ele>243.99999999999997</ele><time>2026-04-03T11:45:07.572Z</time></trkpt><trkpt lat="44.4464117" lon="11.1067717"><ele>244.0</ele><time>2026-04-03T11:45:08.569Z</time></trkpt><trkpt lat="44.4463367" lon="11.1067083"><ele>244.0</ele><time>2026-04-03T11:45:09.576Z</time></trkpt><trkpt lat="44.4462717" lon="11.106665"><ele>244.0</ele><time>2026-04-03T11:45:10.573Z</time></trkpt><trkpt lat="44.4462067" lon="11.1066333"><ele>243.99999999999997</ele><time>2026-04-03T11:45:11.573Z</time></trkpt><trkpt lat="44.4461383" lon="11.1066033"><ele>244.0</ele><time>2026-04-03T11:45:12.573Z</time></trkpt><trkpt lat="44.4460617" lon="11.10657"><ele>245.33333333333331</ele><time>2026-04-03T11:45:13.572Z</time></trkpt><trkpt lat="44.445985" lon="11.1065367"><ele>246.66666666666666</ele><time>2026-04-03T11:45:14.577Z</time></trkpt><trkpt lat="44.4459117" lon="11.1065"><ele>248.0</ele><time>2026-04-03T11:45:15.572Z</time></trkpt><trkpt lat="44.4458333" lon="11.106475"><ele>249.33333333333331</ele><time>2026-04-03T11:45:16.572Z</time></trkpt><trkpt lat="44.445765" lon="11.10645"><ele>250.66666666666666</ele><time>2026-04-03T11:45:17.571Z</time></trkpt><trkpt lat="44.4456517" lon="11.1063767"><ele>252.0</ele><time>2026-04-03T11:45:19.575Z</time></trkpt><trkpt lat="44.4455567" lon="11.1062533"><ele>252.0</ele><time>2026-04-03T11:45:21.571Z</time></trkpt><trkpt lat="44.4455067" lon="11.1061867"><ele>252.0</ele><time>2026-04-03T11:45:22.57Z</time></trkpt><trkpt lat="44.4454567" lon="11.10613"><ele>252.0</ele><time>2026-04-03T11:45:23.567Z</time></trkpt><trkpt lat="44.4453717" lon="11.10602"><ele>252.0</ele><time>2026-04-03T11:45:25.568Z</time></trkpt><trkpt lat="44.4452667" lon="11.1059517"><ele>252.0</ele><time>2026-04-03T11:45:27.571Z</time></trkpt><trkpt lat="44.44517" lon="11.1058883"><ele>256.4</ele><time>2026-04-03T11:45:29.569Z</time></trkpt><trkpt lat="44.4450867" lon="11.1058133"><ele>260.79999999999995</ele><time>2026-04-03T11:45:31.571Z</time></trkpt><trkpt lat="44.4450067" lon="11.1058"><ele>265.2</ele><time>2026-04-03T11:45:33.573Z</time></trkpt><trkpt lat="44.4449183" lon="11.105815"><ele>269.59999999999997</ele><time>2026-04-03T11:45:35.577Z</time></trkpt><trkpt lat="44.4448333" lon="11.105875"><ele>274.0</ele><time>2026-04-03T11:45:37.584Z</time></trkpt><trkpt lat="44.4447617" lon="11.105965"><ele>274.00000000000006</ele><time>2026-04-03T11:45:39.572Z</time></trkpt><trkpt lat="44.4447067" lon="11.1060467"><ele>274.0</ele><time>2026-04-03T11:45:41.573Z</time></trkpt><trkpt lat="44.444625" lon="11.106105"><ele>274.0</ele><time>2026-04-03T11:45:43.578Z</time></trkpt><trkpt lat="44.4445667" lon="11.1061417"><ele>274.0</ele><time>2026-04-03T11:45:44.575Z</time></trkpt><trkpt lat="44.444505" lon="11.1061783"><ele>274.0</ele><time>2026-04-03T11:45:45.574Z</time></trkpt><trkpt lat="44.44444" lon="11.1062183"><ele>274.00000000000006</ele><time>2026-04-03T11:45:46.569Z</time></trkpt><trkpt lat="44.4443733" lon="11.10626"><ele>274.0</ele><time>2026-04-03T11:45:47.571Z</time></trkpt><trkpt lat="44.4443133" lon="11.1063033"><ele>274.16666666666663</ele><time>2026-04-03T11:45:48.574Z</time></trkpt><trkpt lat="44.4442483" lon="11.1063467"><ele>274.3333333333333</ele><time>2026-04-03T11:45:49.57Z</time></trkpt><trkpt lat="44.444185" lon="11.1063967"><ele>274.5</ele><time>2026-04-03T11:45:50.573Z</time></trkpt><trkpt lat="44.4441233" lon="11.1064483"><ele>274.6666666666667</ele><time>2026-04-03T11:45:51.57Z</time></trkpt><trkpt lat="44.4440583" lon="11.1064983"><ele>274.83333333333337</ele><time>2026-04-03T11:45:52.57Z</time></trkpt><trkpt lat="44.444" lon="11.1065367"><ele>275.0</ele><time>2026-04-03T11:45:53.569Z</time></trkpt><trkpt lat="44.4438933" lon="11.1066117"><ele>273.83333333333337</ele><time>2026-04-03T11:45:55.57Z</time></trkpt><trkpt lat="44.443795" lon="11.1066733"><ele>272.6666666666667</ele><time>2026-04-03T11:45:57.57Z</time></trkpt><trkpt lat="44.4436983" lon="11.106765"><ele>271.5</ele><time>2026-04-03T11:45:59.569Z</time></trkpt><trkpt lat="44.4436433" lon="11.1068083"><ele>270.3333333333333</ele><time>2026-04-03T11:46:00.572Z</time></trkpt><trkpt lat="44.4435833" lon="11.1068433"><ele>269.16666666666663</ele><time>2026-04-03T11:46:01.576Z</time></trkpt><trkpt lat="44.4435217" lon="11.106865"><ele>268.0</ele><time>2026-04-03T11:46:02.571Z</time></trkpt><trkpt lat="44.4434583" lon="11.106875"><ele>268.0</ele><time>2026-04-03T11:46:03.574Z</time></trkpt><trkpt lat="44.4433917" lon="11.1068833"><ele>268.0</ele><time>2026-04-03T11:46:04.571Z</time></trkpt><trkpt lat="44.443325" lon="11.1068817"><ele>268.0</ele><time>2026-04-03T11:46:05.572Z</time></trkpt><trkpt lat="44.4432583" lon="11.1068633"><ele>268.0</ele><time>2026-04-03T11:46:06.575Z</time></trkpt><trkpt lat="44.4431883" lon="11.10684"><ele>268.0</ele><time>2026-04-03T11:46:07.573Z</time></trkpt><trkpt lat="44.4431183" lon="11.106815"><ele>268.0</ele><time>2026-04-03T11:46:08.57Z</time></trkpt><trkpt lat="44.4430417" lon="11.106805"><ele>268.0</ele><time>2026-04-03T11:46:09.573Z</time></trkpt><trkpt lat="44.44296" lon="11.10679"><ele>267.16666666666663</ele><time>2026-04-03T11:46:10.575Z</time></trkpt><trkpt lat="44.4428767" lon="11.1067817"><ele>266.3333333333333</ele><time>2026-04-03T11:46:11.571Z</time></trkpt><trkpt lat="44.442795" lon="11.1067683"><ele>265.5</ele><time>2026-04-03T11:46:12.571Z</time></trkpt><trkpt lat="44.4427167" lon="11.1067533"><ele>264.6666666666667</ele><time>2026-04-03T11:46:13.575Z</time></trkpt><trkpt lat="44.44264" lon="11.1067417"><ele>263.83333333333337</ele><time>2026-04-03T11:46:14.572Z</time></trkpt><trkpt lat="44.4425667" lon="11.1067333"><ele>263.0</ele><time>2026-04-03T11:46:15.574Z</time></trkpt><trkpt lat="44.4425017" lon="11.10673"><ele>263.0</ele><time>2026-04-03T11:46:16.571Z</time></trkpt><trkpt lat="44.4424367" lon="11.1067283"><ele>263.0</ele><time>2026-04-03T11:46:17.576Z</time></trkpt><trkpt lat="44.4423717" lon="11.1067417"><ele>263.0</ele><time>2026-04-03T11:46:18.574Z</time></trkpt><trkpt lat="44.4423067" lon="11.1067683"><ele>263.0</ele><time>2026-04-03T11:46:19.576Z</time></trkpt><trkpt lat="44.4422333" lon="11.1068117"><ele>263.0</ele><time>2026-04-03T11:46:20.576Z</time></trkpt><trkpt lat="44.4421517" lon="11.10686"><ele>263.0</ele><time>2026-04-03T11:46:21.574Z</time></trkpt><trkpt lat="44.4420683" lon="11.1069083"><ele>262.33333333333337</ele><time>2026-04-03T11:46:22.567Z</time></trkpt><trkpt lat="44.4419767" lon="11.1069583"><ele>261.6666666666667</ele><time>2026-04-03T11:46:23.57Z</time></trkpt><trkpt lat="44.4418917" lon="11.1070083"><ele>261.0</ele><time>2026-04-03T11:46:24.568Z</time></trkpt><trkpt lat="44.4418117" lon="11.10706"><ele>260.3333333333333</ele><time>2026-04-03T11:46:25.571Z</time></trkpt><trkpt lat="44.441735" lon="11.1071033"><ele>259.66666666666663</ele><time>2026-04-03T11:46:26.575Z</time></trkpt><trkpt lat="44.4416583" lon="11.1071433"><ele>259.0</ele><time>2026-04-03T11:46:27.57Z</time></trkpt><trkpt lat="44.4415767" lon="11.107185"><ele>259.0</ele><time>2026-04-03T11:46:28.576Z</time></trkpt><trkpt lat="44.44149" lon="11.1072367"><ele>259.0</ele><time>2026-04-03T11:46:29.577Z</time></trkpt><trkpt lat="44.4414067" lon="11.107295"><ele>259.0</ele><time>2026-04-03T11:46:30.572Z</time></trkpt><trkpt lat="44.4413217" lon="11.1073517"><ele>259.0</ele><time>2026-04-03T11:46:31.576Z</time></trkpt><trkpt lat="44.4412383" lon="11.107395"><ele>259.0</ele><time>2026-04-03T11:46:32.572Z</time></trkpt><trkpt lat="44.44115" lon="11.107445"><ele>256.8333333333333</ele><time>2026-04-03T11:46:33.571Z</time></trkpt><trkpt lat="44.4410667" lon="11.1074967"><ele>254.66666666666666</ele><time>2026-04-03T11:46:34.574Z</time></trkpt><trkpt lat="44.4409833" lon="11.10754"><ele>252.5</ele><time>2026-04-03T11:46:35.572Z</time></trkpt><trkpt lat="44.4409" lon="11.10757"><ele>250.33333333333331</ele><time>2026-04-03T11:46:36.575Z</time></trkpt><trkpt lat="44.4408133" lon="11.1075933"><ele>248.16666666666666</ele><time>2026-04-03T11:46:37.57Z</time></trkpt><trkpt lat="44.4407267" lon="11.1076017"><ele>246.0</ele><time>2026-04-03T11:46:38.57Z</time></trkpt><trkpt lat="44.4406267" lon="11.1076"><ele>246.0</ele><time>2026-04-03T11:46:39.568Z</time></trkpt><trkpt lat="44.4405217" lon="11.107595"><ele>246.00000000000003</ele><time>2026-04-03T11:46:40.569Z</time></trkpt><trkpt lat="44.4404167" lon="11.1075867"><ele>246.00000000000003</ele><time>2026-04-03T11:46:41.569Z</time></trkpt><trkpt lat="44.4403" lon="11.1075683"><ele>246.0</ele><time>2026-04-03T11:46:42.576Z</time></trkpt><trkpt lat="44.4401867" lon="11.1075517"><ele>246.0</ele><time>2026-04-03T11:46:43.572Z</time></trkpt><trkpt lat="44.44008" lon="11.1075483"><ele>246.16666666666666</ele><time>2026-04-03T11:46:44.577Z</time></trkpt><trkpt lat="44.4399767" lon="11.1075483"><ele>246.33333333333331</ele><time>2026-04-03T11:46:45.575Z</time></trkpt><trkpt lat="44.439885" lon="11.1075467"><ele>246.5</ele><time>2026-04-03T11:46:46.573Z</time></trkpt><trkpt lat="44.4397983" lon="11.10756"><ele>246.66666666666666</ele><time>2026-04-03T11:46:47.573Z</time></trkpt><trkpt lat="44.4397133" lon="11.107575"><ele>246.83333333333331</ele><time>2026-04-03T11:46:48.574Z</time></trkpt><trkpt lat="44.4396383" lon="11.1075867"><ele>247.0</ele><time>2026-04-03T11:46:49.577Z</time></trkpt><trkpt lat="44.4395567" lon="11.107605"><ele>247.6</ele><time>2026-04-03T11:46:50.578Z</time></trkpt><trkpt lat="44.439475" lon="11.1076267"><ele>248.2</ele><time>2026-04-03T11:46:51.571Z</time></trkpt><trkpt lat="44.4393883" lon="11.1076533"><ele>248.8</ele><time>2026-04-03T11:46:52.568Z</time></trkpt><trkpt lat="44.4392933" lon="11.1076883"><ele>249.4</ele><time>2026-04-03T11:46:53.573Z</time></trkpt><trkpt lat="44.4392017" lon="11.1077283"><ele>250.0</ele><time>2026-04-03T11:46:54.571Z</time></trkpt><trkpt lat="44.4391117" lon="11.10777"><ele>249.99999999999997</ele><time>2026-04-03T11:46:55.574Z</time></trkpt><trkpt lat="44.4390217" lon="11.107815"><ele>250.0</ele><time>2026-04-03T11:46:56.573Z</time></trkpt><trkpt lat="44.438935" lon="11.1078517"><ele>250.0</ele><time>2026-04-03T11:46:57.571Z</time></trkpt><trkpt lat="44.438855" lon="11.1078717"><ele>250.0</ele><time>2026-04-03T11:46:58.571Z</time></trkpt><trkpt lat="44.438775" lon="11.107895"><ele>249.99999999999997</ele><time>2026-04-03T11:46:59.57Z</time></trkpt><trkpt lat="44.4386983" lon="11.10794"><ele>250.0</ele><time>2026-04-03T11:47:00.571Z</time></trkpt><trkpt lat="44.4386233" lon="11.10797"><ele>248.16666666666666</ele><time>2026-04-03T11:47:01.575Z</time></trkpt><trkpt lat="44.438545" lon="11.108005"><ele>246.33333333333331</ele><time>2026-04-03T11:47:02.571Z</time></trkpt><trkpt lat="44.4384733" lon="11.10804"><ele>244.5</ele><time>2026-04-03T11:47:03.573Z</time></trkpt><trkpt lat="44.4384117" lon="11.1080783"><ele>242.66666666666669</ele><time>2026-04-03T11:47:04.57Z</time></trkpt><trkpt lat="44.4383117" lon="11.1081583"><ele>240.83333333333334</ele><time>2026-04-03T11:47:06.57Z</time></trkpt><trkpt lat="44.4382183" lon="11.1082117"><ele>239.0</ele><time>2026-04-03T11:47:08.571Z</time></trkpt><trkpt lat="44.4381067" lon="11.10823"><ele>239.00000000000003</ele><time>2026-04-03T11:47:10.569Z</time></trkpt><trkpt lat="44.4380333" lon="11.1082217"><ele>239.0</ele><time>2026-04-03T11:47:11.574Z</time></trkpt><trkpt lat="44.4379483" lon="11.1082117"><ele>239.0</ele><time>2026-04-03T11:47:12.57Z</time></trkpt><trkpt lat="44.4378633" lon="11.1082033"><ele>239.0</ele><time>2026-04-03T11:47:13.573Z</time></trkpt><trkpt lat="44.4377767" lon="11.1081983"><ele>239.00000000000003</ele><time>2026-04-03T11:47:14.577Z</time></trkpt><trkpt lat="44.4376883" lon="11.1081867"><ele>239.0</ele><time>2026-04-03T11:47:15.572Z</time></trkpt><trkpt lat="44.4376067" lon="11.10817"><ele>238.2</ele><time>2026-04-03T11:47:16.574Z</time></trkpt><trkpt lat="44.4375233" lon="11.1081583"><ele>237.39999999999998</ele><time>2026-04-03T11:47:17.57Z</time></trkpt><trkpt lat="44.4374367" lon="11.1081467"><ele>236.6</ele><time>2026-04-03T11:47:18.575Z</time></trkpt><trkpt lat="44.4373433" lon="11.1081383"><ele>235.8</ele><time>2026-04-03T11:47:19.572Z</time></trkpt><trkpt lat="44.4372467" lon="11.1081267"><ele>235.0</ele><time>2026-04-03T11:47:20.584Z</time></trkpt><trkpt lat="44.4371483" lon="11.1081117"><ele>234.4</ele><time>2026-04-03T11:47:21.574Z</time></trkpt><trkpt lat="44.43705" lon="11.1081017"><ele>233.8</ele><time>2026-04-03T11:47:22.574Z</time></trkpt><trkpt lat="44.436955" lon="11.1080917"><ele>233.2</ele><time>2026-04-03T11:47:23.573Z</time></trkpt><trkpt lat="44.4368617" lon="11.108085"><ele>232.6</ele><time>2026-04-03T11:47:24.573Z</time></trkpt><trkpt lat="44.4367717" lon="11.1080883"><ele>232.0</ele><time>2026-04-03T11:47:25.581Z</time></trkpt><trkpt lat="44.43669" lon="11.1081"><ele>231.99999999999997</ele><time>2026-04-03T11:47:26.576Z</time></trkpt><trkpt lat="44.436605" lon="11.108135"><ele>232.0</ele><time>2026-04-03T11:47:27.571Z</time></trkpt><trkpt lat="44.4365333" lon="11.1081767"><ele>232.0</ele><time>2026-04-03T11:47:28.573Z</time></trkpt><trkpt lat="44.4364633" lon="11.108215"><ele>232.0</ele><time>2026-04-03T11:47:29.576Z</time></trkpt><trkpt lat="44.4363983" lon="11.1082433"><ele>231.99999999999997</ele><time>2026-04-03T11:47:30.572Z</time></trkpt><trkpt lat="44.4362933" lon="11.10824"><ele>232.0</ele><time>2026-04-03T11:47:32.57Z</time></trkpt><trkpt lat="44.4362233" lon="11.108195"><ele>232.16666666666666</ele><time>2026-04-03T11:47:35.573Z</time></trkpt><trkpt lat="44.436145" lon="11.1082683"><ele>232.33333333333331</ele><time>2026-04-03T11:47:38.576Z</time></trkpt><trkpt lat="44.4360783" lon="11.10834"><ele>232.5</ele><time>2026-04-03T11:47:39.572Z</time></trkpt><trkpt lat="44.4360033" lon="11.1084117"><ele>232.66666666666669</ele><time>2026-04-03T11:47:40.569Z</time></trkpt><trkpt lat="44.4359317" lon="11.1084817"><ele>232.83333333333334</ele><time>2026-04-03T11:47:41.57Z</time></trkpt><trkpt lat="44.43586" lon="11.108545"><ele>233.0</ele><time>2026-04-03T11:47:42.57Z</time></trkpt><trkpt lat="44.4357867" lon="11.1085983"><ele>233.0</ele><time>2026-04-03T11:47:43.57Z</time></trkpt><trkpt lat="44.4357283" lon="11.1086583"><ele>233.0</ele><time>2026-04-03T11:47:44.571Z</time></trkpt><trkpt lat="44.4356767" lon="11.108715"><ele>233.0</ele><time>2026-04-03T11:47:45.574Z</time></trkpt><trkpt lat="44.43563" lon="11.1087833"><ele>233.0</ele><time>2026-04-03T11:47:46.572Z</time></trkpt><trkpt lat="44.4355983" lon="11.1088667"><ele>233.0</ele><time>2026-04-03T11:47:47.572Z</time></trkpt><trkpt lat="44.4355917" lon="11.1089683"><ele>233.0</ele><time>2026-04-03T11:47:48.572Z</time></trkpt><trkpt lat="44.4355867" lon="11.1090883"><ele>233.0</ele><time>2026-04-03T11:47:49.571Z</time></trkpt><trkpt lat="44.4355667" lon="11.1092183"><ele>232.2</ele><time>2026-04-03T11:47:50.571Z</time></trkpt><trkpt lat="44.4355217" lon="11.10935"><ele>231.4</ele><time>2026-04-03T11:47:51.575Z</time></trkpt><trkpt lat="44.4354633" lon="11.1094733"><ele>230.59999999999997</ele><time>2026-04-03T11:47:52.576Z</time></trkpt><trkpt lat="44.4353983" lon="11.1095917"><ele>229.79999999999998</ele><time>2026-04-03T11:47:53.57Z</time></trkpt><trkpt lat="44.435335" lon="11.1097033"><ele>229.0</ele><time>2026-04-03T11:47:54.577Z</time></trkpt><trkpt lat="44.43527" lon="11.1098133"><ele>227.79999999999998</ele><time>2026-04-03T11:47:55.568Z</time></trkpt><trkpt lat="44.4352133" lon="11.1099267"><ele>226.59999999999997</ele><time>2026-04-03T11:47:56.576Z</time></trkpt><trkpt lat="44.43517" lon="11.1100433"><ele>225.4</ele><time>2026-04-03T11:47:57.571Z</time></trkpt><trkpt lat="44.4351433" lon="11.11017"><ele>224.2</ele><time>2026-04-03T11:47:58.578Z</time></trkpt><trkpt lat="44.435145" lon="11.1103017"><ele>223.0</ele><time>2026-04-03T11:47:59.573Z</time></trkpt><trkpt lat="44.4351717" lon="11.11043"><ele>223.0</ele><time>2026-04-03T11:48:00.57Z</time></trkpt><trkpt lat="44.43522" lon="11.1105417"><ele>223.0</ele><time>2026-04-03T11:48:01.573Z</time></trkpt><trkpt lat="44.435295" lon="11.1106283"><ele>223.0</ele><time>2026-04-03T11:48:02.569Z</time></trkpt><trkpt lat="44.4353817" lon="11.11068"><ele>223.0</ele><time>2026-04-03T11:48:03.578Z</time></trkpt><trkpt lat="44.4354783" lon="11.1106983"><ele>223.0</ele><time>2026-04-03T11:48:04.57Z</time></trkpt><trkpt lat="44.4355833" lon="11.11071"><ele>220.75</ele><time>2026-04-03T11:48:05.575Z</time></trkpt><trkpt lat="44.4356917" lon="11.1107283"><ele>218.5</ele><time>2026-04-03T11:48:06.569Z</time></trkpt><trkpt lat="44.435805" lon="11.110745"><ele>216.25</ele><time>2026-04-03T11:48:07.575Z</time></trkpt><trkpt lat="44.4359233" lon="11.1107667"><ele>214.0</ele><time>2026-04-03T11:48:08.576Z</time></trkpt><trkpt lat="44.436035" lon="11.1107883"><ele>212.79999999999998</ele><time>2026-04-03T11:48:09.572Z</time></trkpt><trkpt lat="44.43614" lon="11.1108283"><ele>211.59999999999997</ele><time>2026-04-03T11:48:10.568Z</time></trkpt><trkpt lat="44.43623" lon="11.1108983"><ele>210.4</ele><time>2026-04-03T11:48:11.57Z</time></trkpt><trkpt lat="44.436305" lon="11.1109967"><ele>209.2</ele><time>2026-04-03T11:48:12.575Z</time></trkpt><trkpt lat="44.4363633" lon="11.1111233"><ele>208.0</ele><time>2026-04-03T11:48:13.569Z</time></trkpt><trkpt lat="44.43641" lon="11.1112633"><ele>207.2</ele><time>2026-04-03T11:48:14.574Z</time></trkpt><trkpt lat="44.4364417" lon="11.1114133"><ele>206.4</ele><time>2026-04-03T11:48:15.574Z</time></trkpt><trkpt lat="44.4364533" lon="11.1115683"><ele>205.6</ele><time>2026-04-03T11:48:16.574Z</time></trkpt><trkpt lat="44.43644" lon="11.1117217"><ele>204.79999999999998</ele><time>2026-04-03T11:48:17.572Z</time></trkpt><trkpt lat="44.4364117" lon="11.111865"><ele>204.0</ele><time>2026-04-03T11:48:18.571Z</time></trkpt><trkpt lat="44.43636" lon="11.1119983"><ele>204.25</ele><time>2026-04-03T11:48:19.57Z</time></trkpt><trkpt lat="44.4362917" lon="11.11212"><ele>204.5</ele><time>2026-04-03T11:48:20.573Z</time></trkpt><trkpt lat="44.4362017" lon="11.1122233"><ele>204.75</ele><time>2026-04-03T11:48:21.572Z</time></trkpt><trkpt lat="44.4361" lon="11.1123117"><ele>205.0</ele><time>2026-04-03T11:48:22.574Z</time></trkpt><trkpt lat="44.4359917" lon="11.112395"><ele>202.75</ele><time>2026-04-03T11:48:23.57Z</time></trkpt><trkpt lat="44.435885" lon="11.1124667"><ele>200.5</ele><time>2026-04-03T11:48:24.57Z</time></trkpt><trkpt lat="44.435775" lon="11.11253"><ele>198.25</ele><time>2026-04-03T11:48:25.571Z</time></trkpt><trkpt lat="44.435675" lon="11.1125967"><ele>196.0</ele><time>2026-04-03T11:48:26.574Z</time></trkpt><trkpt lat="44.4355867" lon="11.1126733"><ele>196.0</ele><time>2026-04-03T11:48:27.572Z</time></trkpt><trkpt lat="44.4355167" lon="11.1127733"><ele>196.0</ele><time>2026-04-03T11:48:28.579Z</time></trkpt><trkpt lat="44.4354633" lon="11.1128933"><ele>196.0</ele><time>2026-04-03T11:48:29.574Z</time></trkpt><trkpt lat="44.435435" lon="11.1130217"><ele>196.0</ele><time>2026-04-03T11:48:30.574Z</time></trkpt><trkpt lat="44.4354283" lon="11.1131583"><ele>196.0</ele><time>2026-04-03T11:48:31.574Z</time></trkpt><trkpt lat="44.4354433" lon="11.1132933"><ele>194.0</ele><time>2026-04-03T11:48:32.574Z</time></trkpt><trkpt lat="44.43548" lon="11.1134217"><ele>192.0</ele><time>2026-04-03T11:48:33.574Z</time></trkpt><trkpt lat="44.4355433" lon="11.1135283"><ele>190.0</ele><time>2026-04-03T11:48:34.575Z</time></trkpt><trkpt lat="44.43562" lon="11.1136233"><ele>188.0</ele><time>2026-04-03T11:48:35.573Z</time></trkpt><trkpt lat="44.435715" lon="11.1136867"><ele>186.0</ele><time>2026-04-03T11:48:36.573Z</time></trkpt><trkpt lat="44.4358233" lon="11.11373"><ele>186.0</ele><time>2026-04-03T11:48:37.572Z</time></trkpt><trkpt lat="44.4359433" lon="11.1137533"><ele>186.0</ele><time>2026-04-03T11:48:38.576Z</time></trkpt><trkpt lat="44.436065" lon="11.1137583"><ele>186.0</ele><time>2026-04-03T11:48:39.569Z</time></trkpt><trkpt lat="44.4361917" lon="11.11376"><ele>186.0</ele><time>2026-04-03T11:48:40.574Z</time></trkpt><trkpt lat="44.43632" lon="11.1137667"><ele>184.75</ele><time>2026-04-03T11:48:41.57Z</time></trkpt><trkpt lat="44.4364517" lon="11.1137733"><ele>183.5</ele><time>2026-04-03T11:48:42.57Z</time></trkpt><trkpt lat="44.436585" lon="11.1137817"><ele>182.25</ele><time>2026-04-03T11:48:43.572Z</time></trkpt><trkpt lat="44.436705" lon="11.11379"><ele>181.0</ele><time>2026-04-03T11:48:44.573Z</time></trkpt><trkpt lat="44.4368217" lon="11.1137917"><ele>181.0</ele><time>2026-04-03T11:48:45.574Z</time></trkpt><trkpt lat="44.4369367" lon="11.113775"><ele>181.0</ele><time>2026-04-03T11:48:46.576Z</time></trkpt><trkpt lat="44.4370467" lon="11.1137417"><ele>181.0</ele><time>2026-04-03T11:48:47.573Z</time></trkpt><trkpt lat="44.4371483" lon="11.1136867"><ele>181.0</ele><time>2026-04-03T11:48:48.576Z</time></trkpt><trkpt lat="44.4372433" lon="11.1136233"><ele>181.0</ele><time>2026-04-03T11:48:49.568Z</time></trkpt><trkpt lat="44.4373267" lon="11.1135667"><ele>179.5</ele><time>2026-04-03T11:48:50.575Z</time></trkpt><trkpt lat="44.43741" lon="11.113535"><ele>178.0</ele><time>2026-04-03T11:48:51.572Z</time></trkpt><trkpt lat="44.4374967" lon="11.1135317"><ele>176.5</ele><time>2026-04-03T11:48:52.572Z</time></trkpt><trkpt lat="44.4375783" lon="11.1135683"><ele>175.0</ele><time>2026-04-03T11:48:53.574Z</time></trkpt><trkpt lat="44.437645" lon="11.11364"><ele>173.5</ele><time>2026-04-03T11:48:54.573Z</time></trkpt><trkpt lat="44.4376767" lon="11.1137683"><ele>172.0</ele><time>2026-04-03T11:48:55.574Z</time></trkpt><trkpt lat="44.4376983" lon="11.1139133"><ele>170.75</ele><time>2026-04-03T11:48:56.584Z</time></trkpt><trkpt lat="44.43771" lon="11.1140767"><ele>169.5</ele><time>2026-04-03T11:48:57.575Z</time></trkpt><trkpt lat="44.4377217" lon="11.1142467"><ele>168.25</ele><time>2026-04-03T11:48:58.567Z</time></trkpt><trkpt lat="44.437735" lon="11.114425"><ele>167.0</ele><time>2026-04-03T11:48:59.576Z</time></trkpt><trkpt lat="44.437755" lon="11.1146083"><ele>167.0</ele><time>2026-04-03T11:49:00.574Z</time></trkpt><trkpt lat="44.43778" lon="11.114795"><ele>167.0</ele><time>2026-04-03T11:49:01.574Z</time></trkpt><trkpt lat="44.4378067" lon="11.1149817"><ele>167.0</ele><time>2026-04-03T11:49:02.576Z</time></trkpt><trkpt lat="44.4378383" lon="11.1151667"><ele>167.0</ele><time>2026-04-03T11:49:03.57Z</time></trkpt><trkpt lat="44.43787" lon="11.115345"><ele>166.75</ele><time>2026-04-03T11:49:04.569Z</time></trkpt><trkpt lat="44.4379" lon="11.11552"><ele>166.5</ele><time>2026-04-03T11:49:05.572Z</time></trkpt><trkpt lat="44.437925" lon="11.1156967"><ele>166.25</ele><time>2026-04-03T11:49:06.577Z</time></trkpt><trkpt lat="44.4379433" lon="11.11587"><ele>166.0</ele><time>2026-04-03T11:49:07.572Z</time></trkpt><trkpt lat="44.4379517" lon="11.1160367"><ele>165.8</ele><time>2026-04-03T11:49:08.571Z</time></trkpt><trkpt lat="44.4379483" lon="11.1162017"><ele>165.60000000000002</ele><time>2026-04-03T11:49:09.572Z</time></trkpt><trkpt lat="44.437935" lon="11.1163533"><ele>165.4</ele><time>2026-04-03T11:49:10.569Z</time></trkpt><trkpt lat="44.4379217" lon="11.116495"><ele>165.2</ele><time>2026-04-03T11:49:11.576Z</time></trkpt><trkpt lat="44.437915" lon="11.1166233"><ele>165.0</ele><time>2026-04-03T11:49:12.571Z</time></trkpt><trkpt lat="44.4379217" lon="11.11674"><ele>165.16666666666666</ele><time>2026-04-03T11:49:13.577Z</time></trkpt><trkpt lat="44.4379483" lon="11.116845"><ele>165.33333333333334</ele><time>2026-04-03T11:49:14.572Z</time></trkpt><trkpt lat="44.4379933" lon="11.1169383"><ele>165.5</ele><time>2026-04-03T11:49:15.576Z</time></trkpt><trkpt lat="44.4380483" lon="11.1170117"><ele>165.66666666666669</ele><time>2026-04-03T11:49:16.574Z</time></trkpt><trkpt lat="44.43811" lon="11.1170667"><ele>165.83333333333334</ele><time>2026-04-03T11:49:17.574Z</time></trkpt><trkpt lat="44.43817" lon="11.1170967"><ele>166.0</ele><time>2026-04-03T11:49:18.571Z</time></trkpt><trkpt lat="44.4382667" lon="11.1171967"><ele>166.0</ele><time>2026-04-03T11:49:20.572Z</time></trkpt><trkpt lat="44.43829" lon="11.117385"><ele>166.0</ele><time>2026-04-03T11:49:22.569Z</time></trkpt><trkpt lat="44.43825" lon="11.117525"><ele>166.0</ele><time>2026-04-03T11:49:23.569Z</time></trkpt><trkpt lat="44.43818" lon="11.117675"><ele>166.0</ele><time>2026-04-03T11:49:24.574Z</time></trkpt><trkpt lat="44.4381317" lon="11.1178317"><ele>167.75</ele><time>2026-04-03T11:49:25.572Z</time></trkpt><trkpt lat="44.4380983" lon="11.1179867"><ele>169.5</ele><time>2026-04-03T11:49:26.573Z</time></trkpt><trkpt lat="44.4380617" lon="11.1181483"><ele>171.25</ele><time>2026-04-03T11:49:27.581Z</time></trkpt><trkpt lat="44.43803" lon="11.1183117"><ele>173.0</ele><time>2026-04-03T11:49:28.571Z</time></trkpt><trkpt lat="44.4379983" lon="11.118475"><ele>173.75</ele><time>2026-04-03T11:49:29.573Z</time></trkpt><trkpt lat="44.437965" lon="11.1186383"><ele>174.5</ele><time>2026-04-03T11:49:30.572Z</time></trkpt><trkpt lat="44.437945" lon="11.1188083"><ele>175.25</ele><time>2026-04-03T11:49:31.569Z</time></trkpt><trkpt lat="44.4379167" lon="11.118975"><ele>176.0</ele><time>2026-04-03T11:49:32.572Z</time></trkpt><trkpt lat="44.4378917" lon="11.119135"><ele>176.60000000000002</ele><time>2026-04-03T11:49:33.574Z</time></trkpt><trkpt lat="44.4378717" lon="11.11929"><ele>177.2</ele><time>2026-04-03T11:49:34.582Z</time></trkpt><trkpt lat="44.437855" lon="11.1194367"><ele>177.8</ele><time>2026-04-03T11:49:35.567Z</time></trkpt><trkpt lat="44.4378367" lon="11.1195717"><ele>178.39999999999998</ele><time>2026-04-03T11:49:36.576Z</time></trkpt><trkpt lat="44.43781" lon="11.1196917"><ele>179.0</ele><time>2026-04-03T11:49:37.575Z</time></trkpt><trkpt lat="44.43777" lon="11.119795"><ele>179.0</ele><time>2026-04-03T11:49:38.573Z</time></trkpt><trkpt lat="44.4377233" lon="11.11988"><ele>179.0</ele><time>2026-04-03T11:49:39.573Z</time></trkpt><trkpt lat="44.43767" lon="11.1199483"><ele>179.0</ele><time>2026-04-03T11:49:40.569Z</time></trkpt><trkpt lat="44.4376" lon="11.1199967"><ele>179.0</ele><time>2026-04-03T11:49:41.573Z</time></trkpt><trkpt lat="44.4375133" lon="11.1200183"><ele>179.0</ele><time>2026-04-03T11:49:42.573Z</time></trkpt><trkpt lat="44.4374133" lon="11.1200167"><ele>179.0</ele><time>2026-04-03T11:49:43.571Z</time></trkpt><trkpt lat="44.437305" lon="11.12002"><ele>180.0</ele><time>2026-04-03T11:49:44.575Z</time></trkpt><trkpt lat="44.43719" lon="11.120025"><ele>181.0</ele><time>2026-04-03T11:49:45.572Z</time></trkpt><trkpt lat="44.4370717" lon="11.12002"><ele>182.0</ele><time>2026-04-03T11:49:46.575Z</time></trkpt><trkpt lat="44.4369517" lon="11.12003"><ele>183.0</ele><time>2026-04-03T11:49:47.572Z</time></trkpt><trkpt lat="44.4368317" lon="11.1200383"><ele>184.0</ele><time>2026-04-03T11:49:48.572Z</time></trkpt><trkpt lat="44.43671" lon="11.1200483"><ele>185.0</ele><time>2026-04-03T11:49:49.572Z</time></trkpt><trkpt lat="44.4365883" lon="11.1200633"><ele>186.0</ele><time>2026-04-03T11:49:50.572Z</time></trkpt><trkpt lat="44.4364633" lon="11.12008"><ele>187.0</ele><time>2026-04-03T11:49:51.57Z</time></trkpt><trkpt lat="44.436335" lon="11.120095"><ele>185.75</ele><time>2026-04-03T11:49:52.573Z</time></trkpt><trkpt lat="44.4362067" lon="11.1201133"><ele>184.5</ele><time>2026-04-03T11:49:53.58Z</time></trkpt><trkpt lat="44.4360767" lon="11.1201367"><ele>183.25</ele><time>2026-04-03T11:49:54.575Z</time></trkpt><trkpt lat="44.4359483" lon="11.1201517"><ele>182.0</ele><time>2026-04-03T11:49:55.579Z</time></trkpt><trkpt lat="44.4358217" lon="11.1201717"><ele>182.0</ele><time>2026-04-03T11:49:56.573Z</time></trkpt><trkpt lat="44.4356933" lon="11.1201933"><ele>182.0</ele><time>2026-04-03T11:49:57.578Z</time></trkpt><trkpt lat="44.435565" lon="11.1202133"><ele>182.0</ele><time>2026-04-03T11:49:58.57Z</time></trkpt><trkpt lat="44.4354383" lon="11.12023"><ele>182.0</ele><time>2026-04-03T11:49:59.579Z</time></trkpt><trkpt lat="44.4353083" lon="11.1202483"><ele>182.5</ele><time>2026-04-03T11:50:00.576Z</time></trkpt><trkpt lat="44.4351817" lon="11.1202667"><ele>183.0</ele><time>2026-04-03T11:50:01.575Z</time></trkpt><trkpt lat="44.4350533" lon="11.120285"><ele>183.5</ele><time>2026-04-03T11:50:02.578Z</time></trkpt><trkpt lat="44.43492" lon="11.1203"><ele>184.0</ele><time>2026-04-03T11:50:03.572Z</time></trkpt><trkpt lat="44.43479" lon="11.1203133"><ele>184.0</ele><time>2026-04-03T11:50:04.573Z</time></trkpt><trkpt lat="44.434655" lon="11.1203267"><ele>184.0</ele><time>2026-04-03T11:50:05.573Z</time></trkpt><trkpt lat="44.4345217" lon="11.1203417"><ele>184.0</ele><time>2026-04-03T11:50:06.573Z</time></trkpt><trkpt lat="44.4343883" lon="11.1203583"><ele>184.0</ele><time>2026-04-03T11:50:07.57Z</time></trkpt><trkpt lat="44.4342517" lon="11.1203767"><ele>184.5</ele><time>2026-04-03T11:50:08.578Z</time></trkpt><trkpt lat="44.434115" lon="11.120395"><ele>185.0</ele><time>2026-04-03T11:50:09.573Z</time></trkpt><trkpt lat="44.4339733" lon="11.120415"><ele>185.5</ele><time>2026-04-03T11:50:10.57Z</time></trkpt><trkpt lat="44.4338333" lon="11.12043"><ele>186.0</ele><time>2026-04-03T11:50:11.572Z</time></trkpt><trkpt lat="44.4336983" lon="11.1204467"><ele>186.5</ele><time>2026-04-03T11:50:12.569Z</time></trkpt><trkpt lat="44.4335633" lon="11.12046"><ele>187.0</ele><time>2026-04-03T11:50:13.571Z</time></trkpt><trkpt lat="44.4334383" lon="11.1204783"><ele>187.5</ele><time>2026-04-03T11:50:14.573Z</time></trkpt><trkpt lat="44.43331" lon="11.120495"><ele>188.0</ele><time>2026-04-03T11:50:15.571Z</time></trkpt><trkpt lat="44.4331833" lon="11.1205133"><ele>188.0</ele><time>2026-04-03T11:50:16.572Z</time></trkpt><trkpt lat="44.4330567" lon="11.1205367"><ele>188.0</ele><time>2026-04-03T11:50:17.569Z</time></trkpt><trkpt lat="44.432925" lon="11.12056"><ele>188.0</ele><time>2026-04-03T11:50:18.573Z</time></trkpt><trkpt lat="44.4327933" lon="11.1205767"><ele>188.0</ele><time>2026-04-03T11:50:19.569Z</time></trkpt><trkpt lat="44.43266" lon="11.12059"><ele>188.5</ele><time>2026-04-03T11:50:20.571Z</time></trkpt><trkpt lat="44.432525" lon="11.1206033"><ele>189.0</ele><time>2026-04-03T11:50:21.571Z</time></trkpt><trkpt lat="44.4323883" lon="11.1206183"><ele>189.5</ele><time>2026-04-03T11:50:22.571Z</time></trkpt><trkpt lat="44.432245" lon="11.120635"><ele>190.0</ele><time>2026-04-03T11:50:23.576Z</time></trkpt><trkpt lat="44.4321033" lon="11.12065"><ele>191.0</ele><time>2026-04-03T11:50:24.571Z</time></trkpt><trkpt lat="44.4319733" lon="11.1206683"><ele>192.0</ele><time>2026-04-03T11:50:25.572Z</time></trkpt><trkpt lat="44.4318467" lon="11.1206917"><ele>193.0</ele><time>2026-04-03T11:50:26.571Z</time></trkpt><trkpt lat="44.4317217" lon="11.12072"><ele>194.0</ele><time>2026-04-03T11:50:27.57Z</time></trkpt><trkpt lat="44.4316067" lon="11.1207533"><ele>194.25</ele><time>2026-04-03T11:50:28.573Z</time></trkpt><trkpt lat="44.4314983" lon="11.12078"><ele>194.5</ele><time>2026-04-03T11:50:29.57Z</time></trkpt><trkpt lat="44.431385" lon="11.120775"><ele>194.75</ele><time>2026-04-03T11:50:30.569Z</time></trkpt><trkpt lat="44.4312683" lon="11.1207417"><ele>195.0</ele><time>2026-04-03T11:50:31.569Z</time></trkpt><trkpt lat="44.4311517" lon="11.1206917"><ele>195.25</ele><time>2026-04-03T11:50:32.57Z</time></trkpt><trkpt lat="44.4310383" lon="11.1206283"><ele>195.5</ele><time>2026-04-03T11:50:33.571Z</time></trkpt><trkpt lat="44.4309267" lon="11.1205533"><ele>195.75</ele><time>2026-04-03T11:50:34.578Z</time></trkpt><trkpt lat="44.4308133" lon="11.1204767"><ele>196.0</ele><time>2026-04-03T11:50:35.57Z</time></trkpt><trkpt lat="44.4306967" lon="11.1203967"><ele>196.0</ele><time>2026-04-03T11:50:36.575Z</time></trkpt><trkpt lat="44.43058" lon="11.1203133"><ele>196.0</ele><time>2026-04-03T11:50:37.569Z</time></trkpt><trkpt lat="44.430465" lon="11.1202233"><ele>196.0</ele><time>2026-04-03T11:50:38.579Z</time></trkpt><trkpt lat="44.4303467" lon="11.1201433"><ele>196.0</ele><time>2026-04-03T11:50:39.57Z</time></trkpt><trkpt lat="44.4302283" lon="11.120065"><ele>196.25</ele><time>2026-04-03T11:50:40.573Z</time></trkpt><trkpt lat="44.4301083" lon="11.1199883"><ele>196.5</ele><time>2026-04-03T11:50:41.566Z</time></trkpt><trkpt lat="44.4299917" lon="11.119915"><ele>196.75</ele><time>2026-04-03T11:50:42.57Z</time></trkpt><trkpt lat="44.4298783" lon="11.119845"><ele>197.0</ele><time>2026-04-03T11:50:43.572Z</time></trkpt><trkpt lat="44.4297617" lon="11.1197767"><ele>197.0</ele><time>2026-04-03T11:50:44.578Z</time></trkpt><trkpt lat="44.429645" lon="11.1197017"><ele>197.0</ele><time>2026-04-03T11:50:45.573Z</time></trkpt><trkpt lat="44.4295333" lon="11.1196267"><ele>197.0</ele><time>2026-04-03T11:50:46.571Z</time></trkpt><trkpt lat="44.4294283" lon="11.1195433"><ele>197.0</ele><time>2026-04-03T11:50:47.575Z</time></trkpt><trkpt lat="44.42933" lon="11.1194517"><ele>197.2</ele><time>2026-04-03T11:50:48.57Z</time></trkpt><trkpt lat="44.4292417" lon="11.1193617"><ele>197.39999999999998</ele><time>2026-04-03T11:50:49.571Z</time></trkpt><trkpt lat="44.4291567" lon="11.1192717"><ele>197.60000000000002</ele><time>2026-04-03T11:50:50.574Z</time></trkpt><trkpt lat="44.4290717" lon="11.1191867"><ele>197.8</ele><time>2026-04-03T11:50:51.579Z</time></trkpt><trkpt lat="44.428995" lon="11.1191033"><ele>198.0</ele><time>2026-04-03T11:50:52.572Z</time></trkpt><trkpt lat="44.42892" lon="11.1190217"><ele>198.0</ele><time>2026-04-03T11:50:53.569Z</time></trkpt><trkpt lat="44.428845" lon="11.11894"><ele>198.0</ele><time>2026-04-03T11:50:54.57Z</time></trkpt><trkpt lat="44.4287617" lon="11.1188583"><ele>198.0</ele><time>2026-04-03T11:50:55.58Z</time></trkpt><trkpt lat="44.4286683" lon="11.11878"><ele>198.0</ele><time>2026-04-03T11:50:56.573Z</time></trkpt><trkpt lat="44.4285683" lon="11.1187067"><ele>198.0</ele><time>2026-04-03T11:50:57.573Z</time></trkpt><trkpt lat="44.42847" lon="11.1186433"><ele>198.75</ele><time>2026-04-03T11:50:58.572Z</time></trkpt><trkpt lat="44.4283717" lon="11.118575"><ele>199.5</ele><time>2026-04-03T11:50:59.57Z</time></trkpt><trkpt lat="44.4282767" lon="11.1185033"><ele>200.25</ele><time>2026-04-03T11:51:00.573Z</time></trkpt><trkpt lat="44.4281867" lon="11.1184033"><ele>201.0</ele><time>2026-04-03T11:51:01.576Z</time></trkpt><trkpt lat="44.4281033" lon="11.1182817"><ele>201.20000000000002</ele><time>2026-04-03T11:51:02.573Z</time></trkpt><trkpt lat="44.4280317" lon="11.118165"><ele>201.4</ele><time>2026-04-03T11:51:03.578Z</time></trkpt><trkpt lat="44.4279667" lon="11.118055"><ele>201.6</ele><time>2026-04-03T11:51:04.57Z</time></trkpt><trkpt lat="44.4279067" lon="11.11796"><ele>201.8</ele><time>2026-04-03T11:51:05.571Z</time></trkpt><trkpt lat="44.427845" lon="11.1178667"><ele>202.0</ele><time>2026-04-03T11:51:06.579Z</time></trkpt><trkpt lat="44.4277833" lon="11.1177783"><ele>201.99999999999997</ele><time>2026-04-03T11:51:07.571Z</time></trkpt><trkpt lat="44.4277217" lon="11.1176983"><ele>202.0</ele><time>2026-04-03T11:51:08.573Z</time></trkpt><trkpt lat="44.427665" lon="11.1176183"><ele>202.0</ele><time>2026-04-03T11:51:09.569Z</time></trkpt><trkpt lat="44.4276183" lon="11.11753"><ele>202.0</ele><time>2026-04-03T11:51:10.574Z</time></trkpt><trkpt lat="44.4275867" lon="11.1174333"><ele>201.99999999999997</ele><time>2026-04-03T11:51:11.574Z</time></trkpt><trkpt lat="44.4275733" lon="11.1173283"><ele>202.0</ele><time>2026-04-03T11:51:12.569Z</time></trkpt><trkpt lat="44.427575" lon="11.1172183"><ele>200.33333333333331</ele><time>2026-04-03T11:51:13.574Z</time></trkpt><trkpt lat="44.427575" lon="11.1171067"><ele>198.66666666666666</ele><time>2026-04-03T11:51:14.572Z</time></trkpt><trkpt lat="44.427565" lon="11.1169883"><ele>197.0</ele><time>2026-04-03T11:51:15.575Z</time></trkpt><trkpt lat="44.427535" lon="11.1168683"><ele>195.33333333333331</ele><time>2026-04-03T11:51:16.571Z</time></trkpt><trkpt lat="44.4274867" lon="11.1167533"><ele>193.66666666666666</ele><time>2026-04-03T11:51:17.579Z</time></trkpt><trkpt lat="44.42743" lon="11.1166467"><ele>192.0</ele><time>2026-04-03T11:51:18.571Z</time></trkpt><trkpt lat="44.4273633" lon="11.1165483"><ele>190.39999999999998</ele><time>2026-04-03T11:51:19.576Z</time></trkpt><trkpt lat="44.4272767" lon="11.1164733"><ele>188.79999999999998</ele><time>2026-04-03T11:51:20.571Z</time></trkpt><trkpt lat="44.4271733" lon="11.1164183"><ele>187.2</ele><time>2026-04-03T11:51:21.576Z</time></trkpt><trkpt lat="44.4270617" lon="11.1163683"><ele>185.6</ele><time>2026-04-03T11:51:22.575Z</time></trkpt><trkpt lat="44.4269517" lon="11.116315"><ele>184.0</ele><time>2026-04-03T11:51:23.573Z</time></trkpt><trkpt lat="44.426845" lon="11.1162483"><ele>184.0</ele><time>2026-04-03T11:51:24.57Z</time></trkpt><trkpt lat="44.4267417" lon="11.11616"><ele>184.0</ele><time>2026-04-03T11:51:25.569Z</time></trkpt><trkpt lat="44.4266417" lon="11.1160583"><ele>184.0</ele><time>2026-04-03T11:51:26.571Z</time></trkpt><trkpt lat="44.4265517" lon="11.1159467"><ele>184.0</ele><time>2026-04-03T11:51:27.569Z</time></trkpt><trkpt lat="44.4264583" lon="11.1158367"><ele>183.75</ele><time>2026-04-03T11:51:28.57Z</time></trkpt><trkpt lat="44.4263683" lon="11.115725"><ele>183.5</ele><time>2026-04-03T11:51:29.57Z</time></trkpt><trkpt lat="44.4262767" lon="11.1156217"><ele>183.25</ele><time>2026-04-03T11:51:30.579Z</time></trkpt><trkpt lat="44.4261817" lon="11.1155267"><ele>183.0</ele><time>2026-04-03T11:51:31.571Z</time></trkpt><trkpt lat="44.42609" lon="11.115425"><ele>183.0</ele><time>2026-04-03T11:51:32.578Z</time></trkpt><trkpt lat="44.4259983" lon="11.1153233"><ele>183.0</ele><time>2026-04-03T11:51:33.573Z</time></trkpt><trkpt lat="44.4259067" lon="11.11522"><ele>183.0</ele><time>2026-04-03T11:51:34.571Z</time></trkpt><trkpt lat="44.42581" lon="11.1151183"><ele>183.0</ele><time>2026-04-03T11:51:35.573Z</time></trkpt><trkpt lat="44.4257133" lon="11.1150117"><ele>183.0</ele><time>2026-04-03T11:51:36.572Z</time></trkpt><trkpt lat="44.4256217" lon="11.1149067"><ele>183.0</ele><time>2026-04-03T11:51:37.576Z</time></trkpt><trkpt lat="44.4255267" lon="11.1148033"><ele>183.0</ele><time>2026-04-03T11:51:38.57Z</time></trkpt><trkpt lat="44.4254383" lon="11.114695"><ele>183.0</ele><time>2026-04-03T11:51:39.572Z</time></trkpt><trkpt lat="44.4253483" lon="11.1145883"><ele>184.25</ele><time>2026-04-03T11:51:40.573Z</time></trkpt><trkpt lat="44.4252567" lon="11.11448"><ele>185.5</ele><time>2026-04-03T11:51:41.575Z</time></trkpt><trkpt lat="44.4251617" lon="11.114375"><ele>186.75</ele><time>2026-04-03T11:51:42.57Z</time></trkpt><trkpt lat="44.42507" lon="11.1142617"><ele>188.0</ele><time>2026-04-03T11:51:43.576Z</time></trkpt><trkpt lat="44.4249767" lon="11.1141483"><ele>187.75</ele><time>2026-04-03T11:51:44.569Z</time></trkpt><trkpt lat="44.4248867" lon="11.114025"><ele>187.5</ele><time>2026-04-03T11:51:45.569Z</time></trkpt><trkpt lat="44.4247883" lon="11.1139083"><ele>187.25</ele><time>2026-04-03T11:51:46.57Z</time></trkpt><trkpt lat="44.4246917" lon="11.1137917"><ele>187.0</ele><time>2026-04-03T11:51:47.569Z</time></trkpt><trkpt lat="44.4246" lon="11.113675"><ele>187.25</ele><time>2026-04-03T11:51:48.571Z</time></trkpt><trkpt lat="44.4245067" lon="11.1135533"><ele>187.5</ele><time>2026-04-03T11:51:49.573Z</time></trkpt><trkpt lat="44.4244133" lon="11.113435"><ele>187.75</ele><time>2026-04-03T11:51:50.572Z</time></trkpt><trkpt lat="44.4243183" lon="11.11332"><ele>188.0</ele><time>2026-04-03T11:51:51.575Z</time></trkpt><trkpt lat="44.42422" lon="11.1132083"><ele>188.0</ele><time>2026-04-03T11:51:52.57Z</time></trkpt><trkpt lat="44.4241183" lon="11.1130967"><ele>188.0</ele><time>2026-04-03T11:51:53.579Z</time></trkpt><trkpt lat="44.4240133" lon="11.1129867"><ele>188.0</ele><time>2026-04-03T11:51:54.572Z</time></trkpt><trkpt lat="44.42391" lon="11.1128783"><ele>188.0</ele><time>2026-04-03T11:51:55.57Z</time></trkpt><trkpt lat="44.4238117" lon="11.1127717"><ele>188.0</ele><time>2026-04-03T11:51:56.571Z</time></trkpt><trkpt lat="44.42372" lon="11.1126667"><ele>188.0</ele><time>2026-04-03T11:51:57.572Z</time></trkpt><trkpt lat="44.4236267" lon="11.1125583"><ele>188.0</ele><time>2026-04-03T11:51:58.573Z</time></trkpt><trkpt lat="44.423535" lon="11.11245"><ele>188.0</ele><time>2026-04-03T11:51:59.573Z</time></trkpt><trkpt lat="44.423445" lon="11.112345"><ele>188.0</ele><time>2026-04-03T11:52:00.578Z</time></trkpt><trkpt lat="44.42336" lon="11.1122417"><ele>188.0</ele><time>2026-04-03T11:52:01.574Z</time></trkpt><trkpt lat="44.423275" lon="11.1121433"><ele>188.0</ele><time>2026-04-03T11:52:02.572Z</time></trkpt><trkpt lat="44.423185" lon="11.11204"><ele>188.0</ele><time>2026-04-03T11:52:03.572Z</time></trkpt><trkpt lat="44.423085" lon="11.1119433"><ele>188.75</ele><time>2026-04-03T11:52:04.575Z</time></trkpt><trkpt lat="44.4229767" lon="11.111865"><ele>189.5</ele><time>2026-04-03T11:52:05.57Z</time></trkpt><trkpt lat="44.422865" lon="11.11179"><ele>190.25</ele><time>2026-04-03T11:52:06.569Z</time></trkpt><trkpt lat="44.4227567" lon="11.1117083"><ele>191.0</ele><time>2026-04-03T11:52:07.57Z</time></trkpt><trkpt lat="44.42266" lon="11.1116033"><ele>190.0</ele><time>2026-04-03T11:52:08.57Z</time></trkpt><trkpt lat="44.4225767" lon="11.111475"><ele>189.0</ele><time>2026-04-03T11:52:09.58Z</time></trkpt><trkpt lat="44.422505" lon="11.1113333"><ele>188.0</ele><time>2026-04-03T11:52:10.571Z</time></trkpt><trkpt lat="44.422435" lon="11.1111933"><ele>187.0</ele><time>2026-04-03T11:52:11.575Z</time></trkpt><trkpt lat="44.422365" lon="11.111055"><ele>187.0</ele><time>2026-04-03T11:52:12.576Z</time></trkpt><trkpt lat="44.4222883" lon="11.1109217"><ele>187.0</ele><time>2026-04-03T11:52:13.574Z</time></trkpt><trkpt lat="44.422205" lon="11.1107967"><ele>187.0</ele><time>2026-04-03T11:52:14.576Z</time></trkpt><trkpt lat="44.4221117" lon="11.1106767"><ele>187.0</ele><time>2026-04-03T11:52:15.573Z</time></trkpt><trkpt lat="44.4220083" lon="11.110565"><ele>187.75</ele><time>2026-04-03T11:52:16.579Z</time></trkpt><trkpt lat="44.4218983" lon="11.1104567"><ele>188.5</ele><time>2026-04-03T11:52:17.572Z</time></trkpt><trkpt lat="44.4217867" lon="11.1103467"><ele>189.25</ele><time>2026-04-03T11:52:18.574Z</time></trkpt><trkpt lat="44.4216783" lon="11.1102317"><ele>190.0</ele><time>2026-04-03T11:52:19.576Z</time></trkpt><trkpt lat="44.4215733" lon="11.11011"><ele>190.0</ele><time>2026-04-03T11:52:20.572Z</time></trkpt><trkpt lat="44.42147" lon="11.1099933"><ele>190.0</ele><time>2026-04-03T11:52:21.57Z</time></trkpt><trkpt lat="44.42137" lon="11.1098733"><ele>190.0</ele><time>2026-04-03T11:52:22.569Z</time></trkpt><trkpt lat="44.4212733" lon="11.1097533"><ele>190.0</ele><time>2026-04-03T11:52:23.57Z</time></trkpt><trkpt lat="44.42118" lon="11.1096267"><ele>190.5</ele><time>2026-04-03T11:52:24.572Z</time></trkpt><trkpt lat="44.4210917" lon="11.1095033"><ele>191.0</ele><time>2026-04-03T11:52:25.572Z</time></trkpt><trkpt lat="44.4210017" lon="11.1093783"><ele>191.5</ele><time>2026-04-03T11:52:26.574Z</time></trkpt><trkpt lat="44.42091" lon="11.1092567"><ele>192.0</ele><time>2026-04-03T11:52:27.569Z</time></trkpt><trkpt lat="44.4208133" lon="11.109135"><ele>191.75</ele><time>2026-04-03T11:52:28.574Z</time></trkpt><trkpt lat="44.4207117" lon="11.109015"><ele>191.5</ele><time>2026-04-03T11:52:29.572Z</time></trkpt><trkpt lat="44.42061" lon="11.1088967"><ele>191.25</ele><time>2026-04-03T11:52:30.572Z</time></trkpt><trkpt lat="44.4205117" lon="11.1087833"><ele>191.0</ele><time>2026-04-03T11:52:31.571Z</time></trkpt><trkpt lat="44.4204117" lon="11.1086717"><ele>191.25</ele><time>2026-04-03T11:52:32.572Z</time></trkpt><trkpt lat="44.42032" lon="11.1085583"><ele>191.5</ele><time>2026-04-03T11:52:33.571Z</time></trkpt><trkpt lat="44.4202283" lon="11.1084317"><ele>191.75</ele><time>2026-04-03T11:52:34.569Z</time></trkpt><trkpt lat="44.42014" lon="11.1083"><ele>192.0</ele><time>2026-04-03T11:52:35.57Z</time></trkpt><trkpt lat="44.420055" lon="11.1081667"><ele>192.0</ele><time>2026-04-03T11:52:36.57Z</time></trkpt><trkpt lat="44.4199783" lon="11.10803"><ele>192.0</ele><time>2026-04-03T11:52:37.575Z</time></trkpt><trkpt lat="44.419905" lon="11.1078983"><ele>192.0</ele><time>2026-04-03T11:52:38.573Z</time></trkpt><trkpt lat="44.41983" lon="11.1077617"><ele>192.0</ele><time>2026-04-03T11:52:39.573Z</time></trkpt><trkpt lat="44.4197583" lon="11.1076283"><ele>192.0</ele><time>2026-04-03T11:52:40.57Z</time></trkpt><trkpt lat="44.4196867" lon="11.1075067"><ele>192.0</ele><time>2026-04-03T11:52:41.571Z</time></trkpt><trkpt lat="44.4196217" lon="11.1073983"><ele>192.0</ele><time>2026-04-03T11:52:42.571Z</time></trkpt><trkpt lat="44.41956" lon="11.1072983"><ele>192.0</ele><time>2026-04-03T11:52:43.57Z</time></trkpt><trkpt lat="44.4195017" lon="11.1072033"><ele>192.0</ele><time>2026-04-03T11:52:44.573Z</time></trkpt><trkpt lat="44.41945" lon="11.1071183"><ele>192.0</ele><time>2026-04-03T11:52:45.571Z</time></trkpt><trkpt lat="44.4194117" lon="11.1070233"><ele>192.0</ele><time>2026-04-03T11:52:46.57Z</time></trkpt><trkpt lat="44.4193817" lon="11.1069233"><ele>192.0</ele><time>2026-04-03T11:52:47.572Z</time></trkpt><trkpt lat="44.4193667" lon="11.10681"><ele>192.0</ele><time>2026-04-03T11:52:48.572Z</time></trkpt><trkpt lat="44.4193783" lon="11.1066883"><ele>192.0</ele><time>2026-04-03T11:52:49.574Z</time></trkpt><trkpt lat="44.419415" lon="11.106575"><ele>192.0</ele><time>2026-04-03T11:52:50.577Z</time></trkpt><trkpt lat="44.419465" lon="11.1064667"><ele>192.0</ele><time>2026-04-03T11:52:51.569Z</time></trkpt><trkpt lat="44.41951" lon="11.1063533"><ele>192.0</ele><time>2026-04-03T11:52:52.577Z</time></trkpt><trkpt lat="44.4195383" lon="11.1062383"><ele>192.0</ele><time>2026-04-03T11:52:53.574Z</time></trkpt><trkpt lat="44.4195517" lon="11.1061217"><ele>192.0</ele><time>2026-04-03T11:52:54.58Z</time></trkpt><trkpt lat="44.4195417" lon="11.1060133"><ele>192.0</ele><time>2026-04-03T11:52:55.574Z</time></trkpt><trkpt lat="44.419505" lon="11.10592"><ele>192.0</ele><time>2026-04-03T11:52:56.571Z</time></trkpt><trkpt lat="44.4194333" lon="11.105845"><ele>192.0</ele><time>2026-04-03T11:52:57.574Z</time></trkpt><trkpt lat="44.4193433" lon="11.1057817"><ele>192.0</ele><time>2026-04-03T11:52:58.568Z</time></trkpt><trkpt lat="44.41926" lon="11.10571"><ele>192.0</ele><time>2026-04-03T11:52:59.579Z</time></trkpt><trkpt lat="44.4191433" lon="11.1056517"><ele>192.0</ele><time>2026-04-03T11:53:00.57Z</time></trkpt><trkpt lat="44.4190317" lon="11.1055883"><ele>192.0</ele><time>2026-04-03T11:53:01.573Z</time></trkpt><trkpt lat="44.4189233" lon="11.105525"><ele>192.25</ele><time>2026-04-03T11:53:02.572Z</time></trkpt><trkpt lat="44.4188067" lon="11.1054567"><ele>192.5</ele><time>2026-04-03T11:53:03.568Z</time></trkpt><trkpt lat="44.41869" lon="11.1053867"><ele>192.75</ele><time>2026-04-03T11:53:04.571Z</time></trkpt><trkpt lat="44.4185733" lon="11.10532"><ele>193.0</ele><time>2026-04-03T11:53:05.571Z</time></trkpt><trkpt lat="44.41845" lon="11.1052583"><ele>193.0</ele><time>2026-04-03T11:53:06.572Z</time></trkpt><trkpt lat="44.4183333" lon="11.1051933"><ele>193.0</ele><time>2026-04-03T11:53:07.577Z</time></trkpt><trkpt lat="44.4182217" lon="11.105115"><ele>193.0</ele><time>2026-04-03T11:53:08.57Z</time></trkpt><trkpt lat="44.4181067" lon="11.1050467"><ele>193.0</ele><time>2026-04-03T11:53:09.574Z</time></trkpt><trkpt lat="44.41799" lon="11.10497"><ele>193.5</ele><time>2026-04-03T11:53:10.57Z</time></trkpt><trkpt lat="44.4178783" lon="11.1048967"><ele>194.0</ele><time>2026-04-03T11:53:11.573Z</time></trkpt><trkpt lat="44.4177667" lon="11.1048417"><ele>194.5</ele><time>2026-04-03T11:53:12.568Z</time></trkpt><trkpt lat="44.41765" lon="11.1048183"><ele>195.0</ele><time>2026-04-03T11:53:13.571Z</time></trkpt><trkpt lat="44.4175317" lon="11.1048167"><ele>195.0</ele><time>2026-04-03T11:53:14.58Z</time></trkpt><trkpt lat="44.4174083" lon="11.104835"><ele>195.0</ele><time>2026-04-03T11:53:15.572Z</time></trkpt><trkpt lat="44.4172817" lon="11.104845"><ele>195.0</ele><time>2026-04-03T11:53:16.573Z</time></trkpt><trkpt lat="44.4171567" lon="11.1048333"><ele>195.0</ele><time>2026-04-03T11:53:17.569Z</time></trkpt><trkpt lat="44.4170333" lon="11.1047917"><ele>196.0</ele><time>2026-04-03T11:53:18.577Z</time></trkpt><trkpt lat="44.4169117" lon="11.10474"><ele>197.0</ele><time>2026-04-03T11:53:19.572Z</time></trkpt><trkpt lat="44.41679" lon="11.104685"><ele>198.0</ele><time>2026-04-03T11:53:20.571Z</time></trkpt><trkpt lat="44.41667" lon="11.1046233"><ele>199.0</ele><time>2026-04-03T11:53:21.57Z</time></trkpt><trkpt lat="44.4165517" lon="11.1045633"><ele>199.0</ele><time>2026-04-03T11:53:22.57Z</time></trkpt><trkpt lat="44.4164317" lon="11.1045033"><ele>199.0</ele><time>2026-04-03T11:53:23.569Z</time></trkpt><trkpt lat="44.4163133" lon="11.1044483"><ele>199.0</ele><time>2026-04-03T11:53:24.578Z</time></trkpt><trkpt lat="44.416195" lon="11.104395"><ele>199.0</ele><time>2026-04-03T11:53:25.572Z</time></trkpt><trkpt lat="44.4160767" lon="11.1043367"><ele>199.25</ele><time>2026-04-03T11:53:26.573Z</time></trkpt><trkpt lat="44.4159583" lon="11.104275"><ele>199.5</ele><time>2026-04-03T11:53:27.572Z</time></trkpt><trkpt lat="44.4158367" lon="11.1042183"><ele>199.75</ele><time>2026-04-03T11:53:28.571Z</time></trkpt><trkpt lat="44.4157167" lon="11.1041617"><ele>200.0</ele><time>2026-04-03T11:53:29.572Z</time></trkpt><trkpt lat="44.415595" lon="11.104105"><ele>200.25</ele><time>2026-04-03T11:53:30.573Z</time></trkpt><trkpt lat="44.4154767" lon="11.10405"><ele>200.5</ele><time>2026-04-03T11:53:31.574Z</time></trkpt><trkpt lat="44.415355" lon="11.1039967"><ele>200.75</ele><time>2026-04-03T11:53:32.576Z</time></trkpt><trkpt lat="44.4152333" lon="11.1039433"><ele>201.0</ele><time>2026-04-03T11:53:33.571Z</time></trkpt><trkpt lat="44.415115" lon="11.103885"><ele>201.0</ele><time>2026-04-03T11:53:34.573Z</time></trkpt><trkpt lat="44.4149983" lon="11.10382"><ele>201.0</ele><time>2026-04-03T11:53:35.57Z</time></trkpt><trkpt lat="44.4148833" lon="11.1037467"><ele>201.0</ele><time>2026-04-03T11:53:36.573Z</time></trkpt><trkpt lat="44.4147717" lon="11.10366"><ele>201.0</ele><time>2026-04-03T11:53:37.572Z</time></trkpt><trkpt lat="44.4146617" lon="11.1035667"><ele>201.25</ele><time>2026-04-03T11:53:38.575Z</time></trkpt><trkpt lat="44.4145533" lon="11.10347"><ele>201.5</ele><time>2026-04-03T11:53:39.572Z</time></trkpt><trkpt lat="44.4144467" lon="11.103365"><ele>201.75</ele><time>2026-04-03T11:53:40.571Z</time></trkpt><trkpt lat="44.4143433" lon="11.1032583"><ele>202.0</ele><time>2026-04-03T11:53:41.572Z</time></trkpt><trkpt lat="44.4142417" lon="11.10315"><ele>201.25</ele><time>2026-04-03T11:53:42.57Z</time></trkpt><trkpt lat="44.414145" lon="11.1030433"><ele>200.5</ele><time>2026-04-03T11:53:43.571Z</time></trkpt><trkpt lat="44.41405" lon="11.1029367"><ele>199.75</ele><time>2026-04-03T11:53:44.577Z</time></trkpt><trkpt lat="44.4139567" lon="11.102825"><ele>199.0</ele><time>2026-04-03T11:53:45.568Z</time></trkpt><trkpt lat="44.41386" lon="11.102715"><ele>199.75</ele><time>2026-04-03T11:53:46.57Z</time></trkpt><trkpt lat="44.4137633" lon="11.102605"><ele>200.5</ele><time>2026-04-03T11:53:47.573Z</time></trkpt><trkpt lat="44.413665" lon="11.102495"><ele>201.25</ele><time>2026-04-03T11:53:48.575Z</time></trkpt><trkpt lat="44.41357" lon="11.10239"><ele>202.0</ele><time>2026-04-03T11:53:49.57Z</time></trkpt><trkpt lat="44.41347" lon="11.10229"><ele>202.0</ele><time>2026-04-03T11:53:50.573Z</time></trkpt><trkpt lat="44.4133683" lon="11.1021933"><ele>202.0</ele><time>2026-04-03T11:53:51.567Z</time></trkpt><trkpt lat="44.4132633" lon="11.1021067"><ele>202.0</ele><time>2026-04-03T11:53:52.575Z</time></trkpt><trkpt lat="44.4131533" lon="11.102025"><ele>202.0</ele><time>2026-04-03T11:53:53.57Z</time></trkpt><trkpt lat="44.4130417" lon="11.101945"><ele>202.75</ele><time>2026-04-03T11:53:54.58Z</time></trkpt><trkpt lat="44.41293" lon="11.1018617"><ele>203.5</ele><time>2026-04-03T11:53:55.573Z</time></trkpt><trkpt lat="44.4128183" lon="11.1017717"><ele>204.25</ele><time>2026-04-03T11:53:56.574Z</time></trkpt><trkpt lat="44.412715" lon="11.1016767"><ele>205.0</ele><time>2026-04-03T11:53:57.57Z</time></trkpt><trkpt lat="44.4126217" lon="11.1015833"><ele>204.0</ele><time>2026-04-03T11:53:58.57Z</time></trkpt><trkpt lat="44.412535" lon="11.10149"><ele>203.0</ele><time>2026-04-03T11:53:59.576Z</time></trkpt><trkpt lat="44.4124517" lon="11.1013867"><ele>202.0</ele><time>2026-04-03T11:54:00.57Z</time></trkpt><trkpt lat="44.4123717" lon="11.101275"><ele>201.0</ele><time>2026-04-03T11:54:01.577Z</time></trkpt><trkpt lat="44.4122883" lon="11.10116"><ele>201.0</ele><time>2026-04-03T11:54:02.571Z</time></trkpt><trkpt lat="44.4122033" lon="11.1010417"><ele>201.0</ele><time>2026-04-03T11:54:03.572Z</time></trkpt><trkpt lat="44.4121133" lon="11.1009233"><ele>201.0</ele><time>2026-04-03T11:54:04.576Z</time></trkpt><trkpt lat="44.41202" lon="11.1008083"><ele>201.0</ele><time>2026-04-03T11:54:05.572Z</time></trkpt><trkpt lat="44.4119267" lon="11.1006983"><ele>201.20000000000002</ele><time>2026-04-03T11:54:06.571Z</time></trkpt><trkpt lat="44.411835" lon="11.1005967"><ele>201.4</ele><time>2026-04-03T11:54:07.576Z</time></trkpt><trkpt lat="44.41175" lon="11.1005083"><ele>201.6</ele><time>2026-04-03T11:54:08.57Z</time></trkpt><trkpt lat="44.41167" lon="11.10042"><ele>201.8</ele><time>2026-04-03T11:54:09.573Z</time></trkpt><trkpt lat="44.4115883" lon="11.1003267"><ele>202.0</ele><time>2026-04-03T11:54:10.573Z</time></trkpt><trkpt lat="44.411505" lon="11.10023"><ele>202.0</ele><time>2026-04-03T11:54:11.574Z</time></trkpt><trkpt lat="44.4114133" lon="11.10014"><ele>202.0</ele><time>2026-04-03T11:54:12.574Z</time></trkpt><trkpt lat="44.4113067" lon="11.1000717"><ele>202.0</ele><time>2026-04-03T11:54:13.573Z</time></trkpt><trkpt lat="44.41119" lon="11.1000383"><ele>202.0</ele><time>2026-04-03T11:54:14.572Z</time></trkpt><trkpt lat="44.4110683" lon="11.1000283"><ele>203.5</ele><time>2026-04-03T11:54:15.578Z</time></trkpt><trkpt lat="44.4109467" lon="11.1000467"><ele>205.0</ele><time>2026-04-03T11:54:16.571Z</time></trkpt><trkpt lat="44.4108183" lon="11.10008"><ele>206.5</ele><time>2026-04-03T11:54:17.571Z</time></trkpt><trkpt lat="44.410685" lon="11.10011"><ele>208.0</ele><time>2026-04-03T11:54:18.572Z</time></trkpt><trkpt lat="44.4105567" lon="11.10014"><ele>208.5</ele><time>2026-04-03T11:54:19.572Z</time></trkpt><trkpt lat="44.4104317" lon="11.1001683"><ele>209.0</ele><time>2026-04-03T11:54:20.573Z</time></trkpt><trkpt lat="44.4103033" lon="11.100195"><ele>209.5</ele><time>2026-04-03T11:54:21.576Z</time></trkpt><trkpt lat="44.4101767" lon="11.1002267"><ele>210.0</ele><time>2026-04-03T11:54:22.567Z</time></trkpt><trkpt lat="44.41006" lon="11.1002533"><ele>210.0</ele><time>2026-04-03T11:54:23.569Z</time></trkpt><trkpt lat="44.4099517" lon="11.1002767"><ele>210.0</ele><time>2026-04-03T11:54:24.577Z</time></trkpt><trkpt lat="44.4098583" lon="11.1002983"><ele>210.0</ele><time>2026-04-03T11:54:25.568Z</time></trkpt><trkpt lat="44.4097767" lon="11.1003217"><ele>210.0</ele><time>2026-04-03T11:54:26.581Z</time></trkpt><trkpt lat="44.4097033" lon="11.100335"><ele>210.0</ele><time>2026-04-03T11:54:27.571Z</time></trkpt><trkpt lat="44.409595" lon="11.1003283"><ele>210.4</ele><time>2026-04-03T11:54:29.568Z</time></trkpt><trkpt lat="44.4095217" lon="11.1002367"><ele>210.8</ele><time>2026-04-03T11:54:31.573Z</time></trkpt><trkpt lat="44.4095017" lon="11.1001417"><ele>211.2</ele><time>2026-04-03T11:54:32.57Z</time></trkpt><trkpt lat="44.4094983" lon="11.1000267"><ele>211.6</ele><time>2026-04-03T11:54:33.571Z</time></trkpt><trkpt lat="44.4094933" lon="11.0998917"><ele>212.0</ele><time>2026-04-03T11:54:34.568Z</time></trkpt><trkpt lat="44.4094783" lon="11.0997333"><ele>212.0</ele><time>2026-04-03T11:54:35.579Z</time></trkpt><trkpt lat="44.409455" lon="11.0995783"><ele>212.0</ele><time>2026-04-03T11:54:36.579Z</time></trkpt><trkpt lat="44.4094233" lon="11.09942"><ele>212.0</ele><time>2026-04-03T11:54:37.574Z</time></trkpt><trkpt lat="44.40939" lon="11.099255"><ele>212.0</ele><time>2026-04-03T11:54:38.577Z</time></trkpt><trkpt lat="44.409355" lon="11.0990867"><ele>211.5</ele><time>2026-04-03T11:54:39.578Z</time></trkpt><trkpt lat="44.40932" lon="11.0989167"><ele>211.0</ele><time>2026-04-03T11:54:40.574Z</time></trkpt><trkpt lat="44.4092783" lon="11.0987517"><ele>210.5</ele><time>2026-04-03T11:54:41.572Z</time></trkpt><trkpt lat="44.4092317" lon="11.0985883"><ele>210.0</ele><time>2026-04-03T11:54:42.577Z</time></trkpt><trkpt lat="44.4091767" lon="11.0984283"><ele>210.0</ele><time>2026-04-03T11:54:43.578Z</time></trkpt><trkpt lat="44.409115" lon="11.0982717"><ele>210.0</ele><time>2026-04-03T11:54:44.577Z</time></trkpt><trkpt lat="44.409045" lon="11.0981217"><ele>210.0</ele><time>2026-04-03T11:54:45.572Z</time></trkpt><trkpt lat="44.4089683" lon="11.0979783"><ele>210.0</ele><time>2026-04-03T11:54:46.57Z</time></trkpt><trkpt lat="44.40889" lon="11.0978367"><ele>210.5</ele><time>2026-04-03T11:54:47.569Z</time></trkpt><trkpt lat="44.4088067" lon="11.0976967"><ele>211.0</ele><time>2026-04-03T11:54:48.569Z</time></trkpt><trkpt lat="44.4087233" lon="11.0975583"><ele>211.5</ele><time>2026-04-03T11:54:49.572Z</time></trkpt><trkpt lat="44.40864" lon="11.0974183"><ele>212.0</ele><time>2026-04-03T11:54:50.571Z</time></trkpt><trkpt lat="44.4085583" lon="11.0972733"><ele>212.0</ele><time>2026-04-03T11:54:51.571Z</time></trkpt><trkpt lat="44.408475" lon="11.0971283"><ele>212.0</ele><time>2026-04-03T11:54:52.571Z</time></trkpt><trkpt lat="44.40839" lon="11.096985"><ele>212.0</ele><time>2026-04-03T11:54:53.572Z</time></trkpt><trkpt lat="44.408305" lon="11.09684"><ele>212.0</ele><time>2026-04-03T11:54:54.575Z</time></trkpt><trkpt lat="44.40822" lon="11.0966917"><ele>211.75</ele><time>2026-04-03T11:54:55.569Z</time></trkpt><trkpt lat="44.4081317" lon="11.09654"><ele>211.5</ele><time>2026-04-03T11:54:56.585Z</time></trkpt><trkpt lat="44.4080417" lon="11.09639"><ele>211.25</ele><time>2026-04-03T11:54:57.57Z</time></trkpt><trkpt lat="44.4079583" lon="11.0962417"><ele>211.0</ele><time>2026-04-03T11:54:58.573Z</time></trkpt><trkpt lat="44.4078767" lon="11.0960983"><ele>211.60000000000002</ele><time>2026-04-03T11:54:59.57Z</time></trkpt><trkpt lat="44.4078" lon="11.095965"><ele>212.2</ele><time>2026-04-03T11:55:00.573Z</time></trkpt><trkpt lat="44.40773" lon="11.09584"><ele>212.79999999999998</ele><time>2026-04-03T11:55:01.577Z</time></trkpt><trkpt lat="44.4076683" lon="11.0957167"><ele>213.39999999999998</ele><time>2026-04-03T11:55:02.573Z</time></trkpt><trkpt lat="44.4076167" lon="11.0955933"><ele>214.0</ele><time>2026-04-03T11:55:03.573Z</time></trkpt><trkpt lat="44.4075783" lon="11.0954733"><ele>214.00000000000003</ele><time>2026-04-03T11:55:04.572Z</time></trkpt><trkpt lat="44.4075567" lon="11.0953617"><ele>214.0</ele><time>2026-04-03T11:55:05.569Z</time></trkpt><trkpt lat="44.4075533" lon="11.09526"><ele>214.0</ele><time>2026-04-03T11:55:06.575Z</time></trkpt><trkpt lat="44.4075583" lon="11.0951667"><ele>214.0</ele><time>2026-04-03T11:55:07.571Z</time></trkpt><trkpt lat="44.4075517" lon="11.09507"><ele>214.0</ele><time>2026-04-03T11:55:08.569Z</time></trkpt><trkpt lat="44.40753" lon="11.094975"><ele>214.00000000000003</ele><time>2026-04-03T11:55:09.573Z</time></trkpt><trkpt lat="44.40749" lon="11.0948867"><ele>214.0</ele><time>2026-04-03T11:55:10.569Z</time></trkpt><trkpt lat="44.4074467" lon="11.094785"><ele>214.5</ele><time>2026-04-03T11:55:11.576Z</time></trkpt><trkpt lat="44.4073483" lon="11.0946383"><ele>215.0</ele><time>2026-04-03T11:55:12.571Z</time></trkpt><trkpt lat="44.4072667" lon="11.09447"><ele>215.5</ele><time>2026-04-03T11:55:13.577Z</time></trkpt><trkpt lat="44.4071933" lon="11.0942867"><ele>216.0</ele><time>2026-04-03T11:55:14.572Z</time></trkpt><trkpt lat="44.4071283" lon="11.094095"><ele>216.75</ele><time>2026-04-03T11:55:15.571Z</time></trkpt><trkpt lat="44.40708" lon="11.0939117"><ele>217.5</ele><time>2026-04-03T11:55:16.572Z</time></trkpt><trkpt lat="44.4070417" lon="11.09374"><ele>218.25</ele><time>2026-04-03T11:55:17.569Z</time></trkpt><trkpt lat="44.4069983" lon="11.0935717"><ele>219.0</ele><time>2026-04-03T11:55:18.578Z</time></trkpt><trkpt lat="44.4069383" lon="11.0933983"><ele>218.5</ele><time>2026-04-03T11:55:19.57Z</time></trkpt><trkpt lat="44.4068617" lon="11.09323"><ele>218.0</ele><time>2026-04-03T11:55:20.571Z</time></trkpt><trkpt lat="44.40678" lon="11.0930683"><ele>217.5</ele><time>2026-04-03T11:55:21.571Z</time></trkpt><trkpt lat="44.4067" lon="11.0929"><ele>217.0</ele><time>2026-04-03T11:55:22.571Z</time></trkpt><trkpt lat="44.40662" lon="11.0927367"><ele>217.0</ele><time>2026-04-03T11:55:23.571Z</time></trkpt><trkpt lat="44.4065517" lon="11.0925817"><ele>217.0</ele><time>2026-04-03T11:55:24.577Z</time></trkpt><trkpt lat="44.406485" lon="11.0924383"><ele>217.0</ele><time>2026-04-03T11:55:25.571Z</time></trkpt><trkpt lat="44.4064183" lon="11.0922967"><ele>217.0</ele><time>2026-04-03T11:55:26.574Z</time></trkpt><trkpt lat="44.4063533" lon="11.0921567"><ele>217.0</ele><time>2026-04-03T11:55:27.572Z</time></trkpt><trkpt lat="44.40629" lon="11.0920217"><ele>217.0</ele><time>2026-04-03T11:55:28.574Z</time></trkpt><trkpt lat="44.4062383" lon="11.091895"><ele>217.0</ele><time>2026-04-03T11:55:29.568Z</time></trkpt><trkpt lat="44.4061983" lon="11.0917783"><ele>217.0</ele><time>2026-04-03T11:55:30.571Z</time></trkpt><trkpt lat="44.4061717" lon="11.0916683"><ele>217.0</ele><time>2026-04-03T11:55:31.568Z</time></trkpt><trkpt lat="44.4061417" lon="11.0915683"><ele>217.0</ele><time>2026-04-03T11:55:32.567Z</time></trkpt><trkpt lat="44.406085" lon="11.09148"><ele>217.0</ele><time>2026-04-03T11:55:33.581Z</time></trkpt><trkpt lat="44.4060067" lon="11.09141"><ele>217.0</ele><time>2026-04-03T11:55:34.572Z</time></trkpt><trkpt lat="44.4059167" lon="11.091345"><ele>217.0</ele><time>2026-04-03T11:55:35.571Z</time></trkpt><trkpt lat="44.405835" lon="11.091265"><ele>217.0</ele><time>2026-04-03T11:55:36.572Z</time></trkpt><trkpt lat="44.40576" lon="11.0911533"><ele>217.0</ele><time>2026-04-03T11:55:37.571Z</time></trkpt><trkpt lat="44.40569" lon="11.0910183"><ele>217.0</ele><time>2026-04-03T11:55:38.575Z</time></trkpt><trkpt lat="44.4056233" lon="11.0908717"><ele>217.0</ele><time>2026-04-03T11:55:39.575Z</time></trkpt><trkpt lat="44.4055533" lon="11.0907167"><ele>217.0</ele><time>2026-04-03T11:55:40.572Z</time></trkpt><trkpt lat="44.4054883" lon="11.0905583"><ele>218.25</ele><time>2026-04-03T11:55:41.572Z</time></trkpt><trkpt lat="44.4054267" lon="11.0904117"><ele>219.5</ele><time>2026-04-03T11:55:42.581Z</time></trkpt><trkpt lat="44.4053667" lon="11.0902683"><ele>220.75</ele><time>2026-04-03T11:55:43.571Z</time></trkpt><trkpt lat="44.4053017" lon="11.09013"><ele>222.0</ele><time>2026-04-03T11:55:44.571Z</time></trkpt><trkpt lat="44.40523" lon="11.0900033"><ele>221.6</ele><time>2026-04-03T11:55:45.571Z</time></trkpt><trkpt lat="44.40516" lon="11.089885"><ele>221.2</ele><time>2026-04-03T11:55:46.569Z</time></trkpt><trkpt lat="44.4050883" lon="11.0897883"><ele>220.8</ele><time>2026-04-03T11:55:47.572Z</time></trkpt><trkpt lat="44.4050167" lon="11.089705"><ele>220.4</ele><time>2026-04-03T11:55:48.57Z</time></trkpt><trkpt lat="44.4049367" lon="11.0896317"><ele>220.0</ele><time>2026-04-03T11:55:49.568Z</time></trkpt><trkpt lat="44.4048483" lon="11.0895717"><ele>220.0</ele><time>2026-04-03T11:55:50.572Z</time></trkpt><trkpt lat="44.4047567" lon="11.089535"><ele>220.0</ele><time>2026-04-03T11:55:51.567Z</time></trkpt><trkpt lat="44.404665" lon="11.0895117"><ele>220.0</ele><time>2026-04-03T11:55:52.572Z</time></trkpt><trkpt lat="44.40458" lon="11.0895083"><ele>220.0</ele><time>2026-04-03T11:55:53.572Z</time></trkpt><trkpt lat="44.4044983" lon="11.0895267"><ele>220.0</ele><time>2026-04-03T11:55:54.575Z</time></trkpt><trkpt lat="44.4044067" lon="11.0895617"><ele>220.4</ele><time>2026-04-03T11:55:55.569Z</time></trkpt><trkpt lat="44.4043083" lon="11.0895933"><ele>220.8</ele><time>2026-04-03T11:55:56.572Z</time></trkpt><trkpt lat="44.4041983" lon="11.089615"><ele>221.2</ele><time>2026-04-03T11:55:57.572Z</time></trkpt><trkpt lat="44.4040817" lon="11.0896117"><ele>221.6</ele><time>2026-04-03T11:55:58.57Z</time></trkpt><trkpt lat="44.4039717" lon="11.0895933"><ele>222.0</ele><time>2026-04-03T11:55:59.572Z</time></trkpt><trkpt lat="44.4038717" lon="11.089575"><ele>222.6</ele><time>2026-04-03T11:56:00.569Z</time></trkpt><trkpt lat="44.4037817" lon="11.08957"><ele>223.2</ele><time>2026-04-03T11:56:01.567Z</time></trkpt><trkpt lat="44.4036967" lon="11.0895833"><ele>223.8</ele><time>2026-04-03T11:56:02.574Z</time></trkpt><trkpt lat="44.4036167" lon="11.0896267"><ele>224.4</ele><time>2026-04-03T11:56:03.567Z</time></trkpt><trkpt lat="44.4035467" lon="11.0897017"><ele>225.0</ele><time>2026-04-03T11:56:04.579Z</time></trkpt><trkpt lat="44.4034683" lon="11.089815"><ele>225.0</ele><time>2026-04-03T11:56:05.57Z</time></trkpt><trkpt lat="44.403385" lon="11.0899217"><ele>225.0</ele><time>2026-04-03T11:56:06.573Z</time></trkpt><trkpt lat="44.4033" lon="11.0900217"><ele>225.0</ele><time>2026-04-03T11:56:07.572Z</time></trkpt><trkpt lat="44.4032067" lon="11.090105"><ele>225.0</ele><time>2026-04-03T11:56:08.572Z</time></trkpt><trkpt lat="44.4031083" lon="11.09018"><ele>225.0</ele><time>2026-04-03T11:56:09.575Z</time></trkpt><trkpt lat="44.4030033" lon="11.0902533"><ele>226.4</ele><time>2026-04-03T11:56:10.572Z</time></trkpt><trkpt lat="44.4029017" lon="11.09032"><ele>227.8</ele><time>2026-04-03T11:56:11.571Z</time></trkpt><trkpt lat="44.4027983" lon="11.0903883"><ele>229.2</ele><time>2026-04-03T11:56:12.571Z</time></trkpt><trkpt lat="44.4026983" lon="11.0904467"><ele>230.6</ele><time>2026-04-03T11:56:13.572Z</time></trkpt><trkpt lat="44.402595" lon="11.0905017"><ele>232.0</ele><time>2026-04-03T11:56:14.575Z</time></trkpt><trkpt lat="44.4024917" lon="11.09054"><ele>232.0</ele><time>2026-04-03T11:56:15.571Z</time></trkpt><trkpt lat="44.4023967" lon="11.0905667"><ele>232.0</ele><time>2026-04-03T11:56:16.573Z</time></trkpt><trkpt lat="44.40231" lon="11.0906267"><ele>232.0</ele><time>2026-04-03T11:56:17.57Z</time></trkpt><trkpt lat="44.4022333" lon="11.0907217"><ele>232.0</ele><time>2026-04-03T11:56:18.573Z</time></trkpt><trkpt lat="44.4021633" lon="11.090845"><ele>232.0</ele><time>2026-04-03T11:56:19.575Z</time></trkpt><trkpt lat="44.4021" lon="11.0909783"><ele>233.6</ele><time>2026-04-03T11:56:20.572Z</time></trkpt><trkpt lat="44.4020367" lon="11.09111"><ele>235.2</ele><time>2026-04-03T11:56:21.574Z</time></trkpt><trkpt lat="44.4019783" lon="11.0912283"><ele>236.8</ele><time>2026-04-03T11:56:22.571Z</time></trkpt><trkpt lat="44.4019267" lon="11.09134"><ele>238.4</ele><time>2026-04-03T11:56:23.572Z</time></trkpt><trkpt lat="44.4018783" lon="11.091435"><ele>240.0</ele><time>2026-04-03T11:56:24.572Z</time></trkpt><trkpt lat="44.40183" lon="11.09152"><ele>240.0</ele><time>2026-04-03T11:56:25.57Z</time></trkpt><trkpt lat="44.401775" lon="11.0915883"><ele>240.0</ele><time>2026-04-03T11:56:26.575Z</time></trkpt><trkpt lat="44.401715" lon="11.091625"><ele>240.0</ele><time>2026-04-03T11:56:27.573Z</time></trkpt><trkpt lat="44.401645" lon="11.0916317"><ele>240.0</ele><time>2026-04-03T11:56:28.569Z</time></trkpt><trkpt lat="44.4015567" lon="11.0915817"><ele>240.0</ele><time>2026-04-03T11:56:29.573Z</time></trkpt><trkpt lat="44.4014633" lon="11.0915317"><ele>240.0</ele><time>2026-04-03T11:56:30.568Z</time></trkpt><trkpt lat="44.4013633" lon="11.0914917"><ele>242.75</ele><time>2026-04-03T11:56:31.573Z</time></trkpt><trkpt lat="44.4012633" lon="11.0914467"><ele>245.5</ele><time>2026-04-03T11:56:32.571Z</time></trkpt><trkpt lat="44.40116" lon="11.0913967"><ele>248.25</ele><time>2026-04-03T11:56:33.571Z</time></trkpt><trkpt lat="44.4010433" lon="11.0913383"><ele>251.0</ele><time>2026-04-03T11:56:34.572Z</time></trkpt><trkpt lat="44.4009333" lon="11.0912617"><ele>251.0</ele><time>2026-04-03T11:56:35.569Z</time></trkpt><trkpt lat="44.4008233" lon="11.0911683"><ele>251.0</ele><time>2026-04-03T11:56:36.573Z</time></trkpt><trkpt lat="44.40071" lon="11.0910733"><ele>251.0</ele><time>2026-04-03T11:56:37.572Z</time></trkpt><trkpt lat="44.4006033" lon="11.0909883"><ele>251.0</ele><time>2026-04-03T11:56:38.57Z</time></trkpt><trkpt lat="44.4005083" lon="11.0909183"><ele>252.8</ele><time>2026-04-03T11:56:39.574Z</time></trkpt><trkpt lat="44.4004067" lon="11.0908717"><ele>254.60000000000002</ele><time>2026-04-03T11:56:40.571Z</time></trkpt><trkpt lat="44.4002967" lon="11.0908683"><ele>256.4</ele><time>2026-04-03T11:56:41.57Z</time></trkpt><trkpt lat="44.4001867" lon="11.0908933"><ele>258.2</ele><time>2026-04-03T11:56:42.568Z</time></trkpt><trkpt lat="44.400075" lon="11.0909467"><ele>260.0</ele><time>2026-04-03T11:56:43.57Z</time></trkpt><trkpt lat="44.3999583" lon="11.0910067"><ele>260.0</ele><time>2026-04-03T11:56:44.578Z</time></trkpt><trkpt lat="44.3998367" lon="11.091055"><ele>260.0</ele><time>2026-04-03T11:56:45.568Z</time></trkpt><trkpt lat="44.3997083" lon="11.09108"><ele>260.0</ele><time>2026-04-03T11:56:46.572Z</time></trkpt><trkpt lat="44.39958" lon="11.0911017"><ele>260.0</ele><time>2026-04-03T11:56:47.569Z</time></trkpt><trkpt lat="44.3994483" lon="11.0911267"><ele>262.75</ele><time>2026-04-03T11:56:48.569Z</time></trkpt><trkpt lat="44.399315" lon="11.091155"><ele>265.5</ele><time>2026-04-03T11:56:49.572Z</time></trkpt><trkpt lat="44.3991817" lon="11.091185"><ele>268.25</ele><time>2026-04-03T11:56:50.576Z</time></trkpt><trkpt lat="44.399045" lon="11.09121"><ele>271.0</ele><time>2026-04-03T11:56:51.571Z</time></trkpt><trkpt lat="44.3989067" lon="11.0912333"><ele>274.75</ele><time>2026-04-03T11:56:52.572Z</time></trkpt><trkpt lat="44.3987683" lon="11.091255"><ele>278.5</ele><time>2026-04-03T11:56:53.572Z</time></trkpt><trkpt lat="44.3986367" lon="11.09128"><ele>282.25</ele><time>2026-04-03T11:56:54.576Z</time></trkpt><trkpt lat="44.3985" lon="11.0913033"><ele>286.0</ele><time>2026-04-03T11:56:55.572Z</time></trkpt><trkpt lat="44.398365" lon="11.091325"><ele>286.0</ele><time>2026-04-03T11:56:56.573Z</time></trkpt><trkpt lat="44.3982367" lon="11.0913417"><ele>286.0</ele><time>2026-04-03T11:56:57.568Z</time></trkpt><trkpt lat="44.3981117" lon="11.0913567"><ele>286.0</ele><time>2026-04-03T11:56:58.57Z</time></trkpt><trkpt lat="44.3979867" lon="11.0913767"><ele>286.0</ele><time>2026-04-03T11:56:59.572Z</time></trkpt><trkpt lat="44.39786" lon="11.0914083"><ele>288.25</ele><time>2026-04-03T11:57:00.572Z</time></trkpt><trkpt lat="44.397735" lon="11.09145"><ele>290.5</ele><time>2026-04-03T11:57:01.573Z</time></trkpt><trkpt lat="44.3976133" lon="11.0914983"><ele>292.75</ele><time>2026-04-03T11:57:02.575Z</time></trkpt><trkpt lat="44.3974917" lon="11.0915533"><ele>295.0</ele><time>2026-04-03T11:57:03.57Z</time></trkpt><trkpt lat="44.39737" lon="11.0916083"><ele>295.0</ele><time>2026-04-03T11:57:04.571Z</time></trkpt><trkpt lat="44.39725" lon="11.0916633"><ele>295.0</ele><time>2026-04-03T11:57:05.572Z</time></trkpt><trkpt lat="44.3971383" lon="11.0917167"><ele>295.0</ele><time>2026-04-03T11:57:06.571Z</time></trkpt><trkpt lat="44.397025" lon="11.0917683"><ele>295.0</ele><time>2026-04-03T11:57:07.571Z</time></trkpt><trkpt lat="44.3969083" lon="11.0918167"><ele>299.75</ele><time>2026-04-03T11:57:08.572Z</time></trkpt><trkpt lat="44.3967917" lon="11.09187"><ele>304.5</ele><time>2026-04-03T11:57:09.573Z</time></trkpt><trkpt lat="44.3966767" lon="11.0919183"><ele>309.25</ele><time>2026-04-03T11:57:10.571Z</time></trkpt><trkpt lat="44.3965667" lon="11.0919667"><ele>314.0</ele><time>2026-04-03T11:57:11.572Z</time></trkpt><trkpt lat="44.3964567" lon="11.0920133"><ele>314.0</ele><time>2026-04-03T11:57:12.567Z</time></trkpt><trkpt lat="44.3963533" lon="11.0920633"><ele>314.0</ele><time>2026-04-03T11:57:13.571Z</time></trkpt><trkpt lat="44.3962583" lon="11.0921167"><ele>314.0</ele><time>2026-04-03T11:57:14.57Z</time></trkpt><trkpt lat="44.3961683" lon="11.0921833"><ele>314.0</ele><time>2026-04-03T11:57:15.571Z</time></trkpt><trkpt lat="44.3960783" lon="11.0922617"><ele>314.0</ele><time>2026-04-03T11:57:16.568Z</time></trkpt><trkpt lat="44.395985" lon="11.0923617"><ele>314.5</ele><time>2026-04-03T11:57:17.572Z</time></trkpt><trkpt lat="44.395895" lon="11.0924867"><ele>315.0</ele><time>2026-04-03T11:57:18.57Z</time></trkpt><trkpt lat="44.3958117" lon="11.0926167"><ele>315.5</ele><time>2026-04-03T11:57:19.574Z</time></trkpt><trkpt lat="44.3957317" lon="11.09274"><ele>316.0</ele><time>2026-04-03T11:57:20.571Z</time></trkpt><trkpt lat="44.3956517" lon="11.0928633"><ele>316.0</ele><time>2026-04-03T11:57:21.578Z</time></trkpt><trkpt lat="44.3955717" lon="11.0929833"><ele>316.0</ele><time>2026-04-03T11:57:22.568Z</time></trkpt><trkpt lat="44.3954917" lon="11.0930883"><ele>316.0</ele><time>2026-04-03T11:57:23.573Z</time></trkpt><trkpt lat="44.3954083" lon="11.0931717"><ele>316.0</ele><time>2026-04-03T11:57:24.572Z</time></trkpt><trkpt lat="44.3953167" lon="11.09323"><ele>316.0</ele><time>2026-04-03T11:57:25.571Z</time></trkpt><trkpt lat="44.3952167" lon="11.09327"><ele>318.75</ele><time>2026-04-03T11:57:26.57Z</time></trkpt><trkpt lat="44.39511" lon="11.0933017"><ele>321.5</ele><time>2026-04-03T11:57:27.578Z</time></trkpt><trkpt lat="44.3949933" lon="11.0933317"><ele>324.25</ele><time>2026-04-03T11:57:28.571Z</time></trkpt><trkpt lat="44.3948733" lon="11.0933583"><ele>327.0</ele><time>2026-04-03T11:57:29.573Z</time></trkpt><trkpt lat="44.394755" lon="11.0933817"><ele>330.25</ele><time>2026-04-03T11:57:30.571Z</time></trkpt><trkpt lat="44.3946233" lon="11.0933967"><ele>333.5</ele><time>2026-04-03T11:57:31.573Z</time></trkpt><trkpt lat="44.39449" lon="11.09341"><ele>336.75</ele><time>2026-04-03T11:57:32.57Z</time></trkpt><trkpt lat="44.3943633" lon="11.0934267"><ele>340.0</ele><time>2026-04-03T11:57:33.57Z</time></trkpt><trkpt lat="44.39425" lon="11.093445"><ele>340.0</ele><time>2026-04-03T11:57:34.575Z</time></trkpt><trkpt lat="44.3941433" lon="11.0934517"><ele>340.0</ele><time>2026-04-03T11:57:35.574Z</time></trkpt><trkpt lat="44.394035" lon="11.0934467"><ele>340.0</ele><time>2026-04-03T11:57:36.571Z</time></trkpt><trkpt lat="44.3939333" lon="11.093425"><ele>340.0</ele><time>2026-04-03T11:57:37.571Z</time></trkpt><trkpt lat="44.3938267" lon="11.0934017"><ele>340.0</ele><time>2026-04-03T11:57:38.575Z</time></trkpt><trkpt lat="44.3937217" lon="11.09338"><ele>342.3333333333333</ele><time>2026-04-03T11:57:39.57Z</time></trkpt><trkpt lat="44.393625" lon="11.093365"><ele>344.66666666666663</ele><time>2026-04-03T11:57:40.577Z</time></trkpt><trkpt lat="44.3935467" lon="11.0933417"><ele>347.0</ele><time>2026-04-03T11:57:41.569Z</time></trkpt><trkpt lat="44.3934783" lon="11.0933083"><ele>349.3333333333333</ele><time>2026-04-03T11:57:42.571Z</time></trkpt><trkpt lat="44.3934267" lon="11.09325"><ele>351.6666666666667</ele><time>2026-04-03T11:57:43.573Z</time></trkpt><trkpt lat="44.3933767" lon="11.09318"><ele>354.0</ele><time>2026-04-03T11:57:44.572Z</time></trkpt><trkpt lat="44.3933633" lon="11.093035"><ele>356.8333333333333</ele><time>2026-04-03T11:57:45.567Z</time></trkpt><trkpt lat="44.3933467" lon="11.0929117"><ele>359.6666666666667</ele><time>2026-04-03T11:57:46.569Z</time></trkpt><trkpt lat="44.3933433" lon="11.0927967"><ele>362.5</ele><time>2026-04-03T11:57:47.571Z</time></trkpt><trkpt lat="44.3933567" lon="11.0926983"><ele>365.33333333333337</ele><time>2026-04-03T11:57:48.573Z</time></trkpt><trkpt lat="44.3933833" lon="11.092615"><ele>368.1666666666667</ele><time>2026-04-03T11:57:49.569Z</time></trkpt><trkpt lat="44.3934233" lon="11.0925367"><ele>371.0</ele><time>2026-04-03T11:57:50.576Z</time></trkpt><trkpt lat="44.39351" lon="11.092465"><ele>370.8</ele><time>2026-04-03T11:57:51.575Z</time></trkpt><trkpt lat="44.3935917" lon="11.0923883"><ele>370.6</ele><time>2026-04-03T11:57:52.578Z</time></trkpt><trkpt lat="44.3936867" lon="11.0923033"><ele>370.4</ele><time>2026-04-03T11:57:53.575Z</time></trkpt><trkpt lat="44.393775" lon="11.092225"><ele>370.2</ele><time>2026-04-03T11:57:54.576Z</time></trkpt><trkpt lat="44.3938583" lon="11.092155"><ele>370.0</ele><time>2026-04-03T11:57:55.573Z</time></trkpt><trkpt lat="44.39394" lon="11.092105"><ele>370.0</ele><time>2026-04-03T11:57:56.571Z</time></trkpt><trkpt lat="44.39401" lon="11.092055"><ele>370.0</ele><time>2026-04-03T11:57:57.572Z</time></trkpt><trkpt lat="44.3940667" lon="11.0920067"><ele>370.0</ele><time>2026-04-03T11:57:58.573Z</time></trkpt><trkpt lat="44.3941517" lon="11.0918817"><ele>370.0</ele><time>2026-04-03T11:58:00.572Z</time></trkpt><trkpt lat="44.394175" lon="11.0917917"><ele>370.0</ele><time>2026-04-03T11:58:01.577Z</time></trkpt><trkpt lat="44.3941783" lon="11.091685"><ele>370.0</ele><time>2026-04-03T11:58:02.571Z</time></trkpt><trkpt lat="44.3941933" lon="11.091595"><ele>371.3333333333333</ele><time>2026-04-03T11:58:03.571Z</time></trkpt><trkpt lat="44.3942067" lon="11.0915083"><ele>372.66666666666663</ele><time>2026-04-03T11:58:04.571Z</time></trkpt><trkpt lat="44.3942167" lon="11.09141"><ele>374.0</ele><time>2026-04-03T11:58:05.576Z</time></trkpt><trkpt lat="44.3942167" lon="11.0913067"><ele>375.3333333333333</ele><time>2026-04-03T11:58:06.571Z</time></trkpt><trkpt lat="44.394205" lon="11.091195"><ele>376.6666666666667</ele><time>2026-04-03T11:58:07.573Z</time></trkpt><trkpt lat="44.3941667" lon="11.0910817"><ele>378.0</ele><time>2026-04-03T11:58:08.574Z</time></trkpt><trkpt lat="44.3941158" lon="11.0909659"><ele>378.0</ele><time>2026-04-03T11:58:09.571Z</time></trkpt><trkpt lat="44.394053" lon="11.0908541"><ele>378.0</ele><time>2026-04-03T11:58:10.576Z</time></trkpt><trkpt lat="44.3939992" lon="11.0907475"><ele>378.0</ele><time>2026-04-03T11:58:11.573Z</time></trkpt><trkpt lat="44.3939583" lon="11.0906423"><ele>378.0</ele><time>2026-04-03T11:58:12.57Z</time></trkpt><trkpt lat="44.3939255" lon="11.0905238"><ele>378.0</ele><time>2026-04-03T11:58:13.573Z</time></trkpt><trkpt lat="44.3939074" lon="11.0903774"><ele>378.75</ele><time>2026-04-03T11:58:14.572Z</time></trkpt><trkpt lat="44.3938905" lon="11.0902179"><ele>379.5</ele><time>2026-04-03T11:58:15.571Z</time></trkpt><trkpt lat="44.3938601" lon="11.0900456"><ele>380.25</ele><time>2026-04-03T11:58:16.575Z</time></trkpt><trkpt lat="44.3938253" lon="11.0898706"><ele>381.0</ele><time>2026-04-03T11:58:17.572Z</time></trkpt><trkpt lat="44.3937876" lon="11.0897008"><ele>382.8</ele><time>2026-04-03T11:58:18.568Z</time></trkpt><trkpt lat="44.3937553" lon="11.0895483"><ele>384.6</ele><time>2026-04-03T11:58:19.572Z</time></trkpt><trkpt lat="44.3937307" lon="11.0894262"><ele>386.4</ele><time>2026-04-03T11:58:20.572Z</time></trkpt><trkpt lat="44.3937025" lon="11.0893231"><ele>388.2</ele><time>2026-04-03T11:58:21.573Z</time></trkpt><trkpt lat="44.3936638" lon="11.0892407"><ele>390.0</ele><time>2026-04-03T11:58:22.571Z</time></trkpt><trkpt lat="44.3935522" lon="11.089246"><ele>390.0</ele><time>2026-04-03T11:58:24.572Z</time></trkpt><trkpt lat="44.3934798" lon="11.0893214"><ele>390.0</ele><time>2026-04-03T11:58:25.571Z</time></trkpt><trkpt lat="44.393411" lon="11.0894218"><ele>390.0</ele><time>2026-04-03T11:58:26.581Z</time></trkpt><trkpt lat="44.3933215" lon="11.0895694"><ele>390.0</ele><time>2026-04-03T11:58:27.582Z</time></trkpt><trkpt lat="44.3932323" lon="11.0897286"><ele>390.0</ele><time>2026-04-03T11:58:28.57Z</time></trkpt><trkpt lat="44.3931471" lon="11.0898851"><ele>390.0</ele><time>2026-04-03T11:58:29.572Z</time></trkpt><trkpt lat="44.3930656" lon="11.0900396"><ele>390.0</ele><time>2026-04-03T11:58:30.575Z</time></trkpt><trkpt lat="44.3929919" lon="11.0901886"><ele>390.0</ele><time>2026-04-03T11:58:31.575Z</time></trkpt><trkpt lat="44.3929258" lon="11.0903338"><ele>391.4</ele><time>2026-04-03T11:58:32.569Z</time></trkpt><trkpt lat="44.3928632" lon="11.0904745"><ele>392.8</ele><time>2026-04-03T11:58:33.572Z</time></trkpt><trkpt lat="44.3928054" lon="11.0905923"><ele>394.20000000000005</ele><time>2026-04-03T11:58:34.566Z</time></trkpt><trkpt lat="44.3927363" lon="11.0906801"><ele>395.6</ele><time>2026-04-03T11:58:35.571Z</time></trkpt><trkpt lat="44.3926615" lon="11.0907559"><ele>397.0</ele><time>2026-04-03T11:58:36.573Z</time></trkpt><trkpt lat="44.3925485" lon="11.0908262"><ele>400.25</ele><time>2026-04-03T11:58:37.574Z</time></trkpt><trkpt lat="44.3924251" lon="11.0908971"><ele>403.5</ele><time>2026-04-03T11:58:38.571Z</time></trkpt><trkpt lat="44.392306" lon="11.0909733"><ele>406.75</ele><time>2026-04-03T11:58:39.573Z</time></trkpt><trkpt lat="44.3921964" lon="11.0910504"><ele>410.0</ele><time>2026-04-03T11:58:40.575Z</time></trkpt><trkpt lat="44.392095" lon="11.0911169"><ele>410.8</ele><time>2026-04-03T11:58:41.568Z</time></trkpt><trkpt lat="44.3919932" lon="11.0911656"><ele>411.6</ele><time>2026-04-03T11:58:42.573Z</time></trkpt><trkpt lat="44.3918915" lon="11.0911762"><ele>412.4</ele><time>2026-04-03T11:58:43.575Z</time></trkpt><trkpt lat="44.3917898" lon="11.091145"><ele>413.2</ele><time>2026-04-03T11:58:44.572Z</time></trkpt><trkpt lat="44.391691" lon="11.0910767"><ele>414.0</ele><time>2026-04-03T11:58:45.57Z</time></trkpt><trkpt lat="44.3916035" lon="11.0909857"><ele>414.0</ele><time>2026-04-03T11:58:46.577Z</time></trkpt><trkpt lat="44.3915252" lon="11.0909072"><ele>414.0</ele><time>2026-04-03T11:58:47.574Z</time></trkpt><trkpt lat="44.3914478" lon="11.0908553"><ele>414.0</ele><time>2026-04-03T11:58:48.573Z</time></trkpt><trkpt lat="44.3913626" lon="11.0908328"><ele>414.0</ele><time>2026-04-03T11:58:49.574Z</time></trkpt><trkpt lat="44.3912776" lon="11.0908353"><ele>414.0</ele><time>2026-04-03T11:58:50.575Z</time></trkpt><trkpt lat="44.3912006" lon="11.0908981"><ele>414.0</ele><time>2026-04-03T11:58:51.571Z</time></trkpt><trkpt lat="44.3911436" lon="11.0909827"><ele>414.6666666666667</ele><time>2026-04-03T11:58:52.566Z</time></trkpt><trkpt lat="44.3911049" lon="11.0910963"><ele>415.33333333333337</ele><time>2026-04-03T11:58:53.57Z</time></trkpt><trkpt lat="44.3910709" lon="11.0912046"><ele>416.0</ele><time>2026-04-03T11:58:54.573Z</time></trkpt><trkpt lat="44.3910296" lon="11.0912973"><ele>416.6666666666667</ele><time>2026-04-03T11:58:55.572Z</time></trkpt><trkpt lat="44.3909754" lon="11.091374"><ele>417.33333333333337</ele><time>2026-04-03T11:58:56.577Z</time></trkpt><trkpt lat="44.3908898" lon="11.0914252"><ele>418.0</ele><time>2026-04-03T11:58:57.57Z</time></trkpt><trkpt lat="44.3907762" lon="11.0914671"><ele>418.0</ele><time>2026-04-03T11:58:58.574Z</time></trkpt><trkpt lat="44.3906518" lon="11.0915171"><ele>418.0</ele><time>2026-04-03T11:58:59.573Z</time></trkpt><trkpt lat="44.3905292" lon="11.0915848"><ele>418.0</ele><time>2026-04-03T11:59:00.579Z</time></trkpt><trkpt lat="44.3904082" lon="11.091673"><ele>418.0</ele><time>2026-04-03T11:59:01.577Z</time></trkpt><trkpt lat="44.3902867" lon="11.0917827"><ele>419.33333333333337</ele><time>2026-04-03T11:59:02.575Z</time></trkpt><trkpt lat="44.390167" lon="11.0919048"><ele>420.66666666666663</ele><time>2026-04-03T11:59:03.568Z</time></trkpt><trkpt lat="44.390045" lon="11.0920379"><ele>422.0</ele><time>2026-04-03T11:59:04.571Z</time></trkpt><trkpt lat="44.3899146" lon="11.0921669"><ele>422.0</ele><time>2026-04-03T11:59:05.568Z</time></trkpt><trkpt lat="44.3897722" lon="11.0922755"><ele>422.0</ele><time>2026-04-03T11:59:06.577Z</time></trkpt><trkpt lat="44.3896198" lon="11.0923603"><ele>422.0</ele><time>2026-04-03T11:59:07.573Z</time></trkpt><trkpt lat="44.3894667" lon="11.0924301"><ele>425.25</ele><time>2026-04-03T11:59:08.572Z</time></trkpt><trkpt lat="44.3893224" lon="11.0924971"><ele>428.5</ele><time>2026-04-03T11:59:09.572Z</time></trkpt><trkpt lat="44.389193" lon="11.0925675"><ele>431.75</ele><time>2026-04-03T11:59:10.571Z</time></trkpt><trkpt lat="44.3890736" lon="11.0926267"><ele>435.0</ele><time>2026-04-03T11:59:11.58Z</time></trkpt><trkpt lat="44.3889611" lon="11.0926735"><ele>435.0</ele><time>2026-04-03T11:59:12.574Z</time></trkpt><trkpt lat="44.3888612" lon="11.0927116"><ele>435.0</ele><time>2026-04-03T11:59:13.574Z</time></trkpt><trkpt lat="44.3887776" lon="11.0927442"><ele>435.0</ele><time>2026-04-03T11:59:14.575Z</time></trkpt><trkpt lat="44.3886988" lon="11.092783"><ele>435.0</ele><time>2026-04-03T11:59:15.567Z</time></trkpt><trkpt lat="44.3886267" lon="11.0928533"><ele>435.0</ele><time>2026-04-03T11:59:16.573Z</time></trkpt><trkpt lat="44.388565" lon="11.0929583"><ele>434.5</ele><time>2026-04-03T11:59:17.571Z</time></trkpt><trkpt lat="44.388495" lon="11.09307"><ele>434.0</ele><time>2026-04-03T11:59:18.567Z</time></trkpt><trkpt lat="44.3883967" lon="11.0931717"><ele>433.5</ele><time>2026-04-03T11:59:19.573Z</time></trkpt><trkpt lat="44.3882817" lon="11.0932633"><ele>433.0</ele><time>2026-04-03T11:59:20.575Z</time></trkpt><trkpt lat="44.38817" lon="11.0933567"><ele>435.2</ele><time>2026-04-03T11:59:21.575Z</time></trkpt><trkpt lat="44.3880633" lon="11.0934383"><ele>437.4</ele><time>2026-04-03T11:59:22.574Z</time></trkpt><trkpt lat="44.3879617" lon="11.093495"><ele>439.59999999999997</ele><time>2026-04-03T11:59:23.573Z</time></trkpt><trkpt lat="44.387865" lon="11.0935417"><ele>441.79999999999995</ele><time>2026-04-03T11:59:24.572Z</time></trkpt><trkpt lat="44.38778" lon="11.0935933"><ele>444.0</ele><time>2026-04-03T11:59:25.573Z</time></trkpt><trkpt lat="44.38771" lon="11.093665"><ele>444.0</ele><time>2026-04-03T11:59:26.574Z</time></trkpt><trkpt lat="44.3876483" lon="11.09376"><ele>444.0</ele><time>2026-04-03T11:59:27.581Z</time></trkpt><trkpt lat="44.3875917" lon="11.0938683"><ele>444.0</ele><time>2026-04-03T11:59:28.572Z</time></trkpt><trkpt lat="44.387535" lon="11.093985"><ele>444.0</ele><time>2026-04-03T11:59:29.574Z</time></trkpt><trkpt lat="44.3874783" lon="11.0941133"><ele>444.0</ele><time>2026-04-03T11:59:30.572Z</time></trkpt><trkpt lat="44.3874283" lon="11.09425"><ele>447.6</ele><time>2026-04-03T11:59:31.57Z</time></trkpt><trkpt lat="44.3873883" lon="11.09439"><ele>451.2</ele><time>2026-04-03T11:59:32.567Z</time></trkpt><trkpt lat="44.3873517" lon="11.094515"><ele>454.80000000000007</ele><time>2026-04-03T11:59:33.571Z</time></trkpt><trkpt lat="44.3873117" lon="11.0946367"><ele>458.40000000000003</ele><time>2026-04-03T11:59:34.575Z</time></trkpt><trkpt lat="44.38725" lon="11.0947333"><ele>462.0</ele><time>2026-04-03T11:59:35.57Z</time></trkpt><trkpt lat="44.3871867" lon="11.0948117"><ele>463.0</ele><time>2026-04-03T11:59:36.568Z</time></trkpt><trkpt lat="44.3871167" lon="11.0948883"><ele>464.00000000000006</ele><time>2026-04-03T11:59:37.571Z</time></trkpt><trkpt lat="44.3870433" lon="11.094965"><ele>465.00000000000006</ele><time>2026-04-03T11:59:38.572Z</time></trkpt><trkpt lat="44.3869533" lon="11.0950433"><ele>466.0</ele><time>2026-04-03T11:59:39.57Z</time></trkpt><trkpt lat="44.38686" lon="11.0951283"><ele>467.0</ele><time>2026-04-03T11:59:40.567Z</time></trkpt><trkpt lat="44.38677" lon="11.0952083"><ele>469.8</ele><time>2026-04-03T11:59:41.571Z</time></trkpt><trkpt lat="44.386675" lon="11.0952817"><ele>472.6</ele><time>2026-04-03T11:59:42.569Z</time></trkpt><trkpt lat="44.38658" lon="11.0953383"><ele>475.40000000000003</ele><time>2026-04-03T11:59:43.573Z</time></trkpt><trkpt lat="44.386485" lon="11.0953667"><ele>478.20000000000005</ele><time>2026-04-03T11:59:44.572Z</time></trkpt><trkpt lat="44.386385" lon="11.0953717"><ele>481.0</ele><time>2026-04-03T11:59:45.569Z</time></trkpt><trkpt lat="44.3862883" lon="11.0953533"><ele>483.83333333333337</ele><time>2026-04-03T11:59:46.576Z</time></trkpt><trkpt lat="44.3861967" lon="11.0953167"><ele>486.6666666666667</ele><time>2026-04-03T11:59:47.571Z</time></trkpt><trkpt lat="44.386115" lon="11.0952767"><ele>489.5</ele><time>2026-04-03T11:59:48.573Z</time></trkpt><trkpt lat="44.386045" lon="11.09523"><ele>492.33333333333337</ele><time>2026-04-03T11:59:49.571Z</time></trkpt><trkpt lat="44.3859967" lon="11.0951733"><ele>495.1666666666667</ele><time>2026-04-03T11:59:50.57Z</time></trkpt><trkpt lat="44.3859567" lon="11.0950783"><ele>498.0</ele><time>2026-04-03T11:59:52.571Z</time></trkpt><trkpt lat="44.385895" lon="11.0951"><ele>498.0</ele><time>2026-04-03T11:59:56.573Z</time></trkpt><trkpt lat="44.385915" lon="11.0952317"><ele>498.0</ele><time>2026-04-03T11:59:58.572Z</time></trkpt><trkpt lat="44.3859383" lon="11.0953417"><ele>498.0</ele><time>2026-04-03T11:59:59.574Z</time></trkpt><trkpt lat="44.3859433" lon="11.0954517"><ele>498.0</ele><time>2026-04-03T12:00:00.569Z</time></trkpt><trkpt lat="44.3859317" lon="11.0955533"><ele>498.0</ele><time>2026-04-03T12:00:01.57Z</time></trkpt><trkpt lat="44.385895" lon="11.0956417"><ele>498.0</ele><time>2026-04-03T12:00:02.57Z</time></trkpt><trkpt lat="44.3858033" lon="11.0956817"><ele>498.0</ele><time>2026-04-03T12:00:03.57Z</time></trkpt><trkpt lat="44.3857083" lon="11.0957083"><ele>497.99999999999994</ele><time>2026-04-03T12:00:04.571Z</time></trkpt><trkpt lat="44.3856233" lon="11.0957617"><ele>497.99999999999994</ele><time>2026-04-03T12:00:05.57Z</time></trkpt><trkpt lat="44.3855433" lon="11.095855"><ele>498.0</ele><time>2026-04-03T12:00:06.574Z</time></trkpt><trkpt lat="44.38547" lon="11.0959667"><ele>498.0</ele><time>2026-04-03T12:00:07.57Z</time></trkpt><trkpt lat="44.3854033" lon="11.0960867"><ele>501.0</ele><time>2026-04-03T12:00:08.577Z</time></trkpt><trkpt lat="44.3853383" lon="11.096205"><ele>503.99999999999994</ele><time>2026-04-03T12:00:09.576Z</time></trkpt><trkpt lat="44.385275" lon="11.0963217"><ele>506.99999999999994</ele><time>2026-04-03T12:00:10.573Z</time></trkpt><trkpt lat="44.3852083" lon="11.09644"><ele>510.0</ele><time>2026-04-03T12:00:11.574Z</time></trkpt><trkpt lat="44.3851383" lon="11.0965633"><ele>513.0</ele><time>2026-04-03T12:00:12.569Z</time></trkpt><trkpt lat="44.385065" lon="11.096675"><ele>515.6</ele><time>2026-04-03T12:00:13.574Z</time></trkpt><trkpt lat="44.3849967" lon="11.0967833"><ele>518.1999999999999</ele><time>2026-04-03T12:00:14.571Z</time></trkpt><trkpt lat="44.384935" lon="11.096885"><ele>520.8</ele><time>2026-04-03T12:00:15.572Z</time></trkpt><trkpt lat="44.3848833" lon="11.0969767"><ele>523.4</ele><time>2026-04-03T12:00:16.57Z</time></trkpt><trkpt lat="44.3848367" lon="11.0970483"><ele>526.0</ele><time>2026-04-03T12:00:17.582Z</time></trkpt><trkpt lat="44.3847567" lon="11.097135"><ele>525.6666666666667</ele><time>2026-04-03T12:00:19.574Z</time></trkpt><trkpt lat="44.3846767" lon="11.09716"><ele>525.3333333333334</ele><time>2026-04-03T12:00:21.572Z</time></trkpt><trkpt lat="44.3845883" lon="11.0971"><ele>525.0</ele><time>2026-04-03T12:00:23.578Z</time></trkpt><trkpt lat="44.38448" lon="11.0970583"><ele>524.6666666666666</ele><time>2026-04-03T12:00:25.574Z</time></trkpt><trkpt lat="44.3844167" lon="11.097075"><ele>524.3333333333333</ele><time>2026-04-03T12:00:26.574Z</time></trkpt><trkpt lat="44.38435" lon="11.0971217"><ele>524.0</ele><time>2026-04-03T12:00:27.568Z</time></trkpt><trkpt lat="44.3842833" lon="11.0971783"><ele>524.0</ele><time>2026-04-03T12:00:28.569Z</time></trkpt><trkpt lat="44.3842167" lon="11.0972567"><ele>524.0</ele><time>2026-04-03T12:00:29.576Z</time></trkpt><trkpt lat="44.3841583" lon="11.09735"><ele>524.0</ele><time>2026-04-03T12:00:30.572Z</time></trkpt><trkpt lat="44.384105" lon="11.0974317"><ele>524.0</ele><time>2026-04-03T12:00:31.573Z</time></trkpt><trkpt lat="44.3840467" lon="11.0975033"><ele>524.0</ele><time>2026-04-03T12:00:32.572Z</time></trkpt><trkpt lat="44.3839833" lon="11.09757"><ele>524.0</ele><time>2026-04-03T12:00:33.573Z</time></trkpt><trkpt lat="44.3839217" lon="11.0976317"><ele>525.1666666666666</ele><time>2026-04-03T12:00:34.568Z</time></trkpt><trkpt lat="44.38387" lon="11.0977033"><ele>526.3333333333333</ele><time>2026-04-03T12:00:35.572Z</time></trkpt><trkpt lat="44.383825" lon="11.09779"><ele>527.5</ele><time>2026-04-03T12:00:36.573Z</time></trkpt><trkpt lat="44.383775" lon="11.0978867"><ele>528.6666666666666</ele><time>2026-04-03T12:00:37.572Z</time></trkpt><trkpt lat="44.383725" lon="11.0979833"><ele>529.8333333333334</ele><time>2026-04-03T12:00:38.572Z</time></trkpt><trkpt lat="44.38367" lon="11.0980833"><ele>531.0</ele><time>2026-04-03T12:00:39.576Z</time></trkpt><trkpt lat="44.3836083" lon="11.0981767"><ele>531.0</ele><time>2026-04-03T12:00:40.575Z</time></trkpt><trkpt lat="44.3835383" lon="11.098255"><ele>531.0</ele><time>2026-04-03T12:00:41.571Z</time></trkpt><trkpt lat="44.3834533" lon="11.098305"><ele>531.0</ele><time>2026-04-03T12:00:42.572Z</time></trkpt><trkpt lat="44.38336" lon="11.098325"><ele>531.0</ele><time>2026-04-03T12:00:43.573Z</time></trkpt><trkpt lat="44.38325" lon="11.0983067"><ele>531.0</ele><time>2026-04-03T12:00:44.574Z</time></trkpt><trkpt lat="44.38313" lon="11.0982483"><ele>531.0</ele><time>2026-04-03T12:00:45.571Z</time></trkpt><trkpt lat="44.3830283" lon="11.0981767"><ele>531.0</ele><time>2026-04-03T12:00:46.575Z</time></trkpt><trkpt lat="44.3829333" lon="11.0980867"><ele>531.0</ele><time>2026-04-03T12:00:47.57Z</time></trkpt><trkpt lat="44.3828383" lon="11.0979817"><ele>531.0</ele><time>2026-04-03T12:00:48.572Z</time></trkpt><trkpt lat="44.382745" lon="11.0978733"><ele>531.5</ele><time>2026-04-03T12:00:49.572Z</time></trkpt><trkpt lat="44.3826483" lon="11.0977767"><ele>532.0</ele><time>2026-04-03T12:00:50.576Z</time></trkpt><trkpt lat="44.38255" lon="11.0976867"><ele>532.5</ele><time>2026-04-03T12:00:51.571Z</time></trkpt><trkpt lat="44.3824467" lon="11.0976033"><ele>533.0</ele><time>2026-04-03T12:00:52.575Z</time></trkpt><trkpt lat="44.38234" lon="11.09753"><ele>533.0</ele><time>2026-04-03T12:00:53.573Z</time></trkpt><trkpt lat="44.3822383" lon="11.09746"><ele>533.0</ele><time>2026-04-03T12:00:54.569Z</time></trkpt><trkpt lat="44.3821317" lon="11.0973783"><ele>533.0</ele><time>2026-04-03T12:00:55.569Z</time></trkpt><trkpt lat="44.3820333" lon="11.0972867"><ele>533.0</ele><time>2026-04-03T12:00:56.57Z</time></trkpt><trkpt lat="44.38194" lon="11.097195"><ele>532.0</ele><time>2026-04-03T12:00:57.568Z</time></trkpt><trkpt lat="44.3818467" lon="11.0971117"><ele>531.0</ele><time>2026-04-03T12:00:58.57Z</time></trkpt><trkpt lat="44.3817567" lon="11.0970333"><ele>530.0</ele><time>2026-04-03T12:00:59.566Z</time></trkpt><trkpt lat="44.3816733" lon="11.0969633"><ele>529.0</ele><time>2026-04-03T12:01:00.57Z</time></trkpt><trkpt lat="44.3816017" lon="11.09689"><ele>528.0</ele><time>2026-04-03T12:01:01.577Z</time></trkpt><trkpt lat="44.381535" lon="11.0968"><ele>528.0</ele><time>2026-04-03T12:01:02.566Z</time></trkpt><trkpt lat="44.3814867" lon="11.0966717"><ele>528.0</ele><time>2026-04-03T12:01:03.573Z</time></trkpt><trkpt lat="44.3814367" lon="11.0965267"><ele>528.0</ele><time>2026-04-03T12:01:04.571Z</time></trkpt><trkpt lat="44.3813967" lon="11.096375"><ele>528.0</ele><time>2026-04-03T12:01:05.569Z</time></trkpt><trkpt lat="44.3813583" lon="11.0962233"><ele>528.0</ele><time>2026-04-03T12:01:06.57Z</time></trkpt><trkpt lat="44.3813233" lon="11.09607"><ele>526.5</ele><time>2026-04-03T12:01:07.574Z</time></trkpt><trkpt lat="44.3812883" lon="11.0959117"><ele>525.0</ele><time>2026-04-03T12:01:08.573Z</time></trkpt><trkpt lat="44.38125" lon="11.0957483"><ele>523.5</ele><time>2026-04-03T12:01:09.567Z</time></trkpt><trkpt lat="44.3812117" lon="11.0955833"><ele>522.0</ele><time>2026-04-03T12:01:10.572Z</time></trkpt><trkpt lat="44.3811633" lon="11.0954267"><ele>522.0</ele><time>2026-04-03T12:01:11.568Z</time></trkpt><trkpt lat="44.3811017" lon="11.0952833"><ele>522.0</ele><time>2026-04-03T12:01:12.575Z</time></trkpt><trkpt lat="44.381025" lon="11.0951467"><ele>522.0</ele><time>2026-04-03T12:01:13.571Z</time></trkpt><trkpt lat="44.38095" lon="11.0950083"><ele>522.0</ele><time>2026-04-03T12:01:14.574Z</time></trkpt><trkpt lat="44.3808783" lon="11.0948617"><ele>518.75</ele><time>2026-04-03T12:01:15.572Z</time></trkpt><trkpt lat="44.3807983" lon="11.09472"><ele>515.5</ele><time>2026-04-03T12:01:16.569Z</time></trkpt><trkpt lat="44.3807267" lon="11.0945817"><ele>512.25</ele><time>2026-04-03T12:01:17.57Z</time></trkpt><trkpt lat="44.38067" lon="11.0944417"><ele>509.0</ele><time>2026-04-03T12:01:18.569Z</time></trkpt><trkpt lat="44.3806333" lon="11.0942917"><ele>509.0</ele><time>2026-04-03T12:01:19.573Z</time></trkpt><trkpt lat="44.380615" lon="11.0941267"><ele>509.0</ele><time>2026-04-03T12:01:20.574Z</time></trkpt><trkpt lat="44.3806067" lon="11.0939767"><ele>509.0</ele><time>2026-04-03T12:01:21.574Z</time></trkpt><trkpt lat="44.3805933" lon="11.0938417"><ele>509.0</ele><time>2026-04-03T12:01:22.567Z</time></trkpt><trkpt lat="44.3805633" lon="11.0937367"><ele>509.0</ele><time>2026-04-03T12:01:23.568Z</time></trkpt><trkpt lat="44.3805133" lon="11.0936533"><ele>509.2</ele><time>2026-04-03T12:01:24.573Z</time></trkpt><trkpt lat="44.3804333" lon="11.09359"><ele>509.4</ele><time>2026-04-03T12:01:25.569Z</time></trkpt><trkpt lat="44.3803217" lon="11.093545"><ele>509.6</ele><time>2026-04-03T12:01:26.577Z</time></trkpt><trkpt lat="44.38021" lon="11.0935333"><ele>509.8</ele><time>2026-04-03T12:01:27.567Z</time></trkpt><trkpt lat="44.3801083" lon="11.093555"><ele>510.0</ele><time>2026-04-03T12:01:28.57Z</time></trkpt><trkpt lat="44.3800067" lon="11.09361"><ele>510.0</ele><time>2026-04-03T12:01:29.57Z</time></trkpt><trkpt lat="44.379905" lon="11.0936783"><ele>510.0</ele><time>2026-04-03T12:01:30.569Z</time></trkpt><trkpt lat="44.3798067" lon="11.0937367"><ele>510.0</ele><time>2026-04-03T12:01:31.575Z</time></trkpt><trkpt lat="44.3797133" lon="11.0937683"><ele>510.0</ele><time>2026-04-03T12:01:32.573Z</time></trkpt><trkpt lat="44.3796183" lon="11.0937733"><ele>510.0</ele><time>2026-04-03T12:01:33.571Z</time></trkpt><trkpt lat="44.379525" lon="11.0937567"><ele>514.2</ele><time>2026-04-03T12:01:34.573Z</time></trkpt><trkpt lat="44.3794417" lon="11.0937317"><ele>518.4</ele><time>2026-04-03T12:01:35.573Z</time></trkpt><trkpt lat="44.379375" lon="11.09369"><ele>522.6</ele><time>2026-04-03T12:01:36.571Z</time></trkpt><trkpt lat="44.3793267" lon="11.0935783"><ele>526.8</ele><time>2026-04-03T12:01:37.574Z</time></trkpt><trkpt lat="44.3792733" lon="11.093455"><ele>531.0</ele><time>2026-04-03T12:01:38.573Z</time></trkpt><trkpt lat="44.379225" lon="11.0933233"><ele>525.75</ele><time>2026-04-03T12:01:39.573Z</time></trkpt><trkpt lat="44.3791567" lon="11.0932067"><ele>520.5</ele><time>2026-04-03T12:01:40.573Z</time></trkpt><trkpt lat="44.3790767" lon="11.0931"><ele>515.25</ele><time>2026-04-03T12:01:41.571Z</time></trkpt><trkpt lat="44.3789733" lon="11.092995"><ele>510.0</ele><time>2026-04-03T12:01:42.567Z</time></trkpt><trkpt lat="44.3788717" lon="11.0929033"><ele>513.4</ele><time>2026-04-03T12:01:43.575Z</time></trkpt><trkpt lat="44.3787767" lon="11.0928217"><ele>516.8</ele><time>2026-04-03T12:01:44.567Z</time></trkpt><trkpt lat="44.3786967" lon="11.0927283"><ele>520.2</ele><time>2026-04-03T12:01:45.572Z</time></trkpt><trkpt lat="44.3786233" lon="11.0926433"><ele>523.6</ele><time>2026-04-03T12:01:46.568Z</time></trkpt><trkpt lat="44.3785567" lon="11.0925683"><ele>527.0</ele><time>2026-04-03T12:01:47.574Z</time></trkpt><trkpt lat="44.3784933" lon="11.092495"><ele>527.0</ele><time>2026-04-03T12:01:48.567Z</time></trkpt><trkpt lat="44.3784417" lon="11.0924317"><ele>527.0</ele><time>2026-04-03T12:01:49.574Z</time></trkpt><trkpt lat="44.378385" lon="11.0923867"><ele>527.0</ele><time>2026-04-03T12:01:50.574Z</time></trkpt><trkpt lat="44.3782583" lon="11.0923733"><ele>527.0</ele><time>2026-04-03T12:01:52.573Z</time></trkpt><trkpt lat="44.3781917" lon="11.0924133"><ele>527.0</ele><time>2026-04-03T12:01:53.567Z</time></trkpt><trkpt lat="44.37815" lon="11.09253"><ele>527.0</ele><time>2026-04-03T12:01:54.571Z</time></trkpt><trkpt lat="44.3780983" lon="11.0926367"><ele>527.0</ele><time>2026-04-03T12:01:55.574Z</time></trkpt><trkpt lat="44.3780317" lon="11.0927417"><ele>527.0</ele><time>2026-04-03T12:01:56.579Z</time></trkpt><trkpt lat="44.3779667" lon="11.0928367"><ele>527.0</ele><time>2026-04-03T12:01:57.575Z</time></trkpt><trkpt lat="44.3778933" lon="11.0929067"><ele>527.0</ele><time>2026-04-03T12:01:58.569Z</time></trkpt><trkpt lat="44.3778183" lon="11.0929567"><ele>527.0</ele><time>2026-04-03T12:01:59.57Z</time></trkpt><trkpt lat="44.3777383" lon="11.0929733"><ele>527.0</ele><time>2026-04-03T12:02:00.572Z</time></trkpt><trkpt lat="44.3776533" lon="11.0929783"><ele>525.8000000000001</ele><time>2026-04-03T12:02:01.568Z</time></trkpt><trkpt lat="44.3775633" lon="11.0929567"><ele>524.6</ele><time>2026-04-03T12:02:02.572Z</time></trkpt><trkpt lat="44.3774717" lon="11.0929167"><ele>523.4000000000001</ele><time>2026-04-03T12:02:03.571Z</time></trkpt><trkpt lat="44.3773783" lon="11.09286"><ele>522.2</ele><time>2026-04-03T12:02:04.574Z</time></trkpt><trkpt lat="44.3772883" lon="11.092805"><ele>521.0</ele><time>2026-04-03T12:02:05.575Z</time></trkpt><trkpt lat="44.3771867" lon="11.092745"><ele>521.8</ele><time>2026-04-03T12:02:06.575Z</time></trkpt><trkpt lat="44.3770817" lon="11.0926867"><ele>522.6</ele><time>2026-04-03T12:02:07.576Z</time></trkpt><trkpt lat="44.3769783" lon="11.092635"><ele>523.4</ele><time>2026-04-03T12:02:08.567Z</time></trkpt><trkpt lat="44.3768867" lon="11.09259"><ele>524.2</ele><time>2026-04-03T12:02:09.575Z</time></trkpt><trkpt lat="44.376815" lon="11.092545"><ele>525.0</ele><time>2026-04-03T12:02:10.57Z</time></trkpt><trkpt lat="44.3767517" lon="11.0924883"><ele>524.4285714285714</ele><time>2026-04-03T12:02:11.583Z</time></trkpt><trkpt lat="44.37671" lon="11.0924167"><ele>523.8571428571429</ele><time>2026-04-03T12:02:12.575Z</time></trkpt><trkpt lat="44.376695" lon="11.092325"><ele>523.2857142857142</ele><time>2026-04-03T12:02:13.569Z</time></trkpt><trkpt lat="44.37668" lon="11.09223"><ele>522.7142857142858</ele><time>2026-04-03T12:02:14.571Z</time></trkpt><trkpt lat="44.3766867" lon="11.0921267"><ele>522.1428571428571</ele><time>2026-04-03T12:02:15.573Z</time></trkpt><trkpt lat="44.3766967" lon="11.0920217"><ele>521.5714285714286</ele><time>2026-04-03T12:02:16.571Z</time></trkpt><trkpt lat="44.37669" lon="11.0919217"><ele>521.0</ele><time>2026-04-03T12:02:17.578Z</time></trkpt><trkpt lat="44.37668" lon="11.09182"><ele>521.0</ele><time>2026-04-03T12:02:18.578Z</time></trkpt><trkpt lat="44.3766583" lon="11.091715"><ele>521.0</ele><time>2026-04-03T12:02:19.572Z</time></trkpt><trkpt lat="44.376625" lon="11.0916033"><ele>521.0</ele><time>2026-04-03T12:02:20.573Z</time></trkpt><trkpt lat="44.3765917" lon="11.09148"><ele>521.0</ele><time>2026-04-03T12:02:21.575Z</time></trkpt><trkpt lat="44.3765433" lon="11.09133"><ele>521.0</ele><time>2026-04-03T12:02:22.575Z</time></trkpt><trkpt lat="44.3764967" lon="11.09118"><ele>521.0</ele><time>2026-04-03T12:02:23.572Z</time></trkpt><trkpt lat="44.37647" lon="11.09103"><ele>521.0</ele><time>2026-04-03T12:02:24.573Z</time></trkpt><trkpt lat="44.3764667" lon="11.0908883"><ele>521.0</ele><time>2026-04-03T12:02:25.57Z</time></trkpt><trkpt lat="44.3764667" lon="11.0907383"><ele>521.0</ele><time>2026-04-03T12:02:26.581Z</time></trkpt><trkpt lat="44.37647" lon="11.0905883"><ele>521.0</ele><time>2026-04-03T12:02:27.571Z</time></trkpt><trkpt lat="44.376475" lon="11.09045"><ele>521.0</ele><time>2026-04-03T12:02:28.569Z</time></trkpt><trkpt lat="44.3764817" lon="11.0903033"><ele>521.0</ele><time>2026-04-03T12:02:29.569Z</time></trkpt><trkpt lat="44.376485" lon="11.090165"><ele>521.0</ele><time>2026-04-03T12:02:30.576Z</time></trkpt><trkpt lat="44.3764783" lon="11.0900333"><ele>521.0</ele><time>2026-04-03T12:02:31.567Z</time></trkpt><trkpt lat="44.37646" lon="11.0899117"><ele>521.0</ele><time>2026-04-03T12:02:32.573Z</time></trkpt><trkpt lat="44.37642" lon="11.08981"><ele>519.8</ele><time>2026-04-03T12:02:33.572Z</time></trkpt><trkpt lat="44.37637" lon="11.0897117"><ele>518.6</ele><time>2026-04-03T12:02:34.58Z</time></trkpt><trkpt lat="44.3762883" lon="11.0896217"><ele>517.4</ele><time>2026-04-03T12:02:35.573Z</time></trkpt><trkpt lat="44.3761883" lon="11.089545"><ele>516.2</ele><time>2026-04-03T12:02:36.578Z</time></trkpt><trkpt lat="44.376105" lon="11.0894667"><ele>515.0</ele><time>2026-04-03T12:02:37.569Z</time></trkpt><trkpt lat="44.376025" lon="11.089405"><ele>518.3333333333333</ele><time>2026-04-03T12:02:38.57Z</time></trkpt><trkpt lat="44.3759483" lon="11.0893517"><ele>521.6666666666666</ele><time>2026-04-03T12:02:39.57Z</time></trkpt><trkpt lat="44.3758817" lon="11.089325"><ele>525.0</ele><time>2026-04-03T12:02:40.576Z</time></trkpt><trkpt lat="44.3757767" lon="11.0892783"><ele>528.3333333333334</ele><time>2026-04-03T12:02:42.572Z</time></trkpt><trkpt lat="44.3757033" lon="11.0892733"><ele>531.6666666666667</ele><time>2026-04-03T12:02:44.574Z</time></trkpt><trkpt lat="44.375625" lon="11.0893033"><ele>535.0</ele><time>2026-04-03T12:02:46.572Z</time></trkpt><trkpt lat="44.3755583" lon="11.0893183"><ele>537.0</ele><time>2026-04-03T12:02:48.573Z</time></trkpt><trkpt lat="44.3754867" lon="11.08921"><ele>539.0</ele><time>2026-04-03T12:02:51.576Z</time></trkpt><trkpt lat="44.3754233" lon="11.0890867"><ele>541.0</ele><time>2026-04-03T12:02:53.573Z</time></trkpt><trkpt lat="44.37536" lon="11.08903"><ele>543.0</ele><time>2026-04-03T12:02:55.57Z</time></trkpt><trkpt lat="44.3752883" lon="11.08897"><ele>545.0</ele><time>2026-04-03T12:02:57.573Z</time></trkpt><trkpt lat="44.3751783" lon="11.0888767"><ele>545.0</ele><time>2026-04-03T12:02:59.572Z</time></trkpt><trkpt lat="44.3751067" lon="11.08882"><ele>545.0</ele><time>2026-04-03T12:03:00.568Z</time></trkpt><trkpt lat="44.3750233" lon="11.0887667"><ele>545.0</ele><time>2026-04-03T12:03:01.568Z</time></trkpt><trkpt lat="44.3749433" lon="11.0887183"><ele>545.0</ele><time>2026-04-03T12:03:02.57Z</time></trkpt><trkpt lat="44.3748617" lon="11.0886567"><ele>545.0</ele><time>2026-04-03T12:03:03.574Z</time></trkpt><trkpt lat="44.374785" lon="11.088585"><ele>545.0</ele><time>2026-04-03T12:03:04.575Z</time></trkpt><trkpt lat="44.374715" lon="11.08851"><ele>549.1666666666666</ele><time>2026-04-03T12:03:05.569Z</time></trkpt><trkpt lat="44.3746583" lon="11.0884167"><ele>553.3333333333333</ele><time>2026-04-03T12:03:06.568Z</time></trkpt><trkpt lat="44.3746083" lon="11.088335"><ele>557.5</ele><time>2026-04-03T12:03:07.571Z</time></trkpt><trkpt lat="44.3745583" lon="11.0882633"><ele>561.6666666666666</ele><time>2026-04-03T12:03:08.569Z</time></trkpt><trkpt lat="44.374515" lon="11.0881967"><ele>565.8333333333334</ele><time>2026-04-03T12:03:09.575Z</time></trkpt><trkpt lat="44.374445" lon="11.0880833"><ele>570.0</ele><time>2026-04-03T12:03:11.573Z</time></trkpt><trkpt lat="44.3744083" lon="11.0879517"><ele>570.0</ele><time>2026-04-03T12:03:13.576Z</time></trkpt><trkpt lat="44.3743767" lon="11.0878083"><ele>570.0</ele><time>2026-04-03T12:03:15.57Z</time></trkpt><trkpt lat="44.3743433" lon="11.0876433"><ele>570.0</ele><time>2026-04-03T12:03:17.572Z</time></trkpt><trkpt lat="44.3743217" lon="11.08756"><ele>570.0</ele><time>2026-04-03T12:03:18.574Z</time></trkpt><trkpt lat="44.3742783" lon="11.0873983"><ele>570.0</ele><time>2026-04-03T12:03:20.579Z</time></trkpt><trkpt lat="44.3742167" lon="11.0872483"><ele>569.5714285714286</ele><time>2026-04-03T12:03:22.572Z</time></trkpt><trkpt lat="44.3741733" lon="11.08718"><ele>569.1428571428571</ele><time>2026-04-03T12:03:23.571Z</time></trkpt><trkpt lat="44.3741217" lon="11.08711"><ele>568.7142857142858</ele><time>2026-04-03T12:03:24.574Z</time></trkpt><trkpt lat="44.3740667" lon="11.08704"><ele>568.2857142857142</ele><time>2026-04-03T12:03:25.575Z</time></trkpt><trkpt lat="44.37402" lon="11.0869667"><ele>567.8571428571429</ele><time>2026-04-03T12:03:26.575Z</time></trkpt><trkpt lat="44.3739717" lon="11.0868917"><ele>567.4285714285714</ele><time>2026-04-03T12:03:27.571Z</time></trkpt><trkpt lat="44.3739367" lon="11.0867983"><ele>567.0</ele><time>2026-04-03T12:03:28.569Z</time></trkpt><trkpt lat="44.3739059" lon="11.0867072"><ele>567.0</ele><time>2026-04-03T12:03:29.569Z</time></trkpt><trkpt lat="44.3738827" lon="11.0866232"><ele>567.0</ele><time>2026-04-03T12:03:30.569Z</time></trkpt><trkpt lat="44.3738685" lon="11.086465"><ele>567.0</ele><time>2026-04-03T12:03:32.57Z</time></trkpt><trkpt lat="44.3738634" lon="11.0863737"><ele>567.0</ele><time>2026-04-03T12:03:33.574Z</time></trkpt><trkpt lat="44.3738546" lon="11.0862702"><ele>567.0</ele><time>2026-04-03T12:03:34.574Z</time></trkpt><trkpt lat="44.373836" lon="11.0861635"><ele>567.0</ele><time>2026-04-03T12:03:35.574Z</time></trkpt><trkpt lat="44.3738084" lon="11.0860614"><ele>569.8333333333334</ele><time>2026-04-03T12:03:36.57Z</time></trkpt><trkpt lat="44.3737735" lon="11.0859612"><ele>572.6666666666666</ele><time>2026-04-03T12:03:37.568Z</time></trkpt><trkpt lat="44.3737346" lon="11.0858662"><ele>575.5</ele><time>2026-04-03T12:03:38.568Z</time></trkpt><trkpt lat="44.3736979" lon="11.0857763"><ele>578.3333333333333</ele><time>2026-04-03T12:03:39.572Z</time></trkpt><trkpt lat="44.3736603" lon="11.0856914"><ele>581.1666666666666</ele><time>2026-04-03T12:03:40.567Z</time></trkpt><trkpt lat="44.3736245" lon="11.0856111"><ele>584.0</ele><time>2026-04-03T12:03:41.578Z</time></trkpt><trkpt lat="44.373558" lon="11.0854539"><ele>584.0</ele><time>2026-04-03T12:03:43.569Z</time></trkpt><trkpt lat="44.3735239" lon="11.0853592"><ele>584.0</ele><time>2026-04-03T12:03:44.575Z</time></trkpt><trkpt lat="44.3734958" lon="11.0852594"><ele>584.0</ele><time>2026-04-03T12:03:45.57Z</time></trkpt><trkpt lat="44.3734812" lon="11.085161"><ele>584.0</ele><time>2026-04-03T12:03:46.569Z</time></trkpt><trkpt lat="44.3734791" lon="11.0850645"><ele>584.0</ele><time>2026-04-03T12:03:47.574Z</time></trkpt><trkpt lat="44.3734927" lon="11.0849656"><ele>584.0</ele><time>2026-04-03T12:03:48.575Z</time></trkpt><trkpt lat="44.373512" lon="11.0848752"><ele>584.0</ele><time>2026-04-03T12:03:49.568Z</time></trkpt><trkpt lat="44.3735364" lon="11.0847582"><ele>584.0</ele><time>2026-04-03T12:03:51.571Z</time></trkpt><trkpt lat="44.37349" lon="11.0848317"><ele>584.0</ele><time>2026-04-03T12:04:10.573Z</time></trkpt><trkpt lat="44.3733883" lon="11.0849417"><ele>584.0</ele><time>2026-04-03T12:04:12.57Z</time></trkpt><trkpt lat="44.373335" lon="11.0850283"><ele>584.0</ele><time>2026-04-03T12:04:13.57Z</time></trkpt><trkpt lat="44.37329" lon="11.085125"><ele>584.0</ele><time>2026-04-03T12:04:14.572Z</time></trkpt><trkpt lat="44.3732433" lon="11.085225"><ele>584.0</ele><time>2026-04-03T12:04:15.569Z</time></trkpt><trkpt lat="44.3732033" lon="11.0853267"><ele>584.0</ele><time>2026-04-03T12:04:16.57Z</time></trkpt><trkpt lat="44.3731617" lon="11.08543"><ele>584.0</ele><time>2026-04-03T12:04:17.57Z</time></trkpt><trkpt lat="44.37312" lon="11.0855417"><ele>584.0</ele><time>2026-04-03T12:04:18.577Z</time></trkpt><trkpt lat="44.373085" lon="11.085645"><ele>584.0</ele><time>2026-04-03T12:04:19.567Z</time></trkpt><trkpt lat="44.3730583" lon="11.085745"><ele>584.0</ele><time>2026-04-03T12:04:20.571Z</time></trkpt><trkpt lat="44.37304" lon="11.0858467"><ele>584.0</ele><time>2026-04-03T12:04:21.568Z</time></trkpt><trkpt lat="44.3730283" lon="11.0859517"><ele>584.6666666666666</ele><time>2026-04-03T12:04:22.57Z</time></trkpt><trkpt lat="44.3730233" lon="11.0860617"><ele>585.3333333333333</ele><time>2026-04-03T12:04:23.576Z</time></trkpt><trkpt lat="44.3730267" lon="11.0861733"><ele>586.0</ele><time>2026-04-03T12:04:24.575Z</time></trkpt><trkpt lat="44.3730283" lon="11.086285"><ele>586.6666666666666</ele><time>2026-04-03T12:04:25.574Z</time></trkpt><trkpt lat="44.373025" lon="11.0863983"><ele>587.3333333333334</ele><time>2026-04-03T12:04:26.575Z</time></trkpt><trkpt lat="44.3730167" lon="11.0865167"><ele>588.0</ele><time>2026-04-03T12:04:27.569Z</time></trkpt><trkpt lat="44.37301" lon="11.086645"><ele>586.1999999999999</ele><time>2026-04-03T12:04:28.568Z</time></trkpt><trkpt lat="44.3730067" lon="11.0867817"><ele>584.4</ele><time>2026-04-03T12:04:29.575Z</time></trkpt><trkpt lat="44.373005" lon="11.08692"><ele>582.5999999999999</ele><time>2026-04-03T12:04:30.567Z</time></trkpt><trkpt lat="44.3730033" lon="11.0870567"><ele>580.8</ele><time>2026-04-03T12:04:31.571Z</time></trkpt><trkpt lat="44.3729983" lon="11.0872"><ele>579.0</ele><time>2026-04-03T12:04:32.571Z</time></trkpt><trkpt lat="44.3729883" lon="11.087345"><ele>581.25</ele><time>2026-04-03T12:04:33.573Z</time></trkpt><trkpt lat="44.3729683" lon="11.0874867"><ele>583.5</ele><time>2026-04-03T12:04:34.571Z</time></trkpt><trkpt lat="44.37293" lon="11.0876267"><ele>585.75</ele><time>2026-04-03T12:04:35.568Z</time></trkpt><trkpt lat="44.3728717" lon="11.0877767"><ele>588.0</ele><time>2026-04-03T12:04:36.576Z</time></trkpt><trkpt lat="44.3728083" lon="11.0879217"><ele>588.0</ele><time>2026-04-03T12:04:37.571Z</time></trkpt><trkpt lat="44.37275" lon="11.0880617"><ele>588.0</ele><time>2026-04-03T12:04:38.574Z</time></trkpt><trkpt lat="44.372705" lon="11.0882083"><ele>588.0</ele><time>2026-04-03T12:04:39.577Z</time></trkpt><trkpt lat="44.372665" lon="11.0883517"><ele>588.0</ele><time>2026-04-03T12:04:40.57Z</time></trkpt><trkpt lat="44.3726183" lon="11.08849"><ele>588.0</ele><time>2026-04-03T12:04:41.576Z</time></trkpt><trkpt lat="44.3725667" lon="11.08863"><ele>590.1999999999999</ele><time>2026-04-03T12:04:42.571Z</time></trkpt><trkpt lat="44.372515" lon="11.088765"><ele>592.4</ele><time>2026-04-03T12:04:43.576Z</time></trkpt><trkpt lat="44.37247" lon="11.08889"><ele>594.5999999999999</ele><time>2026-04-03T12:04:44.58Z</time></trkpt><trkpt lat="44.37243" lon="11.089"><ele>596.8</ele><time>2026-04-03T12:04:45.568Z</time></trkpt><trkpt lat="44.37239" lon="11.089105"><ele>599.0</ele><time>2026-04-03T12:04:46.575Z</time></trkpt><trkpt lat="44.3723583" lon="11.0892117"><ele>600.2857142857143</ele><time>2026-04-03T12:04:47.576Z</time></trkpt><trkpt lat="44.3723367" lon="11.0893183"><ele>601.5714285714286</ele><time>2026-04-03T12:04:48.578Z</time></trkpt><trkpt lat="44.37233" lon="11.0894233"><ele>602.8571428571429</ele><time>2026-04-03T12:04:49.578Z</time></trkpt><trkpt lat="44.3723317" lon="11.0895217"><ele>604.1428571428571</ele><time>2026-04-03T12:04:50.58Z</time></trkpt><trkpt lat="44.372335" lon="11.0896133"><ele>605.4285714285714</ele><time>2026-04-03T12:04:51.57Z</time></trkpt><trkpt lat="44.3723367" lon="11.08971"><ele>606.7142857142857</ele><time>2026-04-03T12:04:52.575Z</time></trkpt><trkpt lat="44.37233" lon="11.08981"><ele>608.0</ele><time>2026-04-03T12:04:53.578Z</time></trkpt><trkpt lat="44.3723117" lon="11.0899167"><ele>610.0</ele><time>2026-04-03T12:04:54.571Z</time></trkpt><trkpt lat="44.3722883" lon="11.0900283"><ele>612.0</ele><time>2026-04-03T12:04:55.575Z</time></trkpt><trkpt lat="44.3722683" lon="11.09015"><ele>614.0</ele><time>2026-04-03T12:04:56.574Z</time></trkpt><trkpt lat="44.3722517" lon="11.0902817"><ele>616.0</ele><time>2026-04-03T12:04:57.57Z</time></trkpt><trkpt lat="44.3722333" lon="11.09041"><ele>618.0</ele><time>2026-04-03T12:04:58.57Z</time></trkpt><trkpt lat="44.3722067" lon="11.0905367"><ele>617.6666666666666</ele><time>2026-04-03T12:04:59.572Z</time></trkpt><trkpt lat="44.3721833" lon="11.0906633"><ele>617.3333333333334</ele><time>2026-04-03T12:05:00.574Z</time></trkpt><trkpt lat="44.3721567" lon="11.0907833"><ele>617.0</ele><time>2026-04-03T12:05:01.572Z</time></trkpt><trkpt lat="44.3721333" lon="11.090895"><ele>616.6666666666667</ele><time>2026-04-03T12:05:02.569Z</time></trkpt><trkpt lat="44.3721133" lon="11.0909983"><ele>616.3333333333334</ele><time>2026-04-03T12:05:03.571Z</time></trkpt><trkpt lat="44.3721" lon="11.0911083"><ele>616.0</ele><time>2026-04-03T12:05:04.571Z</time></trkpt><trkpt lat="44.3720983" lon="11.0912317"><ele>617.6</ele><time>2026-04-03T12:05:05.57Z</time></trkpt><trkpt lat="44.3721133" lon="11.0913717"><ele>619.2</ele><time>2026-04-03T12:05:06.571Z</time></trkpt><trkpt lat="44.372135" lon="11.0915067"><ele>620.8</ele><time>2026-04-03T12:05:07.571Z</time></trkpt><trkpt lat="44.37214" lon="11.0916483"><ele>622.4</ele><time>2026-04-03T12:05:08.574Z</time></trkpt><trkpt lat="44.3721417" lon="11.0918133"><ele>624.0</ele><time>2026-04-03T12:05:09.577Z</time></trkpt><trkpt lat="44.3721433" lon="11.09198"><ele>624.0</ele><time>2026-04-03T12:05:10.579Z</time></trkpt><trkpt lat="44.37215" lon="11.0921067"><ele>624.0</ele><time>2026-04-03T12:05:11.576Z</time></trkpt><trkpt lat="44.37216" lon="11.0922017"><ele>624.0</ele><time>2026-04-03T12:05:12.572Z</time></trkpt><trkpt lat="44.372225" lon="11.0923533"><ele>624.0</ele><time>2026-04-03T12:05:14.567Z</time></trkpt><trkpt lat="44.3722867" lon="11.0924467"><ele>624.0</ele><time>2026-04-03T12:05:15.575Z</time></trkpt><trkpt lat="44.372345" lon="11.09256"><ele>624.3333333333334</ele><time>2026-04-03T12:05:16.578Z</time></trkpt><trkpt lat="44.3723933" lon="11.092665"><ele>624.6666666666666</ele><time>2026-04-03T12:05:17.581Z</time></trkpt><trkpt lat="44.3724317" lon="11.0927567"><ele>625.0</ele><time>2026-04-03T12:05:18.575Z</time></trkpt><trkpt lat="44.3724483" lon="11.09285"><ele>625.3333333333333</ele><time>2026-04-03T12:05:19.579Z</time></trkpt><trkpt lat="44.3724433" lon="11.0929667"><ele>625.6666666666666</ele><time>2026-04-03T12:05:20.569Z</time></trkpt><trkpt lat="44.3724267" lon="11.09311"><ele>626.0</ele><time>2026-04-03T12:05:21.571Z</time></trkpt><trkpt lat="44.3724133" lon="11.0932567"><ele>626.8</ele><time>2026-04-03T12:05:22.57Z</time></trkpt><trkpt lat="44.372405" lon="11.0933983"><ele>627.6</ele><time>2026-04-03T12:05:23.572Z</time></trkpt><trkpt lat="44.3724017" lon="11.09353"><ele>628.4</ele><time>2026-04-03T12:05:24.578Z</time></trkpt><trkpt lat="44.3723967" lon="11.0936567"><ele>629.2</ele><time>2026-04-03T12:05:25.568Z</time></trkpt><trkpt lat="44.3723917" lon="11.0937783"><ele>630.0</ele><time>2026-04-03T12:05:26.576Z</time></trkpt><trkpt lat="44.372385" lon="11.0938967"><ele>630.0</ele><time>2026-04-03T12:05:27.57Z</time></trkpt><trkpt lat="44.37238" lon="11.0940183"><ele>630.0</ele><time>2026-04-03T12:05:28.57Z</time></trkpt><trkpt lat="44.372375" lon="11.09415"><ele>630.0</ele><time>2026-04-03T12:05:29.572Z</time></trkpt><trkpt lat="44.3723683" lon="11.094285"><ele>630.0</ele><time>2026-04-03T12:05:30.572Z</time></trkpt><trkpt lat="44.3723617" lon="11.0944217"><ele>630.0</ele><time>2026-04-03T12:05:31.57Z</time></trkpt><trkpt lat="44.3723667" lon="11.0945583"><ele>631.6</ele><time>2026-04-03T12:05:32.571Z</time></trkpt><trkpt lat="44.3723817" lon="11.09469"><ele>633.2</ele><time>2026-04-03T12:05:33.57Z</time></trkpt><trkpt lat="44.3723983" lon="11.0948183"><ele>634.8</ele><time>2026-04-03T12:05:34.569Z</time></trkpt><trkpt lat="44.3724083" lon="11.0949483"><ele>636.4</ele><time>2026-04-03T12:05:35.567Z</time></trkpt><trkpt lat="44.3724067" lon="11.0950883"><ele>638.0</ele><time>2026-04-03T12:05:36.575Z</time></trkpt><trkpt lat="44.3723983" lon="11.09523"><ele>638.6666666666666</ele><time>2026-04-03T12:05:37.569Z</time></trkpt><trkpt lat="44.3723883" lon="11.09537"><ele>639.3333333333333</ele><time>2026-04-03T12:05:38.577Z</time></trkpt><trkpt lat="44.37237" lon="11.0954983"><ele>640.0</ele><time>2026-04-03T12:05:39.568Z</time></trkpt><trkpt lat="44.3723467" lon="11.0956133"><ele>640.6666666666666</ele><time>2026-04-03T12:05:40.571Z</time></trkpt><trkpt lat="44.37232" lon="11.09572"><ele>641.3333333333334</ele><time>2026-04-03T12:05:41.571Z</time></trkpt><trkpt lat="44.3722917" lon="11.0958183"><ele>642.0</ele><time>2026-04-03T12:05:42.57Z</time></trkpt><trkpt lat="44.3722683" lon="11.0959183"><ele>643.7142857142857</ele><time>2026-04-03T12:05:43.57Z</time></trkpt><trkpt lat="44.3722517" lon="11.09602"><ele>645.4285714285714</ele><time>2026-04-03T12:05:44.574Z</time></trkpt><trkpt lat="44.3722533" lon="11.0961317"><ele>647.1428571428571</ele><time>2026-04-03T12:05:45.572Z</time></trkpt><trkpt lat="44.3722567" lon="11.0962317"><ele>648.8571428571429</ele><time>2026-04-03T12:05:46.567Z</time></trkpt><trkpt lat="44.37227" lon="11.0963217"><ele>650.5714285714286</ele><time>2026-04-03T12:05:47.574Z</time></trkpt><trkpt lat="44.3722867" lon="11.096415"><ele>652.2857142857142</ele><time>2026-04-03T12:05:48.574Z</time></trkpt><trkpt lat="44.3722983" lon="11.0965183"><ele>654.0</ele><time>2026-04-03T12:05:49.578Z</time></trkpt><trkpt lat="44.3723117" lon="11.0966233"><ele>654.7142857142857</ele><time>2026-04-03T12:05:50.575Z</time></trkpt><trkpt lat="44.3723283" lon="11.0967233"><ele>655.4285714285714</ele><time>2026-04-03T12:05:51.571Z</time></trkpt><trkpt lat="44.37234" lon="11.0968167"><ele>656.1428571428571</ele><time>2026-04-03T12:05:52.571Z</time></trkpt><trkpt lat="44.3723583" lon="11.0969183"><ele>656.8571428571429</ele><time>2026-04-03T12:05:53.57Z</time></trkpt><trkpt lat="44.3723783" lon="11.09702"><ele>657.5714285714286</ele><time>2026-04-03T12:05:54.571Z</time></trkpt><trkpt lat="44.3724033" lon="11.0971183"><ele>658.2857142857143</ele><time>2026-04-03T12:05:55.57Z</time></trkpt><trkpt lat="44.37244" lon="11.0972117"><ele>659.0</ele><time>2026-04-03T12:05:56.575Z</time></trkpt><trkpt lat="44.37249" lon="11.0973067"><ele>659.0</ele><time>2026-04-03T12:05:57.569Z</time></trkpt><trkpt lat="44.3725483" lon="11.0973983"><ele>659.0</ele><time>2026-04-03T12:05:58.571Z</time></trkpt><trkpt lat="44.3726017" lon="11.0974983"><ele>659.0</ele><time>2026-04-03T12:05:59.574Z</time></trkpt><trkpt lat="44.3726433" lon="11.09761"><ele>659.0</ele><time>2026-04-03T12:06:00.569Z</time></trkpt><trkpt lat="44.3726704" lon="11.0977271"><ele>659.0</ele><time>2026-04-03T12:06:01.577Z</time></trkpt><trkpt lat="44.3726871" lon="11.0978515"><ele>659.0</ele><time>2026-04-03T12:06:02.575Z</time></trkpt><trkpt lat="44.3726977" lon="11.0979771"><ele>659.7142857142858</ele><time>2026-04-03T12:06:03.575Z</time></trkpt><trkpt lat="44.372711" lon="11.0980924"><ele>660.4285714285713</ele><time>2026-04-03T12:06:04.574Z</time></trkpt><trkpt lat="44.3727223" lon="11.0981849"><ele>661.1428571428571</ele><time>2026-04-03T12:06:05.568Z</time></trkpt><trkpt lat="44.3727257" lon="11.0982751"><ele>661.8571428571429</ele><time>2026-04-03T12:06:06.571Z</time></trkpt><trkpt lat="44.3727256" lon="11.0983678"><ele>662.5714285714287</ele><time>2026-04-03T12:06:07.57Z</time></trkpt><trkpt lat="44.3727233" lon="11.0984584"><ele>663.2857142857142</ele><time>2026-04-03T12:06:08.571Z</time></trkpt><trkpt lat="44.3727183" lon="11.0985583"><ele>664.0</ele><time>2026-04-03T12:06:09.573Z</time></trkpt><trkpt lat="44.3727119" lon="11.0986705"><ele>665.0</ele><time>2026-04-03T12:06:10.568Z</time></trkpt><trkpt lat="44.3727004" lon="11.0987974"><ele>666.0</ele><time>2026-04-03T12:06:11.57Z</time></trkpt><trkpt lat="44.3726866" lon="11.0989256"><ele>667.0</ele><time>2026-04-03T12:06:12.575Z</time></trkpt><trkpt lat="44.3726722" lon="11.0990468"><ele>668.0</ele><time>2026-04-03T12:06:13.572Z</time></trkpt><trkpt lat="44.3726637" lon="11.0991712"><ele>669.0</ele><time>2026-04-03T12:06:14.574Z</time></trkpt><trkpt lat="44.3726579" lon="11.0992977"><ele>671.2</ele><time>2026-04-03T12:06:15.574Z</time></trkpt><trkpt lat="44.3726561" lon="11.0994327"><ele>673.4000000000001</ele><time>2026-04-03T12:06:16.574Z</time></trkpt><trkpt lat="44.3726575" lon="11.0995685"><ele>675.6</ele><time>2026-04-03T12:06:17.576Z</time></trkpt><trkpt lat="44.372658" lon="11.0997043"><ele>677.8</ele><time>2026-04-03T12:06:18.572Z</time></trkpt><trkpt lat="44.3726608" lon="11.0998376"><ele>680.0</ele><time>2026-04-03T12:06:19.57Z</time></trkpt><trkpt lat="44.372665" lon="11.0999594"><ele>681.5714285714286</ele><time>2026-04-03T12:06:20.57Z</time></trkpt><trkpt lat="44.3726666" lon="11.1000632"><ele>683.1428571428571</ele><time>2026-04-03T12:06:21.57Z</time></trkpt><trkpt lat="44.3726676" lon="11.1001587"><ele>684.7142857142857</ele><time>2026-04-03T12:06:22.576Z</time></trkpt><trkpt lat="44.3726677" lon="11.1002577"><ele>686.2857142857142</ele><time>2026-04-03T12:06:23.568Z</time></trkpt><trkpt lat="44.372665" lon="11.1003585"><ele>687.8571428571429</ele><time>2026-04-03T12:06:24.574Z</time></trkpt><trkpt lat="44.3726628" lon="11.1004552"><ele>689.4285714285713</ele><time>2026-04-03T12:06:25.577Z</time></trkpt><trkpt lat="44.37266" lon="11.1005538"><ele>691.0</ele><time>2026-04-03T12:06:26.568Z</time></trkpt><trkpt lat="44.3726566" lon="11.1006534"><ele>692.8333333333334</ele><time>2026-04-03T12:06:27.569Z</time></trkpt><trkpt lat="44.3726492" lon="11.1007507"><ele>694.6666666666667</ele><time>2026-04-03T12:06:28.569Z</time></trkpt><trkpt lat="44.3726351" lon="11.1008476"><ele>696.5</ele><time>2026-04-03T12:06:29.573Z</time></trkpt><trkpt lat="44.3726192" lon="11.1009565"><ele>698.3333333333334</ele><time>2026-04-03T12:06:30.574Z</time></trkpt><trkpt lat="44.3726023" lon="11.1010648"><ele>700.1666666666666</ele><time>2026-04-03T12:06:31.574Z</time></trkpt><trkpt lat="44.3725775" lon="11.1011716"><ele>702.0</ele><time>2026-04-03T12:06:32.577Z</time></trkpt><trkpt lat="44.3725473" lon="11.1012791"><ele>702.0</ele><time>2026-04-03T12:06:33.571Z</time></trkpt><trkpt lat="44.3725135" lon="11.1013795"><ele>702.0</ele><time>2026-04-03T12:06:34.569Z</time></trkpt><trkpt lat="44.3724728" lon="11.1014714"><ele>702.0</ele><time>2026-04-03T12:06:35.568Z</time></trkpt><trkpt lat="44.3724343" lon="11.1015596"><ele>702.0</ele><time>2026-04-03T12:06:36.575Z</time></trkpt><trkpt lat="44.3723999" lon="11.1016437"><ele>702.0</ele><time>2026-04-03T12:06:37.568Z</time></trkpt><trkpt lat="44.3723676" lon="11.1017242"><ele>702.0</ele><time>2026-04-03T12:06:38.583Z</time></trkpt><trkpt lat="44.3723093" lon="11.1018693"><ele>703.0</ele><time>2026-04-03T12:06:40.573Z</time></trkpt><trkpt lat="44.3722425" lon="11.1019797"><ele>704.0</ele><time>2026-04-03T12:06:42.573Z</time></trkpt><trkpt lat="44.3721669" lon="11.1020546"><ele>705.0</ele><time>2026-04-03T12:06:44.574Z</time></trkpt><trkpt lat="44.3720733" lon="11.1020717"><ele>706.0</ele><time>2026-04-03T12:07:33.569Z</time></trkpt><trkpt lat="44.3719933" lon="11.1021117"><ele>707.0</ele><time>2026-04-03T12:07:35.567Z</time></trkpt><trkpt lat="44.3719067" lon="11.102145"><ele>707.4000000000001</ele><time>2026-04-03T12:07:36.57Z</time></trkpt><trkpt lat="44.3718067" lon="11.1021833"><ele>707.8000000000001</ele><time>2026-04-03T12:07:37.569Z</time></trkpt><trkpt lat="44.3716983" lon="11.1022317"><ele>708.2</ele><time>2026-04-03T12:07:38.575Z</time></trkpt><trkpt lat="44.3715917" lon="11.10228"><ele>708.6</ele><time>2026-04-03T12:07:39.571Z</time></trkpt><trkpt lat="44.3714883" lon="11.10233"><ele>709.0</ele><time>2026-04-03T12:07:40.571Z</time></trkpt><trkpt lat="44.3713883" lon="11.102395"><ele>707.25</ele><time>2026-04-03T12:07:41.569Z</time></trkpt><trkpt lat="44.371285" lon="11.10246"><ele>705.5</ele><time>2026-04-03T12:07:42.567Z</time></trkpt><trkpt lat="44.371175" lon="11.102515"><ele>703.75</ele><time>2026-04-03T12:07:43.568Z</time></trkpt><trkpt lat="44.3710617" lon="11.10257"><ele>702.0</ele><time>2026-04-03T12:07:44.58Z</time></trkpt><trkpt lat="44.3709467" lon="11.1026233"><ele>702.0</ele><time>2026-04-03T12:07:45.569Z</time></trkpt><trkpt lat="44.37083" lon="11.1026717"><ele>702.0</ele><time>2026-04-03T12:07:46.574Z</time></trkpt><trkpt lat="44.37072" lon="11.1027283"><ele>702.0</ele><time>2026-04-03T12:07:47.57Z</time></trkpt><trkpt lat="44.3706133" lon="11.1027933"><ele>702.0</ele><time>2026-04-03T12:07:48.568Z</time></trkpt><trkpt lat="44.3705033" lon="11.1028667"><ele>698.25</ele><time>2026-04-03T12:07:49.57Z</time></trkpt><trkpt lat="44.3703967" lon="11.1029483"><ele>694.5</ele><time>2026-04-03T12:07:50.57Z</time></trkpt><trkpt lat="44.3702917" lon="11.10303"><ele>690.75</ele><time>2026-04-03T12:07:51.573Z</time></trkpt><trkpt lat="44.3701833" lon="11.1031133"><ele>687.0</ele><time>2026-04-03T12:07:52.567Z</time></trkpt><trkpt lat="44.3700717" lon="11.103195"><ele>687.0</ele><time>2026-04-03T12:07:53.57Z</time></trkpt><trkpt lat="44.3699617" lon="11.103285"><ele>687.0</ele><time>2026-04-03T12:07:54.57Z</time></trkpt><trkpt lat="44.3698533" lon="11.1033717"><ele>687.0</ele><time>2026-04-03T12:07:55.571Z</time></trkpt><trkpt lat="44.36974" lon="11.103455"><ele>687.0</ele><time>2026-04-03T12:07:56.582Z</time></trkpt><trkpt lat="44.3696317" lon="11.10353"><ele>685.4000000000001</ele><time>2026-04-03T12:07:57.569Z</time></trkpt><trkpt lat="44.3695317" lon="11.1035983"><ele>683.8000000000001</ele><time>2026-04-03T12:07:58.57Z</time></trkpt><trkpt lat="44.369435" lon="11.1036583"><ele>682.2</ele><time>2026-04-03T12:07:59.57Z</time></trkpt><trkpt lat="44.3693367" lon="11.1037217"><ele>680.6</ele><time>2026-04-03T12:08:00.573Z</time></trkpt><trkpt lat="44.369235" lon="11.103785"><ele>679.0</ele><time>2026-04-03T12:08:01.57Z</time></trkpt><trkpt lat="44.369135" lon="11.1038633"><ele>679.0</ele><time>2026-04-03T12:08:02.574Z</time></trkpt><trkpt lat="44.3690367" lon="11.1039517"><ele>679.0</ele><time>2026-04-03T12:08:03.57Z</time></trkpt><trkpt lat="44.3689367" lon="11.1040417"><ele>679.0</ele><time>2026-04-03T12:08:04.573Z</time></trkpt><trkpt lat="44.3688333" lon="11.104125"><ele>679.0</ele><time>2026-04-03T12:08:05.572Z</time></trkpt><trkpt lat="44.3687233" lon="11.1042"><ele>679.0</ele><time>2026-04-03T12:08:06.572Z</time></trkpt><trkpt lat="44.3686033" lon="11.10426"><ele>679.0</ele><time>2026-04-03T12:08:07.569Z</time></trkpt><trkpt lat="44.36848" lon="11.10431"><ele>679.0</ele><time>2026-04-03T12:08:08.568Z</time></trkpt><trkpt lat="44.3683583" lon="11.1043583"><ele>679.0</ele><time>2026-04-03T12:08:09.573Z</time></trkpt><trkpt lat="44.3682417" lon="11.10441"><ele>679.0</ele><time>2026-04-03T12:08:10.571Z</time></trkpt><trkpt lat="44.368125" lon="11.10446"><ele>679.0</ele><time>2026-04-03T12:08:11.574Z</time></trkpt><trkpt lat="44.3680067" lon="11.1045083"><ele>679.0</ele><time>2026-04-03T12:08:12.568Z</time></trkpt><trkpt lat="44.3678883" lon="11.1045567"><ele>679.0</ele><time>2026-04-03T12:08:13.57Z</time></trkpt><trkpt lat="44.3677683" lon="11.1046067"><ele>679.5</ele><time>2026-04-03T12:08:14.572Z</time></trkpt><trkpt lat="44.36765" lon="11.1046567"><ele>680.0</ele><time>2026-04-03T12:08:15.573Z</time></trkpt><trkpt lat="44.3675317" lon="11.10471"><ele>680.5</ele><time>2026-04-03T12:08:16.571Z</time></trkpt><trkpt lat="44.367415" lon="11.104765"><ele>681.0</ele><time>2026-04-03T12:08:17.569Z</time></trkpt><trkpt lat="44.3672983" lon="11.1048167"><ele>680.75</ele><time>2026-04-03T12:08:18.571Z</time></trkpt><trkpt lat="44.3671817" lon="11.1048633"><ele>680.5</ele><time>2026-04-03T12:08:19.57Z</time></trkpt><trkpt lat="44.3670633" lon="11.104895"><ele>680.25</ele><time>2026-04-03T12:08:20.573Z</time></trkpt><trkpt lat="44.3669433" lon="11.10492"><ele>680.0</ele><time>2026-04-03T12:08:21.57Z</time></trkpt><trkpt lat="44.3668183" lon="11.104945"><ele>680.75</ele><time>2026-04-03T12:08:22.572Z</time></trkpt><trkpt lat="44.3666883" lon="11.1049667"><ele>681.5</ele><time>2026-04-03T12:08:23.573Z</time></trkpt><trkpt lat="44.3665533" lon="11.1049883"><ele>682.25</ele><time>2026-04-03T12:08:24.571Z</time></trkpt><trkpt lat="44.3664133" lon="11.1050067"><ele>683.0</ele><time>2026-04-03T12:08:25.568Z</time></trkpt><trkpt lat="44.36627" lon="11.10502"><ele>683.0</ele><time>2026-04-03T12:08:26.571Z</time></trkpt><trkpt lat="44.36613" lon="11.1050317"><ele>683.0</ele><time>2026-04-03T12:08:27.573Z</time></trkpt><trkpt lat="44.3659933" lon="11.1050517"><ele>683.0</ele><time>2026-04-03T12:08:28.574Z</time></trkpt><trkpt lat="44.36586" lon="11.1050717"><ele>683.0</ele><time>2026-04-03T12:08:29.569Z</time></trkpt><trkpt lat="44.365735" lon="11.1050833"><ele>683.0</ele><time>2026-04-03T12:08:30.57Z</time></trkpt><trkpt lat="44.3656283" lon="11.1051017"><ele>683.0</ele><time>2026-04-03T12:08:31.571Z</time></trkpt><trkpt lat="44.36553" lon="11.1051233"><ele>683.0</ele><time>2026-04-03T12:08:32.572Z</time></trkpt><trkpt lat="44.36544" lon="11.105145"><ele>683.0</ele><time>2026-04-03T12:08:33.569Z</time></trkpt><trkpt lat="44.365365" lon="11.1051683"><ele>683.0</ele><time>2026-04-03T12:08:34.571Z</time></trkpt><trkpt lat="44.3653017" lon="11.105185"><ele>683.0</ele><time>2026-04-03T12:08:35.571Z</time></trkpt><trkpt lat="44.365195" lon="11.1051467"><ele>682.8</ele><time>2026-04-03T12:08:37.574Z</time></trkpt><trkpt lat="44.3651283" lon="11.1049683"><ele>682.5999999999999</ele><time>2026-04-03T12:08:39.571Z</time></trkpt><trkpt lat="44.3650833" lon="11.1048183"><ele>682.4000000000001</ele><time>2026-04-03T12:08:40.57Z</time></trkpt><trkpt lat="44.3650333" lon="11.1047017"><ele>682.2</ele><time>2026-04-03T12:08:41.57Z</time></trkpt><trkpt lat="44.3649867" lon="11.1045983"><ele>682.0</ele><time>2026-04-03T12:08:42.569Z</time></trkpt><trkpt lat="44.364945" lon="11.1045067"><ele>682.0</ele><time>2026-04-03T12:08:43.57Z</time></trkpt><trkpt lat="44.3649033" lon="11.1044117"><ele>682.0</ele><time>2026-04-03T12:08:44.578Z</time></trkpt><trkpt lat="44.3648617" lon="11.1043183"><ele>682.0</ele><time>2026-04-03T12:08:45.569Z</time></trkpt><trkpt lat="44.3648167" lon="11.10422"><ele>682.0</ele><time>2026-04-03T12:08:46.571Z</time></trkpt><trkpt lat="44.3647633" lon="11.1041067"><ele>682.0</ele><time>2026-04-03T12:08:47.57Z</time></trkpt><trkpt lat="44.3647117" lon="11.1039917"><ele>682.0</ele><time>2026-04-03T12:08:48.568Z</time></trkpt><trkpt lat="44.3646717" lon="11.103885"><ele>681.5</ele><time>2026-04-03T12:08:49.575Z</time></trkpt><trkpt lat="44.3646383" lon="11.103785"><ele>681.0</ele><time>2026-04-03T12:08:50.572Z</time></trkpt><trkpt lat="44.3646083" lon="11.1036883"><ele>680.5</ele><time>2026-04-03T12:08:51.57Z</time></trkpt><trkpt lat="44.36459" lon="11.1036017"><ele>680.0</ele><time>2026-04-03T12:08:52.571Z</time></trkpt><trkpt lat="44.3645567" lon="11.103445"><ele>679.5</ele><time>2026-04-03T12:08:54.573Z</time></trkpt><trkpt lat="44.364575" lon="11.1032983"><ele>679.0</ele><time>2026-04-03T12:08:56.574Z</time></trkpt><trkpt lat="44.364615" lon="11.1032217"><ele>676.5</ele><time>2026-04-03T12:08:57.567Z</time></trkpt><trkpt lat="44.3646583" lon="11.1031383"><ele>674.0</ele><time>2026-04-03T12:08:58.575Z</time></trkpt><trkpt lat="44.3647083" lon="11.1030567"><ele>671.5</ele><time>2026-04-03T12:08:59.572Z</time></trkpt><trkpt lat="44.3647583" lon="11.102975"><ele>669.0</ele><time>2026-04-03T12:09:00.566Z</time></trkpt><trkpt lat="44.3648067" lon="11.102895"><ele>666.5</ele><time>2026-04-03T12:09:01.568Z</time></trkpt><trkpt lat="44.3648567" lon="11.102815"><ele>664.0</ele><time>2026-04-03T12:09:02.572Z</time></trkpt><trkpt lat="44.3649017" lon="11.1027283"><ele>663.8333333333334</ele><time>2026-04-03T12:09:03.573Z</time></trkpt><trkpt lat="44.3649417" lon="11.1026333"><ele>663.6666666666667</ele><time>2026-04-03T12:09:04.572Z</time></trkpt><trkpt lat="44.36498" lon="11.10253"><ele>663.5</ele><time>2026-04-03T12:09:05.569Z</time></trkpt><trkpt lat="44.365015" lon="11.1024267"><ele>663.3333333333334</ele><time>2026-04-03T12:09:06.57Z</time></trkpt><trkpt lat="44.36503" lon="11.10233"><ele>663.1666666666666</ele><time>2026-04-03T12:09:07.565Z</time></trkpt><trkpt lat="44.3650467" lon="11.1022333"><ele>663.0</ele><time>2026-04-03T12:09:08.572Z</time></trkpt><trkpt lat="44.3650533" lon="11.1021283"><ele>661.3333333333334</ele><time>2026-04-03T12:09:09.576Z</time></trkpt><trkpt lat="44.3650617" lon="11.1020233"><ele>659.6666666666666</ele><time>2026-04-03T12:09:10.569Z</time></trkpt><trkpt lat="44.3650733" lon="11.1019233"><ele>658.0</ele><time>2026-04-03T12:09:11.571Z</time></trkpt><trkpt lat="44.3650883" lon="11.10183"><ele>656.3333333333333</ele><time>2026-04-03T12:09:12.576Z</time></trkpt><trkpt lat="44.365105" lon="11.101745"><ele>654.6666666666666</ele><time>2026-04-03T12:09:13.57Z</time></trkpt><trkpt lat="44.3651367" lon="11.10158"><ele>653.0</ele><time>2026-04-03T12:09:15.575Z</time></trkpt><trkpt lat="44.36515" lon="11.1014867"><ele>650.6666666666666</ele><time>2026-04-03T12:09:16.576Z</time></trkpt><trkpt lat="44.3651683" lon="11.1013917"><ele>648.3333333333333</ele><time>2026-04-03T12:09:17.571Z</time></trkpt><trkpt lat="44.365185" lon="11.101285"><ele>646.0</ele><time>2026-04-03T12:09:18.573Z</time></trkpt><trkpt lat="44.3651967" lon="11.101185"><ele>643.6666666666666</ele><time>2026-04-03T12:09:19.571Z</time></trkpt><trkpt lat="44.3652067" lon="11.101085"><ele>641.3333333333334</ele><time>2026-04-03T12:09:20.574Z</time></trkpt><trkpt lat="44.3652167" lon="11.1009867"><ele>639.0</ele><time>2026-04-03T12:09:21.573Z</time></trkpt><trkpt lat="44.365175" lon="11.1008567"><ele>637.0</ele><time>2026-04-03T12:09:23.575Z</time></trkpt><trkpt lat="44.3651033" lon="11.1007417"><ele>635.0</ele><time>2026-04-03T12:09:25.57Z</time></trkpt><trkpt lat="44.3650467" lon="11.1005983"><ele>633.0</ele><time>2026-04-03T12:09:27.572Z</time></trkpt><trkpt lat="44.3650167" lon="11.10052"><ele>631.0</ele><time>2026-04-03T12:09:28.568Z</time></trkpt><trkpt lat="44.364965" lon="11.1003717"><ele>629.0</ele><time>2026-04-03T12:09:30.572Z</time></trkpt><trkpt lat="44.3649217" lon="11.1002333"><ele>629.0</ele><time>2026-04-03T12:09:32.576Z</time></trkpt><trkpt lat="44.3648683" lon="11.10012"><ele>629.0</ele><time>2026-04-03T12:09:34.57Z</time></trkpt><trkpt lat="44.36482" lon="11.10001"><ele>629.0</ele><time>2026-04-03T12:09:36.576Z</time></trkpt><trkpt lat="44.364755" lon="11.0999133"><ele>629.0</ele><time>2026-04-03T12:09:38.57Z</time></trkpt><trkpt lat="44.364695" lon="11.0998017"><ele>629.0</ele><time>2026-04-03T12:09:40.568Z</time></trkpt><trkpt lat="44.3646717" lon="11.0996567"><ele>624.2</ele><time>2026-04-03T12:09:42.572Z</time></trkpt><trkpt lat="44.3646233" lon="11.0994917"><ele>619.4</ele><time>2026-04-03T12:09:44.578Z</time></trkpt><trkpt lat="44.3645867" lon="11.0993433"><ele>614.6</ele><time>2026-04-03T12:09:46.573Z</time></trkpt><trkpt lat="44.364575" lon="11.09923"><ele>609.8</ele><time>2026-04-03T12:09:48.576Z</time></trkpt><trkpt lat="44.3645717" lon="11.099115"><ele>605.0</ele><time>2026-04-03T12:09:50.571Z</time></trkpt><trkpt lat="44.364545" lon="11.09901"><ele>602.5</ele><time>2026-04-03T12:09:53.574Z</time></trkpt><trkpt lat="44.364485" lon="11.0989517"><ele>600.0</ele><time>2026-04-03T12:09:55.571Z</time></trkpt><trkpt lat="44.3644283" lon="11.0988733"><ele>597.5</ele><time>2026-04-03T12:09:57.572Z</time></trkpt><trkpt lat="44.3643921" lon="11.0987772"><ele>595.0</ele><time>2026-04-03T12:09:59.573Z</time></trkpt><trkpt lat="44.3644027" lon="11.0986545"><ele>592.5</ele><time>2026-04-03T12:10:01.576Z</time></trkpt><trkpt lat="44.3644269" lon="11.0985617"><ele>590.0</ele><time>2026-04-03T12:10:03.578Z</time></trkpt><trkpt lat="44.3644224" lon="11.0984684"><ele>590.0</ele><time>2026-04-03T12:10:05.572Z</time></trkpt><trkpt lat="44.3644004" lon="11.0983801"><ele>590.0</ele><time>2026-04-03T12:10:07.568Z</time></trkpt><trkpt lat="44.3643649" lon="11.0982812"><ele>590.0</ele><time>2026-04-03T12:10:09.611Z</time></trkpt><trkpt lat="44.3643126" lon="11.0981792"><ele>590.0</ele><time>2026-04-03T12:10:11.573Z</time></trkpt><trkpt lat="44.3642698" lon="11.0980274"><ele>590.0</ele><time>2026-04-03T12:10:13.594Z</time></trkpt><trkpt lat="44.3643133" lon="11.0978683"><ele>587.3333333333333</ele><time>2026-04-03T12:10:15.556Z</time></trkpt><trkpt lat="44.3643782" lon="11.097811"><ele>584.6666666666666</ele><time>2026-04-03T12:10:16.538Z</time></trkpt><trkpt lat="44.3644659" lon="11.0977389"><ele>582.0</ele><time>2026-04-03T12:10:17.571Z</time></trkpt><trkpt lat="44.3645439" lon="11.0976557"><ele>579.3333333333334</ele><time>2026-04-03T12:10:18.566Z</time></trkpt><trkpt lat="44.3645996" lon="11.097583"><ele>576.6666666666667</ele><time>2026-04-03T12:10:19.572Z</time></trkpt><trkpt lat="44.3645994" lon="11.0974723"><ele>574.0</ele><time>2026-04-03T12:10:21.568Z</time></trkpt><trkpt lat="44.3645104" lon="11.0973589"><ele>571.5</ele><time>2026-04-03T12:10:23.572Z</time></trkpt><trkpt lat="44.3644557" lon="11.0973054"><ele>569.0</ele><time>2026-04-03T12:10:24.572Z</time></trkpt><trkpt lat="44.3643498" lon="11.097211"><ele>566.5</ele><time>2026-04-03T12:10:26.576Z</time></trkpt><trkpt lat="44.3642904" lon="11.097158"><ele>564.0</ele><time>2026-04-03T12:10:27.568Z</time></trkpt><trkpt lat="44.3642281" lon="11.0971116"><ele>561.5</ele><time>2026-04-03T12:10:28.57Z</time></trkpt><trkpt lat="44.364165" lon="11.09707"><ele>559.0</ele><time>2026-04-03T12:10:29.572Z</time></trkpt><trkpt lat="44.3641033" lon="11.0970267"><ele>559.0</ele><time>2026-04-03T12:10:30.568Z</time></trkpt><trkpt lat="44.3640383" lon="11.09698"><ele>559.0</ele><time>2026-04-03T12:10:31.573Z</time></trkpt><trkpt lat="44.3639733" lon="11.0969417"><ele>559.0</ele><time>2026-04-03T12:10:32.568Z</time></trkpt><trkpt lat="44.363915" lon="11.0968967"><ele>559.0</ele><time>2026-04-03T12:10:33.568Z</time></trkpt><trkpt lat="44.3638567" lon="11.0968583"><ele>559.0</ele><time>2026-04-03T12:10:34.572Z</time></trkpt><trkpt lat="44.3637983" lon="11.0968217"><ele>559.0</ele><time>2026-04-03T12:10:35.576Z</time></trkpt><trkpt lat="44.363705" lon="11.0967183"><ele>559.6666666666667</ele><time>2026-04-03T12:10:37.573Z</time></trkpt><trkpt lat="44.363655" lon="11.0966617"><ele>560.3333333333334</ele><time>2026-04-03T12:10:38.573Z</time></trkpt><trkpt lat="44.36357" lon="11.096575"><ele>561.0</ele><time>2026-04-03T12:10:40.569Z</time></trkpt><trkpt lat="44.3635417" lon="11.096465"><ele>561.6666666666666</ele><time>2026-04-03T12:10:42.566Z</time></trkpt><trkpt lat="44.3635383" lon="11.0962917"><ele>562.3333333333333</ele><time>2026-04-03T12:10:44.573Z</time></trkpt><trkpt lat="44.363525" lon="11.096195"><ele>563.0</ele><time>2026-04-03T12:10:45.572Z</time></trkpt><trkpt lat="44.36352" lon="11.0961033"><ele>563.0</ele><time>2026-04-03T12:10:46.574Z</time></trkpt><trkpt lat="44.3635233" lon="11.0960067"><ele>563.0</ele><time>2026-04-03T12:10:47.572Z</time></trkpt><trkpt lat="44.3635267" lon="11.0958917"><ele>563.0</ele><time>2026-04-03T12:10:48.572Z</time></trkpt><trkpt lat="44.36352" lon="11.09577"><ele>563.0</ele><time>2026-04-03T12:10:49.571Z</time></trkpt><trkpt lat="44.36351" lon="11.0956617"><ele>563.0</ele><time>2026-04-03T12:10:50.574Z</time></trkpt><trkpt lat="44.3634933" lon="11.0955533"><ele>563.0</ele><time>2026-04-03T12:10:51.572Z</time></trkpt><trkpt lat="44.3634733" lon="11.0954433"><ele>563.0</ele><time>2026-04-03T12:10:52.568Z</time></trkpt><trkpt lat="44.3634533" lon="11.0953267"><ele>563.0</ele><time>2026-04-03T12:10:53.569Z</time></trkpt><trkpt lat="44.3634367" lon="11.0952167"><ele>563.0</ele><time>2026-04-03T12:10:54.577Z</time></trkpt><trkpt lat="44.363425" lon="11.0951083"><ele>563.0</ele><time>2026-04-03T12:10:55.571Z</time></trkpt><trkpt lat="44.3634167" lon="11.0950017"><ele>563.0</ele><time>2026-04-03T12:10:56.574Z</time></trkpt><trkpt lat="44.363415" lon="11.0948867"><ele>563.0</ele><time>2026-04-03T12:10:57.569Z</time></trkpt><trkpt lat="44.3634217" lon="11.0947733"><ele>560.8</ele><time>2026-04-03T12:10:58.57Z</time></trkpt><trkpt lat="44.3634367" lon="11.094665"><ele>558.5999999999999</ele><time>2026-04-03T12:10:59.568Z</time></trkpt><trkpt lat="44.3634317" lon="11.0945583"><ele>556.4000000000001</ele><time>2026-04-03T12:11:00.577Z</time></trkpt><trkpt lat="44.363425" lon="11.09446"><ele>554.2</ele><time>2026-04-03T12:11:01.57Z</time></trkpt><trkpt lat="44.3633567" lon="11.0943267"><ele>552.0</ele><time>2026-04-03T12:11:03.573Z</time></trkpt><trkpt lat="44.36326" lon="11.0942217"><ele>552.0</ele><time>2026-04-03T12:11:05.575Z</time></trkpt><trkpt lat="44.36321" lon="11.0941583"><ele>552.0</ele><time>2026-04-03T12:11:06.568Z</time></trkpt><trkpt lat="44.3631567" lon="11.0940817"><ele>552.0</ele><time>2026-04-03T12:11:07.573Z</time></trkpt><trkpt lat="44.3630983" lon="11.094005"><ele>552.0</ele><time>2026-04-03T12:11:08.572Z</time></trkpt><trkpt lat="44.3630417" lon="11.0939367"><ele>552.0</ele><time>2026-04-03T12:11:09.575Z</time></trkpt><trkpt lat="44.3629967" lon="11.093835"><ele>552.0</ele><time>2026-04-03T12:11:11.571Z</time></trkpt><trkpt lat="44.36296" lon="11.0937033"><ele>550.3333333333334</ele><time>2026-04-03T12:11:13.572Z</time></trkpt><trkpt lat="44.3629417" lon="11.0935367"><ele>548.6666666666666</ele><time>2026-04-03T12:11:15.57Z</time></trkpt><trkpt lat="44.362935" lon="11.093425"><ele>547.0</ele><time>2026-04-03T12:11:16.568Z</time></trkpt><trkpt lat="44.3629383" lon="11.09332"><ele>545.3333333333333</ele><time>2026-04-03T12:11:17.572Z</time></trkpt><trkpt lat="44.3629567" lon="11.09322"><ele>543.6666666666666</ele><time>2026-04-03T12:11:18.569Z</time></trkpt><trkpt lat="44.362985" lon="11.0931317"><ele>542.0</ele><time>2026-04-03T12:11:19.569Z</time></trkpt><trkpt lat="44.3630317" lon="11.0929983"><ele>542.0</ele><time>2026-04-03T12:11:21.572Z</time></trkpt><trkpt lat="44.3630483" lon="11.09284"><ele>542.0</ele><time>2026-04-03T12:11:23.574Z</time></trkpt><trkpt lat="44.3630417" lon="11.0927467"><ele>542.0</ele><time>2026-04-03T12:11:24.569Z</time></trkpt><trkpt lat="44.3630233" lon="11.09265"><ele>542.0</ele><time>2026-04-03T12:11:25.572Z</time></trkpt><trkpt lat="44.3630017" lon="11.09255"><ele>542.0</ele><time>2026-04-03T12:11:26.573Z</time></trkpt><trkpt lat="44.3629733" lon="11.0924467"><ele>542.0</ele><time>2026-04-03T12:11:27.571Z</time></trkpt><trkpt lat="44.3629333" lon="11.09235"><ele>543.4285714285714</ele><time>2026-04-03T12:11:28.573Z</time></trkpt><trkpt lat="44.3628967" lon="11.09226"><ele>544.8571428571429</ele><time>2026-04-03T12:11:29.574Z</time></trkpt><trkpt lat="44.3628617" lon="11.09217"><ele>546.2857142857143</ele><time>2026-04-03T12:11:30.575Z</time></trkpt><trkpt lat="44.3628217" lon="11.092095"><ele>547.7142857142858</ele><time>2026-04-03T12:11:31.568Z</time></trkpt><trkpt lat="44.362785" lon="11.092015"><ele>549.1428571428572</ele><time>2026-04-03T12:11:32.57Z</time></trkpt><trkpt lat="44.362755" lon="11.0919317"><ele>550.5714285714286</ele><time>2026-04-03T12:11:33.579Z</time></trkpt><trkpt lat="44.362725" lon="11.09185"><ele>552.0</ele><time>2026-04-03T12:11:34.568Z</time></trkpt><trkpt lat="44.3627067" lon="11.09168"><ele>549.6</ele><time>2026-04-03T12:11:36.568Z</time></trkpt><trkpt lat="44.3626917" lon="11.0915883"><ele>547.2</ele><time>2026-04-03T12:11:37.568Z</time></trkpt><trkpt lat="44.3626567" lon="11.0914317"><ele>544.8</ele><time>2026-04-03T12:11:39.57Z</time></trkpt><trkpt lat="44.362625" lon="11.09128"><ele>542.4</ele><time>2026-04-03T12:11:41.569Z</time></trkpt><trkpt lat="44.362615" lon="11.09111"><ele>540.0</ele><time>2026-04-03T12:11:43.569Z</time></trkpt><trkpt lat="44.362615" lon="11.0910117"><ele>540.0</ele><time>2026-04-03T12:11:44.572Z</time></trkpt><trkpt lat="44.3626133" lon="11.0909133"><ele>540.0</ele><time>2026-04-03T12:11:45.572Z</time></trkpt><trkpt lat="44.3625917" lon="11.090745"><ele>540.0</ele><time>2026-04-03T12:11:47.573Z</time></trkpt><trkpt lat="44.3625667" lon="11.0906"><ele>540.0</ele><time>2026-04-03T12:11:49.571Z</time></trkpt><trkpt lat="44.3624817" lon="11.0905517"><ele>540.0</ele><time>2026-04-03T12:11:51.574Z</time></trkpt><trkpt lat="44.3623983" lon="11.0905167"><ele>541.4</ele><time>2026-04-03T12:11:53.568Z</time></trkpt><trkpt lat="44.3623017" lon="11.090475"><ele>542.8</ele><time>2026-04-03T12:11:55.567Z</time></trkpt><trkpt lat="44.3622167" lon="11.0904017"><ele>544.2</ele><time>2026-04-03T12:11:57.575Z</time></trkpt><trkpt lat="44.3621633" lon="11.0903433"><ele>545.6</ele><time>2026-04-03T12:11:59.569Z</time></trkpt><trkpt lat="44.3621367" lon="11.0902517"><ele>547.0</ele><time>2026-04-03T12:12:12.57Z</time></trkpt><trkpt lat="44.36216" lon="11.090075"><ele>547.0</ele><time>2026-04-03T12:12:14.571Z</time></trkpt><trkpt lat="44.3621533" lon="11.0899483"><ele>547.0</ele><time>2026-04-03T12:12:15.578Z</time></trkpt><trkpt lat="44.3621333" lon="11.0898217"><ele>547.0</ele><time>2026-04-03T12:12:16.567Z</time></trkpt><trkpt lat="44.3621067" lon="11.0896967"><ele>547.0</ele><time>2026-04-03T12:12:17.57Z</time></trkpt><trkpt lat="44.3620783" lon="11.0895817"><ele>547.0</ele><time>2026-04-03T12:12:18.572Z</time></trkpt><trkpt lat="44.3620583" lon="11.0894717"><ele>547.0</ele><time>2026-04-03T12:12:19.57Z</time></trkpt><trkpt lat="44.3620517" lon="11.0893617"><ele>545.5</ele><time>2026-04-03T12:12:20.569Z</time></trkpt><trkpt lat="44.3620517" lon="11.0892567"><ele>544.0</ele><time>2026-04-03T12:12:21.575Z</time></trkpt><trkpt lat="44.3620417" lon="11.0891517"><ele>542.5</ele><time>2026-04-03T12:12:22.571Z</time></trkpt><trkpt lat="44.3620083" lon="11.0890467"><ele>541.0</ele><time>2026-04-03T12:12:23.569Z</time></trkpt><trkpt lat="44.3619733" lon="11.0889383"><ele>539.5</ele><time>2026-04-03T12:12:24.58Z</time></trkpt><trkpt lat="44.361935" lon="11.088835"><ele>538.0</ele><time>2026-04-03T12:12:25.57Z</time></trkpt><trkpt lat="44.361905" lon="11.08873"><ele>537.3333333333334</ele><time>2026-04-03T12:12:26.572Z</time></trkpt><trkpt lat="44.36189" lon="11.0886233"><ele>536.6666666666667</ele><time>2026-04-03T12:12:27.572Z</time></trkpt><trkpt lat="44.3618867" lon="11.08851"><ele>536.0</ele><time>2026-04-03T12:12:28.568Z</time></trkpt><trkpt lat="44.3618883" lon="11.0884"><ele>535.3333333333334</ele><time>2026-04-03T12:12:29.576Z</time></trkpt><trkpt lat="44.3619017" lon="11.088295"><ele>534.6666666666666</ele><time>2026-04-03T12:12:30.571Z</time></trkpt><trkpt lat="44.3619117" lon="11.0882033"><ele>534.0</ele><time>2026-04-03T12:12:31.568Z</time></trkpt><trkpt lat="44.36192" lon="11.08804"><ele>532.8</ele><time>2026-04-03T12:12:33.572Z</time></trkpt><trkpt lat="44.3618733" lon="11.0878683"><ele>531.5999999999999</ele><time>2026-04-03T12:12:35.571Z</time></trkpt><trkpt lat="44.36183" lon="11.08778"><ele>530.4</ele><time>2026-04-03T12:12:36.568Z</time></trkpt><trkpt lat="44.3617817" lon="11.08768"><ele>529.1999999999999</ele><time>2026-04-03T12:12:37.569Z</time></trkpt><trkpt lat="44.3617333" lon="11.08757"><ele>528.0</ele><time>2026-04-03T12:12:38.57Z</time></trkpt><trkpt lat="44.3616867" lon="11.08746"><ele>527.0</ele><time>2026-04-03T12:12:39.567Z</time></trkpt><trkpt lat="44.3616383" lon="11.0873517"><ele>526.0</ele><time>2026-04-03T12:12:40.57Z</time></trkpt><trkpt lat="44.3615883" lon="11.08724"><ele>525.0</ele><time>2026-04-03T12:12:41.574Z</time></trkpt><trkpt lat="44.3615483" lon="11.0871183"><ele>524.0</ele><time>2026-04-03T12:12:42.569Z</time></trkpt><trkpt lat="44.3615183" lon="11.086965"><ele>523.0</ele><time>2026-04-03T12:12:43.57Z</time></trkpt><trkpt lat="44.3614867" lon="11.0867967"><ele>523.0</ele><time>2026-04-03T12:12:44.569Z</time></trkpt><trkpt lat="44.3614617" lon="11.0866267"><ele>523.0</ele><time>2026-04-03T12:12:45.569Z</time></trkpt><trkpt lat="44.361445" lon="11.08646"><ele>523.0</ele><time>2026-04-03T12:12:46.569Z</time></trkpt><trkpt lat="44.3614333" lon="11.0862967"><ele>523.0</ele><time>2026-04-03T12:12:47.571Z</time></trkpt><trkpt lat="44.36143" lon="11.0861433"><ele>521.8</ele><time>2026-04-03T12:12:48.573Z</time></trkpt><trkpt lat="44.3614217" lon="11.0859983"><ele>520.5999999999999</ele><time>2026-04-03T12:12:49.572Z</time></trkpt><trkpt lat="44.3614" lon="11.0858517"><ele>519.4000000000001</ele><time>2026-04-03T12:12:50.572Z</time></trkpt><trkpt lat="44.36136" lon="11.0857017"><ele>518.2</ele><time>2026-04-03T12:12:51.575Z</time></trkpt><trkpt lat="44.3613133" lon="11.0855483"><ele>517.0</ele><time>2026-04-03T12:12:52.574Z</time></trkpt><trkpt lat="44.361265" lon="11.0853933"><ele>518.0</ele><time>2026-04-03T12:12:53.57Z</time></trkpt><trkpt lat="44.3612217" lon="11.0852317"><ele>519.0</ele><time>2026-04-03T12:12:54.581Z</time></trkpt><trkpt lat="44.36119" lon="11.0850567"><ele>520.0</ele><time>2026-04-03T12:12:55.573Z</time></trkpt><trkpt lat="44.3611617" lon="11.0848817"><ele>521.0</ele><time>2026-04-03T12:12:56.572Z</time></trkpt><trkpt lat="44.3611433" lon="11.0847283"><ele>521.0</ele><time>2026-04-03T12:12:57.571Z</time></trkpt><trkpt lat="44.36112" lon="11.0845983"><ele>521.0</ele><time>2026-04-03T12:12:58.576Z</time></trkpt><trkpt lat="44.361075" lon="11.0844817"><ele>521.0</ele><time>2026-04-03T12:12:59.574Z</time></trkpt><trkpt lat="44.36102" lon="11.08438"><ele>521.0</ele><time>2026-04-03T12:13:00.572Z</time></trkpt><trkpt lat="44.3609617" lon="11.0842783"><ele>521.0</ele><time>2026-04-03T12:13:01.571Z</time></trkpt><trkpt lat="44.36092" lon="11.0841617"><ele>520.2</ele><time>2026-04-03T12:13:02.573Z</time></trkpt><trkpt lat="44.3608867" lon="11.0840267"><ele>519.4000000000001</ele><time>2026-04-03T12:13:03.569Z</time></trkpt><trkpt lat="44.3608717" lon="11.0838767"><ele>518.6</ele><time>2026-04-03T12:13:04.573Z</time></trkpt><trkpt lat="44.36086" lon="11.0837233"><ele>517.8000000000001</ele><time>2026-04-03T12:13:05.58Z</time></trkpt><trkpt lat="44.3608517" lon="11.0835667"><ele>517.0</ele><time>2026-04-03T12:13:06.571Z</time></trkpt><trkpt lat="44.3608383" lon="11.08341"><ele>516.2</ele><time>2026-04-03T12:13:07.571Z</time></trkpt><trkpt lat="44.3608367" lon="11.0832633"><ele>515.4000000000001</ele><time>2026-04-03T12:13:08.574Z</time></trkpt><trkpt lat="44.36085" lon="11.0831283"><ele>514.5999999999999</ele><time>2026-04-03T12:13:09.572Z</time></trkpt><trkpt lat="44.360885" lon="11.08302"><ele>513.8</ele><time>2026-04-03T12:13:10.572Z</time></trkpt><trkpt lat="44.3609333" lon="11.0829233"><ele>513.0</ele><time>2026-04-03T12:13:11.568Z</time></trkpt><trkpt lat="44.3609967" lon="11.0828517"><ele>513.0</ele><time>2026-04-03T12:13:12.571Z</time></trkpt><trkpt lat="44.3610917" lon="11.0828167"><ele>513.0</ele><time>2026-04-03T12:13:13.569Z</time></trkpt><trkpt lat="44.36119" lon="11.0828117"><ele>513.0</ele><time>2026-04-03T12:13:14.577Z</time></trkpt><trkpt lat="44.3612633" lon="11.0828033"><ele>513.0</ele><time>2026-04-03T12:13:15.573Z</time></trkpt><trkpt lat="44.3613333" lon="11.0827917"><ele>513.0</ele><time>2026-04-03T12:13:16.575Z</time></trkpt><trkpt lat="44.36136" lon="11.0826683"><ele>513.0</ele><time>2026-04-03T12:13:18.573Z</time></trkpt><trkpt lat="44.36133" lon="11.0825883"><ele>513.0</ele><time>2026-04-03T12:13:19.57Z</time></trkpt><trkpt lat="44.3612633" lon="11.082495"><ele>513.0</ele><time>2026-04-03T12:13:20.573Z</time></trkpt><trkpt lat="44.36121" lon="11.0823917"><ele>513.0</ele><time>2026-04-03T12:13:21.574Z</time></trkpt><trkpt lat="44.3611517" lon="11.0822483"><ele>513.0</ele><time>2026-04-03T12:13:22.57Z</time></trkpt><trkpt lat="44.3610833" lon="11.0820667"><ele>510.0</ele><time>2026-04-03T12:13:23.571Z</time></trkpt><trkpt lat="44.3610133" lon="11.0818967"><ele>507.0</ele><time>2026-04-03T12:13:24.572Z</time></trkpt><trkpt lat="44.3609517" lon="11.081735"><ele>504.0</ele><time>2026-04-03T12:13:25.572Z</time></trkpt><trkpt lat="44.360895" lon="11.0815783"><ele>501.0</ele><time>2026-04-03T12:13:26.57Z</time></trkpt><trkpt lat="44.360855" lon="11.0814283"><ele>499.4</ele><time>2026-04-03T12:13:27.572Z</time></trkpt><trkpt lat="44.36083" lon="11.081285"><ele>497.8</ele><time>2026-04-03T12:13:28.57Z</time></trkpt><trkpt lat="44.36083" lon="11.0811367"><ele>496.19999999999993</ele><time>2026-04-03T12:13:29.574Z</time></trkpt><trkpt lat="44.36085" lon="11.0809917"><ele>494.59999999999997</ele><time>2026-04-03T12:13:30.569Z</time></trkpt><trkpt lat="44.3608783" lon="11.080855"><ele>493.0</ele><time>2026-04-03T12:13:31.571Z</time></trkpt><trkpt lat="44.3609283" lon="11.0807333"><ele>491.4</ele><time>2026-04-03T12:13:32.57Z</time></trkpt><trkpt lat="44.36098" lon="11.0806217"><ele>489.79999999999995</ele><time>2026-04-03T12:13:33.569Z</time></trkpt><trkpt lat="44.361025" lon="11.08051"><ele>488.2</ele><time>2026-04-03T12:13:34.575Z</time></trkpt><trkpt lat="44.3610583" lon="11.0804083"><ele>486.6</ele><time>2026-04-03T12:13:35.572Z</time></trkpt><trkpt lat="44.3610533" lon="11.0802967"><ele>485.0</ele><time>2026-04-03T12:13:36.573Z</time></trkpt><trkpt lat="44.3609783" lon="11.0801433"><ele>485.0</ele><time>2026-04-03T12:13:37.574Z</time></trkpt><trkpt lat="44.3609017" lon="11.079995"><ele>485.0</ele><time>2026-04-03T12:13:38.574Z</time></trkpt><trkpt lat="44.360825" lon="11.07984"><ele>485.0</ele><time>2026-04-03T12:13:39.574Z</time></trkpt><trkpt lat="44.3607567" lon="11.07969"><ele>485.0</ele><time>2026-04-03T12:13:40.571Z</time></trkpt><trkpt lat="44.3606933" lon="11.07955"><ele>485.8</ele><time>2026-04-03T12:13:41.575Z</time></trkpt><trkpt lat="44.36063" lon="11.079425"><ele>486.6</ele><time>2026-04-03T12:13:42.575Z</time></trkpt><trkpt lat="44.3605633" lon="11.079315"><ele>487.4</ele><time>2026-04-03T12:13:43.574Z</time></trkpt><trkpt lat="44.36049" lon="11.0792233"><ele>488.2</ele><time>2026-04-03T12:13:44.57Z</time></trkpt><trkpt lat="44.3604167" lon="11.0791233"><ele>489.0</ele><time>2026-04-03T12:13:45.569Z</time></trkpt><trkpt lat="44.3603533" lon="11.0790017"><ele>487.0</ele><time>2026-04-03T12:13:46.571Z</time></trkpt><trkpt lat="44.3603033" lon="11.078865"><ele>485.0</ele><time>2026-04-03T12:13:47.569Z</time></trkpt><trkpt lat="44.3602533" lon="11.07874"><ele>483.0</ele><time>2026-04-03T12:13:48.575Z</time></trkpt><trkpt lat="44.3601967" lon="11.0786183"><ele>481.0</ele><time>2026-04-03T12:13:49.574Z</time></trkpt><trkpt lat="44.360125" lon="11.07851"><ele>479.0</ele><time>2026-04-03T12:13:50.573Z</time></trkpt><trkpt lat="44.3600467" lon="11.07841"><ele>479.0</ele><time>2026-04-03T12:13:51.571Z</time></trkpt><trkpt lat="44.3599733" lon="11.0783133"><ele>479.0</ele><time>2026-04-03T12:13:52.573Z</time></trkpt><trkpt lat="44.3599083" lon="11.0782067"><ele>479.0</ele><time>2026-04-03T12:13:53.572Z</time></trkpt><trkpt lat="44.3598467" lon="11.0780917"><ele>479.0</ele><time>2026-04-03T12:13:54.571Z</time></trkpt><trkpt lat="44.3597933" lon="11.077975"><ele>479.0</ele><time>2026-04-03T12:13:55.574Z</time></trkpt><trkpt lat="44.3597433" lon="11.0778583"><ele>478.4</ele><time>2026-04-03T12:13:56.574Z</time></trkpt><trkpt lat="44.3597083" lon="11.0777383"><ele>477.79999999999995</ele><time>2026-04-03T12:13:57.575Z</time></trkpt><trkpt lat="44.359695" lon="11.0776117"><ele>477.20000000000005</ele><time>2026-04-03T12:13:58.577Z</time></trkpt><trkpt lat="44.3597083" lon="11.0774883"><ele>476.6</ele><time>2026-04-03T12:13:59.57Z</time></trkpt><trkpt lat="44.359745" lon="11.0773567"><ele>476.0</ele><time>2026-04-03T12:14:00.572Z</time></trkpt><trkpt lat="44.3598033" lon="11.077205"><ele>478.25</ele><time>2026-04-03T12:14:01.567Z</time></trkpt><trkpt lat="44.3598733" lon="11.077055"><ele>480.5</ele><time>2026-04-03T12:14:02.574Z</time></trkpt><trkpt lat="44.3599433" lon="11.076925"><ele>482.75</ele><time>2026-04-03T12:14:03.569Z</time></trkpt><trkpt lat="44.3600283" lon="11.076815"><ele>485.0</ele><time>2026-04-03T12:14:04.573Z</time></trkpt><trkpt lat="44.3601183" lon="11.0767317"><ele>484.99999999999994</ele><time>2026-04-03T12:14:05.572Z</time></trkpt><trkpt lat="44.3602083" lon="11.0766717"><ele>485.0</ele><time>2026-04-03T12:14:06.576Z</time></trkpt><trkpt lat="44.36029" lon="11.0766183"><ele>485.0</ele><time>2026-04-03T12:14:07.573Z</time></trkpt><trkpt lat="44.3603683" lon="11.07656"><ele>485.0</ele><time>2026-04-03T12:14:08.571Z</time></trkpt><trkpt lat="44.3604417" lon="11.076505"><ele>484.99999999999994</ele><time>2026-04-03T12:14:09.574Z</time></trkpt><trkpt lat="44.3605017" lon="11.076445"><ele>485.0</ele><time>2026-04-03T12:14:10.57Z</time></trkpt><trkpt lat="44.3605533" lon="11.0763833"><ele>483.6</ele><time>2026-04-03T12:14:11.573Z</time></trkpt><trkpt lat="44.36059" lon="11.0762367"><ele>482.2</ele><time>2026-04-03T12:14:13.572Z</time></trkpt><trkpt lat="44.36062" lon="11.0761267"><ele>480.79999999999995</ele><time>2026-04-03T12:14:16.573Z</time></trkpt><trkpt lat="44.36073" lon="11.0761117"><ele>479.4</ele><time>2026-04-03T12:14:18.569Z</time></trkpt><trkpt lat="44.3608033" lon="11.0761083"><ele>478.0</ele><time>2026-04-03T12:14:19.574Z</time></trkpt><trkpt lat="44.3608817" lon="11.076115"><ele>478.0</ele><time>2026-04-03T12:14:20.573Z</time></trkpt><trkpt lat="44.3609633" lon="11.0761267"><ele>477.99999999999994</ele><time>2026-04-03T12:14:21.57Z</time></trkpt><trkpt lat="44.36105" lon="11.076135"><ele>477.99999999999994</ele><time>2026-04-03T12:14:22.571Z</time></trkpt><trkpt lat="44.3611417" lon="11.07614"><ele>478.0</ele><time>2026-04-03T12:14:23.571Z</time></trkpt><trkpt lat="44.3612383" lon="11.076145"><ele>478.0</ele><time>2026-04-03T12:14:24.571Z</time></trkpt><trkpt lat="44.361335" lon="11.0761433"><ele>476.00000000000006</ele><time>2026-04-03T12:14:25.571Z</time></trkpt><trkpt lat="44.3614283" lon="11.0761317"><ele>474.0</ele><time>2026-04-03T12:14:26.574Z</time></trkpt><trkpt lat="44.3615183" lon="11.07611"><ele>472.0</ele><time>2026-04-03T12:14:27.572Z</time></trkpt><trkpt lat="44.361605" lon="11.0760833"><ele>470.0</ele><time>2026-04-03T12:14:28.573Z</time></trkpt><trkpt lat="44.3616883" lon="11.07606"><ele>468.00000000000006</ele><time>2026-04-03T12:14:29.574Z</time></trkpt><trkpt lat="44.3617667" lon="11.0760433"><ele>466.0</ele><time>2026-04-03T12:14:30.572Z</time></trkpt><trkpt lat="44.361845" lon="11.0760467"><ele>466.00000000000006</ele><time>2026-04-03T12:14:31.571Z</time></trkpt><trkpt lat="44.3619267" lon="11.0760533"><ele>466.0</ele><time>2026-04-03T12:14:32.575Z</time></trkpt><trkpt lat="44.36201" lon="11.0760533"><ele>466.0</ele><time>2026-04-03T12:14:33.576Z</time></trkpt><trkpt lat="44.3620883" lon="11.0760533"><ele>466.0</ele><time>2026-04-03T12:14:34.572Z</time></trkpt><trkpt lat="44.3621667" lon="11.0760617"><ele>466.00000000000006</ele><time>2026-04-03T12:14:35.57Z</time></trkpt><trkpt lat="44.36224" lon="11.0760883"><ele>466.0</ele><time>2026-04-03T12:14:36.568Z</time></trkpt><trkpt lat="44.3623167" lon="11.07613"><ele>464.83333333333337</ele><time>2026-04-03T12:14:37.567Z</time></trkpt><trkpt lat="44.3623817" lon="11.0761817"><ele>463.6666666666667</ele><time>2026-04-03T12:14:38.57Z</time></trkpt><trkpt lat="44.3624467" lon="11.076225"><ele>462.5</ele><time>2026-04-03T12:14:39.576Z</time></trkpt><trkpt lat="44.3625133" lon="11.07625"><ele>461.33333333333337</ele><time>2026-04-03T12:14:40.57Z</time></trkpt><trkpt lat="44.3625867" lon="11.07625"><ele>460.1666666666667</ele><time>2026-04-03T12:14:41.571Z</time></trkpt><trkpt lat="44.3626667" lon="11.0762283"><ele>459.0</ele><time>2026-04-03T12:14:42.575Z</time></trkpt><trkpt lat="44.36275" lon="11.0761933"><ele>459.0</ele><time>2026-04-03T12:14:43.567Z</time></trkpt><trkpt lat="44.3628383" lon="11.0761583"><ele>459.0</ele><time>2026-04-03T12:14:44.575Z</time></trkpt><trkpt lat="44.3629167" lon="11.0761067"><ele>459.0</ele><time>2026-04-03T12:14:45.579Z</time></trkpt><trkpt lat="44.3629917" lon="11.07604"><ele>459.0</ele><time>2026-04-03T12:14:46.568Z</time></trkpt><trkpt lat="44.3630533" lon="11.075965"><ele>459.0</ele><time>2026-04-03T12:14:47.576Z</time></trkpt><trkpt lat="44.3631067" lon="11.0758883"><ele>459.0</ele><time>2026-04-03T12:14:48.573Z</time></trkpt><trkpt lat="44.3631633" lon="11.07583"><ele>457.1666666666667</ele><time>2026-04-03T12:14:49.573Z</time></trkpt><trkpt lat="44.3632217" lon="11.0757867"><ele>455.33333333333337</ele><time>2026-04-03T12:14:50.571Z</time></trkpt><trkpt lat="44.3632883" lon="11.0757767"><ele>453.5</ele><time>2026-04-03T12:14:51.567Z</time></trkpt><trkpt lat="44.363405" lon="11.075805"><ele>451.6666666666667</ele><time>2026-04-03T12:14:53.568Z</time></trkpt><trkpt lat="44.3634467" lon="11.0759383"><ele>449.83333333333337</ele><time>2026-04-03T12:14:55.57Z</time></trkpt><trkpt lat="44.36344" lon="11.0760333"><ele>448.0</ele><time>2026-04-03T12:14:56.569Z</time></trkpt><trkpt lat="44.3634183" lon="11.0761533"><ele>448.0</ele><time>2026-04-03T12:14:57.571Z</time></trkpt><trkpt lat="44.3633917" lon="11.0762833"><ele>447.99999999999994</ele><time>2026-04-03T12:14:58.569Z</time></trkpt><trkpt lat="44.3633717" lon="11.0764117"><ele>447.99999999999994</ele><time>2026-04-03T12:14:59.572Z</time></trkpt><trkpt lat="44.3633567" lon="11.07654"><ele>448.0</ele><time>2026-04-03T12:15:00.572Z</time></trkpt><trkpt lat="44.36335" lon="11.0766667"><ele>448.0</ele><time>2026-04-03T12:15:01.576Z</time></trkpt><trkpt lat="44.36334" lon="11.0767967"><ele>447.59999999999997</ele><time>2026-04-03T12:15:02.575Z</time></trkpt><trkpt lat="44.36333" lon="11.07692"><ele>447.19999999999993</ele><time>2026-04-03T12:15:03.575Z</time></trkpt><trkpt lat="44.3633117" lon="11.0770383"><ele>446.8</ele><time>2026-04-03T12:15:04.572Z</time></trkpt><trkpt lat="44.3632833" lon="11.0771517"><ele>446.4</ele><time>2026-04-03T12:15:05.57Z</time></trkpt><trkpt lat="44.3632333" lon="11.0772583"><ele>446.0</ele><time>2026-04-03T12:15:06.572Z</time></trkpt><trkpt lat="44.36317" lon="11.077365"><ele>445.3333333333333</ele><time>2026-04-03T12:15:07.573Z</time></trkpt><trkpt lat="44.3631017" lon="11.0774683"><ele>444.66666666666663</ele><time>2026-04-03T12:15:08.574Z</time></trkpt><trkpt lat="44.3630383" lon="11.0775667"><ele>444.0</ele><time>2026-04-03T12:15:09.57Z</time></trkpt><trkpt lat="44.3629817" lon="11.0776583"><ele>443.33333333333337</ele><time>2026-04-03T12:15:10.575Z</time></trkpt><trkpt lat="44.3629283" lon="11.07774"><ele>442.6666666666667</ele><time>2026-04-03T12:15:11.569Z</time></trkpt><trkpt lat="44.3628767" lon="11.0778167"><ele>442.0</ele><time>2026-04-03T12:15:12.572Z</time></trkpt><trkpt lat="44.362825" lon="11.0778833"><ele>442.00000000000006</ele><time>2026-04-03T12:15:13.568Z</time></trkpt><trkpt lat="44.3627767" lon="11.0779483"><ele>442.0</ele><time>2026-04-03T12:15:14.573Z</time></trkpt><trkpt lat="44.36273" lon="11.0780133"><ele>442.0</ele><time>2026-04-03T12:15:15.57Z</time></trkpt><trkpt lat="44.3626817" lon="11.0781717"><ele>442.0</ele><time>2026-04-03T12:15:17.568Z</time></trkpt><trkpt lat="44.362685" lon="11.0782667"><ele>442.00000000000006</ele><time>2026-04-03T12:15:18.572Z</time></trkpt><trkpt lat="44.36272" lon="11.0783567"><ele>442.0</ele><time>2026-04-03T12:15:19.57Z</time></trkpt><trkpt lat="44.3627667" lon="11.078435"><ele>441.50000000000006</ele><time>2026-04-03T12:15:20.579Z</time></trkpt><trkpt lat="44.3628217" lon="11.0785117"><ele>441.0</ele><time>2026-04-03T12:15:21.573Z</time></trkpt><trkpt lat="44.3628833" lon="11.0785767"><ele>440.5</ele><time>2026-04-03T12:15:22.567Z</time></trkpt><trkpt lat="44.3629517" lon="11.0786283"><ele>440.0</ele><time>2026-04-03T12:15:23.571Z</time></trkpt><trkpt lat="44.3630233" lon="11.078655"><ele>439.50000000000006</ele><time>2026-04-03T12:15:24.575Z</time></trkpt><trkpt lat="44.3631017" lon="11.0786517"><ele>439.0</ele><time>2026-04-03T12:15:25.576Z</time></trkpt><trkpt lat="44.3631833" lon="11.0786183"><ele>436.83333333333337</ele><time>2026-04-03T12:15:26.576Z</time></trkpt><trkpt lat="44.3632617" lon="11.078585"><ele>434.6666666666667</ele><time>2026-04-03T12:15:27.575Z</time></trkpt><trkpt lat="44.3633417" lon="11.07855"><ele>432.5</ele><time>2026-04-03T12:15:28.57Z</time></trkpt><trkpt lat="44.3634217" lon="11.07853"><ele>430.33333333333337</ele><time>2026-04-03T12:15:29.569Z</time></trkpt><trkpt lat="44.3634983" lon="11.0785233"><ele>428.1666666666667</ele><time>2026-04-03T12:15:30.572Z</time></trkpt><trkpt lat="44.363575" lon="11.07854"><ele>426.0</ele><time>2026-04-03T12:15:31.571Z</time></trkpt><trkpt lat="44.3636533" lon="11.0785767"><ele>425.99999999999994</ele><time>2026-04-03T12:15:32.575Z</time></trkpt><trkpt lat="44.363725" lon="11.078615"><ele>426.0</ele><time>2026-04-03T12:15:33.573Z</time></trkpt><trkpt lat="44.3637917" lon="11.078655"><ele>426.0</ele><time>2026-04-03T12:15:34.569Z</time></trkpt><trkpt lat="44.3638517" lon="11.0787033"><ele>426.0</ele><time>2026-04-03T12:15:35.569Z</time></trkpt><trkpt lat="44.3639033" lon="11.0787633"><ele>426.0</ele><time>2026-04-03T12:15:36.568Z</time></trkpt><trkpt lat="44.3639483" lon="11.0788317"><ele>425.99999999999994</ele><time>2026-04-03T12:15:37.576Z</time></trkpt><trkpt lat="44.3639917" lon="11.0789017"><ele>426.0</ele><time>2026-04-03T12:15:38.575Z</time></trkpt><trkpt lat="44.3640317" lon="11.07897"><ele>424.0</ele><time>2026-04-03T12:15:39.571Z</time></trkpt><trkpt lat="44.364125" lon="11.0790767"><ele>422.0</ele><time>2026-04-03T12:15:41.568Z</time></trkpt><trkpt lat="44.364205" lon="11.0791533"><ele>420.0</ele><time>2026-04-03T12:15:43.57Z</time></trkpt><trkpt lat="44.364265" lon="11.0792133"><ele>418.0</ele><time>2026-04-03T12:15:45.571Z</time></trkpt><trkpt lat="44.3643167" lon="11.0792683"><ele>416.0</ele><time>2026-04-03T12:15:47.567Z</time></trkpt><trkpt lat="44.3644283" lon="11.0793117"><ele>416.0</ele><time>2026-04-03T12:16:07.571Z</time></trkpt><trkpt lat="44.3645217" lon="11.0793183"><ele>416.0</ele><time>2026-04-03T12:16:09.573Z</time></trkpt><trkpt lat="44.36461" lon="11.0792883"><ele>416.0</ele><time>2026-04-03T12:16:11.576Z</time></trkpt><trkpt lat="44.3647017" lon="11.0792017"><ele>416.0</ele><time>2026-04-03T12:16:13.575Z</time></trkpt><trkpt lat="44.364785" lon="11.0790867"><ele>416.0</ele><time>2026-04-03T12:16:15.569Z</time></trkpt><trkpt lat="44.3648717" lon="11.07899"><ele>413.8</ele><time>2026-04-03T12:16:17.574Z</time></trkpt><trkpt lat="44.3649983" lon="11.0789267"><ele>411.6</ele><time>2026-04-03T12:16:19.575Z</time></trkpt><trkpt lat="44.3650717" lon="11.07891"><ele>409.4</ele><time>2026-04-03T12:16:20.572Z</time></trkpt><trkpt lat="44.3651367" lon="11.0789"><ele>407.2</ele><time>2026-04-03T12:16:21.574Z</time></trkpt><trkpt lat="44.36527" lon="11.0788883"><ele>405.0</ele><time>2026-04-03T12:16:23.577Z</time></trkpt><trkpt lat="44.3653417" lon="11.07889"><ele>405.0</ele><time>2026-04-03T12:16:24.571Z</time></trkpt><trkpt lat="44.3654067" lon="11.078905"><ele>405.0</ele><time>2026-04-03T12:16:25.571Z</time></trkpt><trkpt lat="44.3655283" lon="11.0789183"><ele>405.0</ele><time>2026-04-03T12:16:27.573Z</time></trkpt><trkpt lat="44.3656367" lon="11.07893"><ele>405.0</ele><time>2026-04-03T12:16:29.57Z</time></trkpt><trkpt lat="44.3657233" lon="11.07889"><ele>405.0</ele><time>2026-04-03T12:16:31.57Z</time></trkpt><trkpt lat="44.3657817" lon="11.078835"><ele>404.5</ele><time>2026-04-03T12:16:33.571Z</time></trkpt><trkpt lat="44.365855" lon="11.0788"><ele>404.0</ele><time>2026-04-03T12:16:36.575Z</time></trkpt><trkpt lat="44.3659183" lon="11.0787717"><ele>403.5</ele><time>2026-04-03T12:16:38.573Z</time></trkpt><trkpt lat="44.3659733" lon="11.07871"><ele>403.0</ele><time>2026-04-03T12:16:40.574Z</time></trkpt><trkpt lat="44.3659983" lon="11.0785717"><ele>402.5</ele><time>2026-04-03T12:16:42.569Z</time></trkpt><trkpt lat="44.3660433" lon="11.07843"><ele>402.0</ele><time>2026-04-03T12:16:44.572Z</time></trkpt><trkpt lat="44.3660833" lon="11.0783533"><ele>401.0</ele><time>2026-04-03T12:16:45.573Z</time></trkpt><trkpt lat="44.36613" lon="11.0782333"><ele>400.0</ele><time>2026-04-03T12:16:47.575Z</time></trkpt><trkpt lat="44.3661567" lon="11.078115"><ele>399.0</ele><time>2026-04-03T12:16:50.573Z</time></trkpt><trkpt lat="44.3661517" lon="11.0779683"><ele>398.0</ele><time>2026-04-03T12:16:52.575Z</time></trkpt><trkpt lat="44.36614" lon="11.07785"><ele>397.0</ele><time>2026-04-03T12:16:54.575Z</time></trkpt><trkpt lat="44.3661817" lon="11.0777783"><ele>396.0</ele><time>2026-04-03T12:16:57.57Z</time></trkpt><trkpt lat="44.36625" lon="11.0777517"><ele>396.0</ele><time>2026-04-03T12:17:00.567Z</time></trkpt><trkpt lat="44.3663233" lon="11.0777267"><ele>396.0</ele><time>2026-04-03T12:17:02.575Z</time></trkpt><trkpt lat="44.3664017" lon="11.0776283"><ele>396.0</ele><time>2026-04-03T12:17:04.572Z</time></trkpt><trkpt lat="44.3664283" lon="11.0774733"><ele>396.0</ele><time>2026-04-03T12:17:06.575Z</time></trkpt><trkpt lat="44.3664317" lon="11.0772917"><ele>396.0</ele><time>2026-04-03T12:17:08.575Z</time></trkpt><trkpt lat="44.3664283" lon="11.0772033"><ele>393.4</ele><time>2026-04-03T12:17:09.571Z</time></trkpt><trkpt lat="44.3664467" lon="11.07704"><ele>390.8</ele><time>2026-04-03T12:17:11.572Z</time></trkpt><trkpt lat="44.3664983" lon="11.0769083"><ele>388.2</ele><time>2026-04-03T12:17:13.572Z</time></trkpt><trkpt lat="44.3665517" lon="11.07681"><ele>385.59999999999997</ele><time>2026-04-03T12:17:15.572Z</time></trkpt><trkpt lat="44.36661" lon="11.0767133"><ele>383.0</ele><time>2026-04-03T12:17:17.569Z</time></trkpt><trkpt lat="44.3666733" lon="11.0766117"><ele>382.79999999999995</ele><time>2026-04-03T12:17:19.575Z</time></trkpt><trkpt lat="44.3667633" lon="11.076505"><ele>382.6</ele><time>2026-04-03T12:17:21.576Z</time></trkpt><trkpt lat="44.3668483" lon="11.0763983"><ele>382.4</ele><time>2026-04-03T12:17:23.573Z</time></trkpt><trkpt lat="44.3669267" lon="11.0762983"><ele>382.20000000000005</ele><time>2026-04-03T12:17:25.57Z</time></trkpt><trkpt lat="44.3669833" lon="11.076225"><ele>382.0</ele><time>2026-04-03T12:17:27.57Z</time></trkpt><trkpt lat="44.3670467" lon="11.076155"><ele>382.0</ele><time>2026-04-03T12:17:29.571Z</time></trkpt><trkpt lat="44.3671217" lon="11.07606"><ele>382.0</ele><time>2026-04-03T12:17:31.571Z</time></trkpt><trkpt lat="44.3671933" lon="11.07593"><ele>382.0</ele><time>2026-04-03T12:17:33.571Z</time></trkpt><trkpt lat="44.3672633" lon="11.0758183"><ele>382.0</ele><time>2026-04-03T12:17:35.572Z</time></trkpt><trkpt lat="44.3673317" lon="11.075715"><ele>382.0</ele><time>2026-04-03T12:17:37.576Z</time></trkpt><trkpt lat="44.36739" lon="11.075595"><ele>378.8</ele><time>2026-04-03T12:17:39.578Z</time></trkpt><trkpt lat="44.3674433" lon="11.0755183"><ele>375.6</ele><time>2026-04-03T12:17:41.571Z</time></trkpt><trkpt lat="44.3675233" lon="11.075455"><ele>372.40000000000003</ele><time>2026-04-03T12:17:43.613Z</time></trkpt><trkpt lat="44.3676267" lon="11.0753933"><ele>369.20000000000005</ele><time>2026-04-03T12:17:45.574Z</time></trkpt><trkpt lat="44.3677333" lon="11.0753167"><ele>366.0</ele><time>2026-04-03T12:17:47.571Z</time></trkpt><trkpt lat="44.3678417" lon="11.0752667"><ele>366.0</ele><time>2026-04-03T12:17:49.576Z</time></trkpt><trkpt lat="44.367935" lon="11.0752067"><ele>366.0</ele><time>2026-04-03T12:17:51.575Z</time></trkpt><trkpt lat="44.3680417" lon="11.0751383"><ele>366.0</ele><time>2026-04-03T12:17:53.574Z</time></trkpt><trkpt lat="44.36814" lon="11.0750583"><ele>366.0</ele><time>2026-04-03T12:17:55.569Z</time></trkpt><trkpt lat="44.368205" lon="11.074985"><ele>366.0</ele><time>2026-04-03T12:17:57.573Z</time></trkpt><trkpt lat="44.368275" lon="11.07493"><ele>364.3333333333333</ele><time>2026-04-03T12:17:59.577Z</time></trkpt><trkpt lat="44.3683583" lon="11.0748867"><ele>362.6666666666667</ele><time>2026-04-03T12:18:01.575Z</time></trkpt><trkpt lat="44.3684467" lon="11.074845"><ele>361.0</ele><time>2026-04-03T12:18:03.574Z</time></trkpt><trkpt lat="44.368535" lon="11.07485"><ele>359.33333333333337</ele><time>2026-04-03T12:18:06.575Z</time></trkpt><trkpt lat="44.3684983" lon="11.0747683"><ele>357.6666666666667</ele><time>2026-04-03T12:18:10.572Z</time></trkpt><trkpt lat="44.36843" lon="11.0746867"><ele>356.0</ele><time>2026-04-03T12:18:13.572Z</time></trkpt><trkpt lat="44.36845" lon="11.0745583"><ele>355.99999999999994</ele><time>2026-04-03T12:18:16.574Z</time></trkpt><trkpt lat="44.3684617" lon="11.0744617"><ele>356.0</ele><time>2026-04-03T12:18:18.572Z</time></trkpt><trkpt lat="44.3684533" lon="11.0743583"><ele>356.0</ele><time>2026-04-03T12:18:20.574Z</time></trkpt><trkpt lat="44.3684767" lon="11.0742517"><ele>356.0</ele><time>2026-04-03T12:18:22.57Z</time></trkpt><trkpt lat="44.368515" lon="11.0741683"><ele>356.0</ele><time>2026-04-03T12:18:24.573Z</time></trkpt><trkpt lat="44.3685676" lon="11.0741187"><ele>355.99999999999994</ele><time>2026-04-03T12:18:26.573Z</time></trkpt><trkpt lat="44.3686302" lon="11.0741026"><ele>356.0</ele><time>2026-04-03T12:18:28.591Z</time></trkpt><trkpt lat="44.3687032" lon="11.0740606"><ele>356.6666666666667</ele><time>2026-04-03T12:18:30.575Z</time></trkpt><trkpt lat="44.3688057" lon="11.0740266"><ele>357.33333333333337</ele><time>2026-04-03T12:18:32.572Z</time></trkpt><trkpt lat="44.3688737" lon="11.0740173"><ele>358.0</ele><time>2026-04-03T12:18:33.571Z</time></trkpt><trkpt lat="44.3689397" lon="11.0740112"><ele>358.6666666666667</ele><time>2026-04-03T12:18:34.571Z</time></trkpt><trkpt lat="44.3690334" lon="11.0739983"><ele>359.3333333333333</ele><time>2026-04-03T12:18:36.57Z</time></trkpt><trkpt lat="44.3691183" lon="11.0740533"><ele>360.0</ele><time>2026-04-03T12:18:39.578Z</time></trkpt><trkpt lat="44.3691883" lon="11.074065"><ele>360.0</ele><time>2026-04-03T12:18:41.569Z</time></trkpt><trkpt lat="44.3693033" lon="11.0739967"><ele>360.0</ele><time>2026-04-03T12:18:43.571Z</time></trkpt><trkpt lat="44.3693817" lon="11.0739333"><ele>360.0</ele><time>2026-04-03T12:18:44.569Z</time></trkpt><trkpt lat="44.36946" lon="11.0738717"><ele>360.0</ele><time>2026-04-03T12:18:45.574Z</time></trkpt><trkpt lat="44.3695317" lon="11.0738217"><ele>360.0</ele><time>2026-04-03T12:18:46.573Z</time></trkpt><trkpt lat="44.369595" lon="11.07378"><ele>360.0</ele><time>2026-04-03T12:18:47.571Z</time></trkpt><trkpt lat="44.3696733" lon="11.0737517"><ele>360.0</ele><time>2026-04-03T12:18:49.571Z</time></trkpt><trkpt lat="44.3697546" lon="11.0737365"><ele>360.0</ele><time>2026-04-03T12:18:52.572Z</time></trkpt><trkpt lat="44.369811" lon="11.0736347"><ele>360.0</ele><time>2026-04-03T12:18:55.575Z</time></trkpt><trkpt lat="44.3698817" lon="11.0735183"><ele>360.0</ele><time>2026-04-03T12:18:57.571Z</time></trkpt><trkpt lat="44.3699417" lon="11.0734733"><ele>360.0</ele><time>2026-04-03T12:18:58.572Z</time></trkpt><trkpt lat="44.3700183" lon="11.073445"><ele>359.1666666666667</ele><time>2026-04-03T12:18:59.571Z</time></trkpt><trkpt lat="44.3700883" lon="11.07342"><ele>358.3333333333333</ele><time>2026-04-03T12:19:00.574Z</time></trkpt><trkpt lat="44.3701517" lon="11.0733967"><ele>357.5</ele><time>2026-04-03T12:19:01.574Z</time></trkpt><trkpt lat="44.370215" lon="11.0733583"><ele>356.66666666666663</ele><time>2026-04-03T12:19:02.573Z</time></trkpt><trkpt lat="44.370285" lon="11.0732967"><ele>355.8333333333333</ele><time>2026-04-03T12:19:03.574Z</time></trkpt><trkpt lat="44.37035" lon="11.0732267"><ele>355.0</ele><time>2026-04-03T12:19:04.569Z</time></trkpt><trkpt lat="44.3704117" lon="11.073155"><ele>355.0</ele><time>2026-04-03T12:19:05.572Z</time></trkpt><trkpt lat="44.3704833" lon="11.073085"><ele>355.0</ele><time>2026-04-03T12:19:06.571Z</time></trkpt><trkpt lat="44.3705617" lon="11.0730017"><ele>355.0</ele><time>2026-04-03T12:19:07.569Z</time></trkpt><trkpt lat="44.3706417" lon="11.0729167"><ele>355.0</ele><time>2026-04-03T12:19:08.574Z</time></trkpt><trkpt lat="44.3707233" lon="11.0728317"><ele>355.0</ele><time>2026-04-03T12:19:09.572Z</time></trkpt><trkpt lat="44.3708067" lon="11.072745"><ele>351.5</ele><time>2026-04-03T12:19:10.571Z</time></trkpt><trkpt lat="44.3708767" lon="11.0726733"><ele>348.0</ele><time>2026-04-03T12:19:11.569Z</time></trkpt><trkpt lat="44.3709367" lon="11.072605"><ele>344.5</ele><time>2026-04-03T12:19:12.573Z</time></trkpt><trkpt lat="44.3710117" lon="11.0726133"><ele>341.0</ele><time>2026-04-03T12:19:15.571Z</time></trkpt><trkpt lat="44.37104" lon="11.0727217"><ele>337.5</ele><time>2026-04-03T12:19:18.572Z</time></trkpt><trkpt lat="44.37115" lon="11.0727183"><ele>334.0</ele><time>2026-04-03T12:19:21.573Z</time></trkpt><trkpt lat="44.3712583" lon="11.0726833"><ele>334.0</ele><time>2026-04-03T12:19:23.57Z</time></trkpt><trkpt lat="44.3713517" lon="11.0727067"><ele>334.0</ele><time>2026-04-03T12:19:25.569Z</time></trkpt><trkpt lat="44.371415" lon="11.0727483"><ele>334.0</ele><time>2026-04-03T12:19:27.572Z</time></trkpt><trkpt lat="44.3715083" lon="11.072635"><ele>334.0</ele><time>2026-04-03T12:22:50.573Z</time></trkpt><trkpt lat="44.371585" lon="11.0724967"><ele>334.0</ele><time>2026-04-03T12:22:52.57Z</time></trkpt><trkpt lat="44.371625" lon="11.0724133"><ele>331.6</ele><time>2026-04-03T12:22:53.569Z</time></trkpt><trkpt lat="44.3716717" lon="11.0722917"><ele>329.2</ele><time>2026-04-03T12:22:54.573Z</time></trkpt><trkpt lat="44.3717117" lon="11.0721533"><ele>326.8</ele><time>2026-04-03T12:22:55.569Z</time></trkpt><trkpt lat="44.3717517" lon="11.0720133"><ele>324.40000000000003</ele><time>2026-04-03T12:22:56.579Z</time></trkpt><trkpt lat="44.3717867" lon="11.0718633"><ele>322.0</ele><time>2026-04-03T12:22:57.572Z</time></trkpt><trkpt lat="44.3718183" lon="11.0716983"><ele>323.5</ele><time>2026-04-03T12:22:58.568Z</time></trkpt><trkpt lat="44.37185" lon="11.0715333"><ele>325.0</ele><time>2026-04-03T12:22:59.573Z</time></trkpt><trkpt lat="44.371875" lon="11.0713717"><ele>326.5</ele><time>2026-04-03T12:23:00.571Z</time></trkpt><trkpt lat="44.3718967" lon="11.071205"><ele>328.0</ele><time>2026-04-03T12:23:01.577Z</time></trkpt><trkpt lat="44.3719217" lon="11.0710283"><ele>328.0</ele><time>2026-04-03T12:23:02.575Z</time></trkpt><trkpt lat="44.371945" lon="11.0708567"><ele>328.0</ele><time>2026-04-03T12:23:03.578Z</time></trkpt><trkpt lat="44.3719667" lon="11.07069"><ele>328.0</ele><time>2026-04-03T12:23:04.574Z</time></trkpt><trkpt lat="44.3719833" lon="11.0705317"><ele>328.0</ele><time>2026-04-03T12:23:05.572Z</time></trkpt><trkpt lat="44.3720017" lon="11.0703733"><ele>327.5</ele><time>2026-04-03T12:23:06.573Z</time></trkpt><trkpt lat="44.3720183" lon="11.0702133"><ele>327.0</ele><time>2026-04-03T12:23:07.572Z</time></trkpt><trkpt lat="44.3720317" lon="11.0700517"><ele>326.5</ele><time>2026-04-03T12:23:08.576Z</time></trkpt><trkpt lat="44.3720483" lon="11.069895"><ele>326.0</ele><time>2026-04-03T12:23:09.573Z</time></trkpt><trkpt lat="44.3720633" lon="11.069735"><ele>325.75</ele><time>2026-04-03T12:23:10.572Z</time></trkpt><trkpt lat="44.3720883" lon="11.0695817"><ele>325.5</ele><time>2026-04-03T12:23:11.577Z</time></trkpt><trkpt lat="44.3721233" lon="11.0694367"><ele>325.25</ele><time>2026-04-03T12:23:12.569Z</time></trkpt><trkpt lat="44.3721633" lon="11.06928"><ele>325.0</ele><time>2026-04-03T12:23:13.579Z</time></trkpt><trkpt lat="44.3722083" lon="11.06913"><ele>322.5</ele><time>2026-04-03T12:23:14.575Z</time></trkpt><trkpt lat="44.3722533" lon="11.068975"><ele>320.0</ele><time>2026-04-03T12:23:15.568Z</time></trkpt><trkpt lat="44.3723067" lon="11.068825"><ele>317.5</ele><time>2026-04-03T12:23:16.574Z</time></trkpt><trkpt lat="44.3723617" lon="11.06868"><ele>315.0</ele><time>2026-04-03T12:23:17.57Z</time></trkpt><trkpt lat="44.3724183" lon="11.0685383"><ele>315.0</ele><time>2026-04-03T12:23:18.573Z</time></trkpt><trkpt lat="44.372485" lon="11.0683967"><ele>315.0</ele><time>2026-04-03T12:23:19.572Z</time></trkpt><trkpt lat="44.3725583" lon="11.0682617"><ele>315.0</ele><time>2026-04-03T12:23:20.571Z</time></trkpt><trkpt lat="44.3726317" lon="11.06813"><ele>315.0</ele><time>2026-04-03T12:23:21.569Z</time></trkpt><trkpt lat="44.3727067" lon="11.06801"><ele>314.1666666666667</ele><time>2026-04-03T12:23:22.573Z</time></trkpt><trkpt lat="44.3727783" lon="11.0678983"><ele>313.3333333333333</ele><time>2026-04-03T12:23:23.569Z</time></trkpt><trkpt lat="44.3728417" lon="11.067805"><ele>312.5</ele><time>2026-04-03T12:23:24.571Z</time></trkpt><trkpt lat="44.372895" lon="11.0677267"><ele>311.66666666666663</ele><time>2026-04-03T12:23:25.569Z</time></trkpt><trkpt lat="44.3729417" lon="11.0676633"><ele>310.8333333333333</ele><time>2026-04-03T12:23:26.571Z</time></trkpt><trkpt lat="44.3729733" lon="11.0675417"><ele>310.0</ele><time>2026-04-03T12:23:28.577Z</time></trkpt><trkpt lat="44.3728933" lon="11.0674167"><ele>308.5</ele><time>2026-04-03T12:23:30.573Z</time></trkpt><trkpt lat="44.3728317" lon="11.067335"><ele>307.0</ele><time>2026-04-03T12:23:31.57Z</time></trkpt><trkpt lat="44.3727367" lon="11.0672417"><ele>305.5</ele><time>2026-04-03T12:23:32.569Z</time></trkpt><trkpt lat="44.3726317" lon="11.067135"><ele>304.0</ele><time>2026-04-03T12:23:33.57Z</time></trkpt><trkpt lat="44.3725267" lon="11.0670217"><ele>304.0</ele><time>2026-04-03T12:23:34.573Z</time></trkpt><trkpt lat="44.3724267" lon="11.06692"><ele>304.0</ele><time>2026-04-03T12:23:35.58Z</time></trkpt><trkpt lat="44.372355" lon="11.0668283"><ele>304.0</ele><time>2026-04-03T12:23:36.575Z</time></trkpt><trkpt lat="44.372285" lon="11.066735"><ele>304.0</ele><time>2026-04-03T12:23:37.572Z</time></trkpt><trkpt lat="44.3722033" lon="11.0666383"><ele>304.0</ele><time>2026-04-03T12:23:38.571Z</time></trkpt><trkpt lat="44.37211" lon="11.0665483"><ele>307.4</ele><time>2026-04-03T12:23:39.57Z</time></trkpt><trkpt lat="44.37201" lon="11.066465"><ele>310.79999999999995</ele><time>2026-04-03T12:23:40.573Z</time></trkpt><trkpt lat="44.371905" lon="11.0663967"><ele>314.20000000000005</ele><time>2026-04-03T12:23:41.571Z</time></trkpt><trkpt lat="44.3718017" lon="11.0663467"><ele>317.6</ele><time>2026-04-03T12:23:42.571Z</time></trkpt><trkpt lat="44.371705" lon="11.0663033"><ele>321.0</ele><time>2026-04-03T12:23:43.575Z</time></trkpt><trkpt lat="44.371615" lon="11.06626"><ele>321.0</ele><time>2026-04-03T12:23:44.578Z</time></trkpt><trkpt lat="44.3715283" lon="11.066205"><ele>321.0</ele><time>2026-04-03T12:23:45.569Z</time></trkpt><trkpt lat="44.37144" lon="11.0661467"><ele>321.0</ele><time>2026-04-03T12:23:46.572Z</time></trkpt><trkpt lat="44.3713667" lon="11.0661"><ele>321.0</ele><time>2026-04-03T12:23:47.571Z</time></trkpt><trkpt lat="44.3712883" lon="11.0660633"><ele>321.0</ele><time>2026-04-03T12:23:48.572Z</time></trkpt><trkpt lat="44.371205" lon="11.06607"><ele>321.0</ele><time>2026-04-03T12:23:49.572Z</time></trkpt><trkpt lat="44.3711283" lon="11.066095"><ele>325.1666666666667</ele><time>2026-04-03T12:23:50.579Z</time></trkpt><trkpt lat="44.3710583" lon="11.0661167"><ele>329.3333333333333</ele><time>2026-04-03T12:23:51.575Z</time></trkpt><trkpt lat="44.3709433" lon="11.0661217"><ele>333.5</ele><time>2026-04-03T12:23:53.574Z</time></trkpt><trkpt lat="44.3708733" lon="11.0660933"><ele>337.66666666666663</ele><time>2026-04-03T12:23:54.574Z</time></trkpt><trkpt lat="44.3707933" lon="11.0660767"><ele>341.8333333333333</ele><time>2026-04-03T12:23:55.573Z</time></trkpt><trkpt lat="44.3707233" lon="11.066075"><ele>346.0</ele><time>2026-04-03T12:23:56.575Z</time></trkpt><trkpt lat="44.37065" lon="11.066085"><ele>346.0</ele><time>2026-04-03T12:23:57.57Z</time></trkpt><trkpt lat="44.3705733" lon="11.0661167"><ele>346.0</ele><time>2026-04-03T12:23:58.569Z</time></trkpt><trkpt lat="44.3704983" lon="11.066175"><ele>346.0</ele><time>2026-04-03T12:23:59.571Z</time></trkpt><trkpt lat="44.3704367" lon="11.0662617"><ele>346.0</ele><time>2026-04-03T12:24:00.573Z</time></trkpt><trkpt lat="44.370385" lon="11.0663717"><ele>346.0</ele><time>2026-04-03T12:24:01.576Z</time></trkpt><trkpt lat="44.3703417" lon="11.06648"><ele>346.0</ele><time>2026-04-03T12:24:02.572Z</time></trkpt><trkpt lat="44.3703267" lon="11.0665883"><ele>351.20000000000005</ele><time>2026-04-03T12:24:03.571Z</time></trkpt><trkpt lat="44.3703333" lon="11.06669"><ele>356.40000000000003</ele><time>2026-04-03T12:24:04.572Z</time></trkpt><trkpt lat="44.370375" lon="11.06676"><ele>361.6</ele><time>2026-04-03T12:24:05.574Z</time></trkpt><trkpt lat="44.3705" lon="11.066815"><ele>366.8</ele><time>2026-04-03T12:24:07.576Z</time></trkpt><trkpt lat="44.3705867" lon="11.066855"><ele>372.0</ele><time>2026-04-03T12:24:08.574Z</time></trkpt><trkpt lat="44.3706817" lon="11.06693"><ele>372.0</ele><time>2026-04-03T12:24:09.57Z</time></trkpt><trkpt lat="44.3707633" lon="11.06703"><ele>372.0</ele><time>2026-04-03T12:24:10.57Z</time></trkpt><trkpt lat="44.3708467" lon="11.06712"><ele>372.0</ele><time>2026-04-03T12:24:11.572Z</time></trkpt><trkpt lat="44.370925" lon="11.0671783"><ele>372.0</ele><time>2026-04-03T12:24:12.575Z</time></trkpt><trkpt lat="44.370995" lon="11.0672533"><ele>372.0</ele><time>2026-04-03T12:24:13.572Z</time></trkpt><trkpt lat="44.37103" lon="11.0673667"><ele>375.8</ele><time>2026-04-03T12:24:14.575Z</time></trkpt><trkpt lat="44.3710467" lon="11.06747"><ele>379.6</ele><time>2026-04-03T12:24:15.571Z</time></trkpt><trkpt lat="44.371055" lon="11.06756"><ele>383.40000000000003</ele><time>2026-04-03T12:24:16.568Z</time></trkpt><trkpt lat="44.37095" lon="11.0675617"><ele>387.20000000000005</ele><time>2026-04-03T12:24:19.575Z</time></trkpt><trkpt lat="44.370865" lon="11.0674733"><ele>391.0</ele><time>2026-04-03T12:24:21.575Z</time></trkpt><trkpt lat="44.3707467" lon="11.0675383"><ele>391.0</ele><time>2026-04-03T12:24:23.58Z</time></trkpt><trkpt lat="44.37067" lon="11.0676133"><ele>391.0</ele><time>2026-04-03T12:24:24.571Z</time></trkpt><trkpt lat="44.3705883" lon="11.06769"><ele>391.0</ele><time>2026-04-03T12:24:25.571Z</time></trkpt><trkpt lat="44.3705" lon="11.067775"><ele>391.0</ele><time>2026-04-03T12:24:26.572Z</time></trkpt><trkpt lat="44.3704117" lon="11.0678533"><ele>391.0</ele><time>2026-04-03T12:24:27.574Z</time></trkpt><trkpt lat="44.37031" lon="11.0679183"><ele>393.20000000000005</ele><time>2026-04-03T12:24:28.573Z</time></trkpt><trkpt lat="44.3702067" lon="11.067975"><ele>395.40000000000003</ele><time>2026-04-03T12:24:29.57Z</time></trkpt><trkpt lat="44.3701083" lon="11.0680217"><ele>397.6</ele><time>2026-04-03T12:24:30.573Z</time></trkpt><trkpt lat="44.370025" lon="11.0680733"><ele>399.8</ele><time>2026-04-03T12:24:31.572Z</time></trkpt><trkpt lat="44.3699517" lon="11.068145"><ele>402.0</ele><time>2026-04-03T12:24:32.569Z</time></trkpt><trkpt lat="44.3698867" lon="11.0682083"><ele>402.0</ele><time>2026-04-03T12:24:33.572Z</time></trkpt><trkpt lat="44.3698233" lon="11.068275"><ele>402.0</ele><time>2026-04-03T12:24:34.574Z</time></trkpt><trkpt lat="44.3697433" lon="11.0683017"><ele>402.0</ele><time>2026-04-03T12:24:35.57Z</time></trkpt><trkpt lat="44.3696533" lon="11.0683133"><ele>402.0</ele><time>2026-04-03T12:24:36.575Z</time></trkpt><trkpt lat="44.369565" lon="11.0683433"><ele>402.0</ele><time>2026-04-03T12:24:37.57Z</time></trkpt><trkpt lat="44.3694883" lon="11.0683667"><ele>402.0</ele><time>2026-04-03T12:24:38.578Z</time></trkpt><trkpt lat="44.3694217" lon="11.0683983"><ele>405.4285714285714</ele><time>2026-04-03T12:24:39.57Z</time></trkpt><trkpt lat="44.3693833" lon="11.0684817"><ele>408.8571428571429</ele><time>2026-04-03T12:24:40.57Z</time></trkpt><trkpt lat="44.3693617" lon="11.0685717"><ele>412.2857142857143</ele><time>2026-04-03T12:24:41.57Z</time></trkpt><trkpt lat="44.3693483" lon="11.068665"><ele>415.71428571428567</ele><time>2026-04-03T12:24:42.574Z</time></trkpt><trkpt lat="44.3693267" lon="11.06875"><ele>419.1428571428571</ele><time>2026-04-03T12:24:43.569Z</time></trkpt><trkpt lat="44.369295" lon="11.0688267"><ele>422.57142857142856</ele><time>2026-04-03T12:24:44.573Z</time></trkpt><trkpt lat="44.3692533" lon="11.068895"><ele>426.0</ele><time>2026-04-03T12:24:45.572Z</time></trkpt><trkpt lat="44.3692033" lon="11.0689567"><ele>425.99999999999994</ele><time>2026-04-03T12:24:46.574Z</time></trkpt><trkpt lat="44.3691467" lon="11.0690133"><ele>426.0</ele><time>2026-04-03T12:24:47.574Z</time></trkpt><trkpt lat="44.3690883" lon="11.0690633"><ele>426.0</ele><time>2026-04-03T12:24:48.569Z</time></trkpt><trkpt lat="44.3690268" lon="11.0691187"><ele>426.0</ele><time>2026-04-03T12:24:49.572Z</time></trkpt><trkpt lat="44.3689591" lon="11.069172"><ele>426.0</ele><time>2026-04-03T12:24:50.581Z</time></trkpt><trkpt lat="44.3688946" lon="11.0692256"><ele>425.99999999999994</ele><time>2026-04-03T12:24:51.57Z</time></trkpt><trkpt lat="44.3688362" lon="11.0692788"><ele>426.0</ele><time>2026-04-03T12:24:52.569Z</time></trkpt><trkpt lat="44.3687798" lon="11.0693306"><ele>428.85714285714283</ele><time>2026-04-03T12:24:53.572Z</time></trkpt><trkpt lat="44.3687225" lon="11.0693822"><ele>431.7142857142857</ele><time>2026-04-03T12:24:54.57Z</time></trkpt><trkpt lat="44.3686655" lon="11.0694393"><ele>434.57142857142856</ele><time>2026-04-03T12:24:55.568Z</time></trkpt><trkpt lat="44.3686061" lon="11.0695012"><ele>437.42857142857144</ele><time>2026-04-03T12:24:56.57Z</time></trkpt><trkpt lat="44.3685495" lon="11.0695631"><ele>440.2857142857143</ele><time>2026-04-03T12:24:57.573Z</time></trkpt><trkpt lat="44.3684906" lon="11.0696203"><ele>443.1428571428571</ele><time>2026-04-03T12:24:58.568Z</time></trkpt><trkpt lat="44.3684301" lon="11.0696697"><ele>446.0</ele><time>2026-04-03T12:24:59.574Z</time></trkpt><trkpt lat="44.3683711" lon="11.069717"><ele>446.0</ele><time>2026-04-03T12:25:00.571Z</time></trkpt><trkpt lat="44.3683039" lon="11.0697545"><ele>446.0</ele><time>2026-04-03T12:25:01.573Z</time></trkpt><trkpt lat="44.368234" lon="11.069785"><ele>446.0</ele><time>2026-04-03T12:25:02.573Z</time></trkpt><trkpt lat="44.3681618" lon="11.0698109"><ele>446.0</ele><time>2026-04-03T12:25:03.573Z</time></trkpt><trkpt lat="44.3680909" lon="11.069833"><ele>446.0</ele><time>2026-04-03T12:25:04.573Z</time></trkpt><trkpt lat="44.3680216" lon="11.0698582"><ele>446.0</ele><time>2026-04-03T12:25:05.57Z</time></trkpt><trkpt lat="44.3679515" lon="11.0698905"><ele>446.0</ele><time>2026-04-03T12:25:06.572Z</time></trkpt><trkpt lat="44.3678845" lon="11.0699234"><ele>447.49999999999994</ele><time>2026-04-03T12:25:07.57Z</time></trkpt><trkpt lat="44.3678149" lon="11.0699352"><ele>449.0</ele><time>2026-04-03T12:25:08.571Z</time></trkpt><trkpt lat="44.3677457" lon="11.0699267"><ele>450.5</ele><time>2026-04-03T12:25:09.567Z</time></trkpt><trkpt lat="44.367674" lon="11.0699024"><ele>452.0</ele><time>2026-04-03T12:25:10.573Z</time></trkpt><trkpt lat="44.3675982" lon="11.0698692"><ele>453.49999999999994</ele><time>2026-04-03T12:25:11.57Z</time></trkpt><trkpt lat="44.3675194" lon="11.0698395"><ele>455.0</ele><time>2026-04-03T12:25:12.577Z</time></trkpt><trkpt lat="44.3674418" lon="11.0698176"><ele>455.0</ele><time>2026-04-03T12:25:13.57Z</time></trkpt><trkpt lat="44.3673566" lon="11.0697906"><ele>455.0</ele><time>2026-04-03T12:25:14.572Z</time></trkpt><trkpt lat="44.3672678" lon="11.0697575"><ele>455.0</ele><time>2026-04-03T12:25:15.574Z</time></trkpt><trkpt lat="44.3671775" lon="11.0697258"><ele>455.0</ele><time>2026-04-03T12:25:16.574Z</time></trkpt><trkpt lat="44.3670855" lon="11.069694"><ele>455.0</ele><time>2026-04-03T12:25:17.573Z</time></trkpt><trkpt lat="44.3669925" lon="11.0696611"><ele>457.57142857142856</ele><time>2026-04-03T12:25:18.57Z</time></trkpt><trkpt lat="44.3669087" lon="11.0696362"><ele>460.1428571428571</ele><time>2026-04-03T12:25:19.568Z</time></trkpt><trkpt lat="44.3668366" lon="11.0696241"><ele>462.7142857142857</ele><time>2026-04-03T12:25:20.575Z</time></trkpt><trkpt lat="44.3667718" lon="11.069629"><ele>465.2857142857143</ele><time>2026-04-03T12:25:21.57Z</time></trkpt><trkpt lat="44.3667092" lon="11.0696642"><ele>467.85714285714283</ele><time>2026-04-03T12:25:22.57Z</time></trkpt><trkpt lat="44.3666425" lon="11.0697096"><ele>470.42857142857144</ele><time>2026-04-03T12:25:23.571Z</time></trkpt><trkpt lat="44.3665826" lon="11.0697812"><ele>473.0</ele><time>2026-04-03T12:25:24.575Z</time></trkpt><trkpt lat="44.3665419" lon="11.0698901"><ele>471.99999999999994</ele><time>2026-04-03T12:25:25.572Z</time></trkpt><trkpt lat="44.366509" lon="11.070002"><ele>471.0</ele><time>2026-04-03T12:25:26.574Z</time></trkpt><trkpt lat="44.3664801" lon="11.0700974"><ele>470.0</ele><time>2026-04-03T12:25:27.57Z</time></trkpt><trkpt lat="44.366449" lon="11.0701885"><ele>469.0</ele><time>2026-04-03T12:25:28.568Z</time></trkpt><trkpt lat="44.3664044" lon="11.07028"><ele>467.99999999999994</ele><time>2026-04-03T12:25:29.577Z</time></trkpt><trkpt lat="44.3663476" lon="11.070379"><ele>467.0</ele><time>2026-04-03T12:25:30.568Z</time></trkpt><trkpt lat="44.366291" lon="11.0704953"><ele>469.66666666666663</ele><time>2026-04-03T12:25:31.572Z</time></trkpt><trkpt lat="44.3662378" lon="11.0706184"><ele>472.3333333333333</ele><time>2026-04-03T12:25:32.572Z</time></trkpt><trkpt lat="44.3661884" lon="11.0707298"><ele>475.0</ele><time>2026-04-03T12:25:33.574Z</time></trkpt><trkpt lat="44.3661387" lon="11.0708336"><ele>477.66666666666663</ele><time>2026-04-03T12:25:34.571Z</time></trkpt><trkpt lat="44.3660873" lon="11.0709295"><ele>480.3333333333333</ele><time>2026-04-03T12:25:35.569Z</time></trkpt><trkpt lat="44.3660394" lon="11.0710117"><ele>483.0</ele><time>2026-04-03T12:25:36.575Z</time></trkpt><trkpt lat="44.3659938" lon="11.0710771"><ele>483.0</ele><time>2026-04-03T12:25:37.57Z</time></trkpt><trkpt lat="44.3659395" lon="11.0711352"><ele>483.0</ele><time>2026-04-03T12:25:38.574Z</time></trkpt><trkpt lat="44.3658788" lon="11.0711921"><ele>483.0</ele><time>2026-04-03T12:25:39.574Z</time></trkpt><trkpt lat="44.3658127" lon="11.071249"><ele>483.0</ele><time>2026-04-03T12:25:40.567Z</time></trkpt><trkpt lat="44.365744" lon="11.0713001"><ele>483.0</ele><time>2026-04-03T12:25:41.569Z</time></trkpt><trkpt lat="44.3656742" lon="11.0713452"><ele>483.0</ele><time>2026-04-03T12:25:42.57Z</time></trkpt><trkpt lat="44.3656093" lon="11.071404"><ele>483.0</ele><time>2026-04-03T12:25:43.571Z</time></trkpt><trkpt lat="44.3655417" lon="11.0714707"><ele>483.0</ele><time>2026-04-03T12:25:44.576Z</time></trkpt><trkpt lat="44.3654697" lon="11.0715278"><ele>483.0</ele><time>2026-04-03T12:25:45.57Z</time></trkpt><trkpt lat="44.3653935" lon="11.0715719"><ele>483.0</ele><time>2026-04-03T12:25:46.569Z</time></trkpt><trkpt lat="44.3653245" lon="11.0716213"><ele>483.0</ele><time>2026-04-03T12:25:47.573Z</time></trkpt><trkpt lat="44.3652655" lon="11.0716925"><ele>483.0</ele><time>2026-04-03T12:25:48.573Z</time></trkpt><trkpt lat="44.3652181" lon="11.0717722"><ele>483.6666666666667</ele><time>2026-04-03T12:25:49.574Z</time></trkpt><trkpt lat="44.3651816" lon="11.071848"><ele>484.33333333333337</ele><time>2026-04-03T12:25:50.577Z</time></trkpt><trkpt lat="44.3651001" lon="11.0719536"><ele>485.0</ele><time>2026-04-03T12:25:52.571Z</time></trkpt><trkpt lat="44.3650369" lon="11.0719773"><ele>485.6666666666667</ele><time>2026-04-03T12:25:53.572Z</time></trkpt><trkpt lat="44.3649577" lon="11.0719907"><ele>486.33333333333337</ele><time>2026-04-03T12:25:54.575Z</time></trkpt><trkpt lat="44.3648736" lon="11.072001"><ele>487.0</ele><time>2026-04-03T12:25:55.573Z</time></trkpt><trkpt lat="44.3647968" lon="11.0720095"><ele>487.00000000000006</ele><time>2026-04-03T12:25:56.574Z</time></trkpt><trkpt lat="44.364718" lon="11.0720072"><ele>487.0</ele><time>2026-04-03T12:25:57.571Z</time></trkpt><trkpt lat="44.3646382" lon="11.0720065"><ele>487.0</ele><time>2026-04-03T12:25:58.567Z</time></trkpt><trkpt lat="44.3645561" lon="11.0720194"><ele>487.0</ele><time>2026-04-03T12:25:59.572Z</time></trkpt><trkpt lat="44.3644768" lon="11.0720317"><ele>487.00000000000006</ele><time>2026-04-03T12:26:00.571Z</time></trkpt><trkpt lat="44.3644018" lon="11.0720366"><ele>487.0</ele><time>2026-04-03T12:26:01.571Z</time></trkpt><trkpt lat="44.3643257" lon="11.0720284"><ele>489.42857142857144</ele><time>2026-04-03T12:26:02.572Z</time></trkpt><trkpt lat="44.3642492" lon="11.0720034"><ele>491.85714285714283</ele><time>2026-04-03T12:26:03.57Z</time></trkpt><trkpt lat="44.3641751" lon="11.0719716"><ele>494.2857142857143</ele><time>2026-04-03T12:26:04.572Z</time></trkpt><trkpt lat="44.3641092" lon="11.0719355"><ele>496.7142857142857</ele><time>2026-04-03T12:26:05.578Z</time></trkpt><trkpt lat="44.3640469" lon="11.0718911"><ele>499.1428571428571</ele><time>2026-04-03T12:26:06.571Z</time></trkpt><trkpt lat="44.363996" lon="11.0718301"><ele>501.57142857142856</ele><time>2026-04-03T12:26:07.57Z</time></trkpt><trkpt lat="44.3639624" lon="11.0717467"><ele>504.0</ele><time>2026-04-03T12:26:08.574Z</time></trkpt><trkpt lat="44.3639341" lon="11.0716612"><ele>504.57142857142856</ele><time>2026-04-03T12:26:09.571Z</time></trkpt><trkpt lat="44.3639187" lon="11.0715736"><ele>505.1428571428571</ele><time>2026-04-03T12:26:10.571Z</time></trkpt><trkpt lat="44.363891" lon="11.0714911"><ele>505.7142857142857</ele><time>2026-04-03T12:26:11.571Z</time></trkpt><trkpt lat="44.3638625" lon="11.0714063"><ele>506.2857142857143</ele><time>2026-04-03T12:26:12.57Z</time></trkpt><trkpt lat="44.3638298" lon="11.0713267"><ele>506.85714285714283</ele><time>2026-04-03T12:26:13.569Z</time></trkpt><trkpt lat="44.3638047" lon="11.0712399"><ele>507.42857142857144</ele><time>2026-04-03T12:26:14.571Z</time></trkpt><trkpt lat="44.3637843" lon="11.0711467"><ele>508.0</ele><time>2026-04-03T12:26:15.575Z</time></trkpt><trkpt lat="44.3637593" lon="11.0710525"><ele>508.0</ele><time>2026-04-03T12:26:16.572Z</time></trkpt><trkpt lat="44.363728" lon="11.0709629"><ele>508.0</ele><time>2026-04-03T12:26:17.576Z</time></trkpt><trkpt lat="44.3637021" lon="11.0708711"><ele>508.0</ele><time>2026-04-03T12:26:18.57Z</time></trkpt><trkpt lat="44.3636799" lon="11.0707699"><ele>508.0</ele><time>2026-04-03T12:26:19.573Z</time></trkpt><trkpt lat="44.3636552" lon="11.0706691"><ele>508.0</ele><time>2026-04-03T12:26:20.576Z</time></trkpt><trkpt lat="44.3636334" lon="11.0705682"><ele>508.0</ele><time>2026-04-03T12:26:21.574Z</time></trkpt><trkpt lat="44.3636125" lon="11.070466"><ele>508.0</ele><time>2026-04-03T12:26:22.575Z</time></trkpt><trkpt lat="44.3635912" lon="11.0703584"><ele>510.83333333333337</ele><time>2026-04-03T12:26:23.576Z</time></trkpt><trkpt lat="44.3635684" lon="11.0702483"><ele>513.6666666666667</ele><time>2026-04-03T12:26:24.574Z</time></trkpt><trkpt lat="44.3635462" lon="11.070135"><ele>516.5</ele><time>2026-04-03T12:26:25.571Z</time></trkpt><trkpt lat="44.3635278" lon="11.0700163"><ele>519.3333333333334</ele><time>2026-04-03T12:26:26.574Z</time></trkpt><trkpt lat="44.3635174" lon="11.069891"><ele>522.1666666666666</ele><time>2026-04-03T12:26:27.57Z</time></trkpt><trkpt lat="44.3635147" lon="11.0697687"><ele>525.0</ele><time>2026-04-03T12:26:28.571Z</time></trkpt><trkpt lat="44.3635179" lon="11.069647"><ele>525.6666666666666</ele><time>2026-04-03T12:26:29.569Z</time></trkpt><trkpt lat="44.363529" lon="11.0695359"><ele>526.3333333333334</ele><time>2026-04-03T12:26:30.572Z</time></trkpt><trkpt lat="44.3635388" lon="11.0694311"><ele>527.0</ele><time>2026-04-03T12:26:31.577Z</time></trkpt><trkpt lat="44.3635451" lon="11.0693327"><ele>527.6666666666667</ele><time>2026-04-03T12:26:32.573Z</time></trkpt><trkpt lat="44.3635418" lon="11.0691815"><ele>528.3333333333334</ele><time>2026-04-03T12:26:34.573Z</time></trkpt><trkpt lat="44.3635155" lon="11.0690974"><ele>529.0</ele><time>2026-04-03T12:26:36.574Z</time></trkpt><trkpt lat="44.3634072" lon="11.0691156"><ele>529.3333333333334</ele><time>2026-04-03T12:26:38.571Z</time></trkpt><trkpt lat="44.3633277" lon="11.0691431"><ele>529.6666666666667</ele><time>2026-04-03T12:26:39.579Z</time></trkpt><trkpt lat="44.3632494" lon="11.0691552"><ele>530.0</ele><time>2026-04-03T12:26:40.568Z</time></trkpt><trkpt lat="44.363179" lon="11.069158"><ele>530.3333333333334</ele><time>2026-04-03T12:26:41.571Z</time></trkpt><trkpt lat="44.3631156" lon="11.0691586"><ele>530.6666666666666</ele><time>2026-04-03T12:26:42.578Z</time></trkpt><trkpt lat="44.362997" lon="11.0691655"><ele>531.0</ele><time>2026-04-03T12:26:44.572Z</time></trkpt><trkpt lat="44.3629261" lon="11.0691497"><ele>531.0</ele><time>2026-04-03T12:26:45.571Z</time></trkpt><trkpt lat="44.362847" lon="11.0691219"><ele>531.0</ele><time>2026-04-03T12:26:46.571Z</time></trkpt><trkpt lat="44.3627632" lon="11.0690793"><ele>531.0</ele><time>2026-04-03T12:26:47.573Z</time></trkpt><trkpt lat="44.3626776" lon="11.0690266"><ele>531.0</ele><time>2026-04-03T12:26:48.574Z</time></trkpt><trkpt lat="44.3625898" lon="11.0689627"><ele>531.0</ele><time>2026-04-03T12:26:49.572Z</time></trkpt><trkpt lat="44.3625005" lon="11.0688929"><ele>530.8</ele><time>2026-04-03T12:26:50.571Z</time></trkpt><trkpt lat="44.3624089" lon="11.0688231"><ele>530.6</ele><time>2026-04-03T12:26:51.582Z</time></trkpt><trkpt lat="44.3623157" lon="11.0687483"><ele>530.4</ele><time>2026-04-03T12:26:52.571Z</time></trkpt><trkpt lat="44.3622189" lon="11.0686699"><ele>530.2</ele><time>2026-04-03T12:26:53.571Z</time></trkpt><trkpt lat="44.3621203" lon="11.0685829"><ele>530.0</ele><time>2026-04-03T12:26:54.572Z</time></trkpt><trkpt lat="44.3620243" lon="11.0684877"><ele>530.4</ele><time>2026-04-03T12:26:55.57Z</time></trkpt><trkpt lat="44.3619299" lon="11.0683908"><ele>530.8</ele><time>2026-04-03T12:26:56.57Z</time></trkpt><trkpt lat="44.3618409" lon="11.0683013"><ele>531.2</ele><time>2026-04-03T12:26:57.575Z</time></trkpt><trkpt lat="44.3617513" lon="11.0682192"><ele>531.6</ele><time>2026-04-03T12:26:58.572Z</time></trkpt><trkpt lat="44.3616589" lon="11.068146"><ele>532.0</ele><time>2026-04-03T12:26:59.57Z</time></trkpt><trkpt lat="44.361564" lon="11.0680837"><ele>532.0</ele><time>2026-04-03T12:27:00.575Z</time></trkpt><trkpt lat="44.3614643" lon="11.0680365"><ele>532.0</ele><time>2026-04-03T12:27:01.569Z</time></trkpt><trkpt lat="44.3613581" lon="11.0680085"><ele>532.0</ele><time>2026-04-03T12:27:02.571Z</time></trkpt><trkpt lat="44.3612437" lon="11.0679963"><ele>532.0</ele><time>2026-04-03T12:27:03.568Z</time></trkpt><trkpt lat="44.3611283" lon="11.0679867"><ele>532.0</ele><time>2026-04-03T12:27:04.568Z</time></trkpt><trkpt lat="44.36102" lon="11.0679717"><ele>533.8000000000001</ele><time>2026-04-03T12:27:05.569Z</time></trkpt><trkpt lat="44.3609167" lon="11.0679567"><ele>535.6</ele><time>2026-04-03T12:27:06.576Z</time></trkpt><trkpt lat="44.36081" lon="11.0679433"><ele>537.4000000000001</ele><time>2026-04-03T12:27:07.576Z</time></trkpt><trkpt lat="44.3607067" lon="11.06793"><ele>539.2</ele><time>2026-04-03T12:27:08.573Z</time></trkpt><trkpt lat="44.3606033" lon="11.0679167"><ele>541.0</ele><time>2026-04-03T12:27:09.571Z</time></trkpt><trkpt lat="44.3604967" lon="11.0679017"><ele>543.6</ele><time>2026-04-03T12:27:10.571Z</time></trkpt><trkpt lat="44.3603917" lon="11.0678767"><ele>546.2</ele><time>2026-04-03T12:27:11.571Z</time></trkpt><trkpt lat="44.3602833" lon="11.06784"><ele>548.8</ele><time>2026-04-03T12:27:12.571Z</time></trkpt><trkpt lat="44.3601783" lon="11.0677917"><ele>551.4</ele><time>2026-04-03T12:27:13.577Z</time></trkpt><trkpt lat="44.360075" lon="11.0677333"><ele>554.0</ele><time>2026-04-03T12:27:14.572Z</time></trkpt><trkpt lat="44.35997" lon="11.0676817"><ele>554.0</ele><time>2026-04-03T12:27:15.57Z</time></trkpt><trkpt lat="44.35987" lon="11.067625"><ele>554.0</ele><time>2026-04-03T12:27:16.571Z</time></trkpt><trkpt lat="44.3597683" lon="11.067565"><ele>554.0</ele><time>2026-04-03T12:27:17.57Z</time></trkpt><trkpt lat="44.3596733" lon="11.0675033"><ele>554.0</ele><time>2026-04-03T12:27:18.575Z</time></trkpt><trkpt lat="44.359575" lon="11.0674433"><ele>554.0</ele><time>2026-04-03T12:27:19.571Z</time></trkpt><trkpt lat="44.3594717" lon="11.0673833"><ele>557.25</ele><time>2026-04-03T12:27:20.57Z</time></trkpt><trkpt lat="44.3593667" lon="11.0673267"><ele>560.5</ele><time>2026-04-03T12:27:21.571Z</time></trkpt><trkpt lat="44.3592583" lon="11.0672667"><ele>563.75</ele><time>2026-04-03T12:27:22.571Z</time></trkpt><trkpt lat="44.359145" lon="11.0672033"><ele>567.0</ele><time>2026-04-03T12:27:23.571Z</time></trkpt><trkpt lat="44.3590433" lon="11.0671467"><ele>567.0</ele><time>2026-04-03T12:27:24.571Z</time></trkpt><trkpt lat="44.3589433" lon="11.0670883"><ele>567.0</ele><time>2026-04-03T12:27:25.572Z</time></trkpt><trkpt lat="44.3588483" lon="11.067035"><ele>567.0</ele><time>2026-04-03T12:27:26.574Z</time></trkpt><trkpt lat="44.3587667" lon="11.0669867"><ele>567.0</ele><time>2026-04-03T12:27:27.57Z</time></trkpt><trkpt lat="44.3586867" lon="11.066945"><ele>567.0</ele><time>2026-04-03T12:27:28.579Z</time></trkpt><trkpt lat="44.358615" lon="11.0669067"><ele>567.8333333333334</ele><time>2026-04-03T12:27:29.568Z</time></trkpt><trkpt lat="44.358555" lon="11.0668717"><ele>568.6666666666666</ele><time>2026-04-03T12:27:30.571Z</time></trkpt><trkpt lat="44.358465" lon="11.06678"><ele>569.5</ele><time>2026-04-03T12:27:32.574Z</time></trkpt><trkpt lat="44.3584383" lon="11.0667"><ele>570.3333333333333</ele><time>2026-04-03T12:27:33.568Z</time></trkpt><trkpt lat="44.3584167" lon="11.0666033"><ele>571.1666666666666</ele><time>2026-04-03T12:27:34.57Z</time></trkpt><trkpt lat="44.3583833" lon="11.0665067"><ele>572.0</ele><time>2026-04-03T12:27:35.566Z</time></trkpt><trkpt lat="44.3583483" lon="11.0664167"><ele>572.0</ele><time>2026-04-03T12:27:36.569Z</time></trkpt><trkpt lat="44.3583133" lon="11.0663383"><ele>572.0</ele><time>2026-04-03T12:27:37.566Z</time></trkpt><trkpt lat="44.3582833" lon="11.06626"><ele>572.0</ele><time>2026-04-03T12:27:38.573Z</time></trkpt><trkpt lat="44.35825" lon="11.066185"><ele>572.0</ele><time>2026-04-03T12:27:39.575Z</time></trkpt><trkpt lat="44.3582017" lon="11.0660617"><ele>572.0</ele><time>2026-04-03T12:27:41.57Z</time></trkpt><trkpt lat="44.3581733" lon="11.065945"><ele>572.0</ele><time>2026-04-03T12:27:43.571Z</time></trkpt><trkpt lat="44.3581383" lon="11.0658183"><ele>570.4</ele><time>2026-04-03T12:27:45.571Z</time></trkpt><trkpt lat="44.35812" lon="11.0656883"><ele>568.8000000000001</ele><time>2026-04-03T12:27:47.571Z</time></trkpt><trkpt lat="44.358125" lon="11.0655333"><ele>567.2</ele><time>2026-04-03T12:27:49.572Z</time></trkpt><trkpt lat="44.3581317" lon="11.065445"><ele>565.6</ele><time>2026-04-03T12:27:50.572Z</time></trkpt><trkpt lat="44.3581567" lon="11.0652767"><ele>564.0</ele><time>2026-04-03T12:27:52.57Z</time></trkpt><trkpt lat="44.358195" lon="11.065145"><ele>564.0</ele><time>2026-04-03T12:27:54.575Z</time></trkpt><trkpt lat="44.3582383" lon="11.06501"><ele>564.0</ele><time>2026-04-03T12:27:56.57Z</time></trkpt><trkpt lat="44.3582733" lon="11.0648583"><ele>564.0</ele><time>2026-04-03T12:27:58.569Z</time></trkpt><trkpt lat="44.3583083" lon="11.0646967"><ele>564.0</ele><time>2026-04-03T12:28:00.569Z</time></trkpt><trkpt lat="44.35833" lon="11.06453"><ele>562.3333333333334</ele><time>2026-04-03T12:28:02.571Z</time></trkpt><trkpt lat="44.3583417" lon="11.0644433"><ele>560.6666666666666</ele><time>2026-04-03T12:28:03.573Z</time></trkpt><trkpt lat="44.358355" lon="11.0643517"><ele>559.0</ele><time>2026-04-03T12:28:04.568Z</time></trkpt><trkpt lat="44.3583733" lon="11.064265"><ele>557.3333333333333</ele><time>2026-04-03T12:28:05.57Z</time></trkpt><trkpt lat="44.3584333" lon="11.064115"><ele>555.6666666666666</ele><time>2026-04-03T12:28:07.576Z</time></trkpt><trkpt lat="44.3584983" lon="11.0639633"><ele>554.0</ele><time>2026-04-03T12:28:09.575Z</time></trkpt><trkpt lat="44.3585267" lon="11.0638733"><ele>552.1666666666666</ele><time>2026-04-03T12:28:10.571Z</time></trkpt><trkpt lat="44.3585483" lon="11.0637867"><ele>550.3333333333333</ele><time>2026-04-03T12:28:11.571Z</time></trkpt><trkpt lat="44.3585867" lon="11.0636367"><ele>548.5</ele><time>2026-04-03T12:28:13.57Z</time></trkpt><trkpt lat="44.358615" lon="11.0635"><ele>546.6666666666666</ele><time>2026-04-03T12:28:15.573Z</time></trkpt><trkpt lat="44.3586367" lon="11.0634017"><ele>544.8333333333334</ele><time>2026-04-03T12:28:17.57Z</time></trkpt><trkpt lat="44.35872" lon="11.0633967"><ele>543.0</ele><time>2026-04-03T12:28:22.572Z</time></trkpt><trkpt lat="44.358785" lon="11.0633217"><ele>540.25</ele><time>2026-04-03T12:28:24.57Z</time></trkpt><trkpt lat="44.3588333" lon="11.063185"><ele>537.5</ele><time>2026-04-03T12:28:26.571Z</time></trkpt><trkpt lat="44.3588717" lon="11.0630217"><ele>534.75</ele><time>2026-04-03T12:28:28.57Z</time></trkpt><trkpt lat="44.35891" lon="11.0628733"><ele>532.0</ele><time>2026-04-03T12:28:30.577Z</time></trkpt><trkpt lat="44.3589433" lon="11.0627267"><ele>530.4</ele><time>2026-04-03T12:28:32.58Z</time></trkpt><trkpt lat="44.358985" lon="11.0625867"><ele>528.8000000000001</ele><time>2026-04-03T12:28:34.571Z</time></trkpt><trkpt lat="44.35904" lon="11.0624517"><ele>527.2</ele><time>2026-04-03T12:28:36.569Z</time></trkpt><trkpt lat="44.35908" lon="11.0623833"><ele>525.6</ele><time>2026-04-03T12:28:37.571Z</time></trkpt><trkpt lat="44.3591433" lon="11.062235"><ele>524.0</ele><time>2026-04-03T12:28:39.575Z</time></trkpt><trkpt lat="44.35918" lon="11.0621617"><ele>521.25</ele><time>2026-04-03T12:28:40.576Z</time></trkpt><trkpt lat="44.3592483" lon="11.062015"><ele>518.5</ele><time>2026-04-03T12:28:42.572Z</time></trkpt><trkpt lat="44.3593083" lon="11.0618983"><ele>515.75</ele><time>2026-04-03T12:28:44.574Z</time></trkpt><trkpt lat="44.3593883" lon="11.061795"><ele>513.0</ele><time>2026-04-03T12:28:46.572Z</time></trkpt><trkpt lat="44.359475" lon="11.0616683"><ele>511.1666666666667</ele><time>2026-04-03T12:28:48.572Z</time></trkpt><trkpt lat="44.3595133" lon="11.061595"><ele>509.33333333333337</ele><time>2026-04-03T12:28:49.571Z</time></trkpt><trkpt lat="44.3595533" lon="11.0615167"><ele>507.5</ele><time>2026-04-03T12:28:50.571Z</time></trkpt><trkpt lat="44.35958" lon="11.0614333"><ele>505.6666666666667</ele><time>2026-04-03T12:28:51.577Z</time></trkpt><trkpt lat="44.3596067" lon="11.0612883"><ele>503.83333333333337</ele><time>2026-04-03T12:28:53.573Z</time></trkpt><trkpt lat="44.3596467" lon="11.0612"><ele>502.0</ele><time>2026-04-03T12:28:55.569Z</time></trkpt><trkpt lat="44.35973" lon="11.0611467"><ele>502.0</ele><time>2026-04-03T12:28:57.574Z</time></trkpt><trkpt lat="44.359825" lon="11.0611067"><ele>502.00000000000006</ele><time>2026-04-03T12:28:59.57Z</time></trkpt><trkpt lat="44.3599117" lon="11.0610517"><ele>502.00000000000006</ele><time>2026-04-03T12:29:01.572Z</time></trkpt><trkpt lat="44.359975" lon="11.0609617"><ele>502.0</ele><time>2026-04-03T12:29:03.573Z</time></trkpt><trkpt lat="44.3600433" lon="11.0608567"><ele>502.0</ele><time>2026-04-03T12:29:05.577Z</time></trkpt><trkpt lat="44.3601083" lon="11.0607517"><ele>501.99999999999994</ele><time>2026-04-03T12:29:07.569Z</time></trkpt><trkpt lat="44.3601633" lon="11.06068"><ele>502.0</ele><time>2026-04-03T12:29:09.57Z</time></trkpt><trkpt lat="44.360225" lon="11.060755"><ele>501.99999999999994</ele><time>2026-04-03T12:29:15.572Z</time></trkpt><trkpt lat="44.3602717" lon="11.0608383"><ele>501.99999999999994</ele><time>2026-04-03T12:29:18.574Z</time></trkpt><trkpt lat="44.360305" lon="11.060915"><ele>502.0</ele><time>2026-04-03T12:29:20.571Z</time></trkpt><trkpt lat="44.3603533" lon="11.0609917"><ele>501.99999999999994</ele><time>2026-04-03T12:29:23.568Z</time></trkpt><trkpt lat="44.3604033" lon="11.06107"><ele>501.99999999999994</ele><time>2026-04-03T12:29:26.576Z</time></trkpt><trkpt lat="44.3604783" lon="11.06111"><ele>502.0</ele><time>2026-04-03T12:29:29.572Z</time></trkpt><trkpt lat="44.36052" lon="11.0612867"><ele>502.00000000000006</ele><time>2026-04-03T12:29:53.566Z</time></trkpt><trkpt lat="44.36056" lon="11.0613917"><ele>502.00000000000006</ele><time>2026-04-03T12:29:57.577Z</time></trkpt><trkpt lat="44.3606267" lon="11.0614083"><ele>502.0</ele><time>2026-04-03T12:30:08.576Z</time></trkpt><trkpt lat="44.3606867" lon="11.0612833"><ele>502.0</ele><time>2026-04-03T12:30:10.569Z</time></trkpt><trkpt lat="44.36072" lon="11.0612033"><ele>498.33333333333337</ele><time>2026-04-03T12:30:11.573Z</time></trkpt><trkpt lat="44.3607517" lon="11.0611183"><ele>494.6666666666667</ele><time>2026-04-03T12:30:12.568Z</time></trkpt><trkpt lat="44.3607667" lon="11.061025"><ele>491.0</ele><time>2026-04-03T12:30:13.581Z</time></trkpt><trkpt lat="44.3607733" lon="11.0609233"><ele>487.33333333333337</ele><time>2026-04-03T12:30:14.571Z</time></trkpt><trkpt lat="44.3607683" lon="11.0608133"><ele>483.6666666666667</ele><time>2026-04-03T12:30:15.573Z</time></trkpt><trkpt lat="44.36076" lon="11.0606967"><ele>480.0</ele><time>2026-04-03T12:30:16.567Z</time></trkpt><trkpt lat="44.3607583" lon="11.06057"><ele>480.0</ele><time>2026-04-03T12:30:17.568Z</time></trkpt><trkpt lat="44.3607717" lon="11.0604367"><ele>480.0</ele><time>2026-04-03T12:30:18.571Z</time></trkpt><trkpt lat="44.3607967" lon="11.0603083"><ele>480.0</ele><time>2026-04-03T12:30:19.573Z</time></trkpt><trkpt lat="44.3608317" lon="11.060185"><ele>480.0</ele><time>2026-04-03T12:30:20.572Z</time></trkpt><trkpt lat="44.3608583" lon="11.0600667"><ele>480.0</ele><time>2026-04-03T12:30:21.573Z</time></trkpt><trkpt lat="44.3608783" lon="11.059945"><ele>477.6</ele><time>2026-04-03T12:30:22.573Z</time></trkpt><trkpt lat="44.3608833" lon="11.05982"><ele>475.2</ele><time>2026-04-03T12:30:23.57Z</time></trkpt><trkpt lat="44.3608633" lon="11.05969"><ele>472.79999999999995</ele><time>2026-04-03T12:30:24.569Z</time></trkpt><trkpt lat="44.36082" lon="11.0595683"><ele>470.4</ele><time>2026-04-03T12:30:25.572Z</time></trkpt><trkpt lat="44.3607433" lon="11.05946"><ele>468.0</ele><time>2026-04-03T12:30:26.568Z</time></trkpt><trkpt lat="44.3606583" lon="11.059365"><ele>468.0</ele><time>2026-04-03T12:30:27.573Z</time></trkpt><trkpt lat="44.3605717" lon="11.0592783"><ele>468.0</ele><time>2026-04-03T12:30:28.571Z</time></trkpt><trkpt lat="44.3604683" lon="11.0592133"><ele>468.0</ele><time>2026-04-03T12:30:29.568Z</time></trkpt><trkpt lat="44.3603517" lon="11.05918"><ele>468.0</ele><time>2026-04-03T12:30:30.572Z</time></trkpt><trkpt lat="44.3602333" lon="11.0591767"><ele>468.25</ele><time>2026-04-03T12:30:31.568Z</time></trkpt><trkpt lat="44.3601117" lon="11.0591933"><ele>468.5</ele><time>2026-04-03T12:30:32.58Z</time></trkpt><trkpt lat="44.3599883" lon="11.0592183"><ele>468.75</ele><time>2026-04-03T12:30:33.575Z</time></trkpt><trkpt lat="44.35987" lon="11.0592417"><ele>469.0</ele><time>2026-04-03T12:30:34.573Z</time></trkpt><trkpt lat="44.3597617" lon="11.0592617"><ele>468.0</ele><time>2026-04-03T12:30:35.566Z</time></trkpt><trkpt lat="44.359655" lon="11.0592867"><ele>467.0</ele><time>2026-04-03T12:30:36.568Z</time></trkpt><trkpt lat="44.3595583" lon="11.059305"><ele>466.0</ele><time>2026-04-03T12:30:37.569Z</time></trkpt><trkpt lat="44.3594633" lon="11.0593267"><ele>465.0</ele><time>2026-04-03T12:30:38.572Z</time></trkpt><trkpt lat="44.35937" lon="11.0593367"><ele>464.0</ele><time>2026-04-03T12:30:39.572Z</time></trkpt><trkpt lat="44.359285" lon="11.05933"><ele>463.99999999999994</ele><time>2026-04-03T12:30:40.57Z</time></trkpt><trkpt lat="44.3592017" lon="11.0593067"><ele>464.0</ele><time>2026-04-03T12:30:41.573Z</time></trkpt><trkpt lat="44.3591267" lon="11.05927"><ele>464.0</ele><time>2026-04-03T12:30:42.569Z</time></trkpt><trkpt lat="44.3590567" lon="11.0592167"><ele>464.0</ele><time>2026-04-03T12:30:43.567Z</time></trkpt><trkpt lat="44.3589817" lon="11.05917"><ele>463.99999999999994</ele><time>2026-04-03T12:30:44.571Z</time></trkpt><trkpt lat="44.3589033" lon="11.0591367"><ele>464.0</ele><time>2026-04-03T12:30:45.567Z</time></trkpt><trkpt lat="44.358825" lon="11.0591233"><ele>463.2</ele><time>2026-04-03T12:30:46.575Z</time></trkpt><trkpt lat="44.3587417" lon="11.05913"><ele>462.4</ele><time>2026-04-03T12:30:47.571Z</time></trkpt><trkpt lat="44.3586483" lon="11.0591567"><ele>461.6</ele><time>2026-04-03T12:30:48.571Z</time></trkpt><trkpt lat="44.35855" lon="11.0591967"><ele>460.8</ele><time>2026-04-03T12:30:49.574Z</time></trkpt><trkpt lat="44.3584417" lon="11.05921"><ele>460.0</ele><time>2026-04-03T12:30:50.575Z</time></trkpt><trkpt lat="44.358335" lon="11.0591867"><ele>460.0</ele><time>2026-04-03T12:30:51.582Z</time></trkpt><trkpt lat="44.3582283" lon="11.059135"><ele>460.0</ele><time>2026-04-03T12:30:52.578Z</time></trkpt><trkpt lat="44.3581283" lon="11.0590683"><ele>460.0</ele><time>2026-04-03T12:30:53.57Z</time></trkpt><trkpt lat="44.3580383" lon="11.0590033"><ele>460.0</ele><time>2026-04-03T12:30:54.577Z</time></trkpt><trkpt lat="44.3579617" lon="11.05894"><ele>460.0</ele><time>2026-04-03T12:30:55.573Z</time></trkpt><trkpt lat="44.3579" lon="11.0588683"><ele>458.50000000000006</ele><time>2026-04-03T12:30:56.573Z</time></trkpt><trkpt lat="44.3578583" lon="11.0587883"><ele>457.0</ele><time>2026-04-03T12:30:57.572Z</time></trkpt><trkpt lat="44.357865" lon="11.058695"><ele>455.5</ele><time>2026-04-03T12:30:58.572Z</time></trkpt><trkpt lat="44.3579533" lon="11.0585733"><ele>454.0</ele><time>2026-04-03T12:31:00.574Z</time></trkpt><trkpt lat="44.3580233" lon="11.0585517"><ele>452.50000000000006</ele><time>2026-04-03T12:31:01.569Z</time></trkpt><trkpt lat="44.3581283" lon="11.0585867"><ele>451.0</ele><time>2026-04-03T12:31:02.575Z</time></trkpt><trkpt lat="44.358255" lon="11.0586433"><ele>449.5</ele><time>2026-04-03T12:31:03.568Z</time></trkpt><trkpt lat="44.3583767" lon="11.0586717"><ele>448.0</ele><time>2026-04-03T12:31:04.574Z</time></trkpt><trkpt lat="44.3584917" lon="11.0586683"><ele>446.5</ele><time>2026-04-03T12:31:05.575Z</time></trkpt><trkpt lat="44.35861" lon="11.0586283"><ele>445.0</ele><time>2026-04-03T12:31:06.573Z</time></trkpt><trkpt lat="44.3587217" lon="11.0585583"><ele>445.0</ele><time>2026-04-03T12:31:07.57Z</time></trkpt><trkpt lat="44.3588317" lon="11.0584717"><ele>445.0</ele><time>2026-04-03T12:31:08.573Z</time></trkpt><trkpt lat="44.3589333" lon="11.0583783"><ele>445.0</ele><time>2026-04-03T12:31:09.572Z</time></trkpt><trkpt lat="44.3590333" lon="11.0582867"><ele>445.0</ele><time>2026-04-03T12:31:10.572Z</time></trkpt><trkpt lat="44.3591317" lon="11.058195"><ele>441.5</ele><time>2026-04-03T12:31:11.572Z</time></trkpt><trkpt lat="44.3592317" lon="11.0581083"><ele>438.0</ele><time>2026-04-03T12:31:12.575Z</time></trkpt><trkpt lat="44.359325" lon="11.0580117"><ele>434.5</ele><time>2026-04-03T12:31:13.572Z</time></trkpt><trkpt lat="44.359415" lon="11.0578967"><ele>431.0</ele><time>2026-04-03T12:31:14.573Z</time></trkpt><trkpt lat="44.3595033" lon="11.0577783"><ele>431.0</ele><time>2026-04-03T12:31:15.574Z</time></trkpt><trkpt lat="44.3595917" lon="11.0576633"><ele>431.0</ele><time>2026-04-03T12:31:16.574Z</time></trkpt><trkpt lat="44.3596817" lon="11.05755"><ele>431.0</ele><time>2026-04-03T12:31:17.571Z</time></trkpt><trkpt lat="44.35978" lon="11.0574467"><ele>431.0</ele><time>2026-04-03T12:31:18.576Z</time></trkpt><trkpt lat="44.3598833" lon="11.0573567"><ele>429.20000000000005</ele><time>2026-04-03T12:31:19.572Z</time></trkpt><trkpt lat="44.35999" lon="11.0572767"><ele>427.40000000000003</ele><time>2026-04-03T12:31:20.569Z</time></trkpt><trkpt lat="44.36009" lon="11.0572067"><ele>425.6</ele><time>2026-04-03T12:31:21.572Z</time></trkpt><trkpt lat="44.3601883" lon="11.0571433"><ele>423.8</ele><time>2026-04-03T12:31:22.573Z</time></trkpt><trkpt lat="44.3602867" lon="11.057095"><ele>422.0</ele><time>2026-04-03T12:31:23.572Z</time></trkpt><trkpt lat="44.3603917" lon="11.057065"><ele>422.0</ele><time>2026-04-03T12:31:24.57Z</time></trkpt><trkpt lat="44.360495" lon="11.057065"><ele>422.0</ele><time>2026-04-03T12:31:25.577Z</time></trkpt><trkpt lat="44.3606033" lon="11.0571083"><ele>422.0</ele><time>2026-04-03T12:31:26.573Z</time></trkpt><trkpt lat="44.3607117" lon="11.0571683"><ele>422.0</ele><time>2026-04-03T12:31:27.573Z</time></trkpt><trkpt lat="44.36082" lon="11.0572333"><ele>421.0</ele><time>2026-04-03T12:31:28.57Z</time></trkpt><trkpt lat="44.360935" lon="11.0572883"><ele>420.0</ele><time>2026-04-03T12:31:29.574Z</time></trkpt><trkpt lat="44.3610583" lon="11.05732"><ele>419.0</ele><time>2026-04-03T12:31:30.574Z</time></trkpt><trkpt lat="44.3611867" lon="11.05734"><ele>418.0</ele><time>2026-04-03T12:31:31.571Z</time></trkpt><trkpt lat="44.3613217" lon="11.0573567"><ele>419.0</ele><time>2026-04-03T12:31:32.572Z</time></trkpt><trkpt lat="44.361455" lon="11.057385"><ele>420.0</ele><time>2026-04-03T12:31:33.605Z</time></trkpt><trkpt lat="44.361585" lon="11.05742"><ele>421.0</ele><time>2026-04-03T12:31:34.573Z</time></trkpt><trkpt lat="44.3617133" lon="11.0574483"><ele>422.0</ele><time>2026-04-03T12:31:35.573Z</time></trkpt><trkpt lat="44.3618367" lon="11.0574533"><ele>417.75</ele><time>2026-04-03T12:31:36.574Z</time></trkpt><trkpt lat="44.36196" lon="11.0574367"><ele>413.5</ele><time>2026-04-03T12:31:37.577Z</time></trkpt><trkpt lat="44.36208" lon="11.0574017"><ele>409.25</ele><time>2026-04-03T12:31:38.572Z</time></trkpt><trkpt lat="44.3621917" lon="11.05735"><ele>405.0</ele><time>2026-04-03T12:31:39.577Z</time></trkpt><trkpt lat="44.3622967" lon="11.057275"><ele>404.6</ele><time>2026-04-03T12:31:40.569Z</time></trkpt><trkpt lat="44.3623917" lon="11.0571917"><ele>404.2</ele><time>2026-04-03T12:31:41.575Z</time></trkpt><trkpt lat="44.36249" lon="11.0571217"><ele>403.79999999999995</ele><time>2026-04-03T12:31:42.571Z</time></trkpt><trkpt lat="44.3625933" lon="11.0570767"><ele>403.4</ele><time>2026-04-03T12:31:43.573Z</time></trkpt><trkpt lat="44.3626967" lon="11.0570717"><ele>403.0</ele><time>2026-04-03T12:31:44.575Z</time></trkpt><trkpt lat="44.3628" lon="11.057105"><ele>403.0</ele><time>2026-04-03T12:31:45.573Z</time></trkpt><trkpt lat="44.362905" lon="11.057185"><ele>403.0</ele><time>2026-04-03T12:31:46.574Z</time></trkpt><trkpt lat="44.36301" lon="11.0572817"><ele>403.0</ele><time>2026-04-03T12:31:47.572Z</time></trkpt><trkpt lat="44.3631117" lon="11.0573867"><ele>403.0</ele><time>2026-04-03T12:31:48.573Z</time></trkpt><trkpt lat="44.3632167" lon="11.0575067"><ele>403.5</ele><time>2026-04-03T12:31:49.574Z</time></trkpt><trkpt lat="44.3633267" lon="11.0576267"><ele>404.0</ele><time>2026-04-03T12:31:50.572Z</time></trkpt><trkpt lat="44.3634333" lon="11.057745"><ele>404.5</ele><time>2026-04-03T12:31:51.576Z</time></trkpt><trkpt lat="44.363535" lon="11.0578633"><ele>405.0</ele><time>2026-04-03T12:31:52.569Z</time></trkpt><trkpt lat="44.3636283" lon="11.05799"><ele>405.0</ele><time>2026-04-03T12:31:53.569Z</time></trkpt><trkpt lat="44.3637117" lon="11.0581267"><ele>405.0</ele><time>2026-04-03T12:31:54.568Z</time></trkpt><trkpt lat="44.363785" lon="11.0582767"><ele>405.0</ele><time>2026-04-03T12:31:55.571Z</time></trkpt><trkpt lat="44.36385" lon="11.0584317"><ele>405.0</ele><time>2026-04-03T12:31:56.572Z</time></trkpt><trkpt lat="44.3639117" lon="11.0585917"><ele>402.75</ele><time>2026-04-03T12:31:57.573Z</time></trkpt><trkpt lat="44.3639767" lon="11.0587517"><ele>400.5</ele><time>2026-04-03T12:31:58.574Z</time></trkpt><trkpt lat="44.3640433" lon="11.0589183"><ele>398.25</ele><time>2026-04-03T12:31:59.574Z</time></trkpt><trkpt lat="44.3641133" lon="11.0590883"><ele>396.0</ele><time>2026-04-03T12:32:00.566Z</time></trkpt><trkpt lat="44.3641783" lon="11.059255"><ele>396.0</ele><time>2026-04-03T12:32:01.573Z</time></trkpt><trkpt lat="44.36424" lon="11.0594117"><ele>396.0</ele><time>2026-04-03T12:32:02.576Z</time></trkpt><trkpt lat="44.3643033" lon="11.0595567"><ele>396.0</ele><time>2026-04-03T12:32:03.572Z</time></trkpt><trkpt lat="44.3643867" lon="11.0596867"><ele>396.0</ele><time>2026-04-03T12:32:04.568Z</time></trkpt><trkpt lat="44.3644917" lon="11.0597883"><ele>396.0</ele><time>2026-04-03T12:32:05.572Z</time></trkpt><trkpt lat="44.3646017" lon="11.0598683"><ele>396.0</ele><time>2026-04-03T12:32:06.573Z</time></trkpt><trkpt lat="44.3647133" lon="11.05993"><ele>396.0</ele><time>2026-04-03T12:32:07.573Z</time></trkpt><trkpt lat="44.364815" lon="11.0599917"><ele>396.0</ele><time>2026-04-03T12:32:08.573Z</time></trkpt><trkpt lat="44.36491" lon="11.0600467"><ele>395.1666666666667</ele><time>2026-04-03T12:32:09.572Z</time></trkpt><trkpt lat="44.3649967" lon="11.0600817"><ele>394.33333333333337</ele><time>2026-04-03T12:32:10.571Z</time></trkpt><trkpt lat="44.3650833" lon="11.0600933"><ele>393.5</ele><time>2026-04-03T12:32:11.569Z</time></trkpt><trkpt lat="44.3651667" lon="11.0600583"><ele>392.6666666666667</ele><time>2026-04-03T12:32:12.575Z</time></trkpt><trkpt lat="44.3652267" lon="11.05997"><ele>391.83333333333337</ele><time>2026-04-03T12:32:13.578Z</time></trkpt><trkpt lat="44.36528" lon="11.0598717"><ele>391.0</ele><time>2026-04-03T12:32:14.572Z</time></trkpt><trkpt lat="44.3652983" lon="11.059755"><ele>388.75</ele><time>2026-04-03T12:32:15.573Z</time></trkpt><trkpt lat="44.3652217" lon="11.0596067"><ele>386.5</ele><time>2026-04-03T12:32:16.571Z</time></trkpt><trkpt lat="44.3651417" lon="11.059495"><ele>384.25</ele><time>2026-04-03T12:32:17.573Z</time></trkpt><trkpt lat="44.3650583" lon="11.0593833"><ele>382.0</ele><time>2026-04-03T12:32:18.574Z</time></trkpt><trkpt lat="44.3649817" lon="11.05926"><ele>382.0</ele><time>2026-04-03T12:32:19.571Z</time></trkpt><trkpt lat="44.36491" lon="11.0591283"><ele>382.0</ele><time>2026-04-03T12:32:20.575Z</time></trkpt><trkpt lat="44.3648683" lon="11.0589867"><ele>382.0</ele><time>2026-04-03T12:32:21.567Z</time></trkpt><trkpt lat="44.3648533" lon="11.05883"><ele>382.0</ele><time>2026-04-03T12:32:22.574Z</time></trkpt><trkpt lat="44.36486" lon="11.0586583"><ele>381.0</ele><time>2026-04-03T12:32:23.569Z</time></trkpt><trkpt lat="44.3648817" lon="11.0584867"><ele>380.0</ele><time>2026-04-03T12:32:24.57Z</time></trkpt><trkpt lat="44.36491" lon="11.0583117"><ele>379.0</ele><time>2026-04-03T12:32:25.575Z</time></trkpt><trkpt lat="44.3649367" lon="11.058135"><ele>378.0</ele><time>2026-04-03T12:32:26.571Z</time></trkpt><trkpt lat="44.3649567" lon="11.0579583"><ele>376.75</ele><time>2026-04-03T12:32:27.572Z</time></trkpt><trkpt lat="44.3649733" lon="11.0577767"><ele>375.5</ele><time>2026-04-03T12:32:28.57Z</time></trkpt><trkpt lat="44.364985" lon="11.0576017"><ele>374.25</ele><time>2026-04-03T12:32:29.569Z</time></trkpt><trkpt lat="44.3649933" lon="11.0574333"><ele>373.0</ele><time>2026-04-03T12:32:30.571Z</time></trkpt><trkpt lat="44.36499" lon="11.0572717"><ele>371.25</ele><time>2026-04-03T12:32:31.569Z</time></trkpt><trkpt lat="44.3649683" lon="11.057115"><ele>369.5</ele><time>2026-04-03T12:32:32.578Z</time></trkpt><trkpt lat="44.36492" lon="11.05696"><ele>367.75</ele><time>2026-04-03T12:32:33.577Z</time></trkpt><trkpt lat="44.36485" lon="11.0568133"><ele>366.0</ele><time>2026-04-03T12:32:34.57Z</time></trkpt><trkpt lat="44.3647633" lon="11.05668"><ele>366.5</ele><time>2026-04-03T12:32:35.57Z</time></trkpt><trkpt lat="44.3646683" lon="11.0565567"><ele>367.0</ele><time>2026-04-03T12:32:36.568Z</time></trkpt><trkpt lat="44.36457" lon="11.0564317"><ele>367.5</ele><time>2026-04-03T12:32:37.57Z</time></trkpt><trkpt lat="44.36448" lon="11.0562933"><ele>368.0</ele><time>2026-04-03T12:32:38.575Z</time></trkpt><trkpt lat="44.3644033" lon="11.056145"><ele>368.0</ele><time>2026-04-03T12:32:39.569Z</time></trkpt><trkpt lat="44.3643317" lon="11.0560017"><ele>368.0</ele><time>2026-04-03T12:32:40.575Z</time></trkpt><trkpt lat="44.3642583" lon="11.0558617"><ele>368.0</ele><time>2026-04-03T12:32:41.571Z</time></trkpt><trkpt lat="44.36418" lon="11.0557267"><ele>368.0</ele><time>2026-04-03T12:32:42.574Z</time></trkpt><trkpt lat="44.3640933" lon="11.0555967"><ele>366.25</ele><time>2026-04-03T12:32:43.574Z</time></trkpt><trkpt lat="44.3640083" lon="11.055465"><ele>364.5</ele><time>2026-04-03T12:32:44.574Z</time></trkpt><trkpt lat="44.36392" lon="11.0553367"><ele>362.75</ele><time>2026-04-03T12:32:45.573Z</time></trkpt><trkpt lat="44.3638333" lon="11.0552033"><ele>361.0</ele><time>2026-04-03T12:32:46.575Z</time></trkpt><trkpt lat="44.3637483" lon="11.0550717"><ele>357.25</ele><time>2026-04-03T12:32:47.57Z</time></trkpt><trkpt lat="44.36367" lon="11.05494"><ele>353.5</ele><time>2026-04-03T12:32:48.573Z</time></trkpt><trkpt lat="44.3635767" lon="11.0548217"><ele>349.75</ele><time>2026-04-03T12:32:49.572Z</time></trkpt><trkpt lat="44.3634633" lon="11.0547417"><ele>346.0</ele><time>2026-04-03T12:32:50.575Z</time></trkpt><trkpt lat="44.3633417" lon="11.054685"><ele>346.0</ele><time>2026-04-03T12:32:51.573Z</time></trkpt><trkpt lat="44.36321" lon="11.05464"><ele>346.0</ele><time>2026-04-03T12:32:52.569Z</time></trkpt><trkpt lat="44.3630933" lon="11.0545617"><ele>346.0</ele><time>2026-04-03T12:32:53.57Z</time></trkpt><trkpt lat="44.36298" lon="11.0544567"><ele>346.0</ele><time>2026-04-03T12:32:54.57Z</time></trkpt><trkpt lat="44.362865" lon="11.05436"><ele>345.75</ele><time>2026-04-03T12:32:55.571Z</time></trkpt><trkpt lat="44.3627383" lon="11.0542817"><ele>345.5</ele><time>2026-04-03T12:32:56.57Z</time></trkpt><trkpt lat="44.362615" lon="11.05422"><ele>345.25</ele><time>2026-04-03T12:32:57.574Z</time></trkpt><trkpt lat="44.3624917" lon="11.05416"><ele>345.0</ele><time>2026-04-03T12:32:58.575Z</time></trkpt><trkpt lat="44.3623733" lon="11.054095"><ele>344.5</ele><time>2026-04-03T12:32:59.571Z</time></trkpt><trkpt lat="44.3622617" lon="11.054015"><ele>344.0</ele><time>2026-04-03T12:33:00.568Z</time></trkpt><trkpt lat="44.3621633" lon="11.0539083"><ele>343.5</ele><time>2026-04-03T12:33:01.572Z</time></trkpt><trkpt lat="44.36208" lon="11.0537783"><ele>343.0</ele><time>2026-04-03T12:33:02.578Z</time></trkpt><trkpt lat="44.36201" lon="11.0536333"><ele>343.0</ele><time>2026-04-03T12:33:03.568Z</time></trkpt><trkpt lat="44.3619667" lon="11.0534717"><ele>343.0</ele><time>2026-04-03T12:33:04.57Z</time></trkpt><trkpt lat="44.3619483" lon="11.0532983"><ele>343.0</ele><time>2026-04-03T12:33:05.575Z</time></trkpt><trkpt lat="44.3619567" lon="11.0531217"><ele>343.0</ele><time>2026-04-03T12:33:06.574Z</time></trkpt><trkpt lat="44.3619833" lon="11.0529367"><ele>342.25</ele><time>2026-04-03T12:33:07.574Z</time></trkpt><trkpt lat="44.3620133" lon="11.052755"><ele>341.5</ele><time>2026-04-03T12:33:08.579Z</time></trkpt><trkpt lat="44.36204" lon="11.0525817"><ele>340.75</ele><time>2026-04-03T12:33:09.574Z</time></trkpt><trkpt lat="44.3620717" lon="11.0524267"><ele>340.0</ele><time>2026-04-03T12:33:10.571Z</time></trkpt><trkpt lat="44.3621133" lon="11.052285"><ele>341.4</ele><time>2026-04-03T12:33:11.573Z</time></trkpt><trkpt lat="44.3621783" lon="11.0521733"><ele>342.8</ele><time>2026-04-03T12:33:12.573Z</time></trkpt><trkpt lat="44.3622617" lon="11.0520933"><ele>344.20000000000005</ele><time>2026-04-03T12:33:13.577Z</time></trkpt><trkpt lat="44.3623583" lon="11.0520467"><ele>345.6</ele><time>2026-04-03T12:33:14.57Z</time></trkpt><trkpt lat="44.362465" lon="11.0520333"><ele>347.0</ele><time>2026-04-03T12:33:15.569Z</time></trkpt><trkpt lat="44.3625817" lon="11.0520367"><ele>347.75</ele><time>2026-04-03T12:33:16.569Z</time></trkpt><trkpt lat="44.3627033" lon="11.0520467"><ele>348.5</ele><time>2026-04-03T12:33:17.567Z</time></trkpt><trkpt lat="44.36283" lon="11.052055"><ele>349.25</ele><time>2026-04-03T12:33:18.575Z</time></trkpt><trkpt lat="44.3629583" lon="11.05206"><ele>350.0</ele><time>2026-04-03T12:33:19.571Z</time></trkpt><trkpt lat="44.3630917" lon="11.05207"><ele>350.5</ele><time>2026-04-03T12:33:20.575Z</time></trkpt><trkpt lat="44.36322" lon="11.0520667"><ele>351.0</ele><time>2026-04-03T12:33:21.569Z</time></trkpt><trkpt lat="44.3633533" lon="11.0520833"><ele>351.5</ele><time>2026-04-03T12:33:22.578Z</time></trkpt><trkpt lat="44.363485" lon="11.0520967"><ele>352.0</ele><time>2026-04-03T12:33:23.567Z</time></trkpt><trkpt lat="44.3636233" lon="11.05213"><ele>352.0</ele><time>2026-04-03T12:33:24.57Z</time></trkpt><trkpt lat="44.3637433" lon="11.052175"><ele>352.0</ele><time>2026-04-03T12:33:25.571Z</time></trkpt><trkpt lat="44.3638717" lon="11.0522367"><ele>352.0</ele><time>2026-04-03T12:33:26.575Z</time></trkpt><trkpt lat="44.3639983" lon="11.0522917"><ele>352.0</ele><time>2026-04-03T12:33:27.574Z</time></trkpt><trkpt lat="44.3641317" lon="11.052335"><ele>352.75</ele><time>2026-04-03T12:33:28.57Z</time></trkpt><trkpt lat="44.36427" lon="11.052375"><ele>353.5</ele><time>2026-04-03T12:33:29.574Z</time></trkpt><trkpt lat="44.36441" lon="11.05241"><ele>354.25</ele><time>2026-04-03T12:33:30.571Z</time></trkpt><trkpt lat="44.3645483" lon="11.05244"><ele>355.0</ele><time>2026-04-03T12:33:31.573Z</time></trkpt><trkpt lat="44.3646883" lon="11.05247"><ele>349.25</ele><time>2026-04-03T12:33:32.578Z</time></trkpt><trkpt lat="44.3648233" lon="11.0525"><ele>343.5</ele><time>2026-04-03T12:33:33.573Z</time></trkpt><trkpt lat="44.3649533" lon="11.0525317"><ele>337.75</ele><time>2026-04-03T12:33:34.574Z</time></trkpt><trkpt lat="44.365075" lon="11.05256"><ele>332.0</ele><time>2026-04-03T12:33:35.574Z</time></trkpt><trkpt lat="44.365195" lon="11.0525783"><ele>332.0</ele><time>2026-04-03T12:33:36.574Z</time></trkpt><trkpt lat="44.3653117" lon="11.0526017"><ele>332.0</ele><time>2026-04-03T12:33:37.573Z</time></trkpt><trkpt lat="44.365425" lon="11.05263"><ele>332.0</ele><time>2026-04-03T12:33:38.573Z</time></trkpt><trkpt lat="44.3655333" lon="11.0526667"><ele>332.0</ele><time>2026-04-03T12:33:39.567Z</time></trkpt><trkpt lat="44.3656317" lon="11.0527217"><ele>332.20000000000005</ele><time>2026-04-03T12:33:40.57Z</time></trkpt><trkpt lat="44.3657183" lon="11.0527983"><ele>332.4</ele><time>2026-04-03T12:33:41.572Z</time></trkpt><trkpt lat="44.365795" lon="11.0529"><ele>332.6</ele><time>2026-04-03T12:33:42.571Z</time></trkpt><trkpt lat="44.3658583" lon="11.053025"><ele>332.79999999999995</ele><time>2026-04-03T12:33:43.576Z</time></trkpt><trkpt lat="44.3659067" lon="11.053175"><ele>333.0</ele><time>2026-04-03T12:33:44.571Z</time></trkpt><trkpt lat="44.36594" lon="11.0533433"><ele>333.0</ele><time>2026-04-03T12:33:45.573Z</time></trkpt><trkpt lat="44.3659583" lon="11.0535167"><ele>333.0</ele><time>2026-04-03T12:33:46.571Z</time></trkpt><trkpt lat="44.36597" lon="11.0536883"><ele>333.0</ele><time>2026-04-03T12:33:47.57Z</time></trkpt><trkpt lat="44.3659867" lon="11.0538583"><ele>333.0</ele><time>2026-04-03T12:33:48.572Z</time></trkpt><trkpt lat="44.3660083" lon="11.0540233"><ele>332.59999999999997</ele><time>2026-04-03T12:33:49.57Z</time></trkpt><trkpt lat="44.3660367" lon="11.0541683"><ele>332.2</ele><time>2026-04-03T12:33:50.576Z</time></trkpt><trkpt lat="44.3660733" lon="11.0542917"><ele>331.8</ele><time>2026-04-03T12:33:51.571Z</time></trkpt><trkpt lat="44.3661183" lon="11.0543983"><ele>331.4</ele><time>2026-04-03T12:33:52.571Z</time></trkpt><trkpt lat="44.3661717" lon="11.0545133"><ele>331.0</ele><time>2026-04-03T12:33:53.57Z</time></trkpt><trkpt lat="44.366235" lon="11.05464"><ele>331.0</ele><time>2026-04-03T12:33:54.572Z</time></trkpt><trkpt lat="44.3663183" lon="11.054755"><ele>331.0</ele><time>2026-04-03T12:33:55.571Z</time></trkpt><trkpt lat="44.366405" lon="11.0548733"><ele>331.0</ele><time>2026-04-03T12:33:56.576Z</time></trkpt><trkpt lat="44.3664983" lon="11.0549967"><ele>331.0</ele><time>2026-04-03T12:33:57.567Z</time></trkpt><trkpt lat="44.3666" lon="11.0551183"><ele>330.25</ele><time>2026-04-03T12:33:58.57Z</time></trkpt><trkpt lat="44.366705" lon="11.0552417"><ele>329.5</ele><time>2026-04-03T12:33:59.57Z</time></trkpt><trkpt lat="44.3668067" lon="11.0553717"><ele>328.75</ele><time>2026-04-03T12:34:00.572Z</time></trkpt><trkpt lat="44.366905" lon="11.055505"><ele>328.0</ele><time>2026-04-03T12:34:01.572Z</time></trkpt><trkpt lat="44.367005" lon="11.0556317"><ele>328.0</ele><time>2026-04-03T12:34:02.572Z</time></trkpt><trkpt lat="44.3671117" lon="11.0557583"><ele>328.0</ele><time>2026-04-03T12:34:03.581Z</time></trkpt><trkpt lat="44.3672183" lon="11.0558867"><ele>328.0</ele><time>2026-04-03T12:34:04.57Z</time></trkpt><trkpt lat="44.367325" lon="11.056015"><ele>328.0</ele><time>2026-04-03T12:34:05.572Z</time></trkpt><trkpt lat="44.36743" lon="11.0561417"><ele>326.75</ele><time>2026-04-03T12:34:06.573Z</time></trkpt><trkpt lat="44.3675367" lon="11.0562667"><ele>325.5</ele><time>2026-04-03T12:34:07.573Z</time></trkpt><trkpt lat="44.36764" lon="11.056395"><ele>324.25</ele><time>2026-04-03T12:34:08.576Z</time></trkpt><trkpt lat="44.3677433" lon="11.0565233"><ele>323.0</ele><time>2026-04-03T12:34:09.569Z</time></trkpt><trkpt lat="44.3678467" lon="11.0566483"><ele>323.0</ele><time>2026-04-03T12:34:10.569Z</time></trkpt><trkpt lat="44.36795" lon="11.0567717"><ele>323.0</ele><time>2026-04-03T12:34:11.573Z</time></trkpt><trkpt lat="44.3680533" lon="11.056895"><ele>323.0</ele><time>2026-04-03T12:34:12.566Z</time></trkpt><trkpt lat="44.3681567" lon="11.057015"><ele>323.0</ele><time>2026-04-03T12:34:13.574Z</time></trkpt><trkpt lat="44.36826" lon="11.0571333"><ele>323.0</ele><time>2026-04-03T12:34:14.578Z</time></trkpt><trkpt lat="44.3683583" lon="11.057255"><ele>323.0</ele><time>2026-04-03T12:34:15.569Z</time></trkpt><trkpt lat="44.3684583" lon="11.0573733"><ele>323.0</ele><time>2026-04-03T12:34:16.57Z</time></trkpt><trkpt lat="44.3685567" lon="11.057495"><ele>323.0</ele><time>2026-04-03T12:34:17.567Z</time></trkpt><trkpt lat="44.3686583" lon="11.057605"><ele>323.75</ele><time>2026-04-03T12:34:18.576Z</time></trkpt><trkpt lat="44.36876" lon="11.05772"><ele>324.5</ele><time>2026-04-03T12:34:19.574Z</time></trkpt><trkpt lat="44.36886" lon="11.0578417"><ele>325.25</ele><time>2026-04-03T12:34:20.57Z</time></trkpt><trkpt lat="44.3689617" lon="11.0579683"><ele>326.0</ele><time>2026-04-03T12:34:21.577Z</time></trkpt><trkpt lat="44.3690667" lon="11.05809"><ele>326.0</ele><time>2026-04-03T12:34:22.567Z</time></trkpt><trkpt lat="44.3691683" lon="11.0582217"><ele>326.0</ele><time>2026-04-03T12:34:23.568Z</time></trkpt><trkpt lat="44.3692717" lon="11.05835"><ele>326.0</ele><time>2026-04-03T12:34:24.574Z</time></trkpt><trkpt lat="44.3693767" lon="11.05848"><ele>326.0</ele><time>2026-04-03T12:34:25.573Z</time></trkpt><trkpt lat="44.36948" lon="11.0586117"><ele>324.25</ele><time>2026-04-03T12:34:26.568Z</time></trkpt><trkpt lat="44.3695883" lon="11.058745"><ele>322.5</ele><time>2026-04-03T12:34:27.576Z</time></trkpt><trkpt lat="44.369695" lon="11.058875"><ele>320.75</ele><time>2026-04-03T12:34:28.572Z</time></trkpt><trkpt lat="44.3698" lon="11.0589983"><ele>319.0</ele><time>2026-04-03T12:34:29.57Z</time></trkpt><trkpt lat="44.3699" lon="11.05912"><ele>318.0</ele><time>2026-04-03T12:34:30.569Z</time></trkpt><trkpt lat="44.3700017" lon="11.059245"><ele>317.0</ele><time>2026-04-03T12:34:31.575Z</time></trkpt><trkpt lat="44.3700983" lon="11.0593783"><ele>316.0</ele><time>2026-04-03T12:34:32.579Z</time></trkpt><trkpt lat="44.37019" lon="11.059525"><ele>315.0</ele><time>2026-04-03T12:34:33.569Z</time></trkpt><trkpt lat="44.37027" lon="11.0596867"><ele>315.0</ele><time>2026-04-03T12:34:34.578Z</time></trkpt><trkpt lat="44.3703383" lon="11.0598583"><ele>315.0</ele><time>2026-04-03T12:34:35.571Z</time></trkpt><trkpt lat="44.3703983" lon="11.0600383"><ele>315.0</ele><time>2026-04-03T12:34:36.573Z</time></trkpt><trkpt lat="44.370455" lon="11.0602233"><ele>315.0</ele><time>2026-04-03T12:34:37.576Z</time></trkpt><trkpt lat="44.3705117" lon="11.0604117"><ele>317.25</ele><time>2026-04-03T12:34:38.571Z</time></trkpt><trkpt lat="44.3705633" lon="11.0605983"><ele>319.5</ele><time>2026-04-03T12:34:39.572Z</time></trkpt><trkpt lat="44.370615" lon="11.0607867"><ele>321.75</ele><time>2026-04-03T12:34:40.571Z</time></trkpt><trkpt lat="44.3706733" lon="11.0609717"><ele>324.0</ele><time>2026-04-03T12:34:41.569Z</time></trkpt><trkpt lat="44.3707267" lon="11.0611567"><ele>324.5</ele><time>2026-04-03T12:34:42.574Z</time></trkpt><trkpt lat="44.3707733" lon="11.0613383"><ele>325.0</ele><time>2026-04-03T12:34:43.57Z</time></trkpt><trkpt lat="44.3708217" lon="11.061515"><ele>325.5</ele><time>2026-04-03T12:34:44.575Z</time></trkpt><trkpt lat="44.37087" lon="11.06169"><ele>326.0</ele><time>2026-04-03T12:34:45.571Z</time></trkpt><trkpt lat="44.3709167" lon="11.061865"><ele>323.5</ele><time>2026-04-03T12:34:46.568Z</time></trkpt><trkpt lat="44.3709633" lon="11.0620417"><ele>321.0</ele><time>2026-04-03T12:34:47.57Z</time></trkpt><trkpt lat="44.3710117" lon="11.0622167"><ele>318.5</ele><time>2026-04-03T12:34:48.569Z</time></trkpt><trkpt lat="44.3710583" lon="11.0623917"><ele>316.0</ele><time>2026-04-03T12:34:49.57Z</time></trkpt><trkpt lat="44.3711067" lon="11.062565"><ele>314.25</ele><time>2026-04-03T12:34:50.575Z</time></trkpt><trkpt lat="44.3711633" lon="11.0627367"><ele>312.5</ele><time>2026-04-03T12:34:51.568Z</time></trkpt><trkpt lat="44.371225" lon="11.0629067"><ele>310.75</ele><time>2026-04-03T12:34:52.575Z</time></trkpt><trkpt lat="44.3712883" lon="11.063075"><ele>309.0</ele><time>2026-04-03T12:34:53.57Z</time></trkpt><trkpt lat="44.3713583" lon="11.0632367"><ele>311.25</ele><time>2026-04-03T12:34:54.574Z</time></trkpt><trkpt lat="44.3714317" lon="11.063395"><ele>313.5</ele><time>2026-04-03T12:34:55.574Z</time></trkpt><trkpt lat="44.37151" lon="11.063545"><ele>315.75</ele><time>2026-04-03T12:34:56.575Z</time></trkpt><trkpt lat="44.3715933" lon="11.06369"><ele>318.0</ele><time>2026-04-03T12:34:57.568Z</time></trkpt><trkpt lat="44.3716767" lon="11.0638283"><ele>318.0</ele><time>2026-04-03T12:34:58.575Z</time></trkpt><trkpt lat="44.3717683" lon="11.063955"><ele>318.0</ele><time>2026-04-03T12:34:59.574Z</time></trkpt><trkpt lat="44.3718617" lon="11.0640833"><ele>318.0</ele><time>2026-04-03T12:35:00.577Z</time></trkpt><trkpt lat="44.3719583" lon="11.0642117"><ele>318.0</ele><time>2026-04-03T12:35:01.573Z</time></trkpt><trkpt lat="44.3720583" lon="11.0643333"><ele>320.5</ele><time>2026-04-03T12:35:02.574Z</time></trkpt><trkpt lat="44.3721567" lon="11.064455"><ele>323.0</ele><time>2026-04-03T12:35:03.57Z</time></trkpt><trkpt lat="44.3722533" lon="11.0645783"><ele>325.5</ele><time>2026-04-03T12:35:04.574Z</time></trkpt><trkpt lat="44.37235" lon="11.0647017"><ele>328.0</ele><time>2026-04-03T12:35:05.57Z</time></trkpt><trkpt lat="44.372445" lon="11.0648267"><ele>323.0</ele><time>2026-04-03T12:35:06.574Z</time></trkpt><trkpt lat="44.3725433" lon="11.0649483"><ele>318.0</ele><time>2026-04-03T12:35:07.569Z</time></trkpt><trkpt lat="44.37264" lon="11.065065"><ele>313.0</ele><time>2026-04-03T12:35:08.571Z</time></trkpt><trkpt lat="44.3727317" lon="11.0651833"><ele>308.0</ele><time>2026-04-03T12:35:09.57Z</time></trkpt><trkpt lat="44.3728233" lon="11.0653"><ele>308.0</ele><time>2026-04-03T12:35:10.572Z</time></trkpt><trkpt lat="44.3729183" lon="11.0654067"><ele>308.0</ele><time>2026-04-03T12:35:11.57Z</time></trkpt><trkpt lat="44.3730133" lon="11.0655117"><ele>308.0</ele><time>2026-04-03T12:35:12.572Z</time></trkpt><trkpt lat="44.37311" lon="11.0656083"><ele>308.0</ele><time>2026-04-03T12:35:13.572Z</time></trkpt><trkpt lat="44.3732167" lon="11.0656967"><ele>307.25</ele><time>2026-04-03T12:35:14.581Z</time></trkpt><trkpt lat="44.3733317" lon="11.0657767"><ele>306.5</ele><time>2026-04-03T12:35:15.574Z</time></trkpt><trkpt lat="44.3734617" lon="11.0658317"><ele>305.75</ele><time>2026-04-03T12:35:16.571Z</time></trkpt><trkpt lat="44.3735883" lon="11.065875"><ele>305.0</ele><time>2026-04-03T12:35:17.572Z</time></trkpt><trkpt lat="44.3737167" lon="11.065905"><ele>305.0</ele><time>2026-04-03T12:35:18.572Z</time></trkpt><trkpt lat="44.3738433" lon="11.06593"><ele>305.0</ele><time>2026-04-03T12:35:19.574Z</time></trkpt><trkpt lat="44.3739667" lon="11.065945"><ele>305.0</ele><time>2026-04-03T12:35:20.576Z</time></trkpt><trkpt lat="44.3740883" lon="11.0659633"><ele>305.0</ele><time>2026-04-03T12:35:21.572Z</time></trkpt><trkpt lat="44.3742133" lon="11.06598"><ele>306.0</ele><time>2026-04-03T12:35:22.574Z</time></trkpt><trkpt lat="44.3743383" lon="11.066"><ele>307.0</ele><time>2026-04-03T12:35:23.57Z</time></trkpt><trkpt lat="44.37447" lon="11.0660133"><ele>308.0</ele><time>2026-04-03T12:35:24.575Z</time></trkpt><trkpt lat="44.3746017" lon="11.0660283"><ele>309.0</ele><time>2026-04-03T12:35:25.568Z</time></trkpt><trkpt lat="44.3747267" lon="11.0660433"><ele>309.0</ele><time>2026-04-03T12:35:26.57Z</time></trkpt><trkpt lat="44.37485" lon="11.0660633"><ele>309.0</ele><time>2026-04-03T12:35:27.575Z</time></trkpt><trkpt lat="44.3749733" lon="11.0660983"><ele>309.0</ele><time>2026-04-03T12:35:28.576Z</time></trkpt><trkpt lat="44.3750933" lon="11.06616"><ele>309.0</ele><time>2026-04-03T12:35:29.569Z</time></trkpt><trkpt lat="44.37521" lon="11.0662317"><ele>309.0</ele><time>2026-04-03T12:35:30.584Z</time></trkpt><trkpt lat="44.375325" lon="11.06631"><ele>309.0</ele><time>2026-04-03T12:35:31.576Z</time></trkpt><trkpt lat="44.375435" lon="11.066395"><ele>309.0</ele><time>2026-04-03T12:35:32.575Z</time></trkpt><trkpt lat="44.3755467" lon="11.0664717"><ele>309.0</ele><time>2026-04-03T12:35:33.574Z</time></trkpt><trkpt lat="44.3756567" lon="11.066535"><ele>307.59999999999997</ele><time>2026-04-03T12:35:34.571Z</time></trkpt><trkpt lat="44.3757683" lon="11.0665833"><ele>306.2</ele><time>2026-04-03T12:35:35.578Z</time></trkpt><trkpt lat="44.3758733" lon="11.0666217"><ele>304.79999999999995</ele><time>2026-04-03T12:35:36.582Z</time></trkpt><trkpt lat="44.3759767" lon="11.0666517"><ele>303.4</ele><time>2026-04-03T12:35:37.569Z</time></trkpt><trkpt lat="44.3760783" lon="11.0666717"><ele>302.0</ele><time>2026-04-03T12:35:38.574Z</time></trkpt><trkpt lat="44.3761733" lon="11.0666933"><ele>302.0</ele><time>2026-04-03T12:35:39.568Z</time></trkpt><trkpt lat="44.3762683" lon="11.0667267"><ele>302.0</ele><time>2026-04-03T12:35:40.575Z</time></trkpt><trkpt lat="44.3763667" lon="11.0667617"><ele>302.0</ele><time>2026-04-03T12:35:41.572Z</time></trkpt><trkpt lat="44.37647" lon="11.0667983"><ele>302.0</ele><time>2026-04-03T12:35:42.571Z</time></trkpt><trkpt lat="44.3765783" lon="11.0668433"><ele>302.0</ele><time>2026-04-03T12:35:43.575Z</time></trkpt><trkpt lat="44.3766967" lon="11.0668883"><ele>303.0</ele><time>2026-04-03T12:35:44.57Z</time></trkpt><trkpt lat="44.376825" lon="11.0669367"><ele>304.0</ele><time>2026-04-03T12:35:45.575Z</time></trkpt><trkpt lat="44.3769567" lon="11.0669867"><ele>305.0</ele><time>2026-04-03T12:35:46.569Z</time></trkpt><trkpt lat="44.3770917" lon="11.0670517"><ele>306.0</ele><time>2026-04-03T12:35:47.57Z</time></trkpt><trkpt lat="44.3772267" lon="11.0671217"><ele>308.0</ele><time>2026-04-03T12:35:48.574Z</time></trkpt><trkpt lat="44.3773567" lon="11.0672"><ele>310.0</ele><time>2026-04-03T12:35:49.573Z</time></trkpt><trkpt lat="44.377485" lon="11.06729"><ele>312.0</ele><time>2026-04-03T12:35:50.576Z</time></trkpt><trkpt lat="44.3776117" lon="11.0673867"><ele>314.0</ele><time>2026-04-03T12:35:51.576Z</time></trkpt><trkpt lat="44.37773" lon="11.06749"><ele>313.0</ele><time>2026-04-03T12:35:52.573Z</time></trkpt><trkpt lat="44.3778467" lon="11.067595"><ele>312.0</ele><time>2026-04-03T12:35:53.577Z</time></trkpt><trkpt lat="44.377965" lon="11.0676917"><ele>311.0</ele><time>2026-04-03T12:35:54.571Z</time></trkpt><trkpt lat="44.3780833" lon="11.0677867"><ele>310.0</ele><time>2026-04-03T12:35:55.572Z</time></trkpt><trkpt lat="44.378205" lon="11.0678783"><ele>310.0</ele><time>2026-04-03T12:35:56.572Z</time></trkpt><trkpt lat="44.3783267" lon="11.06797"><ele>310.0</ele><time>2026-04-03T12:35:57.571Z</time></trkpt><trkpt lat="44.3784533" lon="11.068055"><ele>310.0</ele><time>2026-04-03T12:35:58.57Z</time></trkpt><trkpt lat="44.378585" lon="11.0681317"><ele>310.0</ele><time>2026-04-03T12:35:59.577Z</time></trkpt><trkpt lat="44.3787217" lon="11.0682033"><ele>311.0</ele><time>2026-04-03T12:36:00.573Z</time></trkpt><trkpt lat="44.3788567" lon="11.0682733"><ele>312.0</ele><time>2026-04-03T12:36:01.58Z</time></trkpt><trkpt lat="44.378995" lon="11.068345"><ele>313.0</ele><time>2026-04-03T12:36:02.575Z</time></trkpt><trkpt lat="44.3791317" lon="11.0684183"><ele>314.0</ele><time>2026-04-03T12:36:03.576Z</time></trkpt><trkpt lat="44.379265" lon="11.0684867"><ele>311.4</ele><time>2026-04-03T12:36:04.568Z</time></trkpt><trkpt lat="44.3793817" lon="11.0685483"><ele>308.79999999999995</ele><time>2026-04-03T12:36:05.57Z</time></trkpt><trkpt lat="44.3794783" lon="11.0685983"><ele>306.20000000000005</ele><time>2026-04-03T12:36:06.576Z</time></trkpt><trkpt lat="44.3795583" lon="11.0686317"><ele>303.6</ele><time>2026-04-03T12:36:07.573Z</time></trkpt><trkpt lat="44.3796267" lon="11.0686583"><ele>301.0</ele><time>2026-04-03T12:36:08.571Z</time></trkpt><trkpt lat="44.3797333" lon="11.0687083"><ele>300.5</ele><time>2026-04-03T12:36:10.575Z</time></trkpt><trkpt lat="44.3797817" lon="11.0687667"><ele>300.0</ele><time>2026-04-03T12:36:11.576Z</time></trkpt><trkpt lat="44.379845" lon="11.0688467"><ele>299.5</ele><time>2026-04-03T12:36:12.577Z</time></trkpt><trkpt lat="44.3799117" lon="11.0689383"><ele>299.0</ele><time>2026-04-03T12:36:13.574Z</time></trkpt><trkpt lat="44.37998" lon="11.069035"><ele>298.5</ele><time>2026-04-03T12:36:14.576Z</time></trkpt><trkpt lat="44.38005" lon="11.069135"><ele>298.0</ele><time>2026-04-03T12:36:15.569Z</time></trkpt><trkpt lat="44.3801217" lon="11.0692367"><ele>296.2</ele><time>2026-04-03T12:36:16.574Z</time></trkpt><trkpt lat="44.3801933" lon="11.0693367"><ele>294.4</ele><time>2026-04-03T12:36:17.569Z</time></trkpt><trkpt lat="44.3802683" lon="11.0694383"><ele>292.59999999999997</ele><time>2026-04-03T12:36:18.578Z</time></trkpt><trkpt lat="44.3803417" lon="11.0695383"><ele>290.8</ele><time>2026-04-03T12:36:19.577Z</time></trkpt><trkpt lat="44.3804183" lon="11.069635"><ele>289.0</ele><time>2026-04-03T12:36:20.577Z</time></trkpt><trkpt lat="44.3804917" lon="11.06973"><ele>289.0</ele><time>2026-04-03T12:36:21.577Z</time></trkpt><trkpt lat="44.3805583" lon="11.0698217"><ele>289.0</ele><time>2026-04-03T12:36:22.57Z</time></trkpt><trkpt lat="44.3806183" lon="11.0699133"><ele>289.0</ele><time>2026-04-03T12:36:23.573Z</time></trkpt><trkpt lat="44.380655" lon="11.0700283"><ele>289.0</ele><time>2026-04-03T12:36:24.574Z</time></trkpt><trkpt lat="44.3806733" lon="11.07016"><ele>289.0</ele><time>2026-04-03T12:36:25.577Z</time></trkpt><trkpt lat="44.3806833" lon="11.0703033"><ele>288.2</ele><time>2026-04-03T12:36:26.572Z</time></trkpt><trkpt lat="44.3807017" lon="11.070445"><ele>287.4</ele><time>2026-04-03T12:36:27.571Z</time></trkpt><trkpt lat="44.38074" lon="11.0705817"><ele>286.6</ele><time>2026-04-03T12:36:28.569Z</time></trkpt><trkpt lat="44.3808017" lon="11.070705"><ele>285.8</ele><time>2026-04-03T12:36:29.576Z</time></trkpt><trkpt lat="44.380885" lon="11.07081"><ele>285.0</ele><time>2026-04-03T12:36:30.576Z</time></trkpt><trkpt lat="44.380985" lon="11.0708867"><ele>283.75</ele><time>2026-04-03T12:36:31.572Z</time></trkpt><trkpt lat="44.3810883" lon="11.0709467"><ele>282.5</ele><time>2026-04-03T12:36:32.58Z</time></trkpt><trkpt lat="44.3811933" lon="11.0710017"><ele>281.25</ele><time>2026-04-03T12:36:33.575Z</time></trkpt><trkpt lat="44.3812983" lon="11.0710567"><ele>280.0</ele><time>2026-04-03T12:36:34.572Z</time></trkpt><trkpt lat="44.381405" lon="11.0711133"><ele>279.75</ele><time>2026-04-03T12:36:35.575Z</time></trkpt><trkpt lat="44.381515" lon="11.07117"><ele>279.5</ele><time>2026-04-03T12:36:36.572Z</time></trkpt><trkpt lat="44.38163" lon="11.0712267"><ele>279.25</ele><time>2026-04-03T12:36:37.573Z</time></trkpt><trkpt lat="44.38175" lon="11.0712833"><ele>279.0</ele><time>2026-04-03T12:36:38.572Z</time></trkpt><trkpt lat="44.3818717" lon="11.071335"><ele>279.0</ele><time>2026-04-03T12:36:39.576Z</time></trkpt><trkpt lat="44.382" lon="11.0713733"><ele>279.0</ele><time>2026-04-03T12:36:40.567Z</time></trkpt><trkpt lat="44.3821317" lon="11.0714017"><ele>279.0</ele><time>2026-04-03T12:36:41.573Z</time></trkpt><trkpt lat="44.382265" lon="11.0714233"><ele>279.0</ele><time>2026-04-03T12:36:42.572Z</time></trkpt><trkpt lat="44.3824017" lon="11.07144"><ele>278.5</ele><time>2026-04-03T12:36:43.579Z</time></trkpt><trkpt lat="44.3825383" lon="11.0714483"><ele>278.0</ele><time>2026-04-03T12:36:44.571Z</time></trkpt><trkpt lat="44.38268" lon="11.0714567"><ele>277.5</ele><time>2026-04-03T12:36:45.575Z</time></trkpt><trkpt lat="44.382825" lon="11.071465"><ele>277.0</ele><time>2026-04-03T12:36:46.569Z</time></trkpt><trkpt lat="44.3829717" lon="11.0714717"><ele>277.25</ele><time>2026-04-03T12:36:47.571Z</time></trkpt><trkpt lat="44.3831183" lon="11.0714733"><ele>277.5</ele><time>2026-04-03T12:36:48.572Z</time></trkpt><trkpt lat="44.383265" lon="11.0714717"><ele>277.75</ele><time>2026-04-03T12:36:49.576Z</time></trkpt><trkpt lat="44.3834133" lon="11.071465"><ele>278.0</ele><time>2026-04-03T12:36:50.573Z</time></trkpt><trkpt lat="44.3835617" lon="11.0714617"><ele>278.0</ele><time>2026-04-03T12:36:51.576Z</time></trkpt><trkpt lat="44.3837083" lon="11.0714583"><ele>278.0</ele><time>2026-04-03T12:36:52.57Z</time></trkpt><trkpt lat="44.383855" lon="11.0714517"><ele>278.0</ele><time>2026-04-03T12:36:53.573Z</time></trkpt><trkpt lat="44.3840017" lon="11.07144"><ele>278.0</ele><time>2026-04-03T12:36:54.573Z</time></trkpt><trkpt lat="44.3841517" lon="11.0714267"><ele>277.25</ele><time>2026-04-03T12:36:55.57Z</time></trkpt><trkpt lat="44.3842983" lon="11.07142"><ele>276.5</ele><time>2026-04-03T12:36:56.569Z</time></trkpt><trkpt lat="44.3844433" lon="11.0714083"><ele>275.75</ele><time>2026-04-03T12:36:57.572Z</time></trkpt><trkpt lat="44.384585" lon="11.071405"><ele>275.0</ele><time>2026-04-03T12:36:58.57Z</time></trkpt><trkpt lat="44.3847283" lon="11.0714033"><ele>274.5</ele><time>2026-04-03T12:36:59.572Z</time></trkpt><trkpt lat="44.3848733" lon="11.0713983"><ele>274.0</ele><time>2026-04-03T12:37:00.573Z</time></trkpt><trkpt lat="44.3850217" lon="11.0713917"><ele>273.5</ele><time>2026-04-03T12:37:01.574Z</time></trkpt><trkpt lat="44.3851667" lon="11.0713817"><ele>273.0</ele><time>2026-04-03T12:37:02.582Z</time></trkpt><trkpt lat="44.3853133" lon="11.0713683"><ele>273.0</ele><time>2026-04-03T12:37:03.567Z</time></trkpt><trkpt lat="44.38546" lon="11.071365"><ele>273.0</ele><time>2026-04-03T12:37:04.573Z</time></trkpt><trkpt lat="44.385605" lon="11.0713617"><ele>273.0</ele><time>2026-04-03T12:37:05.57Z</time></trkpt><trkpt lat="44.3857533" lon="11.071355"><ele>273.0</ele><time>2026-04-03T12:37:06.572Z</time></trkpt><trkpt lat="44.385905" lon="11.07135"><ele>273.0</ele><time>2026-04-03T12:37:07.576Z</time></trkpt><trkpt lat="44.3860583" lon="11.0713383"><ele>273.0</ele><time>2026-04-03T12:37:08.574Z</time></trkpt><trkpt lat="44.3862083" lon="11.0713267"><ele>273.0</ele><time>2026-04-03T12:37:09.576Z</time></trkpt><trkpt lat="44.3863633" lon="11.0713167"><ele>272.3333333333333</ele><time>2026-04-03T12:37:10.575Z</time></trkpt><trkpt lat="44.3865183" lon="11.071305"><ele>271.66666666666663</ele><time>2026-04-03T12:37:11.57Z</time></trkpt><trkpt lat="44.3866733" lon="11.0712933"><ele>271.0</ele><time>2026-04-03T12:37:12.577Z</time></trkpt><trkpt lat="44.3868267" lon="11.071285"><ele>271.0</ele><time>2026-04-03T12:37:13.57Z</time></trkpt><trkpt lat="44.3869767" lon="11.07128"><ele>271.0</ele><time>2026-04-03T12:37:14.576Z</time></trkpt><trkpt lat="44.387125" lon="11.0712683"><ele>271.0</ele><time>2026-04-03T12:37:15.571Z</time></trkpt><trkpt lat="44.3872733" lon="11.0712567"><ele>271.0</ele><time>2026-04-03T12:37:16.572Z</time></trkpt><trkpt lat="44.3874217" lon="11.071245"><ele>270.25</ele><time>2026-04-03T12:37:17.573Z</time></trkpt><trkpt lat="44.3875683" lon="11.0712367"><ele>269.5</ele><time>2026-04-03T12:37:18.575Z</time></trkpt><trkpt lat="44.3877117" lon="11.0712267"><ele>268.75</ele><time>2026-04-03T12:37:19.576Z</time></trkpt><trkpt lat="44.3878517" lon="11.07122"><ele>268.0</ele><time>2026-04-03T12:37:20.577Z</time></trkpt><trkpt lat="44.38799" lon="11.0712117"><ele>268.0</ele><time>2026-04-03T12:37:21.575Z</time></trkpt><trkpt lat="44.3881233" lon="11.0712067"><ele>268.0</ele><time>2026-04-03T12:37:22.575Z</time></trkpt><trkpt lat="44.388255" lon="11.0712"><ele>268.0</ele><time>2026-04-03T12:37:23.571Z</time></trkpt><trkpt lat="44.3883867" lon="11.071195"><ele>268.0</ele><time>2026-04-03T12:37:24.572Z</time></trkpt><trkpt lat="44.3885117" lon="11.07119"><ele>268.0</ele><time>2026-04-03T12:37:25.57Z</time></trkpt><trkpt lat="44.388625" lon="11.07119"><ele>268.0</ele><time>2026-04-03T12:37:26.577Z</time></trkpt><trkpt lat="44.3887283" lon="11.071195"><ele>268.0</ele><time>2026-04-03T12:37:27.569Z</time></trkpt><trkpt lat="44.3888333" lon="11.0712033"><ele>268.0</ele><time>2026-04-03T12:37:28.571Z</time></trkpt><trkpt lat="44.3889433" lon="11.071215"><ele>268.0</ele><time>2026-04-03T12:37:29.571Z</time></trkpt><trkpt lat="44.3890583" lon="11.0712267"><ele>267.0</ele><time>2026-04-03T12:37:30.571Z</time></trkpt><trkpt lat="44.3891783" lon="11.0712383"><ele>266.0</ele><time>2026-04-03T12:37:31.574Z</time></trkpt><trkpt lat="44.3893067" lon="11.071265"><ele>265.0</ele><time>2026-04-03T12:37:32.574Z</time></trkpt><trkpt lat="44.3894367" lon="11.071295"><ele>264.0</ele><time>2026-04-03T12:37:33.573Z</time></trkpt><trkpt lat="44.3895667" lon="11.07133"><ele>263.5</ele><time>2026-04-03T12:37:34.568Z</time></trkpt><trkpt lat="44.3897033" lon="11.0713683"><ele>263.0</ele><time>2026-04-03T12:37:35.571Z</time></trkpt><trkpt lat="44.38984" lon="11.0714083"><ele>262.5</ele><time>2026-04-03T12:37:36.568Z</time></trkpt><trkpt lat="44.3899783" lon="11.0714467"><ele>262.0</ele><time>2026-04-03T12:37:37.569Z</time></trkpt><trkpt lat="44.3901183" lon="11.0714867"><ele>262.0</ele><time>2026-04-03T12:37:38.576Z</time></trkpt><trkpt lat="44.39026" lon="11.0715217"><ele>262.0</ele><time>2026-04-03T12:37:39.57Z</time></trkpt><trkpt lat="44.390405" lon="11.07156"><ele>262.0</ele><time>2026-04-03T12:37:40.583Z</time></trkpt><trkpt lat="44.3905517" lon="11.0715983"><ele>262.0</ele><time>2026-04-03T12:37:41.571Z</time></trkpt><trkpt lat="44.3906967" lon="11.0716383"><ele>261.0</ele><time>2026-04-03T12:37:42.569Z</time></trkpt><trkpt lat="44.39084" lon="11.07168"><ele>260.0</ele><time>2026-04-03T12:37:43.577Z</time></trkpt><trkpt lat="44.3909833" lon="11.0717217"><ele>259.0</ele><time>2026-04-03T12:37:44.573Z</time></trkpt><trkpt lat="44.3911233" lon="11.071765"><ele>258.0</ele><time>2026-04-03T12:37:45.576Z</time></trkpt><trkpt lat="44.3912633" lon="11.07181"><ele>257.75</ele><time>2026-04-03T12:37:46.571Z</time></trkpt><trkpt lat="44.3914033" lon="11.0718567"><ele>257.5</ele><time>2026-04-03T12:37:47.58Z</time></trkpt><trkpt lat="44.3915417" lon="11.0718983"><ele>257.25</ele><time>2026-04-03T12:37:48.572Z</time></trkpt><trkpt lat="44.391675" lon="11.0719383"><ele>257.0</ele><time>2026-04-03T12:37:49.574Z</time></trkpt><trkpt lat="44.3918033" lon="11.07198"><ele>257.0</ele><time>2026-04-03T12:37:50.571Z</time></trkpt><trkpt lat="44.3919333" lon="11.072025"><ele>257.0</ele><time>2026-04-03T12:37:51.575Z</time></trkpt><trkpt lat="44.392065" lon="11.0720683"><ele>257.0</ele><time>2026-04-03T12:37:52.572Z</time></trkpt><trkpt lat="44.3921967" lon="11.0721117"><ele>257.0</ele><time>2026-04-03T12:37:53.575Z</time></trkpt><trkpt lat="44.39233" lon="11.0721583"><ele>257.5</ele><time>2026-04-03T12:37:54.575Z</time></trkpt><trkpt lat="44.3924667" lon="11.072205"><ele>258.0</ele><time>2026-04-03T12:37:55.574Z</time></trkpt><trkpt lat="44.3926033" lon="11.0722583"><ele>258.5</ele><time>2026-04-03T12:37:56.574Z</time></trkpt><trkpt lat="44.3927367" lon="11.0723217"><ele>259.0</ele><time>2026-04-03T12:37:57.573Z</time></trkpt><trkpt lat="44.39287" lon="11.0723933"><ele>258.5</ele><time>2026-04-03T12:37:58.568Z</time></trkpt><trkpt lat="44.3929967" lon="11.0724783"><ele>258.0</ele><time>2026-04-03T12:37:59.569Z</time></trkpt><trkpt lat="44.3931233" lon="11.0725667"><ele>257.5</ele><time>2026-04-03T12:38:00.577Z</time></trkpt><trkpt lat="44.393245" lon="11.0726617"><ele>257.0</ele><time>2026-04-03T12:38:01.569Z</time></trkpt><trkpt lat="44.39337" lon="11.0727583"><ele>257.0</ele><time>2026-04-03T12:38:02.573Z</time></trkpt><trkpt lat="44.3934983" lon="11.07285"><ele>257.0</ele><time>2026-04-03T12:38:03.578Z</time></trkpt><trkpt lat="44.393625" lon="11.0729433"><ele>257.0</ele><time>2026-04-03T12:38:04.569Z</time></trkpt><trkpt lat="44.39375" lon="11.0730367"><ele>257.0</ele><time>2026-04-03T12:38:05.577Z</time></trkpt><trkpt lat="44.3938717" lon="11.0731317"><ele>257.75</ele><time>2026-04-03T12:38:06.569Z</time></trkpt><trkpt lat="44.3939967" lon="11.0732267"><ele>258.5</ele><time>2026-04-03T12:38:07.569Z</time></trkpt><trkpt lat="44.3941217" lon="11.0733233"><ele>259.25</ele><time>2026-04-03T12:38:08.574Z</time></trkpt><trkpt lat="44.3942467" lon="11.0734167"><ele>260.0</ele><time>2026-04-03T12:38:09.573Z</time></trkpt><trkpt lat="44.3943683" lon="11.0735117"><ele>258.5</ele><time>2026-04-03T12:38:10.575Z</time></trkpt><trkpt lat="44.394495" lon="11.0736017"><ele>257.0</ele><time>2026-04-03T12:38:11.572Z</time></trkpt><trkpt lat="44.3946217" lon="11.0736933"><ele>255.5</ele><time>2026-04-03T12:38:12.576Z</time></trkpt><trkpt lat="44.3947417" lon="11.0737833"><ele>254.0</ele><time>2026-04-03T12:38:13.572Z</time></trkpt><trkpt lat="44.394855" lon="11.0738683"><ele>254.0</ele><time>2026-04-03T12:38:14.577Z</time></trkpt><trkpt lat="44.3949683" lon="11.0739433"><ele>254.0</ele><time>2026-04-03T12:38:15.576Z</time></trkpt><trkpt lat="44.395075" lon="11.0740233"><ele>254.0</ele><time>2026-04-03T12:38:16.572Z</time></trkpt><trkpt lat="44.395175" lon="11.0740983"><ele>254.0</ele><time>2026-04-03T12:38:17.569Z</time></trkpt><trkpt lat="44.395265" lon="11.0741717"><ele>253.50000000000003</ele><time>2026-04-03T12:38:18.571Z</time></trkpt><trkpt lat="44.3953533" lon="11.0742417"><ele>253.0</ele><time>2026-04-03T12:38:19.573Z</time></trkpt><trkpt lat="44.3954383" lon="11.074295"><ele>252.5</ele><time>2026-04-03T12:38:20.576Z</time></trkpt><trkpt lat="44.3955133" lon="11.0743383"><ele>252.0</ele><time>2026-04-03T12:38:21.577Z</time></trkpt><trkpt lat="44.395585" lon="11.0743617"><ele>251.50000000000003</ele><time>2026-04-03T12:38:22.572Z</time></trkpt><trkpt lat="44.3956483" lon="11.0743633"><ele>251.0</ele><time>2026-04-03T12:38:23.577Z</time></trkpt><trkpt lat="44.3957533" lon="11.0743233"><ele>251.50000000000003</ele><time>2026-04-03T12:38:25.579Z</time></trkpt><trkpt lat="44.3957267" lon="11.0741717"><ele>252.0</ele><time>2026-04-03T12:38:27.575Z</time></trkpt><trkpt lat="44.39569" lon="11.0740967"><ele>252.5</ele><time>2026-04-03T12:38:28.572Z</time></trkpt><trkpt lat="44.3956317" lon="11.0740183"><ele>253.0</ele><time>2026-04-03T12:38:29.572Z</time></trkpt><trkpt lat="44.3955683" lon="11.0739417"><ele>253.50000000000003</ele><time>2026-04-03T12:38:30.567Z</time></trkpt><trkpt lat="44.3955117" lon="11.0738583"><ele>254.0</ele><time>2026-04-03T12:38:31.572Z</time></trkpt><trkpt lat="44.395455" lon="11.0737683"><ele>254.0</ele><time>2026-04-03T12:38:32.576Z</time></trkpt><trkpt lat="44.3954033" lon="11.0736633"><ele>253.99999999999997</ele><time>2026-04-03T12:38:33.572Z</time></trkpt><trkpt lat="44.395355" lon="11.0735517"><ele>253.99999999999997</ele><time>2026-04-03T12:38:34.569Z</time></trkpt><trkpt lat="44.3953067" lon="11.0734317"><ele>254.0</ele><time>2026-04-03T12:38:35.572Z</time></trkpt><trkpt lat="44.3952683" lon="11.073315"><ele>254.0</ele><time>2026-04-03T12:38:36.572Z</time></trkpt><trkpt lat="44.3952433" lon="11.0731967"><ele>254.79999999999998</ele><time>2026-04-03T12:38:37.57Z</time></trkpt><trkpt lat="44.3952283" lon="11.07307"><ele>255.59999999999997</ele><time>2026-04-03T12:38:38.574Z</time></trkpt><trkpt lat="44.39522" lon="11.0729317"><ele>256.4</ele><time>2026-04-03T12:38:39.57Z</time></trkpt><trkpt lat="44.3952067" lon="11.0727867"><ele>257.2</ele><time>2026-04-03T12:38:40.569Z</time></trkpt><trkpt lat="44.39519" lon="11.072635"><ele>258.0</ele><time>2026-04-03T12:38:41.571Z</time></trkpt><trkpt lat="44.3951733" lon="11.07248"><ele>259.4</ele><time>2026-04-03T12:38:42.577Z</time></trkpt><trkpt lat="44.395155" lon="11.072335"><ele>260.8</ele><time>2026-04-03T12:38:43.572Z</time></trkpt><trkpt lat="44.3951383" lon="11.0721967"><ele>262.2</ele><time>2026-04-03T12:38:44.573Z</time></trkpt><trkpt lat="44.3951167" lon="11.0720483"><ele>263.6</ele><time>2026-04-03T12:38:45.569Z</time></trkpt><trkpt lat="44.395095" lon="11.0718983"><ele>265.0</ele><time>2026-04-03T12:38:46.571Z</time></trkpt><trkpt lat="44.3950783" lon="11.0717517"><ele>265.4</ele><time>2026-04-03T12:38:47.575Z</time></trkpt><trkpt lat="44.39506" lon="11.0715983"><ele>265.8</ele><time>2026-04-03T12:38:48.571Z</time></trkpt><trkpt lat="44.3950367" lon="11.071445"><ele>266.2</ele><time>2026-04-03T12:38:49.568Z</time></trkpt><trkpt lat="44.3950167" lon="11.0713083"><ele>266.6</ele><time>2026-04-03T12:38:50.577Z</time></trkpt><trkpt lat="44.3950033" lon="11.0711783"><ele>267.0</ele><time>2026-04-03T12:38:51.567Z</time></trkpt><trkpt lat="44.3949883" lon="11.0710467"><ele>267.0</ele><time>2026-04-03T12:38:52.571Z</time></trkpt><trkpt lat="44.39497" lon="11.0709033"><ele>267.0</ele><time>2026-04-03T12:38:53.57Z</time></trkpt><trkpt lat="44.3949517" lon="11.0707533"><ele>267.0</ele><time>2026-04-03T12:38:54.572Z</time></trkpt><trkpt lat="44.3949367" lon="11.0706"><ele>267.0</ele><time>2026-04-03T12:38:55.572Z</time></trkpt><trkpt lat="44.39491" lon="11.0704517"><ele>267.0</ele><time>2026-04-03T12:38:56.57Z</time></trkpt><trkpt lat="44.3948717" lon="11.0703117"><ele>267.3333333333333</ele><time>2026-04-03T12:38:57.57Z</time></trkpt><trkpt lat="44.3948267" lon="11.0701767"><ele>267.6666666666667</ele><time>2026-04-03T12:38:58.57Z</time></trkpt><trkpt lat="44.394785" lon="11.07005"><ele>268.0</ele><time>2026-04-03T12:38:59.57Z</time></trkpt><trkpt lat="44.39475" lon="11.0699367"><ele>268.33333333333337</ele><time>2026-04-03T12:39:00.567Z</time></trkpt><trkpt lat="44.3947217" lon="11.069835"><ele>268.6666666666667</ele><time>2026-04-03T12:39:01.575Z</time></trkpt><trkpt lat="44.3947017" lon="11.0697317"><ele>269.0</ele><time>2026-04-03T12:39:02.573Z</time></trkpt><trkpt lat="44.3946917" lon="11.0696183"><ele>269.6666666666667</ele><time>2026-04-03T12:39:03.568Z</time></trkpt><trkpt lat="44.3946833" lon="11.0695017"><ele>270.33333333333337</ele><time>2026-04-03T12:39:04.574Z</time></trkpt><trkpt lat="44.3946733" lon="11.0693783"><ele>271.0</ele><time>2026-04-03T12:39:05.57Z</time></trkpt><trkpt lat="44.3946633" lon="11.0692533"><ele>271.6666666666667</ele><time>2026-04-03T12:39:06.571Z</time></trkpt><trkpt lat="44.3946533" lon="11.0691283"><ele>272.3333333333333</ele><time>2026-04-03T12:39:07.571Z</time></trkpt><trkpt lat="44.3946417" lon="11.0690183"><ele>273.0</ele><time>2026-04-03T12:39:08.573Z</time></trkpt><trkpt lat="44.3946333" lon="11.0689233"><ele>273.8</ele><time>2026-04-03T12:39:09.576Z</time></trkpt><trkpt lat="44.39463" lon="11.0687633"><ele>274.6</ele><time>2026-04-03T12:39:11.57Z</time></trkpt><trkpt lat="44.3946333" lon="11.0686183"><ele>275.4</ele><time>2026-04-03T12:39:13.577Z</time></trkpt><trkpt lat="44.3946467" lon="11.068525"><ele>276.2</ele><time>2026-04-03T12:39:14.571Z</time></trkpt><trkpt lat="44.39467" lon="11.0684083"><ele>277.0</ele><time>2026-04-03T12:39:15.57Z</time></trkpt><trkpt lat="44.3946833" lon="11.068285"><ele>277.66666666666663</ele><time>2026-04-03T12:39:16.572Z</time></trkpt><trkpt lat="44.3946933" lon="11.06816"><ele>278.3333333333333</ele><time>2026-04-03T12:39:17.571Z</time></trkpt><trkpt lat="44.39469" lon="11.06803"><ele>279.0</ele><time>2026-04-03T12:39:18.576Z</time></trkpt><trkpt lat="44.3946817" lon="11.0679067"><ele>279.6666666666667</ele><time>2026-04-03T12:39:19.572Z</time></trkpt><trkpt lat="44.3946767" lon="11.0677867"><ele>280.33333333333337</ele><time>2026-04-03T12:39:20.577Z</time></trkpt><trkpt lat="44.3946783" lon="11.0676717"><ele>281.0</ele><time>2026-04-03T12:39:21.572Z</time></trkpt><trkpt lat="44.394685" lon="11.0675617"><ele>281.0</ele><time>2026-04-03T12:39:22.574Z</time></trkpt><trkpt lat="44.3946933" lon="11.0674567"><ele>281.0</ele><time>2026-04-03T12:39:23.573Z</time></trkpt><trkpt lat="44.3946983" lon="11.0673483"><ele>281.0</ele><time>2026-04-03T12:39:24.572Z</time></trkpt><trkpt lat="44.3947" lon="11.06724"><ele>281.0</ele><time>2026-04-03T12:39:25.574Z</time></trkpt><trkpt lat="44.3946833" lon="11.0671317"><ele>281.0</ele><time>2026-04-03T12:39:26.572Z</time></trkpt><trkpt lat="44.39466" lon="11.0670217"><ele>281.0</ele><time>2026-04-03T12:39:27.569Z</time></trkpt><trkpt lat="44.3946417" lon="11.066915"><ele>281.14285714285717</ele><time>2026-04-03T12:39:28.57Z</time></trkpt><trkpt lat="44.3946233" lon="11.0668067"><ele>281.2857142857143</ele><time>2026-04-03T12:39:29.571Z</time></trkpt><trkpt lat="44.394605" lon="11.0667067"><ele>281.42857142857144</ele><time>2026-04-03T12:39:30.574Z</time></trkpt><trkpt lat="44.3945983" lon="11.0666083"><ele>281.57142857142856</ele><time>2026-04-03T12:39:31.576Z</time></trkpt><trkpt lat="44.3946033" lon="11.066515"><ele>281.7142857142857</ele><time>2026-04-03T12:39:32.576Z</time></trkpt><trkpt lat="44.3946183" lon="11.0664283"><ele>281.8571428571429</ele><time>2026-04-03T12:39:33.57Z</time></trkpt><trkpt lat="44.3946617" lon="11.0663483"><ele>282.0</ele><time>2026-04-03T12:39:34.571Z</time></trkpt><trkpt lat="44.394715" lon="11.0661883"><ele>283.57142857142856</ele><time>2026-04-03T12:39:36.574Z</time></trkpt><trkpt lat="44.3947267" lon="11.0660917"><ele>285.1428571428571</ele><time>2026-04-03T12:39:37.573Z</time></trkpt><trkpt lat="44.394725" lon="11.06599"><ele>286.71428571428567</ele><time>2026-04-03T12:39:38.57Z</time></trkpt><trkpt lat="44.39472" lon="11.0658867"><ele>288.2857142857143</ele><time>2026-04-03T12:39:39.571Z</time></trkpt><trkpt lat="44.394725" lon="11.06579"><ele>289.85714285714283</ele><time>2026-04-03T12:39:40.579Z</time></trkpt><trkpt lat="44.3947517" lon="11.0656967"><ele>291.4285714285714</ele><time>2026-04-03T12:39:41.57Z</time></trkpt><trkpt lat="44.3947767" lon="11.0656083"><ele>293.0</ele><time>2026-04-03T12:39:42.572Z</time></trkpt><trkpt lat="44.3947983" lon="11.0655233"><ele>294.0</ele><time>2026-04-03T12:39:43.573Z</time></trkpt><trkpt lat="44.39481" lon="11.06537"><ele>295.0</ele><time>2026-04-03T12:39:45.577Z</time></trkpt><trkpt lat="44.3947383" lon="11.0652233"><ele>296.0</ele><time>2026-04-03T12:39:47.572Z</time></trkpt><trkpt lat="44.3946833" lon="11.06516"><ele>297.0</ele><time>2026-04-03T12:39:48.57Z</time></trkpt><trkpt lat="44.394635" lon="11.0651"><ele>298.0</ele><time>2026-04-03T12:39:49.569Z</time></trkpt><trkpt lat="44.3945733" lon="11.065005"><ele>298.66666666666663</ele><time>2026-04-03T12:39:51.573Z</time></trkpt><trkpt lat="44.3944433" lon="11.0649115"><ele>299.3333333333333</ele><time>2026-04-03T12:40:05.573Z</time></trkpt><trkpt lat="44.3943811" lon="11.0648893"><ele>300.0</ele><time>2026-04-03T12:40:07.587Z</time></trkpt><trkpt lat="44.3943145" lon="11.0649396"><ele>300.6666666666667</ele><time>2026-04-03T12:40:09.576Z</time></trkpt><trkpt lat="44.3942469" lon="11.0649868"><ele>301.33333333333337</ele><time>2026-04-03T12:40:11.572Z</time></trkpt><trkpt lat="44.3941721" lon="11.0649906"><ele>302.0</ele><time>2026-04-03T12:40:13.582Z</time></trkpt><trkpt lat="44.3941201" lon="11.064919"><ele>303.00000000000006</ele><time>2026-04-03T12:40:15.57Z</time></trkpt><trkpt lat="44.3940839" lon="11.0648324"><ele>304.0</ele><time>2026-04-03T12:40:17.568Z</time></trkpt><trkpt lat="44.3940411" lon="11.0647517"><ele>305.0</ele><time>2026-04-03T12:40:19.578Z</time></trkpt><trkpt lat="44.3939649" lon="11.0646906"><ele>306.0</ele><time>2026-04-03T12:40:28.571Z</time></trkpt><trkpt lat="44.3939221" lon="11.0646226"><ele>307.0</ele><time>2026-04-03T12:40:31.57Z</time></trkpt><trkpt lat="44.3938467" lon="11.0645867"><ele>308.00000000000006</ele><time>2026-04-03T12:40:41.57Z</time></trkpt><trkpt lat="44.3937767" lon="11.064595"><ele>309.0</ele><time>2026-04-03T12:40:53.572Z</time></trkpt><trkpt lat="44.3937067" lon="11.0645483"><ele>310.1666666666667</ele><time>2026-04-03T12:40:57.572Z</time></trkpt><trkpt lat="44.3936767" lon="11.0644683"><ele>311.3333333333333</ele><time>2026-04-03T12:40:59.567Z</time></trkpt><trkpt lat="44.393635" lon="11.0643983"><ele>312.5</ele><time>2026-04-03T12:41:01.568Z</time></trkpt><trkpt lat="44.3935933" lon="11.0643217"><ele>313.66666666666663</ele><time>2026-04-03T12:41:03.571Z</time></trkpt><trkpt lat="44.393565" lon="11.0642383"><ele>314.8333333333333</ele><time>2026-04-03T12:41:05.575Z</time></trkpt><trkpt lat="44.3936" lon="11.0641183"><ele>316.0</ele><time>2026-04-03T12:41:08.571Z</time></trkpt><trkpt lat="44.39368" lon="11.0640433"><ele>316.0</ele><time>2026-04-03T12:41:10.579Z</time></trkpt><trkpt lat="44.393745" lon="11.063975"><ele>316.0</ele><time>2026-04-03T12:41:12.573Z</time></trkpt><trkpt lat="44.39379" lon="11.0639133"><ele>316.0</ele><time>2026-04-03T12:41:14.573Z</time></trkpt><trkpt lat="44.39384" lon="11.0638517"><ele>316.0</ele><time>2026-04-03T12:41:16.568Z</time></trkpt><trkpt lat="44.3939067" lon="11.06377"><ele>316.0</ele><time>2026-04-03T12:41:18.573Z</time></trkpt><trkpt lat="44.3939833" lon="11.0636783"><ele>316.0</ele><time>2026-04-03T12:41:20.572Z</time></trkpt><trkpt lat="44.3940567" lon="11.063585"><ele>316.0</ele><time>2026-04-03T12:41:22.569Z</time></trkpt><trkpt lat="44.3941367" lon="11.0634883"><ele>316.0</ele><time>2026-04-03T12:41:24.571Z</time></trkpt><trkpt lat="44.3942383" lon="11.0633967"><ele>316.0</ele><time>2026-04-03T12:41:26.575Z</time></trkpt><trkpt lat="44.394335" lon="11.0632917"><ele>316.0</ele><time>2026-04-03T12:41:28.573Z</time></trkpt><trkpt lat="44.394415" lon="11.0631617"><ele>317.8</ele><time>2026-04-03T12:41:30.57Z</time></trkpt><trkpt lat="44.3944683" lon="11.0630267"><ele>319.6</ele><time>2026-04-03T12:41:32.579Z</time></trkpt><trkpt lat="44.394475" lon="11.062875"><ele>321.4</ele><time>2026-04-03T12:41:34.575Z</time></trkpt><trkpt lat="44.3944567" lon="11.0627033"><ele>323.2</ele><time>2026-04-03T12:41:36.573Z</time></trkpt><trkpt lat="44.394445" lon="11.062615"><ele>325.0</ele><time>2026-04-03T12:41:37.572Z</time></trkpt><trkpt lat="44.3944317" lon="11.062525"><ele>326.3333333333333</ele><time>2026-04-03T12:41:38.575Z</time></trkpt><trkpt lat="44.394415" lon="11.062435"><ele>327.66666666666663</ele><time>2026-04-03T12:41:39.572Z</time></trkpt><trkpt lat="44.3943917" lon="11.06234"><ele>329.0</ele><time>2026-04-03T12:41:40.571Z</time></trkpt><trkpt lat="44.3943683" lon="11.0622467"><ele>330.3333333333333</ele><time>2026-04-03T12:41:41.568Z</time></trkpt><trkpt lat="44.3943467" lon="11.062155"><ele>331.6666666666667</ele><time>2026-04-03T12:41:42.572Z</time></trkpt><trkpt lat="44.3943267" lon="11.0620667"><ele>333.0</ele><time>2026-04-03T12:41:43.572Z</time></trkpt><trkpt lat="44.3942917" lon="11.061905"><ele>333.0</ele><time>2026-04-03T12:41:45.569Z</time></trkpt><trkpt lat="44.394275" lon="11.0617383"><ele>333.0</ele><time>2026-04-03T12:41:47.577Z</time></trkpt><trkpt lat="44.3942767" lon="11.06165"><ele>333.0</ele><time>2026-04-03T12:41:48.581Z</time></trkpt><trkpt lat="44.394275" lon="11.0615583"><ele>333.0</ele><time>2026-04-03T12:41:49.57Z</time></trkpt><trkpt lat="44.3942733" lon="11.0614617"><ele>333.0</ele><time>2026-04-03T12:41:50.571Z</time></trkpt><trkpt lat="44.3942717" lon="11.0613633"><ele>333.0</ele><time>2026-04-03T12:41:51.571Z</time></trkpt><trkpt lat="44.3942617" lon="11.0612667"><ele>333.5</ele><time>2026-04-03T12:41:52.573Z</time></trkpt><trkpt lat="44.3942367" lon="11.06117"><ele>334.0</ele><time>2026-04-03T12:41:53.574Z</time></trkpt><trkpt lat="44.3942" lon="11.061085"><ele>334.5</ele><time>2026-04-03T12:41:54.57Z</time></trkpt><trkpt lat="44.39415" lon="11.061015"><ele>335.0</ele><time>2026-04-03T12:41:55.569Z</time></trkpt><trkpt lat="44.3940567" lon="11.060925"><ele>335.5</ele><time>2026-04-03T12:41:57.574Z</time></trkpt><trkpt lat="44.3939867" lon="11.060835"><ele>336.0</ele><time>2026-04-03T12:41:59.571Z</time></trkpt><trkpt lat="44.393925" lon="11.0607667"><ele>337.8333333333333</ele><time>2026-04-03T12:42:01.571Z</time></trkpt><trkpt lat="44.3938333" lon="11.0607433"><ele>339.6666666666667</ele><time>2026-04-03T12:42:03.575Z</time></trkpt><trkpt lat="44.3937183" lon="11.0607233"><ele>341.5</ele><time>2026-04-03T12:42:05.582Z</time></trkpt><trkpt lat="44.3936517" lon="11.0607217"><ele>343.33333333333337</ele><time>2026-04-03T12:42:06.577Z</time></trkpt><trkpt lat="44.3935817" lon="11.06072"><ele>345.1666666666667</ele><time>2026-04-03T12:42:07.57Z</time></trkpt><trkpt lat="44.3935117" lon="11.0607167"><ele>347.0</ele><time>2026-04-03T12:42:08.575Z</time></trkpt><trkpt lat="44.3934433" lon="11.0607083"><ele>347.0</ele><time>2026-04-03T12:42:09.576Z</time></trkpt><trkpt lat="44.3933733" lon="11.0607"><ele>347.0</ele><time>2026-04-03T12:42:10.572Z</time></trkpt><trkpt lat="44.393305" lon="11.060685"><ele>347.0</ele><time>2026-04-03T12:42:11.579Z</time></trkpt><trkpt lat="44.3931917" lon="11.06063"><ele>347.0</ele><time>2026-04-03T12:42:13.57Z</time></trkpt><trkpt lat="44.3931383" lon="11.0605783"><ele>347.0</ele><time>2026-04-03T12:42:14.569Z</time></trkpt><trkpt lat="44.3930867" lon="11.0605167"><ele>347.0</ele><time>2026-04-03T12:42:15.57Z</time></trkpt><trkpt lat="44.3930383" lon="11.0604383"><ele>349.0</ele><time>2026-04-03T12:42:16.573Z</time></trkpt><trkpt lat="44.392985" lon="11.0603583"><ele>351.0</ele><time>2026-04-03T12:42:17.576Z</time></trkpt><trkpt lat="44.3929333" lon="11.0602783"><ele>353.0</ele><time>2026-04-03T12:42:18.571Z</time></trkpt><trkpt lat="44.39288" lon="11.0602117"><ele>355.0</ele><time>2026-04-03T12:42:19.568Z</time></trkpt><trkpt lat="44.39283" lon="11.0601417"><ele>357.0</ele><time>2026-04-03T12:42:20.571Z</time></trkpt><trkpt lat="44.39278" lon="11.0600633"><ele>359.0</ele><time>2026-04-03T12:42:21.572Z</time></trkpt><trkpt lat="44.3927267" lon="11.0599817"><ele>359.8571428571429</ele><time>2026-04-03T12:42:22.568Z</time></trkpt><trkpt lat="44.3926783" lon="11.0599017"><ele>360.7142857142857</ele><time>2026-04-03T12:42:23.57Z</time></trkpt><trkpt lat="44.3926317" lon="11.0598233"><ele>361.57142857142856</ele><time>2026-04-03T12:42:24.571Z</time></trkpt><trkpt lat="44.3925817" lon="11.0597433"><ele>362.42857142857144</ele><time>2026-04-03T12:42:25.577Z</time></trkpt><trkpt lat="44.39253" lon="11.059665"><ele>363.2857142857143</ele><time>2026-04-03T12:42:26.57Z</time></trkpt><trkpt lat="44.392485" lon="11.0595883"><ele>364.14285714285717</ele><time>2026-04-03T12:42:27.574Z</time></trkpt><trkpt lat="44.3924483" lon="11.0595067"><ele>365.0</ele><time>2026-04-03T12:42:28.57Z</time></trkpt><trkpt lat="44.392425" lon="11.0594133"><ele>365.0</ele><time>2026-04-03T12:42:29.574Z</time></trkpt><trkpt lat="44.3924183" lon="11.0593083"><ele>365.0</ele><time>2026-04-03T12:42:30.571Z</time></trkpt><trkpt lat="44.3924083" lon="11.0591983"><ele>365.0</ele><time>2026-04-03T12:42:31.568Z</time></trkpt><trkpt lat="44.392395" lon="11.0590983"><ele>365.0</ele><time>2026-04-03T12:42:32.575Z</time></trkpt><trkpt lat="44.39238" lon="11.05901"><ele>365.0</ele><time>2026-04-03T12:42:33.583Z</time></trkpt><trkpt lat="44.3923433" lon="11.0588517"><ele>365.0</ele><time>2026-04-03T12:42:35.57Z</time></trkpt><trkpt lat="44.3923067" lon="11.058705"><ele>365.5</ele><time>2026-04-03T12:42:37.568Z</time></trkpt><trkpt lat="44.3922433" lon="11.0585783"><ele>366.0</ele><time>2026-04-03T12:42:39.567Z</time></trkpt><trkpt lat="44.3921917" lon="11.05852"><ele>366.5</ele><time>2026-04-03T12:42:40.573Z</time></trkpt><trkpt lat="44.39214" lon="11.0584467"><ele>367.0</ele><time>2026-04-03T12:42:41.573Z</time></trkpt><trkpt lat="44.3920783" lon="11.0583833"><ele>367.5</ele><time>2026-04-03T12:42:42.573Z</time></trkpt><trkpt lat="44.392015" lon="11.0583267"><ele>368.0</ele><time>2026-04-03T12:42:43.571Z</time></trkpt><trkpt lat="44.3919483" lon="11.0582833"><ele>371.4</ele><time>2026-04-03T12:42:44.575Z</time></trkpt><trkpt lat="44.3918833" lon="11.058245"><ele>374.79999999999995</ele><time>2026-04-03T12:42:45.58Z</time></trkpt><trkpt lat="44.3918183" lon="11.0582033"><ele>378.2</ele><time>2026-04-03T12:42:46.57Z</time></trkpt><trkpt lat="44.3917583" lon="11.05816"><ele>381.6</ele><time>2026-04-03T12:42:47.575Z</time></trkpt><trkpt lat="44.3916567" lon="11.0580667"><ele>385.0</ele><time>2026-04-03T12:42:49.571Z</time></trkpt><trkpt lat="44.3915583" lon="11.0579683"><ele>385.0</ele><time>2026-04-03T12:42:51.567Z</time></trkpt><trkpt lat="44.3914567" lon="11.0579033"><ele>385.0</ele><time>2026-04-03T12:42:53.574Z</time></trkpt><trkpt lat="44.3913867" lon="11.05787"><ele>385.0</ele><time>2026-04-03T12:42:55.571Z</time></trkpt><trkpt lat="44.3912767" lon="11.0578783"><ele>385.0</ele><time>2026-04-03T12:42:58.574Z</time></trkpt><trkpt lat="44.391165" lon="11.0578883"><ele>385.0</ele><time>2026-04-03T12:43:00.57Z</time></trkpt><trkpt lat="44.3910783" lon="11.0578833"><ele>387.6</ele><time>2026-04-03T12:43:02.572Z</time></trkpt><trkpt lat="44.391015" lon="11.0577717"><ele>390.2</ele><time>2026-04-03T12:43:05.573Z</time></trkpt><trkpt lat="44.3910117" lon="11.0576"><ele>392.79999999999995</ele><time>2026-04-03T12:43:07.571Z</time></trkpt><trkpt lat="44.390995" lon="11.0574683"><ele>395.4</ele><time>2026-04-03T12:43:09.568Z</time></trkpt><trkpt lat="44.390955" lon="11.0573817"><ele>398.0</ele><time>2026-04-03T12:43:11.568Z</time></trkpt><trkpt lat="44.39088" lon="11.05727"><ele>399.16666666666663</ele><time>2026-04-03T12:43:13.572Z</time></trkpt><trkpt lat="44.3908317" lon="11.0572083"><ele>400.3333333333333</ele><time>2026-04-03T12:43:14.57Z</time></trkpt><trkpt lat="44.3907867" lon="11.0571417"><ele>401.5</ele><time>2026-04-03T12:43:15.573Z</time></trkpt><trkpt lat="44.3907567" lon="11.05706"><ele>402.66666666666663</ele><time>2026-04-03T12:43:16.575Z</time></trkpt><trkpt lat="44.390745" lon="11.0568867"><ele>403.8333333333333</ele><time>2026-04-03T12:43:18.579Z</time></trkpt><trkpt lat="44.3907633" lon="11.056795"><ele>405.0</ele><time>2026-04-03T12:43:19.573Z</time></trkpt><trkpt lat="44.3907817" lon="11.0567033"><ele>405.4285714285714</ele><time>2026-04-03T12:43:20.571Z</time></trkpt><trkpt lat="44.3908" lon="11.0566083"><ele>405.85714285714283</ele><time>2026-04-03T12:43:21.573Z</time></trkpt><trkpt lat="44.3908167" lon="11.05651"><ele>406.2857142857143</ele><time>2026-04-03T12:43:22.571Z</time></trkpt><trkpt lat="44.3908433" lon="11.056415"><ele>406.71428571428567</ele><time>2026-04-03T12:43:23.578Z</time></trkpt><trkpt lat="44.3908683" lon="11.05632"><ele>407.14285714285717</ele><time>2026-04-03T12:43:24.575Z</time></trkpt><trkpt lat="44.39091" lon="11.0562383"><ele>407.57142857142856</ele><time>2026-04-03T12:43:25.574Z</time></trkpt><trkpt lat="44.3909567" lon="11.056155"><ele>408.0</ele><time>2026-04-03T12:43:26.575Z</time></trkpt><trkpt lat="44.391015" lon="11.0560717"><ele>408.0</ele><time>2026-04-03T12:43:27.569Z</time></trkpt><trkpt lat="44.3910583" lon="11.05597"><ele>408.0</ele><time>2026-04-03T12:43:28.566Z</time></trkpt><trkpt lat="44.3910917" lon="11.055855"><ele>408.0</ele><time>2026-04-03T12:43:29.572Z</time></trkpt><trkpt lat="44.3911217" lon="11.0557317"><ele>408.0</ele><time>2026-04-03T12:43:30.57Z</time></trkpt><trkpt lat="44.3911533" lon="11.0556067"><ele>408.0</ele><time>2026-04-03T12:43:31.574Z</time></trkpt><trkpt lat="44.39118" lon="11.055485"><ele>410.0</ele><time>2026-04-03T12:43:32.572Z</time></trkpt><trkpt lat="44.3911917" lon="11.0553517"><ele>412.0</ele><time>2026-04-03T12:43:33.573Z</time></trkpt><trkpt lat="44.3911833" lon="11.0552183"><ele>414.0</ele><time>2026-04-03T12:43:34.576Z</time></trkpt><trkpt lat="44.3911817" lon="11.0550917"><ele>416.0</ele><time>2026-04-03T12:43:35.57Z</time></trkpt><trkpt lat="44.3912017" lon="11.05497"><ele>418.0</ele><time>2026-04-03T12:43:36.572Z</time></trkpt><trkpt lat="44.39124" lon="11.0548583"><ele>419.59999999999997</ele><time>2026-04-03T12:43:37.573Z</time></trkpt><trkpt lat="44.3913" lon="11.0547533"><ele>421.2</ele><time>2026-04-03T12:43:38.574Z</time></trkpt><trkpt lat="44.3913717" lon="11.0546483"><ele>422.8</ele><time>2026-04-03T12:43:39.574Z</time></trkpt><trkpt lat="44.39145" lon="11.0545533"><ele>424.4</ele><time>2026-04-03T12:43:40.571Z</time></trkpt><trkpt lat="44.3915233" lon="11.054465"><ele>426.0</ele><time>2026-04-03T12:43:41.57Z</time></trkpt><trkpt lat="44.3915967" lon="11.0543783"><ele>424.8</ele><time>2026-04-03T12:43:42.569Z</time></trkpt><trkpt lat="44.3916683" lon="11.0542933"><ele>423.6</ele><time>2026-04-03T12:43:43.57Z</time></trkpt><trkpt lat="44.391735" lon="11.0542033"><ele>422.4</ele><time>2026-04-03T12:43:44.569Z</time></trkpt><trkpt lat="44.3917983" lon="11.0541017"><ele>421.2</ele><time>2026-04-03T12:43:45.575Z</time></trkpt><trkpt lat="44.391855" lon="11.053995"><ele>420.0</ele><time>2026-04-03T12:43:46.572Z</time></trkpt><trkpt lat="44.391905" lon="11.0538833"><ele>420.0</ele><time>2026-04-03T12:43:47.571Z</time></trkpt><trkpt lat="44.391945" lon="11.0537717"><ele>420.0</ele><time>2026-04-03T12:43:48.571Z</time></trkpt><trkpt lat="44.391975" lon="11.0536617"><ele>420.0</ele><time>2026-04-03T12:43:49.578Z</time></trkpt><trkpt lat="44.3919967" lon="11.0535567"><ele>420.0</ele><time>2026-04-03T12:43:50.574Z</time></trkpt><trkpt lat="44.392005" lon="11.0534583"><ele>420.0</ele><time>2026-04-03T12:43:51.57Z</time></trkpt><trkpt lat="44.3919833" lon="11.0533167"><ele>420.0</ele><time>2026-04-03T12:43:53.569Z</time></trkpt><trkpt lat="44.39196" lon="11.0532217"><ele>421.6666666666667</ele><time>2026-04-03T12:43:56.569Z</time></trkpt><trkpt lat="44.392005" lon="11.0531583"><ele>423.33333333333337</ele><time>2026-04-03T12:43:58.568Z</time></trkpt><trkpt lat="44.39208" lon="11.0531033"><ele>425.0</ele><time>2026-04-03T12:44:00.569Z</time></trkpt><trkpt lat="44.3921717" lon="11.0530917"><ele>426.6666666666667</ele><time>2026-04-03T12:44:02.57Z</time></trkpt><trkpt lat="44.3922783" lon="11.05314"><ele>428.33333333333337</ele><time>2026-04-03T12:44:04.568Z</time></trkpt><trkpt lat="44.39237" lon="11.0531733"><ele>430.0</ele><time>2026-04-03T12:44:06.571Z</time></trkpt><trkpt lat="44.39246" lon="11.0531833"><ele>430.00000000000006</ele><time>2026-04-03T12:44:08.579Z</time></trkpt><trkpt lat="44.3925667" lon="11.05314"><ele>430.0</ele><time>2026-04-03T12:44:10.574Z</time></trkpt><trkpt lat="44.3926267" lon="11.0531"><ele>430.0</ele><time>2026-04-03T12:44:11.573Z</time></trkpt><trkpt lat="44.3926817" lon="11.05304"><ele>430.0</ele><time>2026-04-03T12:44:12.569Z</time></trkpt><trkpt lat="44.3927317" lon="11.0529067"><ele>430.00000000000006</ele><time>2026-04-03T12:44:14.57Z</time></trkpt><trkpt lat="44.39273" lon="11.0527883"><ele>430.0</ele><time>2026-04-03T12:44:16.577Z</time></trkpt><trkpt lat="44.3926633" lon="11.0527167"><ele>430.00000000000006</ele><time>2026-04-03T12:44:18.569Z</time></trkpt><trkpt lat="44.392565" lon="11.0527167"><ele>430.0</ele><time>2026-04-03T12:44:20.575Z</time></trkpt><trkpt lat="44.392485" lon="11.0526917"><ele>430.0</ele><time>2026-04-03T12:44:22.571Z</time></trkpt><trkpt lat="44.392435" lon="11.05262"><ele>430.0</ele><time>2026-04-03T12:44:24.575Z</time></trkpt><trkpt lat="44.392445" lon="11.0525017"><ele>430.00000000000006</ele><time>2026-04-03T12:44:26.574Z</time></trkpt><trkpt lat="44.3924633" lon="11.052395"><ele>430.0</ele><time>2026-04-03T12:44:28.574Z</time></trkpt><trkpt lat="44.3924483" lon="11.0522967"><ele>432.4</ele><time>2026-04-03T12:44:30.574Z</time></trkpt><trkpt lat="44.3923817" lon="11.0522167"><ele>434.8</ele><time>2026-04-03T12:44:32.57Z</time></trkpt><trkpt lat="44.3923183" lon="11.0521217"><ele>437.20000000000005</ele><time>2026-04-03T12:44:34.572Z</time></trkpt><trkpt lat="44.39226" lon="11.051995"><ele>439.6</ele><time>2026-04-03T12:44:36.577Z</time></trkpt><trkpt lat="44.392215" lon="11.0518617"><ele>442.0</ele><time>2026-04-03T12:44:38.571Z</time></trkpt><trkpt lat="44.392185" lon="11.0517617"><ele>442.00000000000006</ele><time>2026-04-03T12:44:40.573Z</time></trkpt><trkpt lat="44.39218" lon="11.0516383"><ele>442.0</ele><time>2026-04-03T12:44:42.575Z</time></trkpt><trkpt lat="44.39218" lon="11.0515167"><ele>442.0</ele><time>2026-04-03T12:44:44.571Z</time></trkpt><trkpt lat="44.39218" lon="11.051405"><ele>442.0</ele><time>2026-04-03T12:44:46.568Z</time></trkpt><trkpt lat="44.392215" lon="11.0513017"><ele>442.00000000000006</ele><time>2026-04-03T12:44:48.571Z</time></trkpt><trkpt lat="44.3922183" lon="11.0511817"><ele>442.0</ele><time>2026-04-03T12:44:51.574Z</time></trkpt><trkpt lat="44.3921567" lon="11.0511433"><ele>444.40000000000003</ele><time>2026-04-03T12:44:54.57Z</time></trkpt><trkpt lat="44.3920933" lon="11.0511467"><ele>446.80000000000007</ele><time>2026-04-03T12:44:57.569Z</time></trkpt><trkpt lat="44.39198" lon="11.0511417"><ele>449.2</ele><time>2026-04-03T12:45:07.568Z</time></trkpt><trkpt lat="44.3921233" lon="11.05114"><ele>451.6</ele><time>2026-04-03T12:45:29.571Z</time></trkpt><trkpt lat="44.3922067" lon="11.0512017"><ele>454.0</ele><time>2026-04-03T12:45:32.578Z</time></trkpt><trkpt lat="44.3922" lon="11.051315"><ele>454.00000000000006</ele><time>2026-04-03T12:45:34.569Z</time></trkpt><trkpt lat="44.39218" lon="11.0514367"><ele>454.0</ele><time>2026-04-03T12:45:36.571Z</time></trkpt><trkpt lat="44.392195" lon="11.0515633"><ele>454.0</ele><time>2026-04-03T12:45:38.571Z</time></trkpt><trkpt lat="44.3921917" lon="11.0516817"><ele>454.0</ele><time>2026-04-03T12:45:40.573Z</time></trkpt><trkpt lat="44.3921633" lon="11.0517767"><ele>454.00000000000006</ele><time>2026-04-03T12:45:43.573Z</time></trkpt><trkpt lat="44.3920917" lon="11.0518183"><ele>454.0</ele><time>2026-04-03T12:45:47.57Z</time></trkpt><trkpt lat="44.392015" lon="11.05187"><ele>452.50000000000006</ele><time>2026-04-03T12:45:50.571Z</time></trkpt><trkpt lat="44.3919483" lon="11.0518967"><ele>451.0</ele><time>2026-04-03T12:45:52.57Z</time></trkpt><trkpt lat="44.3918683" lon="11.0518867"><ele>449.5</ele><time>2026-04-03T12:45:54.572Z</time></trkpt><trkpt lat="44.3917867" lon="11.0518767"><ele>448.0</ele><time>2026-04-03T12:45:56.567Z</time></trkpt><trkpt lat="44.3917133" lon="11.0518533"><ele>446.50000000000006</ele><time>2026-04-03T12:45:58.566Z</time></trkpt><trkpt lat="44.3916233" lon="11.0518083"><ele>445.0</ele><time>2026-04-03T12:46:00.576Z</time></trkpt><trkpt lat="44.3915267" lon="11.0517883"><ele>445.0</ele><time>2026-04-03T12:46:02.575Z</time></trkpt><trkpt lat="44.3914233" lon="11.051795"><ele>445.0</ele><time>2026-04-03T12:46:04.569Z</time></trkpt><trkpt lat="44.3913083" lon="11.0518317"><ele>445.0</ele><time>2026-04-03T12:46:06.57Z</time></trkpt><trkpt lat="44.3912067" lon="11.0518683"><ele>445.0</ele><time>2026-04-03T12:46:08.582Z</time></trkpt><trkpt lat="44.3911383" lon="11.05189"><ele>445.0</ele><time>2026-04-03T12:46:10.569Z</time></trkpt><trkpt lat="44.3910683" lon="11.0519333"><ele>444.8</ele><time>2026-04-03T12:46:14.572Z</time></trkpt><trkpt lat="44.390995" lon="11.0518617"><ele>444.6</ele><time>2026-04-03T12:46:16.573Z</time></trkpt><trkpt lat="44.3908883" lon="11.0518133"><ele>444.4</ele><time>2026-04-03T12:46:18.572Z</time></trkpt><trkpt lat="44.3907817" lon="11.0518583"><ele>444.2</ele><time>2026-04-03T12:46:20.572Z</time></trkpt><trkpt lat="44.3907367" lon="11.0519333"><ele>444.0</ele><time>2026-04-03T12:46:21.57Z</time></trkpt><trkpt lat="44.390695" lon="11.052035"><ele>444.0</ele><time>2026-04-03T12:46:22.575Z</time></trkpt><trkpt lat="44.3906483" lon="11.0521433"><ele>444.0</ele><time>2026-04-03T12:46:23.57Z</time></trkpt><trkpt lat="44.3906017" lon="11.0522533"><ele>444.0</ele><time>2026-04-03T12:46:24.572Z</time></trkpt><trkpt lat="44.390565" lon="11.0523717"><ele>444.0</ele><time>2026-04-03T12:46:25.569Z</time></trkpt><trkpt lat="44.3905483" lon="11.0524917"><ele>444.0</ele><time>2026-04-03T12:46:26.57Z</time></trkpt><trkpt lat="44.3905633" lon="11.0526067"><ele>444.0</ele><time>2026-04-03T12:46:27.571Z</time></trkpt><trkpt lat="44.3905983" lon="11.052705"><ele>442.5</ele><time>2026-04-03T12:46:28.572Z</time></trkpt><trkpt lat="44.3906283" lon="11.0527917"><ele>441.0</ele><time>2026-04-03T12:46:29.57Z</time></trkpt><trkpt lat="44.39066" lon="11.0528783"><ele>439.5</ele><time>2026-04-03T12:46:30.571Z</time></trkpt><trkpt lat="44.3906867" lon="11.0529733"><ele>438.0</ele><time>2026-04-03T12:46:31.571Z</time></trkpt><trkpt lat="44.3907067" lon="11.0530717"><ele>436.5</ele><time>2026-04-03T12:46:32.57Z</time></trkpt><trkpt lat="44.3907133" lon="11.05317"><ele>435.0</ele><time>2026-04-03T12:46:33.574Z</time></trkpt><trkpt lat="44.3906867" lon="11.0533317"><ele>434.8</ele><time>2026-04-03T12:46:35.566Z</time></trkpt><trkpt lat="44.390625" lon="11.05348"><ele>434.6</ele><time>2026-04-03T12:46:37.567Z</time></trkpt><trkpt lat="44.3905867" lon="11.0535717"><ele>434.4</ele><time>2026-04-03T12:46:38.572Z</time></trkpt><trkpt lat="44.3905483" lon="11.0536783"><ele>434.2</ele><time>2026-04-03T12:46:39.571Z</time></trkpt><trkpt lat="44.3905067" lon="11.0537917"><ele>434.0</ele><time>2026-04-03T12:46:40.571Z</time></trkpt><trkpt lat="44.3904617" lon="11.0539083"><ele>436.66666666666663</ele><time>2026-04-03T12:46:41.572Z</time></trkpt><trkpt lat="44.390415" lon="11.0540217"><ele>439.3333333333333</ele><time>2026-04-03T12:46:42.573Z</time></trkpt><trkpt lat="44.3903667" lon="11.0541233"><ele>442.0</ele><time>2026-04-03T12:46:43.574Z</time></trkpt><trkpt lat="44.39032" lon="11.0542167"><ele>444.66666666666663</ele><time>2026-04-03T12:46:44.58Z</time></trkpt><trkpt lat="44.3902783" lon="11.0543033"><ele>447.3333333333333</ele><time>2026-04-03T12:46:45.569Z</time></trkpt><trkpt lat="44.3902333" lon="11.0543767"><ele>450.0</ele><time>2026-04-03T12:46:46.573Z</time></trkpt><trkpt lat="44.39018" lon="11.0544317"><ele>450.1428571428572</ele><time>2026-04-03T12:46:47.571Z</time></trkpt><trkpt lat="44.390115" lon="11.0544667"><ele>450.28571428571433</ele><time>2026-04-03T12:46:48.572Z</time></trkpt><trkpt lat="44.3900433" lon="11.0544917"><ele>450.42857142857144</ele><time>2026-04-03T12:46:49.571Z</time></trkpt><trkpt lat="44.3899683" lon="11.0545117"><ele>450.5714285714286</ele><time>2026-04-03T12:46:50.577Z</time></trkpt><trkpt lat="44.3898917" lon="11.054535"><ele>450.7142857142858</ele><time>2026-04-03T12:46:51.571Z</time></trkpt><trkpt lat="44.3898233" lon="11.0545767"><ele>450.85714285714283</ele><time>2026-04-03T12:46:52.575Z</time></trkpt><trkpt lat="44.38976" lon="11.0546267"><ele>451.0</ele><time>2026-04-03T12:46:53.572Z</time></trkpt><trkpt lat="44.389695" lon="11.05469"><ele>454.50000000000006</ele><time>2026-04-03T12:46:54.572Z</time></trkpt><trkpt lat="44.3896333" lon="11.0547683"><ele>458.0</ele><time>2026-04-03T12:46:55.572Z</time></trkpt><trkpt lat="44.3895733" lon="11.0548517"><ele>461.5</ele><time>2026-04-03T12:46:56.569Z</time></trkpt><trkpt lat="44.3895167" lon="11.0549467"><ele>465.0</ele><time>2026-04-03T12:46:57.569Z</time></trkpt><trkpt lat="44.389465" lon="11.05505"><ele>468.50000000000006</ele><time>2026-04-03T12:46:58.567Z</time></trkpt><trkpt lat="44.38941" lon="11.055155"><ele>472.0</ele><time>2026-04-03T12:46:59.573Z</time></trkpt><trkpt lat="44.3893617" lon="11.0552733"><ele>472.00000000000006</ele><time>2026-04-03T12:47:00.576Z</time></trkpt><trkpt lat="44.3893133" lon="11.05539"><ele>472.0</ele><time>2026-04-03T12:47:01.574Z</time></trkpt><trkpt lat="44.38927" lon="11.0554933"><ele>472.0</ele><time>2026-04-03T12:47:02.573Z</time></trkpt><trkpt lat="44.3892283" lon="11.0555917"><ele>472.0</ele><time>2026-04-03T12:47:03.571Z</time></trkpt><trkpt lat="44.3891883" lon="11.05568"><ele>472.00000000000006</ele><time>2026-04-03T12:47:04.567Z</time></trkpt><trkpt lat="44.3891483" lon="11.055755"><ele>472.0</ele><time>2026-04-03T12:47:05.569Z</time></trkpt><trkpt lat="44.3890683" lon="11.0558717"><ele>470.1666666666667</ele><time>2026-04-03T12:47:07.569Z</time></trkpt><trkpt lat="44.3889717" lon="11.055985"><ele>468.33333333333337</ele><time>2026-04-03T12:47:09.567Z</time></trkpt><trkpt lat="44.3889083" lon="11.0560417"><ele>466.5</ele><time>2026-04-03T12:47:10.574Z</time></trkpt><trkpt lat="44.38884" lon="11.056095"><ele>464.66666666666663</ele><time>2026-04-03T12:47:11.572Z</time></trkpt><trkpt lat="44.38877" lon="11.0561467"><ele>462.8333333333333</ele><time>2026-04-03T12:47:12.576Z</time></trkpt><trkpt lat="44.3886933" lon="11.0562033"><ele>461.0</ele><time>2026-04-03T12:47:13.571Z</time></trkpt><trkpt lat="44.388615" lon="11.0562717"><ele>460.8</ele><time>2026-04-03T12:47:14.572Z</time></trkpt><trkpt lat="44.3885367" lon="11.0563417"><ele>460.6</ele><time>2026-04-03T12:47:15.57Z</time></trkpt><trkpt lat="44.3884567" lon="11.056415"><ele>460.4</ele><time>2026-04-03T12:47:16.569Z</time></trkpt><trkpt lat="44.3883817" lon="11.0564983"><ele>460.2</ele><time>2026-04-03T12:47:17.572Z</time></trkpt><trkpt lat="44.3883067" lon="11.0565883"><ele>460.0</ele><time>2026-04-03T12:47:18.571Z</time></trkpt><trkpt lat="44.3882333" lon="11.05668"><ele>460.0</ele><time>2026-04-03T12:47:19.569Z</time></trkpt><trkpt lat="44.3881617" lon="11.05678"><ele>460.0</ele><time>2026-04-03T12:47:20.569Z</time></trkpt><trkpt lat="44.3880867" lon="11.056875"><ele>460.0</ele><time>2026-04-03T12:47:21.572Z</time></trkpt><trkpt lat="44.38801" lon="11.0569667"><ele>460.0</ele><time>2026-04-03T12:47:22.575Z</time></trkpt><trkpt lat="44.3879333" lon="11.057045"><ele>460.0</ele><time>2026-04-03T12:47:23.568Z</time></trkpt><trkpt lat="44.387855" lon="11.05711"><ele>462.1666666666667</ele><time>2026-04-03T12:47:24.577Z</time></trkpt><trkpt lat="44.38778" lon="11.0571617"><ele>464.33333333333337</ele><time>2026-04-03T12:47:25.572Z</time></trkpt><trkpt lat="44.3877017" lon="11.0571967"><ele>466.5</ele><time>2026-04-03T12:47:26.571Z</time></trkpt><trkpt lat="44.3876167" lon="11.0572017"><ele>468.66666666666663</ele><time>2026-04-03T12:47:27.573Z</time></trkpt><trkpt lat="44.38753" lon="11.0571817"><ele>470.8333333333333</ele><time>2026-04-03T12:47:28.569Z</time></trkpt><trkpt lat="44.3874417" lon="11.05715"><ele>473.0</ele><time>2026-04-03T12:47:29.571Z</time></trkpt><trkpt lat="44.3873433" lon="11.0571133"><ele>472.99999999999994</ele><time>2026-04-03T12:47:30.571Z</time></trkpt><trkpt lat="44.38725" lon="11.05708"><ele>473.0</ele><time>2026-04-03T12:47:31.569Z</time></trkpt><trkpt lat="44.38716" lon="11.0570633"><ele>473.0</ele><time>2026-04-03T12:47:32.576Z</time></trkpt><trkpt lat="44.3870717" lon="11.057065"><ele>473.0</ele><time>2026-04-03T12:47:33.572Z</time></trkpt><trkpt lat="44.3869883" lon="11.0570833"><ele>472.99999999999994</ele><time>2026-04-03T12:47:34.569Z</time></trkpt><trkpt lat="44.3869167" lon="11.0571317"><ele>473.0</ele><time>2026-04-03T12:47:35.569Z</time></trkpt><trkpt lat="44.3868533" lon="11.0571983"><ele>474.2</ele><time>2026-04-03T12:47:36.573Z</time></trkpt><trkpt lat="44.3867983" lon="11.0572867"><ele>475.4</ele><time>2026-04-03T12:47:37.574Z</time></trkpt><trkpt lat="44.3867517" lon="11.05738"><ele>476.59999999999997</ele><time>2026-04-03T12:47:38.577Z</time></trkpt><trkpt lat="44.3867383" lon="11.0575433"><ele>477.79999999999995</ele><time>2026-04-03T12:47:39.573Z</time></trkpt><trkpt lat="44.3867317" lon="11.0576883"><ele>479.0</ele><time>2026-04-03T12:47:40.57Z</time></trkpt><trkpt lat="44.38671" lon="11.0577983"><ele>478.99999999999994</ele><time>2026-04-03T12:47:41.574Z</time></trkpt><trkpt lat="44.3866733" lon="11.0578883"><ele>479.0</ele><time>2026-04-03T12:47:42.573Z</time></trkpt><trkpt lat="44.3866233" lon="11.057975"><ele>479.0</ele><time>2026-04-03T12:47:43.571Z</time></trkpt><trkpt lat="44.386565" lon="11.0580683"><ele>479.0</ele><time>2026-04-03T12:47:44.57Z</time></trkpt><trkpt lat="44.3865083" lon="11.0581683"><ele>478.99999999999994</ele><time>2026-04-03T12:47:45.572Z</time></trkpt><trkpt lat="44.3864517" lon="11.0582833"><ele>479.0</ele><time>2026-04-03T12:47:46.571Z</time></trkpt><trkpt lat="44.3863917" lon="11.0584017"><ele>482.0</ele><time>2026-04-03T12:47:47.573Z</time></trkpt><trkpt lat="44.3863333" lon="11.0585167"><ele>485.0</ele><time>2026-04-03T12:47:48.57Z</time></trkpt><trkpt lat="44.38628" lon="11.05863"><ele>488.0</ele><time>2026-04-03T12:47:49.574Z</time></trkpt><trkpt lat="44.3862267" lon="11.0587433"><ele>491.0</ele><time>2026-04-03T12:47:50.569Z</time></trkpt><trkpt lat="44.38618" lon="11.058865"><ele>494.0</ele><time>2026-04-03T12:47:51.57Z</time></trkpt><trkpt lat="44.38614" lon="11.0589967"><ele>494.2</ele><time>2026-04-03T12:47:52.571Z</time></trkpt><trkpt lat="44.386105" lon="11.059135"><ele>494.4</ele><time>2026-04-03T12:47:53.572Z</time></trkpt><trkpt lat="44.386065" lon="11.059265"><ele>494.6</ele><time>2026-04-03T12:47:54.572Z</time></trkpt><trkpt lat="44.3860333" lon="11.059385"><ele>494.8</ele><time>2026-04-03T12:47:55.573Z</time></trkpt><trkpt lat="44.3860083" lon="11.0594967"><ele>495.0</ele><time>2026-04-03T12:47:56.572Z</time></trkpt><trkpt lat="44.3859933" lon="11.0596083"><ele>495.0</ele><time>2026-04-03T12:47:57.571Z</time></trkpt><trkpt lat="44.38599" lon="11.0597217"><ele>495.0</ele><time>2026-04-03T12:47:58.568Z</time></trkpt><trkpt lat="44.3860367" lon="11.0598067"><ele>495.0</ele><time>2026-04-03T12:47:59.574Z</time></trkpt><trkpt lat="44.386105" lon="11.0598817"><ele>495.0</ele><time>2026-04-03T12:48:00.57Z</time></trkpt><trkpt lat="44.38616" lon="11.059945"><ele>495.0</ele><time>2026-04-03T12:48:01.571Z</time></trkpt><trkpt lat="44.3862217" lon="11.0600383"><ele>495.0</ele><time>2026-04-03T12:48:03.57Z</time></trkpt><trkpt lat="44.3862533" lon="11.060115"><ele>495.0</ele><time>2026-04-03T12:48:15.575Z</time></trkpt><trkpt lat="44.3862567" lon="11.0600183"><ele>495.0</ele><time>2026-04-03T12:48:18.573Z</time></trkpt><trkpt lat="44.38622" lon="11.0599317"><ele>495.0</ele><time>2026-04-03T12:48:20.572Z</time></trkpt><trkpt lat="44.38614" lon="11.0598383"><ele>495.0</ele><time>2026-04-03T12:48:22.572Z</time></trkpt><trkpt lat="44.3860717" lon="11.059725"><ele>495.0</ele><time>2026-04-03T12:48:24.574Z</time></trkpt><trkpt lat="44.3860367" lon="11.0595717"><ele>495.0</ele><time>2026-04-03T12:48:26.573Z</time></trkpt><trkpt lat="44.3860417" lon="11.0594133"><ele>495.0</ele><time>2026-04-03T12:48:28.575Z</time></trkpt><trkpt lat="44.3860667" lon="11.0593283"><ele>495.0</ele><time>2026-04-03T12:48:29.574Z</time></trkpt><trkpt lat="44.3860967" lon="11.05924"><ele>495.0</ele><time>2026-04-03T12:48:30.568Z</time></trkpt><trkpt lat="44.3861267" lon="11.05915"><ele>495.0</ele><time>2026-04-03T12:48:31.567Z</time></trkpt><trkpt lat="44.3861567" lon="11.0590467"><ele>495.0</ele><time>2026-04-03T12:48:32.57Z</time></trkpt><trkpt lat="44.3861917" lon="11.0589483"><ele>494.8</ele><time>2026-04-03T12:48:33.575Z</time></trkpt><trkpt lat="44.38623" lon="11.0588433"><ele>494.6</ele><time>2026-04-03T12:48:34.573Z</time></trkpt><trkpt lat="44.3862717" lon="11.0587333"><ele>494.4</ele><time>2026-04-03T12:48:35.568Z</time></trkpt><trkpt lat="44.3863233" lon="11.05862"><ele>494.2</ele><time>2026-04-03T12:48:36.572Z</time></trkpt><trkpt lat="44.38638" lon="11.058505"><ele>494.0</ele><time>2026-04-03T12:48:37.57Z</time></trkpt><trkpt lat="44.3864417" lon="11.0583883"><ele>491.0</ele><time>2026-04-03T12:48:38.572Z</time></trkpt><trkpt lat="44.3865083" lon="11.058275"><ele>488.0</ele><time>2026-04-03T12:48:39.571Z</time></trkpt><trkpt lat="44.386575" lon="11.058165"><ele>485.0</ele><time>2026-04-03T12:48:40.575Z</time></trkpt><trkpt lat="44.386635" lon="11.0580617"><ele>482.0</ele><time>2026-04-03T12:48:41.566Z</time></trkpt><trkpt lat="44.3866933" lon="11.0579667"><ele>479.0</ele><time>2026-04-03T12:48:42.568Z</time></trkpt><trkpt lat="44.3867417" lon="11.05788"><ele>478.99999999999994</ele><time>2026-04-03T12:48:43.569Z</time></trkpt><trkpt lat="44.3867833" lon="11.057785"><ele>479.0</ele><time>2026-04-03T12:48:44.572Z</time></trkpt><trkpt lat="44.38681" lon="11.0576767"><ele>479.0</ele><time>2026-04-03T12:48:45.575Z</time></trkpt><trkpt lat="44.38682" lon="11.05756"><ele>479.0</ele><time>2026-04-03T12:48:46.569Z</time></trkpt><trkpt lat="44.3868333" lon="11.0574483"><ele>478.99999999999994</ele><time>2026-04-03T12:48:47.572Z</time></trkpt><trkpt lat="44.3868533" lon="11.0573417"><ele>479.0</ele><time>2026-04-03T12:48:48.572Z</time></trkpt><trkpt lat="44.386895" lon="11.0572467"><ele>477.79999999999995</ele><time>2026-04-03T12:48:49.571Z</time></trkpt><trkpt lat="44.3869583" lon="11.0571667"><ele>476.59999999999997</ele><time>2026-04-03T12:48:50.574Z</time></trkpt><trkpt lat="44.3870233" lon="11.0571017"><ele>475.4</ele><time>2026-04-03T12:48:51.573Z</time></trkpt><trkpt lat="44.3871033" lon="11.0570583"><ele>474.2</ele><time>2026-04-03T12:48:52.571Z</time></trkpt><trkpt lat="44.3872067" lon="11.0570467"><ele>473.0</ele><time>2026-04-03T12:48:53.57Z</time></trkpt><trkpt lat="44.3873167" lon="11.0570667"><ele>473.0</ele><time>2026-04-03T12:48:54.568Z</time></trkpt><trkpt lat="44.3874233" lon="11.057105"><ele>472.99999999999994</ele><time>2026-04-03T12:48:55.572Z</time></trkpt><trkpt lat="44.38753" lon="11.0571483"><ele>472.99999999999994</ele><time>2026-04-03T12:48:56.569Z</time></trkpt><trkpt lat="44.3876267" lon="11.0571817"><ele>473.0</ele><time>2026-04-03T12:48:57.573Z</time></trkpt><trkpt lat="44.38772" lon="11.05719"><ele>473.0</ele><time>2026-04-03T12:48:58.569Z</time></trkpt><trkpt lat="44.3878083" lon="11.0571633"><ele>473.0</ele><time>2026-04-03T12:48:59.572Z</time></trkpt><trkpt lat="44.387895" lon="11.0571117"><ele>472.99999999999994</ele><time>2026-04-03T12:49:00.57Z</time></trkpt><trkpt lat="44.3879817" lon="11.0570367"><ele>472.99999999999994</ele><time>2026-04-03T12:49:01.572Z</time></trkpt><trkpt lat="44.3880667" lon="11.05695"><ele>473.0</ele><time>2026-04-03T12:49:02.572Z</time></trkpt><trkpt lat="44.3881483" lon="11.0568467"><ele>473.0</ele><time>2026-04-03T12:49:03.574Z</time></trkpt><trkpt lat="44.3882267" lon="11.0567433"><ele>475.0</ele><time>2026-04-03T12:49:04.57Z</time></trkpt><trkpt lat="44.3883017" lon="11.0566433"><ele>476.99999999999994</ele><time>2026-04-03T12:49:05.575Z</time></trkpt><trkpt lat="44.38838" lon="11.0565433"><ele>478.99999999999994</ele><time>2026-04-03T12:49:06.576Z</time></trkpt><trkpt lat="44.3884583" lon="11.05645"><ele>481.0</ele><time>2026-04-03T12:49:07.577Z</time></trkpt><trkpt lat="44.3885417" lon="11.0563633"><ele>483.0</ele><time>2026-04-03T12:49:08.575Z</time></trkpt><trkpt lat="44.3886333" lon="11.056285"><ele>483.0</ele><time>2026-04-03T12:49:09.577Z</time></trkpt><trkpt lat="44.3887283" lon="11.0562083"><ele>482.99999999999994</ele><time>2026-04-03T12:49:10.575Z</time></trkpt><trkpt lat="44.3888083" lon="11.05613"><ele>482.99999999999994</ele><time>2026-04-03T12:49:11.572Z</time></trkpt><trkpt lat="44.3888833" lon="11.0560667"><ele>483.0</ele><time>2026-04-03T12:49:12.572Z</time></trkpt><trkpt lat="44.388955" lon="11.05601"><ele>483.0</ele><time>2026-04-03T12:49:13.567Z</time></trkpt><trkpt lat="44.3890217" lon="11.0559483"><ele>481.1666666666667</ele><time>2026-04-03T12:49:14.571Z</time></trkpt><trkpt lat="44.3890833" lon="11.0558783"><ele>479.33333333333337</ele><time>2026-04-03T12:49:15.57Z</time></trkpt><trkpt lat="44.38914" lon="11.0558"><ele>477.5</ele><time>2026-04-03T12:49:16.568Z</time></trkpt><trkpt lat="44.3891933" lon="11.0557117"><ele>475.6666666666667</ele><time>2026-04-03T12:49:17.575Z</time></trkpt><trkpt lat="44.3892417" lon="11.055615"><ele>473.83333333333337</ele><time>2026-04-03T12:49:18.571Z</time></trkpt><trkpt lat="44.38929" lon="11.0555117"><ele>472.0</ele><time>2026-04-03T12:49:19.573Z</time></trkpt><trkpt lat="44.3893333" lon="11.0553967"><ele>472.0</ele><time>2026-04-03T12:49:20.575Z</time></trkpt><trkpt lat="44.3893817" lon="11.0552767"><ele>472.00000000000006</ele><time>2026-04-03T12:49:21.571Z</time></trkpt><trkpt lat="44.3894367" lon="11.0551617"><ele>472.00000000000006</ele><time>2026-04-03T12:49:22.569Z</time></trkpt><trkpt lat="44.3894967" lon="11.0550433"><ele>472.0</ele><time>2026-04-03T12:49:23.568Z</time></trkpt><trkpt lat="44.3895633" lon="11.05493"><ele>472.0</ele><time>2026-04-03T12:49:24.571Z</time></trkpt><trkpt lat="44.38963" lon="11.0548217"><ele>467.8</ele><time>2026-04-03T12:49:25.568Z</time></trkpt><trkpt lat="44.3896983" lon="11.054725"><ele>463.6</ele><time>2026-04-03T12:49:26.565Z</time></trkpt><trkpt lat="44.3897733" lon="11.0546417"><ele>459.40000000000003</ele><time>2026-04-03T12:49:27.569Z</time></trkpt><trkpt lat="44.3898533" lon="11.0545733"><ele>455.20000000000005</ele><time>2026-04-03T12:49:28.569Z</time></trkpt><trkpt lat="44.3899333" lon="11.054525"><ele>451.0</ele><time>2026-04-03T12:49:29.57Z</time></trkpt><trkpt lat="44.3900117" lon="11.0544917"><ele>451.00000000000006</ele><time>2026-04-03T12:49:30.578Z</time></trkpt><trkpt lat="44.3900917" lon="11.0544617"><ele>451.0</ele><time>2026-04-03T12:49:31.567Z</time></trkpt><trkpt lat="44.3901683" lon="11.05442"><ele>451.0</ele><time>2026-04-03T12:49:32.575Z</time></trkpt><trkpt lat="44.3902417" lon="11.0543633"><ele>451.0</ele><time>2026-04-03T12:49:33.573Z</time></trkpt><trkpt lat="44.3903117" lon="11.05428"><ele>451.00000000000006</ele><time>2026-04-03T12:49:34.571Z</time></trkpt><trkpt lat="44.3903683" lon="11.0541583"><ele>451.0</ele><time>2026-04-03T12:49:35.574Z</time></trkpt><trkpt lat="44.3904217" lon="11.054035"><ele>450.8</ele><time>2026-04-03T12:49:36.572Z</time></trkpt><trkpt lat="44.3904717" lon="11.0539133"><ele>450.6</ele><time>2026-04-03T12:49:37.571Z</time></trkpt><trkpt lat="44.3905217" lon="11.0537817"><ele>450.4</ele><time>2026-04-03T12:49:38.572Z</time></trkpt><trkpt lat="44.3905683" lon="11.0536533"><ele>450.2</ele><time>2026-04-03T12:49:39.571Z</time></trkpt><trkpt lat="44.3906167" lon="11.0535367"><ele>450.0</ele><time>2026-04-03T12:49:40.57Z</time></trkpt><trkpt lat="44.3906633" lon="11.0534267"><ele>447.5</ele><time>2026-04-03T12:49:41.576Z</time></trkpt><trkpt lat="44.3907083" lon="11.05332"><ele>445.0</ele><time>2026-04-03T12:49:42.573Z</time></trkpt><trkpt lat="44.3907383" lon="11.0532083"><ele>442.5</ele><time>2026-04-03T12:49:43.575Z</time></trkpt><trkpt lat="44.3907383" lon="11.0530883"><ele>440.0</ele><time>2026-04-03T12:49:44.572Z</time></trkpt><trkpt lat="44.3907217" lon="11.052965"><ele>437.5</ele><time>2026-04-03T12:49:45.569Z</time></trkpt><trkpt lat="44.3906833" lon="11.0528383"><ele>435.0</ele><time>2026-04-03T12:49:46.574Z</time></trkpt><trkpt lat="44.3906367" lon="11.0527217"><ele>435.0</ele><time>2026-04-03T12:49:47.575Z</time></trkpt><trkpt lat="44.3905967" lon="11.0526083"><ele>435.0</ele><time>2026-04-03T12:49:48.568Z</time></trkpt><trkpt lat="44.3905717" lon="11.0524917"><ele>435.0</ele><time>2026-04-03T12:49:49.572Z</time></trkpt><trkpt lat="44.3905783" lon="11.0523633"><ele>435.0</ele><time>2026-04-03T12:49:50.571Z</time></trkpt><trkpt lat="44.3906117" lon="11.0522233"><ele>435.0</ele><time>2026-04-03T12:49:51.569Z</time></trkpt><trkpt lat="44.3906667" lon="11.05209"><ele>436.5</ele><time>2026-04-03T12:49:52.57Z</time></trkpt><trkpt lat="44.3907233" lon="11.051975"><ele>438.0</ele><time>2026-04-03T12:49:53.571Z</time></trkpt><trkpt lat="44.390785" lon="11.051885"><ele>439.5</ele><time>2026-04-03T12:49:54.567Z</time></trkpt><trkpt lat="44.390845" lon="11.051825"><ele>441.0</ele><time>2026-04-03T12:49:55.575Z</time></trkpt><trkpt lat="44.3909083" lon="11.0517967"><ele>442.5</ele><time>2026-04-03T12:49:56.568Z</time></trkpt><trkpt lat="44.390985" lon="11.0518367"><ele>444.0</ele><time>2026-04-03T12:49:57.568Z</time></trkpt><trkpt lat="44.3910617" lon="11.051905"><ele>444.0</ele><time>2026-04-03T12:49:58.568Z</time></trkpt><trkpt lat="44.3911267" lon="11.052"><ele>444.0</ele><time>2026-04-03T12:49:59.57Z</time></trkpt><trkpt lat="44.3911867" lon="11.0521083"><ele>444.0</ele><time>2026-04-03T12:50:00.573Z</time></trkpt><trkpt lat="44.3912383" lon="11.052235"><ele>444.0</ele><time>2026-04-03T12:50:01.57Z</time></trkpt><trkpt lat="44.391285" lon="11.0523683"><ele>444.0</ele><time>2026-04-03T12:50:02.575Z</time></trkpt><trkpt lat="44.3913233" lon="11.05249"><ele>441.4</ele><time>2026-04-03T12:50:03.572Z</time></trkpt><trkpt lat="44.3913667" lon="11.0525983"><ele>438.79999999999995</ele><time>2026-04-03T12:50:04.567Z</time></trkpt><trkpt lat="44.3914267" lon="11.052705"><ele>436.20000000000005</ele><time>2026-04-03T12:50:05.57Z</time></trkpt><trkpt lat="44.3914917" lon="11.0528117"><ele>433.6</ele><time>2026-04-03T12:50:06.569Z</time></trkpt><trkpt lat="44.3915583" lon="11.05292"><ele>431.0</ele><time>2026-04-03T12:50:07.573Z</time></trkpt><trkpt lat="44.391625" lon="11.053025"><ele>430.99999999999994</ele><time>2026-04-03T12:50:08.573Z</time></trkpt><trkpt lat="44.3916967" lon="11.0531067"><ele>431.0</ele><time>2026-04-03T12:50:09.568Z</time></trkpt><trkpt lat="44.391775" lon="11.05318"><ele>431.0</ele><time>2026-04-03T12:50:10.575Z</time></trkpt><trkpt lat="44.3918517" lon="11.0532383"><ele>431.0</ele><time>2026-04-03T12:50:11.577Z</time></trkpt><trkpt lat="44.39192" lon="11.0532983"><ele>430.99999999999994</ele><time>2026-04-03T12:50:12.571Z</time></trkpt><trkpt lat="44.3919733" lon="11.053375"><ele>431.0</ele><time>2026-04-03T12:50:13.571Z</time></trkpt><trkpt lat="44.3920033" lon="11.05347"><ele>428.8</ele><time>2026-04-03T12:50:14.571Z</time></trkpt><trkpt lat="44.3920067" lon="11.0535867"><ele>426.6</ele><time>2026-04-03T12:50:15.572Z</time></trkpt><trkpt lat="44.39198" lon="11.0537167"><ele>424.4</ele><time>2026-04-03T12:50:16.568Z</time></trkpt><trkpt lat="44.391945" lon="11.0538433"><ele>422.2</ele><time>2026-04-03T12:50:17.569Z</time></trkpt><trkpt lat="44.3918933" lon="11.0539667"><ele>420.0</ele><time>2026-04-03T12:50:18.571Z</time></trkpt><trkpt lat="44.3918367" lon="11.0540833"><ele>417.6</ele><time>2026-04-03T12:50:19.57Z</time></trkpt><trkpt lat="44.3917667" lon="11.0541883"><ele>415.2</ele><time>2026-04-03T12:50:20.573Z</time></trkpt><trkpt lat="44.39169" lon="11.05429"><ele>412.79999999999995</ele><time>2026-04-03T12:50:21.568Z</time></trkpt><trkpt lat="44.3916083" lon="11.0543917"><ele>410.4</ele><time>2026-04-03T12:50:22.569Z</time></trkpt><trkpt lat="44.391525" lon="11.0544983"><ele>408.0</ele><time>2026-04-03T12:50:23.57Z</time></trkpt><trkpt lat="44.3914333" lon="11.054605"><ele>408.0</ele><time>2026-04-03T12:50:24.567Z</time></trkpt><trkpt lat="44.39135" lon="11.0547167"><ele>408.0</ele><time>2026-04-03T12:50:25.568Z</time></trkpt><trkpt lat="44.3912817" lon="11.05482"><ele>408.0</ele><time>2026-04-03T12:50:26.569Z</time></trkpt><trkpt lat="44.3912267" lon="11.054925"><ele>408.0</ele><time>2026-04-03T12:50:27.574Z</time></trkpt><trkpt lat="44.3911767" lon="11.0550367"><ele>408.0</ele><time>2026-04-03T12:50:28.569Z</time></trkpt><trkpt lat="44.3911683" lon="11.0551683"><ele>408.0</ele><time>2026-04-03T12:50:29.568Z</time></trkpt><trkpt lat="44.3911667" lon="11.0553083"><ele>408.0</ele><time>2026-04-03T12:50:30.573Z</time></trkpt><trkpt lat="44.39116" lon="11.055445"><ele>408.0</ele><time>2026-04-03T12:50:31.569Z</time></trkpt><trkpt lat="44.3911417" lon="11.0555767"><ele>408.0</ele><time>2026-04-03T12:50:32.565Z</time></trkpt><trkpt lat="44.3911133" lon="11.0557067"><ele>408.0</ele><time>2026-04-03T12:50:33.572Z</time></trkpt><trkpt lat="44.3910867" lon="11.055835"><ele>408.0</ele><time>2026-04-03T12:50:34.576Z</time></trkpt><trkpt lat="44.3910467" lon="11.0559633"><ele>408.0</ele><time>2026-04-03T12:50:35.571Z</time></trkpt><trkpt lat="44.3910033" lon="11.0560817"><ele>408.0</ele><time>2026-04-03T12:50:36.571Z</time></trkpt><trkpt lat="44.39095" lon="11.0561833"><ele>408.0</ele><time>2026-04-03T12:50:37.574Z</time></trkpt><trkpt lat="44.3908983" lon="11.05627"><ele>408.0</ele><time>2026-04-03T12:50:38.569Z</time></trkpt><trkpt lat="44.39085" lon="11.05636"><ele>408.0</ele><time>2026-04-03T12:50:39.572Z</time></trkpt><trkpt lat="44.3908167" lon="11.0564633"><ele>408.0</ele><time>2026-04-03T12:50:40.569Z</time></trkpt><trkpt lat="44.3907967" lon="11.056575"><ele>408.0</ele><time>2026-04-03T12:50:41.571Z</time></trkpt><trkpt lat="44.39078" lon="11.05669"><ele>408.0</ele><time>2026-04-03T12:50:42.573Z</time></trkpt><trkpt lat="44.39076" lon="11.056795"><ele>408.0</ele><time>2026-04-03T12:50:43.573Z</time></trkpt><trkpt lat="44.3907467" lon="11.0568933"><ele>408.0</ele><time>2026-04-03T12:50:44.567Z</time></trkpt><trkpt lat="44.39074" lon="11.05699"><ele>408.0</ele><time>2026-04-03T12:50:45.571Z</time></trkpt><trkpt lat="44.39075" lon="11.05708"><ele>407.5</ele><time>2026-04-03T12:50:46.571Z</time></trkpt><trkpt lat="44.3907783" lon="11.0571617"><ele>407.0</ele><time>2026-04-03T12:50:47.568Z</time></trkpt><trkpt lat="44.3908267" lon="11.0572317"><ele>406.5</ele><time>2026-04-03T12:50:48.567Z</time></trkpt><trkpt lat="44.3908767" lon="11.0572883"><ele>406.0</ele><time>2026-04-03T12:50:49.57Z</time></trkpt><trkpt lat="44.39096" lon="11.057365"><ele>405.5</ele><time>2026-04-03T12:50:51.572Z</time></trkpt><trkpt lat="44.3910433" lon="11.0573633"><ele>405.0</ele><time>2026-04-03T12:50:53.569Z</time></trkpt><trkpt lat="44.39111" lon="11.057275"><ele>405.0</ele><time>2026-04-03T12:50:55.575Z</time></trkpt><trkpt lat="44.3911583" lon="11.0571883"><ele>405.0</ele><time>2026-04-03T12:50:56.572Z</time></trkpt><trkpt lat="44.3912333" lon="11.0570933"><ele>405.0</ele><time>2026-04-03T12:50:57.572Z</time></trkpt><trkpt lat="44.3913033" lon="11.057025"><ele>405.0</ele><time>2026-04-03T12:50:58.572Z</time></trkpt><trkpt lat="44.3913883" lon="11.0569433"><ele>405.0</ele><time>2026-04-03T12:50:59.57Z</time></trkpt><trkpt lat="44.3914833" lon="11.0568383"><ele>403.0</ele><time>2026-04-03T12:51:00.571Z</time></trkpt><trkpt lat="44.39158" lon="11.0567217"><ele>401.0</ele><time>2026-04-03T12:51:01.573Z</time></trkpt><trkpt lat="44.3916683" lon="11.056605"><ele>399.0</ele><time>2026-04-03T12:51:02.576Z</time></trkpt><trkpt lat="44.3917467" lon="11.056475"><ele>397.0</ele><time>2026-04-03T12:51:03.571Z</time></trkpt><trkpt lat="44.3918217" lon="11.0563533"><ele>397.00000000000006</ele><time>2026-04-03T12:51:04.568Z</time></trkpt><trkpt lat="44.3918917" lon="11.0562433"><ele>397.0</ele><time>2026-04-03T12:51:05.571Z</time></trkpt><trkpt lat="44.3919533" lon="11.056145"><ele>397.0</ele><time>2026-04-03T12:51:06.573Z</time></trkpt><trkpt lat="44.392005" lon="11.05605"><ele>397.0</ele><time>2026-04-03T12:51:07.571Z</time></trkpt><trkpt lat="44.39205" lon="11.05597"><ele>397.00000000000006</ele><time>2026-04-03T12:51:08.581Z</time></trkpt><trkpt lat="44.3920967" lon="11.055895"><ele>397.0</ele><time>2026-04-03T12:51:09.57Z</time></trkpt><trkpt lat="44.3921933" lon="11.0557867"><ele>396.33333333333337</ele><time>2026-04-03T12:51:11.574Z</time></trkpt><trkpt lat="44.39229" lon="11.05568"><ele>395.6666666666667</ele><time>2026-04-03T12:51:13.57Z</time></trkpt><trkpt lat="44.392345" lon="11.0556133"><ele>395.0</ele><time>2026-04-03T12:51:14.573Z</time></trkpt><trkpt lat="44.3924033" lon="11.0555417"><ele>394.33333333333337</ele><time>2026-04-03T12:51:15.57Z</time></trkpt><trkpt lat="44.39246" lon="11.0554717"><ele>393.6666666666667</ele><time>2026-04-03T12:51:16.572Z</time></trkpt><trkpt lat="44.392525" lon="11.055395"><ele>393.0</ele><time>2026-04-03T12:51:17.57Z</time></trkpt><trkpt lat="44.392595" lon="11.0553183"><ele>393.0</ele><time>2026-04-03T12:51:18.568Z</time></trkpt><trkpt lat="44.392665" lon="11.0552383"><ele>393.0</ele><time>2026-04-03T12:51:19.568Z</time></trkpt><trkpt lat="44.3927317" lon="11.05515"><ele>393.0</ele><time>2026-04-03T12:51:20.573Z</time></trkpt><trkpt lat="44.3928017" lon="11.0550583"><ele>393.0</ele><time>2026-04-03T12:51:21.573Z</time></trkpt><trkpt lat="44.3928717" lon="11.0549733"><ele>393.0</ele><time>2026-04-03T12:51:22.569Z</time></trkpt><trkpt lat="44.3929383" lon="11.054905"><ele>393.59999999999997</ele><time>2026-04-03T12:51:23.574Z</time></trkpt><trkpt lat="44.393005" lon="11.0548433"><ele>394.2</ele><time>2026-04-03T12:51:24.571Z</time></trkpt><trkpt lat="44.3930583" lon="11.0547867"><ele>394.8</ele><time>2026-04-03T12:51:25.574Z</time></trkpt><trkpt lat="44.3931467" lon="11.05476"><ele>395.4</ele><time>2026-04-03T12:51:27.569Z</time></trkpt><trkpt lat="44.3932383" lon="11.0548467"><ele>396.0</ele><time>2026-04-03T12:51:29.574Z</time></trkpt><trkpt lat="44.39328" lon="11.0549767"><ele>394.20000000000005</ele><time>2026-04-03T12:51:30.573Z</time></trkpt><trkpt lat="44.3933367" lon="11.05509"><ele>392.40000000000003</ele><time>2026-04-03T12:51:31.576Z</time></trkpt><trkpt lat="44.3934" lon="11.05519"><ele>390.6</ele><time>2026-04-03T12:51:32.571Z</time></trkpt><trkpt lat="44.39347" lon="11.0552633"><ele>388.8</ele><time>2026-04-03T12:51:33.571Z</time></trkpt><trkpt lat="44.3935417" lon="11.0553167"><ele>387.0</ele><time>2026-04-03T12:51:34.571Z</time></trkpt><trkpt lat="44.3936317" lon="11.0553283"><ele>387.0</ele><time>2026-04-03T12:51:35.574Z</time></trkpt><trkpt lat="44.3937183" lon="11.055305"><ele>387.0</ele><time>2026-04-03T12:51:36.569Z</time></trkpt><trkpt lat="44.3938167" lon="11.0552567"><ele>387.0</ele><time>2026-04-03T12:51:37.57Z</time></trkpt><trkpt lat="44.3939183" lon="11.055185"><ele>387.0</ele><time>2026-04-03T12:51:38.572Z</time></trkpt><trkpt lat="44.394025" lon="11.0551233"><ele>387.0</ele><time>2026-04-03T12:51:39.575Z</time></trkpt><trkpt lat="44.3941267" lon="11.0550633"><ele>386.40000000000003</ele><time>2026-04-03T12:51:40.573Z</time></trkpt><trkpt lat="44.3942167" lon="11.05502"><ele>385.8</ele><time>2026-04-03T12:51:41.57Z</time></trkpt><trkpt lat="44.39431" lon="11.0549883"><ele>385.2</ele><time>2026-04-03T12:51:42.577Z</time></trkpt><trkpt lat="44.39441" lon="11.0549767"><ele>384.6</ele><time>2026-04-03T12:51:43.571Z</time></trkpt><trkpt lat="44.3945167" lon="11.05498"><ele>384.0</ele><time>2026-04-03T12:51:44.575Z</time></trkpt><trkpt lat="44.394625" lon="11.054995"><ele>385.79999999999995</ele><time>2026-04-03T12:51:45.572Z</time></trkpt><trkpt lat="44.3947233" lon="11.055025"><ele>387.59999999999997</ele><time>2026-04-03T12:51:46.575Z</time></trkpt><trkpt lat="44.394805" lon="11.0550983"><ele>389.4</ele><time>2026-04-03T12:51:47.574Z</time></trkpt><trkpt lat="44.3948817" lon="11.05519"><ele>391.2</ele><time>2026-04-03T12:51:48.569Z</time></trkpt><trkpt lat="44.39496" lon="11.0552767"><ele>393.0</ele><time>2026-04-03T12:51:49.573Z</time></trkpt><trkpt lat="44.39504" lon="11.05534"><ele>393.0</ele><time>2026-04-03T12:51:50.572Z</time></trkpt><trkpt lat="44.395125" lon="11.0553817"><ele>393.0</ele><time>2026-04-03T12:51:51.575Z</time></trkpt><trkpt lat="44.3952283" lon="11.0553817"><ele>393.0</ele><time>2026-04-03T12:51:52.571Z</time></trkpt><trkpt lat="44.3953317" lon="11.05534"><ele>393.0</ele><time>2026-04-03T12:51:53.569Z</time></trkpt><trkpt lat="44.395425" lon="11.0553133"><ele>393.0</ele><time>2026-04-03T12:51:54.569Z</time></trkpt><trkpt lat="44.395505" lon="11.0553033"><ele>395.28571428571433</ele><time>2026-04-03T12:51:55.572Z</time></trkpt><trkpt lat="44.3955717" lon="11.055325"><ele>397.57142857142856</ele><time>2026-04-03T12:51:56.576Z</time></trkpt><trkpt lat="44.39562" lon="11.0553817"><ele>399.8571428571429</ele><time>2026-04-03T12:51:57.571Z</time></trkpt><trkpt lat="44.3956417" lon="11.0554717"><ele>402.14285714285717</ele><time>2026-04-03T12:51:58.572Z</time></trkpt><trkpt lat="44.39566" lon="11.0555667"><ele>404.42857142857144</ele><time>2026-04-03T12:51:59.57Z</time></trkpt><trkpt lat="44.3956683" lon="11.0556867"><ele>406.7142857142857</ele><time>2026-04-03T12:52:00.574Z</time></trkpt><trkpt lat="44.3956833" lon="11.0558"><ele>409.0</ele><time>2026-04-03T12:52:01.572Z</time></trkpt><trkpt lat="44.3957067" lon="11.0559033"><ele>409.00000000000006</ele><time>2026-04-03T12:52:02.574Z</time></trkpt><trkpt lat="44.3957383" lon="11.05599"><ele>409.0</ele><time>2026-04-03T12:52:03.569Z</time></trkpt><trkpt lat="44.39585" lon="11.0560283"><ele>409.0</ele><time>2026-04-03T12:52:05.57Z</time></trkpt><trkpt lat="44.39592" lon="11.056"><ele>409.0</ele><time>2026-04-03T12:52:06.57Z</time></trkpt><trkpt lat="44.3959867" lon="11.05595"><ele>409.00000000000006</ele><time>2026-04-03T12:52:07.567Z</time></trkpt><trkpt lat="44.396045" lon="11.0558733"><ele>409.0</ele><time>2026-04-03T12:52:08.574Z</time></trkpt><trkpt lat="44.3961" lon="11.0557767"><ele>409.0</ele><time>2026-04-03T12:52:09.573Z</time></trkpt><trkpt lat="44.3961583" lon="11.0556767"><ele>409.0</ele><time>2026-04-03T12:52:10.57Z</time></trkpt><trkpt lat="44.39623" lon="11.0555883"><ele>409.0</ele><time>2026-04-03T12:52:11.575Z</time></trkpt><trkpt lat="44.39632" lon="11.0555167"><ele>409.0</ele><time>2026-04-03T12:52:12.574Z</time></trkpt><trkpt lat="44.3964117" lon="11.0554617"><ele>409.0</ele><time>2026-04-03T12:52:13.573Z</time></trkpt><trkpt lat="44.3964917" lon="11.0554067"><ele>412.6</ele><time>2026-04-03T12:52:14.571Z</time></trkpt><trkpt lat="44.3965617" lon="11.055325"><ele>416.2</ele><time>2026-04-03T12:52:15.57Z</time></trkpt><trkpt lat="44.3966167" lon="11.0552217"><ele>419.80000000000007</ele><time>2026-04-03T12:52:16.575Z</time></trkpt><trkpt lat="44.396665" lon="11.055115"><ele>423.40000000000003</ele><time>2026-04-03T12:52:17.579Z</time></trkpt><trkpt lat="44.3967183" lon="11.0550183"><ele>427.0</ele><time>2026-04-03T12:52:18.572Z</time></trkpt><trkpt lat="44.3967867" lon="11.0549333"><ele>427.40000000000003</ele><time>2026-04-03T12:52:19.576Z</time></trkpt><trkpt lat="44.3968617" lon="11.054865"><ele>427.80000000000007</ele><time>2026-04-03T12:52:20.575Z</time></trkpt><trkpt lat="44.39695" lon="11.0548133"><ele>428.2</ele><time>2026-04-03T12:52:21.573Z</time></trkpt><trkpt lat="44.3970433" lon="11.0547717"><ele>428.6</ele><time>2026-04-03T12:52:22.57Z</time></trkpt><trkpt lat="44.39714" lon="11.054735"><ele>429.0</ele><time>2026-04-03T12:52:23.575Z</time></trkpt><trkpt lat="44.3972367" lon="11.0546967"><ele>433.2</ele><time>2026-04-03T12:52:24.576Z</time></trkpt><trkpt lat="44.3973383" lon="11.0546683"><ele>437.4</ele><time>2026-04-03T12:52:25.571Z</time></trkpt><trkpt lat="44.3974367" lon="11.0546517"><ele>441.6</ele><time>2026-04-03T12:52:26.571Z</time></trkpt><trkpt lat="44.397535" lon="11.05465"><ele>445.8</ele><time>2026-04-03T12:52:27.574Z</time></trkpt><trkpt lat="44.3976317" lon="11.05465"><ele>450.0</ele><time>2026-04-03T12:52:28.57Z</time></trkpt><trkpt lat="44.39772" lon="11.0546367"><ele>450.0</ele><time>2026-04-03T12:52:29.572Z</time></trkpt><trkpt lat="44.397805" lon="11.0546083"><ele>450.0</ele><time>2026-04-03T12:52:30.573Z</time></trkpt><trkpt lat="44.3978867" lon="11.054575"><ele>450.0</ele><time>2026-04-03T12:52:31.57Z</time></trkpt><trkpt lat="44.3979733" lon="11.05455"><ele>450.0</ele><time>2026-04-03T12:52:32.577Z</time></trkpt><trkpt lat="44.3980633" lon="11.05455"><ele>450.0</ele><time>2026-04-03T12:52:33.569Z</time></trkpt><trkpt lat="44.3981483" lon="11.0545733"><ele>450.0</ele><time>2026-04-03T12:52:34.568Z</time></trkpt><trkpt lat="44.3982317" lon="11.054615"><ele>451.6</ele><time>2026-04-03T12:52:35.568Z</time></trkpt><trkpt lat="44.3983183" lon="11.0546783"><ele>453.2</ele><time>2026-04-03T12:52:36.57Z</time></trkpt><trkpt lat="44.3984017" lon="11.0547533"><ele>454.79999999999995</ele><time>2026-04-03T12:52:37.574Z</time></trkpt><trkpt lat="44.3984717" lon="11.0548283"><ele>456.4</ele><time>2026-04-03T12:52:38.576Z</time></trkpt><trkpt lat="44.3985317" lon="11.054895"><ele>458.0</ele><time>2026-04-03T12:52:39.573Z</time></trkpt><trkpt lat="44.39861" lon="11.0549883"><ele>459.49999999999994</ele><time>2026-04-03T12:52:41.569Z</time></trkpt><trkpt lat="44.3986467" lon="11.0549"><ele>461.0</ele><time>2026-04-03T12:52:45.574Z</time></trkpt><trkpt lat="44.3986283" lon="11.0548067"><ele>462.5</ele><time>2026-04-03T12:52:46.575Z</time></trkpt><trkpt lat="44.3986017" lon="11.054685"><ele>464.0</ele><time>2026-04-03T12:52:47.573Z</time></trkpt><trkpt lat="44.398575" lon="11.0545533"><ele>465.49999999999994</ele><time>2026-04-03T12:52:48.572Z</time></trkpt><trkpt lat="44.3985417" lon="11.0544233"><ele>467.0</ele><time>2026-04-03T12:52:49.57Z</time></trkpt><trkpt lat="44.3985083" lon="11.0543"><ele>466.99999999999994</ele><time>2026-04-03T12:52:50.573Z</time></trkpt><trkpt lat="44.3984767" lon="11.0541867"><ele>467.0</ele><time>2026-04-03T12:52:51.57Z</time></trkpt><trkpt lat="44.398445" lon="11.0540833"><ele>467.0</ele><time>2026-04-03T12:52:52.573Z</time></trkpt><trkpt lat="44.3984067" lon="11.0539867"><ele>467.0</ele><time>2026-04-03T12:52:53.57Z</time></trkpt><trkpt lat="44.3983883" lon="11.053895"><ele>466.99999999999994</ele><time>2026-04-03T12:52:54.571Z</time></trkpt><trkpt lat="44.3983917" lon="11.05372"><ele>467.0</ele><time>2026-04-03T12:52:56.572Z</time></trkpt><trkpt lat="44.3983867" lon="11.05363"><ele>468.20000000000005</ele><time>2026-04-03T12:52:57.572Z</time></trkpt><trkpt lat="44.3983817" lon="11.0534667"><ele>469.40000000000003</ele><time>2026-04-03T12:52:59.57Z</time></trkpt><trkpt lat="44.39838" lon="11.0533183"><ele>470.59999999999997</ele><time>2026-04-03T12:53:01.569Z</time></trkpt><trkpt lat="44.3983683" lon="11.0531583"><ele>471.79999999999995</ele><time>2026-04-03T12:53:03.568Z</time></trkpt><trkpt lat="44.3983533" lon="11.0530583"><ele>473.0</ele><time>2026-04-03T12:53:04.58Z</time></trkpt><trkpt lat="44.3983383" lon="11.052955"><ele>474.16666666666663</ele><time>2026-04-03T12:53:05.571Z</time></trkpt><trkpt lat="44.398325" lon="11.05285"><ele>475.3333333333333</ele><time>2026-04-03T12:53:06.572Z</time></trkpt><trkpt lat="44.39831" lon="11.05274"><ele>476.5</ele><time>2026-04-03T12:53:07.57Z</time></trkpt><trkpt lat="44.3982867" lon="11.052625"><ele>477.66666666666663</ele><time>2026-04-03T12:53:08.578Z</time></trkpt><trkpt lat="44.39826" lon="11.05251"><ele>478.8333333333333</ele><time>2026-04-03T12:53:09.574Z</time></trkpt><trkpt lat="44.3982382" lon="11.0524034"><ele>480.0</ele><time>2026-04-03T12:53:10.569Z</time></trkpt><trkpt lat="44.3982283" lon="11.0523072"><ele>482.0</ele><time>2026-04-03T12:53:11.571Z</time></trkpt><trkpt lat="44.398225" lon="11.052214"><ele>484.0</ele><time>2026-04-03T12:53:12.568Z</time></trkpt><trkpt lat="44.3982307" lon="11.0520511"><ele>486.0</ele><time>2026-04-03T12:53:14.571Z</time></trkpt><trkpt lat="44.3982103" lon="11.0519234"><ele>488.0</ele><time>2026-04-03T12:53:16.571Z</time></trkpt><trkpt lat="44.3981982" lon="11.0517734"><ele>490.0</ele><time>2026-04-03T12:53:18.581Z</time></trkpt><trkpt lat="44.398202" lon="11.0516739"><ele>490.57142857142856</ele><time>2026-04-03T12:53:19.569Z</time></trkpt><trkpt lat="44.3982108" lon="11.0515589"><ele>491.1428571428571</ele><time>2026-04-03T12:53:20.571Z</time></trkpt><trkpt lat="44.3982157" lon="11.0514449"><ele>491.7142857142857</ele><time>2026-04-03T12:53:21.576Z</time></trkpt><trkpt lat="44.3982136" lon="11.0513449"><ele>492.2857142857143</ele><time>2026-04-03T12:53:22.573Z</time></trkpt><trkpt lat="44.3981969" lon="11.0512531"><ele>492.85714285714283</ele><time>2026-04-03T12:53:23.567Z</time></trkpt><trkpt lat="44.3981664" lon="11.0511672"><ele>493.42857142857144</ele><time>2026-04-03T12:53:24.575Z</time></trkpt><trkpt lat="44.3981161" lon="11.0510979"><ele>494.0</ele><time>2026-04-03T12:53:25.569Z</time></trkpt><trkpt lat="44.3980589" lon="11.0510436"><ele>495.0</ele><time>2026-04-03T12:53:26.574Z</time></trkpt><trkpt lat="44.3979952" lon="11.0509834"><ele>496.0</ele><time>2026-04-03T12:53:27.576Z</time></trkpt><trkpt lat="44.3979188" lon="11.05091"><ele>497.0</ele><time>2026-04-03T12:53:28.568Z</time></trkpt><trkpt lat="44.397834" lon="11.0508258"><ele>498.0</ele><time>2026-04-03T12:53:29.569Z</time></trkpt><trkpt lat="44.397754" lon="11.0507399"><ele>499.0</ele><time>2026-04-03T12:53:30.577Z</time></trkpt><trkpt lat="44.3976833" lon="11.0506614"><ele>500.50000000000006</ele><time>2026-04-03T12:53:31.571Z</time></trkpt><trkpt lat="44.3976238" lon="11.050585"><ele>502.0</ele><time>2026-04-03T12:53:32.572Z</time></trkpt><trkpt lat="44.3975694" lon="11.0505046"><ele>503.5</ele><time>2026-04-03T12:53:33.569Z</time></trkpt><trkpt lat="44.3975244" lon="11.0504071"><ele>505.0</ele><time>2026-04-03T12:53:34.573Z</time></trkpt><trkpt lat="44.3974901" lon="11.0502959"><ele>506.50000000000006</ele><time>2026-04-03T12:53:35.572Z</time></trkpt><trkpt lat="44.3974593" lon="11.0501747"><ele>508.0</ele><time>2026-04-03T12:53:36.571Z</time></trkpt><trkpt lat="44.3974316" lon="11.0500557"><ele>508.2</ele><time>2026-04-03T12:53:37.574Z</time></trkpt><trkpt lat="44.3974025" lon="11.0499393"><ele>508.4</ele><time>2026-04-03T12:53:38.57Z</time></trkpt><trkpt lat="44.3973695" lon="11.049815"><ele>508.59999999999997</ele><time>2026-04-03T12:53:39.574Z</time></trkpt><trkpt lat="44.397336" lon="11.0496884"><ele>508.79999999999995</ele><time>2026-04-03T12:53:40.569Z</time></trkpt><trkpt lat="44.3972995" lon="11.0495691"><ele>509.0</ele><time>2026-04-03T12:53:41.569Z</time></trkpt><trkpt lat="44.3972567" lon="11.0494633"><ele>508.99999999999994</ele><time>2026-04-03T12:53:42.572Z</time></trkpt><trkpt lat="44.39721" lon="11.0493567"><ele>509.0</ele><time>2026-04-03T12:53:43.574Z</time></trkpt><trkpt lat="44.3971683" lon="11.0492483"><ele>509.0</ele><time>2026-04-03T12:53:44.571Z</time></trkpt><trkpt lat="44.3971283" lon="11.0491417"><ele>509.0</ele><time>2026-04-03T12:53:45.571Z</time></trkpt><trkpt lat="44.3970917" lon="11.0490317"><ele>508.99999999999994</ele><time>2026-04-03T12:53:46.57Z</time></trkpt><trkpt lat="44.3970633" lon="11.0489233"><ele>509.0</ele><time>2026-04-03T12:53:47.571Z</time></trkpt><trkpt lat="44.3970267" lon="11.0488133"><ele>510.3333333333333</ele><time>2026-04-03T12:53:48.572Z</time></trkpt><trkpt lat="44.39698" lon="11.04871"><ele>511.66666666666663</ele><time>2026-04-03T12:53:49.576Z</time></trkpt><trkpt lat="44.3969267" lon="11.0486133"><ele>513.0</ele><time>2026-04-03T12:53:50.571Z</time></trkpt><trkpt lat="44.3968617" lon="11.04853"><ele>514.3333333333334</ele><time>2026-04-03T12:53:51.57Z</time></trkpt><trkpt lat="44.3967917" lon="11.0484567"><ele>515.6666666666667</ele><time>2026-04-03T12:53:52.571Z</time></trkpt><trkpt lat="44.3967283" lon="11.048385"><ele>517.0</ele><time>2026-04-03T12:53:53.569Z</time></trkpt><trkpt lat="44.3966767" lon="11.0483233"><ele>516.5</ele><time>2026-04-03T12:53:54.57Z</time></trkpt><trkpt lat="44.3966233" lon="11.0482567"><ele>516.0</ele><time>2026-04-03T12:53:55.587Z</time></trkpt><trkpt lat="44.3965717" lon="11.0481783"><ele>515.5</ele><time>2026-04-03T12:53:56.569Z</time></trkpt><trkpt lat="44.3965117" lon="11.0480983"><ele>515.0</ele><time>2026-04-03T12:53:57.57Z</time></trkpt><trkpt lat="44.39645" lon="11.048015"><ele>514.5</ele><time>2026-04-03T12:53:58.568Z</time></trkpt><trkpt lat="44.3963867" lon="11.047945"><ele>514.0</ele><time>2026-04-03T12:53:59.572Z</time></trkpt><trkpt lat="44.3963217" lon="11.0478867"><ele>514.0</ele><time>2026-04-03T12:54:00.583Z</time></trkpt><trkpt lat="44.3962567" lon="11.04782"><ele>514.0</ele><time>2026-04-03T12:54:01.571Z</time></trkpt><trkpt lat="44.3962017" lon="11.0477283"><ele>514.0</ele><time>2026-04-03T12:54:02.572Z</time></trkpt><trkpt lat="44.3961467" lon="11.0476433"><ele>514.0</ele><time>2026-04-03T12:54:03.571Z</time></trkpt><trkpt lat="44.39609" lon="11.047565"><ele>514.0</ele><time>2026-04-03T12:54:04.569Z</time></trkpt><trkpt lat="44.3960317" lon="11.047495"><ele>514.0</ele><time>2026-04-03T12:54:05.568Z</time></trkpt><trkpt lat="44.3959717" lon="11.0474233"><ele>511.6666666666667</ele><time>2026-04-03T12:54:06.577Z</time></trkpt><trkpt lat="44.3959133" lon="11.04736"><ele>509.33333333333337</ele><time>2026-04-03T12:54:07.571Z</time></trkpt><trkpt lat="44.395855" lon="11.0473083"><ele>507.0</ele><time>2026-04-03T12:54:08.578Z</time></trkpt><trkpt lat="44.395795" lon="11.0472667"><ele>504.66666666666663</ele><time>2026-04-03T12:54:09.57Z</time></trkpt><trkpt lat="44.3956833" lon="11.0472167"><ele>502.3333333333333</ele><time>2026-04-03T12:54:11.575Z</time></trkpt><trkpt lat="44.3955633" lon="11.0472333"><ele>500.0</ele><time>2026-04-03T12:54:13.571Z</time></trkpt><trkpt lat="44.3954917" lon="11.047255"><ele>497.49999999999994</ele><time>2026-04-03T12:54:14.579Z</time></trkpt><trkpt lat="44.3954167" lon="11.047275"><ele>495.0</ele><time>2026-04-03T12:54:15.57Z</time></trkpt><trkpt lat="44.395345" lon="11.0472917"><ele>492.5</ele><time>2026-04-03T12:54:16.568Z</time></trkpt><trkpt lat="44.3952817" lon="11.0473183"><ele>490.0</ele><time>2026-04-03T12:54:17.57Z</time></trkpt><trkpt lat="44.3952133" lon="11.0473533"><ele>487.49999999999994</ele><time>2026-04-03T12:54:18.57Z</time></trkpt><trkpt lat="44.395135" lon="11.04739"><ele>485.0</ele><time>2026-04-03T12:54:19.575Z</time></trkpt><trkpt lat="44.395045" lon="11.0474333"><ele>485.66666666666663</ele><time>2026-04-03T12:54:20.57Z</time></trkpt><trkpt lat="44.3949567" lon="11.04748"><ele>486.3333333333333</ele><time>2026-04-03T12:54:21.567Z</time></trkpt><trkpt lat="44.39487" lon="11.04752"><ele>487.0</ele><time>2026-04-03T12:54:22.569Z</time></trkpt><trkpt lat="44.3947883" lon="11.0475583"><ele>487.66666666666663</ele><time>2026-04-03T12:54:23.568Z</time></trkpt><trkpt lat="44.3947133" lon="11.047585"><ele>488.3333333333333</ele><time>2026-04-03T12:54:24.573Z</time></trkpt><trkpt lat="44.3946483" lon="11.04759"><ele>489.0</ele><time>2026-04-03T12:54:25.571Z</time></trkpt><trkpt lat="44.3945833" lon="11.0475683"><ele>489.0</ele><time>2026-04-03T12:54:26.575Z</time></trkpt><trkpt lat="44.394525" lon="11.04752"><ele>489.0</ele><time>2026-04-03T12:54:27.571Z</time></trkpt><trkpt lat="44.3944733" lon="11.0474633"><ele>489.0</ele><time>2026-04-03T12:54:28.57Z</time></trkpt><trkpt lat="44.3944217" lon="11.04741"><ele>489.0</ele><time>2026-04-03T12:54:29.572Z</time></trkpt><trkpt lat="44.3943133" lon="11.0473533"><ele>489.0</ele><time>2026-04-03T12:54:31.569Z</time></trkpt><trkpt lat="44.3942083" lon="11.0473167"><ele>489.0</ele><time>2026-04-03T12:54:33.57Z</time></trkpt><trkpt lat="44.3940967" lon="11.0472183"><ele>487.0</ele><time>2026-04-03T12:54:35.569Z</time></trkpt><trkpt lat="44.3940417" lon="11.0471517"><ele>485.0</ele><time>2026-04-03T12:54:36.574Z</time></trkpt><trkpt lat="44.393985" lon="11.0470983"><ele>483.0</ele><time>2026-04-03T12:54:37.57Z</time></trkpt><trkpt lat="44.393915" lon="11.047065"><ele>481.0</ele><time>2026-04-03T12:54:38.574Z</time></trkpt><trkpt lat="44.3938383" lon="11.0470533"><ele>479.0</ele><time>2026-04-03T12:54:39.576Z</time></trkpt><trkpt lat="44.3937517" lon="11.047055"><ele>477.0</ele><time>2026-04-03T12:54:40.574Z</time></trkpt><trkpt lat="44.3936633" lon="11.0470433"><ele>476.5</ele><time>2026-04-03T12:54:41.57Z</time></trkpt><trkpt lat="44.3935783" lon="11.0470283"><ele>476.0</ele><time>2026-04-03T12:54:42.571Z</time></trkpt><trkpt lat="44.39349" lon="11.047025"><ele>475.5</ele><time>2026-04-03T12:54:43.569Z</time></trkpt><trkpt lat="44.393415" lon="11.0470367"><ele>475.0</ele><time>2026-04-03T12:54:44.574Z</time></trkpt><trkpt lat="44.3933417" lon="11.0470767"><ele>474.5</ele><time>2026-04-03T12:54:45.571Z</time></trkpt><trkpt lat="44.39327" lon="11.04712"><ele>474.0</ele><time>2026-04-03T12:54:46.57Z</time></trkpt><trkpt lat="44.3931983" lon="11.0471533"><ele>474.0</ele><time>2026-04-03T12:54:47.57Z</time></trkpt><trkpt lat="44.393125" lon="11.0471717"><ele>474.0</ele><time>2026-04-03T12:54:48.571Z</time></trkpt><trkpt lat="44.3930533" lon="11.0471867"><ele>474.0</ele><time>2026-04-03T12:54:49.568Z</time></trkpt><trkpt lat="44.39297" lon="11.047215"><ele>474.0</ele><time>2026-04-03T12:54:50.575Z</time></trkpt><trkpt lat="44.3928733" lon="11.0472517"><ele>474.0</ele><time>2026-04-03T12:54:51.574Z</time></trkpt><trkpt lat="44.3927767" lon="11.047295"><ele>474.0</ele><time>2026-04-03T12:54:52.567Z</time></trkpt><trkpt lat="44.3926883" lon="11.047325"><ele>475.5</ele><time>2026-04-03T12:54:53.578Z</time></trkpt><trkpt lat="44.392605" lon="11.0473383"><ele>477.0</ele><time>2026-04-03T12:54:54.573Z</time></trkpt><trkpt lat="44.3925283" lon="11.0473333"><ele>478.5</ele><time>2026-04-03T12:54:55.578Z</time></trkpt><trkpt lat="44.3924533" lon="11.0473083"><ele>480.0</ele><time>2026-04-03T12:54:56.575Z</time></trkpt><trkpt lat="44.3923833" lon="11.0472567"><ele>481.5</ele><time>2026-04-03T12:54:57.576Z</time></trkpt><trkpt lat="44.3923117" lon="11.047195"><ele>483.0</ele><time>2026-04-03T12:54:58.577Z</time></trkpt><trkpt lat="44.392245" lon="11.0471367"><ele>483.0</ele><time>2026-04-03T12:54:59.571Z</time></trkpt><trkpt lat="44.392175" lon="11.047095"><ele>483.0</ele><time>2026-04-03T12:55:00.569Z</time></trkpt><trkpt lat="44.3921" lon="11.0470767"><ele>483.0</ele><time>2026-04-03T12:55:01.574Z</time></trkpt><trkpt lat="44.3920117" lon="11.04709"><ele>483.0</ele><time>2026-04-03T12:55:02.569Z</time></trkpt><trkpt lat="44.3919183" lon="11.0471183"><ele>483.0</ele><time>2026-04-03T12:55:03.569Z</time></trkpt><trkpt lat="44.3918333" lon="11.0471683"><ele>483.0</ele><time>2026-04-03T12:55:04.569Z</time></trkpt><trkpt lat="44.3917483" lon="11.0472083"><ele>485.4</ele><time>2026-04-03T12:55:05.571Z</time></trkpt><trkpt lat="44.3916533" lon="11.04723"><ele>487.79999999999995</ele><time>2026-04-03T12:55:06.571Z</time></trkpt><trkpt lat="44.3915583" lon="11.0472317"><ele>490.2</ele><time>2026-04-03T12:55:07.572Z</time></trkpt><trkpt lat="44.3914683" lon="11.0472217"><ele>492.6</ele><time>2026-04-03T12:55:08.581Z</time></trkpt><trkpt lat="44.39138" lon="11.0472133"><ele>495.0</ele><time>2026-04-03T12:55:09.572Z</time></trkpt><trkpt lat="44.391295" lon="11.0472067"><ele>496.42857142857133</ele><time>2026-04-03T12:55:10.576Z</time></trkpt><trkpt lat="44.3912167" lon="11.0471967"><ele>497.85714285714283</ele><time>2026-04-03T12:55:11.57Z</time></trkpt><trkpt lat="44.3911467" lon="11.047195"><ele>499.2857142857142</ele><time>2026-04-03T12:55:12.568Z</time></trkpt><trkpt lat="44.3910767" lon="11.047195"><ele>500.71428571428567</ele><time>2026-04-03T12:55:13.571Z</time></trkpt><trkpt lat="44.3909983" lon="11.047185"><ele>502.1428571428571</ele><time>2026-04-03T12:55:14.568Z</time></trkpt><trkpt lat="44.3909267" lon="11.0471667"><ele>503.57142857142856</ele><time>2026-04-03T12:55:15.573Z</time></trkpt><trkpt lat="44.3908583" lon="11.0471417"><ele>505.0</ele><time>2026-04-03T12:55:16.577Z</time></trkpt><trkpt lat="44.3907817" lon="11.0471183"><ele>505.00000000000006</ele><time>2026-04-03T12:55:17.572Z</time></trkpt><trkpt lat="44.3907083" lon="11.0470933"><ele>505.0</ele><time>2026-04-03T12:55:18.574Z</time></trkpt><trkpt lat="44.3906417" lon="11.0470533"><ele>505.0</ele><time>2026-04-03T12:55:19.57Z</time></trkpt><trkpt lat="44.39058" lon="11.046985"><ele>505.0</ele><time>2026-04-03T12:55:20.57Z</time></trkpt><trkpt lat="44.3905183" lon="11.04688"><ele>505.00000000000006</ele><time>2026-04-03T12:55:21.57Z</time></trkpt><trkpt lat="44.390445" lon="11.0467583"><ele>505.0</ele><time>2026-04-03T12:55:22.568Z</time></trkpt><trkpt lat="44.3903633" lon="11.0466417"><ele>504.6666666666667</ele><time>2026-04-03T12:55:23.571Z</time></trkpt><trkpt lat="44.3902867" lon="11.0465383"><ele>504.33333333333337</ele><time>2026-04-03T12:55:24.571Z</time></trkpt><trkpt lat="44.39022" lon="11.0464517"><ele>504.0</ele><time>2026-04-03T12:55:25.578Z</time></trkpt><trkpt lat="44.3901567" lon="11.0463817"><ele>503.66666666666663</ele><time>2026-04-03T12:55:26.577Z</time></trkpt><trkpt lat="44.39009" lon="11.0463283"><ele>503.3333333333333</ele><time>2026-04-03T12:55:27.58Z</time></trkpt><trkpt lat="44.3900033" lon="11.0462867"><ele>503.0</ele><time>2026-04-03T12:55:28.573Z</time></trkpt><trkpt lat="44.3899133" lon="11.0462483"><ele>503.0</ele><time>2026-04-03T12:55:29.575Z</time></trkpt><trkpt lat="44.38982" lon="11.0462083"><ele>502.99999999999994</ele><time>2026-04-03T12:55:30.572Z</time></trkpt><trkpt lat="44.3897283" lon="11.0461667"><ele>502.99999999999994</ele><time>2026-04-03T12:55:31.573Z</time></trkpt><trkpt lat="44.3896383" lon="11.0461333"><ele>503.0</ele><time>2026-04-03T12:55:32.573Z</time></trkpt><trkpt lat="44.3895533" lon="11.0461167"><ele>503.0</ele><time>2026-04-03T12:55:33.571Z</time></trkpt><trkpt lat="44.38947" lon="11.0461133"><ele>505.16666666666663</ele><time>2026-04-03T12:55:34.574Z</time></trkpt><trkpt lat="44.3893783" lon="11.0461117"><ele>507.3333333333333</ele><time>2026-04-03T12:55:35.572Z</time></trkpt><trkpt lat="44.389285" lon="11.0460967"><ele>509.5</ele><time>2026-04-03T12:55:36.572Z</time></trkpt><trkpt lat="44.3892033" lon="11.0460783"><ele>511.66666666666663</ele><time>2026-04-03T12:55:37.572Z</time></trkpt><trkpt lat="44.389135" lon="11.04607"><ele>513.8333333333334</ele><time>2026-04-03T12:55:38.573Z</time></trkpt><trkpt lat="44.38907" lon="11.0460917"><ele>516.0</ele><time>2026-04-03T12:55:39.573Z</time></trkpt><trkpt lat="44.3890067" lon="11.046155"><ele>516.0</ele><time>2026-04-03T12:55:40.571Z</time></trkpt><trkpt lat="44.38894" lon="11.0462383"><ele>516.0</ele><time>2026-04-03T12:55:41.57Z</time></trkpt><trkpt lat="44.38886" lon="11.0463083"><ele>516.0</ele><time>2026-04-03T12:55:42.569Z</time></trkpt><trkpt lat="44.38877" lon="11.046355"><ele>516.0</ele><time>2026-04-03T12:55:43.571Z</time></trkpt><trkpt lat="44.3886867" lon="11.0464033"><ele>516.0</ele><time>2026-04-03T12:55:44.575Z</time></trkpt><trkpt lat="44.3886133" lon="11.04646"><ele>516.1666666666666</ele><time>2026-04-03T12:55:45.571Z</time></trkpt><trkpt lat="44.38854" lon="11.046525"><ele>516.3333333333334</ele><time>2026-04-03T12:55:46.568Z</time></trkpt><trkpt lat="44.3884817" lon="11.0466117"><ele>516.5</ele><time>2026-04-03T12:55:47.567Z</time></trkpt><trkpt lat="44.3884267" lon="11.0466883"><ele>516.6666666666667</ele><time>2026-04-03T12:55:48.568Z</time></trkpt><trkpt lat="44.3883633" lon="11.0467367"><ele>516.8333333333334</ele><time>2026-04-03T12:55:49.579Z</time></trkpt><trkpt lat="44.3882967" lon="11.0467583"><ele>517.0</ele><time>2026-04-03T12:55:50.573Z</time></trkpt><trkpt lat="44.3882217" lon="11.0467717"><ele>517.0</ele><time>2026-04-03T12:55:51.567Z</time></trkpt><trkpt lat="44.3881483" lon="11.0468017"><ele>517.0</ele><time>2026-04-03T12:55:52.569Z</time></trkpt><trkpt lat="44.3880833" lon="11.046845"><ele>517.0</ele><time>2026-04-03T12:55:53.569Z</time></trkpt><trkpt lat="44.3880267" lon="11.0468867"><ele>517.0</ele><time>2026-04-03T12:55:54.578Z</time></trkpt><trkpt lat="44.3879467" lon="11.0469133"><ele>517.0</ele><time>2026-04-03T12:55:56.574Z</time></trkpt><trkpt lat="44.3878933" lon="11.0468333"><ele>517.0</ele><time>2026-04-03T12:55:58.57Z</time></trkpt><trkpt lat="44.3878377" lon="11.046718"><ele>521.1666666666667</ele><time>2026-04-03T12:56:00.575Z</time></trkpt><trkpt lat="44.3878201" lon="11.0466218"><ele>525.3333333333334</ele><time>2026-04-03T12:56:03.572Z</time></trkpt><trkpt lat="44.3877973" lon="11.0465308"><ele>529.5</ele><time>2026-04-03T12:56:23.57Z</time></trkpt><trkpt lat="44.3877506" lon="11.0464053"><ele>533.6666666666666</ele><time>2026-04-03T12:56:25.577Z</time></trkpt><trkpt lat="44.3876882" lon="11.0462521"><ele>537.8333333333333</ele><time>2026-04-03T12:56:27.573Z</time></trkpt><trkpt lat="44.3876576" lon="11.0461562"><ele>542.0</ele><time>2026-04-03T12:56:28.57Z</time></trkpt><trkpt lat="44.3876356" lon="11.0460417"><ele>542.0</ele><time>2026-04-03T12:56:29.568Z</time></trkpt><trkpt lat="44.3876271" lon="11.0459091"><ele>542.0</ele><time>2026-04-03T12:56:30.57Z</time></trkpt><trkpt lat="44.3876286" lon="11.0457609"><ele>542.0</ele><time>2026-04-03T12:56:31.568Z</time></trkpt><trkpt lat="44.3876355" lon="11.0455981"><ele>542.0</ele><time>2026-04-03T12:56:32.576Z</time></trkpt><trkpt lat="44.3876469" lon="11.0454309"><ele>542.0</ele><time>2026-04-03T12:56:33.571Z</time></trkpt><trkpt lat="44.3876593" lon="11.0452742"><ele>544.6666666666666</ele><time>2026-04-03T12:56:34.571Z</time></trkpt><trkpt lat="44.3876772" lon="11.045144"><ele>547.3333333333333</ele><time>2026-04-03T12:56:35.579Z</time></trkpt><trkpt lat="44.3877049" lon="11.0450418"><ele>550.0</ele><time>2026-04-03T12:56:36.576Z</time></trkpt><trkpt lat="44.3877437" lon="11.0449481"><ele>552.6666666666666</ele><time>2026-04-03T12:56:37.576Z</time></trkpt><trkpt lat="44.387795" lon="11.0448479"><ele>555.3333333333334</ele><time>2026-04-03T12:56:38.571Z</time></trkpt><trkpt lat="44.387855" lon="11.0447349"><ele>558.0</ele><time>2026-04-03T12:56:39.575Z</time></trkpt><trkpt lat="44.3879137" lon="11.0446179"><ele>559.4</ele><time>2026-04-03T12:56:40.573Z</time></trkpt><trkpt lat="44.3879594" lon="11.0445139"><ele>560.8</ele><time>2026-04-03T12:56:41.569Z</time></trkpt><trkpt lat="44.387993" lon="11.0444221"><ele>562.2</ele><time>2026-04-03T12:56:42.569Z</time></trkpt><trkpt lat="44.3880228" lon="11.0443379"><ele>563.6</ele><time>2026-04-03T12:56:43.571Z</time></trkpt><trkpt lat="44.38792" lon="11.0442265"><ele>565.0</ele><time>2026-04-03T12:56:45.574Z</time></trkpt><trkpt lat="44.3878194" lon="11.0441879"><ele>565.0</ele><time>2026-04-03T12:56:46.569Z</time></trkpt><trkpt lat="44.3877044" lon="11.0441649"><ele>565.0</ele><time>2026-04-03T12:56:47.571Z</time></trkpt><trkpt lat="44.3875872" lon="11.0441506"><ele>565.0</ele><time>2026-04-03T12:56:48.567Z</time></trkpt><trkpt lat="44.387463" lon="11.0441467"><ele>565.0</ele><time>2026-04-03T12:56:49.565Z</time></trkpt><trkpt lat="44.3873384" lon="11.0441524"><ele>565.0</ele><time>2026-04-03T12:56:50.572Z</time></trkpt><trkpt lat="44.3872226" lon="11.0441566"><ele>565.0</ele><time>2026-04-03T12:56:51.569Z</time></trkpt><trkpt lat="44.387114" lon="11.0441561"><ele>565.0</ele><time>2026-04-03T12:56:52.574Z</time></trkpt><trkpt lat="44.3870022" lon="11.0441544"><ele>565.0</ele><time>2026-04-03T12:56:53.576Z</time></trkpt><trkpt lat="44.3868833" lon="11.0441461"><ele>565.2</ele><time>2026-04-03T12:56:54.574Z</time></trkpt><trkpt lat="44.3867587" lon="11.0441372"><ele>565.4</ele><time>2026-04-03T12:56:55.573Z</time></trkpt><trkpt lat="44.38664" lon="11.0441326"><ele>565.6</ele><time>2026-04-03T12:56:56.571Z</time></trkpt><trkpt lat="44.3865377" lon="11.0441292"><ele>565.8</ele><time>2026-04-03T12:56:57.571Z</time></trkpt><trkpt lat="44.3864516" lon="11.0441257"><ele>566.0</ele><time>2026-04-03T12:56:58.571Z</time></trkpt><trkpt lat="44.3863733" lon="11.0441037"><ele>565.0</ele><time>2026-04-03T12:56:59.581Z</time></trkpt><trkpt lat="44.3862952" lon="11.0440697"><ele>564.0</ele><time>2026-04-03T12:57:00.573Z</time></trkpt><trkpt lat="44.3862114" lon="11.0440223"><ele>563.0</ele><time>2026-04-03T12:57:01.571Z</time></trkpt><trkpt lat="44.3861283" lon="11.0439585"><ele>562.0</ele><time>2026-04-03T12:57:02.571Z</time></trkpt><trkpt lat="44.3860542" lon="11.0438831"><ele>561.0</ele><time>2026-04-03T12:57:03.571Z</time></trkpt><trkpt lat="44.3859902" lon="11.043792"><ele>561.0</ele><time>2026-04-03T12:57:04.568Z</time></trkpt><trkpt lat="44.3859345" lon="11.043675"><ele>561.0</ele><time>2026-04-03T12:57:05.571Z</time></trkpt><trkpt lat="44.3858836" lon="11.0435468"><ele>561.0</ele><time>2026-04-03T12:57:06.57Z</time></trkpt><trkpt lat="44.3858293" lon="11.0434217"><ele>561.0</ele><time>2026-04-03T12:57:07.57Z</time></trkpt><trkpt lat="44.3857638" lon="11.0433094"><ele>561.0</ele><time>2026-04-03T12:57:08.569Z</time></trkpt><trkpt lat="44.3856921" lon="11.0432025"><ele>560.0</ele><time>2026-04-03T12:57:09.575Z</time></trkpt><trkpt lat="44.3856262" lon="11.043079"><ele>559.0</ele><time>2026-04-03T12:57:10.578Z</time></trkpt><trkpt lat="44.3855721" lon="11.0429387"><ele>558.0</ele><time>2026-04-03T12:57:11.573Z</time></trkpt><trkpt lat="44.3855217" lon="11.0428017"><ele>557.0</ele><time>2026-04-03T12:57:12.572Z</time></trkpt><trkpt lat="44.3854717" lon="11.0426817"><ele>556.0</ele><time>2026-04-03T12:57:13.57Z</time></trkpt><trkpt lat="44.3854217" lon="11.0425817"><ele>556.0</ele><time>2026-04-03T12:57:14.573Z</time></trkpt><trkpt lat="44.3853683" lon="11.0424933"><ele>556.0</ele><time>2026-04-03T12:57:15.572Z</time></trkpt><trkpt lat="44.38531" lon="11.0424133"><ele>556.0</ele><time>2026-04-03T12:57:16.565Z</time></trkpt><trkpt lat="44.3852517" lon="11.0423383"><ele>556.0</ele><time>2026-04-03T12:57:17.569Z</time></trkpt><trkpt lat="44.3851933" lon="11.042265"><ele>556.0</ele><time>2026-04-03T12:57:18.57Z</time></trkpt><trkpt lat="44.3851333" lon="11.0421983"><ele>556.0</ele><time>2026-04-03T12:57:19.57Z</time></trkpt><trkpt lat="44.3850733" lon="11.04213"><ele>556.3333333333334</ele><time>2026-04-03T12:57:20.574Z</time></trkpt><trkpt lat="44.385005" lon="11.042075"><ele>556.6666666666667</ele><time>2026-04-03T12:57:21.572Z</time></trkpt><trkpt lat="44.3849317" lon="11.0420317"><ele>557.0</ele><time>2026-04-03T12:57:22.568Z</time></trkpt><trkpt lat="44.384855" lon="11.0419917"><ele>557.3333333333334</ele><time>2026-04-03T12:57:23.569Z</time></trkpt><trkpt lat="44.3847783" lon="11.04195"><ele>557.6666666666666</ele><time>2026-04-03T12:57:24.571Z</time></trkpt><trkpt lat="44.384705" lon="11.04191"><ele>558.0</ele><time>2026-04-03T12:57:25.573Z</time></trkpt><trkpt lat="44.384635" lon="11.04186"><ele>558.6</ele><time>2026-04-03T12:57:26.573Z</time></trkpt><trkpt lat="44.384565" lon="11.0418033"><ele>559.1999999999999</ele><time>2026-04-03T12:57:27.567Z</time></trkpt><trkpt lat="44.3844867" lon="11.041745"><ele>559.8</ele><time>2026-04-03T12:57:28.571Z</time></trkpt><trkpt lat="44.3844033" lon="11.0416883"><ele>560.4</ele><time>2026-04-03T12:57:29.571Z</time></trkpt><trkpt lat="44.38431" lon="11.0416333"><ele>561.0</ele><time>2026-04-03T12:57:30.573Z</time></trkpt><trkpt lat="44.3842067" lon="11.0415767"><ele>561.0</ele><time>2026-04-03T12:57:31.572Z</time></trkpt><trkpt lat="44.3840867" lon="11.041505"><ele>561.0</ele><time>2026-04-03T12:57:32.572Z</time></trkpt><trkpt lat="44.383955" lon="11.04142"><ele>561.0</ele><time>2026-04-03T12:57:33.57Z</time></trkpt><trkpt lat="44.3838183" lon="11.04132"><ele>561.0</ele><time>2026-04-03T12:57:34.577Z</time></trkpt><trkpt lat="44.3836817" lon="11.0412083"><ele>565.25</ele><time>2026-04-03T12:57:35.572Z</time></trkpt><trkpt lat="44.38356" lon="11.041105"><ele>569.5</ele><time>2026-04-03T12:57:36.569Z</time></trkpt><trkpt lat="44.3834367" lon="11.0410167"><ele>573.75</ele><time>2026-04-03T12:57:37.573Z</time></trkpt><trkpt lat="44.3833117" lon="11.0409367"><ele>578.0</ele><time>2026-04-03T12:57:38.575Z</time></trkpt><trkpt lat="44.3831983" lon="11.0408783"><ele>578.0</ele><time>2026-04-03T12:57:39.572Z</time></trkpt><trkpt lat="44.3831017" lon="11.0408283"><ele>578.0</ele><time>2026-04-03T12:57:40.57Z</time></trkpt><trkpt lat="44.3830117" lon="11.0407683"><ele>578.0</ele><time>2026-04-03T12:57:41.572Z</time></trkpt><trkpt lat="44.38292" lon="11.040695"><ele>578.0</ele><time>2026-04-03T12:57:42.573Z</time></trkpt><trkpt lat="44.3828267" lon="11.0406233"><ele>578.0</ele><time>2026-04-03T12:57:43.574Z</time></trkpt><trkpt lat="44.3827367" lon="11.0405417"><ele>581.8</ele><time>2026-04-03T12:57:44.571Z</time></trkpt><trkpt lat="44.3826417" lon="11.0404733"><ele>585.5999999999999</ele><time>2026-04-03T12:57:45.569Z</time></trkpt><trkpt lat="44.3825483" lon="11.040415"><ele>589.4000000000001</ele><time>2026-04-03T12:57:46.57Z</time></trkpt><trkpt lat="44.3824583" lon="11.0403633"><ele>593.2</ele><time>2026-04-03T12:57:47.567Z</time></trkpt><trkpt lat="44.3823783" lon="11.0403033"><ele>597.0</ele><time>2026-04-03T12:57:48.576Z</time></trkpt><trkpt lat="44.3822967" lon="11.040195"><ele>597.0</ele><time>2026-04-03T12:57:50.566Z</time></trkpt><trkpt lat="44.3823433" lon="11.0400517"><ele>597.0</ele><time>2026-04-03T12:57:52.573Z</time></trkpt><trkpt lat="44.382375" lon="11.0399633"><ele>597.0</ele><time>2026-04-03T12:57:53.569Z</time></trkpt><trkpt lat="44.3824117" lon="11.0398617"><ele>597.0</ele><time>2026-04-03T12:57:54.573Z</time></trkpt><trkpt lat="44.38244" lon="11.0397667"><ele>597.0</ele><time>2026-04-03T12:57:55.57Z</time></trkpt><trkpt lat="44.3824567" lon="11.0396717"><ele>597.0</ele><time>2026-04-03T12:57:56.569Z</time></trkpt><trkpt lat="44.382345" lon="11.0396067"><ele>595.8333333333334</ele><time>2026-04-03T12:57:58.574Z</time></trkpt><trkpt lat="44.3822683" lon="11.039595"><ele>594.6666666666666</ele><time>2026-04-03T12:57:59.57Z</time></trkpt><trkpt lat="44.3821883" lon="11.0395983"><ele>593.5</ele><time>2026-04-03T12:58:00.569Z</time></trkpt><trkpt lat="44.3821183" lon="11.0396"><ele>592.3333333333333</ele><time>2026-04-03T12:58:01.575Z</time></trkpt><trkpt lat="44.3820033" lon="11.0395817"><ele>591.1666666666666</ele><time>2026-04-03T12:58:03.57Z</time></trkpt><trkpt lat="44.3819417" lon="11.0395617"><ele>590.0</ele><time>2026-04-03T12:58:04.571Z</time></trkpt><trkpt lat="44.3818767" lon="11.0395383"><ele>593.4</ele><time>2026-04-03T12:58:05.571Z</time></trkpt><trkpt lat="44.3818017" lon="11.0395067"><ele>596.8</ele><time>2026-04-03T12:58:06.572Z</time></trkpt><trkpt lat="44.3817217" lon="11.0394783"><ele>600.2</ele><time>2026-04-03T12:58:07.572Z</time></trkpt><trkpt lat="44.3816467" lon="11.0394517"><ele>603.6</ele><time>2026-04-03T12:58:08.57Z</time></trkpt><trkpt lat="44.38156" lon="11.0394133"><ele>607.0</ele><time>2026-04-03T12:58:10.569Z</time></trkpt><trkpt lat="44.3814467" lon="11.0393267"><ele>607.0</ele><time>2026-04-03T12:58:12.574Z</time></trkpt><trkpt lat="44.38138" lon="11.039275"><ele>607.0</ele><time>2026-04-03T12:58:13.57Z</time></trkpt><trkpt lat="44.381315" lon="11.0392317"><ele>607.0</ele><time>2026-04-03T12:58:14.572Z</time></trkpt><trkpt lat="44.3812483" lon="11.0391983"><ele>607.0</ele><time>2026-04-03T12:58:15.572Z</time></trkpt><trkpt lat="44.3811783" lon="11.03917"><ele>607.0</ele><time>2026-04-03T12:58:16.566Z</time></trkpt><trkpt lat="44.381065" lon="11.0391367"><ele>607.0</ele><time>2026-04-03T12:58:18.572Z</time></trkpt><trkpt lat="44.38096" lon="11.0390567"><ele>606.0</ele><time>2026-04-03T12:58:20.574Z</time></trkpt><trkpt lat="44.3808917" lon="11.0390083"><ele>605.0</ele><time>2026-04-03T12:58:21.573Z</time></trkpt><trkpt lat="44.3808117" lon="11.0389717"><ele>604.0</ele><time>2026-04-03T12:58:22.573Z</time></trkpt><trkpt lat="44.38074" lon="11.0389433"><ele>603.0</ele><time>2026-04-03T12:58:23.569Z</time></trkpt><trkpt lat="44.38063" lon="11.0388917"><ele>602.0</ele><time>2026-04-03T12:58:25.58Z</time></trkpt><trkpt lat="44.3805317" lon="11.038865"><ele>603.8333333333333</ele><time>2026-04-03T12:58:27.571Z</time></trkpt><trkpt lat="44.3804333" lon="11.0388333"><ele>605.6666666666666</ele><time>2026-04-03T12:58:29.57Z</time></trkpt><trkpt lat="44.38034" lon="11.03875"><ele>607.5</ele><time>2026-04-03T12:58:31.571Z</time></trkpt><trkpt lat="44.3802917" lon="11.0386917"><ele>609.3333333333334</ele><time>2026-04-03T12:58:32.574Z</time></trkpt><trkpt lat="44.380235" lon="11.0386383"><ele>611.1666666666667</ele><time>2026-04-03T12:58:33.569Z</time></trkpt><trkpt lat="44.3801683" lon="11.038605"><ele>613.0</ele><time>2026-04-03T12:58:34.572Z</time></trkpt><trkpt lat="44.380105" lon="11.0385867"><ele>613.0</ele><time>2026-04-03T12:58:35.57Z</time></trkpt><trkpt lat="44.3799883" lon="11.0385717"><ele>613.0</ele><time>2026-04-03T12:58:37.575Z</time></trkpt><trkpt lat="44.379925" lon="11.0385733"><ele>613.0</ele><time>2026-04-03T12:58:38.572Z</time></trkpt><trkpt lat="44.37986" lon="11.0385683"><ele>613.0</ele><time>2026-04-03T12:58:39.572Z</time></trkpt><trkpt lat="44.3797533" lon="11.0385433"><ele>613.0</ele><time>2026-04-03T12:58:41.569Z</time></trkpt><trkpt lat="44.3796467" lon="11.0384917"><ele>613.5</ele><time>2026-04-03T12:58:43.571Z</time></trkpt><trkpt lat="44.3795883" lon="11.0384567"><ele>614.0</ele><time>2026-04-03T12:58:44.571Z</time></trkpt><trkpt lat="44.3794767" lon="11.038395"><ele>614.5</ele><time>2026-04-03T12:58:46.574Z</time></trkpt><trkpt lat="44.3794083" lon="11.0383533"><ele>615.0</ele><time>2026-04-03T12:58:47.57Z</time></trkpt><trkpt lat="44.379325" lon="11.03831"><ele>615.5</ele><time>2026-04-03T12:58:48.568Z</time></trkpt><trkpt lat="44.379235" lon="11.0382683"><ele>616.0</ele><time>2026-04-03T12:58:49.581Z</time></trkpt><trkpt lat="44.3791567" lon="11.0382117"><ele>616.0</ele><time>2026-04-03T12:58:50.572Z</time></trkpt><trkpt lat="44.3790883" lon="11.0381233"><ele>616.0</ele><time>2026-04-03T12:58:51.57Z</time></trkpt><trkpt lat="44.379035" lon="11.038005"><ele>616.0</ele><time>2026-04-03T12:58:52.581Z</time></trkpt><trkpt lat="44.3790067" lon="11.03786"><ele>616.0</ele><time>2026-04-03T12:58:53.571Z</time></trkpt><trkpt lat="44.3789817" lon="11.0377033"><ele>616.0</ele><time>2026-04-03T12:58:54.571Z</time></trkpt><trkpt lat="44.3789567" lon="11.0375383"><ele>617.0</ele><time>2026-04-03T12:58:55.571Z</time></trkpt><trkpt lat="44.37893" lon="11.0373717"><ele>618.0</ele><time>2026-04-03T12:58:56.572Z</time></trkpt><trkpt lat="44.3788983" lon="11.0372217"><ele>619.0</ele><time>2026-04-03T12:58:57.572Z</time></trkpt><trkpt lat="44.37887" lon="11.0370817"><ele>620.0</ele><time>2026-04-03T12:58:58.575Z</time></trkpt><trkpt lat="44.3788467" lon="11.0369483"><ele>621.0</ele><time>2026-04-03T12:58:59.57Z</time></trkpt><trkpt lat="44.378815" lon="11.0368333"><ele>621.0</ele><time>2026-04-03T12:59:00.572Z</time></trkpt><trkpt lat="44.378775" lon="11.036735"><ele>621.0</ele><time>2026-04-03T12:59:01.568Z</time></trkpt><trkpt lat="44.3786983" lon="11.03671"><ele>621.0</ele><time>2026-04-03T12:59:02.574Z</time></trkpt><trkpt lat="44.37862" lon="11.0366967"><ele>621.0</ele><time>2026-04-03T12:59:03.571Z</time></trkpt><trkpt lat="44.3785117" lon="11.0367883"><ele>621.0</ele><time>2026-04-03T12:59:04.571Z</time></trkpt><trkpt lat="44.3784133" lon="11.036885"><ele>621.0</ele><time>2026-04-03T12:59:05.571Z</time></trkpt><trkpt lat="44.378315" lon="11.0369833"><ele>621.0</ele><time>2026-04-03T12:59:06.569Z</time></trkpt><trkpt lat="44.37822" lon="11.0370683"><ele>621.0</ele><time>2026-04-03T12:59:07.575Z</time></trkpt><trkpt lat="44.378125" lon="11.03714"><ele>621.0</ele><time>2026-04-03T12:59:08.571Z</time></trkpt><trkpt lat="44.378015" lon="11.0371833"><ele>623.0</ele><time>2026-04-03T12:59:09.568Z</time></trkpt><trkpt lat="44.3779017" lon="11.0371933"><ele>625.0</ele><time>2026-04-03T12:59:10.572Z</time></trkpt><trkpt lat="44.37779" lon="11.0371667"><ele>627.0</ele><time>2026-04-03T12:59:11.576Z</time></trkpt><trkpt lat="44.3776783" lon="11.0371117"><ele>629.0</ele><time>2026-04-03T12:59:12.579Z</time></trkpt><trkpt lat="44.37756" lon="11.0370517"><ele>629.0</ele><time>2026-04-03T12:59:13.572Z</time></trkpt><trkpt lat="44.3774467" lon="11.03698"><ele>629.0</ele><time>2026-04-03T12:59:14.58Z</time></trkpt><trkpt lat="44.3773367" lon="11.0369"><ele>629.0</ele><time>2026-04-03T12:59:15.57Z</time></trkpt><trkpt lat="44.3772333" lon="11.03682"><ele>629.0</ele><time>2026-04-03T12:59:16.569Z</time></trkpt><trkpt lat="44.377135" lon="11.03674"><ele>632.0</ele><time>2026-04-03T12:59:17.574Z</time></trkpt><trkpt lat="44.3770467" lon="11.0366533"><ele>635.0</ele><time>2026-04-03T12:59:18.568Z</time></trkpt><trkpt lat="44.376975" lon="11.0365533"><ele>638.0</ele><time>2026-04-03T12:59:19.574Z</time></trkpt><trkpt lat="44.3769283" lon="11.0364317"><ele>641.0</ele><time>2026-04-03T12:59:20.571Z</time></trkpt><trkpt lat="44.3769133" lon="11.0362933"><ele>644.0</ele><time>2026-04-03T12:59:21.572Z</time></trkpt><trkpt lat="44.3769267" lon="11.036155"><ele>644.0</ele><time>2026-04-03T12:59:22.574Z</time></trkpt><trkpt lat="44.3769683" lon="11.0360333"><ele>644.0</ele><time>2026-04-03T12:59:23.572Z</time></trkpt><trkpt lat="44.377025" lon="11.0359267"><ele>644.0</ele><time>2026-04-03T12:59:24.573Z</time></trkpt><trkpt lat="44.3770717" lon="11.0358183"><ele>644.0</ele><time>2026-04-03T12:59:25.571Z</time></trkpt><trkpt lat="44.3771" lon="11.0357"><ele>644.0</ele><time>2026-04-03T12:59:26.577Z</time></trkpt><trkpt lat="44.3771" lon="11.0355617"><ele>643.8333333333333</ele><time>2026-04-03T12:59:27.576Z</time></trkpt><trkpt lat="44.37709" lon="11.03543"><ele>643.6666666666666</ele><time>2026-04-03T12:59:28.57Z</time></trkpt><trkpt lat="44.3770633" lon="11.0353167"><ele>643.5</ele><time>2026-04-03T12:59:29.571Z</time></trkpt><trkpt lat="44.3770233" lon="11.035225"><ele>643.3333333333334</ele><time>2026-04-03T12:59:30.573Z</time></trkpt><trkpt lat="44.3769667" lon="11.0351433"><ele>643.1666666666667</ele><time>2026-04-03T12:59:31.574Z</time></trkpt><trkpt lat="44.3768883" lon="11.0350833"><ele>643.0</ele><time>2026-04-03T12:59:32.569Z</time></trkpt><trkpt lat="44.3768017" lon="11.0350567"><ele>643.0</ele><time>2026-04-03T12:59:33.567Z</time></trkpt><trkpt lat="44.3767167" lon="11.035045"><ele>643.0</ele><time>2026-04-03T12:59:34.572Z</time></trkpt><trkpt lat="44.376645" lon="11.0350317"><ele>643.0</ele><time>2026-04-03T12:59:35.572Z</time></trkpt><trkpt lat="44.37654" lon="11.03504"><ele>643.0</ele><time>2026-04-03T12:59:37.572Z</time></trkpt><trkpt lat="44.3765633" lon="11.0351367"><ele>643.0</ele><time>2026-04-03T12:59:39.578Z</time></trkpt><trkpt lat="44.3766883" lon="11.0352567"><ele>643.0</ele><time>2026-04-03T12:59:41.572Z</time></trkpt><trkpt lat="44.376735" lon="11.0353317"><ele>643.0</ele><time>2026-04-03T12:59:42.57Z</time></trkpt><trkpt lat="44.3767617" lon="11.0354133"><ele>643.0</ele><time>2026-04-03T12:59:43.573Z</time></trkpt><trkpt lat="44.3767467" lon="11.035505"><ele>643.0</ele><time>2026-04-03T12:59:44.572Z</time></trkpt><trkpt lat="44.376705" lon="11.0355983"><ele>643.0</ele><time>2026-04-03T12:59:45.57Z</time></trkpt><trkpt lat="44.3766467" lon="11.035695"><ele>643.0</ele><time>2026-04-03T12:59:46.567Z</time></trkpt><trkpt lat="44.3765833" lon="11.0357967"><ele>643.1666666666667</ele><time>2026-04-03T12:59:47.571Z</time></trkpt><trkpt lat="44.3765233" lon="11.0358883"><ele>643.3333333333334</ele><time>2026-04-03T12:59:48.573Z</time></trkpt><trkpt lat="44.3764683" lon="11.0359717"><ele>643.5</ele><time>2026-04-03T12:59:49.573Z</time></trkpt><trkpt lat="44.3764233" lon="11.03604"><ele>643.6666666666666</ele><time>2026-04-03T12:59:50.572Z</time></trkpt><trkpt lat="44.3763433" lon="11.03611"><ele>643.8333333333333</ele><time>2026-04-03T12:59:52.574Z</time></trkpt><trkpt lat="44.3762783" lon="11.03605"><ele>644.0</ele><time>2026-04-03T12:59:54.572Z</time></trkpt><trkpt lat="44.37625" lon="11.03587"><ele>646.2857142857143</ele><time>2026-04-03T12:59:56.573Z</time></trkpt><trkpt lat="44.3762333" lon="11.03576"><ele>648.5714285714286</ele><time>2026-04-03T12:59:57.573Z</time></trkpt><trkpt lat="44.3762033" lon="11.0356483"><ele>650.8571428571429</ele><time>2026-04-03T12:59:58.573Z</time></trkpt><trkpt lat="44.3761733" lon="11.03556"><ele>653.1428571428571</ele><time>2026-04-03T12:59:59.568Z</time></trkpt><trkpt lat="44.3761483" lon="11.0354767"><ele>655.4285714285714</ele><time>2026-04-03T13:00:00.571Z</time></trkpt><trkpt lat="44.3761133" lon="11.0353933"><ele>657.7142857142858</ele><time>2026-04-03T13:00:01.569Z</time></trkpt><trkpt lat="44.3760703" lon="11.0352999"><ele>660.0</ele><time>2026-04-03T13:00:02.576Z</time></trkpt><trkpt lat="44.3760268" lon="11.0352061"><ele>660.0</ele><time>2026-04-03T13:00:03.568Z</time></trkpt><trkpt lat="44.3759867" lon="11.0351156"><ele>660.0</ele><time>2026-04-03T13:00:04.568Z</time></trkpt><trkpt lat="44.3759479" lon="11.0350218"><ele>660.0</ele><time>2026-04-03T13:00:05.567Z</time></trkpt><trkpt lat="44.3759129" lon="11.0349247"><ele>660.0</ele><time>2026-04-03T13:00:06.572Z</time></trkpt><trkpt lat="44.3758808" lon="11.03483"><ele>660.0</ele><time>2026-04-03T13:00:07.574Z</time></trkpt><trkpt lat="44.3758576" lon="11.0347263"><ele>660.0</ele><time>2026-04-03T13:00:08.578Z</time></trkpt><trkpt lat="44.3758352" lon="11.0346181"><ele>661.3333333333334</ele><time>2026-04-03T13:00:09.572Z</time></trkpt><trkpt lat="44.3758043" lon="11.034514"><ele>662.6666666666666</ele><time>2026-04-03T13:00:10.575Z</time></trkpt><trkpt lat="44.3757681" lon="11.0344204"><ele>664.0</ele><time>2026-04-03T13:00:11.58Z</time></trkpt><trkpt lat="44.3757289" lon="11.0343348"><ele>665.3333333333333</ele><time>2026-04-03T13:00:12.572Z</time></trkpt><trkpt lat="44.3756974" lon="11.0342462"><ele>666.6666666666666</ele><time>2026-04-03T13:00:13.573Z</time></trkpt><trkpt lat="44.3756714" lon="11.0341483"><ele>668.0</ele><time>2026-04-03T13:00:14.575Z</time></trkpt><trkpt lat="44.3756373" lon="11.0340443"><ele>668.3333333333333</ele><time>2026-04-03T13:00:15.573Z</time></trkpt><trkpt lat="44.3755988" lon="11.0339416"><ele>668.6666666666666</ele><time>2026-04-03T13:00:16.569Z</time></trkpt><trkpt lat="44.3755549" lon="11.0338461"><ele>669.0</ele><time>2026-04-03T13:00:17.572Z</time></trkpt><trkpt lat="44.3755092" lon="11.0337465"><ele>669.3333333333334</ele><time>2026-04-03T13:00:18.572Z</time></trkpt><trkpt lat="44.3754587" lon="11.0336493"><ele>669.6666666666667</ele><time>2026-04-03T13:00:19.573Z</time></trkpt><trkpt lat="44.3754048" lon="11.0335497"><ele>670.0</ele><time>2026-04-03T13:00:20.575Z</time></trkpt><trkpt lat="44.3753537" lon="11.0334406"><ele>670.6666666666667</ele><time>2026-04-03T13:00:21.572Z</time></trkpt><trkpt lat="44.3753069" lon="11.03333"><ele>671.3333333333334</ele><time>2026-04-03T13:00:22.58Z</time></trkpt><trkpt lat="44.3752639" lon="11.0332314"><ele>672.0</ele><time>2026-04-03T13:00:23.572Z</time></trkpt><trkpt lat="44.3752205" lon="11.0331453"><ele>672.6666666666666</ele><time>2026-04-03T13:00:24.573Z</time></trkpt><trkpt lat="44.3751762" lon="11.0330689"><ele>673.3333333333333</ele><time>2026-04-03T13:00:25.572Z</time></trkpt><trkpt lat="44.3751337" lon="11.0329839"><ele>674.0</ele><time>2026-04-03T13:00:26.573Z</time></trkpt><trkpt lat="44.3750944" lon="11.0329065"><ele>674.0</ele><time>2026-04-03T13:00:27.572Z</time></trkpt><trkpt lat="44.3750264" lon="11.0327815"><ele>674.0</ele><time>2026-04-03T13:00:29.574Z</time></trkpt><trkpt lat="44.3749835" lon="11.0326469"><ele>674.0</ele><time>2026-04-03T13:00:31.573Z</time></trkpt><trkpt lat="44.3749364" lon="11.032523"><ele>674.0</ele><time>2026-04-03T13:00:33.577Z</time></trkpt><trkpt lat="44.3748616" lon="11.032398"><ele>674.0</ele><time>2026-04-03T13:00:35.575Z</time></trkpt><trkpt lat="44.3747992" lon="11.0322521"><ele>673.6</ele><time>2026-04-03T13:00:37.568Z</time></trkpt><trkpt lat="44.374775" lon="11.0321552"><ele>673.2</ele><time>2026-04-03T13:00:38.574Z</time></trkpt><trkpt lat="44.3747503" lon="11.0320336"><ele>672.8000000000001</ele><time>2026-04-03T13:00:39.57Z</time></trkpt><trkpt lat="44.3747159" lon="11.0319058"><ele>672.4000000000001</ele><time>2026-04-03T13:00:40.571Z</time></trkpt><trkpt lat="44.3746586" lon="11.0317859"><ele>672.0</ele><time>2026-04-03T13:00:41.572Z</time></trkpt><trkpt lat="44.3745878" lon="11.0316822"><ele>674.2</ele><time>2026-04-03T13:00:42.57Z</time></trkpt><trkpt lat="44.3745115" lon="11.0315946"><ele>676.4000000000001</ele><time>2026-04-03T13:00:43.577Z</time></trkpt><trkpt lat="44.3744295" lon="11.0315195"><ele>678.5999999999999</ele><time>2026-04-03T13:00:44.572Z</time></trkpt><trkpt lat="44.3743439" lon="11.0314458"><ele>680.8</ele><time>2026-04-03T13:00:45.568Z</time></trkpt><trkpt lat="44.3742593" lon="11.031371"><ele>683.0</ele><time>2026-04-03T13:00:46.572Z</time></trkpt><trkpt lat="44.3741772" lon="11.0312953"><ele>683.0</ele><time>2026-04-03T13:00:47.572Z</time></trkpt><trkpt lat="44.3740968" lon="11.0312205"><ele>683.0</ele><time>2026-04-03T13:00:48.572Z</time></trkpt><trkpt lat="44.3740193" lon="11.0311431"><ele>683.0</ele><time>2026-04-03T13:00:49.571Z</time></trkpt><trkpt lat="44.3739522" lon="11.0310594"><ele>683.0</ele><time>2026-04-03T13:00:50.579Z</time></trkpt><trkpt lat="44.3738972" lon="11.0309675"><ele>683.0</ele><time>2026-04-03T13:00:51.579Z</time></trkpt><trkpt lat="44.3738394" lon="11.0308749"><ele>685.2</ele><time>2026-04-03T13:00:52.574Z</time></trkpt><trkpt lat="44.3737776" lon="11.0307851"><ele>687.4</ele><time>2026-04-03T13:00:53.574Z</time></trkpt><trkpt lat="44.3737202" lon="11.0306906"><ele>689.6</ele><time>2026-04-03T13:00:54.569Z</time></trkpt><trkpt lat="44.3736625" lon="11.0305772"><ele>691.8000000000001</ele><time>2026-04-03T13:00:55.568Z</time></trkpt><trkpt lat="44.3736058" lon="11.0304486"><ele>694.0</ele><time>2026-04-03T13:00:56.58Z</time></trkpt><trkpt lat="44.3735592" lon="11.0303148"><ele>694.0</ele><time>2026-04-03T13:00:57.572Z</time></trkpt><trkpt lat="44.3735236" lon="11.030182"><ele>694.0</ele><time>2026-04-03T13:00:58.575Z</time></trkpt><trkpt lat="44.3734956" lon="11.0300554"><ele>694.0</ele><time>2026-04-03T13:00:59.573Z</time></trkpt><trkpt lat="44.3734743" lon="11.0299253"><ele>694.0</ele><time>2026-04-03T13:01:00.571Z</time></trkpt><trkpt lat="44.373459" lon="11.0297964"><ele>694.0</ele><time>2026-04-03T13:01:01.574Z</time></trkpt><trkpt lat="44.3734583" lon="11.0296639"><ele>694.6</ele><time>2026-04-03T13:01:02.57Z</time></trkpt><trkpt lat="44.3734778" lon="11.0295283"><ele>695.2</ele><time>2026-04-03T13:01:03.572Z</time></trkpt><trkpt lat="44.3735161" lon="11.0293872"><ele>695.8000000000001</ele><time>2026-04-03T13:01:04.568Z</time></trkpt><trkpt lat="44.3735518" lon="11.0292466"><ele>696.4000000000001</ele><time>2026-04-03T13:01:05.576Z</time></trkpt><trkpt lat="44.373573" lon="11.0291062"><ele>697.0</ele><time>2026-04-03T13:01:06.574Z</time></trkpt><trkpt lat="44.3735754" lon="11.028966"><ele>697.6</ele><time>2026-04-03T13:01:07.574Z</time></trkpt><trkpt lat="44.373568" lon="11.0288264"><ele>698.2</ele><time>2026-04-03T13:01:08.57Z</time></trkpt><trkpt lat="44.3735585" lon="11.0286767"><ele>698.8</ele><time>2026-04-03T13:01:09.568Z</time></trkpt><trkpt lat="44.3735523" lon="11.028526"><ele>699.4</ele><time>2026-04-03T13:01:10.572Z</time></trkpt><trkpt lat="44.3735519" lon="11.02838"><ele>700.0</ele><time>2026-04-03T13:01:11.57Z</time></trkpt><trkpt lat="44.3735626" lon="11.0282372"><ele>700.6</ele><time>2026-04-03T13:01:12.573Z</time></trkpt><trkpt lat="44.373574" lon="11.0280958"><ele>701.2</ele><time>2026-04-03T13:01:13.571Z</time></trkpt><trkpt lat="44.3735856" lon="11.0279569"><ele>701.8</ele><time>2026-04-03T13:01:14.571Z</time></trkpt><trkpt lat="44.3736003" lon="11.0278205"><ele>702.4</ele><time>2026-04-03T13:01:15.572Z</time></trkpt><trkpt lat="44.3736235" lon="11.0276872"><ele>703.0</ele><time>2026-04-03T13:01:16.567Z</time></trkpt><trkpt lat="44.3736464" lon="11.0275595"><ele>704.0</ele><time>2026-04-03T13:01:17.57Z</time></trkpt><trkpt lat="44.37367" lon="11.0274404"><ele>705.0</ele><time>2026-04-03T13:01:18.573Z</time></trkpt><trkpt lat="44.3736908" lon="11.0273325"><ele>706.0</ele><time>2026-04-03T13:01:19.579Z</time></trkpt><trkpt lat="44.3737098" lon="11.0272448"><ele>707.0</ele><time>2026-04-03T13:01:20.579Z</time></trkpt><trkpt lat="44.3737576" lon="11.0271012"><ele>708.0</ele><time>2026-04-03T13:01:22.572Z</time></trkpt><trkpt lat="44.3737807" lon="11.0269486"><ele>708.0</ele><time>2026-04-03T13:01:24.572Z</time></trkpt><trkpt lat="44.3737823" lon="11.0268571"><ele>708.0</ele><time>2026-04-03T13:01:25.572Z</time></trkpt><trkpt lat="44.3737793" lon="11.0267589"><ele>708.0</ele><time>2026-04-03T13:01:26.575Z</time></trkpt><trkpt lat="44.3737857" lon="11.0266498"><ele>708.0</ele><time>2026-04-03T13:01:27.572Z</time></trkpt><trkpt lat="44.3737948" lon="11.0265406"><ele>708.0</ele><time>2026-04-03T13:01:28.577Z</time></trkpt><trkpt lat="44.3738063" lon="11.0264129"><ele>708.0</ele><time>2026-04-03T13:01:29.571Z</time></trkpt><trkpt lat="44.3738107" lon="11.0262783"><ele>708.5</ele><time>2026-04-03T13:01:30.572Z</time></trkpt><trkpt lat="44.3738112" lon="11.0261534"><ele>709.0</ele><time>2026-04-03T13:01:31.572Z</time></trkpt><trkpt lat="44.3738178" lon="11.0260396"><ele>709.5</ele><time>2026-04-03T13:01:32.572Z</time></trkpt><trkpt lat="44.3738316" lon="11.0259294"><ele>710.0</ele><time>2026-04-03T13:01:33.576Z</time></trkpt><trkpt lat="44.3738439" lon="11.0258106"><ele>710.5</ele><time>2026-04-03T13:01:34.57Z</time></trkpt><trkpt lat="44.3738412" lon="11.0256974"><ele>711.0</ele><time>2026-04-03T13:01:35.568Z</time></trkpt><trkpt lat="44.3738307" lon="11.0255925"><ele>712.1666666666666</ele><time>2026-04-03T13:01:36.571Z</time></trkpt><trkpt lat="44.3738252" lon="11.0255024"><ele>713.3333333333334</ele><time>2026-04-03T13:01:37.568Z</time></trkpt><trkpt lat="44.3738093" lon="11.0253485"><ele>714.5</ele><time>2026-04-03T13:01:39.577Z</time></trkpt><trkpt lat="44.3737917" lon="11.0252586"><ele>715.6666666666667</ele><time>2026-04-03T13:01:40.568Z</time></trkpt><trkpt lat="44.3737769" lon="11.0251515"><ele>716.8333333333334</ele><time>2026-04-03T13:01:41.571Z</time></trkpt><trkpt lat="44.3737733" lon="11.0250417"><ele>718.0</ele><time>2026-04-03T13:01:42.573Z</time></trkpt><trkpt lat="44.3737717" lon="11.0249433"><ele>719.2857142857143</ele><time>2026-04-03T13:01:43.574Z</time></trkpt><trkpt lat="44.3737717" lon="11.0248433"><ele>720.5714285714287</ele><time>2026-04-03T13:01:44.573Z</time></trkpt><trkpt lat="44.3737717" lon="11.0247467"><ele>721.8571428571429</ele><time>2026-04-03T13:01:45.572Z</time></trkpt><trkpt lat="44.37377" lon="11.0246417"><ele>723.1428571428571</ele><time>2026-04-03T13:01:46.574Z</time></trkpt><trkpt lat="44.3737583" lon="11.024535"><ele>724.4285714285714</ele><time>2026-04-03T13:01:47.571Z</time></trkpt><trkpt lat="44.37375" lon="11.0244383"><ele>725.7142857142857</ele><time>2026-04-03T13:01:48.573Z</time></trkpt><trkpt lat="44.3737483" lon="11.0243433"><ele>727.0</ele><time>2026-04-03T13:01:49.573Z</time></trkpt><trkpt lat="44.37376" lon="11.0241967"><ele>729.8333333333334</ele><time>2026-04-03T13:01:51.575Z</time></trkpt><trkpt lat="44.3737917" lon="11.0240717"><ele>732.6666666666667</ele><time>2026-04-03T13:01:53.571Z</time></trkpt><trkpt lat="44.37381" lon="11.0239517"><ele>735.5</ele><time>2026-04-03T13:01:55.573Z</time></trkpt><trkpt lat="44.3738203" lon="11.0238372"><ele>738.3333333333334</ele><time>2026-04-03T13:01:58.578Z</time></trkpt><trkpt lat="44.3738279" lon="11.0237442"><ele>741.1666666666666</ele><time>2026-04-03T13:02:05.573Z</time></trkpt><trkpt lat="44.3738334" lon="11.0236526"><ele>744.0</ele><time>2026-04-03T13:02:08.566Z</time></trkpt><trkpt lat="44.3738574" lon="11.0235391"><ele>744.0</ele><time>2026-04-03T13:02:12.482Z</time></trkpt><trkpt lat="44.3738179" lon="11.0234566"><ele>744.0</ele><time>2026-04-03T13:02:14.38Z</time></trkpt><trkpt lat="44.3737922" lon="11.0232948"><ele>744.0</ele><time>2026-04-03T13:02:16.568Z</time></trkpt><trkpt lat="44.3737767" lon="11.0232031"><ele>744.0</ele><time>2026-04-03T13:02:17.569Z</time></trkpt><trkpt lat="44.3737587" lon="11.0230671"><ele>744.0</ele><time>2026-04-03T13:02:19.573Z</time></trkpt><trkpt lat="44.3737167" lon="11.0229283"><ele>745.5</ele><time>2026-04-03T13:05:02.57Z</time></trkpt><trkpt lat="44.37369" lon="11.02282"><ele>747.0</ele><time>2026-04-03T13:05:04.575Z</time></trkpt><trkpt lat="44.3736617" lon="11.0227183"><ele>748.5</ele><time>2026-04-03T13:05:06.575Z</time></trkpt><trkpt lat="44.3736217" lon="11.02262"><ele>750.0</ele><time>2026-04-03T13:05:08.57Z</time></trkpt><trkpt lat="44.3735617" lon="11.022525"><ele>751.5</ele><time>2026-04-03T13:05:10.57Z</time></trkpt><trkpt lat="44.3734683" lon="11.0224583"><ele>753.0</ele><time>2026-04-03T13:05:12.569Z</time></trkpt><trkpt lat="44.3733883" lon="11.0224167"><ele>753.0</ele><time>2026-04-03T13:05:14.577Z</time></trkpt><trkpt lat="44.3733021" lon="11.0224503"><ele>753.0</ele><time>2026-04-03T13:05:17.572Z</time></trkpt><trkpt lat="44.3732079" lon="11.0224103"><ele>753.0</ele><time>2026-04-03T13:05:19.586Z</time></trkpt><trkpt lat="44.3731433" lon="11.0224333"><ele>753.0</ele><time>2026-04-03T13:05:21.57Z</time></trkpt><trkpt lat="44.3730783" lon="11.0224667"><ele>753.0</ele><time>2026-04-03T13:05:23.574Z</time></trkpt><trkpt lat="44.3729967" lon="11.02247"><ele>753.0</ele><time>2026-04-03T13:05:26.573Z</time></trkpt><trkpt lat="44.3729183" lon="11.0225133"><ele>749.6666666666666</ele><time>2026-04-03T13:05:30.567Z</time></trkpt><trkpt lat="44.37285" lon="11.02258"><ele>746.3333333333334</ele><time>2026-04-03T13:05:33.569Z</time></trkpt><trkpt lat="44.37279" lon="11.0226267"><ele>743.0</ele><time>2026-04-03T13:05:36.572Z</time></trkpt><trkpt lat="44.37272" lon="11.0226783"><ele>739.6666666666667</ele><time>2026-04-03T13:05:39.57Z</time></trkpt><trkpt lat="44.3726367" lon="11.022715"><ele>736.3333333333334</ele><time>2026-04-03T13:05:43.573Z</time></trkpt><trkpt lat="44.3725783" lon="11.0227517"><ele>733.0</ele><time>2026-04-03T13:05:45.574Z</time></trkpt><trkpt lat="44.37251" lon="11.0227917"><ele>733.0</ele><time>2026-04-03T13:05:47.573Z</time></trkpt><trkpt lat="44.37245" lon="11.0228367"><ele>733.0</ele><time>2026-04-03T13:05:49.569Z</time></trkpt><trkpt lat="44.372385" lon="11.0228717"><ele>733.0</ele><time>2026-04-03T13:05:51.571Z</time></trkpt><trkpt lat="44.3723117" lon="11.022905"><ele>733.0</ele><time>2026-04-03T13:05:53.573Z</time></trkpt><trkpt lat="44.3722417" lon="11.0229017"><ele>733.0</ele><time>2026-04-03T13:05:55.57Z</time></trkpt><trkpt lat="44.3721583" lon="11.0228783"><ele>733.0</ele><time>2026-04-03T13:05:58.571Z</time></trkpt><trkpt lat="44.3720717" lon="11.022875"><ele>729.0</ele><time>2026-04-03T13:06:01.572Z</time></trkpt><trkpt lat="44.3719817" lon="11.0228733"><ele>725.0</ele><time>2026-04-03T13:06:04.57Z</time></trkpt><trkpt lat="44.3718933" lon="11.022875"><ele>721.0</ele><time>2026-04-03T13:06:07.576Z</time></trkpt><trkpt lat="44.37183" lon="11.0228383"><ele>717.0</ele><time>2026-04-03T13:06:10.567Z</time></trkpt><trkpt lat="44.371825" lon="11.02274"><ele>713.0</ele><time>2026-04-03T13:06:13.574Z</time></trkpt><trkpt lat="44.3718683" lon="11.0226233"><ele>709.0</ele><time>2026-04-03T13:06:16.574Z</time></trkpt><trkpt lat="44.3719167" lon="11.02254"><ele>707.8333333333334</ele><time>2026-04-03T13:06:18.572Z</time></trkpt><trkpt lat="44.3719717" lon="11.022465"><ele>706.6666666666667</ele><time>2026-04-03T13:06:20.569Z</time></trkpt><trkpt lat="44.372025" lon="11.0223933"><ele>705.5</ele><time>2026-04-03T13:06:22.568Z</time></trkpt><trkpt lat="44.3720615" lon="11.0223034"><ele>704.3333333333334</ele><time>2026-04-03T13:06:24.495Z</time></trkpt><trkpt lat="44.3720882" lon="11.0221506"><ele>703.1666666666666</ele><time>2026-04-03T13:06:26.569Z</time></trkpt><trkpt lat="44.3721194" lon="11.0220133"><ele>702.0</ele><time>2026-04-03T13:06:28.511Z</time></trkpt><trkpt lat="44.3721307" lon="11.0219228"><ele>702.0</ele><time>2026-04-03T13:06:29.572Z</time></trkpt><trkpt lat="44.3721545" lon="11.0217723"><ele>702.0</ele><time>2026-04-03T13:06:31.572Z</time></trkpt><trkpt lat="44.37215" lon="11.0216017"><ele>702.0</ele><time>2026-04-03T13:06:33.571Z</time></trkpt><trkpt lat="44.3721467" lon="11.0214317"><ele>702.0</ele><time>2026-04-03T13:06:35.574Z</time></trkpt><trkpt lat="44.3721417" lon="11.021275"><ele>702.6666666666666</ele><time>2026-04-03T13:06:37.57Z</time></trkpt><trkpt lat="44.37215" lon="11.021125"><ele>703.3333333333334</ele><time>2026-04-03T13:06:39.574Z</time></trkpt><trkpt lat="44.3721817" lon="11.0209567"><ele>704.0</ele><time>2026-04-03T13:06:41.573Z</time></trkpt><trkpt lat="44.3721833" lon="11.0208533"><ele>704.6666666666667</ele><time>2026-04-03T13:06:42.57Z</time></trkpt><trkpt lat="44.3721967" lon="11.0207517"><ele>705.3333333333334</ele><time>2026-04-03T13:06:43.572Z</time></trkpt><trkpt lat="44.372215" lon="11.0206617"><ele>706.0</ele><time>2026-04-03T13:06:44.576Z</time></trkpt><trkpt lat="44.37224" lon="11.0205733"><ele>706.0</ele><time>2026-04-03T13:06:45.568Z</time></trkpt><trkpt lat="44.37227" lon="11.0204817"><ele>706.0</ele><time>2026-04-03T13:06:46.573Z</time></trkpt><trkpt lat="44.3723133" lon="11.0204"><ele>706.0</ele><time>2026-04-03T13:06:47.57Z</time></trkpt><trkpt lat="44.3723617" lon="11.02032"><ele>706.0</ele><time>2026-04-03T13:06:48.571Z</time></trkpt><trkpt lat="44.37241" lon="11.0202467"><ele>706.0</ele><time>2026-04-03T13:06:49.575Z</time></trkpt><trkpt lat="44.3724583" lon="11.0201617"><ele>706.0</ele><time>2026-04-03T13:06:50.575Z</time></trkpt><trkpt lat="44.3725067" lon="11.0200733"><ele>706.0</ele><time>2026-04-03T13:06:51.57Z</time></trkpt><trkpt lat="44.3725583" lon="11.019975"><ele>704.6666666666667</ele><time>2026-04-03T13:06:52.569Z</time></trkpt><trkpt lat="44.372615" lon="11.0198817"><ele>703.3333333333334</ele><time>2026-04-03T13:06:53.571Z</time></trkpt><trkpt lat="44.3726733" lon="11.0197817"><ele>702.0</ele><time>2026-04-03T13:06:54.574Z</time></trkpt><trkpt lat="44.3727217" lon="11.01968"><ele>700.6666666666666</ele><time>2026-04-03T13:06:55.57Z</time></trkpt><trkpt lat="44.3727583" lon="11.0195817"><ele>699.3333333333333</ele><time>2026-04-03T13:06:56.57Z</time></trkpt><trkpt lat="44.3727917" lon="11.0194867"><ele>698.0</ele><time>2026-04-03T13:06:57.574Z</time></trkpt><trkpt lat="44.3728317" lon="11.0193917"><ele>698.0</ele><time>2026-04-03T13:06:58.574Z</time></trkpt><trkpt lat="44.3728867" lon="11.0192983"><ele>698.0</ele><time>2026-04-03T13:06:59.566Z</time></trkpt><trkpt lat="44.37295" lon="11.01921"><ele>698.0</ele><time>2026-04-03T13:07:00.567Z</time></trkpt><trkpt lat="44.37302" lon="11.0191283"><ele>698.0</ele><time>2026-04-03T13:07:01.566Z</time></trkpt><trkpt lat="44.3730817" lon="11.0190533"><ele>698.0</ele><time>2026-04-03T13:07:02.57Z</time></trkpt><trkpt lat="44.37314" lon="11.0189767"><ele>698.0</ele><time>2026-04-03T13:07:03.568Z</time></trkpt><trkpt lat="44.3732033" lon="11.01891"><ele>699.0</ele><time>2026-04-03T13:07:04.572Z</time></trkpt><trkpt lat="44.3732667" lon="11.0188517"><ele>700.0</ele><time>2026-04-03T13:07:05.57Z</time></trkpt><trkpt lat="44.3733317" lon="11.0187983"><ele>701.0</ele><time>2026-04-03T13:07:06.571Z</time></trkpt><trkpt lat="44.3734017" lon="11.0187367"><ele>702.0</ele><time>2026-04-03T13:07:07.574Z</time></trkpt><trkpt lat="44.3734817" lon="11.0186817"><ele>703.0</ele><time>2026-04-03T13:07:08.571Z</time></trkpt><trkpt lat="44.3735483" lon="11.01863"><ele>704.0</ele><time>2026-04-03T13:07:09.573Z</time></trkpt><trkpt lat="44.3736067" lon="11.0185717"><ele>704.0</ele><time>2026-04-03T13:07:10.568Z</time></trkpt><trkpt lat="44.373665" lon="11.01851"><ele>704.0</ele><time>2026-04-03T13:07:11.578Z</time></trkpt><trkpt lat="44.3737117" lon="11.0184483"><ele>704.0</ele><time>2026-04-03T13:07:12.569Z</time></trkpt><trkpt lat="44.3737617" lon="11.0183817"><ele>704.0</ele><time>2026-04-03T13:07:13.575Z</time></trkpt><trkpt lat="44.3738117" lon="11.01831"><ele>704.0</ele><time>2026-04-03T13:07:14.569Z</time></trkpt><trkpt lat="44.3738617" lon="11.0182383"><ele>704.0</ele><time>2026-04-03T13:07:15.568Z</time></trkpt><trkpt lat="44.3739083" lon="11.018155"><ele>704.0</ele><time>2026-04-03T13:07:16.575Z</time></trkpt><trkpt lat="44.3739533" lon="11.0180583"><ele>704.5</ele><time>2026-04-03T13:07:17.57Z</time></trkpt><trkpt lat="44.373995" lon="11.0179533"><ele>705.0</ele><time>2026-04-03T13:07:18.576Z</time></trkpt><trkpt lat="44.374025" lon="11.0178433"><ele>705.5</ele><time>2026-04-03T13:07:19.572Z</time></trkpt><trkpt lat="44.3740483" lon="11.0177417"><ele>706.0</ele><time>2026-04-03T13:07:20.572Z</time></trkpt><trkpt lat="44.37407" lon="11.017655"><ele>706.5</ele><time>2026-04-03T13:07:21.578Z</time></trkpt><trkpt lat="44.37409" lon="11.0175683"><ele>707.0</ele><time>2026-04-03T13:07:22.569Z</time></trkpt><trkpt lat="44.37416" lon="11.0174183"><ele>707.0</ele><time>2026-04-03T13:07:24.57Z</time></trkpt><trkpt lat="44.3742067" lon="11.01734"><ele>707.0</ele><time>2026-04-03T13:07:25.571Z</time></trkpt><trkpt lat="44.3742483" lon="11.0172733"><ele>707.0</ele><time>2026-04-03T13:07:26.57Z</time></trkpt><trkpt lat="44.3743267" lon="11.0171767"><ele>707.0</ele><time>2026-04-03T13:07:28.568Z</time></trkpt><trkpt lat="44.37439" lon="11.0170967"><ele>707.0</ele><time>2026-04-03T13:07:30.569Z</time></trkpt><trkpt lat="44.3744333" lon="11.0169817"><ele>707.0</ele><time>2026-04-03T13:07:32.572Z</time></trkpt><trkpt lat="44.3744217" lon="11.0168117"><ele>707.0</ele><time>2026-04-03T13:07:34.568Z</time></trkpt><trkpt lat="44.3744283" lon="11.0167033"><ele>707.0</ele><time>2026-04-03T13:07:35.578Z</time></trkpt><trkpt lat="44.3744417" lon="11.0165983"><ele>707.0</ele><time>2026-04-03T13:07:36.57Z</time></trkpt><trkpt lat="44.3744567" lon="11.0165033"><ele>707.0</ele><time>2026-04-03T13:07:37.578Z</time></trkpt><trkpt lat="44.374475" lon="11.0164117"><ele>707.0</ele><time>2026-04-03T13:07:38.571Z</time></trkpt><trkpt lat="44.374515" lon="11.0162683"><ele>707.0</ele><time>2026-04-03T13:07:40.574Z</time></trkpt><trkpt lat="44.3744817" lon="11.01617"><ele>706.3333333333333</ele><time>2026-04-03T13:07:42.572Z</time></trkpt><trkpt lat="44.3743667" lon="11.0161467"><ele>705.6666666666666</ele><time>2026-04-03T13:07:44.577Z</time></trkpt><trkpt lat="44.3742983" lon="11.0161533"><ele>705.0</ele><time>2026-04-03T13:07:45.569Z</time></trkpt><trkpt lat="44.3742283" lon="11.016175"><ele>704.3333333333334</ele><time>2026-04-03T13:07:46.575Z</time></trkpt><trkpt lat="44.3741567" lon="11.0162133"><ele>703.6666666666667</ele><time>2026-04-03T13:07:47.569Z</time></trkpt><trkpt lat="44.3740867" lon="11.016265"><ele>703.0</ele><time>2026-04-03T13:07:48.576Z</time></trkpt><trkpt lat="44.3740217" lon="11.016325"><ele>703.0</ele><time>2026-04-03T13:07:49.57Z</time></trkpt><trkpt lat="44.3739583" lon="11.0163767"><ele>703.0</ele><time>2026-04-03T13:07:50.575Z</time></trkpt><trkpt lat="44.3738933" lon="11.016405"><ele>703.0</ele><time>2026-04-03T13:07:51.572Z</time></trkpt><trkpt lat="44.3738217" lon="11.0164017"><ele>703.0</ele><time>2026-04-03T13:07:52.571Z</time></trkpt><trkpt lat="44.37375" lon="11.0163467"><ele>703.0</ele><time>2026-04-03T13:07:53.574Z</time></trkpt><trkpt lat="44.3736867" lon="11.0162683"><ele>703.0</ele><time>2026-04-03T13:07:54.574Z</time></trkpt><trkpt lat="44.3736233" lon="11.0161967"><ele>700.8333333333334</ele><time>2026-04-03T13:07:55.574Z</time></trkpt><trkpt lat="44.3735517" lon="11.01614"><ele>698.6666666666667</ele><time>2026-04-03T13:07:56.58Z</time></trkpt><trkpt lat="44.3734717" lon="11.0161017"><ele>696.5</ele><time>2026-04-03T13:07:57.569Z</time></trkpt><trkpt lat="44.3733917" lon="11.016065"><ele>694.3333333333334</ele><time>2026-04-03T13:07:58.573Z</time></trkpt><trkpt lat="44.37331" lon="11.0160283"><ele>692.1666666666666</ele><time>2026-04-03T13:07:59.575Z</time></trkpt><trkpt lat="44.3732317" lon="11.01599"><ele>690.0</ele><time>2026-04-03T13:08:00.576Z</time></trkpt><trkpt lat="44.3731517" lon="11.015955"><ele>690.0</ele><time>2026-04-03T13:08:01.571Z</time></trkpt><trkpt lat="44.3730717" lon="11.0159217"><ele>690.0</ele><time>2026-04-03T13:08:02.577Z</time></trkpt><trkpt lat="44.3729917" lon="11.0158883"><ele>690.0</ele><time>2026-04-03T13:08:03.574Z</time></trkpt><trkpt lat="44.3729133" lon="11.015855"><ele>690.0</ele><time>2026-04-03T13:08:04.572Z</time></trkpt><trkpt lat="44.372835" lon="11.0158317"><ele>690.0</ele><time>2026-04-03T13:08:05.574Z</time></trkpt><trkpt lat="44.3727633" lon="11.0158167"><ele>690.0</ele><time>2026-04-03T13:08:06.576Z</time></trkpt><trkpt lat="44.3726933" lon="11.0158117"><ele>687.8333333333334</ele><time>2026-04-03T13:08:07.575Z</time></trkpt><trkpt lat="44.3726283" lon="11.015825"><ele>685.6666666666666</ele><time>2026-04-03T13:08:08.577Z</time></trkpt><trkpt lat="44.37257" lon="11.01586"><ele>683.5</ele><time>2026-04-03T13:08:09.576Z</time></trkpt><trkpt lat="44.3725117" lon="11.01593"><ele>681.3333333333333</ele><time>2026-04-03T13:08:10.579Z</time></trkpt><trkpt lat="44.3724517" lon="11.0160367"><ele>679.1666666666666</ele><time>2026-04-03T13:08:11.571Z</time></trkpt><trkpt lat="44.3723883" lon="11.01614"><ele>677.0</ele><time>2026-04-03T13:08:12.576Z</time></trkpt><trkpt lat="44.3723233" lon="11.0162317"><ele>677.0</ele><time>2026-04-03T13:08:13.57Z</time></trkpt><trkpt lat="44.3722567" lon="11.0162867"><ele>677.0</ele><time>2026-04-03T13:08:14.57Z</time></trkpt><trkpt lat="44.3721767" lon="11.0163033"><ele>677.0</ele><time>2026-04-03T13:08:15.571Z</time></trkpt><trkpt lat="44.372085" lon="11.0162917"><ele>677.0</ele><time>2026-04-03T13:08:16.574Z</time></trkpt><trkpt lat="44.3720017" lon="11.0162883"><ele>677.0</ele><time>2026-04-03T13:08:17.574Z</time></trkpt><trkpt lat="44.3719233" lon="11.0162883"><ele>677.0</ele><time>2026-04-03T13:08:18.571Z</time></trkpt><trkpt lat="44.37184" lon="11.0163133"><ele>676.0</ele><time>2026-04-03T13:08:19.569Z</time></trkpt><trkpt lat="44.3717667" lon="11.0163917"><ele>675.0</ele><time>2026-04-03T13:08:20.574Z</time></trkpt><trkpt lat="44.3716917" lon="11.0164883"><ele>674.0</ele><time>2026-04-03T13:08:21.569Z</time></trkpt><trkpt lat="44.3716217" lon="11.0165833"><ele>673.0</ele><time>2026-04-03T13:08:22.574Z</time></trkpt><trkpt lat="44.3715533" lon="11.01668"><ele>672.0</ele><time>2026-04-03T13:08:23.571Z</time></trkpt><trkpt lat="44.3714883" lon="11.0167717"><ele>672.0</ele><time>2026-04-03T13:08:24.573Z</time></trkpt><trkpt lat="44.3714267" lon="11.0168667"><ele>672.0</ele><time>2026-04-03T13:08:25.566Z</time></trkpt><trkpt lat="44.3713667" lon="11.01696"><ele>672.0</ele><time>2026-04-03T13:08:26.575Z</time></trkpt><trkpt lat="44.371305" lon="11.017045"><ele>672.0</ele><time>2026-04-03T13:08:27.568Z</time></trkpt><trkpt lat="44.3712383" lon="11.017115"><ele>672.0</ele><time>2026-04-03T13:08:28.574Z</time></trkpt><trkpt lat="44.3711733" lon="11.0171817"><ele>672.0</ele><time>2026-04-03T13:08:29.57Z</time></trkpt><trkpt lat="44.3711067" lon="11.0172333"><ele>668.6666666666666</ele><time>2026-04-03T13:08:30.576Z</time></trkpt><trkpt lat="44.37104" lon="11.0172733"><ele>665.3333333333334</ele><time>2026-04-03T13:08:31.571Z</time></trkpt><trkpt lat="44.3709767" lon="11.017305"><ele>662.0</ele><time>2026-04-03T13:08:32.57Z</time></trkpt><trkpt lat="44.3708567" lon="11.017255"><ele>658.6666666666667</ele><time>2026-04-03T13:08:34.571Z</time></trkpt><trkpt lat="44.3707883" lon="11.0171983"><ele>655.3333333333334</ele><time>2026-04-03T13:08:35.572Z</time></trkpt><trkpt lat="44.370715" lon="11.0171333"><ele>652.0</ele><time>2026-04-03T13:08:36.576Z</time></trkpt><trkpt lat="44.370645" lon="11.0170683"><ele>652.0</ele><time>2026-04-03T13:08:37.575Z</time></trkpt><trkpt lat="44.3705833" lon="11.0170083"><ele>652.0</ele><time>2026-04-03T13:08:38.578Z</time></trkpt><trkpt lat="44.3705217" lon="11.0169583"><ele>652.0</ele><time>2026-04-03T13:08:39.575Z</time></trkpt><trkpt lat="44.3704583" lon="11.01692"><ele>652.0</ele><time>2026-04-03T13:08:40.569Z</time></trkpt><trkpt lat="44.3703933" lon="11.0168883"><ele>652.0</ele><time>2026-04-03T13:08:41.571Z</time></trkpt><trkpt lat="44.370325" lon="11.0168767"><ele>652.0</ele><time>2026-04-03T13:08:42.569Z</time></trkpt><trkpt lat="44.3702567" lon="11.0168767"><ele>652.0</ele><time>2026-04-03T13:08:43.568Z</time></trkpt><trkpt lat="44.3701917" lon="11.01687"><ele>649.4285714285714</ele><time>2026-04-03T13:08:44.568Z</time></trkpt><trkpt lat="44.3701267" lon="11.0168433"><ele>646.8571428571428</ele><time>2026-04-03T13:08:45.568Z</time></trkpt><trkpt lat="44.3700617" lon="11.016795"><ele>644.2857142857142</ele><time>2026-04-03T13:08:46.568Z</time></trkpt><trkpt lat="44.37" lon="11.0167317"><ele>641.7142857142858</ele><time>2026-04-03T13:08:47.574Z</time></trkpt><trkpt lat="44.3699367" lon="11.0166733"><ele>639.1428571428571</ele><time>2026-04-03T13:08:48.572Z</time></trkpt><trkpt lat="44.3698717" lon="11.0166183"><ele>636.5714285714286</ele><time>2026-04-03T13:08:49.57Z</time></trkpt><trkpt lat="44.3698083" lon="11.0165617"><ele>634.0</ele><time>2026-04-03T13:08:50.571Z</time></trkpt><trkpt lat="44.3697567" lon="11.0165033"><ele>633.3333333333334</ele><time>2026-04-03T13:08:51.571Z</time></trkpt><trkpt lat="44.369725" lon="11.01642"><ele>632.6666666666667</ele><time>2026-04-03T13:08:53.57Z</time></trkpt><trkpt lat="44.3698017" lon="11.0163367"><ele>632.0</ele><time>2026-04-03T13:08:55.575Z</time></trkpt><trkpt lat="44.3699033" lon="11.0162217"><ele>631.3333333333334</ele><time>2026-04-03T13:08:57.572Z</time></trkpt><trkpt lat="44.369955" lon="11.016145"><ele>630.6666666666666</ele><time>2026-04-03T13:08:58.573Z</time></trkpt><trkpt lat="44.3700067" lon="11.016065"><ele>630.0</ele><time>2026-04-03T13:08:59.574Z</time></trkpt><trkpt lat="44.3700517" lon="11.0159817"><ele>630.0</ele><time>2026-04-03T13:09:00.574Z</time></trkpt><trkpt lat="44.3700933" lon="11.0158983"><ele>630.0</ele><time>2026-04-03T13:09:01.577Z</time></trkpt><trkpt lat="44.3701367" lon="11.0158133"><ele>630.0</ele><time>2026-04-03T13:09:02.576Z</time></trkpt><trkpt lat="44.370185" lon="11.015725"><ele>630.0</ele><time>2026-04-03T13:09:03.576Z</time></trkpt><trkpt lat="44.3702433" lon="11.015645"><ele>630.0</ele><time>2026-04-03T13:09:04.569Z</time></trkpt><trkpt lat="44.3703167" lon="11.0155717"><ele>630.0</ele><time>2026-04-03T13:09:05.577Z</time></trkpt><trkpt lat="44.3704083" lon="11.0155083"><ele>628.4</ele><time>2026-04-03T13:09:06.575Z</time></trkpt><trkpt lat="44.3704983" lon="11.0154533"><ele>626.8</ele><time>2026-04-03T13:09:07.573Z</time></trkpt><trkpt lat="44.3705817" lon="11.0153783"><ele>625.2</ele><time>2026-04-03T13:09:08.571Z</time></trkpt><trkpt lat="44.3706433" lon="11.0152633"><ele>623.6</ele><time>2026-04-03T13:09:09.58Z</time></trkpt><trkpt lat="44.3706933" lon="11.0151317"><ele>622.0</ele><time>2026-04-03T13:09:10.57Z</time></trkpt><trkpt lat="44.3707417" lon="11.015"><ele>623.4</ele><time>2026-04-03T13:09:11.571Z</time></trkpt><trkpt lat="44.3707933" lon="11.0148633"><ele>624.8000000000001</ele><time>2026-04-03T13:09:12.578Z</time></trkpt><trkpt lat="44.3708483" lon="11.014725"><ele>626.2</ele><time>2026-04-03T13:09:13.571Z</time></trkpt><trkpt lat="44.3709017" lon="11.0145883"><ele>627.6</ele><time>2026-04-03T13:09:14.573Z</time></trkpt><trkpt lat="44.3709567" lon="11.0144517"><ele>629.0</ele><time>2026-04-03T13:09:15.569Z</time></trkpt><trkpt lat="44.3710117" lon="11.014315"><ele>629.0</ele><time>2026-04-03T13:09:16.569Z</time></trkpt><trkpt lat="44.3710683" lon="11.0141867"><ele>629.0</ele><time>2026-04-03T13:09:17.568Z</time></trkpt><trkpt lat="44.3711267" lon="11.0140633"><ele>629.0</ele><time>2026-04-03T13:09:18.577Z</time></trkpt><trkpt lat="44.371175" lon="11.013945"><ele>629.0</ele><time>2026-04-03T13:09:19.572Z</time></trkpt><trkpt lat="44.3712067" lon="11.0138117"><ele>629.0</ele><time>2026-04-03T13:09:20.576Z</time></trkpt><trkpt lat="44.3712167" lon="11.0136467"><ele>629.5</ele><time>2026-04-03T13:09:21.565Z</time></trkpt><trkpt lat="44.3712283" lon="11.01347"><ele>630.0</ele><time>2026-04-03T13:09:22.57Z</time></trkpt><trkpt lat="44.37123" lon="11.013305"><ele>630.5</ele><time>2026-04-03T13:09:23.574Z</time></trkpt><trkpt lat="44.3712333" lon="11.0131567"><ele>631.0</ele><time>2026-04-03T13:09:24.568Z</time></trkpt><trkpt lat="44.3712367" lon="11.013015"><ele>631.6666666666667</ele><time>2026-04-03T13:09:25.574Z</time></trkpt><trkpt lat="44.371225" lon="11.0128783"><ele>632.3333333333334</ele><time>2026-04-03T13:09:26.572Z</time></trkpt><trkpt lat="44.37121" lon="11.0127467"><ele>633.0</ele><time>2026-04-03T13:09:27.57Z</time></trkpt><trkpt lat="44.3712033" lon="11.01263"><ele>633.6666666666666</ele><time>2026-04-03T13:09:28.573Z</time></trkpt><trkpt lat="44.3712067" lon="11.0125183"><ele>634.3333333333333</ele><time>2026-04-03T13:09:29.579Z</time></trkpt><trkpt lat="44.3712167" lon="11.0124117"><ele>635.0</ele><time>2026-04-03T13:09:30.581Z</time></trkpt><trkpt lat="44.3712367" lon="11.0123117"><ele>635.1666666666666</ele><time>2026-04-03T13:09:31.574Z</time></trkpt><trkpt lat="44.3712533" lon="11.0122117"><ele>635.3333333333333</ele><time>2026-04-03T13:09:32.576Z</time></trkpt><trkpt lat="44.371275" lon="11.0121083"><ele>635.5</ele><time>2026-04-03T13:09:33.572Z</time></trkpt><trkpt lat="44.3712917" lon="11.0120067"><ele>635.6666666666666</ele><time>2026-04-03T13:09:34.572Z</time></trkpt><trkpt lat="44.3713183" lon="11.0119"><ele>635.8333333333334</ele><time>2026-04-03T13:09:35.571Z</time></trkpt><trkpt lat="44.3713483" lon="11.0117933"><ele>636.0</ele><time>2026-04-03T13:09:36.569Z</time></trkpt><trkpt lat="44.3713767" lon="11.0116767"><ele>640.8</ele><time>2026-04-03T13:09:37.573Z</time></trkpt><trkpt lat="44.3714" lon="11.0115467"><ele>645.6</ele><time>2026-04-03T13:09:38.576Z</time></trkpt><trkpt lat="44.371425" lon="11.01141"><ele>650.4</ele><time>2026-04-03T13:09:39.575Z</time></trkpt><trkpt lat="44.3714383" lon="11.0112717"><ele>655.2</ele><time>2026-04-03T13:09:40.572Z</time></trkpt><trkpt lat="44.3714417" lon="11.0111367"><ele>660.0</ele><time>2026-04-03T13:09:41.577Z</time></trkpt><trkpt lat="44.3714233" lon="11.01099"><ele>660.0</ele><time>2026-04-03T13:09:42.577Z</time></trkpt><trkpt lat="44.3714017" lon="11.0108517"><ele>660.0</ele><time>2026-04-03T13:09:43.57Z</time></trkpt><trkpt lat="44.3713767" lon="11.010725"><ele>660.0</ele><time>2026-04-03T13:09:44.577Z</time></trkpt><trkpt lat="44.3713683" lon="11.0106"><ele>660.0</ele><time>2026-04-03T13:09:45.571Z</time></trkpt><trkpt lat="44.3713783" lon="11.01046"><ele>660.0</ele><time>2026-04-03T13:09:46.577Z</time></trkpt><trkpt lat="44.3713967" lon="11.0103117"><ele>660.3333333333334</ele><time>2026-04-03T13:09:47.57Z</time></trkpt><trkpt lat="44.371395" lon="11.0101717"><ele>660.6666666666666</ele><time>2026-04-03T13:09:48.569Z</time></trkpt><trkpt lat="44.3713933" lon="11.0100533"><ele>661.0</ele><time>2026-04-03T13:09:49.569Z</time></trkpt><trkpt lat="44.3713883" lon="11.00995"><ele>661.3333333333333</ele><time>2026-04-03T13:09:50.573Z</time></trkpt><trkpt lat="44.3713767" lon="11.009855"><ele>661.6666666666666</ele><time>2026-04-03T13:09:51.576Z</time></trkpt><trkpt lat="44.37134" lon="11.0096983"><ele>662.0</ele><time>2026-04-03T13:09:53.571Z</time></trkpt><trkpt lat="44.37126" lon="11.0096083"><ele>658.6</ele><time>2026-04-03T13:09:55.57Z</time></trkpt><trkpt lat="44.371145" lon="11.009615"><ele>655.2</ele><time>2026-04-03T13:09:57.577Z</time></trkpt><trkpt lat="44.3710333" lon="11.0095883"><ele>651.8</ele><time>2026-04-03T13:09:59.571Z</time></trkpt><trkpt lat="44.3709133" lon="11.0095567"><ele>648.4</ele><time>2026-04-03T13:10:01.568Z</time></trkpt><trkpt lat="44.3708483" lon="11.00954"><ele>645.0</ele><time>2026-04-03T13:10:02.579Z</time></trkpt><trkpt lat="44.3707867" lon="11.0095067"><ele>645.0</ele><time>2026-04-03T13:10:03.569Z</time></trkpt><trkpt lat="44.3707217" lon="11.009485"><ele>645.0</ele><time>2026-04-03T13:10:04.571Z</time></trkpt><trkpt lat="44.3706483" lon="11.00947"><ele>645.0</ele><time>2026-04-03T13:10:05.568Z</time></trkpt><trkpt lat="44.3705717" lon="11.0094583"><ele>645.0</ele><time>2026-04-03T13:10:06.577Z</time></trkpt><trkpt lat="44.3704967" lon="11.0094467"><ele>645.0</ele><time>2026-04-03T13:10:07.567Z</time></trkpt><trkpt lat="44.37042" lon="11.009435"><ele>645.0</ele><time>2026-04-03T13:10:08.576Z</time></trkpt><trkpt lat="44.370345" lon="11.0094367"><ele>645.0</ele><time>2026-04-03T13:10:09.569Z</time></trkpt><trkpt lat="44.3702683" lon="11.009445"><ele>642.3333333333334</ele><time>2026-04-03T13:10:10.568Z</time></trkpt><trkpt lat="44.3701933" lon="11.0094633"><ele>639.6666666666666</ele><time>2026-04-03T13:10:11.57Z</time></trkpt><trkpt lat="44.3701167" lon="11.0094883"><ele>637.0</ele><time>2026-04-03T13:10:12.572Z</time></trkpt><trkpt lat="44.3700317" lon="11.0095217"><ele>634.3333333333333</ele><time>2026-04-03T13:10:13.571Z</time></trkpt><trkpt lat="44.3699483" lon="11.00956"><ele>631.6666666666666</ele><time>2026-04-03T13:10:14.57Z</time></trkpt><trkpt lat="44.3698683" lon="11.009595"><ele>629.0</ele><time>2026-04-03T13:10:15.574Z</time></trkpt><trkpt lat="44.3697867" lon="11.009635"><ele>629.0</ele><time>2026-04-03T13:10:16.575Z</time></trkpt><trkpt lat="44.3697033" lon="11.0096567"><ele>629.0</ele><time>2026-04-03T13:10:17.574Z</time></trkpt><trkpt lat="44.3696167" lon="11.00967"><ele>629.0</ele><time>2026-04-03T13:10:18.567Z</time></trkpt><trkpt lat="44.36953" lon="11.0096817"><ele>629.0</ele><time>2026-04-03T13:10:19.572Z</time></trkpt><trkpt lat="44.3694433" lon="11.0096883"><ele>629.0</ele><time>2026-04-03T13:10:20.572Z</time></trkpt><trkpt lat="44.36935" lon="11.0096967"><ele>629.0</ele><time>2026-04-03T13:10:21.574Z</time></trkpt><trkpt lat="44.3692533" lon="11.0097083"><ele>625.0</ele><time>2026-04-03T13:10:22.573Z</time></trkpt><trkpt lat="44.3691583" lon="11.0097167"><ele>621.0</ele><time>2026-04-03T13:10:23.577Z</time></trkpt><trkpt lat="44.3690667" lon="11.00972"><ele>617.0</ele><time>2026-04-03T13:10:24.571Z</time></trkpt><trkpt lat="44.3689717" lon="11.0097117"><ele>613.0</ele><time>2026-04-03T13:10:25.576Z</time></trkpt><trkpt lat="44.3688717" lon="11.009705"><ele>609.0</ele><time>2026-04-03T13:10:26.571Z</time></trkpt><trkpt lat="44.368775" lon="11.0097"><ele>605.8</ele><time>2026-04-03T13:10:27.569Z</time></trkpt><trkpt lat="44.3686767" lon="11.0097033"><ele>602.5999999999999</ele><time>2026-04-03T13:10:28.571Z</time></trkpt><trkpt lat="44.3685833" lon="11.0097133"><ele>599.4</ele><time>2026-04-03T13:10:29.574Z</time></trkpt><trkpt lat="44.36849" lon="11.009725"><ele>596.1999999999999</ele><time>2026-04-03T13:10:30.57Z</time></trkpt><trkpt lat="44.368395" lon="11.0097233"><ele>593.0</ele><time>2026-04-03T13:10:31.573Z</time></trkpt><trkpt lat="44.3682967" lon="11.00971"><ele>593.0</ele><time>2026-04-03T13:10:32.569Z</time></trkpt><trkpt lat="44.3681983" lon="11.0097067"><ele>593.0</ele><time>2026-04-03T13:10:33.572Z</time></trkpt><trkpt lat="44.3681067" lon="11.009705"><ele>593.0</ele><time>2026-04-03T13:10:34.57Z</time></trkpt><trkpt lat="44.3680183" lon="11.0097017"><ele>593.0</ele><time>2026-04-03T13:10:35.569Z</time></trkpt><trkpt lat="44.3679333" lon="11.009695"><ele>593.0</ele><time>2026-04-03T13:10:36.57Z</time></trkpt><trkpt lat="44.3678533" lon="11.009675"><ele>593.0</ele><time>2026-04-03T13:10:37.571Z</time></trkpt><trkpt lat="44.36778" lon="11.009645"><ele>590.5</ele><time>2026-04-03T13:10:38.569Z</time></trkpt><trkpt lat="44.3677133" lon="11.0095983"><ele>588.0</ele><time>2026-04-03T13:10:39.573Z</time></trkpt><trkpt lat="44.3676567" lon="11.0095267"><ele>585.5</ele><time>2026-04-03T13:10:40.571Z</time></trkpt><trkpt lat="44.3676117" lon="11.0094317"><ele>583.0</ele><time>2026-04-03T13:10:41.577Z</time></trkpt><trkpt lat="44.367575" lon="11.0093167"><ele>580.5</ele><time>2026-04-03T13:10:42.572Z</time></trkpt><trkpt lat="44.3675367" lon="11.0091933"><ele>578.0</ele><time>2026-04-03T13:10:43.57Z</time></trkpt><trkpt lat="44.367495" lon="11.0090683"><ele>577.1999999999999</ele><time>2026-04-03T13:10:44.574Z</time></trkpt><trkpt lat="44.367445" lon="11.0089383"><ele>576.4</ele><time>2026-04-03T13:10:45.57Z</time></trkpt><trkpt lat="44.3673933" lon="11.008805"><ele>575.5999999999999</ele><time>2026-04-03T13:10:46.573Z</time></trkpt><trkpt lat="44.3673367" lon="11.0086733"><ele>574.8</ele><time>2026-04-03T13:10:47.57Z</time></trkpt><trkpt lat="44.3672767" lon="11.0085417"><ele>574.0</ele><time>2026-04-03T13:10:48.573Z</time></trkpt><trkpt lat="44.3672117" lon="11.00841"><ele>572.2</ele><time>2026-04-03T13:10:49.568Z</time></trkpt><trkpt lat="44.36715" lon="11.008285"><ele>570.4</ele><time>2026-04-03T13:10:50.575Z</time></trkpt><trkpt lat="44.3670883" lon="11.00817"><ele>568.6</ele><time>2026-04-03T13:10:51.577Z</time></trkpt><trkpt lat="44.36703" lon="11.00806"><ele>566.8</ele><time>2026-04-03T13:10:52.569Z</time></trkpt><trkpt lat="44.366975" lon="11.00795"><ele>565.0</ele><time>2026-04-03T13:10:53.568Z</time></trkpt><trkpt lat="44.3669217" lon="11.0078467"><ele>565.0</ele><time>2026-04-03T13:10:54.571Z</time></trkpt><trkpt lat="44.3668667" lon="11.0077483"><ele>565.0</ele><time>2026-04-03T13:10:55.569Z</time></trkpt><trkpt lat="44.3668133" lon="11.0076517"><ele>565.0</ele><time>2026-04-03T13:10:56.57Z</time></trkpt><trkpt lat="44.3667633" lon="11.0075667"><ele>565.0</ele><time>2026-04-03T13:10:57.572Z</time></trkpt><trkpt lat="44.3667217" lon="11.0074867"><ele>565.0</ele><time>2026-04-03T13:10:58.567Z</time></trkpt><trkpt lat="44.36668" lon="11.00742"><ele>565.0</ele><time>2026-04-03T13:10:59.569Z</time></trkpt><trkpt lat="44.3665617" lon="11.0073583"><ele>564.8571428571428</ele><time>2026-04-03T13:11:01.568Z</time></trkpt><trkpt lat="44.3664917" lon="11.0073483"><ele>564.7142857142857</ele><time>2026-04-03T13:11:02.578Z</time></trkpt><trkpt lat="44.3664217" lon="11.00733"><ele>564.5714285714286</ele><time>2026-04-03T13:11:03.57Z</time></trkpt><trkpt lat="44.36635" lon="11.0073167"><ele>564.4285714285713</ele><time>2026-04-03T13:11:04.577Z</time></trkpt><trkpt lat="44.3662867" lon="11.007315"><ele>564.2857142857142</ele><time>2026-04-03T13:11:05.569Z</time></trkpt><trkpt lat="44.3662167" lon="11.00732"><ele>564.1428571428571</ele><time>2026-04-03T13:11:06.568Z</time></trkpt><trkpt lat="44.3661417" lon="11.0073267"><ele>564.0</ele><time>2026-04-03T13:11:07.57Z</time></trkpt><trkpt lat="44.366075" lon="11.0073367"><ele>564.0</ele><time>2026-04-03T13:11:08.572Z</time></trkpt><trkpt lat="44.3660117" lon="11.0073483"><ele>564.0</ele><time>2026-04-03T13:11:09.573Z</time></trkpt><trkpt lat="44.3659467" lon="11.00736"><ele>564.0</ele><time>2026-04-03T13:11:10.578Z</time></trkpt><trkpt lat="44.3658733" lon="11.007375"><ele>564.0</ele><time>2026-04-03T13:11:11.572Z</time></trkpt><trkpt lat="44.365795" lon="11.0073933"><ele>564.0</ele><time>2026-04-03T13:11:12.577Z</time></trkpt><trkpt lat="44.3657167" lon="11.0074117"><ele>564.0</ele><time>2026-04-03T13:11:13.574Z</time></trkpt><trkpt lat="44.36564" lon="11.0074283"><ele>564.0</ele><time>2026-04-03T13:11:14.576Z</time></trkpt><trkpt lat="44.3655667" lon="11.007435"><ele>561.0</ele><time>2026-04-03T13:11:15.572Z</time></trkpt><trkpt lat="44.3654967" lon="11.0074367"><ele>558.0</ele><time>2026-04-03T13:11:16.569Z</time></trkpt><trkpt lat="44.365425" lon="11.007445"><ele>555.0</ele><time>2026-04-03T13:11:17.571Z</time></trkpt><trkpt lat="44.3653517" lon="11.0074533"><ele>552.0</ele><time>2026-04-03T13:11:18.572Z</time></trkpt><trkpt lat="44.3652767" lon="11.00746"><ele>549.0</ele><time>2026-04-03T13:11:19.573Z</time></trkpt><trkpt lat="44.365205" lon="11.00747"><ele>546.0</ele><time>2026-04-03T13:11:20.571Z</time></trkpt><trkpt lat="44.3651433" lon="11.0074917"><ele>543.0</ele><time>2026-04-03T13:11:21.572Z</time></trkpt><trkpt lat="44.3650283" lon="11.007525"><ele>543.0</ele><time>2026-04-03T13:11:23.569Z</time></trkpt><trkpt lat="44.3649183" lon="11.0075367"><ele>543.0</ele><time>2026-04-03T13:11:25.574Z</time></trkpt><trkpt lat="44.36482" lon="11.0075233"><ele>543.0</ele><time>2026-04-03T13:11:27.567Z</time></trkpt><trkpt lat="44.3647283" lon="11.00747"><ele>543.0</ele><time>2026-04-03T13:11:29.57Z</time></trkpt><trkpt lat="44.3646467" lon="11.0073983"><ele>543.0</ele><time>2026-04-03T13:11:31.57Z</time></trkpt><trkpt lat="44.3645667" lon="11.0073733"><ele>540.3333333333334</ele><time>2026-04-03T13:11:33.569Z</time></trkpt><trkpt lat="44.3644967" lon="11.007375"><ele>537.6666666666666</ele><time>2026-04-03T13:11:35.572Z</time></trkpt><trkpt lat="44.3644233" lon="11.0073533"><ele>535.0</ele><time>2026-04-03T13:11:37.573Z</time></trkpt><trkpt lat="44.3643667" lon="11.0072783"><ele>532.3333333333333</ele><time>2026-04-03T13:11:40.571Z</time></trkpt><trkpt lat="44.3643" lon="11.0073067"><ele>529.6666666666666</ele><time>2026-04-03T13:11:44.568Z</time></trkpt><trkpt lat="44.3642433" lon="11.0073917"><ele>527.0</ele><time>2026-04-03T13:11:46.574Z</time></trkpt><trkpt lat="44.3641767" lon="11.007485"><ele>527.0</ele><time>2026-04-03T13:11:48.572Z</time></trkpt><trkpt lat="44.364105" lon="11.00757"><ele>527.0</ele><time>2026-04-03T13:11:50.57Z</time></trkpt><trkpt lat="44.3640317" lon="11.0076683"><ele>527.0</ele><time>2026-04-03T13:11:52.575Z</time></trkpt><trkpt lat="44.3639783" lon="11.0077483"><ele>527.0</ele><time>2026-04-03T13:11:54.575Z</time></trkpt><trkpt lat="44.36394" lon="11.0078467"><ele>527.0</ele><time>2026-04-03T13:11:56.57Z</time></trkpt><trkpt lat="44.36391" lon="11.00794"><ele>527.0</ele><time>2026-04-03T13:11:58.566Z</time></trkpt><trkpt lat="44.3638692" lon="11.0080459"><ele>527.0</ele><time>2026-04-03T13:12:01.568Z</time></trkpt><trkpt lat="44.3638769" lon="11.0081535"><ele>527.0</ele><time>2026-04-03T13:12:04.572Z</time></trkpt><trkpt lat="44.3638517" lon="11.0083267"><ele>527.0</ele><time>2026-04-03T13:12:18.573Z</time></trkpt><trkpt lat="44.363835" lon="11.008415"><ele>527.0</ele><time>2026-04-03T13:12:20.571Z</time></trkpt><trkpt lat="44.3638267" lon="11.0085717"><ele>527.0</ele><time>2026-04-03T13:12:22.571Z</time></trkpt><trkpt lat="44.3638267" lon="11.00866"><ele>527.0</ele><time>2026-04-03T13:12:23.571Z</time></trkpt><trkpt lat="44.3638233" lon="11.00875"><ele>526.6</ele><time>2026-04-03T13:12:24.569Z</time></trkpt><trkpt lat="44.36382" lon="11.00884"><ele>526.2</ele><time>2026-04-03T13:12:25.57Z</time></trkpt><trkpt lat="44.3638167" lon="11.00901"><ele>525.8</ele><time>2026-04-03T13:12:27.576Z</time></trkpt><trkpt lat="44.3638117" lon="11.0090983"><ele>525.4</ele><time>2026-04-03T13:12:28.57Z</time></trkpt><trkpt lat="44.3638" lon="11.0092633"><ele>525.0</ele><time>2026-04-03T13:12:30.572Z</time></trkpt><trkpt lat="44.3637767" lon="11.0094117"><ele>525.0</ele><time>2026-04-03T13:12:32.567Z</time></trkpt><trkpt lat="44.3637617" lon="11.0095383"><ele>525.0</ele><time>2026-04-03T13:12:34.568Z</time></trkpt><trkpt lat="44.36377" lon="11.0096783"><ele>525.0</ele><time>2026-04-03T13:12:36.567Z</time></trkpt><trkpt lat="44.36379" lon="11.0098517"><ele>525.0</ele><time>2026-04-03T13:12:38.569Z</time></trkpt><trkpt lat="44.363845" lon="11.009965"><ele>525.0</ele><time>2026-04-03T13:12:40.572Z</time></trkpt><trkpt lat="44.3639083" lon="11.010065"><ele>523.6666666666666</ele><time>2026-04-03T13:13:11.57Z</time></trkpt><trkpt lat="44.3639267" lon="11.0101567"><ele>522.3333333333334</ele><time>2026-04-03T13:13:30.566Z</time></trkpt><trkpt lat="44.36395" lon="11.0102417"><ele>521.0</ele><time>2026-04-03T13:13:39.569Z</time></trkpt><trkpt lat="44.3639817" lon="11.0103483"><ele>519.6666666666667</ele><time>2026-04-03T13:13:41.572Z</time></trkpt><trkpt lat="44.3640367" lon="11.010485"><ele>518.3333333333334</ele><time>2026-04-03T13:13:43.569Z</time></trkpt><trkpt lat="44.364115" lon="11.0106017"><ele>517.0</ele><time>2026-04-03T13:13:45.571Z</time></trkpt><trkpt lat="44.3641783" lon="11.0106917"><ele>517.0</ele><time>2026-04-03T13:13:47.572Z</time></trkpt><trkpt lat="44.3642233" lon="11.0107833"><ele>517.0</ele><time>2026-04-03T13:13:50.57Z</time></trkpt><trkpt lat="44.3642" lon="11.0108917"><ele>517.0</ele><time>2026-04-03T13:13:57.572Z</time></trkpt><trkpt lat="44.3641567" lon="11.0109933"><ele>517.0</ele><time>2026-04-03T13:14:00.57Z</time></trkpt><trkpt lat="44.364115" lon="11.0110667"><ele>517.0</ele><time>2026-04-03T13:14:05.567Z</time></trkpt><trkpt lat="44.36406" lon="11.011125"><ele>517.0</ele><time>2026-04-03T13:14:12.573Z</time></trkpt><trkpt lat="44.36401" lon="11.011185"><ele>517.0</ele><time>2026-04-03T13:14:15.568Z</time></trkpt><trkpt lat="44.3639433" lon="11.0112617"><ele>517.6666666666667</ele><time>2026-04-03T13:14:36.568Z</time></trkpt><trkpt lat="44.3638967" lon="11.0113217"><ele>518.3333333333334</ele><time>2026-04-03T13:14:50.57Z</time></trkpt><trkpt lat="44.3639" lon="11.0114117"><ele>519.0</ele><time>2026-04-03T13:15:56.575Z</time></trkpt><trkpt lat="44.3637983" lon="11.01136"><ele>519.6666666666666</ele><time>2026-04-03T13:22:55.573Z</time></trkpt><trkpt lat="44.36374" lon="11.011425"><ele>520.3333333333333</ele><time>2026-04-03T13:25:28.571Z</time></trkpt><trkpt lat="44.3637383" lon="11.011525"><ele>521.0</ele><time>2026-04-03T13:25:36.57Z</time></trkpt><trkpt lat="44.3636133" lon="11.01164"><ele>521.0</ele><time>2026-04-03T13:26:21.572Z</time></trkpt><trkpt lat="44.3635433" lon="11.0116317"><ele>521.0</ele><time>2026-04-03T13:26:23.571Z</time></trkpt><trkpt lat="44.3634717" lon="11.0116267"><ele>521.0</ele><time>2026-04-03T13:26:25.571Z</time></trkpt><trkpt lat="44.363405" lon="11.01161"><ele>521.0</ele><time>2026-04-03T13:26:27.57Z</time></trkpt><trkpt lat="44.363315" lon="11.0115483"><ele>521.0</ele><time>2026-04-03T13:26:29.575Z</time></trkpt><trkpt lat="44.3632333" lon="11.0114617"><ele>521.0</ele><time>2026-04-03T13:26:31.572Z</time></trkpt><trkpt lat="44.363165" lon="11.011395"><ele>521.0</ele><time>2026-04-03T13:26:33.57Z</time></trkpt><trkpt lat="44.363095" lon="11.0113033"><ele>521.0</ele><time>2026-04-03T13:26:36.572Z</time></trkpt><trkpt lat="44.3630367" lon="11.0112433"><ele>521.0</ele><time>2026-04-03T13:26:38.573Z</time></trkpt><trkpt lat="44.3629817" lon="11.0111683"><ele>521.0</ele><time>2026-04-03T13:26:41.568Z</time></trkpt><trkpt lat="44.36296" lon="11.01108"><ele>521.0</ele><time>2026-04-03T13:26:52.575Z</time></trkpt><trkpt lat="44.3629033" lon="11.01101"><ele>521.0</ele><time>2026-04-03T13:26:55.571Z</time></trkpt><trkpt lat="44.3628367" lon="11.01096"><ele>524.5714285714286</ele><time>2026-04-03T13:27:08.571Z</time></trkpt><trkpt lat="44.3627833" lon="11.01087"><ele>528.1428571428571</ele><time>2026-04-03T13:27:11.58Z</time></trkpt><trkpt lat="44.3627483" lon="11.010795"><ele>531.7142857142858</ele><time>2026-04-03T13:27:13.57Z</time></trkpt><trkpt lat="44.3627267" lon="11.0107117"><ele>535.2857142857142</ele><time>2026-04-03T13:27:15.57Z</time></trkpt><trkpt lat="44.3626833" lon="11.0106433"><ele>538.8571428571429</ele><time>2026-04-03T13:27:18.576Z</time></trkpt><trkpt lat="44.36263" lon="11.0105917"><ele>542.4285714285714</ele><time>2026-04-03T13:27:21.572Z</time></trkpt><trkpt lat="44.3625683" lon="11.01052"><ele>546.0</ele><time>2026-04-03T13:27:24.572Z</time></trkpt><trkpt lat="44.3624983" lon="11.0104467"><ele>547.5</ele><time>2026-04-03T13:27:26.58Z</time></trkpt><trkpt lat="44.3623551" lon="11.0103019"><ele>549.0</ele><time>2026-04-03T13:27:30.574Z</time></trkpt><trkpt lat="44.3622593" lon="11.0102606"><ele>550.5</ele><time>2026-04-03T13:27:32.527Z</time></trkpt><trkpt lat="44.3621748" lon="11.0102021"><ele>552.0</ele><time>2026-04-03T13:27:34.48Z</time></trkpt><trkpt lat="44.3621005" lon="11.0100725"><ele>555.8333333333334</ele><time>2026-04-03T13:27:35.569Z</time></trkpt><trkpt lat="44.3620119" lon="11.0100076"><ele>559.6666666666666</ele><time>2026-04-03T13:27:37.571Z</time></trkpt><trkpt lat="44.3619419" lon="11.0099549"><ele>563.5</ele><time>2026-04-03T13:27:39.573Z</time></trkpt><trkpt lat="44.3618538" lon="11.0099502"><ele>567.3333333333333</ele><time>2026-04-03T13:27:42.569Z</time></trkpt><trkpt lat="44.3617917" lon="11.0098833"><ele>571.1666666666666</ele><time>2026-04-03T13:27:45.574Z</time></trkpt><trkpt lat="44.3617417" lon="11.0097817"><ele>575.0</ele><time>2026-04-03T13:27:47.571Z</time></trkpt><trkpt lat="44.3616683" lon="11.0096617"><ele>575.0</ele><time>2026-04-03T13:27:49.573Z</time></trkpt><trkpt lat="44.3616267" lon="11.0095883"><ele>575.0</ele><time>2026-04-03T13:27:50.571Z</time></trkpt><trkpt lat="44.3615833" lon="11.0095133"><ele>575.0</ele><time>2026-04-03T13:27:51.579Z</time></trkpt><trkpt lat="44.3615433" lon="11.0094317"><ele>575.0</ele><time>2026-04-03T13:27:52.572Z</time></trkpt><trkpt lat="44.3615033" lon="11.009345"><ele>575.0</ele><time>2026-04-03T13:27:53.577Z</time></trkpt><trkpt lat="44.3614683" lon="11.009265"><ele>575.0</ele><time>2026-04-03T13:27:54.574Z</time></trkpt><trkpt lat="44.3613933" lon="11.00915"><ele>579.1666666666666</ele><time>2026-04-03T13:27:56.568Z</time></trkpt><trkpt lat="44.3613033" lon="11.0091533"><ele>583.3333333333333</ele><time>2026-04-03T13:27:58.568Z</time></trkpt><trkpt lat="44.36122" lon="11.009255"><ele>587.5</ele><time>2026-04-03T13:28:00.574Z</time></trkpt><trkpt lat="44.3611817" lon="11.009335"><ele>591.6666666666666</ele><time>2026-04-03T13:28:01.572Z</time></trkpt><trkpt lat="44.361145" lon="11.0094133"><ele>595.8333333333334</ele><time>2026-04-03T13:28:02.578Z</time></trkpt><trkpt lat="44.3611067" lon="11.0095067"><ele>600.0</ele><time>2026-04-03T13:28:03.572Z</time></trkpt><trkpt lat="44.3610767" lon="11.0095867"><ele>600.0</ele><time>2026-04-03T13:28:04.574Z</time></trkpt><trkpt lat="44.361025" lon="11.0096467"><ele>600.0</ele><time>2026-04-03T13:28:05.571Z</time></trkpt><trkpt lat="44.3609233" lon="11.009695"><ele>600.0</ele><time>2026-04-03T13:28:07.574Z</time></trkpt><trkpt lat="44.3608117" lon="11.0096267"><ele>600.0</ele><time>2026-04-03T13:28:09.571Z</time></trkpt><trkpt lat="44.3607633" lon="11.00954"><ele>600.0</ele><time>2026-04-03T13:28:10.571Z</time></trkpt><trkpt lat="44.3607183" lon="11.0094567"><ele>600.0</ele><time>2026-04-03T13:28:11.571Z</time></trkpt><trkpt lat="44.3606717" lon="11.0093567"><ele>600.0</ele><time>2026-04-03T13:28:12.572Z</time></trkpt><trkpt lat="44.3606183" lon="11.00926"><ele>600.0</ele><time>2026-04-03T13:28:13.572Z</time></trkpt><trkpt lat="44.3605617" lon="11.009175"><ele>600.0</ele><time>2026-04-03T13:28:14.573Z</time></trkpt><trkpt lat="44.36051" lon="11.0090833"><ele>600.0</ele><time>2026-04-03T13:28:15.57Z</time></trkpt><trkpt lat="44.3604633" lon="11.0089783"><ele>600.0</ele><time>2026-04-03T13:28:16.571Z</time></trkpt><trkpt lat="44.3604167" lon="11.0088667"><ele>605.6666666666666</ele><time>2026-04-03T13:28:17.567Z</time></trkpt><trkpt lat="44.3603883" lon="11.0087533"><ele>611.3333333333334</ele><time>2026-04-03T13:28:18.57Z</time></trkpt><trkpt lat="44.3603833" lon="11.00865"><ele>617.0</ele><time>2026-04-03T13:28:19.569Z</time></trkpt><trkpt lat="44.3604083" lon="11.0085433"><ele>622.6666666666667</ele><time>2026-04-03T13:28:20.575Z</time></trkpt><trkpt lat="44.3604367" lon="11.00844"><ele>628.3333333333334</ele><time>2026-04-03T13:28:21.569Z</time></trkpt><trkpt lat="44.3604683" lon="11.0083317"><ele>634.0</ele><time>2026-04-03T13:28:22.565Z</time></trkpt><trkpt lat="44.360505" lon="11.0082267"><ele>630.0</ele><time>2026-04-03T13:28:23.569Z</time></trkpt><trkpt lat="44.3605467" lon="11.0081133"><ele>626.0</ele><time>2026-04-03T13:28:24.577Z</time></trkpt><trkpt lat="44.3605717" lon="11.0079967"><ele>622.0</ele><time>2026-04-03T13:28:25.574Z</time></trkpt><trkpt lat="44.3605933" lon="11.0078817"><ele>618.0</ele><time>2026-04-03T13:28:26.571Z</time></trkpt><trkpt lat="44.3606017" lon="11.007775"><ele>614.0</ele><time>2026-04-03T13:28:27.566Z</time></trkpt><trkpt lat="44.360595" lon="11.00767"><ele>610.0</ele><time>2026-04-03T13:28:28.567Z</time></trkpt><trkpt lat="44.360545" lon="11.0075783"><ele>615.0</ele><time>2026-04-03T13:28:29.572Z</time></trkpt><trkpt lat="44.3604967" lon="11.0074833"><ele>620.0</ele><time>2026-04-03T13:28:30.571Z</time></trkpt><trkpt lat="44.3604217" lon="11.00738"><ele>625.0</ele><time>2026-04-03T13:28:31.57Z</time></trkpt><trkpt lat="44.3603317" lon="11.0072783"><ele>630.0</ele><time>2026-04-03T13:28:32.573Z</time></trkpt><trkpt lat="44.3602583" lon="11.0071733"><ele>635.0</ele><time>2026-04-03T13:28:33.571Z</time></trkpt><trkpt lat="44.3601883" lon="11.007085"><ele>635.0</ele><time>2026-04-03T13:28:34.571Z</time></trkpt><trkpt lat="44.3601267" lon="11.00701"><ele>635.0</ele><time>2026-04-03T13:28:35.566Z</time></trkpt><trkpt lat="44.3600483" lon="11.006935"><ele>635.0</ele><time>2026-04-03T13:28:36.568Z</time></trkpt><trkpt lat="44.35998" lon="11.0068667"><ele>635.0</ele><time>2026-04-03T13:28:37.573Z</time></trkpt><trkpt lat="44.35992" lon="11.0068233"><ele>635.0</ele><time>2026-04-03T13:28:38.571Z</time></trkpt><trkpt lat="44.3598517" lon="11.0069033"><ele>635.0</ele><time>2026-04-03T13:28:39.579Z</time></trkpt><trkpt lat="44.3597867" lon="11.0070183"><ele>635.0</ele><time>2026-04-03T13:28:40.572Z</time></trkpt><trkpt lat="44.3597117" lon="11.0071433"><ele>635.0</ele><time>2026-04-03T13:28:41.571Z</time></trkpt><trkpt lat="44.359675" lon="11.0072483"><ele>635.0</ele><time>2026-04-03T13:28:42.58Z</time></trkpt><trkpt lat="44.3596367" lon="11.0073783"><ele>635.0</ele><time>2026-04-03T13:28:43.572Z</time></trkpt><trkpt lat="44.3596183" lon="11.0074917"><ele>635.0</ele><time>2026-04-03T13:28:44.572Z</time></trkpt><trkpt lat="44.3596033" lon="11.0076133"><ele>637.5</ele><time>2026-04-03T13:28:45.565Z</time></trkpt><trkpt lat="44.35959" lon="11.007715"><ele>640.0</ele><time>2026-04-03T13:28:46.571Z</time></trkpt><trkpt lat="44.3595783" lon="11.0078167"><ele>642.5</ele><time>2026-04-03T13:28:47.572Z</time></trkpt><trkpt lat="44.35954" lon="11.007955"><ele>645.0</ele><time>2026-04-03T13:28:49.571Z</time></trkpt><trkpt lat="44.3594695" lon="11.0079956"><ele>647.5</ele><time>2026-04-03T13:28:51.571Z</time></trkpt><trkpt lat="44.3593771" lon="11.0079584"><ele>650.0</ele><time>2026-04-03T13:28:53.57Z</time></trkpt><trkpt lat="44.3592721" lon="11.0078845"><ele>650.0</ele><time>2026-04-03T13:28:55.571Z</time></trkpt><trkpt lat="44.3591847" lon="11.0077804"><ele>650.0</ele><time>2026-04-03T13:28:57.571Z</time></trkpt><trkpt lat="44.3591428" lon="11.0077087"><ele>650.0</ele><time>2026-04-03T13:28:58.57Z</time></trkpt><trkpt lat="44.3590982" lon="11.0076413"><ele>650.0</ele><time>2026-04-03T13:28:59.571Z</time></trkpt><trkpt lat="44.3590532" lon="11.0075779"><ele>650.0</ele><time>2026-04-03T13:29:00.572Z</time></trkpt><trkpt lat="44.3589715" lon="11.0074657"><ele>650.0</ele><time>2026-04-03T13:29:02.576Z</time></trkpt><trkpt lat="44.3588814" lon="11.0073586"><ele>654.0</ele><time>2026-04-03T13:29:04.566Z</time></trkpt><trkpt lat="44.3587826" lon="11.0072613"><ele>658.0</ele><time>2026-04-03T13:29:06.573Z</time></trkpt><trkpt lat="44.3587341" lon="11.0071952"><ele>662.0</ele><time>2026-04-03T13:29:07.57Z</time></trkpt><trkpt lat="44.3586839" lon="11.0071181"><ele>666.0</ele><time>2026-04-03T13:29:08.57Z</time></trkpt><trkpt lat="44.3586283" lon="11.0070441"><ele>670.0</ele><time>2026-04-03T13:29:09.57Z</time></trkpt><trkpt lat="44.3585709" lon="11.0069778"><ele>674.0</ele><time>2026-04-03T13:29:10.572Z</time></trkpt><trkpt lat="44.3585139" lon="11.0069245"><ele>674.0000000000001</ele><time>2026-04-03T13:29:11.571Z</time></trkpt><trkpt lat="44.358455" lon="11.0068845"><ele>674.0</ele><time>2026-04-03T13:29:12.572Z</time></trkpt><trkpt lat="44.3583917" lon="11.0068484"><ele>674.0</ele><time>2026-04-03T13:29:13.572Z</time></trkpt><trkpt lat="44.3583279" lon="11.0068137"><ele>674.0</ele><time>2026-04-03T13:29:14.57Z</time></trkpt><trkpt lat="44.3582627" lon="11.0067782"><ele>674.0</ele><time>2026-04-03T13:29:15.57Z</time></trkpt><trkpt lat="44.358202" lon="11.0067274"><ele>674.0000000000001</ele><time>2026-04-03T13:29:16.571Z</time></trkpt><trkpt lat="44.3581478" lon="11.0066596"><ele>674.0</ele><time>2026-04-03T13:29:17.576Z</time></trkpt><trkpt lat="44.3580954" lon="11.0065832"><ele>674.0</ele><time>2026-04-03T13:29:18.574Z</time></trkpt><trkpt lat="44.3580482" lon="11.0065126"><ele>674.0</ele><time>2026-04-03T13:29:19.572Z</time></trkpt><trkpt lat="44.3579678" lon="11.0064313"><ele>674.0</ele><time>2026-04-03T13:29:21.572Z</time></trkpt><trkpt lat="44.3578605" lon="11.0064566"><ele>674.0</ele><time>2026-04-03T13:29:23.571Z</time></trkpt><trkpt lat="44.3577872" lon="11.0064888"><ele>674.0</ele><time>2026-04-03T13:29:24.571Z</time></trkpt><trkpt lat="44.3576958" lon="11.0065128"><ele>674.0</ele><time>2026-04-03T13:29:25.573Z</time></trkpt><trkpt lat="44.3575903" lon="11.0065322"><ele>674.0</ele><time>2026-04-03T13:29:26.573Z</time></trkpt><trkpt lat="44.3574767" lon="11.0065593"><ele>674.0</ele><time>2026-04-03T13:29:27.57Z</time></trkpt><trkpt lat="44.3573621" lon="11.0065933"><ele>674.0</ele><time>2026-04-03T13:29:28.572Z</time></trkpt><trkpt lat="44.3572465" lon="11.006638"><ele>674.0</ele><time>2026-04-03T13:29:29.571Z</time></trkpt><trkpt lat="44.357132" lon="11.0066913"><ele>677.0</ele><time>2026-04-03T13:29:30.571Z</time></trkpt><trkpt lat="44.3570205" lon="11.0067363"><ele>680.0</ele><time>2026-04-03T13:29:31.57Z</time></trkpt><trkpt lat="44.356917" lon="11.0067636"><ele>683.0</ele><time>2026-04-03T13:29:32.572Z</time></trkpt><trkpt lat="44.356826" lon="11.0067792"><ele>686.0</ele><time>2026-04-03T13:29:33.571Z</time></trkpt><trkpt lat="44.3567483" lon="11.0067869"><ele>689.0</ele><time>2026-04-03T13:29:34.57Z</time></trkpt><trkpt lat="44.3566399" lon="11.0067994"><ele>689.0</ele><time>2026-04-03T13:29:36.572Z</time></trkpt><trkpt lat="44.3565551" lon="11.0068162"><ele>689.0</ele><time>2026-04-03T13:29:38.572Z</time></trkpt><trkpt lat="44.3564411" lon="11.0068148"><ele>689.0</ele><time>2026-04-03T13:29:40.572Z</time></trkpt><trkpt lat="44.3563222" lon="11.0068218"><ele>689.0</ele><time>2026-04-03T13:29:42.568Z</time></trkpt><trkpt lat="44.3562583" lon="11.0068576"><ele>689.0</ele><time>2026-04-03T13:29:43.573Z</time></trkpt><trkpt lat="44.3561945" lon="11.0068939"><ele>691.5</ele><time>2026-04-03T13:29:44.571Z</time></trkpt><trkpt lat="44.356128" lon="11.0069191"><ele>694.0</ele><time>2026-04-03T13:29:45.571Z</time></trkpt><trkpt lat="44.356057" lon="11.0069475"><ele>696.5</ele><time>2026-04-03T13:29:46.571Z</time></trkpt><trkpt lat="44.355994" lon="11.0069724"><ele>699.0</ele><time>2026-04-03T13:29:47.571Z</time></trkpt><trkpt lat="44.3558839" lon="11.0069851"><ele>701.5</ele><time>2026-04-03T13:29:49.571Z</time></trkpt><trkpt lat="44.3557868" lon="11.0069449"><ele>704.0</ele><time>2026-04-03T13:29:51.571Z</time></trkpt><trkpt lat="44.35572" lon="11.006955"><ele>704.0</ele><time>2026-04-03T13:29:53.566Z</time></trkpt><trkpt lat="44.3556583" lon="11.007015"><ele>704.0</ele><time>2026-04-03T13:29:55.573Z</time></trkpt><trkpt lat="44.3555467" lon="11.0070917"><ele>704.0</ele><time>2026-04-03T13:29:57.572Z</time></trkpt><trkpt lat="44.3554833" lon="11.0071233"><ele>704.0</ele><time>2026-04-03T13:29:58.568Z</time></trkpt><trkpt lat="44.3554167" lon="11.007145"><ele>704.0</ele><time>2026-04-03T13:29:59.57Z</time></trkpt><trkpt lat="44.355345" lon="11.00717"><ele>704.0</ele><time>2026-04-03T13:30:00.573Z</time></trkpt><trkpt lat="44.355275" lon="11.007185"><ele>705.1428571428571</ele><time>2026-04-03T13:30:01.572Z</time></trkpt><trkpt lat="44.35521" lon="11.00719"><ele>706.2857142857142</ele><time>2026-04-03T13:30:02.574Z</time></trkpt><trkpt lat="44.3551467" lon="11.007195"><ele>707.4285714285713</ele><time>2026-04-03T13:30:03.569Z</time></trkpt><trkpt lat="44.35508" lon="11.0072"><ele>708.5714285714286</ele><time>2026-04-03T13:30:04.571Z</time></trkpt><trkpt lat="44.3550133" lon="11.0072017"><ele>709.7142857142857</ele><time>2026-04-03T13:30:05.565Z</time></trkpt><trkpt lat="44.3549333" lon="11.0072"><ele>710.8571428571428</ele><time>2026-04-03T13:30:06.577Z</time></trkpt><trkpt lat="44.3548517" lon="11.0072"><ele>712.0</ele><time>2026-04-03T13:30:07.573Z</time></trkpt><trkpt lat="44.3547783" lon="11.0072033"><ele>712.0</ele><time>2026-04-03T13:30:08.566Z</time></trkpt><trkpt lat="44.354715" lon="11.0072233"><ele>712.0</ele><time>2026-04-03T13:30:09.573Z</time></trkpt><trkpt lat="44.3546717" lon="11.0072933"><ele>712.0</ele><time>2026-04-03T13:30:10.571Z</time></trkpt><trkpt lat="44.3546383" lon="11.007375"><ele>712.0</ele><time>2026-04-03T13:30:11.583Z</time></trkpt><trkpt lat="44.3545633" lon="11.0074983"><ele>712.0</ele><time>2026-04-03T13:30:13.58Z</time></trkpt><trkpt lat="44.3545033" lon="11.0075267"><ele>712.0</ele><time>2026-04-03T13:30:14.571Z</time></trkpt><trkpt lat="44.35442" lon="11.0075417"><ele>716.3333333333334</ele><time>2026-04-03T13:30:15.572Z</time></trkpt><trkpt lat="44.3543367" lon="11.0075633"><ele>720.6666666666667</ele><time>2026-04-03T13:30:16.571Z</time></trkpt><trkpt lat="44.35425" lon="11.007585"><ele>725.0</ele><time>2026-04-03T13:30:17.57Z</time></trkpt><trkpt lat="44.3541617" lon="11.0076083"><ele>729.3333333333334</ele><time>2026-04-03T13:30:18.571Z</time></trkpt><trkpt lat="44.354075" lon="11.0076417"><ele>733.6666666666666</ele><time>2026-04-03T13:30:19.577Z</time></trkpt><trkpt lat="44.3539917" lon="11.00768"><ele>738.0</ele><time>2026-04-03T13:30:20.571Z</time></trkpt><trkpt lat="44.3539017" lon="11.0077267"><ele>739.8333333333334</ele><time>2026-04-03T13:30:21.572Z</time></trkpt><trkpt lat="44.353805" lon="11.0077833"><ele>741.6666666666666</ele><time>2026-04-03T13:30:22.575Z</time></trkpt><trkpt lat="44.3537083" lon="11.007835"><ele>743.5</ele><time>2026-04-03T13:30:23.572Z</time></trkpt><trkpt lat="44.353625" lon="11.007875"><ele>745.3333333333333</ele><time>2026-04-03T13:30:24.573Z</time></trkpt><trkpt lat="44.3535467" lon="11.0079033"><ele>747.1666666666666</ele><time>2026-04-03T13:30:25.572Z</time></trkpt><trkpt lat="44.353475" lon="11.007905"><ele>749.0</ele><time>2026-04-03T13:30:26.576Z</time></trkpt><trkpt lat="44.3533983" lon="11.0078867"><ele>749.0</ele><time>2026-04-03T13:30:27.572Z</time></trkpt><trkpt lat="44.3533167" lon="11.0078567"><ele>749.0</ele><time>2026-04-03T13:30:28.571Z</time></trkpt><trkpt lat="44.3532333" lon="11.0078517"><ele>749.0</ele><time>2026-04-03T13:30:29.576Z</time></trkpt><trkpt lat="44.353145" lon="11.0078667"><ele>749.0</ele><time>2026-04-03T13:30:30.571Z</time></trkpt><trkpt lat="44.35306" lon="11.0079083"><ele>749.0</ele><time>2026-04-03T13:30:31.572Z</time></trkpt><trkpt lat="44.3529967" lon="11.00797"><ele>749.0</ele><time>2026-04-03T13:30:32.573Z</time></trkpt><trkpt lat="44.3529433" lon="11.0080233"><ele>749.0</ele><time>2026-04-03T13:30:33.567Z</time></trkpt><trkpt lat="44.352895" lon="11.0080807"><ele>749.0</ele><time>2026-04-03T13:30:34.57Z</time></trkpt><trkpt lat="44.3528426" lon="11.0081391"><ele>749.0</ele><time>2026-04-03T13:30:35.572Z</time></trkpt><trkpt lat="44.3527834" lon="11.0081987"><ele>749.0</ele><time>2026-04-03T13:30:36.575Z</time></trkpt><trkpt lat="44.3527188" lon="11.0082604"><ele>749.0</ele><time>2026-04-03T13:30:37.571Z</time></trkpt><trkpt lat="44.3526502" lon="11.0083213"><ele>749.0</ele><time>2026-04-03T13:30:38.575Z</time></trkpt><trkpt lat="44.3525803" lon="11.008379"><ele>749.0</ele><time>2026-04-03T13:30:39.572Z</time></trkpt><trkpt lat="44.3525074" lon="11.0084319"><ele>751.0</ele><time>2026-04-03T13:30:40.57Z</time></trkpt><trkpt lat="44.3524334" lon="11.0084777"><ele>753.0</ele><time>2026-04-03T13:30:41.572Z</time></trkpt><trkpt lat="44.3523554" lon="11.0085103"><ele>755.0</ele><time>2026-04-03T13:30:42.569Z</time></trkpt><trkpt lat="44.3522777" lon="11.0085281"><ele>757.0</ele><time>2026-04-03T13:30:43.572Z</time></trkpt><trkpt lat="44.3521907" lon="11.0085356"><ele>759.0</ele><time>2026-04-03T13:30:44.572Z</time></trkpt><trkpt lat="44.3520979" lon="11.0085434"><ele>761.0</ele><time>2026-04-03T13:30:45.57Z</time></trkpt><trkpt lat="44.3519986" lon="11.0085646"><ele>762.5999999999999</ele><time>2026-04-03T13:30:46.571Z</time></trkpt><trkpt lat="44.3519022" lon="11.0086007"><ele>764.2</ele><time>2026-04-03T13:30:47.569Z</time></trkpt><trkpt lat="44.3518067" lon="11.0086424"><ele>765.8</ele><time>2026-04-03T13:30:48.577Z</time></trkpt><trkpt lat="44.3517238" lon="11.0086928"><ele>767.4000000000001</ele><time>2026-04-03T13:30:49.569Z</time></trkpt><trkpt lat="44.3516416" lon="11.0087475"><ele>769.0</ele><time>2026-04-03T13:30:50.572Z</time></trkpt><trkpt lat="44.3515535" lon="11.0087999"><ele>769.0</ele><time>2026-04-03T13:30:51.57Z</time></trkpt><trkpt lat="44.351455" lon="11.0088551"><ele>769.0</ele><time>2026-04-03T13:30:52.569Z</time></trkpt><trkpt lat="44.3513442" lon="11.0089083"><ele>769.0</ele><time>2026-04-03T13:30:53.571Z</time></trkpt><trkpt lat="44.3512295" lon="11.0089572"><ele>769.0</ele><time>2026-04-03T13:30:54.573Z</time></trkpt><trkpt lat="44.3511176" lon="11.0090003"><ele>769.8000000000001</ele><time>2026-04-03T13:30:55.568Z</time></trkpt><trkpt lat="44.35101" lon="11.0090493"><ele>770.6</ele><time>2026-04-03T13:30:56.57Z</time></trkpt><trkpt lat="44.3509119" lon="11.0091002"><ele>771.4</ele><time>2026-04-03T13:30:57.572Z</time></trkpt><trkpt lat="44.3508223" lon="11.0091507"><ele>772.2</ele><time>2026-04-03T13:30:58.574Z</time></trkpt><trkpt lat="44.3507308" lon="11.0091983"><ele>773.0</ele><time>2026-04-03T13:30:59.567Z</time></trkpt><trkpt lat="44.3506389" lon="11.0092376"><ele>774.3333333333334</ele><time>2026-04-03T13:31:00.577Z</time></trkpt><trkpt lat="44.3505505" lon="11.0092718"><ele>775.6666666666667</ele><time>2026-04-03T13:31:01.57Z</time></trkpt><trkpt lat="44.3504633" lon="11.0093034"><ele>777.0</ele><time>2026-04-03T13:31:02.579Z</time></trkpt><trkpt lat="44.3503774" lon="11.0093285"><ele>778.3333333333333</ele><time>2026-04-03T13:31:03.572Z</time></trkpt><trkpt lat="44.3502923" lon="11.0093466"><ele>779.6666666666666</ele><time>2026-04-03T13:31:04.571Z</time></trkpt><trkpt lat="44.3502034" lon="11.0093575"><ele>781.0</ele><time>2026-04-03T13:31:05.573Z</time></trkpt><trkpt lat="44.350112" lon="11.0093585"><ele>781.5999999999999</ele><time>2026-04-03T13:31:06.57Z</time></trkpt><trkpt lat="44.3500092" lon="11.0093587"><ele>782.2</ele><time>2026-04-03T13:31:07.573Z</time></trkpt><trkpt lat="44.3498971" lon="11.0093701"><ele>782.8</ele><time>2026-04-03T13:31:08.569Z</time></trkpt><trkpt lat="44.3497816" lon="11.0093907"><ele>783.4000000000001</ele><time>2026-04-03T13:31:09.573Z</time></trkpt><trkpt lat="44.3496663" lon="11.0094141"><ele>784.0</ele><time>2026-04-03T13:31:10.573Z</time></trkpt><trkpt lat="44.3495502" lon="11.0094339"><ele>785.2</ele><time>2026-04-03T13:31:11.576Z</time></trkpt><trkpt lat="44.3494323" lon="11.0094508"><ele>786.4000000000001</ele><time>2026-04-03T13:31:12.571Z</time></trkpt><trkpt lat="44.3493179" lon="11.0094676"><ele>787.6</ele><time>2026-04-03T13:31:13.573Z</time></trkpt><trkpt lat="44.3492103" lon="11.0094862"><ele>788.8</ele><time>2026-04-03T13:31:14.57Z</time></trkpt><trkpt lat="44.3491063" lon="11.0095092"><ele>790.0</ele><time>2026-04-03T13:31:15.571Z</time></trkpt><trkpt lat="44.3490075" lon="11.0095357"><ele>789.9999999999999</ele><time>2026-04-03T13:31:16.576Z</time></trkpt><trkpt lat="44.3489254" lon="11.0095608"><ele>790.0</ele><time>2026-04-03T13:31:17.578Z</time></trkpt><trkpt lat="44.3488506" lon="11.0095832"><ele>790.0</ele><time>2026-04-03T13:31:18.576Z</time></trkpt><trkpt lat="44.3487741" lon="11.0096061"><ele>790.0</ele><time>2026-04-03T13:31:19.572Z</time></trkpt><trkpt lat="44.3486936" lon="11.0096295"><ele>789.9999999999999</ele><time>2026-04-03T13:31:20.572Z</time></trkpt><trkpt lat="44.3486111" lon="11.0096527"><ele>790.0</ele><time>2026-04-03T13:31:21.571Z</time></trkpt><trkpt lat="44.3485295" lon="11.0096707"><ele>791.4999999999999</ele><time>2026-04-03T13:31:22.572Z</time></trkpt><trkpt lat="44.3484507" lon="11.0096855"><ele>793.0</ele><time>2026-04-03T13:31:23.572Z</time></trkpt><trkpt lat="44.3483743" lon="11.0096959"><ele>794.5</ele><time>2026-04-03T13:31:24.574Z</time></trkpt><trkpt lat="44.3483006" lon="11.0097108"><ele>796.0</ele><time>2026-04-03T13:31:25.572Z</time></trkpt><trkpt lat="44.3482189" lon="11.0097316"><ele>797.4999999999999</ele><time>2026-04-03T13:31:26.569Z</time></trkpt><trkpt lat="44.3481352" lon="11.0097525"><ele>799.0</ele><time>2026-04-03T13:31:27.581Z</time></trkpt><trkpt lat="44.3480524" lon="11.0097787"><ele>799.4285714285714</ele><time>2026-04-03T13:31:28.573Z</time></trkpt><trkpt lat="44.347976" lon="11.009817"><ele>799.8571428571428</ele><time>2026-04-03T13:31:29.572Z</time></trkpt><trkpt lat="44.3479139" lon="11.0098662"><ele>800.2857142857142</ele><time>2026-04-03T13:31:30.575Z</time></trkpt><trkpt lat="44.3478619" lon="11.0099217"><ele>800.7142857142858</ele><time>2026-04-03T13:31:31.573Z</time></trkpt><trkpt lat="44.3478083" lon="11.0099789"><ele>801.1428571428571</ele><time>2026-04-03T13:31:32.572Z</time></trkpt><trkpt lat="44.3477445" lon="11.0100363"><ele>801.5714285714286</ele><time>2026-04-03T13:31:33.572Z</time></trkpt><trkpt lat="44.3476748" lon="11.0101054"><ele>802.0</ele><time>2026-04-03T13:31:34.572Z</time></trkpt><trkpt lat="44.3476081" lon="11.0101727"><ele>802.5714285714286</ele><time>2026-04-03T13:31:35.579Z</time></trkpt><trkpt lat="44.3475503" lon="11.0102275"><ele>803.1428571428571</ele><time>2026-04-03T13:31:36.574Z</time></trkpt><trkpt lat="44.3474968" lon="11.0102773"><ele>803.7142857142858</ele><time>2026-04-03T13:31:37.571Z</time></trkpt><trkpt lat="44.3474427" lon="11.0103268"><ele>804.2857142857142</ele><time>2026-04-03T13:31:38.574Z</time></trkpt><trkpt lat="44.3473883" lon="11.0103777"><ele>804.8571428571428</ele><time>2026-04-03T13:31:39.572Z</time></trkpt><trkpt lat="44.34731" lon="11.0104667"><ele>805.4285714285714</ele><time>2026-04-03T13:31:41.572Z</time></trkpt><trkpt lat="44.34726" lon="11.0105233"><ele>806.0</ele><time>2026-04-03T13:31:43.571Z</time></trkpt><trkpt lat="44.3472017" lon="11.01058"><ele>806.0000000000001</ele><time>2026-04-03T13:31:47.574Z</time></trkpt><trkpt lat="44.3471533" lon="11.0106683"><ele>806.0</ele><time>2026-04-03T13:32:17.572Z</time></trkpt><trkpt lat="44.3472083" lon="11.0107883"><ele>806.0</ele><time>2026-04-03T13:32:20.575Z</time></trkpt><trkpt lat="44.3472583" lon="11.0108467"><ele>806.0</ele><time>2026-04-03T13:32:21.572Z</time></trkpt><trkpt lat="44.34733" lon="11.0109267"><ele>806.0000000000001</ele><time>2026-04-03T13:32:22.573Z</time></trkpt><trkpt lat="44.3474067" lon="11.01101"><ele>806.0</ele><time>2026-04-03T13:32:23.572Z</time></trkpt><trkpt lat="44.3474783" lon="11.0110933"><ele>806.3333333333334</ele><time>2026-04-03T13:32:24.577Z</time></trkpt><trkpt lat="44.3475483" lon="11.0111683"><ele>806.6666666666667</ele><time>2026-04-03T13:32:25.58Z</time></trkpt><trkpt lat="44.3476133" lon="11.0112417"><ele>807.0</ele><time>2026-04-03T13:32:26.574Z</time></trkpt><trkpt lat="44.3476733" lon="11.0113083"><ele>807.3333333333333</ele><time>2026-04-03T13:32:27.573Z</time></trkpt><trkpt lat="44.3477283" lon="11.01137"><ele>807.6666666666666</ele><time>2026-04-03T13:32:28.575Z</time></trkpt><trkpt lat="44.3477783" lon="11.011435"><ele>808.0</ele><time>2026-04-03T13:32:29.572Z</time></trkpt><trkpt lat="44.3478133" lon="11.0115133"><ele>807.9999999999999</ele><time>2026-04-03T13:32:30.58Z</time></trkpt><trkpt lat="44.3478383" lon="11.0116117"><ele>808.0</ele><time>2026-04-03T13:32:31.573Z</time></trkpt><trkpt lat="44.3478567" lon="11.0117183"><ele>808.0</ele><time>2026-04-03T13:32:32.576Z</time></trkpt><trkpt lat="44.3478833" lon="11.011835"><ele>808.0</ele><time>2026-04-03T13:32:33.57Z</time></trkpt><trkpt lat="44.3479167" lon="11.0119567"><ele>807.9999999999999</ele><time>2026-04-03T13:32:34.575Z</time></trkpt><trkpt lat="44.3479667" lon="11.012085"><ele>808.0</ele><time>2026-04-03T13:32:35.572Z</time></trkpt><trkpt lat="44.3480333" lon="11.0122017"><ele>807.4</ele><time>2026-04-03T13:32:36.574Z</time></trkpt><trkpt lat="44.3481017" lon="11.01232"><ele>806.8</ele><time>2026-04-03T13:32:37.573Z</time></trkpt><trkpt lat="44.3481733" lon="11.0124317"><ele>806.2</ele><time>2026-04-03T13:32:38.579Z</time></trkpt><trkpt lat="44.3482617" lon="11.0125383"><ele>805.6</ele><time>2026-04-03T13:32:39.569Z</time></trkpt><trkpt lat="44.3483483" lon="11.0126467"><ele>805.0</ele><time>2026-04-03T13:32:40.571Z</time></trkpt><trkpt lat="44.348425" lon="11.0127533"><ele>804.8</ele><time>2026-04-03T13:32:41.569Z</time></trkpt><trkpt lat="44.3484983" lon="11.01287"><ele>804.6</ele><time>2026-04-03T13:32:42.574Z</time></trkpt><trkpt lat="44.348565" lon="11.01299"><ele>804.4000000000001</ele><time>2026-04-03T13:32:43.574Z</time></trkpt><trkpt lat="44.3486267" lon="11.0130967"><ele>804.2</ele><time>2026-04-03T13:32:44.576Z</time></trkpt><trkpt lat="44.3486783" lon="11.0132"><ele>804.0</ele><time>2026-04-03T13:32:45.57Z</time></trkpt><trkpt lat="44.3487133" lon="11.0133167"><ele>804.4000000000001</ele><time>2026-04-03T13:32:46.57Z</time></trkpt><trkpt lat="44.34874" lon="11.01344"><ele>804.8</ele><time>2026-04-03T13:32:47.571Z</time></trkpt><trkpt lat="44.3487633" lon="11.013565"><ele>805.2</ele><time>2026-04-03T13:32:48.57Z</time></trkpt><trkpt lat="44.34879" lon="11.0137033"><ele>805.5999999999999</ele><time>2026-04-03T13:32:49.578Z</time></trkpt><trkpt lat="44.34882" lon="11.0138533"><ele>806.0</ele><time>2026-04-03T13:32:50.574Z</time></trkpt><trkpt lat="44.348855" lon="11.014015"><ele>801.5</ele><time>2026-04-03T13:32:51.579Z</time></trkpt><trkpt lat="44.3488967" lon="11.0141717"><ele>797.0</ele><time>2026-04-03T13:32:52.574Z</time></trkpt><trkpt lat="44.3489383" lon="11.0143267"><ele>792.5</ele><time>2026-04-03T13:32:53.569Z</time></trkpt><trkpt lat="44.3489717" lon="11.0144867"><ele>788.0</ele><time>2026-04-03T13:32:54.57Z</time></trkpt><trkpt lat="44.3490017" lon="11.0146433"><ele>788.0</ele><time>2026-04-03T13:32:55.568Z</time></trkpt><trkpt lat="44.3490417" lon="11.0147917"><ele>788.0</ele><time>2026-04-03T13:32:56.57Z</time></trkpt><trkpt lat="44.3490917" lon="11.0149333"><ele>788.0</ele><time>2026-04-03T13:32:57.574Z</time></trkpt><trkpt lat="44.3491433" lon="11.0150617"><ele>788.0</ele><time>2026-04-03T13:32:58.568Z</time></trkpt><trkpt lat="44.3491867" lon="11.0151817"><ele>788.0</ele><time>2026-04-03T13:32:59.57Z</time></trkpt><trkpt lat="44.34922" lon="11.015285"><ele>788.0000000000001</ele><time>2026-04-03T13:33:00.571Z</time></trkpt><trkpt lat="44.34924" lon="11.0153867"><ele>788.0</ele><time>2026-04-03T13:33:01.571Z</time></trkpt><trkpt lat="44.349245" lon="11.0155033"><ele>788.0</ele><time>2026-04-03T13:33:02.573Z</time></trkpt><trkpt lat="44.3492383" lon="11.015625"><ele>788.0</ele><time>2026-04-03T13:33:03.579Z</time></trkpt><trkpt lat="44.3492267" lon="11.0157467"><ele>788.0000000000001</ele><time>2026-04-03T13:33:04.569Z</time></trkpt><trkpt lat="44.3492217" lon="11.0158633"><ele>788.0</ele><time>2026-04-03T13:33:05.57Z</time></trkpt><trkpt lat="44.3492283" lon="11.0159767"><ele>787.1666666666667</ele><time>2026-04-03T13:33:06.573Z</time></trkpt><trkpt lat="44.3492317" lon="11.0160883"><ele>786.3333333333334</ele><time>2026-04-03T13:33:07.573Z</time></trkpt><trkpt lat="44.3492267" lon="11.0162017"><ele>785.5</ele><time>2026-04-03T13:33:08.575Z</time></trkpt><trkpt lat="44.349215" lon="11.0163133"><ele>784.6666666666667</ele><time>2026-04-03T13:33:09.571Z</time></trkpt><trkpt lat="44.3491917" lon="11.0164183"><ele>783.8333333333334</ele><time>2026-04-03T13:33:10.568Z</time></trkpt><trkpt lat="44.3491717" lon="11.0165233"><ele>783.0</ele><time>2026-04-03T13:33:11.572Z</time></trkpt><trkpt lat="44.34916" lon="11.0166367"><ele>781.5999999999999</ele><time>2026-04-03T13:33:12.571Z</time></trkpt><trkpt lat="44.3491667" lon="11.0167533"><ele>780.1999999999999</ele><time>2026-04-03T13:33:13.567Z</time></trkpt><trkpt lat="44.349195" lon="11.0168767"><ele>778.8</ele><time>2026-04-03T13:33:14.573Z</time></trkpt><trkpt lat="44.3492533" lon="11.0170083"><ele>777.4</ele><time>2026-04-03T13:33:15.573Z</time></trkpt><trkpt lat="44.3493067" lon="11.0171283"><ele>776.0</ele><time>2026-04-03T13:33:16.579Z</time></trkpt><trkpt lat="44.3493667" lon="11.0172283"><ele>776.0000000000001</ele><time>2026-04-03T13:33:17.569Z</time></trkpt><trkpt lat="44.34942" lon="11.0173283"><ele>776.0</ele><time>2026-04-03T13:33:18.575Z</time></trkpt><trkpt lat="44.3494667" lon="11.017425"><ele>776.0</ele><time>2026-04-03T13:33:19.571Z</time></trkpt><trkpt lat="44.3495117" lon="11.017525"><ele>776.0</ele><time>2026-04-03T13:33:20.57Z</time></trkpt><trkpt lat="44.3495483" lon="11.0176317"><ele>776.0000000000001</ele><time>2026-04-03T13:33:21.567Z</time></trkpt><trkpt lat="44.3495767" lon="11.0177333"><ele>776.0</ele><time>2026-04-03T13:33:22.567Z</time></trkpt><trkpt lat="44.3496067" lon="11.01783"><ele>775.4</ele><time>2026-04-03T13:33:23.568Z</time></trkpt><trkpt lat="44.3496517" lon="11.01792"><ele>774.8</ele><time>2026-04-03T13:33:24.571Z</time></trkpt><trkpt lat="44.34973" lon="11.0179967"><ele>774.1999999999999</ele><time>2026-04-03T13:33:25.572Z</time></trkpt><trkpt lat="44.3498267" lon="11.0180633"><ele>773.5999999999999</ele><time>2026-04-03T13:33:26.578Z</time></trkpt><trkpt lat="44.3499333" lon="11.018125"><ele>773.0</ele><time>2026-04-03T13:33:27.572Z</time></trkpt><trkpt lat="44.3500367" lon="11.0181967"><ele>769.0</ele><time>2026-04-03T13:33:28.579Z</time></trkpt><trkpt lat="44.3501333" lon="11.018275"><ele>765.0</ele><time>2026-04-03T13:33:29.572Z</time></trkpt><trkpt lat="44.3502433" lon="11.0183533"><ele>761.0</ele><time>2026-04-03T13:33:30.573Z</time></trkpt><trkpt lat="44.3503467" lon="11.018435"><ele>757.0</ele><time>2026-04-03T13:33:31.576Z</time></trkpt><trkpt lat="44.3504533" lon="11.0184983"><ele>754.4000000000001</ele><time>2026-04-03T13:33:32.571Z</time></trkpt><trkpt lat="44.350545" lon="11.0185467"><ele>751.8000000000001</ele><time>2026-04-03T13:33:33.572Z</time></trkpt><trkpt lat="44.3506383" lon="11.0186017"><ele>749.2</ele><time>2026-04-03T13:33:34.57Z</time></trkpt><trkpt lat="44.3507367" lon="11.0186717"><ele>746.6</ele><time>2026-04-03T13:33:35.57Z</time></trkpt><trkpt lat="44.3508383" lon="11.018745"><ele>744.0</ele><time>2026-04-03T13:33:36.568Z</time></trkpt><trkpt lat="44.3509483" lon="11.01882"><ele>744.0</ele><time>2026-04-03T13:33:37.573Z</time></trkpt><trkpt lat="44.351055" lon="11.0189017"><ele>744.0</ele><time>2026-04-03T13:33:38.577Z</time></trkpt><trkpt lat="44.35115" lon="11.0189933"><ele>744.0</ele><time>2026-04-03T13:33:39.572Z</time></trkpt><trkpt lat="44.3512367" lon="11.0191017"><ele>744.0</ele><time>2026-04-03T13:33:40.571Z</time></trkpt><trkpt lat="44.3513167" lon="11.0192217"><ele>742.0</ele><time>2026-04-03T13:33:41.568Z</time></trkpt><trkpt lat="44.3513883" lon="11.0193583"><ele>740.0</ele><time>2026-04-03T13:33:42.575Z</time></trkpt><trkpt lat="44.351455" lon="11.0194917"><ele>738.0</ele><time>2026-04-03T13:33:43.569Z</time></trkpt><trkpt lat="44.3515217" lon="11.0196283"><ele>736.0</ele><time>2026-04-03T13:33:44.575Z</time></trkpt><trkpt lat="44.3515917" lon="11.019765"><ele>736.0</ele><time>2026-04-03T13:33:45.571Z</time></trkpt><trkpt lat="44.35165" lon="11.0199117"><ele>736.0</ele><time>2026-04-03T13:33:46.566Z</time></trkpt><trkpt lat="44.3516933" lon="11.0200683"><ele>736.0</ele><time>2026-04-03T13:33:47.572Z</time></trkpt><trkpt lat="44.351735" lon="11.0202267"><ele>736.0</ele><time>2026-04-03T13:33:48.571Z</time></trkpt><trkpt lat="44.3517767" lon="11.0203733"><ele>735.5</ele><time>2026-04-03T13:33:49.571Z</time></trkpt><trkpt lat="44.3518083" lon="11.0205067"><ele>735.0</ele><time>2026-04-03T13:33:50.572Z</time></trkpt><trkpt lat="44.3518333" lon="11.0206167"><ele>734.5</ele><time>2026-04-03T13:33:51.567Z</time></trkpt><trkpt lat="44.351865" lon="11.0207133"><ele>734.0</ele><time>2026-04-03T13:33:52.575Z</time></trkpt><trkpt lat="44.3519217" lon="11.0208083"><ele>733.5</ele><time>2026-04-03T13:33:53.569Z</time></trkpt><trkpt lat="44.352" lon="11.0208967"><ele>733.0</ele><time>2026-04-03T13:33:54.568Z</time></trkpt><trkpt lat="44.3520817" lon="11.02098"><ele>730.5</ele><time>2026-04-03T13:33:55.569Z</time></trkpt><trkpt lat="44.3521633" lon="11.02107"><ele>728.0</ele><time>2026-04-03T13:33:56.576Z</time></trkpt><trkpt lat="44.3522417" lon="11.0211883"><ele>725.5</ele><time>2026-04-03T13:33:57.574Z</time></trkpt><trkpt lat="44.3523183" lon="11.0213283"><ele>723.0</ele><time>2026-04-03T13:33:58.567Z</time></trkpt><trkpt lat="44.3523933" lon="11.0214683"><ele>722.2</ele><time>2026-04-03T13:33:59.578Z</time></trkpt><trkpt lat="44.35247" lon="11.0216033"><ele>721.4</ele><time>2026-04-03T13:34:00.571Z</time></trkpt><trkpt lat="44.352545" lon="11.02173"><ele>720.6</ele><time>2026-04-03T13:34:01.574Z</time></trkpt><trkpt lat="44.3526183" lon="11.0218383"><ele>719.8000000000001</ele><time>2026-04-03T13:34:02.573Z</time></trkpt><trkpt lat="44.3526933" lon="11.0219283"><ele>719.0</ele><time>2026-04-03T13:34:03.57Z</time></trkpt><trkpt lat="44.352775" lon="11.0220083"><ele>718.5</ele><time>2026-04-03T13:34:04.571Z</time></trkpt><trkpt lat="44.35287" lon="11.0220867"><ele>718.0</ele><time>2026-04-03T13:34:05.567Z</time></trkpt><trkpt lat="44.3529633" lon="11.0221683"><ele>717.5</ele><time>2026-04-03T13:34:06.577Z</time></trkpt><trkpt lat="44.3530567" lon="11.022255"><ele>717.0</ele><time>2026-04-03T13:34:07.575Z</time></trkpt><trkpt lat="44.35316" lon="11.0223383"><ele>716.75</ele><time>2026-04-03T13:34:08.574Z</time></trkpt><trkpt lat="44.3532683" lon="11.0224133"><ele>716.5</ele><time>2026-04-03T13:34:09.574Z</time></trkpt><trkpt lat="44.3533767" lon="11.02247"><ele>716.25</ele><time>2026-04-03T13:34:10.573Z</time></trkpt><trkpt lat="44.3534883" lon="11.0225083"><ele>716.0</ele><time>2026-04-03T13:34:11.577Z</time></trkpt><trkpt lat="44.3536" lon="11.0225233"><ele>716.0</ele><time>2026-04-03T13:34:12.567Z</time></trkpt><trkpt lat="44.3537033" lon="11.0225217"><ele>716.0</ele><time>2026-04-03T13:34:13.569Z</time></trkpt><trkpt lat="44.3537917" lon="11.0225283"><ele>716.0</ele><time>2026-04-03T13:34:14.584Z</time></trkpt><trkpt lat="44.353865" lon="11.0225567"><ele>716.0</ele><time>2026-04-03T13:34:15.569Z</time></trkpt><trkpt lat="44.3539417" lon="11.0225967"><ele>716.0</ele><time>2026-04-03T13:34:16.574Z</time></trkpt><trkpt lat="44.354015" lon="11.02267"><ele>716.0</ele><time>2026-04-03T13:34:17.572Z</time></trkpt><trkpt lat="44.3540767" lon="11.0227817"><ele>712.8</ele><time>2026-04-03T13:34:18.571Z</time></trkpt><trkpt lat="44.354135" lon="11.0229067"><ele>709.5999999999999</ele><time>2026-04-03T13:34:19.568Z</time></trkpt><trkpt lat="44.354175" lon="11.0230367"><ele>706.4</ele><time>2026-04-03T13:34:20.574Z</time></trkpt><trkpt lat="44.3542067" lon="11.02318"><ele>703.2</ele><time>2026-04-03T13:34:21.57Z</time></trkpt><trkpt lat="44.3542433" lon="11.023315"><ele>700.0</ele><time>2026-04-03T13:34:22.576Z</time></trkpt><trkpt lat="44.3542867" lon="11.0234333"><ele>700.0</ele><time>2026-04-03T13:34:23.573Z</time></trkpt><trkpt lat="44.3543467" lon="11.0235367"><ele>700.0</ele><time>2026-04-03T13:34:24.566Z</time></trkpt><trkpt lat="44.3544117" lon="11.0236267"><ele>700.0</ele><time>2026-04-03T13:34:25.57Z</time></trkpt><trkpt lat="44.354485" lon="11.0236983"><ele>700.0</ele><time>2026-04-03T13:34:26.575Z</time></trkpt><trkpt lat="44.3545883" lon="11.0237333"><ele>700.0</ele><time>2026-04-03T13:34:27.57Z</time></trkpt><trkpt lat="44.3546833" lon="11.0237583"><ele>696.4</ele><time>2026-04-03T13:34:28.569Z</time></trkpt><trkpt lat="44.3547867" lon="11.023755"><ele>692.8</ele><time>2026-04-03T13:34:29.571Z</time></trkpt><trkpt lat="44.35489" lon="11.0237433"><ele>689.2</ele><time>2026-04-03T13:34:30.579Z</time></trkpt><trkpt lat="44.3549783" lon="11.0237417"><ele>685.6</ele><time>2026-04-03T13:34:31.576Z</time></trkpt><trkpt lat="44.3550583" lon="11.0237583"><ele>682.0</ele><time>2026-04-03T13:34:32.578Z</time></trkpt><trkpt lat="44.3551333" lon="11.02378"><ele>682.0</ele><time>2026-04-03T13:34:33.574Z</time></trkpt><trkpt lat="44.3552133" lon="11.023785"><ele>682.0</ele><time>2026-04-03T13:34:34.572Z</time></trkpt><trkpt lat="44.3553" lon="11.02377"><ele>682.0</ele><time>2026-04-03T13:34:35.568Z</time></trkpt><trkpt lat="44.3553883" lon="11.0237467"><ele>682.0</ele><time>2026-04-03T13:34:36.574Z</time></trkpt><trkpt lat="44.3554767" lon="11.0237267"><ele>682.0</ele><time>2026-04-03T13:34:37.575Z</time></trkpt><trkpt lat="44.3555683" lon="11.02375"><ele>682.0</ele><time>2026-04-03T13:34:38.569Z</time></trkpt><trkpt lat="44.3556683" lon="11.0238133"><ele>678.25</ele><time>2026-04-03T13:34:39.577Z</time></trkpt><trkpt lat="44.3557683" lon="11.0238933"><ele>674.5</ele><time>2026-04-03T13:34:40.569Z</time></trkpt><trkpt lat="44.3558683" lon="11.023975"><ele>670.75</ele><time>2026-04-03T13:34:41.571Z</time></trkpt><trkpt lat="44.3559683" lon="11.02405"><ele>667.0</ele><time>2026-04-03T13:34:42.573Z</time></trkpt><trkpt lat="44.3560683" lon="11.0241117"><ele>667.2</ele><time>2026-04-03T13:34:43.572Z</time></trkpt><trkpt lat="44.3561767" lon="11.0241633"><ele>667.4000000000001</ele><time>2026-04-03T13:34:44.578Z</time></trkpt><trkpt lat="44.3562783" lon="11.0242167"><ele>667.5999999999999</ele><time>2026-04-03T13:34:45.574Z</time></trkpt><trkpt lat="44.3563733" lon="11.0242633"><ele>667.8</ele><time>2026-04-03T13:34:46.568Z</time></trkpt><trkpt lat="44.3564633" lon="11.024285"><ele>668.0</ele><time>2026-04-03T13:34:47.571Z</time></trkpt><trkpt lat="44.3565517" lon="11.024285"><ele>667.4</ele><time>2026-04-03T13:34:48.572Z</time></trkpt><trkpt lat="44.3566383" lon="11.02425"><ele>666.8</ele><time>2026-04-03T13:34:49.572Z</time></trkpt><trkpt lat="44.3567167" lon="11.0241683"><ele>666.2</ele><time>2026-04-03T13:34:50.573Z</time></trkpt><trkpt lat="44.3567833" lon="11.0240617"><ele>665.6</ele><time>2026-04-03T13:34:51.568Z</time></trkpt><trkpt lat="44.35685" lon="11.02396"><ele>665.0</ele><time>2026-04-03T13:34:52.573Z</time></trkpt><trkpt lat="44.356925" lon="11.0238583"><ele>663.4</ele><time>2026-04-03T13:34:53.571Z</time></trkpt><trkpt lat="44.357005" lon="11.0237567"><ele>661.8</ele><time>2026-04-03T13:34:54.577Z</time></trkpt><trkpt lat="44.35708" lon="11.0236567"><ele>660.2</ele><time>2026-04-03T13:34:55.569Z</time></trkpt><trkpt lat="44.3571467" lon="11.0235567"><ele>658.6</ele><time>2026-04-03T13:34:56.568Z</time></trkpt><trkpt lat="44.3572033" lon="11.02346"><ele>657.0</ele><time>2026-04-03T13:34:57.567Z</time></trkpt><trkpt lat="44.357255" lon="11.023385"><ele>656.4000000000001</ele><time>2026-04-03T13:34:58.578Z</time></trkpt><trkpt lat="44.35736" lon="11.023305"><ele>655.8000000000001</ele><time>2026-04-03T13:35:00.573Z</time></trkpt><trkpt lat="44.3574133" lon="11.0234083"><ele>655.2</ele><time>2026-04-03T13:35:02.576Z</time></trkpt><trkpt lat="44.3573633" lon="11.0235733"><ele>654.6</ele><time>2026-04-03T13:35:04.573Z</time></trkpt><trkpt lat="44.3573133" lon="11.0236667"><ele>654.0</ele><time>2026-04-03T13:35:05.57Z</time></trkpt><trkpt lat="44.3572633" lon="11.0237683"><ele>654.0</ele><time>2026-04-03T13:35:06.569Z</time></trkpt><trkpt lat="44.3572183" lon="11.0238783"><ele>654.0</ele><time>2026-04-03T13:35:07.571Z</time></trkpt><trkpt lat="44.3571767" lon="11.0239933"><ele>654.0</ele><time>2026-04-03T13:35:08.58Z</time></trkpt><trkpt lat="44.3571433" lon="11.0241183"><ele>654.0</ele><time>2026-04-03T13:35:09.576Z</time></trkpt><trkpt lat="44.3571233" lon="11.0242467"><ele>654.0</ele><time>2026-04-03T13:35:10.572Z</time></trkpt><trkpt lat="44.35712" lon="11.02438"><ele>653.6</ele><time>2026-04-03T13:35:11.575Z</time></trkpt><trkpt lat="44.3571383" lon="11.024525"><ele>653.2</ele><time>2026-04-03T13:35:12.572Z</time></trkpt><trkpt lat="44.357165" lon="11.0246733"><ele>652.8000000000001</ele><time>2026-04-03T13:35:13.569Z</time></trkpt><trkpt lat="44.3571917" lon="11.02482"><ele>652.4000000000001</ele><time>2026-04-03T13:35:14.577Z</time></trkpt><trkpt lat="44.3572117" lon="11.02496"><ele>652.0</ele><time>2026-04-03T13:35:15.569Z</time></trkpt><trkpt lat="44.35723" lon="11.0250917"><ele>651.0</ele><time>2026-04-03T13:35:16.57Z</time></trkpt><trkpt lat="44.3572583" lon="11.0252217"><ele>650.0</ele><time>2026-04-03T13:35:17.572Z</time></trkpt><trkpt lat="44.3572883" lon="11.0253483"><ele>649.0</ele><time>2026-04-03T13:35:18.572Z</time></trkpt><trkpt lat="44.35733" lon="11.025475"><ele>648.0</ele><time>2026-04-03T13:35:19.582Z</time></trkpt><trkpt lat="44.35737" lon="11.0256"><ele>647.0</ele><time>2026-04-03T13:35:20.576Z</time></trkpt><trkpt lat="44.3574117" lon="11.025725"><ele>645.5</ele><time>2026-04-03T13:35:21.578Z</time></trkpt><trkpt lat="44.3574533" lon="11.0258433"><ele>644.0</ele><time>2026-04-03T13:35:22.574Z</time></trkpt><trkpt lat="44.3574933" lon="11.02595"><ele>642.5</ele><time>2026-04-03T13:35:23.569Z</time></trkpt><trkpt lat="44.357535" lon="11.026045"><ele>641.0</ele><time>2026-04-03T13:35:24.575Z</time></trkpt><trkpt lat="44.35756" lon="11.0261333"><ele>639.5</ele><time>2026-04-03T13:35:25.571Z</time></trkpt><trkpt lat="44.3575417" lon="11.0262817"><ele>638.0</ele><time>2026-04-03T13:35:27.57Z</time></trkpt><trkpt lat="44.3574333" lon="11.0263517"><ele>638.0</ele><time>2026-04-03T13:35:29.579Z</time></trkpt><trkpt lat="44.35733" lon="11.0263283"><ele>638.0</ele><time>2026-04-03T13:35:30.569Z</time></trkpt><trkpt lat="44.3572333" lon="11.0263133"><ele>638.0</ele><time>2026-04-03T13:35:31.572Z</time></trkpt><trkpt lat="44.3571333" lon="11.0263167"><ele>638.0</ele><time>2026-04-03T13:35:32.572Z</time></trkpt><trkpt lat="44.3570367" lon="11.0263483"><ele>638.0</ele><time>2026-04-03T13:35:33.573Z</time></trkpt><trkpt lat="44.3569467" lon="11.0264117"><ele>638.75</ele><time>2026-04-03T13:35:34.574Z</time></trkpt><trkpt lat="44.3568617" lon="11.0265083"><ele>639.5</ele><time>2026-04-03T13:35:35.576Z</time></trkpt><trkpt lat="44.3567833" lon="11.0266317"><ele>640.25</ele><time>2026-04-03T13:35:36.57Z</time></trkpt><trkpt lat="44.3567167" lon="11.026765"><ele>641.0</ele><time>2026-04-03T13:35:37.568Z</time></trkpt><trkpt lat="44.3566533" lon="11.0268983"><ele>637.25</ele><time>2026-04-03T13:35:38.572Z</time></trkpt><trkpt lat="44.3565867" lon="11.027035"><ele>633.5</ele><time>2026-04-03T13:35:39.575Z</time></trkpt><trkpt lat="44.3565167" lon="11.027165"><ele>629.75</ele><time>2026-04-03T13:35:40.574Z</time></trkpt><trkpt lat="44.3564433" lon="11.0272883"><ele>626.0</ele><time>2026-04-03T13:35:41.576Z</time></trkpt><trkpt lat="44.35637" lon="11.0274117"><ele>624.8</ele><time>2026-04-03T13:35:42.576Z</time></trkpt><trkpt lat="44.3563" lon="11.0275267"><ele>623.6</ele><time>2026-04-03T13:35:43.571Z</time></trkpt><trkpt lat="44.3562383" lon="11.0276217"><ele>622.4</ele><time>2026-04-03T13:35:44.572Z</time></trkpt><trkpt lat="44.356175" lon="11.027695"><ele>621.2</ele><time>2026-04-03T13:35:45.575Z</time></trkpt><trkpt lat="44.356095" lon="11.02775"><ele>620.0</ele><time>2026-04-03T13:35:46.574Z</time></trkpt><trkpt lat="44.3559933" lon="11.0277667"><ele>620.0</ele><time>2026-04-03T13:35:47.569Z</time></trkpt><trkpt lat="44.355885" lon="11.027765"><ele>620.0</ele><time>2026-04-03T13:35:48.57Z</time></trkpt><trkpt lat="44.3557783" lon="11.0277683"><ele>620.0</ele><time>2026-04-03T13:35:49.571Z</time></trkpt><trkpt lat="44.3556767" lon="11.0277867"><ele>620.0</ele><time>2026-04-03T13:35:50.578Z</time></trkpt><trkpt lat="44.3555833" lon="11.027845"><ele>620.0</ele><time>2026-04-03T13:35:51.57Z</time></trkpt><trkpt lat="44.355505" lon="11.02794"><ele>621.2</ele><time>2026-04-03T13:35:52.575Z</time></trkpt><trkpt lat="44.355445" lon="11.02806"><ele>622.4</ele><time>2026-04-03T13:35:53.574Z</time></trkpt><trkpt lat="44.35539" lon="11.0281983"><ele>623.6</ele><time>2026-04-03T13:35:54.574Z</time></trkpt><trkpt lat="44.35534" lon="11.0283367"><ele>624.8</ele><time>2026-04-03T13:35:55.57Z</time></trkpt><trkpt lat="44.3553" lon="11.028465"><ele>626.0</ele><time>2026-04-03T13:35:56.575Z</time></trkpt><trkpt lat="44.355265" lon="11.0285767"><ele>623.8333333333333</ele><time>2026-04-03T13:35:57.568Z</time></trkpt><trkpt lat="44.35523" lon="11.0286683"><ele>621.6666666666666</ele><time>2026-04-03T13:35:58.57Z</time></trkpt><trkpt lat="44.35519" lon="11.02874"><ele>619.5</ele><time>2026-04-03T13:35:59.572Z</time></trkpt><trkpt lat="44.35508" lon="11.0288267"><ele>617.3333333333334</ele><time>2026-04-03T13:36:01.57Z</time></trkpt><trkpt lat="44.3550133" lon="11.028855"><ele>615.1666666666667</ele><time>2026-04-03T13:36:02.569Z</time></trkpt><trkpt lat="44.3549333" lon="11.0288683"><ele>613.0</ele><time>2026-04-03T13:36:03.567Z</time></trkpt><trkpt lat="44.3548433" lon="11.02888"><ele>613.0</ele><time>2026-04-03T13:36:04.575Z</time></trkpt><trkpt lat="44.354745" lon="11.02889"><ele>613.0</ele><time>2026-04-03T13:36:05.569Z</time></trkpt><trkpt lat="44.3546417" lon="11.0289133"><ele>613.0</ele><time>2026-04-03T13:36:06.571Z</time></trkpt><trkpt lat="44.3545467" lon="11.0289417"><ele>613.0</ele><time>2026-04-03T13:36:07.569Z</time></trkpt><trkpt lat="44.3544517" lon="11.0289767"><ele>613.0</ele><time>2026-04-03T13:36:08.569Z</time></trkpt><trkpt lat="44.3543567" lon="11.0290217"><ele>614.1999999999999</ele><time>2026-04-03T13:36:09.573Z</time></trkpt><trkpt lat="44.3542583" lon="11.029075"><ele>615.4</ele><time>2026-04-03T13:36:10.569Z</time></trkpt><trkpt lat="44.3541567" lon="11.0291333"><ele>616.5999999999999</ele><time>2026-04-03T13:36:11.573Z</time></trkpt><trkpt lat="44.3540567" lon="11.0291917"><ele>617.8</ele><time>2026-04-03T13:36:12.575Z</time></trkpt><trkpt lat="44.353955" lon="11.0292433"><ele>619.0</ele><time>2026-04-03T13:36:13.57Z</time></trkpt><trkpt lat="44.35385" lon="11.0292983"><ele>615.75</ele><time>2026-04-03T13:36:14.569Z</time></trkpt><trkpt lat="44.353745" lon="11.0293567"><ele>612.5</ele><time>2026-04-03T13:36:15.573Z</time></trkpt><trkpt lat="44.35364" lon="11.0294167"><ele>609.25</ele><time>2026-04-03T13:36:16.569Z</time></trkpt><trkpt lat="44.3535317" lon="11.0294783"><ele>606.0</ele><time>2026-04-03T13:36:17.573Z</time></trkpt><trkpt lat="44.3534283" lon="11.02954"><ele>606.0</ele><time>2026-04-03T13:36:18.575Z</time></trkpt><trkpt lat="44.353325" lon="11.0296017"><ele>606.0</ele><time>2026-04-03T13:36:19.57Z</time></trkpt><trkpt lat="44.35322" lon="11.02966"><ele>606.0</ele><time>2026-04-03T13:36:20.575Z</time></trkpt><trkpt lat="44.3531183" lon="11.0297117"><ele>606.0</ele><time>2026-04-03T13:36:21.574Z</time></trkpt><trkpt lat="44.3530217" lon="11.029755"><ele>606.0</ele><time>2026-04-03T13:36:22.574Z</time></trkpt><trkpt lat="44.3529217" lon="11.0297883"><ele>605.8</ele><time>2026-04-03T13:36:23.576Z</time></trkpt><trkpt lat="44.3528167" lon="11.029805"><ele>605.6</ele><time>2026-04-03T13:36:24.575Z</time></trkpt><trkpt lat="44.35271" lon="11.02982"><ele>605.4</ele><time>2026-04-03T13:36:25.574Z</time></trkpt><trkpt lat="44.352605" lon="11.0298267"><ele>605.2</ele><time>2026-04-03T13:36:26.574Z</time></trkpt><trkpt lat="44.3525017" lon="11.0298367"><ele>605.0</ele><time>2026-04-03T13:36:27.576Z</time></trkpt><trkpt lat="44.352395" lon="11.029855"><ele>605.0</ele><time>2026-04-03T13:36:28.571Z</time></trkpt><trkpt lat="44.352285" lon="11.0298783"><ele>605.0</ele><time>2026-04-03T13:36:29.571Z</time></trkpt><trkpt lat="44.3521733" lon="11.0299"><ele>605.0</ele><time>2026-04-03T13:36:30.576Z</time></trkpt><trkpt lat="44.3520567" lon="11.0299117"><ele>605.0</ele><time>2026-04-03T13:36:31.57Z</time></trkpt><trkpt lat="44.35194" lon="11.02991"><ele>604.75</ele><time>2026-04-03T13:36:32.575Z</time></trkpt><trkpt lat="44.351815" lon="11.02989"><ele>604.5</ele><time>2026-04-03T13:36:33.57Z</time></trkpt><trkpt lat="44.35169" lon="11.02986"><ele>604.25</ele><time>2026-04-03T13:36:34.57Z</time></trkpt><trkpt lat="44.3515683" lon="11.0298233"><ele>604.0</ele><time>2026-04-03T13:36:35.571Z</time></trkpt><trkpt lat="44.3514567" lon="11.0297817"><ele>604.0</ele><time>2026-04-03T13:36:36.569Z</time></trkpt><trkpt lat="44.35135" lon="11.0297267"><ele>604.0</ele><time>2026-04-03T13:36:37.576Z</time></trkpt><trkpt lat="44.351255" lon="11.0296583"><ele>604.0</ele><time>2026-04-03T13:36:38.576Z</time></trkpt><trkpt lat="44.3511683" lon="11.0295883"><ele>604.0</ele><time>2026-04-03T13:36:39.573Z</time></trkpt><trkpt lat="44.3510933" lon="11.0295167"><ele>604.0</ele><time>2026-04-03T13:36:40.57Z</time></trkpt><trkpt lat="44.351025" lon="11.02946"><ele>604.0</ele><time>2026-04-03T13:36:41.571Z</time></trkpt><trkpt lat="44.35096" lon="11.02944"><ele>604.0</ele><time>2026-04-03T13:36:42.567Z</time></trkpt><trkpt lat="44.3509067" lon="11.0294933"><ele>604.0</ele><time>2026-04-03T13:36:43.578Z</time></trkpt><trkpt lat="44.350855" lon="11.0295767"><ele>604.0</ele><time>2026-04-03T13:36:44.57Z</time></trkpt><trkpt lat="44.3508183" lon="11.029695"><ele>604.0</ele><time>2026-04-03T13:36:45.575Z</time></trkpt><trkpt lat="44.3508117" lon="11.0298367"><ele>604.0</ele><time>2026-04-03T13:36:46.567Z</time></trkpt><trkpt lat="44.3508067" lon="11.0299883"><ele>602.5</ele><time>2026-04-03T13:36:47.57Z</time></trkpt><trkpt lat="44.3508033" lon="11.0301567"><ele>601.0</ele><time>2026-04-03T13:36:48.57Z</time></trkpt><trkpt lat="44.3507983" lon="11.030335"><ele>599.5</ele><time>2026-04-03T13:36:49.57Z</time></trkpt><trkpt lat="44.3507933" lon="11.0305033"><ele>598.0</ele><time>2026-04-03T13:36:50.574Z</time></trkpt><trkpt lat="44.3507833" lon="11.03066"><ele>596.4</ele><time>2026-04-03T13:36:51.567Z</time></trkpt><trkpt lat="44.3507667" lon="11.03081"><ele>594.8</ele><time>2026-04-03T13:36:52.572Z</time></trkpt><trkpt lat="44.3507317" lon="11.0309483"><ele>593.2</ele><time>2026-04-03T13:36:53.57Z</time></trkpt><trkpt lat="44.3506683" lon="11.03107"><ele>591.6</ele><time>2026-04-03T13:36:54.567Z</time></trkpt><trkpt lat="44.35059" lon="11.0311667"><ele>590.0</ele><time>2026-04-03T13:36:55.573Z</time></trkpt><trkpt lat="44.3505017" lon="11.0312417"><ele>591.3333333333333</ele><time>2026-04-03T13:36:56.568Z</time></trkpt><trkpt lat="44.3504117" lon="11.0313117"><ele>592.6666666666666</ele><time>2026-04-03T13:36:57.572Z</time></trkpt><trkpt lat="44.3503317" lon="11.03138"><ele>594.0</ele><time>2026-04-03T13:36:58.57Z</time></trkpt><trkpt lat="44.3502633" lon="11.0314567"><ele>595.3333333333334</ele><time>2026-04-03T13:36:59.569Z</time></trkpt><trkpt lat="44.3502117" lon="11.0315417"><ele>596.6666666666667</ele><time>2026-04-03T13:37:00.604Z</time></trkpt><trkpt lat="44.3501733" lon="11.0316367"><ele>598.0</ele><time>2026-04-03T13:37:01.571Z</time></trkpt><trkpt lat="44.35015" lon="11.0317383"><ele>598.0</ele><time>2026-04-03T13:37:02.568Z</time></trkpt><trkpt lat="44.350135" lon="11.0318467"><ele>598.0</ele><time>2026-04-03T13:37:03.572Z</time></trkpt><trkpt lat="44.3501233" lon="11.0319583"><ele>598.0</ele><time>2026-04-03T13:37:04.568Z</time></trkpt><trkpt lat="44.35011" lon="11.0320717"><ele>598.0</ele><time>2026-04-03T13:37:05.574Z</time></trkpt><trkpt lat="44.3500983" lon="11.0321767"><ele>598.0</ele><time>2026-04-03T13:37:06.57Z</time></trkpt><trkpt lat="44.3500867" lon="11.03228"><ele>598.0</ele><time>2026-04-03T13:37:07.574Z</time></trkpt><trkpt lat="44.350065" lon="11.0323817"><ele>597.8333333333334</ele><time>2026-04-03T13:37:08.569Z</time></trkpt><trkpt lat="44.3500417" lon="11.0324817"><ele>597.6666666666667</ele><time>2026-04-03T13:37:09.574Z</time></trkpt><trkpt lat="44.3500167" lon="11.0325867"><ele>597.5</ele><time>2026-04-03T13:37:10.569Z</time></trkpt><trkpt lat="44.3499967" lon="11.0326933"><ele>597.3333333333334</ele><time>2026-04-03T13:37:11.573Z</time></trkpt><trkpt lat="44.3499867" lon="11.032785"><ele>597.1666666666666</ele><time>2026-04-03T13:37:12.571Z</time></trkpt><trkpt lat="44.349945" lon="11.0329433"><ele>597.0</ele><time>2026-04-03T13:37:14.573Z</time></trkpt><trkpt lat="44.349905" lon="11.033015"><ele>597.0000000000001</ele><time>2026-04-03T13:37:15.574Z</time></trkpt><trkpt lat="44.3498617" lon="11.033085"><ele>597.0</ele><time>2026-04-03T13:37:16.569Z</time></trkpt><trkpt lat="44.3498183" lon="11.03316"><ele>597.0</ele><time>2026-04-03T13:37:17.573Z</time></trkpt><trkpt lat="44.3497733" lon="11.033235"><ele>597.0</ele><time>2026-04-03T13:37:18.575Z</time></trkpt><trkpt lat="44.34973" lon="11.0333"><ele>597.0</ele><time>2026-04-03T13:37:19.576Z</time></trkpt><trkpt lat="44.34966" lon="11.0334017"><ele>597.0000000000001</ele><time>2026-04-03T13:37:21.573Z</time></trkpt><trkpt lat="44.3496167" lon="11.0334817"><ele>597.0</ele><time>2026-04-03T13:37:23.575Z</time></trkpt><trkpt lat="44.3496117" lon="11.0335767"><ele>596.3333333333334</ele><time>2026-04-03T13:37:26.57Z</time></trkpt><trkpt lat="44.3496917" lon="11.0336167"><ele>595.6666666666666</ele><time>2026-04-03T13:37:28.57Z</time></trkpt><trkpt lat="44.349755" lon="11.0336183"><ele>595.0</ele><time>2026-04-03T13:37:29.572Z</time></trkpt><trkpt lat="44.3498183" lon="11.0336233"><ele>594.3333333333333</ele><time>2026-04-03T13:37:30.571Z</time></trkpt><trkpt lat="44.3498817" lon="11.0336317"><ele>593.6666666666666</ele><time>2026-04-03T13:37:31.572Z</time></trkpt><trkpt lat="44.349995" lon="11.0336933"><ele>593.0</ele><time>2026-04-03T13:37:33.567Z</time></trkpt><trkpt lat="44.3500617" lon="11.03375"><ele>593.0</ele><time>2026-04-03T13:37:34.574Z</time></trkpt><trkpt lat="44.350125" lon="11.0338033"><ele>593.0</ele><time>2026-04-03T13:37:35.567Z</time></trkpt><trkpt lat="44.3501883" lon="11.033845"><ele>593.0</ele><time>2026-04-03T13:37:36.575Z</time></trkpt><trkpt lat="44.3502633" lon="11.0338783"><ele>593.0</ele><time>2026-04-03T13:37:37.569Z</time></trkpt><trkpt lat="44.350345" lon="11.0339017"><ele>593.0</ele><time>2026-04-03T13:37:38.576Z</time></trkpt><trkpt lat="44.35043" lon="11.0339167"><ele>593.0</ele><time>2026-04-03T13:37:39.571Z</time></trkpt><trkpt lat="44.3505217" lon="11.0339367"><ele>590.0</ele><time>2026-04-03T13:37:40.568Z</time></trkpt><trkpt lat="44.3506117" lon="11.0339533"><ele>587.0</ele><time>2026-04-03T13:37:41.574Z</time></trkpt><trkpt lat="44.3507017" lon="11.0339667"><ele>584.0</ele><time>2026-04-03T13:37:42.57Z</time></trkpt><trkpt lat="44.35079" lon="11.0339683"><ele>581.0</ele><time>2026-04-03T13:37:43.566Z</time></trkpt><trkpt lat="44.3508783" lon="11.0339567"><ele>578.0</ele><time>2026-04-03T13:37:44.574Z</time></trkpt><trkpt lat="44.3509733" lon="11.03393"><ele>578.0</ele><time>2026-04-03T13:37:45.573Z</time></trkpt><trkpt lat="44.3510683" lon="11.0338817"><ele>578.0</ele><time>2026-04-03T13:37:46.569Z</time></trkpt><trkpt lat="44.35116" lon="11.03382"><ele>578.0</ele><time>2026-04-03T13:37:47.569Z</time></trkpt><trkpt lat="44.3512417" lon="11.033755"><ele>578.0</ele><time>2026-04-03T13:37:48.57Z</time></trkpt><trkpt lat="44.351325" lon="11.0336967"><ele>578.0</ele><time>2026-04-03T13:37:49.575Z</time></trkpt><trkpt lat="44.351405" lon="11.0336483"><ele>575.3333333333333</ele><time>2026-04-03T13:37:50.577Z</time></trkpt><trkpt lat="44.3514883" lon="11.0336217"><ele>572.6666666666666</ele><time>2026-04-03T13:37:51.571Z</time></trkpt><trkpt lat="44.3515667" lon="11.0336217"><ele>570.0</ele><time>2026-04-03T13:37:52.57Z</time></trkpt><trkpt lat="44.35164" lon="11.03365"><ele>567.3333333333334</ele><time>2026-04-03T13:37:53.57Z</time></trkpt><trkpt lat="44.3517083" lon="11.0337167"><ele>564.6666666666667</ele><time>2026-04-03T13:37:54.572Z</time></trkpt><trkpt lat="44.3517733" lon="11.0338133"><ele>562.0</ele><time>2026-04-03T13:37:55.573Z</time></trkpt><trkpt lat="44.3518367" lon="11.0339217"><ele>562.0</ele><time>2026-04-03T13:37:56.569Z</time></trkpt><trkpt lat="44.3519033" lon="11.0340217"><ele>562.0</ele><time>2026-04-03T13:37:57.58Z</time></trkpt><trkpt lat="44.3519717" lon="11.03411"><ele>562.0</ele><time>2026-04-03T13:37:58.57Z</time></trkpt><trkpt lat="44.3520417" lon="11.034195"><ele>562.0</ele><time>2026-04-03T13:37:59.573Z</time></trkpt><trkpt lat="44.3521117" lon="11.03428"><ele>562.0</ele><time>2026-04-03T13:38:00.57Z</time></trkpt><trkpt lat="44.35218" lon="11.0343617"><ele>559.2</ele><time>2026-04-03T13:38:01.571Z</time></trkpt><trkpt lat="44.352245" lon="11.0344517"><ele>556.4000000000001</ele><time>2026-04-03T13:38:02.571Z</time></trkpt><trkpt lat="44.3523067" lon="11.0345633"><ele>553.5999999999999</ele><time>2026-04-03T13:38:03.568Z</time></trkpt><trkpt lat="44.3523617" lon="11.0346883"><ele>550.8</ele><time>2026-04-03T13:38:04.567Z</time></trkpt><trkpt lat="44.3524133" lon="11.0348117"><ele>548.0</ele><time>2026-04-03T13:38:05.575Z</time></trkpt><trkpt lat="44.3524733" lon="11.034925"><ele>548.0</ele><time>2026-04-03T13:38:06.573Z</time></trkpt><trkpt lat="44.3525417" lon="11.0350283"><ele>548.0</ele><time>2026-04-03T13:38:07.575Z</time></trkpt><trkpt lat="44.35262" lon="11.0351283"><ele>548.0</ele><time>2026-04-03T13:38:08.568Z</time></trkpt><trkpt lat="44.3527017" lon="11.03523"><ele>548.0</ele><time>2026-04-03T13:38:09.571Z</time></trkpt><trkpt lat="44.35279" lon="11.0353283"><ele>548.0</ele><time>2026-04-03T13:38:10.57Z</time></trkpt><trkpt lat="44.35288" lon="11.035425"><ele>548.0</ele><time>2026-04-03T13:38:11.576Z</time></trkpt><trkpt lat="44.3529633" lon="11.035515"><ele>548.0</ele><time>2026-04-03T13:38:12.573Z</time></trkpt><trkpt lat="44.353045" lon="11.035605"><ele>548.0</ele><time>2026-04-03T13:38:13.571Z</time></trkpt><trkpt lat="44.35312" lon="11.0357033"><ele>548.0</ele><time>2026-04-03T13:38:14.573Z</time></trkpt><trkpt lat="44.3531817" lon="11.0358067"><ele>548.0</ele><time>2026-04-03T13:38:15.568Z</time></trkpt><trkpt lat="44.3532367" lon="11.0359"><ele>546.1666666666666</ele><time>2026-04-03T13:38:16.572Z</time></trkpt><trkpt lat="44.3532933" lon="11.0359767"><ele>544.3333333333333</ele><time>2026-04-03T13:38:17.566Z</time></trkpt><trkpt lat="44.3533617" lon="11.0360283"><ele>542.5</ele><time>2026-04-03T13:38:18.574Z</time></trkpt><trkpt lat="44.353445" lon="11.0360167"><ele>540.6666666666666</ele><time>2026-04-03T13:38:19.571Z</time></trkpt><trkpt lat="44.35353" lon="11.0359767"><ele>538.8333333333334</ele><time>2026-04-03T13:38:20.574Z</time></trkpt><trkpt lat="44.35361" lon="11.0359083"><ele>537.0</ele><time>2026-04-03T13:38:21.572Z</time></trkpt><trkpt lat="44.353685" lon="11.03584"><ele>537.0</ele><time>2026-04-03T13:38:22.567Z</time></trkpt><trkpt lat="44.35375" lon="11.0357817"><ele>537.0</ele><time>2026-04-03T13:38:23.57Z</time></trkpt><trkpt lat="44.3538083" lon="11.0357317"><ele>537.0</ele><time>2026-04-03T13:38:24.575Z</time></trkpt><trkpt lat="44.353915" lon="11.0356733"><ele>537.0</ele><time>2026-04-03T13:38:26.578Z</time></trkpt><trkpt lat="44.3540083" lon="11.0356933"><ele>537.0</ele><time>2026-04-03T13:38:28.575Z</time></trkpt><trkpt lat="44.3540333" lon="11.035845"><ele>535.0</ele><time>2026-04-03T13:38:30.575Z</time></trkpt><trkpt lat="44.3540133" lon="11.035945"><ele>533.0</ele><time>2026-04-03T13:38:31.574Z</time></trkpt><trkpt lat="44.3539867" lon="11.0360567"><ele>531.0</ele><time>2026-04-03T13:38:32.583Z</time></trkpt><trkpt lat="44.3539667" lon="11.0361717"><ele>529.0</ele><time>2026-04-03T13:38:33.571Z</time></trkpt><trkpt lat="44.3539583" lon="11.0362817"><ele>527.0</ele><time>2026-04-03T13:38:34.569Z</time></trkpt><trkpt lat="44.3539617" lon="11.03639"><ele>525.0</ele><time>2026-04-03T13:38:35.571Z</time></trkpt><trkpt lat="44.3539833" lon="11.0364933"><ele>525.0</ele><time>2026-04-03T13:38:36.57Z</time></trkpt><trkpt lat="44.3540233" lon="11.03659"><ele>525.0</ele><time>2026-04-03T13:38:37.576Z</time></trkpt><trkpt lat="44.354075" lon="11.036675"><ele>525.0</ele><time>2026-04-03T13:38:38.572Z</time></trkpt><trkpt lat="44.3541333" lon="11.0367483"><ele>525.0</ele><time>2026-04-03T13:38:39.575Z</time></trkpt><trkpt lat="44.3542" lon="11.036805"><ele>525.0</ele><time>2026-04-03T13:38:40.569Z</time></trkpt><trkpt lat="44.35428" lon="11.0368333"><ele>525.0</ele><time>2026-04-03T13:38:41.576Z</time></trkpt><trkpt lat="44.3543683" lon="11.0368417"><ele>523.6666666666666</ele><time>2026-04-03T13:38:42.568Z</time></trkpt><trkpt lat="44.354455" lon="11.03684"><ele>522.3333333333334</ele><time>2026-04-03T13:38:43.57Z</time></trkpt><trkpt lat="44.354535" lon="11.0368417"><ele>521.0</ele><time>2026-04-03T13:38:44.569Z</time></trkpt><trkpt lat="44.3546133" lon="11.0368533"><ele>519.6666666666667</ele><time>2026-04-03T13:38:45.57Z</time></trkpt><trkpt lat="44.3546817" lon="11.036885"><ele>518.3333333333334</ele><time>2026-04-03T13:38:46.57Z</time></trkpt><trkpt lat="44.3547383" lon="11.0369433"><ele>517.0</ele><time>2026-04-03T13:38:47.57Z</time></trkpt><trkpt lat="44.354775" lon="11.0370617"><ele>514.6</ele><time>2026-04-03T13:38:48.572Z</time></trkpt><trkpt lat="44.3548133" lon="11.03719"><ele>512.2</ele><time>2026-04-03T13:38:49.568Z</time></trkpt><trkpt lat="44.35485" lon="11.0373317"><ele>509.8</ele><time>2026-04-03T13:38:50.568Z</time></trkpt><trkpt lat="44.3548867" lon="11.03747"><ele>507.4</ele><time>2026-04-03T13:38:51.567Z</time></trkpt><trkpt lat="44.3549233" lon="11.0376033"><ele>505.0</ele><time>2026-04-03T13:38:52.568Z</time></trkpt><trkpt lat="44.354965" lon="11.03774"><ele>504.8</ele><time>2026-04-03T13:38:53.57Z</time></trkpt><trkpt lat="44.355015" lon="11.037875"><ele>504.6</ele><time>2026-04-03T13:38:54.569Z</time></trkpt><trkpt lat="44.3550667" lon="11.0380017"><ele>504.4</ele><time>2026-04-03T13:38:55.575Z</time></trkpt><trkpt lat="44.3551267" lon="11.03812"><ele>504.2</ele><time>2026-04-03T13:38:56.573Z</time></trkpt><trkpt lat="44.3551967" lon="11.03823"><ele>504.0</ele><time>2026-04-03T13:38:57.572Z</time></trkpt><trkpt lat="44.3552833" lon="11.0383317"><ele>502.75</ele><time>2026-04-03T13:38:58.568Z</time></trkpt><trkpt lat="44.355385" lon="11.03842"><ele>501.5</ele><time>2026-04-03T13:38:59.573Z</time></trkpt><trkpt lat="44.3554917" lon="11.0385067"><ele>500.25</ele><time>2026-04-03T13:39:00.57Z</time></trkpt><trkpt lat="44.3555967" lon="11.0385917"><ele>499.0</ele><time>2026-04-03T13:39:01.568Z</time></trkpt><trkpt lat="44.3556967" lon="11.03868"><ele>497.5</ele><time>2026-04-03T13:39:02.577Z</time></trkpt><trkpt lat="44.3558" lon="11.0387717"><ele>496.0</ele><time>2026-04-03T13:39:03.576Z</time></trkpt><trkpt lat="44.3559017" lon="11.0388683"><ele>494.5</ele><time>2026-04-03T13:39:04.568Z</time></trkpt><trkpt lat="44.3559983" lon="11.0389633"><ele>493.0</ele><time>2026-04-03T13:39:05.571Z</time></trkpt><trkpt lat="44.3560933" lon="11.0390533"><ele>493.0</ele><time>2026-04-03T13:39:06.569Z</time></trkpt><trkpt lat="44.356195" lon="11.0391317"><ele>493.0</ele><time>2026-04-03T13:39:07.574Z</time></trkpt><trkpt lat="44.35631" lon="11.0391917"><ele>493.0</ele><time>2026-04-03T13:39:08.57Z</time></trkpt><trkpt lat="44.35644" lon="11.03923"><ele>493.0</ele><time>2026-04-03T13:39:09.573Z</time></trkpt><trkpt lat="44.3565717" lon="11.0392767"><ele>490.5</ele><time>2026-04-03T13:39:10.573Z</time></trkpt><trkpt lat="44.3567083" lon="11.039345"><ele>488.0</ele><time>2026-04-03T13:39:11.575Z</time></trkpt><trkpt lat="44.35684" lon="11.039445"><ele>485.5</ele><time>2026-04-03T13:39:12.571Z</time></trkpt><trkpt lat="44.3569567" lon="11.0395617"><ele>483.0</ele><time>2026-04-03T13:39:13.576Z</time></trkpt><trkpt lat="44.3570517" lon="11.03969"><ele>483.0</ele><time>2026-04-03T13:39:14.585Z</time></trkpt><trkpt lat="44.3571417" lon="11.0398167"><ele>483.0</ele><time>2026-04-03T13:39:15.566Z</time></trkpt><trkpt lat="44.3572367" lon="11.03993"><ele>483.0</ele><time>2026-04-03T13:39:16.568Z</time></trkpt><trkpt lat="44.357345" lon="11.0400333"><ele>483.0</ele><time>2026-04-03T13:39:17.57Z</time></trkpt><trkpt lat="44.35747" lon="11.0401217"><ele>478.66666666666663</ele><time>2026-04-03T13:39:18.572Z</time></trkpt><trkpt lat="44.3576067" lon="11.040205"><ele>474.3333333333333</ele><time>2026-04-03T13:39:19.575Z</time></trkpt><trkpt lat="44.3577433" lon="11.040305"><ele>470.0</ele><time>2026-04-03T13:39:20.571Z</time></trkpt><trkpt lat="44.3578767" lon="11.0404267"><ele>470.0</ele><time>2026-04-03T13:39:21.571Z</time></trkpt><trkpt lat="44.358" lon="11.0405567"><ele>470.0</ele><time>2026-04-03T13:39:22.569Z</time></trkpt><trkpt lat="44.3581233" lon="11.040675"><ele>470.0</ele><time>2026-04-03T13:39:23.572Z</time></trkpt><trkpt lat="44.3582517" lon="11.0407783"><ele>468.25</ele><time>2026-04-03T13:39:24.573Z</time></trkpt><trkpt lat="44.3583833" lon="11.0408683"><ele>466.5</ele><time>2026-04-03T13:39:25.572Z</time></trkpt><trkpt lat="44.3585083" lon="11.0409533"><ele>464.75</ele><time>2026-04-03T13:39:26.575Z</time></trkpt><trkpt lat="44.358625" lon="11.0410483"><ele>463.0</ele><time>2026-04-03T13:39:27.573Z</time></trkpt><trkpt lat="44.35873" lon="11.0411683"><ele>463.0</ele><time>2026-04-03T13:39:28.575Z</time></trkpt><trkpt lat="44.35882" lon="11.041315"><ele>463.0</ele><time>2026-04-03T13:39:29.571Z</time></trkpt><trkpt lat="44.358895" lon="11.0414633"><ele>463.0</ele><time>2026-04-03T13:39:30.575Z</time></trkpt><trkpt lat="44.3589717" lon="11.0415883"><ele>463.0</ele><time>2026-04-03T13:39:31.571Z</time></trkpt><trkpt lat="44.3590567" lon="11.0416983"><ele>462.2</ele><time>2026-04-03T13:39:32.572Z</time></trkpt><trkpt lat="44.3591417" lon="11.0417933"><ele>461.4</ele><time>2026-04-03T13:39:33.577Z</time></trkpt><trkpt lat="44.3592267" lon="11.0418817"><ele>460.59999999999997</ele><time>2026-04-03T13:39:34.575Z</time></trkpt><trkpt lat="44.35931" lon="11.0419783"><ele>459.79999999999995</ele><time>2026-04-03T13:39:35.571Z</time></trkpt><trkpt lat="44.3593983" lon="11.0420817"><ele>459.0</ele><time>2026-04-03T13:39:36.576Z</time></trkpt><trkpt lat="44.3594833" lon="11.042195"><ele>459.0</ele><time>2026-04-03T13:39:37.575Z</time></trkpt><trkpt lat="44.3595667" lon="11.0423183"><ele>459.0</ele><time>2026-04-03T13:39:38.574Z</time></trkpt><trkpt lat="44.35965" lon="11.0424467"><ele>459.0</ele><time>2026-04-03T13:39:39.57Z</time></trkpt><trkpt lat="44.3597367" lon="11.0425817"><ele>459.0</ele><time>2026-04-03T13:39:40.571Z</time></trkpt><trkpt lat="44.3598283" lon="11.0427217"><ele>458.25</ele><time>2026-04-03T13:39:41.57Z</time></trkpt><trkpt lat="44.35992" lon="11.0428717"><ele>457.5</ele><time>2026-04-03T13:39:42.577Z</time></trkpt><trkpt lat="44.3600133" lon="11.043025"><ele>456.75</ele><time>2026-04-03T13:39:43.573Z</time></trkpt><trkpt lat="44.36011" lon="11.0431733"><ele>456.0</ele><time>2026-04-03T13:39:44.577Z</time></trkpt><trkpt lat="44.3602083" lon="11.0433217"><ele>454.75</ele><time>2026-04-03T13:39:45.575Z</time></trkpt><trkpt lat="44.3603067" lon="11.0434767"><ele>453.5</ele><time>2026-04-03T13:39:46.57Z</time></trkpt><trkpt lat="44.3604033" lon="11.043635"><ele>452.25</ele><time>2026-04-03T13:39:47.571Z</time></trkpt><trkpt lat="44.3604967" lon="11.04379"><ele>451.0</ele><time>2026-04-03T13:39:48.567Z</time></trkpt><trkpt lat="44.3605867" lon="11.0439433"><ele>450.0</ele><time>2026-04-03T13:39:49.578Z</time></trkpt><trkpt lat="44.36067" lon="11.044095"><ele>449.0</ele><time>2026-04-03T13:39:50.577Z</time></trkpt><trkpt lat="44.3607467" lon="11.0442483"><ele>448.0</ele><time>2026-04-03T13:39:51.583Z</time></trkpt><trkpt lat="44.3608083" lon="11.0444083"><ele>447.0</ele><time>2026-04-03T13:39:52.575Z</time></trkpt><trkpt lat="44.3608467" lon="11.04458"><ele>446.0</ele><time>2026-04-03T13:39:53.574Z</time></trkpt><trkpt lat="44.3608683" lon="11.0447667"><ele>445.0</ele><time>2026-04-03T13:39:54.572Z</time></trkpt><trkpt lat="44.3608867" lon="11.0449467"><ele>444.0</ele><time>2026-04-03T13:39:55.572Z</time></trkpt><trkpt lat="44.3609133" lon="11.045125"><ele>443.0</ele><time>2026-04-03T13:39:56.574Z</time></trkpt><trkpt lat="44.360955" lon="11.0453033"><ele>441.25</ele><time>2026-04-03T13:39:57.576Z</time></trkpt><trkpt lat="44.3610083" lon="11.0454733"><ele>439.5</ele><time>2026-04-03T13:39:58.571Z</time></trkpt><trkpt lat="44.3610683" lon="11.0456417"><ele>437.75</ele><time>2026-04-03T13:39:59.575Z</time></trkpt><trkpt lat="44.3611367" lon="11.0458017"><ele>436.0</ele><time>2026-04-03T13:40:00.57Z</time></trkpt><trkpt lat="44.3612017" lon="11.04596"><ele>433.25</ele><time>2026-04-03T13:40:01.571Z</time></trkpt><trkpt lat="44.36126" lon="11.04612"><ele>430.5</ele><time>2026-04-03T13:40:02.576Z</time></trkpt><trkpt lat="44.36131" lon="11.0462833"><ele>427.75</ele><time>2026-04-03T13:40:03.571Z</time></trkpt><trkpt lat="44.361345" lon="11.0464483"><ele>425.0</ele><time>2026-04-03T13:40:04.57Z</time></trkpt><trkpt lat="44.3613817" lon="11.0466083"><ele>424.2</ele><time>2026-04-03T13:40:05.569Z</time></trkpt><trkpt lat="44.3614233" lon="11.0467517"><ele>423.4</ele><time>2026-04-03T13:40:06.571Z</time></trkpt><trkpt lat="44.3614767" lon="11.0468717"><ele>422.6</ele><time>2026-04-03T13:40:07.57Z</time></trkpt><trkpt lat="44.3615567" lon="11.046965"><ele>421.8</ele><time>2026-04-03T13:40:08.571Z</time></trkpt><trkpt lat="44.36164" lon="11.0470417"><ele>421.0</ele><time>2026-04-03T13:40:09.571Z</time></trkpt><trkpt lat="44.3617333" lon="11.0471"><ele>421.0</ele><time>2026-04-03T13:40:10.574Z</time></trkpt><trkpt lat="44.3618317" lon="11.0471517"><ele>421.0</ele><time>2026-04-03T13:40:11.568Z</time></trkpt><trkpt lat="44.3619317" lon="11.0472083"><ele>421.0</ele><time>2026-04-03T13:40:12.57Z</time></trkpt><trkpt lat="44.3620233" lon="11.0472667"><ele>421.0</ele><time>2026-04-03T13:40:13.572Z</time></trkpt><trkpt lat="44.3621133" lon="11.0473283"><ele>421.0</ele><time>2026-04-03T13:40:14.578Z</time></trkpt><trkpt lat="44.362195" lon="11.0473983"><ele>419.6666666666667</ele><time>2026-04-03T13:40:15.568Z</time></trkpt><trkpt lat="44.362265" lon="11.04747"><ele>418.33333333333337</ele><time>2026-04-03T13:40:16.574Z</time></trkpt><trkpt lat="44.3623233" lon="11.0475383"><ele>417.0</ele><time>2026-04-03T13:40:17.576Z</time></trkpt><trkpt lat="44.3623617" lon="11.0476133"><ele>415.66666666666663</ele><time>2026-04-03T13:40:18.574Z</time></trkpt><trkpt lat="44.3623183" lon="11.047755"><ele>414.3333333333333</ele><time>2026-04-03T13:40:20.573Z</time></trkpt><trkpt lat="44.3622533" lon="11.0477917"><ele>413.0</ele><time>2026-04-03T13:40:21.578Z</time></trkpt><trkpt lat="44.362165" lon="11.0477967"><ele>413.0</ele><time>2026-04-03T13:40:22.576Z</time></trkpt><trkpt lat="44.3620733" lon="11.0477917"><ele>413.0</ele><time>2026-04-03T13:40:23.57Z</time></trkpt><trkpt lat="44.3619917" lon="11.047785"><ele>413.0</ele><time>2026-04-03T13:40:24.573Z</time></trkpt><trkpt lat="44.36192" lon="11.0477867"><ele>413.0</ele><time>2026-04-03T13:40:25.572Z</time></trkpt><trkpt lat="44.3618083" lon="11.0478483"><ele>413.0</ele><time>2026-04-03T13:40:27.568Z</time></trkpt><trkpt lat="44.361755" lon="11.0479817"><ele>413.0</ele><time>2026-04-03T13:40:29.578Z</time></trkpt><trkpt lat="44.3618133" lon="11.0481283"><ele>413.0</ele><time>2026-04-03T13:40:31.569Z</time></trkpt><trkpt lat="44.36189" lon="11.0481817"><ele>413.0</ele><time>2026-04-03T13:40:32.572Z</time></trkpt><trkpt lat="44.3619717" lon="11.0482217"><ele>413.0</ele><time>2026-04-03T13:40:33.574Z</time></trkpt><trkpt lat="44.3620767" lon="11.04825"><ele>413.0</ele><time>2026-04-03T13:40:34.57Z</time></trkpt><trkpt lat="44.3621783" lon="11.0482883"><ele>410.59999999999997</ele><time>2026-04-03T13:40:35.573Z</time></trkpt><trkpt lat="44.362275" lon="11.04834"><ele>408.2</ele><time>2026-04-03T13:40:36.57Z</time></trkpt><trkpt lat="44.362375" lon="11.0484017"><ele>405.8</ele><time>2026-04-03T13:40:37.576Z</time></trkpt><trkpt lat="44.3624767" lon="11.0484667"><ele>403.4</ele><time>2026-04-03T13:40:38.575Z</time></trkpt><trkpt lat="44.3625767" lon="11.0485317"><ele>401.0</ele><time>2026-04-03T13:40:39.572Z</time></trkpt><trkpt lat="44.3626733" lon="11.0486017"><ele>400.99999999999994</ele><time>2026-04-03T13:40:40.578Z</time></trkpt><trkpt lat="44.3627633" lon="11.0486667"><ele>401.0</ele><time>2026-04-03T13:40:41.567Z</time></trkpt><trkpt lat="44.36285" lon="11.0487183"><ele>401.0</ele><time>2026-04-03T13:40:42.576Z</time></trkpt><trkpt lat="44.3629233" lon="11.0487617"><ele>401.0</ele><time>2026-04-03T13:40:43.572Z</time></trkpt><trkpt lat="44.362985" lon="11.048805"><ele>400.99999999999994</ele><time>2026-04-03T13:40:44.576Z</time></trkpt><trkpt lat="44.363055" lon="11.0489033"><ele>401.0</ele><time>2026-04-03T13:40:46.573Z</time></trkpt><trkpt lat="44.3630233" lon="11.0489983"><ele>400.99999999999994</ele><time>2026-04-03T13:40:48.576Z</time></trkpt><trkpt lat="44.3629317" lon="11.0490217"><ele>401.0</ele><time>2026-04-03T13:40:50.572Z</time></trkpt><trkpt lat="44.3628733" lon="11.0489767"><ele>401.0</ele><time>2026-04-03T13:40:51.573Z</time></trkpt><trkpt lat="44.3627933" lon="11.048925"><ele>401.0</ele><time>2026-04-03T13:40:52.57Z</time></trkpt><trkpt lat="44.3627" lon="11.0488783"><ele>400.99999999999994</ele><time>2026-04-03T13:40:53.57Z</time></trkpt><trkpt lat="44.3626233" lon="11.0488467"><ele>401.0</ele><time>2026-04-03T13:40:54.574Z</time></trkpt><trkpt lat="44.3625583" lon="11.04883"><ele>400.99999999999994</ele><time>2026-04-03T13:40:55.578Z</time></trkpt><trkpt lat="44.362455" lon="11.0488383"><ele>401.0</ele><time>2026-04-03T13:40:57.575Z</time></trkpt><trkpt lat="44.362425" lon="11.0489867"><ele>401.0</ele><time>2026-04-03T13:40:59.572Z</time></trkpt><trkpt lat="44.362435" lon="11.0490783"><ele>401.0</ele><time>2026-04-03T13:41:00.575Z</time></trkpt><trkpt lat="44.3624633" lon="11.0491783"><ele>400.99999999999994</ele><time>2026-04-03T13:41:01.574Z</time></trkpt><trkpt lat="44.3625167" lon="11.0492817"><ele>401.0</ele><time>2026-04-03T13:41:02.572Z</time></trkpt><trkpt lat="44.3625767" lon="11.0493883"><ele>398.0</ele><time>2026-04-03T13:41:03.575Z</time></trkpt><trkpt lat="44.36265" lon="11.04949"><ele>395.0</ele><time>2026-04-03T13:41:04.569Z</time></trkpt><trkpt lat="44.362735" lon="11.0495867"><ele>392.0</ele><time>2026-04-03T13:41:05.57Z</time></trkpt><trkpt lat="44.3628283" lon="11.0496833"><ele>389.0</ele><time>2026-04-03T13:41:06.572Z</time></trkpt><trkpt lat="44.36293" lon="11.0497833"><ele>387.5</ele><time>2026-04-03T13:41:07.571Z</time></trkpt><trkpt lat="44.3630317" lon="11.0498783"><ele>386.0</ele><time>2026-04-03T13:41:08.573Z</time></trkpt><trkpt lat="44.3631317" lon="11.049965"><ele>384.5</ele><time>2026-04-03T13:41:09.572Z</time></trkpt><trkpt lat="44.3632283" lon="11.0500483"><ele>383.0</ele><time>2026-04-03T13:41:10.572Z</time></trkpt><trkpt lat="44.3633133" lon="11.0501367"><ele>382.33333333333337</ele><time>2026-04-03T13:41:11.574Z</time></trkpt><trkpt lat="44.3633917" lon="11.050235"><ele>381.6666666666667</ele><time>2026-04-03T13:41:12.569Z</time></trkpt><trkpt lat="44.3634567" lon="11.0503383"><ele>381.0</ele><time>2026-04-03T13:41:13.572Z</time></trkpt><trkpt lat="44.3634967" lon="11.0504433"><ele>380.3333333333333</ele><time>2026-04-03T13:41:14.571Z</time></trkpt><trkpt lat="44.36352" lon="11.0505433"><ele>379.66666666666663</ele><time>2026-04-03T13:41:15.578Z</time></trkpt><trkpt lat="44.3635183" lon="11.0506433"><ele>379.0</ele><time>2026-04-03T13:41:16.572Z</time></trkpt><trkpt lat="44.3634983" lon="11.0507367"><ele>377.0</ele><time>2026-04-03T13:41:17.577Z</time></trkpt><trkpt lat="44.3634483" lon="11.050815"><ele>375.0</ele><time>2026-04-03T13:41:18.571Z</time></trkpt><trkpt lat="44.363375" lon="11.0508667"><ele>373.0</ele><time>2026-04-03T13:41:19.577Z</time></trkpt><trkpt lat="44.3632733" lon="11.0509067"><ele>371.0</ele><time>2026-04-03T13:41:20.573Z</time></trkpt><trkpt lat="44.3631583" lon="11.0509667"><ele>369.0</ele><time>2026-04-03T13:41:21.568Z</time></trkpt><trkpt lat="44.3630417" lon="11.05103"><ele>368.0</ele><time>2026-04-03T13:41:22.57Z</time></trkpt><trkpt lat="44.3629267" lon="11.0510883"><ele>367.0</ele><time>2026-04-03T13:41:23.571Z</time></trkpt><trkpt lat="44.3628117" lon="11.051145"><ele>366.0</ele><time>2026-04-03T13:41:24.574Z</time></trkpt><trkpt lat="44.3626933" lon="11.0512017"><ele>365.0</ele><time>2026-04-03T13:41:25.58Z</time></trkpt><trkpt lat="44.36257" lon="11.051255"><ele>365.0</ele><time>2026-04-03T13:41:26.571Z</time></trkpt><trkpt lat="44.36245" lon="11.051305"><ele>365.0</ele><time>2026-04-03T13:41:27.572Z</time></trkpt><trkpt lat="44.36234" lon="11.0513533"><ele>365.0</ele><time>2026-04-03T13:41:28.57Z</time></trkpt><trkpt lat="44.36224" lon="11.0513933"><ele>365.0</ele><time>2026-04-03T13:41:29.576Z</time></trkpt><trkpt lat="44.362145" lon="11.0514267"><ele>365.0</ele><time>2026-04-03T13:41:30.572Z</time></trkpt><trkpt lat="44.3620617" lon="11.0514567"><ele>363.83333333333337</ele><time>2026-04-03T13:41:31.578Z</time></trkpt><trkpt lat="44.3619883" lon="11.0514833"><ele>362.6666666666667</ele><time>2026-04-03T13:41:32.572Z</time></trkpt><trkpt lat="44.361925" lon="11.0515133"><ele>361.5</ele><time>2026-04-03T13:41:33.571Z</time></trkpt><trkpt lat="44.36187" lon="11.05156"><ele>360.3333333333333</ele><time>2026-04-03T13:41:34.571Z</time></trkpt><trkpt lat="44.36185" lon="11.051685"><ele>359.16666666666663</ele><time>2026-04-03T13:41:36.574Z</time></trkpt><trkpt lat="44.3619333" lon="11.0518133"><ele>358.0</ele><time>2026-04-03T13:41:38.572Z</time></trkpt><trkpt lat="44.3619933" lon="11.0518583"><ele>356.66666666666663</ele><time>2026-04-03T13:41:39.572Z</time></trkpt><trkpt lat="44.3620633" lon="11.0518883"><ele>355.3333333333333</ele><time>2026-04-03T13:41:40.573Z</time></trkpt><trkpt lat="44.36213" lon="11.0519183"><ele>354.0</ele><time>2026-04-03T13:41:41.576Z</time></trkpt><trkpt lat="44.3622483" lon="11.0519783"><ele>352.6666666666667</ele><time>2026-04-03T13:41:43.575Z</time></trkpt><trkpt lat="44.3623117" lon="11.052005"><ele>351.33333333333337</ele><time>2026-04-03T13:41:44.577Z</time></trkpt><trkpt lat="44.362385" lon="11.05203"><ele>350.0</ele><time>2026-04-03T13:41:45.575Z</time></trkpt><trkpt lat="44.3624733" lon="11.0520467"><ele>350.0</ele><time>2026-04-03T13:41:46.574Z</time></trkpt><trkpt lat="44.3625833" lon="11.05206"><ele>350.0</ele><time>2026-04-03T13:41:47.576Z</time></trkpt><trkpt lat="44.362695" lon="11.0520683"><ele>350.0</ele><time>2026-04-03T13:41:48.572Z</time></trkpt><trkpt lat="44.3628033" lon="11.052075"><ele>350.0</ele><time>2026-04-03T13:41:49.573Z</time></trkpt><trkpt lat="44.3629083" lon="11.0520717"><ele>350.0</ele><time>2026-04-03T13:41:50.577Z</time></trkpt><trkpt lat="44.3630133" lon="11.052065"><ele>350.4</ele><time>2026-04-03T13:41:51.574Z</time></trkpt><trkpt lat="44.3631167" lon="11.0520667"><ele>350.8</ele><time>2026-04-03T13:41:52.571Z</time></trkpt><trkpt lat="44.3632267" lon="11.052065"><ele>351.20000000000005</ele><time>2026-04-03T13:41:53.576Z</time></trkpt><trkpt lat="44.3633417" lon="11.0520667"><ele>351.6</ele><time>2026-04-03T13:41:54.569Z</time></trkpt><trkpt lat="44.3634583" lon="11.0520783"><ele>352.0</ele><time>2026-04-03T13:41:55.568Z</time></trkpt><trkpt lat="44.3635783" lon="11.0521067"><ele>352.0</ele><time>2026-04-03T13:41:56.578Z</time></trkpt><trkpt lat="44.3636967" lon="11.0521467"><ele>352.0</ele><time>2026-04-03T13:41:57.57Z</time></trkpt><trkpt lat="44.36382" lon="11.0521983"><ele>352.0</ele><time>2026-04-03T13:41:58.573Z</time></trkpt><trkpt lat="44.3639467" lon="11.052255"><ele>352.0</ele><time>2026-04-03T13:41:59.572Z</time></trkpt><trkpt lat="44.3640783" lon="11.0523083"><ele>352.75</ele><time>2026-04-03T13:42:00.576Z</time></trkpt><trkpt lat="44.364215" lon="11.052355"><ele>353.5</ele><time>2026-04-03T13:42:01.57Z</time></trkpt><trkpt lat="44.3643483" lon="11.0524"><ele>354.25</ele><time>2026-04-03T13:42:02.577Z</time></trkpt><trkpt lat="44.364485" lon="11.0524333"><ele>355.0</ele><time>2026-04-03T13:42:03.572Z</time></trkpt><trkpt lat="44.3646217" lon="11.0524717"><ele>349.25</ele><time>2026-04-03T13:42:04.571Z</time></trkpt><trkpt lat="44.3647583" lon="11.052505"><ele>343.5</ele><time>2026-04-03T13:42:05.571Z</time></trkpt><trkpt lat="44.3648967" lon="11.0525333"><ele>337.75</ele><time>2026-04-03T13:42:06.569Z</time></trkpt><trkpt lat="44.36503" lon="11.0525533"><ele>332.0</ele><time>2026-04-03T13:42:07.569Z</time></trkpt><trkpt lat="44.3651567" lon="11.0525717"><ele>332.0</ele><time>2026-04-03T13:42:08.578Z</time></trkpt><trkpt lat="44.3652783" lon="11.05259"><ele>332.0</ele><time>2026-04-03T13:42:09.574Z</time></trkpt><trkpt lat="44.3653883" lon="11.0526067"><ele>332.0</ele><time>2026-04-03T13:42:10.573Z</time></trkpt><trkpt lat="44.3655" lon="11.0526433"><ele>332.0</ele><time>2026-04-03T13:42:11.574Z</time></trkpt><trkpt lat="44.3656033" lon="11.0526967"><ele>332.75</ele><time>2026-04-03T13:42:12.572Z</time></trkpt><trkpt lat="44.365705" lon="11.05278"><ele>333.5</ele><time>2026-04-03T13:42:13.571Z</time></trkpt><trkpt lat="44.3657933" lon="11.0528933"><ele>334.25</ele><time>2026-04-03T13:42:14.571Z</time></trkpt><trkpt lat="44.3658583" lon="11.0530317"><ele>335.0</ele><time>2026-04-03T13:42:15.572Z</time></trkpt><trkpt lat="44.3659017" lon="11.0531917"><ele>334.5</ele><time>2026-04-03T13:42:16.571Z</time></trkpt><trkpt lat="44.3659317" lon="11.0533667"><ele>334.0</ele><time>2026-04-03T13:42:17.57Z</time></trkpt><trkpt lat="44.3659483" lon="11.0535517"><ele>333.5</ele><time>2026-04-03T13:42:18.571Z</time></trkpt><trkpt lat="44.3659667" lon="11.0537433"><ele>333.0</ele><time>2026-04-03T13:42:19.569Z</time></trkpt><trkpt lat="44.3659917" lon="11.0539383"><ele>332.5</ele><time>2026-04-03T13:42:20.57Z</time></trkpt><trkpt lat="44.3660233" lon="11.0541383"><ele>332.0</ele><time>2026-04-03T13:42:21.57Z</time></trkpt><trkpt lat="44.3660733" lon="11.0543317"><ele>331.5</ele><time>2026-04-03T13:42:22.573Z</time></trkpt><trkpt lat="44.3661417" lon="11.054515"><ele>331.0</ele><time>2026-04-03T13:42:23.573Z</time></trkpt><trkpt lat="44.3662267" lon="11.054685"><ele>331.0</ele><time>2026-04-03T13:42:24.574Z</time></trkpt><trkpt lat="44.36633" lon="11.0548383"><ele>331.0</ele><time>2026-04-03T13:42:25.571Z</time></trkpt><trkpt lat="44.36644" lon="11.0549883"><ele>331.0</ele><time>2026-04-03T13:42:26.569Z</time></trkpt><trkpt lat="44.3665583" lon="11.055135"><ele>330.0</ele><time>2026-04-03T13:42:27.573Z</time></trkpt><trkpt lat="44.3666833" lon="11.0552767"><ele>329.0</ele><time>2026-04-03T13:42:28.574Z</time></trkpt><trkpt lat="44.3668033" lon="11.0554217"><ele>328.0</ele><time>2026-04-03T13:42:29.572Z</time></trkpt><trkpt lat="44.3669183" lon="11.0555667"><ele>328.0</ele><time>2026-04-03T13:42:30.57Z</time></trkpt><trkpt lat="44.36704" lon="11.0557083"><ele>328.0</ele><time>2026-04-03T13:42:31.57Z</time></trkpt><trkpt lat="44.36716" lon="11.055855"><ele>328.0</ele><time>2026-04-03T13:42:32.57Z</time></trkpt><trkpt lat="44.36728" lon="11.0559967"><ele>326.3333333333333</ele><time>2026-04-03T13:42:33.58Z</time></trkpt><trkpt lat="44.3673983" lon="11.0561333"><ele>324.6666666666667</ele><time>2026-04-03T13:42:34.572Z</time></trkpt><trkpt lat="44.36752" lon="11.0562717"><ele>323.0</ele><time>2026-04-03T13:42:35.572Z</time></trkpt><trkpt lat="44.3676417" lon="11.056415"><ele>323.0</ele><time>2026-04-03T13:42:36.573Z</time></trkpt><trkpt lat="44.367765" lon="11.0565617"><ele>323.0</ele><time>2026-04-03T13:42:37.572Z</time></trkpt><trkpt lat="44.3678933" lon="11.05671"><ele>323.0</ele><time>2026-04-03T13:42:38.572Z</time></trkpt><trkpt lat="44.36802" lon="11.0568617"><ele>323.0</ele><time>2026-04-03T13:42:39.573Z</time></trkpt><trkpt lat="44.3681483" lon="11.0570167"><ele>323.0</ele><time>2026-04-03T13:42:40.573Z</time></trkpt><trkpt lat="44.368275" lon="11.0571717"><ele>323.0</ele><time>2026-04-03T13:42:41.576Z</time></trkpt><trkpt lat="44.3684033" lon="11.0573283"><ele>321.6666666666667</ele><time>2026-04-03T13:42:42.573Z</time></trkpt><trkpt lat="44.368535" lon="11.057485"><ele>320.3333333333333</ele><time>2026-04-03T13:42:43.572Z</time></trkpt><trkpt lat="44.3686683" lon="11.0576467"><ele>319.0</ele><time>2026-04-03T13:42:44.572Z</time></trkpt><trkpt lat="44.368805" lon="11.0578083"><ele>318.3333333333333</ele><time>2026-04-03T13:42:45.574Z</time></trkpt><trkpt lat="44.3689383" lon="11.0579717"><ele>317.6666666666667</ele><time>2026-04-03T13:42:46.573Z</time></trkpt><trkpt lat="44.3690733" lon="11.058135"><ele>317.0</ele><time>2026-04-03T13:42:47.568Z</time></trkpt><trkpt lat="44.36921" lon="11.0582967"><ele>317.0</ele><time>2026-04-03T13:42:48.57Z</time></trkpt><trkpt lat="44.36935" lon="11.0584617"><ele>317.0</ele><time>2026-04-03T13:42:49.572Z</time></trkpt><trkpt lat="44.3694833" lon="11.0586233"><ele>317.0</ele><time>2026-04-03T13:42:50.574Z</time></trkpt><trkpt lat="44.3696117" lon="11.0587733"><ele>317.6666666666667</ele><time>2026-04-03T13:42:51.573Z</time></trkpt><trkpt lat="44.3697383" lon="11.058935"><ele>318.3333333333333</ele><time>2026-04-03T13:42:52.572Z</time></trkpt><trkpt lat="44.3698667" lon="11.0591"><ele>319.0</ele><time>2026-04-03T13:42:53.576Z</time></trkpt><trkpt lat="44.36999" lon="11.059265"><ele>317.66666666666663</ele><time>2026-04-03T13:42:54.569Z</time></trkpt><trkpt lat="44.370105" lon="11.0594417"><ele>316.3333333333333</ele><time>2026-04-03T13:42:55.575Z</time></trkpt><trkpt lat="44.3702083" lon="11.059635"><ele>315.0</ele><time>2026-04-03T13:42:56.573Z</time></trkpt><trkpt lat="44.3702983" lon="11.0598467"><ele>314.0</ele><time>2026-04-03T13:42:57.577Z</time></trkpt><trkpt lat="44.3703733" lon="11.0600767"><ele>313.0</ele><time>2026-04-03T13:42:58.575Z</time></trkpt><trkpt lat="44.370445" lon="11.0603167"><ele>312.0</ele><time>2026-04-03T13:42:59.572Z</time></trkpt><trkpt lat="44.3705167" lon="11.0605517"><ele>316.6666666666667</ele><time>2026-04-03T13:43:00.574Z</time></trkpt><trkpt lat="44.370585" lon="11.0607867"><ele>321.33333333333337</ele><time>2026-04-03T13:43:01.57Z</time></trkpt><trkpt lat="44.37065" lon="11.0610167"><ele>326.0</ele><time>2026-04-03T13:43:02.575Z</time></trkpt><trkpt lat="44.3707117" lon="11.0612417"><ele>326.0</ele><time>2026-04-03T13:43:03.57Z</time></trkpt><trkpt lat="44.3707733" lon="11.0614633"><ele>326.0</ele><time>2026-04-03T13:43:04.575Z</time></trkpt><trkpt lat="44.37084" lon="11.0616867"><ele>326.0</ele><time>2026-04-03T13:43:05.57Z</time></trkpt><trkpt lat="44.3709117" lon="11.0619167"><ele>322.6666666666667</ele><time>2026-04-03T13:43:06.577Z</time></trkpt><trkpt lat="44.370975" lon="11.062145"><ele>319.3333333333333</ele><time>2026-04-03T13:43:07.568Z</time></trkpt><trkpt lat="44.371035" lon="11.0623717"><ele>316.0</ele><time>2026-04-03T13:43:08.574Z</time></trkpt><trkpt lat="44.371105" lon="11.0625983"><ele>313.66666666666663</ele><time>2026-04-03T13:43:09.572Z</time></trkpt><trkpt lat="44.3711817" lon="11.06282"><ele>311.3333333333333</ele><time>2026-04-03T13:43:10.573Z</time></trkpt><trkpt lat="44.3712633" lon="11.063035"><ele>309.0</ele><time>2026-04-03T13:43:11.573Z</time></trkpt><trkpt lat="44.371355" lon="11.0632467"><ele>312.0</ele><time>2026-04-03T13:43:12.572Z</time></trkpt><trkpt lat="44.371455" lon="11.0634517"><ele>315.0</ele><time>2026-04-03T13:43:13.57Z</time></trkpt><trkpt lat="44.371565" lon="11.06365"><ele>318.0</ele><time>2026-04-03T13:43:14.571Z</time></trkpt><trkpt lat="44.3716833" lon="11.06384"><ele>318.0</ele><time>2026-04-03T13:43:15.57Z</time></trkpt><trkpt lat="44.3718117" lon="11.06402"><ele>318.0</ele><time>2026-04-03T13:43:16.571Z</time></trkpt><trkpt lat="44.37194" lon="11.0642"><ele>318.0</ele><time>2026-04-03T13:43:17.574Z</time></trkpt><trkpt lat="44.3720683" lon="11.0643767"><ele>321.3333333333333</ele><time>2026-04-03T13:43:18.569Z</time></trkpt><trkpt lat="44.3722" lon="11.06454"><ele>324.66666666666663</ele><time>2026-04-03T13:43:19.571Z</time></trkpt><trkpt lat="44.3723383" lon="11.0646983"><ele>328.0</ele><time>2026-04-03T13:43:20.576Z</time></trkpt><trkpt lat="44.3724767" lon="11.064855"><ele>321.3333333333333</ele><time>2026-04-03T13:43:21.572Z</time></trkpt><trkpt lat="44.3726117" lon="11.0650117"><ele>314.6666666666667</ele><time>2026-04-03T13:43:22.576Z</time></trkpt><trkpt lat="44.3727433" lon="11.0651667"><ele>308.0</ele><time>2026-04-03T13:43:23.578Z</time></trkpt><trkpt lat="44.37287" lon="11.0653183"><ele>308.0</ele><time>2026-04-03T13:43:24.571Z</time></trkpt><trkpt lat="44.373" lon="11.06546"><ele>308.0</ele><time>2026-04-03T13:43:25.57Z</time></trkpt><trkpt lat="44.37313" lon="11.0656"><ele>308.0</ele><time>2026-04-03T13:43:26.571Z</time></trkpt><trkpt lat="44.37327" lon="11.065715"><ele>307.0</ele><time>2026-04-03T13:43:27.571Z</time></trkpt><trkpt lat="44.37342" lon="11.0657983"><ele>306.0</ele><time>2026-04-03T13:43:28.572Z</time></trkpt><trkpt lat="44.3735733" lon="11.0658667"><ele>305.0</ele><time>2026-04-03T13:43:29.578Z</time></trkpt><trkpt lat="44.3737367" lon="11.06591"><ele>306.33333333333337</ele><time>2026-04-03T13:43:30.574Z</time></trkpt><trkpt lat="44.373905" lon="11.0659367"><ele>307.6666666666667</ele><time>2026-04-03T13:43:31.578Z</time></trkpt><trkpt lat="44.3740767" lon="11.0659633"><ele>309.0</ele><time>2026-04-03T13:43:32.574Z</time></trkpt><trkpt lat="44.3742483" lon="11.06599"><ele>309.0</ele><time>2026-04-03T13:43:33.574Z</time></trkpt><trkpt lat="44.37442" lon="11.0660183"><ele>309.0</ele><time>2026-04-03T13:43:34.573Z</time></trkpt><trkpt lat="44.3745867" lon="11.0660483"><ele>309.0</ele><time>2026-04-03T13:43:35.573Z</time></trkpt><trkpt lat="44.3747483" lon="11.0660767"><ele>309.0</ele><time>2026-04-03T13:43:36.575Z</time></trkpt><trkpt lat="44.3749083" lon="11.0661133"><ele>309.0</ele><time>2026-04-03T13:43:37.574Z</time></trkpt><trkpt lat="44.375065" lon="11.0661767"><ele>309.0</ele><time>2026-04-03T13:43:38.571Z</time></trkpt><trkpt lat="44.3752167" lon="11.06626"><ele>309.0</ele><time>2026-04-03T13:43:39.576Z</time></trkpt><trkpt lat="44.3753567" lon="11.0663533"><ele>309.0</ele><time>2026-04-03T13:43:40.572Z</time></trkpt><trkpt lat="44.3754817" lon="11.0664417"><ele>309.0</ele><time>2026-04-03T13:43:41.571Z</time></trkpt><trkpt lat="44.3756033" lon="11.0665217"><ele>309.0</ele><time>2026-04-03T13:43:42.573Z</time></trkpt><trkpt lat="44.3757283" lon="11.06659"><ele>307.25</ele><time>2026-04-03T13:43:43.574Z</time></trkpt><trkpt lat="44.3758517" lon="11.0666367"><ele>305.5</ele><time>2026-04-03T13:43:44.573Z</time></trkpt><trkpt lat="44.3759717" lon="11.0666683"><ele>303.75</ele><time>2026-04-03T13:43:45.568Z</time></trkpt><trkpt lat="44.3760867" lon="11.0666933"><ele>302.0</ele><time>2026-04-03T13:43:46.573Z</time></trkpt><trkpt lat="44.3762" lon="11.066715"><ele>302.0</ele><time>2026-04-03T13:43:47.571Z</time></trkpt><trkpt lat="44.3763183" lon="11.0667433"><ele>302.0</ele><time>2026-04-03T13:43:48.572Z</time></trkpt><trkpt lat="44.376445" lon="11.06678"><ele>302.0</ele><time>2026-04-03T13:43:49.58Z</time></trkpt><trkpt lat="44.3765883" lon="11.0668233"><ele>302.0</ele><time>2026-04-03T13:43:50.57Z</time></trkpt><trkpt lat="44.3767367" lon="11.0668767"><ele>303.33333333333337</ele><time>2026-04-03T13:43:51.573Z</time></trkpt><trkpt lat="44.376885" lon="11.06694"><ele>304.6666666666667</ele><time>2026-04-03T13:43:52.57Z</time></trkpt><trkpt lat="44.3770317" lon="11.0670117"><ele>306.0</ele><time>2026-04-03T13:43:53.574Z</time></trkpt><trkpt lat="44.377175" lon="11.0670867"><ele>308.6666666666667</ele><time>2026-04-03T13:43:54.582Z</time></trkpt><trkpt lat="44.3773183" lon="11.067165"><ele>311.33333333333337</ele><time>2026-04-03T13:43:55.574Z</time></trkpt><trkpt lat="44.37746" lon="11.0672567"><ele>314.0</ele><time>2026-04-03T13:43:56.57Z</time></trkpt><trkpt lat="44.3776017" lon="11.0673667"><ele>307.6666666666667</ele><time>2026-04-03T13:43:57.569Z</time></trkpt><trkpt lat="44.3777383" lon="11.06749"><ele>301.3333333333333</ele><time>2026-04-03T13:43:58.572Z</time></trkpt><trkpt lat="44.3778767" lon="11.0676167"><ele>295.0</ele><time>2026-04-03T13:43:59.575Z</time></trkpt><trkpt lat="44.3780133" lon="11.0677317"><ele>300.0</ele><time>2026-04-03T13:44:00.568Z</time></trkpt><trkpt lat="44.3781483" lon="11.0678417"><ele>305.0</ele><time>2026-04-03T13:44:01.567Z</time></trkpt><trkpt lat="44.3782883" lon="11.0679433"><ele>310.0</ele><time>2026-04-03T13:44:02.582Z</time></trkpt><trkpt lat="44.37843" lon="11.0680383"><ele>310.0</ele><time>2026-04-03T13:44:03.577Z</time></trkpt><trkpt lat="44.3785817" lon="11.0681233"><ele>310.0</ele><time>2026-04-03T13:44:04.568Z</time></trkpt><trkpt lat="44.378735" lon="11.06821"><ele>310.0</ele><time>2026-04-03T13:44:05.573Z</time></trkpt><trkpt lat="44.378895" lon="11.0682817"><ele>307.0</ele><time>2026-04-03T13:44:06.569Z</time></trkpt><trkpt lat="44.379045" lon="11.0683617"><ele>304.0</ele><time>2026-04-03T13:44:07.574Z</time></trkpt><trkpt lat="44.37919" lon="11.06844"><ele>301.0</ele><time>2026-04-03T13:44:08.573Z</time></trkpt><trkpt lat="44.37932" lon="11.0685117"><ele>301.0</ele><time>2026-04-03T13:44:09.57Z</time></trkpt><trkpt lat="44.3794333" lon="11.0685717"><ele>301.0</ele><time>2026-04-03T13:44:10.568Z</time></trkpt><trkpt lat="44.37953" lon="11.06862"><ele>301.0</ele><time>2026-04-03T13:44:11.57Z</time></trkpt><trkpt lat="44.3796083" lon="11.06865"><ele>301.0</ele><time>2026-04-03T13:44:12.577Z</time></trkpt><trkpt lat="44.3796717" lon="11.0686833"><ele>301.0</ele><time>2026-04-03T13:44:13.572Z</time></trkpt><trkpt lat="44.379735" lon="11.0687233"><ele>301.0</ele><time>2026-04-03T13:44:14.574Z</time></trkpt><trkpt lat="44.379805" lon="11.0687917"><ele>300.25</ele><time>2026-04-03T13:44:15.571Z</time></trkpt><trkpt lat="44.37989" lon="11.0688917"><ele>299.5</ele><time>2026-04-03T13:44:16.571Z</time></trkpt><trkpt lat="44.3799883" lon="11.06902"><ele>298.75</ele><time>2026-04-03T13:44:17.576Z</time></trkpt><trkpt lat="44.3800783" lon="11.06915"><ele>298.0</ele><time>2026-04-03T13:44:18.575Z</time></trkpt><trkpt lat="44.3801733" lon="11.06928"><ele>295.75</ele><time>2026-04-03T13:44:19.574Z</time></trkpt><trkpt lat="44.3802667" lon="11.0694067"><ele>293.5</ele><time>2026-04-03T13:44:20.572Z</time></trkpt><trkpt lat="44.38036" lon="11.0695333"><ele>291.25</ele><time>2026-04-03T13:44:21.568Z</time></trkpt><trkpt lat="44.38045" lon="11.0696583"><ele>289.0</ele><time>2026-04-03T13:44:22.573Z</time></trkpt><trkpt lat="44.3805333" lon="11.0697833"><ele>289.0</ele><time>2026-04-03T13:44:23.575Z</time></trkpt><trkpt lat="44.3806017" lon="11.0699117"><ele>289.0</ele><time>2026-04-03T13:44:24.569Z</time></trkpt><trkpt lat="44.3806467" lon="11.0700433"><ele>289.0</ele><time>2026-04-03T13:44:25.572Z</time></trkpt><trkpt lat="44.3806683" lon="11.07019"><ele>289.0</ele><time>2026-04-03T13:44:26.569Z</time></trkpt><trkpt lat="44.380685" lon="11.0703483"><ele>289.0</ele><time>2026-04-03T13:44:27.574Z</time></trkpt><trkpt lat="44.380715" lon="11.070505"><ele>288.2</ele><time>2026-04-03T13:44:28.573Z</time></trkpt><trkpt lat="44.38076" lon="11.070645"><ele>287.4</ele><time>2026-04-03T13:44:29.575Z</time></trkpt><trkpt lat="44.3808333" lon="11.0707583"><ele>286.6</ele><time>2026-04-03T13:44:30.576Z</time></trkpt><trkpt lat="44.3809233" lon="11.070845"><ele>285.8</ele><time>2026-04-03T13:44:31.569Z</time></trkpt><trkpt lat="44.3810317" lon="11.070905"><ele>285.0</ele><time>2026-04-03T13:44:32.575Z</time></trkpt><trkpt lat="44.38114" lon="11.0709617"><ele>283.75</ele><time>2026-04-03T13:44:33.573Z</time></trkpt><trkpt lat="44.3812567" lon="11.0710217"><ele>282.5</ele><time>2026-04-03T13:44:34.574Z</time></trkpt><trkpt lat="44.381375" lon="11.0710867"><ele>281.25</ele><time>2026-04-03T13:44:35.577Z</time></trkpt><trkpt lat="44.3815" lon="11.0711533"><ele>280.0</ele><time>2026-04-03T13:44:36.574Z</time></trkpt><trkpt lat="44.3816283" lon="11.0712217"><ele>279.75</ele><time>2026-04-03T13:44:37.572Z</time></trkpt><trkpt lat="44.3817633" lon="11.071285"><ele>279.5</ele><time>2026-04-03T13:44:38.571Z</time></trkpt><trkpt lat="44.3819033" lon="11.0713433"><ele>279.25</ele><time>2026-04-03T13:44:39.575Z</time></trkpt><trkpt lat="44.38205" lon="11.0713883"><ele>279.0</ele><time>2026-04-03T13:44:40.569Z</time></trkpt><trkpt lat="44.3822" lon="11.0714183"><ele>278.3333333333333</ele><time>2026-04-03T13:44:41.569Z</time></trkpt><trkpt lat="44.382355" lon="11.0714383"><ele>277.66666666666663</ele><time>2026-04-03T13:44:42.571Z</time></trkpt><trkpt lat="44.3825117" lon="11.07145"><ele>277.0</ele><time>2026-04-03T13:44:43.571Z</time></trkpt><trkpt lat="44.3826683" lon="11.0714567"><ele>277.0</ele><time>2026-04-03T13:44:44.569Z</time></trkpt><trkpt lat="44.3828183" lon="11.0714583"><ele>277.0</ele><time>2026-04-03T13:44:45.572Z</time></trkpt><trkpt lat="44.3829683" lon="11.0714617"><ele>277.0</ele><time>2026-04-03T13:44:46.567Z</time></trkpt><trkpt lat="44.3831217" lon="11.07146"><ele>277.3333333333333</ele><time>2026-04-03T13:44:47.58Z</time></trkpt><trkpt lat="44.3832717" lon="11.071455"><ele>277.6666666666667</ele><time>2026-04-03T13:44:48.569Z</time></trkpt><trkpt lat="44.38342" lon="11.0714517"><ele>278.0</ele><time>2026-04-03T13:44:49.572Z</time></trkpt><trkpt lat="44.3835767" lon="11.0714483"><ele>278.0</ele><time>2026-04-03T13:44:50.573Z</time></trkpt><trkpt lat="44.383735" lon="11.0714483"><ele>278.0</ele><time>2026-04-03T13:44:51.569Z</time></trkpt><trkpt lat="44.3838933" lon="11.07144"><ele>278.0</ele><time>2026-04-03T13:44:52.572Z</time></trkpt><trkpt lat="44.3840517" lon="11.071425"><ele>277.0</ele><time>2026-04-03T13:44:53.571Z</time></trkpt><trkpt lat="44.3842083" lon="11.0714083"><ele>276.0</ele><time>2026-04-03T13:44:54.568Z</time></trkpt><trkpt lat="44.3843667" lon="11.071395"><ele>275.0</ele><time>2026-04-03T13:44:55.573Z</time></trkpt><trkpt lat="44.3845267" lon="11.07138"><ele>274.33333333333337</ele><time>2026-04-03T13:44:56.573Z</time></trkpt><trkpt lat="44.3846883" lon="11.071365"><ele>273.6666666666667</ele><time>2026-04-03T13:44:57.57Z</time></trkpt><trkpt lat="44.3848533" lon="11.0713533"><ele>273.0</ele><time>2026-04-03T13:44:58.575Z</time></trkpt><trkpt lat="44.3850183" lon="11.0713417"><ele>273.0</ele><time>2026-04-03T13:44:59.569Z</time></trkpt><trkpt lat="44.3851833" lon="11.0713317"><ele>273.0</ele><time>2026-04-03T13:45:00.568Z</time></trkpt><trkpt lat="44.3853517" lon="11.071325"><ele>273.0</ele><time>2026-04-03T13:45:01.569Z</time></trkpt><trkpt lat="44.3855233" lon="11.0713217"><ele>273.0</ele><time>2026-04-03T13:45:02.572Z</time></trkpt><trkpt lat="44.3856983" lon="11.0713167"><ele>273.0</ele><time>2026-04-03T13:45:03.573Z</time></trkpt><trkpt lat="44.3858683" lon="11.0713083"><ele>273.0</ele><time>2026-04-03T13:45:04.572Z</time></trkpt><trkpt lat="44.3860417" lon="11.0712983"><ele>273.0</ele><time>2026-04-03T13:45:05.568Z</time></trkpt><trkpt lat="44.3862167" lon="11.0712867"><ele>273.0</ele><time>2026-04-03T13:45:06.575Z</time></trkpt><trkpt lat="44.3863933" lon="11.0712783"><ele>273.0</ele><time>2026-04-03T13:45:07.57Z</time></trkpt><trkpt lat="44.3865717" lon="11.0712733"><ele>272.3333333333333</ele><time>2026-04-03T13:45:08.572Z</time></trkpt><trkpt lat="44.3867483" lon="11.0712683"><ele>271.66666666666663</ele><time>2026-04-03T13:45:09.57Z</time></trkpt><trkpt lat="44.3869217" lon="11.0712633"><ele>271.0</ele><time>2026-04-03T13:45:10.568Z</time></trkpt><trkpt lat="44.3870983" lon="11.0712517"><ele>270.0</ele><time>2026-04-03T13:45:11.573Z</time></trkpt><trkpt lat="44.387275" lon="11.07124"><ele>269.0</ele><time>2026-04-03T13:45:12.571Z</time></trkpt><trkpt lat="44.3874483" lon="11.0712367"><ele>268.0</ele><time>2026-04-03T13:45:13.568Z</time></trkpt><trkpt lat="44.3876183" lon="11.07123"><ele>268.0</ele><time>2026-04-03T13:45:14.574Z</time></trkpt><trkpt lat="44.3877833" lon="11.0712233"><ele>268.0</ele><time>2026-04-03T13:45:15.569Z</time></trkpt><trkpt lat="44.387955" lon="11.0712233"><ele>268.0</ele><time>2026-04-03T13:45:16.57Z</time></trkpt><trkpt lat="44.3881183" lon="11.0712167"><ele>268.0</ele><time>2026-04-03T13:45:17.573Z</time></trkpt><trkpt lat="44.388265" lon="11.07121"><ele>268.0</ele><time>2026-04-03T13:45:18.575Z</time></trkpt><trkpt lat="44.3884" lon="11.0712017"><ele>268.0</ele><time>2026-04-03T13:45:19.577Z</time></trkpt><trkpt lat="44.38853" lon="11.0711983"><ele>268.0</ele><time>2026-04-03T13:45:20.572Z</time></trkpt><trkpt lat="44.388645" lon="11.071195"><ele>268.0</ele><time>2026-04-03T13:45:21.574Z</time></trkpt><trkpt lat="44.38876" lon="11.0712017"><ele>268.0</ele><time>2026-04-03T13:45:22.57Z</time></trkpt><trkpt lat="44.3888833" lon="11.0712117"><ele>268.0</ele><time>2026-04-03T13:45:23.575Z</time></trkpt><trkpt lat="44.3890083" lon="11.0712233"><ele>268.0</ele><time>2026-04-03T13:45:24.57Z</time></trkpt><trkpt lat="44.3891383" lon="11.071235"><ele>267.2</ele><time>2026-04-03T13:45:25.568Z</time></trkpt><trkpt lat="44.3892633" lon="11.0712517"><ele>266.4</ele><time>2026-04-03T13:45:26.573Z</time></trkpt><trkpt lat="44.3893783" lon="11.071275"><ele>265.59999999999997</ele><time>2026-04-03T13:45:27.573Z</time></trkpt><trkpt lat="44.38948" lon="11.071295"><ele>264.8</ele><time>2026-04-03T13:45:28.573Z</time></trkpt><trkpt lat="44.3895683" lon="11.0713"><ele>264.0</ele><time>2026-04-03T13:45:29.577Z</time></trkpt><trkpt lat="44.389645" lon="11.0712933"><ele>263.6666666666667</ele><time>2026-04-03T13:45:30.571Z</time></trkpt><trkpt lat="44.3897517" lon="11.071255"><ele>263.3333333333333</ele><time>2026-04-03T13:45:32.572Z</time></trkpt><trkpt lat="44.3898267" lon="11.0712333"><ele>263.0</ele><time>2026-04-03T13:45:34.576Z</time></trkpt><trkpt lat="44.38988" lon="11.0713183"><ele>262.66666666666663</ele><time>2026-04-03T13:50:47.571Z</time></trkpt><trkpt lat="44.389935" lon="11.0713917"><ele>262.3333333333333</ele><time>2026-04-03T13:50:49.571Z</time></trkpt><trkpt lat="44.3900083" lon="11.071455"><ele>262.0</ele><time>2026-04-03T13:50:51.569Z</time></trkpt><trkpt lat="44.390145" lon="11.0714933"><ele>262.0</ele><time>2026-04-03T13:50:53.571Z</time></trkpt><trkpt lat="44.3902417" lon="11.0715133"><ele>262.0</ele><time>2026-04-03T13:50:54.572Z</time></trkpt><trkpt lat="44.3903433" lon="11.0715367"><ele>262.0</ele><time>2026-04-03T13:50:55.574Z</time></trkpt><trkpt lat="44.390455" lon="11.0715617"><ele>262.0</ele><time>2026-04-03T13:50:56.57Z</time></trkpt><trkpt lat="44.3905667" lon="11.0715933"><ele>262.0</ele><time>2026-04-03T13:50:57.574Z</time></trkpt><trkpt lat="44.3906767" lon="11.071625"><ele>261.2</ele><time>2026-04-03T13:50:58.569Z</time></trkpt><trkpt lat="44.3907883" lon="11.0716583"><ele>260.4</ele><time>2026-04-03T13:50:59.568Z</time></trkpt><trkpt lat="44.3908933" lon="11.0716867"><ele>259.6</ele><time>2026-04-03T13:51:00.571Z</time></trkpt><trkpt lat="44.3909983" lon="11.0717117"><ele>258.8</ele><time>2026-04-03T13:51:01.572Z</time></trkpt><trkpt lat="44.3911067" lon="11.0717383"><ele>258.0</ele><time>2026-04-03T13:51:02.574Z</time></trkpt><trkpt lat="44.3912183" lon="11.0717683"><ele>258.0</ele><time>2026-04-03T13:51:03.571Z</time></trkpt><trkpt lat="44.3913333" lon="11.0718033"><ele>258.0</ele><time>2026-04-03T13:51:04.573Z</time></trkpt><trkpt lat="44.39146" lon="11.0718433"><ele>258.0</ele><time>2026-04-03T13:51:05.574Z</time></trkpt><trkpt lat="44.3915867" lon="11.0718867"><ele>258.0</ele><time>2026-04-03T13:51:06.57Z</time></trkpt><trkpt lat="44.3917117" lon="11.0719283"><ele>257.75</ele><time>2026-04-03T13:51:07.57Z</time></trkpt><trkpt lat="44.3918317" lon="11.07197"><ele>257.5</ele><time>2026-04-03T13:51:08.569Z</time></trkpt><trkpt lat="44.3919417" lon="11.0720083"><ele>257.25</ele><time>2026-04-03T13:51:09.572Z</time></trkpt><trkpt lat="44.3920483" lon="11.0720433"><ele>257.0</ele><time>2026-04-03T13:51:10.575Z</time></trkpt><trkpt lat="44.3921517" lon="11.0720733"><ele>257.33333333333337</ele><time>2026-04-03T13:51:11.57Z</time></trkpt><trkpt lat="44.392245" lon="11.0721083"><ele>257.6666666666667</ele><time>2026-04-03T13:51:12.569Z</time></trkpt><trkpt lat="44.3923333" lon="11.0721383"><ele>258.0</ele><time>2026-04-03T13:51:13.572Z</time></trkpt><trkpt lat="44.39242" lon="11.0721667"><ele>258.3333333333333</ele><time>2026-04-03T13:51:14.573Z</time></trkpt><trkpt lat="44.3924983" lon="11.072195"><ele>258.66666666666663</ele><time>2026-04-03T13:51:15.57Z</time></trkpt><trkpt lat="44.39257" lon="11.07222"><ele>259.0</ele><time>2026-04-03T13:51:16.572Z</time></trkpt><trkpt lat="44.3926767" lon="11.07222"><ele>259.0</ele><time>2026-04-03T13:51:18.575Z</time></trkpt><trkpt lat="44.3927517" lon="11.0721633"><ele>259.0</ele><time>2026-04-03T13:51:20.571Z</time></trkpt><trkpt lat="44.392795" lon="11.0720967"><ele>259.0</ele><time>2026-04-03T13:51:22.574Z</time></trkpt><trkpt lat="44.3927283" lon="11.0721467"><ele>259.0</ele><time>2026-04-03T14:01:30.573Z</time></trkpt><trkpt lat="44.3926933" lon="11.0722383"><ele>259.0</ele><time>2026-04-03T14:01:34.572Z</time></trkpt><trkpt lat="44.3926167" lon="11.0722517"><ele>259.0</ele><time>2026-04-03T14:01:37.571Z</time></trkpt><trkpt lat="44.3925533" lon="11.0722283"><ele>259.0</ele><time>2026-04-03T14:01:38.569Z</time></trkpt><trkpt lat="44.39248" lon="11.0722"><ele>259.0</ele><time>2026-04-03T14:01:39.571Z</time></trkpt><trkpt lat="44.3923967" lon="11.0721733"><ele>259.0</ele><time>2026-04-03T14:01:40.57Z</time></trkpt><trkpt lat="44.3923067" lon="11.0721483"><ele>259.0</ele><time>2026-04-03T14:01:41.571Z</time></trkpt><trkpt lat="44.3922183" lon="11.0721167"><ele>259.0</ele><time>2026-04-03T14:01:42.572Z</time></trkpt><trkpt lat="44.3921333" lon="11.0720817"><ele>259.0</ele><time>2026-04-03T14:01:43.572Z</time></trkpt><trkpt lat="44.3920467" lon="11.0720483"><ele>259.0</ele><time>2026-04-03T14:01:44.573Z</time></trkpt><trkpt lat="44.39195" lon="11.0720133"><ele>258.5</ele><time>2026-04-03T14:01:45.57Z</time></trkpt><trkpt lat="44.3918417" lon="11.071975"><ele>258.0</ele><time>2026-04-03T14:01:46.572Z</time></trkpt><trkpt lat="44.3917317" lon="11.0719367"><ele>257.5</ele><time>2026-04-03T14:01:47.571Z</time></trkpt><trkpt lat="44.3916183" lon="11.0718967"><ele>257.0</ele><time>2026-04-03T14:01:48.57Z</time></trkpt><trkpt lat="44.3914983" lon="11.0718583"><ele>257.0</ele><time>2026-04-03T14:01:49.571Z</time></trkpt><trkpt lat="44.3913767" lon="11.0718217"><ele>257.0</ele><time>2026-04-03T14:01:50.573Z</time></trkpt><trkpt lat="44.3912533" lon="11.0717783"><ele>257.0</ele><time>2026-04-03T14:01:51.571Z</time></trkpt><trkpt lat="44.391135" lon="11.0717417"><ele>257.0</ele><time>2026-04-03T14:01:52.571Z</time></trkpt><trkpt lat="44.39102" lon="11.07171"><ele>257.25</ele><time>2026-04-03T14:01:53.572Z</time></trkpt><trkpt lat="44.3909017" lon="11.0716767"><ele>257.5</ele><time>2026-04-03T14:01:54.569Z</time></trkpt><trkpt lat="44.39078" lon="11.0716483"><ele>257.75</ele><time>2026-04-03T14:01:55.571Z</time></trkpt><trkpt lat="44.39066" lon="11.0716183"><ele>258.0</ele><time>2026-04-03T14:01:56.572Z</time></trkpt><trkpt lat="44.39054" lon="11.071585"><ele>259.0</ele><time>2026-04-03T14:01:57.571Z</time></trkpt><trkpt lat="44.39042" lon="11.07155"><ele>260.0</ele><time>2026-04-03T14:01:58.57Z</time></trkpt><trkpt lat="44.3902983" lon="11.0715133"><ele>261.0</ele><time>2026-04-03T14:01:59.571Z</time></trkpt><trkpt lat="44.3901717" lon="11.0714767"><ele>262.0</ele><time>2026-04-03T14:02:00.572Z</time></trkpt><trkpt lat="44.3900417" lon="11.0714417"><ele>262.0</ele><time>2026-04-03T14:02:01.572Z</time></trkpt><trkpt lat="44.3899083" lon="11.07141"><ele>262.0</ele><time>2026-04-03T14:02:02.574Z</time></trkpt><trkpt lat="44.3897717" lon="11.071375"><ele>262.0</ele><time>2026-04-03T14:02:03.571Z</time></trkpt><trkpt lat="44.3896433" lon="11.07134"><ele>262.0</ele><time>2026-04-03T14:02:04.571Z</time></trkpt><trkpt lat="44.38952" lon="11.0713083"><ele>262.4</ele><time>2026-04-03T14:02:05.571Z</time></trkpt><trkpt lat="44.389405" lon="11.071285"><ele>262.79999999999995</ele><time>2026-04-03T14:02:06.572Z</time></trkpt><trkpt lat="44.3893" lon="11.0712617"><ele>263.2</ele><time>2026-04-03T14:02:07.572Z</time></trkpt><trkpt lat="44.389205" lon="11.0712417"><ele>263.59999999999997</ele><time>2026-04-03T14:02:08.574Z</time></trkpt><trkpt lat="44.38912" lon="11.0712333"><ele>264.0</ele><time>2026-04-03T14:02:09.572Z</time></trkpt><trkpt lat="44.3890433" lon="11.071245"><ele>264.0</ele><time>2026-04-03T14:02:10.572Z</time></trkpt><trkpt lat="44.3889667" lon="11.0712767"><ele>264.0</ele><time>2026-04-03T14:02:11.571Z</time></trkpt><trkpt lat="44.3889133" lon="11.071355"><ele>264.0</ele><time>2026-04-03T14:02:12.572Z</time></trkpt><trkpt lat="44.3888883" lon="11.0714683"><ele>264.0</ele><time>2026-04-03T14:02:13.571Z</time></trkpt><trkpt lat="44.3888867" lon="11.0716017"><ele>264.0</ele><time>2026-04-03T14:02:14.572Z</time></trkpt><trkpt lat="44.3888967" lon="11.0717567"><ele>264.0</ele><time>2026-04-03T14:02:15.571Z</time></trkpt><trkpt lat="44.38891" lon="11.0719233"><ele>263.59999999999997</ele><time>2026-04-03T14:02:16.571Z</time></trkpt><trkpt lat="44.3889233" lon="11.0720883"><ele>263.2</ele><time>2026-04-03T14:02:17.572Z</time></trkpt><trkpt lat="44.3889383" lon="11.072235"><ele>262.79999999999995</ele><time>2026-04-03T14:02:18.571Z</time></trkpt><trkpt lat="44.38895" lon="11.0723733"><ele>262.4</ele><time>2026-04-03T14:02:19.571Z</time></trkpt><trkpt lat="44.388955" lon="11.0725067"><ele>262.0</ele><time>2026-04-03T14:02:20.572Z</time></trkpt><trkpt lat="44.3889467" lon="11.0726333"><ele>262.0</ele><time>2026-04-03T14:02:21.571Z</time></trkpt><trkpt lat="44.3889167" lon="11.0727583"><ele>262.0</ele><time>2026-04-03T14:02:22.572Z</time></trkpt><trkpt lat="44.3888667" lon="11.07287"><ele>262.0</ele><time>2026-04-03T14:02:23.571Z</time></trkpt><trkpt lat="44.38879" lon="11.0729583"><ele>262.0</ele><time>2026-04-03T14:02:24.57Z</time></trkpt><trkpt lat="44.3886967" lon="11.0730317"><ele>262.0</ele><time>2026-04-03T14:02:25.571Z</time></trkpt><trkpt lat="44.388595" lon="11.0730967"><ele>262.25</ele><time>2026-04-03T14:02:26.572Z</time></trkpt><trkpt lat="44.3884833" lon="11.073155"><ele>262.5</ele><time>2026-04-03T14:02:27.57Z</time></trkpt><trkpt lat="44.388365" lon="11.0732"><ele>262.75</ele><time>2026-04-03T14:02:28.572Z</time></trkpt><trkpt lat="44.3882433" lon="11.073225"><ele>263.0</ele><time>2026-04-03T14:02:29.573Z</time></trkpt><trkpt lat="44.3881133" lon="11.0732383"><ele>263.25</ele><time>2026-04-03T14:02:30.574Z</time></trkpt><trkpt lat="44.3879817" lon="11.07325"><ele>263.5</ele><time>2026-04-03T14:02:31.573Z</time></trkpt><trkpt lat="44.38785" lon="11.0732633"><ele>263.75</ele><time>2026-04-03T14:02:32.572Z</time></trkpt><trkpt lat="44.3877167" lon="11.0732767"><ele>264.0</ele><time>2026-04-03T14:02:33.572Z</time></trkpt><trkpt lat="44.38758" lon="11.0732933"><ele>264.5</ele><time>2026-04-03T14:02:34.573Z</time></trkpt><trkpt lat="44.3874417" lon="11.0733083"><ele>265.0</ele><time>2026-04-03T14:02:35.572Z</time></trkpt><trkpt lat="44.3873033" lon="11.0733217"><ele>265.5</ele><time>2026-04-03T14:02:36.572Z</time></trkpt><trkpt lat="44.3871617" lon="11.0733383"><ele>266.0</ele><time>2026-04-03T14:02:37.573Z</time></trkpt><trkpt lat="44.3870217" lon="11.0733567"><ele>266.25</ele><time>2026-04-03T14:02:38.572Z</time></trkpt><trkpt lat="44.386885" lon="11.073375"><ele>266.5</ele><time>2026-04-03T14:02:39.572Z</time></trkpt><trkpt lat="44.3867467" lon="11.0733933"><ele>266.75</ele><time>2026-04-03T14:02:40.573Z</time></trkpt><trkpt lat="44.3866067" lon="11.07341"><ele>267.0</ele><time>2026-04-03T14:02:41.57Z</time></trkpt><trkpt lat="44.386465" lon="11.0734267"><ele>267.25</ele><time>2026-04-03T14:02:42.572Z</time></trkpt><trkpt lat="44.3863233" lon="11.073445"><ele>267.5</ele><time>2026-04-03T14:02:43.57Z</time></trkpt><trkpt lat="44.38618" lon="11.0734583"><ele>267.75</ele><time>2026-04-03T14:02:44.572Z</time></trkpt><trkpt lat="44.386035" lon="11.073475"><ele>268.0</ele><time>2026-04-03T14:02:45.571Z</time></trkpt><trkpt lat="44.38589" lon="11.0734933"><ele>268.0</ele><time>2026-04-03T14:02:46.57Z</time></trkpt><trkpt lat="44.3857433" lon="11.073515"><ele>268.0</ele><time>2026-04-03T14:02:47.571Z</time></trkpt><trkpt lat="44.3855983" lon="11.0735317"><ele>268.0</ele><time>2026-04-03T14:02:48.57Z</time></trkpt><trkpt lat="44.38545" lon="11.07355"><ele>268.0</ele><time>2026-04-03T14:02:49.57Z</time></trkpt><trkpt lat="44.3853" lon="11.0735667"><ele>268.5</ele><time>2026-04-03T14:02:50.573Z</time></trkpt><trkpt lat="44.3851517" lon="11.073585"><ele>269.0</ele><time>2026-04-03T14:02:51.571Z</time></trkpt><trkpt lat="44.3850033" lon="11.0736017"><ele>269.5</ele><time>2026-04-03T14:02:52.572Z</time></trkpt><trkpt lat="44.3848583" lon="11.0736167"><ele>270.0</ele><time>2026-04-03T14:02:53.571Z</time></trkpt><trkpt lat="44.3847133" lon="11.0736317"><ele>270.25</ele><time>2026-04-03T14:02:54.571Z</time></trkpt><trkpt lat="44.3845667" lon="11.0736517"><ele>270.5</ele><time>2026-04-03T14:02:55.57Z</time></trkpt><trkpt lat="44.38442" lon="11.0736717"><ele>270.75</ele><time>2026-04-03T14:02:56.572Z</time></trkpt><trkpt lat="44.3842717" lon="11.07369"><ele>271.0</ele><time>2026-04-03T14:02:57.571Z</time></trkpt><trkpt lat="44.3841233" lon="11.0737033"><ele>271.0</ele><time>2026-04-03T14:02:58.571Z</time></trkpt><trkpt lat="44.383975" lon="11.0737133"><ele>271.0</ele><time>2026-04-03T14:02:59.572Z</time></trkpt><trkpt lat="44.3838233" lon="11.0737167"><ele>271.0</ele><time>2026-04-03T14:03:00.571Z</time></trkpt><trkpt lat="44.3836733" lon="11.073715"><ele>272.0</ele><time>2026-04-03T14:03:01.572Z</time></trkpt><trkpt lat="44.3835233" lon="11.0737017"><ele>273.0</ele><time>2026-04-03T14:03:02.573Z</time></trkpt><trkpt lat="44.3833733" lon="11.0736783"><ele>274.0</ele><time>2026-04-03T14:03:03.571Z</time></trkpt><trkpt lat="44.383225" lon="11.0736483"><ele>274.0</ele><time>2026-04-03T14:03:04.572Z</time></trkpt><trkpt lat="44.38308" lon="11.07361"><ele>274.0</ele><time>2026-04-03T14:03:05.573Z</time></trkpt><trkpt lat="44.382935" lon="11.073565"><ele>274.0</ele><time>2026-04-03T14:03:06.572Z</time></trkpt><trkpt lat="44.3827983" lon="11.07351"><ele>274.0</ele><time>2026-04-03T14:03:07.572Z</time></trkpt><trkpt lat="44.3826583" lon="11.073455"><ele>274.0</ele><time>2026-04-03T14:03:08.572Z</time></trkpt><trkpt lat="44.3825183" lon="11.0733883"><ele>274.0</ele><time>2026-04-03T14:03:09.57Z</time></trkpt><trkpt lat="44.3823817" lon="11.0733117"><ele>274.0</ele><time>2026-04-03T14:03:10.572Z</time></trkpt><trkpt lat="44.3822467" lon="11.0732283"><ele>274.0</ele><time>2026-04-03T14:03:11.571Z</time></trkpt><trkpt lat="44.3821117" lon="11.0731483"><ele>274.66666666666663</ele><time>2026-04-03T14:03:12.57Z</time></trkpt><trkpt lat="44.381985" lon="11.0730617"><ele>275.3333333333333</ele><time>2026-04-03T14:03:13.571Z</time></trkpt><trkpt lat="44.3818467" lon="11.0729683"><ele>276.0</ele><time>2026-04-03T14:03:14.573Z</time></trkpt><trkpt lat="44.381705" lon="11.072875"><ele>276.0</ele><time>2026-04-03T14:03:15.571Z</time></trkpt><trkpt lat="44.3815583" lon="11.0727817"><ele>276.0</ele><time>2026-04-03T14:03:16.57Z</time></trkpt><trkpt lat="44.3814083" lon="11.0726833"><ele>276.0</ele><time>2026-04-03T14:03:17.57Z</time></trkpt><trkpt lat="44.3812583" lon="11.0725833"><ele>276.6666666666667</ele><time>2026-04-03T14:03:18.571Z</time></trkpt><trkpt lat="44.3811117" lon="11.072475"><ele>277.33333333333337</ele><time>2026-04-03T14:03:19.571Z</time></trkpt><trkpt lat="44.380965" lon="11.07237"><ele>278.0</ele><time>2026-04-03T14:03:20.571Z</time></trkpt><trkpt lat="44.38082" lon="11.0722667"><ele>278.0</ele><time>2026-04-03T14:03:21.571Z</time></trkpt><trkpt lat="44.3806733" lon="11.0721667"><ele>278.0</ele><time>2026-04-03T14:03:22.574Z</time></trkpt><trkpt lat="44.3805233" lon="11.072065"><ele>278.0</ele><time>2026-04-03T14:03:23.571Z</time></trkpt><trkpt lat="44.380375" lon="11.071965"><ele>279.6666666666667</ele><time>2026-04-03T14:03:24.572Z</time></trkpt><trkpt lat="44.380225" lon="11.071865"><ele>281.3333333333333</ele><time>2026-04-03T14:03:25.572Z</time></trkpt><trkpt lat="44.380075" lon="11.0717633"><ele>283.0</ele><time>2026-04-03T14:03:26.574Z</time></trkpt><trkpt lat="44.3799233" lon="11.071665"><ele>282.66666666666663</ele><time>2026-04-03T14:03:27.573Z</time></trkpt><trkpt lat="44.3797767" lon="11.0715617"><ele>282.3333333333333</ele><time>2026-04-03T14:03:28.571Z</time></trkpt><trkpt lat="44.3796283" lon="11.0714633"><ele>282.0</ele><time>2026-04-03T14:03:29.571Z</time></trkpt><trkpt lat="44.3794783" lon="11.0713617"><ele>282.0</ele><time>2026-04-03T14:03:30.572Z</time></trkpt><trkpt lat="44.37933" lon="11.0712533"><ele>282.0</ele><time>2026-04-03T14:03:31.57Z</time></trkpt><trkpt lat="44.3791867" lon="11.071135"><ele>282.0</ele><time>2026-04-03T14:03:32.572Z</time></trkpt><trkpt lat="44.3790467" lon="11.0710133"><ele>282.0</ele><time>2026-04-03T14:03:33.57Z</time></trkpt><trkpt lat="44.37891" lon="11.0708833"><ele>282.0</ele><time>2026-04-03T14:03:34.572Z</time></trkpt><trkpt lat="44.3787733" lon="11.07075"><ele>282.0</ele><time>2026-04-03T14:03:35.571Z</time></trkpt><trkpt lat="44.37864" lon="11.07061"><ele>283.3333333333333</ele><time>2026-04-03T14:03:36.57Z</time></trkpt><trkpt lat="44.378505" lon="11.0704683"><ele>284.66666666666663</ele><time>2026-04-03T14:03:37.571Z</time></trkpt><trkpt lat="44.3783633" lon="11.0703333"><ele>286.0</ele><time>2026-04-03T14:03:38.572Z</time></trkpt><trkpt lat="44.3782267" lon="11.070185"><ele>286.0</ele><time>2026-04-03T14:03:39.571Z</time></trkpt><trkpt lat="44.3780883" lon="11.0700417"><ele>286.0</ele><time>2026-04-03T14:03:40.571Z</time></trkpt><trkpt lat="44.3779517" lon="11.0699033"><ele>286.0</ele><time>2026-04-03T14:03:41.573Z</time></trkpt><trkpt lat="44.3778167" lon="11.069765"><ele>288.3333333333333</ele><time>2026-04-03T14:03:42.571Z</time></trkpt><trkpt lat="44.3776817" lon="11.0696233"><ele>290.6666666666667</ele><time>2026-04-03T14:03:43.571Z</time></trkpt><trkpt lat="44.3775433" lon="11.0694817"><ele>293.0</ele><time>2026-04-03T14:03:44.573Z</time></trkpt><trkpt lat="44.3773983" lon="11.0693383"><ele>293.0</ele><time>2026-04-03T14:03:45.571Z</time></trkpt><trkpt lat="44.3772517" lon="11.0692017"><ele>293.0</ele><time>2026-04-03T14:03:46.57Z</time></trkpt><trkpt lat="44.3771117" lon="11.0690633"><ele>293.0</ele><time>2026-04-03T14:03:47.571Z</time></trkpt><trkpt lat="44.3769783" lon="11.068925"><ele>292.6666666666667</ele><time>2026-04-03T14:03:48.572Z</time></trkpt><trkpt lat="44.3768433" lon="11.0687933"><ele>292.3333333333333</ele><time>2026-04-03T14:03:49.571Z</time></trkpt><trkpt lat="44.3767117" lon="11.068665"><ele>292.0</ele><time>2026-04-03T14:03:50.573Z</time></trkpt><trkpt lat="44.3765867" lon="11.06855"><ele>292.0</ele><time>2026-04-03T14:03:51.571Z</time></trkpt><trkpt lat="44.3764717" lon="11.0684417"><ele>292.0</ele><time>2026-04-03T14:03:52.57Z</time></trkpt><trkpt lat="44.3763633" lon="11.0683383"><ele>292.0</ele><time>2026-04-03T14:03:53.571Z</time></trkpt><trkpt lat="44.376265" lon="11.0682417"><ele>292.0</ele><time>2026-04-03T14:03:54.573Z</time></trkpt><trkpt lat="44.3761783" lon="11.0681533"><ele>293.0</ele><time>2026-04-03T14:03:55.573Z</time></trkpt><trkpt lat="44.3761033" lon="11.0680717"><ele>294.0</ele><time>2026-04-03T14:03:56.574Z</time></trkpt><trkpt lat="44.3760417" lon="11.0679867"><ele>295.0</ele><time>2026-04-03T14:03:57.571Z</time></trkpt><trkpt lat="44.3759783" lon="11.0678983"><ele>296.0</ele><time>2026-04-03T14:03:58.571Z</time></trkpt><trkpt lat="44.3759033" lon="11.0678167"><ele>297.0</ele><time>2026-04-03T14:03:59.571Z</time></trkpt><trkpt lat="44.3758167" lon="11.0677383"><ele>297.0</ele><time>2026-04-03T14:04:00.57Z</time></trkpt><trkpt lat="44.3757233" lon="11.0676583"><ele>297.0</ele><time>2026-04-03T14:04:01.571Z</time></trkpt><trkpt lat="44.3756367" lon="11.0675783"><ele>297.0</ele><time>2026-04-03T14:04:02.571Z</time></trkpt><trkpt lat="44.3755533" lon="11.0675"><ele>297.0</ele><time>2026-04-03T14:04:03.569Z</time></trkpt><trkpt lat="44.3754717" lon="11.0674233"><ele>297.0</ele><time>2026-04-03T14:04:04.571Z</time></trkpt><trkpt lat="44.375385" lon="11.0673583"><ele>297.4</ele><time>2026-04-03T14:04:05.57Z</time></trkpt><trkpt lat="44.3752917" lon="11.06731"><ele>297.79999999999995</ele><time>2026-04-03T14:04:06.57Z</time></trkpt><trkpt lat="44.3751867" lon="11.0672867"><ele>298.2</ele><time>2026-04-03T14:04:07.571Z</time></trkpt><trkpt lat="44.3750717" lon="11.0672767"><ele>298.59999999999997</ele><time>2026-04-03T14:04:08.572Z</time></trkpt><trkpt lat="44.374955" lon="11.0672717"><ele>299.0</ele><time>2026-04-03T14:04:09.571Z</time></trkpt><trkpt lat="44.37484" lon="11.0672633"><ele>299.0</ele><time>2026-04-03T14:04:10.571Z</time></trkpt><trkpt lat="44.3747183" lon="11.0672517"><ele>299.0</ele><time>2026-04-03T14:04:11.572Z</time></trkpt><trkpt lat="44.3746017" lon="11.0672433"><ele>299.0</ele><time>2026-04-03T14:04:12.573Z</time></trkpt><trkpt lat="44.3744883" lon="11.067235"><ele>299.0</ele><time>2026-04-03T14:04:13.571Z</time></trkpt><trkpt lat="44.374375" lon="11.0672317"><ele>298.4</ele><time>2026-04-03T14:04:14.573Z</time></trkpt><trkpt lat="44.3742717" lon="11.0672317"><ele>297.79999999999995</ele><time>2026-04-03T14:04:15.572Z</time></trkpt><trkpt lat="44.3741683" lon="11.0672367"><ele>297.20000000000005</ele><time>2026-04-03T14:04:16.571Z</time></trkpt><trkpt lat="44.3740683" lon="11.0672367"><ele>296.6</ele><time>2026-04-03T14:04:17.571Z</time></trkpt><trkpt lat="44.3739667" lon="11.0672433"><ele>296.0</ele><time>2026-04-03T14:04:18.572Z</time></trkpt><trkpt lat="44.373865" lon="11.067255"><ele>296.2</ele><time>2026-04-03T14:04:19.572Z</time></trkpt><trkpt lat="44.3737633" lon="11.067265"><ele>296.40000000000003</ele><time>2026-04-03T14:04:20.572Z</time></trkpt><trkpt lat="44.3736667" lon="11.0672717"><ele>296.6</ele><time>2026-04-03T14:04:21.571Z</time></trkpt><trkpt lat="44.3735717" lon="11.067275"><ele>296.8</ele><time>2026-04-03T14:04:22.571Z</time></trkpt><trkpt lat="44.37349" lon="11.067275"><ele>297.0</ele><time>2026-04-03T14:04:23.572Z</time></trkpt><trkpt lat="44.3734133" lon="11.0672767"><ele>297.0</ele><time>2026-04-03T14:04:24.572Z</time></trkpt><trkpt lat="44.3733367" lon="11.0672933"><ele>297.0</ele><time>2026-04-03T14:04:25.572Z</time></trkpt><trkpt lat="44.3732717" lon="11.0673267"><ele>297.0</ele><time>2026-04-03T14:04:26.572Z</time></trkpt><trkpt lat="44.3732117" lon="11.06737"><ele>297.0</ele><time>2026-04-03T14:04:27.572Z</time></trkpt><trkpt lat="44.3731067" lon="11.06746"><ele>297.0</ele><time>2026-04-03T14:04:29.572Z</time></trkpt><trkpt lat="44.3730033" lon="11.0675317"><ele>299.6</ele><time>2026-04-03T14:04:31.572Z</time></trkpt><trkpt lat="44.3729133" lon="11.0676217"><ele>302.2</ele><time>2026-04-03T14:04:33.571Z</time></trkpt><trkpt lat="44.3728417" lon="11.06774"><ele>304.8</ele><time>2026-04-03T14:04:35.573Z</time></trkpt><trkpt lat="44.3728867" lon="11.0678033"><ele>307.4</ele><time>2026-04-03T14:06:16.573Z</time></trkpt><trkpt lat="44.37281" lon="11.0678733"><ele>310.0</ele><time>2026-04-03T14:08:15.573Z</time></trkpt><trkpt lat="44.372715" lon="11.068005"><ele>310.0</ele><time>2026-04-03T14:08:17.573Z</time></trkpt><trkpt lat="44.372655" lon="11.0680983"><ele>310.0</ele><time>2026-04-03T14:08:18.572Z</time></trkpt><trkpt lat="44.372585" lon="11.0682033"><ele>310.0</ele><time>2026-04-03T14:08:19.571Z</time></trkpt><trkpt lat="44.3725133" lon="11.068315"><ele>310.0</ele><time>2026-04-03T14:08:20.573Z</time></trkpt><trkpt lat="44.3724367" lon="11.0684483"><ele>310.0</ele><time>2026-04-03T14:08:21.571Z</time></trkpt><trkpt lat="44.3723517" lon="11.0686017"><ele>311.25</ele><time>2026-04-03T14:08:22.571Z</time></trkpt><trkpt lat="44.37228" lon="11.0687617"><ele>312.5</ele><time>2026-04-03T14:08:23.571Z</time></trkpt><trkpt lat="44.3722217" lon="11.06892"><ele>313.75</ele><time>2026-04-03T14:08:24.572Z</time></trkpt><trkpt lat="44.3721717" lon="11.0690833"><ele>315.0</ele><time>2026-04-03T14:08:25.574Z</time></trkpt><trkpt lat="44.3721233" lon="11.0692517"><ele>317.5</ele><time>2026-04-03T14:08:26.572Z</time></trkpt><trkpt lat="44.3720783" lon="11.0694167"><ele>320.0</ele><time>2026-04-03T14:08:27.571Z</time></trkpt><trkpt lat="44.3720433" lon="11.06958"><ele>322.5</ele><time>2026-04-03T14:08:28.573Z</time></trkpt><trkpt lat="44.3720233" lon="11.0697617"><ele>325.0</ele><time>2026-04-03T14:08:29.571Z</time></trkpt><trkpt lat="44.3720067" lon="11.0699417"><ele>325.25</ele><time>2026-04-03T14:08:30.576Z</time></trkpt><trkpt lat="44.3719883" lon="11.07013"><ele>325.5</ele><time>2026-04-03T14:08:31.571Z</time></trkpt><trkpt lat="44.3719783" lon="11.0703233"><ele>325.75</ele><time>2026-04-03T14:08:32.572Z</time></trkpt><trkpt lat="44.3719633" lon="11.0705233"><ele>326.0</ele><time>2026-04-03T14:08:33.578Z</time></trkpt><trkpt lat="44.37194" lon="11.0707167"><ele>326.5</ele><time>2026-04-03T14:08:34.571Z</time></trkpt><trkpt lat="44.3719117" lon="11.0709033"><ele>327.0</ele><time>2026-04-03T14:08:35.572Z</time></trkpt><trkpt lat="44.371885" lon="11.0710867"><ele>327.5</ele><time>2026-04-03T14:08:36.572Z</time></trkpt><trkpt lat="44.37187" lon="11.0712633"><ele>328.0</ele><time>2026-04-03T14:08:37.572Z</time></trkpt><trkpt lat="44.37185" lon="11.0714267"><ele>328.0</ele><time>2026-04-03T14:08:38.573Z</time></trkpt><trkpt lat="44.3718283" lon="11.0715883"><ele>328.0</ele><time>2026-04-03T14:08:39.573Z</time></trkpt><trkpt lat="44.3718" lon="11.0717467"><ele>328.0</ele><time>2026-04-03T14:08:40.571Z</time></trkpt><trkpt lat="44.371765" lon="11.0719083"><ele>328.0</ele><time>2026-04-03T14:08:41.571Z</time></trkpt><trkpt lat="44.3717267" lon="11.0720733"><ele>327.75</ele><time>2026-04-03T14:08:42.572Z</time></trkpt><trkpt lat="44.3716833" lon="11.0722367"><ele>327.5</ele><time>2026-04-03T14:08:43.571Z</time></trkpt><trkpt lat="44.371635" lon="11.0723883"><ele>327.25</ele><time>2026-04-03T14:08:44.571Z</time></trkpt><trkpt lat="44.3715783" lon="11.0725333"><ele>327.0</ele><time>2026-04-03T14:08:45.571Z</time></trkpt><trkpt lat="44.3715083" lon="11.0726733"><ele>327.0</ele><time>2026-04-03T14:08:46.57Z</time></trkpt><trkpt lat="44.37144" lon="11.0728167"><ele>327.0</ele><time>2026-04-03T14:08:47.571Z</time></trkpt><trkpt lat="44.371365" lon="11.072965"><ele>327.0</ele><time>2026-04-03T14:08:48.572Z</time></trkpt><trkpt lat="44.3712883" lon="11.0731167"><ele>327.0</ele><time>2026-04-03T14:08:49.571Z</time></trkpt><trkpt lat="44.3712" lon="11.07325"><ele>328.5</ele><time>2026-04-03T14:08:50.572Z</time></trkpt><trkpt lat="44.3711117" lon="11.0733783"><ele>330.0</ele><time>2026-04-03T14:08:51.572Z</time></trkpt><trkpt lat="44.3710033" lon="11.0734783"><ele>331.5</ele><time>2026-04-03T14:08:52.571Z</time></trkpt><trkpt lat="44.3708833" lon="11.073575"><ele>333.0</ele><time>2026-04-03T14:08:53.571Z</time></trkpt><trkpt lat="44.370765" lon="11.0736717"><ele>333.0</ele><time>2026-04-03T14:08:54.572Z</time></trkpt><trkpt lat="44.3706483" lon="11.0737717"><ele>333.0</ele><time>2026-04-03T14:08:55.571Z</time></trkpt><trkpt lat="44.3705367" lon="11.0738867"><ele>333.0</ele><time>2026-04-03T14:08:56.572Z</time></trkpt><trkpt lat="44.3704283" lon="11.0740283"><ele>333.0</ele><time>2026-04-03T14:08:57.57Z</time></trkpt><trkpt lat="44.3703367" lon="11.07418"><ele>334.8333333333333</ele><time>2026-04-03T14:08:58.571Z</time></trkpt><trkpt lat="44.3702567" lon="11.0743083"><ele>336.6666666666667</ele><time>2026-04-03T14:08:59.578Z</time></trkpt><trkpt lat="44.3701983" lon="11.0744167"><ele>338.5</ele><time>2026-04-03T14:09:00.571Z</time></trkpt><trkpt lat="44.3701633" lon="11.0745"><ele>340.33333333333337</ele><time>2026-04-03T14:09:01.57Z</time></trkpt><trkpt lat="44.37016" lon="11.074625"><ele>342.1666666666667</ele><time>2026-04-03T14:09:03.57Z</time></trkpt><trkpt lat="44.3702267" lon="11.0746"><ele>344.0</ele><time>2026-04-03T14:09:04.57Z</time></trkpt><trkpt lat="44.37029" lon="11.0745517"><ele>344.0</ele><time>2026-04-03T14:09:05.572Z</time></trkpt><trkpt lat="44.3703633" lon="11.0744583"><ele>344.0</ele><time>2026-04-03T14:09:06.571Z</time></trkpt><trkpt lat="44.3704467" lon="11.0743683"><ele>344.0</ele><time>2026-04-03T14:09:07.572Z</time></trkpt><trkpt lat="44.3705367" lon="11.074295"><ele>344.0</ele><time>2026-04-03T14:09:08.571Z</time></trkpt><trkpt lat="44.3706467" lon="11.0742517"><ele>344.0</ele><time>2026-04-03T14:09:09.571Z</time></trkpt><trkpt lat="44.370765" lon="11.07423"><ele>345.1666666666667</ele><time>2026-04-03T14:09:10.571Z</time></trkpt><trkpt lat="44.370865" lon="11.0742217"><ele>346.33333333333337</ele><time>2026-04-03T14:09:11.573Z</time></trkpt><trkpt lat="44.370945" lon="11.0742283"><ele>347.5</ele><time>2026-04-03T14:09:12.573Z</time></trkpt><trkpt lat="44.3710133" lon="11.0742567"><ele>348.6666666666667</ele><time>2026-04-03T14:09:13.572Z</time></trkpt><trkpt lat="44.3710383" lon="11.0743617"><ele>349.8333333333333</ele><time>2026-04-03T14:09:15.571Z</time></trkpt><trkpt lat="44.3709567" lon="11.074445"><ele>351.0</ele><time>2026-04-03T14:09:17.571Z</time></trkpt><trkpt lat="44.3708883" lon="11.0744683"><ele>351.0</ele><time>2026-04-03T14:09:18.571Z</time></trkpt><trkpt lat="44.37081" lon="11.0745067"><ele>351.0</ele><time>2026-04-03T14:09:19.572Z</time></trkpt><trkpt lat="44.370735" lon="11.07456"><ele>351.0</ele><time>2026-04-03T14:09:20.571Z</time></trkpt><trkpt lat="44.3706717" lon="11.07465"><ele>351.0</ele><time>2026-04-03T14:09:21.572Z</time></trkpt><trkpt lat="44.3706383" lon="11.0748233"><ele>351.0</ele><time>2026-04-03T14:09:22.571Z</time></trkpt><trkpt lat="44.3706183" lon="11.0750317"><ele>352.25</ele><time>2026-04-03T14:09:23.572Z</time></trkpt><trkpt lat="44.3706017" lon="11.0752367"><ele>353.5</ele><time>2026-04-03T14:09:24.571Z</time></trkpt><trkpt lat="44.3705833" lon="11.0754183"><ele>354.75</ele><time>2026-04-03T14:09:25.57Z</time></trkpt><trkpt lat="44.3705517" lon="11.075575"><ele>356.0</ele><time>2026-04-03T14:09:26.573Z</time></trkpt><trkpt lat="44.370505" lon="11.0757033"><ele>359.0</ele><time>2026-04-03T14:09:27.571Z</time></trkpt><trkpt lat="44.370435" lon="11.0758167"><ele>362.0</ele><time>2026-04-03T14:09:28.573Z</time></trkpt><trkpt lat="44.37035" lon="11.07593"><ele>365.0</ele><time>2026-04-03T14:09:29.571Z</time></trkpt><trkpt lat="44.3702567" lon="11.0760517"><ele>368.0</ele><time>2026-04-03T14:09:30.572Z</time></trkpt><trkpt lat="44.3701617" lon="11.07618"><ele>368.0</ele><time>2026-04-03T14:09:31.573Z</time></trkpt><trkpt lat="44.3700583" lon="11.07631"><ele>368.0</ele><time>2026-04-03T14:09:32.572Z</time></trkpt><trkpt lat="44.36995" lon="11.076435"><ele>368.0</ele><time>2026-04-03T14:09:33.572Z</time></trkpt><trkpt lat="44.36984" lon="11.0765583"><ele>368.0</ele><time>2026-04-03T14:09:34.572Z</time></trkpt><trkpt lat="44.36973" lon="11.0766867"><ele>370.0</ele><time>2026-04-03T14:09:35.572Z</time></trkpt><trkpt lat="44.369615" lon="11.0768167"><ele>372.0</ele><time>2026-04-03T14:09:36.572Z</time></trkpt><trkpt lat="44.3694983" lon="11.0769467"><ele>374.0</ele><time>2026-04-03T14:09:37.573Z</time></trkpt><trkpt lat="44.3693817" lon="11.0770717"><ele>376.0</ele><time>2026-04-03T14:09:38.574Z</time></trkpt><trkpt lat="44.369265" lon="11.0771917"><ele>376.0</ele><time>2026-04-03T14:09:39.575Z</time></trkpt><trkpt lat="44.3691483" lon="11.0773083"><ele>376.0</ele><time>2026-04-03T14:09:40.571Z</time></trkpt><trkpt lat="44.36903" lon="11.0774133"><ele>376.0</ele><time>2026-04-03T14:09:41.573Z</time></trkpt><trkpt lat="44.3689033" lon="11.0775"><ele>376.0</ele><time>2026-04-03T14:09:42.573Z</time></trkpt><trkpt lat="44.3687617" lon="11.077575"><ele>377.25</ele><time>2026-04-03T14:09:43.572Z</time></trkpt><trkpt lat="44.3686133" lon="11.0776333"><ele>378.5</ele><time>2026-04-03T14:09:44.572Z</time></trkpt><trkpt lat="44.3684717" lon="11.0776833"><ele>379.75</ele><time>2026-04-03T14:09:45.571Z</time></trkpt><trkpt lat="44.3683383" lon="11.0777433"><ele>381.0</ele><time>2026-04-03T14:09:46.571Z</time></trkpt><trkpt lat="44.3682083" lon="11.0778183"><ele>381.0</ele><time>2026-04-03T14:09:47.57Z</time></trkpt><trkpt lat="44.36809" lon="11.0778917"><ele>381.0</ele><time>2026-04-03T14:09:48.571Z</time></trkpt><trkpt lat="44.367985" lon="11.07797"><ele>381.0</ele><time>2026-04-03T14:09:49.572Z</time></trkpt><trkpt lat="44.3678933" lon="11.0780683"><ele>381.0</ele><time>2026-04-03T14:09:50.574Z</time></trkpt><trkpt lat="44.3678167" lon="11.078195"><ele>382.5</ele><time>2026-04-03T14:09:51.572Z</time></trkpt><trkpt lat="44.3677667" lon="11.0783533"><ele>384.0</ele><time>2026-04-03T14:09:52.571Z</time></trkpt><trkpt lat="44.367735" lon="11.078545"><ele>385.5</ele><time>2026-04-03T14:09:53.573Z</time></trkpt><trkpt lat="44.3677067" lon="11.0787767"><ele>387.0</ele><time>2026-04-03T14:09:54.572Z</time></trkpt><trkpt lat="44.3676817" lon="11.0790317"><ele>389.33333333333337</ele><time>2026-04-03T14:09:55.573Z</time></trkpt><trkpt lat="44.3676567" lon="11.079285"><ele>391.6666666666667</ele><time>2026-04-03T14:09:56.571Z</time></trkpt><trkpt lat="44.367635" lon="11.07952"><ele>394.0</ele><time>2026-04-03T14:09:57.571Z</time></trkpt><trkpt lat="44.3676117" lon="11.07974"><ele>396.0</ele><time>2026-04-03T14:09:58.571Z</time></trkpt><trkpt lat="44.3675933" lon="11.0799567"><ele>398.0</ele><time>2026-04-03T14:09:59.573Z</time></trkpt><trkpt lat="44.367585" lon="11.0801617"><ele>400.0</ele><time>2026-04-03T14:10:00.57Z</time></trkpt><trkpt lat="44.3675767" lon="11.0803567"><ele>402.0</ele><time>2026-04-03T14:10:01.572Z</time></trkpt><trkpt lat="44.3675617" lon="11.08054"><ele>402.0</ele><time>2026-04-03T14:10:02.572Z</time></trkpt><trkpt lat="44.3675367" lon="11.08071"><ele>402.0</ele><time>2026-04-03T14:10:03.572Z</time></trkpt><trkpt lat="44.3675033" lon="11.08087"><ele>402.0</ele><time>2026-04-03T14:10:04.571Z</time></trkpt><trkpt lat="44.3674683" lon="11.0810267"><ele>402.0</ele><time>2026-04-03T14:10:05.572Z</time></trkpt><trkpt lat="44.3674367" lon="11.0811883"><ele>403.40000000000003</ele><time>2026-04-03T14:10:06.572Z</time></trkpt><trkpt lat="44.3674067" lon="11.0813533"><ele>404.8</ele><time>2026-04-03T14:10:07.572Z</time></trkpt><trkpt lat="44.3673767" lon="11.0815083"><ele>406.2</ele><time>2026-04-03T14:10:08.572Z</time></trkpt><trkpt lat="44.3673467" lon="11.0816417"><ele>407.6</ele><time>2026-04-03T14:10:09.571Z</time></trkpt><trkpt lat="44.3673183" lon="11.081755"><ele>409.0</ele><time>2026-04-03T14:10:10.571Z</time></trkpt><trkpt lat="44.367295" lon="11.081845"><ele>410.33333333333337</ele><time>2026-04-03T14:10:11.57Z</time></trkpt><trkpt lat="44.3672933" lon="11.081965"><ele>411.6666666666667</ele><time>2026-04-03T14:10:13.573Z</time></trkpt><trkpt lat="44.367355" lon="11.0820033"><ele>413.0</ele><time>2026-04-03T14:10:15.572Z</time></trkpt><trkpt lat="44.367475" lon="11.0820233"><ele>414.33333333333337</ele><time>2026-04-03T14:10:17.572Z</time></trkpt><trkpt lat="44.367545" lon="11.0820583"><ele>415.6666666666667</ele><time>2026-04-03T14:10:18.572Z</time></trkpt><trkpt lat="44.3676133" lon="11.0821033"><ele>417.0</ele><time>2026-04-03T14:10:19.571Z</time></trkpt><trkpt lat="44.3677" lon="11.082155"><ele>417.0</ele><time>2026-04-03T14:10:20.573Z</time></trkpt><trkpt lat="44.36779" lon="11.0822133"><ele>417.0</ele><time>2026-04-03T14:10:21.57Z</time></trkpt><trkpt lat="44.367895" lon="11.08227"><ele>417.0</ele><time>2026-04-03T14:10:22.571Z</time></trkpt><trkpt lat="44.3680033" lon="11.0823317"><ele>417.0</ele><time>2026-04-03T14:10:23.575Z</time></trkpt><trkpt lat="44.3681033" lon="11.0823817"><ele>417.0</ele><time>2026-04-03T14:10:24.571Z</time></trkpt><trkpt lat="44.3681917" lon="11.0824467"><ele>420.0</ele><time>2026-04-03T14:10:25.573Z</time></trkpt><trkpt lat="44.3682617" lon="11.0825233"><ele>423.0</ele><time>2026-04-03T14:10:26.572Z</time></trkpt><trkpt lat="44.3683433" lon="11.0825967"><ele>426.00000000000006</ele><time>2026-04-03T14:10:27.57Z</time></trkpt><trkpt lat="44.36841" lon="11.0826867"><ele>429.0</ele><time>2026-04-03T14:10:28.576Z</time></trkpt><trkpt lat="44.3684767" lon="11.0827783"><ele>432.0</ele><time>2026-04-03T14:10:29.576Z</time></trkpt><trkpt lat="44.3685367" lon="11.0828717"><ele>432.0</ele><time>2026-04-03T14:10:30.57Z</time></trkpt><trkpt lat="44.3685917" lon="11.08296"><ele>432.0</ele><time>2026-04-03T14:10:31.57Z</time></trkpt><trkpt lat="44.3686417" lon="11.0830417"><ele>432.0</ele><time>2026-04-03T14:10:32.572Z</time></trkpt><trkpt lat="44.3686983" lon="11.0831217"><ele>432.0</ele><time>2026-04-03T14:10:33.57Z</time></trkpt><trkpt lat="44.3687567" lon="11.083195"><ele>432.0</ele><time>2026-04-03T14:10:34.57Z</time></trkpt><trkpt lat="44.36882" lon="11.083255"><ele>432.0</ele><time>2026-04-03T14:10:35.571Z</time></trkpt><trkpt lat="44.3688967" lon="11.0832983"><ele>435.6666666666667</ele><time>2026-04-03T14:10:36.572Z</time></trkpt><trkpt lat="44.3689617" lon="11.0833317"><ele>439.33333333333337</ele><time>2026-04-03T14:10:37.575Z</time></trkpt><trkpt lat="44.3690283" lon="11.0833667"><ele>443.0</ele><time>2026-04-03T14:10:38.573Z</time></trkpt><trkpt lat="44.3691267" lon="11.0834517"><ele>446.6666666666667</ele><time>2026-04-03T14:10:40.573Z</time></trkpt><trkpt lat="44.369145" lon="11.0835967"><ele>450.33333333333337</ele><time>2026-04-03T14:10:42.567Z</time></trkpt><trkpt lat="44.369085" lon="11.0836717"><ele>454.0</ele><time>2026-04-03T14:10:43.566Z</time></trkpt><trkpt lat="44.3690183" lon="11.08373"><ele>454.00000000000006</ele><time>2026-04-03T14:10:44.573Z</time></trkpt><trkpt lat="44.3689367" lon="11.083755"><ele>454.0</ele><time>2026-04-03T14:10:45.57Z</time></trkpt><trkpt lat="44.3688583" lon="11.0837717"><ele>454.0</ele><time>2026-04-03T14:10:46.57Z</time></trkpt><trkpt lat="44.3687933" lon="11.0837933"><ele>454.0</ele><time>2026-04-03T14:10:47.571Z</time></trkpt><trkpt lat="44.3687717" lon="11.0838817"><ele>454.00000000000006</ele><time>2026-04-03T14:10:49.571Z</time></trkpt><trkpt lat="44.3688467" lon="11.0839617"><ele>454.0</ele><time>2026-04-03T14:10:51.571Z</time></trkpt><trkpt lat="44.3689117" lon="11.083995"><ele>454.00000000000006</ele><time>2026-04-03T14:10:52.572Z</time></trkpt><trkpt lat="44.3689917" lon="11.084035"><ele>454.0</ele><time>2026-04-03T14:10:53.572Z</time></trkpt><trkpt lat="44.3690717" lon="11.084085"><ele>454.0</ele><time>2026-04-03T14:10:54.571Z</time></trkpt><trkpt lat="44.36916" lon="11.0841267"><ele>454.0</ele><time>2026-04-03T14:10:55.57Z</time></trkpt><trkpt lat="44.3692417" lon="11.0841617"><ele>454.00000000000006</ele><time>2026-04-03T14:10:56.574Z</time></trkpt><trkpt lat="44.3693283" lon="11.08421"><ele>454.0</ele><time>2026-04-03T14:10:57.571Z</time></trkpt><trkpt lat="44.3694083" lon="11.0842583"><ele>457.00000000000006</ele><time>2026-04-03T14:10:58.571Z</time></trkpt><trkpt lat="44.3694817" lon="11.0842933"><ele>460.0</ele><time>2026-04-03T14:10:59.571Z</time></trkpt><trkpt lat="44.3695667" lon="11.08433"><ele>463.0</ele><time>2026-04-03T14:11:00.571Z</time></trkpt><trkpt lat="44.3696467" lon="11.0842917"><ele>466.0</ele><time>2026-04-03T14:11:01.572Z</time></trkpt><trkpt lat="44.3697133" lon="11.0842767"><ele>469.00000000000006</ele><time>2026-04-03T14:11:02.572Z</time></trkpt><trkpt lat="44.369825" lon="11.084245"><ele>472.0</ele><time>2026-04-03T14:11:04.57Z</time></trkpt><trkpt lat="44.3699017" lon="11.0842217"><ele>472.00000000000006</ele><time>2026-04-03T14:11:06.573Z</time></trkpt><trkpt lat="44.36994" lon="11.0840967"><ele>472.0</ele><time>2026-04-03T14:11:17.571Z</time></trkpt><trkpt lat="44.369885" lon="11.0841467"><ele>472.0</ele><time>2026-04-03T14:11:20.573Z</time></trkpt><trkpt lat="44.3698267" lon="11.08421"><ele>472.0</ele><time>2026-04-03T14:11:22.574Z</time></trkpt><trkpt lat="44.3697733" lon="11.0842567"><ele>472.00000000000006</ele><time>2026-04-03T14:11:24.571Z</time></trkpt><trkpt lat="44.3697067" lon="11.084305"><ele>472.0</ele><time>2026-04-03T14:11:28.572Z</time></trkpt><trkpt lat="44.36962" lon="11.0843483"><ele>472.0</ele><time>2026-04-03T14:11:30.572Z</time></trkpt><trkpt lat="44.36951" lon="11.0843833"><ele>472.00000000000006</ele><time>2026-04-03T14:11:32.574Z</time></trkpt><trkpt lat="44.36939" lon="11.084395"><ele>472.00000000000006</ele><time>2026-04-03T14:11:34.571Z</time></trkpt><trkpt lat="44.3692667" lon="11.0843967"><ele>472.0</ele><time>2026-04-03T14:11:36.571Z</time></trkpt><trkpt lat="44.3692" lon="11.08441"><ele>472.0</ele><time>2026-04-03T14:11:37.57Z</time></trkpt><trkpt lat="44.36913" lon="11.08442"><ele>472.00000000000006</ele><time>2026-04-03T14:11:38.571Z</time></trkpt><trkpt lat="44.36902" lon="11.0844417"><ele>472.0</ele><time>2026-04-03T14:11:40.571Z</time></trkpt><trkpt lat="44.3689567" lon="11.0844583"><ele>472.0</ele><time>2026-04-03T14:11:42.573Z</time></trkpt><trkpt lat="44.3688933" lon="11.08447"><ele>472.0</ele><time>2026-04-03T14:11:54.572Z</time></trkpt><trkpt lat="44.3688067" lon="11.08447"><ele>472.00000000000006</ele><time>2026-04-03T14:11:57.574Z</time></trkpt><trkpt lat="44.3687417" lon="11.08448"><ele>472.0</ele><time>2026-04-03T14:11:59.571Z</time></trkpt><trkpt lat="44.3688" lon="11.0844433"><ele>472.00000000000006</ele><time>2026-04-03T14:12:16.572Z</time></trkpt><trkpt lat="44.368865" lon="11.0844233"><ele>472.0</ele><time>2026-04-03T14:12:19.568Z</time></trkpt><trkpt lat="44.368945" lon="11.0844233"><ele>472.0</ele><time>2026-04-03T14:12:23.571Z</time></trkpt><trkpt lat="44.36901" lon="11.0844267"><ele>472.0</ele><time>2026-04-03T14:12:25.571Z</time></trkpt><trkpt lat="44.3690983" lon="11.0844067"><ele>472.00000000000006</ele><time>2026-04-03T14:12:27.572Z</time></trkpt><trkpt lat="44.3691933" lon="11.0843767"><ele>472.0</ele><time>2026-04-03T14:12:29.575Z</time></trkpt><trkpt lat="44.369275" lon="11.0843683"><ele>472.00000000000006</ele><time>2026-04-03T14:12:31.572Z</time></trkpt><trkpt lat="44.3693417" lon="11.08438"><ele>472.0</ele><time>2026-04-03T14:12:33.573Z</time></trkpt><trkpt lat="44.3694183" lon="11.0843567"><ele>472.0</ele><time>2026-04-03T14:12:35.573Z</time></trkpt><trkpt lat="44.3695117" lon="11.084325"><ele>472.0</ele><time>2026-04-03T14:12:37.573Z</time></trkpt><trkpt lat="44.3695983" lon="11.08429"><ele>472.00000000000006</ele><time>2026-04-03T14:12:39.571Z</time></trkpt><trkpt lat="44.3696733" lon="11.0842467"><ele>472.0</ele><time>2026-04-03T14:12:42.573Z</time></trkpt><trkpt lat="44.3696" lon="11.0842767"><ele>472.00000000000006</ele><time>2026-04-03T14:12:48.573Z</time></trkpt><trkpt lat="44.3695183" lon="11.084305"><ele>472.0</ele><time>2026-04-03T14:12:51.573Z</time></trkpt><trkpt lat="44.3694267" lon="11.08426"><ele>472.0</ele><time>2026-04-03T14:12:54.572Z</time></trkpt><trkpt lat="44.369365" lon="11.0842033"><ele>472.0</ele><time>2026-04-03T14:12:56.573Z</time></trkpt><trkpt lat="44.3692983" lon="11.08415"><ele>472.00000000000006</ele><time>2026-04-03T14:12:58.571Z</time></trkpt><trkpt lat="44.3692317" lon="11.0841083"><ele>472.0</ele><time>2026-04-03T14:13:00.567Z</time></trkpt><trkpt lat="44.3691483" lon="11.0840617"><ele>469.00000000000006</ele><time>2026-04-03T14:13:02.574Z</time></trkpt><trkpt lat="44.3690633" lon="11.0840033"><ele>466.0</ele><time>2026-04-03T14:13:04.571Z</time></trkpt><trkpt lat="44.3690067" lon="11.08396"><ele>463.0</ele><time>2026-04-03T14:13:06.572Z</time></trkpt><trkpt lat="44.368925" lon="11.0839333"><ele>460.0</ele><time>2026-04-03T14:13:09.574Z</time></trkpt><trkpt lat="44.3688667" lon="11.0838933"><ele>457.00000000000006</ele><time>2026-04-03T14:13:11.568Z</time></trkpt><trkpt lat="44.3688067" lon="11.083835"><ele>454.0</ele><time>2026-04-03T14:13:14.572Z</time></trkpt><trkpt lat="44.368865" lon="11.0839117"><ele>454.00000000000006</ele><time>2026-04-03T14:13:21.573Z</time></trkpt><trkpt lat="44.3689383" lon="11.0839333"><ele>454.0</ele><time>2026-04-03T14:13:23.573Z</time></trkpt><trkpt lat="44.3690383" lon="11.0839867"><ele>454.0</ele><time>2026-04-03T14:13:25.571Z</time></trkpt><trkpt lat="44.3691617" lon="11.08405"><ele>454.0</ele><time>2026-04-03T14:13:27.573Z</time></trkpt><trkpt lat="44.3692233" lon="11.084085"><ele>454.00000000000006</ele><time>2026-04-03T14:13:28.572Z</time></trkpt><trkpt lat="44.3692833" lon="11.0841317"><ele>454.0</ele><time>2026-04-03T14:13:29.571Z</time></trkpt><trkpt lat="44.3693483" lon="11.0841833"><ele>457.00000000000006</ele><time>2026-04-03T14:13:30.571Z</time></trkpt><trkpt lat="44.3694667" lon="11.08425"><ele>460.0</ele><time>2026-04-03T14:13:32.573Z</time></trkpt><trkpt lat="44.3695367" lon="11.084255"><ele>463.0</ele><time>2026-04-03T14:13:33.572Z</time></trkpt><trkpt lat="44.3696033" lon="11.0842533"><ele>466.0</ele><time>2026-04-03T14:13:34.572Z</time></trkpt><trkpt lat="44.3697083" lon="11.084235"><ele>469.00000000000006</ele><time>2026-04-03T14:13:36.572Z</time></trkpt><trkpt lat="44.369665" lon="11.0843233"><ele>472.0</ele><time>2026-04-03T14:13:43.572Z</time></trkpt><trkpt lat="44.3695717" lon="11.084365"><ele>472.0</ele><time>2026-04-03T14:13:45.574Z</time></trkpt><trkpt lat="44.369485" lon="11.0844117"><ele>472.00000000000006</ele><time>2026-04-03T14:13:47.572Z</time></trkpt><trkpt lat="44.3693917" lon="11.0844233"><ele>472.00000000000006</ele><time>2026-04-03T14:13:49.572Z</time></trkpt><trkpt lat="44.369305" lon="11.0844217"><ele>472.0</ele><time>2026-04-03T14:13:51.573Z</time></trkpt><trkpt lat="44.3692217" lon="11.0844433"><ele>472.0</ele><time>2026-04-03T14:13:53.572Z</time></trkpt><trkpt lat="44.3690317" lon="11.0844483"><ele>472.0</ele><time>2026-04-03T14:14:38.573Z</time></trkpt><trkpt lat="44.3689567" lon="11.084445"><ele>472.0</ele><time>2026-04-03T14:14:41.572Z</time></trkpt><trkpt lat="44.3688717" lon="11.0844617"><ele>472.0</ele><time>2026-04-03T14:14:45.571Z</time></trkpt><trkpt lat="44.3688" lon="11.0844817"><ele>472.0</ele><time>2026-04-03T14:14:47.571Z</time></trkpt><trkpt lat="44.36873" lon="11.08449"><ele>472.0</ele><time>2026-04-03T14:14:49.576Z</time></trkpt><trkpt lat="44.3687933" lon="11.084435"><ele>472.0</ele><time>2026-04-03T14:14:58.572Z</time></trkpt><trkpt lat="44.3688583" lon="11.084415"><ele>472.0</ele><time>2026-04-03T14:15:00.573Z</time></trkpt><trkpt lat="44.368925" lon="11.0844133"><ele>472.0</ele><time>2026-04-03T14:15:03.572Z</time></trkpt><trkpt lat="44.369005" lon="11.08442"><ele>472.00000000000006</ele><time>2026-04-03T14:15:05.571Z</time></trkpt><trkpt lat="44.3691217" lon="11.084415"><ele>472.00000000000006</ele><time>2026-04-03T14:15:07.572Z</time></trkpt><trkpt lat="44.3692383" lon="11.0843917"><ele>472.0</ele><time>2026-04-03T14:15:09.571Z</time></trkpt><trkpt lat="44.3693483" lon="11.0843883"><ele>472.0</ele><time>2026-04-03T14:15:11.573Z</time></trkpt><trkpt lat="44.3694467" lon="11.0843967"><ele>472.0</ele><time>2026-04-03T14:15:13.572Z</time></trkpt><trkpt lat="44.3695617" lon="11.0843733"><ele>472.00000000000006</ele><time>2026-04-03T14:15:15.572Z</time></trkpt><trkpt lat="44.3696733" lon="11.0843117"><ele>472.00000000000006</ele><time>2026-04-03T14:15:17.573Z</time></trkpt><trkpt lat="44.3697517" lon="11.0842367"><ele>472.0</ele><time>2026-04-03T14:15:19.573Z</time></trkpt><trkpt lat="44.3698417" lon="11.0841833"><ele>472.0</ele><time>2026-04-03T14:15:21.572Z</time></trkpt><trkpt lat="44.36991" lon="11.0841733"><ele>472.0</ele><time>2026-04-03T14:15:23.572Z</time></trkpt><trkpt lat="44.3699383" lon="11.0842833"><ele>472.00000000000006</ele><time>2026-04-03T14:15:26.573Z</time></trkpt><trkpt lat="44.3699" lon="11.0843783"><ele>472.00000000000006</ele><time>2026-04-03T14:15:28.572Z</time></trkpt><trkpt lat="44.3698333" lon="11.0845033"><ele>472.0</ele><time>2026-04-03T14:15:30.572Z</time></trkpt><trkpt lat="44.3697567" lon="11.0845883"><ele>472.0</ele><time>2026-04-03T14:15:32.572Z</time></trkpt><trkpt lat="44.3696533" lon="11.08463"><ele>472.00000000000006</ele><time>2026-04-03T14:15:34.571Z</time></trkpt><trkpt lat="44.3695233" lon="11.0846817"><ele>472.0</ele><time>2026-04-03T14:15:36.572Z</time></trkpt><trkpt lat="44.3694383" lon="11.0847067"><ele>472.0</ele><time>2026-04-03T14:15:37.572Z</time></trkpt><trkpt lat="44.3693633" lon="11.0847367"><ele>472.0</ele><time>2026-04-03T14:15:38.573Z</time></trkpt><trkpt lat="44.3692933" lon="11.084775"><ele>472.00000000000006</ele><time>2026-04-03T14:15:39.571Z</time></trkpt><trkpt lat="44.3692233" lon="11.0848067"><ele>472.0</ele><time>2026-04-03T14:15:40.571Z</time></trkpt><trkpt lat="44.36916" lon="11.0848483"><ele>472.0</ele><time>2026-04-03T14:15:41.572Z</time></trkpt><trkpt lat="44.3691" lon="11.08489"><ele>472.00000000000006</ele><time>2026-04-03T14:15:42.572Z</time></trkpt><trkpt lat="44.3690033" lon="11.0849517"><ele>472.00000000000006</ele><time>2026-04-03T14:15:44.572Z</time></trkpt><trkpt lat="44.3689283" lon="11.08498"><ele>472.0</ele><time>2026-04-03T14:15:47.571Z</time></trkpt><trkpt lat="44.3688367" lon="11.084975"><ele>472.0</ele><time>2026-04-03T14:15:49.573Z</time></trkpt><trkpt lat="44.3687133" lon="11.0849517"><ele>475.50000000000006</ele><time>2026-04-03T14:15:51.572Z</time></trkpt><trkpt lat="44.368645" lon="11.0849333"><ele>479.0</ele><time>2026-04-03T14:15:52.572Z</time></trkpt><trkpt lat="44.368524" lon="11.0849408"><ele>482.5</ele><time>2026-04-03T14:15:54.571Z</time></trkpt><trkpt lat="44.3684073" lon="11.0849853"><ele>486.0</ele><time>2026-04-03T14:15:56.572Z</time></trkpt><trkpt lat="44.3683451" lon="11.0850163"><ele>489.50000000000006</ele><time>2026-04-03T14:15:57.571Z</time></trkpt><trkpt lat="44.3682803" lon="11.0850488"><ele>493.0</ele><time>2026-04-03T14:15:58.573Z</time></trkpt><trkpt lat="44.3682203" lon="11.0850883"><ele>493.00000000000006</ele><time>2026-04-03T14:15:59.573Z</time></trkpt><trkpt lat="44.368132" lon="11.0851754"><ele>493.0</ele><time>2026-04-03T14:16:01.572Z</time></trkpt><trkpt lat="44.3680811" lon="11.0852752"><ele>493.0</ele><time>2026-04-03T14:16:03.571Z</time></trkpt><trkpt lat="44.3680453" lon="11.0853729"><ele>493.0</ele><time>2026-04-03T14:16:05.568Z</time></trkpt><trkpt lat="44.368025" lon="11.0854774"><ele>493.00000000000006</ele><time>2026-04-03T14:16:07.571Z</time></trkpt><trkpt lat="44.3680034" lon="11.0856103"><ele>493.0</ele><time>2026-04-03T14:16:09.572Z</time></trkpt><trkpt lat="44.3679883" lon="11.0857917"><ele>491.6666666666667</ele><time>2026-04-03T14:16:11.572Z</time></trkpt><trkpt lat="44.3679767" lon="11.0858867"><ele>490.33333333333337</ele><time>2026-04-03T14:16:12.573Z</time></trkpt><trkpt lat="44.3679683" lon="11.086015"><ele>489.0</ele><time>2026-04-03T14:16:13.573Z</time></trkpt><trkpt lat="44.3679583" lon="11.0861267"><ele>487.66666666666663</ele><time>2026-04-03T14:16:14.573Z</time></trkpt><trkpt lat="44.36795" lon="11.0862267"><ele>486.3333333333333</ele><time>2026-04-03T14:16:15.572Z</time></trkpt><trkpt lat="44.3679283" lon="11.0863867"><ele>485.0</ele><time>2026-04-03T14:16:17.572Z</time></trkpt><trkpt lat="44.367925" lon="11.0865533"><ele>486.6</ele><time>2026-04-03T14:16:19.572Z</time></trkpt><trkpt lat="44.3679133" lon="11.0867267"><ele>488.2</ele><time>2026-04-03T14:16:21.572Z</time></trkpt><trkpt lat="44.3679067" lon="11.08682"><ele>489.79999999999995</ele><time>2026-04-03T14:16:22.572Z</time></trkpt><trkpt lat="44.3679" lon="11.0869083"><ele>491.4</ele><time>2026-04-03T14:16:23.572Z</time></trkpt><trkpt lat="44.367895" lon="11.0870683"><ele>493.0</ele><time>2026-04-03T14:16:25.573Z</time></trkpt><trkpt lat="44.367895" lon="11.0872083"><ele>493.0</ele><time>2026-04-03T14:16:27.573Z</time></trkpt><trkpt lat="44.3678833" lon="11.0873483"><ele>492.99999999999994</ele><time>2026-04-03T14:16:29.572Z</time></trkpt><trkpt lat="44.367855" lon="11.0874717"><ele>492.99999999999994</ele><time>2026-04-03T14:16:31.574Z</time></trkpt><trkpt lat="44.3678183" lon="11.0875667"><ele>493.0</ele><time>2026-04-03T14:16:33.572Z</time></trkpt><trkpt lat="44.367805" lon="11.0876917"><ele>493.0</ele><time>2026-04-03T14:16:35.571Z</time></trkpt><trkpt lat="44.36783" lon="11.0878183"><ele>495.59999999999997</ele><time>2026-04-03T14:16:37.571Z</time></trkpt><trkpt lat="44.36784" lon="11.08796"><ele>498.19999999999993</ele><time>2026-04-03T14:16:39.571Z</time></trkpt><trkpt lat="44.36781" lon="11.0881067"><ele>500.8</ele><time>2026-04-03T14:16:41.57Z</time></trkpt><trkpt lat="44.3677783" lon="11.08826"><ele>503.4</ele><time>2026-04-03T14:16:43.571Z</time></trkpt><trkpt lat="44.3677467" lon="11.0883933"><ele>506.0</ele><time>2026-04-03T14:16:45.571Z</time></trkpt><trkpt lat="44.3677167" lon="11.08853"><ele>506.8333333333333</ele><time>2026-04-03T14:16:47.571Z</time></trkpt><trkpt lat="44.3676833" lon="11.08864"><ele>507.66666666666663</ele><time>2026-04-03T14:16:49.572Z</time></trkpt><trkpt lat="44.3676633" lon="11.0887317"><ele>508.5</ele><time>2026-04-03T14:16:51.571Z</time></trkpt><trkpt lat="44.367615" lon="11.0888367"><ele>509.33333333333337</ele><time>2026-04-03T14:16:54.572Z</time></trkpt><trkpt lat="44.3675683" lon="11.0889067"><ele>510.1666666666667</ele><time>2026-04-03T14:16:56.573Z</time></trkpt><trkpt lat="44.3675041" lon="11.0889093"><ele>511.0</ele><time>2026-04-03T14:16:58.572Z</time></trkpt><trkpt lat="44.3674243" lon="11.0889068"><ele>511.0</ele><time>2026-04-03T14:17:00.573Z</time></trkpt><trkpt lat="44.3673198" lon="11.0889435"><ele>511.0</ele><time>2026-04-03T14:17:02.566Z</time></trkpt><trkpt lat="44.3672348" lon="11.0890545"><ele>511.0</ele><time>2026-04-03T14:17:04.571Z</time></trkpt><trkpt lat="44.3671702" lon="11.0891651"><ele>511.0</ele><time>2026-04-03T14:17:06.571Z</time></trkpt><trkpt lat="44.3670982" lon="11.0892682"><ele>511.0</ele><time>2026-04-03T14:17:08.574Z</time></trkpt><trkpt lat="44.3670213" lon="11.0893912"><ele>510.50000000000006</ele><time>2026-04-03T14:17:10.572Z</time></trkpt><trkpt lat="44.3669691" lon="11.089485"><ele>510.0</ele><time>2026-04-03T14:17:12.571Z</time></trkpt><trkpt lat="44.36702" lon="11.0895659"><ele>509.5</ele><time>2026-04-03T14:17:15.571Z</time></trkpt><trkpt lat="44.3670768" lon="11.0896218"><ele>509.0</ele><time>2026-04-03T14:17:17.505Z</time></trkpt><trkpt lat="44.3671583" lon="11.0896583"><ele>508.50000000000006</ele><time>2026-04-03T14:17:18.572Z</time></trkpt><trkpt lat="44.3672283" lon="11.089645"><ele>508.0</ele><time>2026-04-03T14:17:20.572Z</time></trkpt><trkpt lat="44.3673" lon="11.0896317"><ele>510.50000000000006</ele><time>2026-04-03T14:17:22.571Z</time></trkpt><trkpt lat="44.3673789" lon="11.0895852"><ele>513.0</ele><time>2026-04-03T14:17:25.587Z</time></trkpt><trkpt lat="44.3674513" lon="11.0896127"><ele>515.5</ele><time>2026-04-03T14:17:28.586Z</time></trkpt><trkpt lat="44.3675433" lon="11.0896733"><ele>518.0</ele><time>2026-04-03T14:17:31.572Z</time></trkpt><trkpt lat="44.3676217" lon="11.089705"><ele>520.5</ele><time>2026-04-03T14:17:33.572Z</time></trkpt><trkpt lat="44.36769" lon="11.0897217"><ele>523.0</ele><time>2026-04-03T14:17:35.571Z</time></trkpt><trkpt lat="44.367755" lon="11.0897767"><ele>522.9999999999999</ele><time>2026-04-03T14:17:37.571Z</time></trkpt><trkpt lat="44.3678251" lon="11.0898103"><ele>523.0</ele><time>2026-04-03T14:17:39.548Z</time></trkpt><trkpt lat="44.3679203" lon="11.0898137"><ele>523.0</ele><time>2026-04-03T14:17:41.586Z</time></trkpt><trkpt lat="44.3679732" lon="11.0897615"><ele>523.0</ele><time>2026-04-03T14:17:43.606Z</time></trkpt><trkpt lat="44.3680356" lon="11.0897918"><ele>523.0</ele><time>2026-04-03T14:17:45.571Z</time></trkpt><trkpt lat="44.3680996" lon="11.0897578"><ele>522.9999999999999</ele><time>2026-04-03T14:17:47.572Z</time></trkpt><trkpt lat="44.3681602" lon="11.0897327"><ele>523.0</ele><time>2026-04-03T14:17:49.571Z</time></trkpt><trkpt lat="44.3682476" lon="11.0897441"><ele>527.3333333333334</ele><time>2026-04-03T14:17:52.57Z</time></trkpt><trkpt lat="44.3683128" lon="11.089727"><ele>531.6666666666667</ele><time>2026-04-03T14:17:54.605Z</time></trkpt><trkpt lat="44.3683836" lon="11.089789"><ele>536.0</ele><time>2026-04-03T14:17:57.603Z</time></trkpt><trkpt lat="44.36845" lon="11.089852"><ele>540.3333333333334</ele><time>2026-04-03T14:17:59.572Z</time></trkpt><trkpt lat="44.3685161" lon="11.0898313"><ele>544.6666666666666</ele><time>2026-04-03T14:18:01.571Z</time></trkpt><trkpt lat="44.3685858" lon="11.0897708"><ele>549.0</ele><time>2026-04-03T14:18:03.598Z</time></trkpt><trkpt lat="44.3686591" lon="11.0897608"><ele>549.0</ele><time>2026-04-03T14:18:05.571Z</time></trkpt><trkpt lat="44.3687234" lon="11.0897561"><ele>549.0</ele><time>2026-04-03T14:18:07.571Z</time></trkpt><trkpt lat="44.3687895" lon="11.0897346"><ele>549.0</ele><time>2026-04-03T14:18:09.594Z</time></trkpt><trkpt lat="44.3688733" lon="11.0896367"><ele>549.0</ele><time>2026-04-03T14:18:11.572Z</time></trkpt><trkpt lat="44.3689567" lon="11.0895833"><ele>549.0</ele><time>2026-04-03T14:18:13.571Z</time></trkpt><trkpt lat="44.3690454" lon="11.089544"><ele>549.0</ele><time>2026-04-03T14:18:16.573Z</time></trkpt><trkpt lat="44.3691365" lon="11.0895503"><ele>556.4</ele><time>2026-04-03T14:18:18.571Z</time></trkpt><trkpt lat="44.3692359" lon="11.0895338"><ele>563.8</ele><time>2026-04-03T14:18:20.572Z</time></trkpt><trkpt lat="44.369345" lon="11.0895088"><ele>571.2</ele><time>2026-04-03T14:18:22.572Z</time></trkpt><trkpt lat="44.3694392" lon="11.0894634"><ele>578.6</ele><time>2026-04-03T14:18:24.57Z</time></trkpt><trkpt lat="44.3695233" lon="11.0894722"><ele>586.0</ele><time>2026-04-03T14:18:26.573Z</time></trkpt><trkpt lat="44.3695977" lon="11.0893912"><ele>590.0</ele><time>2026-04-03T14:18:28.61Z</time></trkpt><trkpt lat="44.3697133" lon="11.0893667"><ele>594.0</ele><time>2026-04-03T14:18:30.577Z</time></trkpt><trkpt lat="44.36978" lon="11.0893817"><ele>598.0</ele><time>2026-04-03T14:18:31.571Z</time></trkpt><trkpt lat="44.369845" lon="11.0893917"><ele>602.0</ele><time>2026-04-03T14:18:32.571Z</time></trkpt><trkpt lat="44.3699567" lon="11.0893817"><ele>606.0</ele><time>2026-04-03T14:18:34.571Z</time></trkpt><trkpt lat="44.3700633" lon="11.0893233"><ele>606.0</ele><time>2026-04-03T14:18:36.567Z</time></trkpt><trkpt lat="44.3701633" lon="11.0892733"><ele>606.0</ele><time>2026-04-03T14:18:38.571Z</time></trkpt><trkpt lat="44.3702717" lon="11.0892483"><ele>606.0</ele><time>2026-04-03T14:18:40.57Z</time></trkpt><trkpt lat="44.3703467" lon="11.089255"><ele>606.0</ele><time>2026-04-03T14:18:42.573Z</time></trkpt><trkpt lat="44.3704267" lon="11.0892667"><ele>606.0</ele><time>2026-04-03T14:22:55.572Z</time></trkpt><trkpt lat="44.3705317" lon="11.0892583"><ele>606.0</ele><time>2026-04-03T14:22:57.571Z</time></trkpt><trkpt lat="44.37064" lon="11.0892667"><ele>606.0</ele><time>2026-04-03T14:22:59.571Z</time></trkpt><trkpt lat="44.3707283" lon="11.089275"><ele>606.0</ele><time>2026-04-03T14:23:01.571Z</time></trkpt><trkpt lat="44.3707983" lon="11.0892683"><ele>606.0</ele><time>2026-04-03T14:23:03.572Z</time></trkpt><trkpt lat="44.3708683" lon="11.08926"><ele>606.0</ele><time>2026-04-03T14:23:05.571Z</time></trkpt><trkpt lat="44.3709417" lon="11.089255"><ele>606.0</ele><time>2026-04-03T14:23:07.573Z</time></trkpt><trkpt lat="44.3710233" lon="11.0892517"><ele>606.0</ele><time>2026-04-03T14:23:09.573Z</time></trkpt><trkpt lat="44.3711167" lon="11.0892517"><ele>606.0</ele><time>2026-04-03T14:23:11.572Z</time></trkpt><trkpt lat="44.3712183" lon="11.089275"><ele>606.0</ele><time>2026-04-03T14:23:13.571Z</time></trkpt><trkpt lat="44.3713383" lon="11.0892717"><ele>606.0</ele><time>2026-04-03T14:23:15.572Z</time></trkpt><trkpt lat="44.3714" lon="11.0892533"><ele>606.0</ele><time>2026-04-03T14:23:16.573Z</time></trkpt><trkpt lat="44.3715117" lon="11.08918"><ele>605.3333333333334</ele><time>2026-04-03T14:23:18.573Z</time></trkpt><trkpt lat="44.3715717" lon="11.0891317"><ele>604.6666666666666</ele><time>2026-04-03T14:23:19.572Z</time></trkpt><trkpt lat="44.371635" lon="11.0890833"><ele>604.0</ele><time>2026-04-03T14:23:20.572Z</time></trkpt><trkpt lat="44.3717067" lon="11.0890367"><ele>603.3333333333333</ele><time>2026-04-03T14:23:21.572Z</time></trkpt><trkpt lat="44.3717767" lon="11.08899"><ele>602.6666666666666</ele><time>2026-04-03T14:23:22.572Z</time></trkpt><trkpt lat="44.37185" lon="11.0889433"><ele>602.0</ele><time>2026-04-03T14:23:23.571Z</time></trkpt><trkpt lat="44.3719167" lon="11.08888"><ele>601.5</ele><time>2026-04-03T14:23:24.572Z</time></trkpt><trkpt lat="44.3719783" lon="11.0888"><ele>601.0</ele><time>2026-04-03T14:23:25.571Z</time></trkpt><trkpt lat="44.3720433" lon="11.088715"><ele>600.5</ele><time>2026-04-03T14:23:26.572Z</time></trkpt><trkpt lat="44.3721033" lon="11.0886367"><ele>600.0</ele><time>2026-04-03T14:23:27.571Z</time></trkpt><trkpt lat="44.37216" lon="11.0885733"><ele>599.5</ele><time>2026-04-03T14:23:28.572Z</time></trkpt><trkpt lat="44.3722183" lon="11.0885167"><ele>599.0</ele><time>2026-04-03T14:23:29.573Z</time></trkpt><trkpt lat="44.3722767" lon="11.0884617"><ele>599.0</ele><time>2026-04-03T14:23:30.572Z</time></trkpt><trkpt lat="44.3723367" lon="11.08841"><ele>599.0</ele><time>2026-04-03T14:23:31.57Z</time></trkpt><trkpt lat="44.3723983" lon="11.08836"><ele>599.0</ele><time>2026-04-03T14:23:32.573Z</time></trkpt><trkpt lat="44.3724617" lon="11.0883117"><ele>599.0</ele><time>2026-04-03T14:23:33.571Z</time></trkpt><trkpt lat="44.3725283" lon="11.088255"><ele>599.0</ele><time>2026-04-03T14:23:34.571Z</time></trkpt><trkpt lat="44.3725917" lon="11.0882017"><ele>599.0</ele><time>2026-04-03T14:23:35.572Z</time></trkpt><trkpt lat="44.3726883" lon="11.0881033"><ele>597.1666666666666</ele><time>2026-04-03T14:23:37.571Z</time></trkpt><trkpt lat="44.372735" lon="11.088035"><ele>595.3333333333333</ele><time>2026-04-03T14:23:38.572Z</time></trkpt><trkpt lat="44.37278" lon="11.0879417"><ele>593.5</ele><time>2026-04-03T14:23:39.571Z</time></trkpt><trkpt lat="44.3728317" lon="11.087835"><ele>591.6666666666666</ele><time>2026-04-03T14:23:40.571Z</time></trkpt><trkpt lat="44.37288" lon="11.0877283"><ele>589.8333333333334</ele><time>2026-04-03T14:23:41.572Z</time></trkpt><trkpt lat="44.3729217" lon="11.0876117"><ele>588.0</ele><time>2026-04-03T14:23:42.572Z</time></trkpt><trkpt lat="44.37295" lon="11.0874783"><ele>586.1999999999999</ele><time>2026-04-03T14:23:43.573Z</time></trkpt><trkpt lat="44.37297" lon="11.0873367"><ele>584.4</ele><time>2026-04-03T14:23:44.573Z</time></trkpt><trkpt lat="44.3729817" lon="11.08719"><ele>582.5999999999999</ele><time>2026-04-03T14:23:45.572Z</time></trkpt><trkpt lat="44.3729917" lon="11.0870467"><ele>580.8</ele><time>2026-04-03T14:23:46.571Z</time></trkpt><trkpt lat="44.3729983" lon="11.0869033"><ele>579.0</ele><time>2026-04-03T14:23:47.572Z</time></trkpt><trkpt lat="44.3730033" lon="11.0867617"><ele>579.0</ele><time>2026-04-03T14:23:48.573Z</time></trkpt><trkpt lat="44.3730133" lon="11.0866233"><ele>579.0</ele><time>2026-04-03T14:23:49.573Z</time></trkpt><trkpt lat="44.37302" lon="11.08649"><ele>579.0</ele><time>2026-04-03T14:23:50.574Z</time></trkpt><trkpt lat="44.3730233" lon="11.0863633"><ele>579.0</ele><time>2026-04-03T14:23:51.572Z</time></trkpt><trkpt lat="44.3730233" lon="11.08624"><ele>579.0</ele><time>2026-04-03T14:23:52.572Z</time></trkpt><trkpt lat="44.3730233" lon="11.0861233"><ele>578.8333333333334</ele><time>2026-04-03T14:23:53.571Z</time></trkpt><trkpt lat="44.3730217" lon="11.0860117"><ele>578.6666666666666</ele><time>2026-04-03T14:23:54.571Z</time></trkpt><trkpt lat="44.373025" lon="11.0859017"><ele>578.5</ele><time>2026-04-03T14:23:55.572Z</time></trkpt><trkpt lat="44.3730333" lon="11.0857867"><ele>578.3333333333333</ele><time>2026-04-03T14:23:56.573Z</time></trkpt><trkpt lat="44.37305" lon="11.08567"><ele>578.1666666666666</ele><time>2026-04-03T14:23:57.571Z</time></trkpt><trkpt lat="44.37308" lon="11.0855633"><ele>578.0</ele><time>2026-04-03T14:23:58.572Z</time></trkpt><trkpt lat="44.3731117" lon="11.0854667"><ele>579.1999999999999</ele><time>2026-04-03T14:23:59.572Z</time></trkpt><trkpt lat="44.3731417" lon="11.0853783"><ele>580.4</ele><time>2026-04-03T14:24:00.572Z</time></trkpt><trkpt lat="44.3731767" lon="11.0852967"><ele>581.5999999999999</ele><time>2026-04-03T14:24:01.571Z</time></trkpt><trkpt lat="44.3732083" lon="11.085215"><ele>582.8</ele><time>2026-04-03T14:24:02.571Z</time></trkpt><trkpt lat="44.373275" lon="11.0850683"><ele>584.0</ele><time>2026-04-03T14:24:04.571Z</time></trkpt><trkpt lat="44.3733533" lon="11.0849367"><ele>584.0</ele><time>2026-04-03T14:24:06.57Z</time></trkpt><trkpt lat="44.3734267" lon="11.0848367"><ele>584.0</ele><time>2026-04-03T14:24:08.572Z</time></trkpt><trkpt lat="44.37349" lon="11.0847917"><ele>584.0</ele><time>2026-04-03T14:24:10.572Z</time></trkpt><trkpt lat="44.3735467" lon="11.08488"><ele>584.0</ele><time>2026-04-03T14:24:13.571Z</time></trkpt><trkpt lat="44.373515" lon="11.0849967"><ele>584.0</ele><time>2026-04-03T14:24:15.571Z</time></trkpt><trkpt lat="44.37349" lon="11.0851533"><ele>584.0</ele><time>2026-04-03T14:24:17.572Z</time></trkpt><trkpt lat="44.37349" lon="11.0852417"><ele>584.0</ele><time>2026-04-03T14:24:18.572Z</time></trkpt><trkpt lat="44.3735133" lon="11.08534"><ele>584.0</ele><time>2026-04-03T14:24:19.572Z</time></trkpt><trkpt lat="44.3735433" lon="11.0854383"><ele>584.0</ele><time>2026-04-03T14:24:20.572Z</time></trkpt><trkpt lat="44.3735767" lon="11.0855233"><ele>584.0</ele><time>2026-04-03T14:24:21.574Z</time></trkpt><trkpt lat="44.3736117" lon="11.0855967"><ele>584.0</ele><time>2026-04-03T14:24:22.571Z</time></trkpt><trkpt lat="44.373645" lon="11.085675"><ele>584.0</ele><time>2026-04-03T14:24:23.571Z</time></trkpt><trkpt lat="44.3736783" lon="11.0857567"><ele>584.6666666666666</ele><time>2026-04-03T14:24:24.571Z</time></trkpt><trkpt lat="44.3737083" lon="11.0858383"><ele>585.3333333333333</ele><time>2026-04-03T14:24:25.571Z</time></trkpt><trkpt lat="44.3737383" lon="11.0859267"><ele>586.0</ele><time>2026-04-03T14:24:26.572Z</time></trkpt><trkpt lat="44.3737683" lon="11.0860167"><ele>586.6666666666666</ele><time>2026-04-03T14:24:27.57Z</time></trkpt><trkpt lat="44.3738233" lon="11.0861683"><ele>587.3333333333334</ele><time>2026-04-03T14:24:29.57Z</time></trkpt><trkpt lat="44.373855" lon="11.0863317"><ele>588.0</ele><time>2026-04-03T14:24:31.572Z</time></trkpt><trkpt lat="44.3738733" lon="11.0864783"><ele>584.5</ele><time>2026-04-03T14:24:33.571Z</time></trkpt><trkpt lat="44.3738817" lon="11.08662"><ele>581.0</ele><time>2026-04-03T14:24:35.572Z</time></trkpt><trkpt lat="44.3739" lon="11.0867633"><ele>577.5</ele><time>2026-04-03T14:24:37.571Z</time></trkpt><trkpt lat="44.3739267" lon="11.08685"><ele>574.0</ele><time>2026-04-03T14:24:38.573Z</time></trkpt><trkpt lat="44.3739583" lon="11.0869383"><ele>570.5</ele><time>2026-04-03T14:24:39.572Z</time></trkpt><trkpt lat="44.3739967" lon="11.0870183"><ele>567.0</ele><time>2026-04-03T14:24:40.571Z</time></trkpt><trkpt lat="44.3740367" lon="11.0870917"><ele>567.0</ele><time>2026-04-03T14:24:41.571Z</time></trkpt><trkpt lat="44.3740917" lon="11.0871667"><ele>567.0</ele><time>2026-04-03T14:24:42.571Z</time></trkpt><trkpt lat="44.3741333" lon="11.0872333"><ele>567.0</ele><time>2026-04-03T14:24:43.57Z</time></trkpt><trkpt lat="44.3741767" lon="11.0873033"><ele>567.0</ele><time>2026-04-03T14:24:44.573Z</time></trkpt><trkpt lat="44.3742417" lon="11.0874533"><ele>567.0</ele><time>2026-04-03T14:24:46.571Z</time></trkpt><trkpt lat="44.3742817" lon="11.0876033"><ele>567.0</ele><time>2026-04-03T14:24:48.571Z</time></trkpt><trkpt lat="44.3743" lon="11.0877567"><ele>567.75</ele><time>2026-04-03T14:24:50.568Z</time></trkpt><trkpt lat="44.3743333" lon="11.087915"><ele>568.5</ele><time>2026-04-03T14:24:52.571Z</time></trkpt><trkpt lat="44.3743767" lon="11.0880717"><ele>569.25</ele><time>2026-04-03T14:24:54.571Z</time></trkpt><trkpt lat="44.3744333" lon="11.0882017"><ele>570.0</ele><time>2026-04-03T14:24:56.571Z</time></trkpt><trkpt lat="44.3745333" lon="11.0883117"><ele>570.0</ele><time>2026-04-03T14:24:58.571Z</time></trkpt><trkpt lat="44.37459" lon="11.0883783"><ele>570.0</ele><time>2026-04-03T14:24:59.571Z</time></trkpt><trkpt lat="44.3746383" lon="11.088455"><ele>570.0</ele><time>2026-04-03T14:25:00.572Z</time></trkpt><trkpt lat="44.374685" lon="11.0885333"><ele>570.0</ele><time>2026-04-03T14:25:01.571Z</time></trkpt><trkpt lat="44.3747333" lon="11.0886017"><ele>570.0</ele><time>2026-04-03T14:25:02.572Z</time></trkpt><trkpt lat="44.3747883" lon="11.0886633"><ele>570.0</ele><time>2026-04-03T14:25:03.572Z</time></trkpt><trkpt lat="44.374845" lon="11.088715"><ele>570.0</ele><time>2026-04-03T14:25:04.571Z</time></trkpt><trkpt lat="44.3749533" lon="11.088785"><ele>567.1666666666666</ele><time>2026-04-03T14:25:06.572Z</time></trkpt><trkpt lat="44.3750133" lon="11.0888167"><ele>564.3333333333334</ele><time>2026-04-03T14:25:07.571Z</time></trkpt><trkpt lat="44.375115" lon="11.0888767"><ele>561.5</ele><time>2026-04-03T14:25:09.571Z</time></trkpt><trkpt lat="44.3751983" lon="11.0889417"><ele>558.6666666666667</ele><time>2026-04-03T14:25:11.571Z</time></trkpt><trkpt lat="44.375265" lon="11.0890017"><ele>555.8333333333334</ele><time>2026-04-03T14:25:13.572Z</time></trkpt><trkpt lat="44.3753483" lon="11.0890533"><ele>553.0</ele><time>2026-04-03T14:25:16.57Z</time></trkpt><trkpt lat="44.3754033" lon="11.0891333"><ele>553.0</ele><time>2026-04-03T14:25:18.571Z</time></trkpt><trkpt lat="44.3754617" lon="11.0892333"><ele>553.0</ele><time>2026-04-03T14:25:20.571Z</time></trkpt><trkpt lat="44.3755167" lon="11.0893"><ele>553.0</ele><time>2026-04-03T14:25:22.573Z</time></trkpt><trkpt lat="44.3756033" lon="11.0893183"><ele>553.0</ele><time>2026-04-03T14:25:25.572Z</time></trkpt><trkpt lat="44.3756883" lon="11.0892633"><ele>553.0</ele><time>2026-04-03T14:25:28.571Z</time></trkpt><trkpt lat="44.37576" lon="11.089295"><ele>553.0</ele><time>2026-04-03T14:25:30.572Z</time></trkpt><trkpt lat="44.375865" lon="11.089355"><ele>550.0</ele><time>2026-04-03T14:25:32.573Z</time></trkpt><trkpt lat="44.3759733" lon="11.0894283"><ele>547.0</ele><time>2026-04-03T14:25:34.573Z</time></trkpt><trkpt lat="44.3760267" lon="11.08949"><ele>544.0</ele><time>2026-04-03T14:25:35.572Z</time></trkpt><trkpt lat="44.376095" lon="11.0895583"><ele>541.0</ele><time>2026-04-03T14:25:36.571Z</time></trkpt><trkpt lat="44.3761583" lon="11.08963"><ele>538.0</ele><time>2026-04-03T14:25:37.571Z</time></trkpt><trkpt lat="44.376225" lon="11.0897017"><ele>535.0</ele><time>2026-04-03T14:25:38.572Z</time></trkpt><trkpt lat="44.37629" lon="11.0897683"><ele>535.0</ele><time>2026-04-03T14:25:39.571Z</time></trkpt><trkpt lat="44.3763467" lon="11.089835"><ele>535.0</ele><time>2026-04-03T14:25:40.57Z</time></trkpt><trkpt lat="44.37639" lon="11.0899033"><ele>535.0</ele><time>2026-04-03T14:25:41.57Z</time></trkpt><trkpt lat="44.37642" lon="11.0899817"><ele>535.0</ele><time>2026-04-03T14:25:42.572Z</time></trkpt><trkpt lat="44.3764383" lon="11.0900717"><ele>535.0</ele><time>2026-04-03T14:25:43.571Z</time></trkpt><trkpt lat="44.3764433" lon="11.0901767"><ele>535.0</ele><time>2026-04-03T14:25:44.572Z</time></trkpt><trkpt lat="44.3764483" lon="11.090295"><ele>535.0</ele><time>2026-04-03T14:25:45.571Z</time></trkpt><trkpt lat="44.3764467" lon="11.0904183"><ele>532.2</ele><time>2026-04-03T14:25:46.571Z</time></trkpt><trkpt lat="44.3764483" lon="11.090545"><ele>529.4</ele><time>2026-04-03T14:25:47.571Z</time></trkpt><trkpt lat="44.3764433" lon="11.09068"><ele>526.6</ele><time>2026-04-03T14:25:48.57Z</time></trkpt><trkpt lat="44.37644" lon="11.090815"><ele>523.8</ele><time>2026-04-03T14:25:49.57Z</time></trkpt><trkpt lat="44.3764367" lon="11.0909367"><ele>521.0</ele><time>2026-04-03T14:25:50.572Z</time></trkpt><trkpt lat="44.3764467" lon="11.0910617"><ele>521.0</ele><time>2026-04-03T14:25:51.57Z</time></trkpt><trkpt lat="44.3764683" lon="11.091185"><ele>521.0</ele><time>2026-04-03T14:25:52.572Z</time></trkpt><trkpt lat="44.376505" lon="11.091305"><ele>521.0</ele><time>2026-04-03T14:25:53.57Z</time></trkpt><trkpt lat="44.3765467" lon="11.09142"><ele>521.0</ele><time>2026-04-03T14:25:54.571Z</time></trkpt><trkpt lat="44.3765883" lon="11.0915283"><ele>521.0</ele><time>2026-04-03T14:25:55.57Z</time></trkpt><trkpt lat="44.37663" lon="11.0916383"><ele>521.0</ele><time>2026-04-03T14:25:56.572Z</time></trkpt><trkpt lat="44.3766633" lon="11.0917533"><ele>521.0</ele><time>2026-04-03T14:25:57.572Z</time></trkpt><trkpt lat="44.3766883" lon="11.09186"><ele>521.0</ele><time>2026-04-03T14:25:58.57Z</time></trkpt><trkpt lat="44.3766983" lon="11.0919683"><ele>521.0</ele><time>2026-04-03T14:25:59.571Z</time></trkpt><trkpt lat="44.3767017" lon="11.0920767"><ele>521.0</ele><time>2026-04-03T14:26:00.571Z</time></trkpt><trkpt lat="44.3766983" lon="11.0921833"><ele>521.0</ele><time>2026-04-03T14:26:01.571Z</time></trkpt><trkpt lat="44.3767" lon="11.092285"><ele>521.0</ele><time>2026-04-03T14:26:02.571Z</time></trkpt><trkpt lat="44.3767133" lon="11.0923867"><ele>521.0</ele><time>2026-04-03T14:26:03.571Z</time></trkpt><trkpt lat="44.3767417" lon="11.0924817"><ele>521.0</ele><time>2026-04-03T14:26:04.571Z</time></trkpt><trkpt lat="44.3767933" lon="11.09256"><ele>521.0</ele><time>2026-04-03T14:26:05.571Z</time></trkpt><trkpt lat="44.3768733" lon="11.092625"><ele>521.0</ele><time>2026-04-03T14:26:06.57Z</time></trkpt><trkpt lat="44.3769833" lon="11.0926833"><ele>521.0</ele><time>2026-04-03T14:26:07.571Z</time></trkpt><trkpt lat="44.3771" lon="11.092725"><ele>521.0</ele><time>2026-04-03T14:26:08.573Z</time></trkpt><trkpt lat="44.3772067" lon="11.0927733"><ele>521.0</ele><time>2026-04-03T14:26:09.571Z</time></trkpt><trkpt lat="44.3773133" lon="11.0928267"><ele>521.0</ele><time>2026-04-03T14:26:10.571Z</time></trkpt><trkpt lat="44.3774133" lon="11.0928833"><ele>521.0</ele><time>2026-04-03T14:26:11.571Z</time></trkpt><trkpt lat="44.3775167" lon="11.0929333"><ele>521.0</ele><time>2026-04-03T14:26:12.571Z</time></trkpt><trkpt lat="44.3776167" lon="11.092975"><ele>521.0</ele><time>2026-04-03T14:26:13.572Z</time></trkpt><trkpt lat="44.3777017" lon="11.0929917"><ele>521.0</ele><time>2026-04-03T14:26:14.574Z</time></trkpt><trkpt lat="44.3777817" lon="11.0929967"><ele>521.0</ele><time>2026-04-03T14:26:15.572Z</time></trkpt><trkpt lat="44.3778633" lon="11.0929717"><ele>521.0</ele><time>2026-04-03T14:26:16.573Z</time></trkpt><trkpt lat="44.3779533" lon="11.0929167"><ele>521.0</ele><time>2026-04-03T14:26:17.572Z</time></trkpt><trkpt lat="44.378025" lon="11.0928467"><ele>521.0</ele><time>2026-04-03T14:26:18.572Z</time></trkpt><trkpt lat="44.3780933" lon="11.092775"><ele>522.0</ele><time>2026-04-03T14:26:19.571Z</time></trkpt><trkpt lat="44.3781467" lon="11.092685"><ele>523.0</ele><time>2026-04-03T14:26:20.572Z</time></trkpt><trkpt lat="44.3781867" lon="11.092595"><ele>524.0</ele><time>2026-04-03T14:26:21.571Z</time></trkpt><trkpt lat="44.37821" lon="11.0925117"><ele>525.0</ele><time>2026-04-03T14:26:22.572Z</time></trkpt><trkpt lat="44.3782817" lon="11.0924083"><ele>526.0</ele><time>2026-04-03T14:26:24.575Z</time></trkpt><trkpt lat="44.37838" lon="11.0924033"><ele>527.0</ele><time>2026-04-03T14:26:26.572Z</time></trkpt><trkpt lat="44.3784933" lon="11.0925"><ele>527.0</ele><time>2026-04-03T14:26:28.567Z</time></trkpt><trkpt lat="44.3785617" lon="11.0925817"><ele>527.0</ele><time>2026-04-03T14:26:29.571Z</time></trkpt><trkpt lat="44.3786317" lon="11.0926567"><ele>527.0</ele><time>2026-04-03T14:26:30.572Z</time></trkpt><trkpt lat="44.3787" lon="11.0927233"><ele>527.0</ele><time>2026-04-03T14:26:31.573Z</time></trkpt><trkpt lat="44.3787633" lon="11.0927883"><ele>527.0</ele><time>2026-04-03T14:26:32.573Z</time></trkpt><trkpt lat="44.37883" lon="11.0928517"><ele>527.0</ele><time>2026-04-03T14:26:33.572Z</time></trkpt><trkpt lat="44.3789" lon="11.09291"><ele>527.8000000000001</ele><time>2026-04-03T14:26:34.571Z</time></trkpt><trkpt lat="44.37898" lon="11.0929717"><ele>528.6</ele><time>2026-04-03T14:26:35.573Z</time></trkpt><trkpt lat="44.3790617" lon="11.0930267"><ele>529.4000000000001</ele><time>2026-04-03T14:26:36.573Z</time></trkpt><trkpt lat="44.3791417" lon="11.09309"><ele>530.2</ele><time>2026-04-03T14:26:37.573Z</time></trkpt><trkpt lat="44.3792067" lon="11.09318"><ele>531.0</ele><time>2026-04-03T14:26:38.573Z</time></trkpt><trkpt lat="44.3792683" lon="11.0932983"><ele>531.0</ele><time>2026-04-03T14:26:39.574Z</time></trkpt><trkpt lat="44.3793217" lon="11.093425"><ele>531.0</ele><time>2026-04-03T14:26:40.572Z</time></trkpt><trkpt lat="44.379375" lon="11.09354"><ele>531.0</ele><time>2026-04-03T14:26:41.573Z</time></trkpt><trkpt lat="44.3794217" lon="11.09364"><ele>531.0</ele><time>2026-04-03T14:26:42.571Z</time></trkpt><trkpt lat="44.379475" lon="11.09372"><ele>531.0</ele><time>2026-04-03T14:26:43.57Z</time></trkpt><trkpt lat="44.3795317" lon="11.0937783"><ele>531.0</ele><time>2026-04-03T14:26:44.573Z</time></trkpt><trkpt lat="44.3796067" lon="11.0938083"><ele>525.75</ele><time>2026-04-03T14:26:45.572Z</time></trkpt><trkpt lat="44.3797117" lon="11.0938133"><ele>520.5</ele><time>2026-04-03T14:26:46.571Z</time></trkpt><trkpt lat="44.3798183" lon="11.093785"><ele>515.25</ele><time>2026-04-03T14:26:47.571Z</time></trkpt><trkpt lat="44.37993" lon="11.0937133"><ele>510.0</ele><time>2026-04-03T14:26:48.571Z</time></trkpt><trkpt lat="44.3800317" lon="11.09364"><ele>510.0</ele><time>2026-04-03T14:26:49.573Z</time></trkpt><trkpt lat="44.3801267" lon="11.0935933"><ele>510.0</ele><time>2026-04-03T14:26:50.574Z</time></trkpt><trkpt lat="44.3802283" lon="11.0935783"><ele>510.0</ele><time>2026-04-03T14:26:51.573Z</time></trkpt><trkpt lat="44.3803317" lon="11.0936033"><ele>510.0</ele><time>2026-04-03T14:26:52.571Z</time></trkpt><trkpt lat="44.38042" lon="11.0936433"><ele>510.0</ele><time>2026-04-03T14:26:53.572Z</time></trkpt><trkpt lat="44.3804933" lon="11.0937017"><ele>509.8</ele><time>2026-04-03T14:26:54.571Z</time></trkpt><trkpt lat="44.3805567" lon="11.0937833"><ele>509.6</ele><time>2026-04-03T14:26:55.571Z</time></trkpt><trkpt lat="44.3805983" lon="11.09389"><ele>509.4</ele><time>2026-04-03T14:26:56.572Z</time></trkpt><trkpt lat="44.38061" lon="11.094055"><ele>509.2</ele><time>2026-04-03T14:26:57.571Z</time></trkpt><trkpt lat="44.380615" lon="11.09422"><ele>509.0</ele><time>2026-04-03T14:26:58.572Z</time></trkpt><trkpt lat="44.38063" lon="11.0943767"><ele>509.0</ele><time>2026-04-03T14:26:59.572Z</time></trkpt><trkpt lat="44.3806667" lon="11.0945167"><ele>509.0</ele><time>2026-04-03T14:27:00.572Z</time></trkpt><trkpt lat="44.38073" lon="11.0946583"><ele>509.0</ele><time>2026-04-03T14:27:01.571Z</time></trkpt><trkpt lat="44.3808117" lon="11.0948183"><ele>509.0</ele><time>2026-04-03T14:27:02.572Z</time></trkpt><trkpt lat="44.3808883" lon="11.0949817"><ele>512.25</ele><time>2026-04-03T14:27:03.572Z</time></trkpt><trkpt lat="44.3809667" lon="11.09514"><ele>515.5</ele><time>2026-04-03T14:27:04.572Z</time></trkpt><trkpt lat="44.3810383" lon="11.0952967"><ele>518.75</ele><time>2026-04-03T14:27:05.573Z</time></trkpt><trkpt lat="44.3811033" lon="11.0954433"><ele>522.0</ele><time>2026-04-03T14:27:06.571Z</time></trkpt><trkpt lat="44.3811583" lon="11.09559"><ele>522.0</ele><time>2026-04-03T14:27:07.571Z</time></trkpt><trkpt lat="44.3812117" lon="11.0957417"><ele>522.0</ele><time>2026-04-03T14:27:08.573Z</time></trkpt><trkpt lat="44.3812633" lon="11.095905"><ele>522.0</ele><time>2026-04-03T14:27:09.571Z</time></trkpt><trkpt lat="44.3813067" lon="11.0960733"><ele>522.0</ele><time>2026-04-03T14:27:10.571Z</time></trkpt><trkpt lat="44.3813433" lon="11.0962367"><ele>521.4</ele><time>2026-04-03T14:27:11.572Z</time></trkpt><trkpt lat="44.381385" lon="11.0963883"><ele>520.8000000000001</ele><time>2026-04-03T14:27:12.572Z</time></trkpt><trkpt lat="44.3814283" lon="11.0965383"><ele>520.2</ele><time>2026-04-03T14:27:13.571Z</time></trkpt><trkpt lat="44.3814733" lon="11.09668"><ele>519.6</ele><time>2026-04-03T14:27:14.573Z</time></trkpt><trkpt lat="44.3815217" lon="11.0967967"><ele>519.0</ele><time>2026-04-03T14:27:15.571Z</time></trkpt><trkpt lat="44.3815833" lon="11.0968933"><ele>520.8</ele><time>2026-04-03T14:27:16.571Z</time></trkpt><trkpt lat="44.3816567" lon="11.0969817"><ele>522.5999999999999</ele><time>2026-04-03T14:27:17.572Z</time></trkpt><trkpt lat="44.3817367" lon="11.0970567"><ele>524.4</ele><time>2026-04-03T14:27:18.573Z</time></trkpt><trkpt lat="44.3818233" lon="11.0971267"><ele>526.1999999999999</ele><time>2026-04-03T14:27:19.573Z</time></trkpt><trkpt lat="44.3819083" lon="11.0972"><ele>528.0</ele><time>2026-04-03T14:27:20.575Z</time></trkpt><trkpt lat="44.3819933" lon="11.0972783"><ele>528.0</ele><time>2026-04-03T14:27:21.572Z</time></trkpt><trkpt lat="44.382075" lon="11.0973583"><ele>528.0</ele><time>2026-04-03T14:27:22.571Z</time></trkpt><trkpt lat="44.382155" lon="11.0974367"><ele>528.0</ele><time>2026-04-03T14:27:23.576Z</time></trkpt><trkpt lat="44.3822383" lon="11.0975017"><ele>528.0</ele><time>2026-04-03T14:27:24.573Z</time></trkpt><trkpt lat="44.3823267" lon="11.0975633"><ele>528.0</ele><time>2026-04-03T14:27:25.573Z</time></trkpt><trkpt lat="44.3824217" lon="11.0976183"><ele>529.0</ele><time>2026-04-03T14:27:26.573Z</time></trkpt><trkpt lat="44.3825183" lon="11.0976717"><ele>530.0</ele><time>2026-04-03T14:27:27.572Z</time></trkpt><trkpt lat="44.3826083" lon="11.09773"><ele>531.0</ele><time>2026-04-03T14:27:28.572Z</time></trkpt><trkpt lat="44.3826933" lon="11.0978017"><ele>532.0</ele><time>2026-04-03T14:27:29.573Z</time></trkpt><trkpt lat="44.3827733" lon="11.097885"><ele>533.0</ele><time>2026-04-03T14:27:30.57Z</time></trkpt><trkpt lat="44.38285" lon="11.097975"><ele>533.0</ele><time>2026-04-03T14:27:31.572Z</time></trkpt><trkpt lat="44.3829133" lon="11.09806"><ele>533.0</ele><time>2026-04-03T14:27:32.573Z</time></trkpt><trkpt lat="44.3829783" lon="11.0981317"><ele>533.0</ele><time>2026-04-03T14:27:33.572Z</time></trkpt><trkpt lat="44.383045" lon="11.098185"><ele>533.0</ele><time>2026-04-03T14:27:34.571Z</time></trkpt><trkpt lat="44.3831133" lon="11.0982267"><ele>533.0</ele><time>2026-04-03T14:27:35.572Z</time></trkpt><trkpt lat="44.3831917" lon="11.098255"><ele>533.0</ele><time>2026-04-03T14:27:36.573Z</time></trkpt><trkpt lat="44.3832733" lon="11.0982783"><ele>533.3333333333333</ele><time>2026-04-03T14:27:37.571Z</time></trkpt><trkpt lat="44.3833533" lon="11.098295"><ele>533.6666666666666</ele><time>2026-04-03T14:27:38.572Z</time></trkpt><trkpt lat="44.383435" lon="11.0983"><ele>534.0</ele><time>2026-04-03T14:27:39.571Z</time></trkpt><trkpt lat="44.383515" lon="11.0982583"><ele>534.3333333333334</ele><time>2026-04-03T14:27:40.57Z</time></trkpt><trkpt lat="44.3835883" lon="11.098195"><ele>534.6666666666667</ele><time>2026-04-03T14:27:41.571Z</time></trkpt><trkpt lat="44.3836467" lon="11.0981167"><ele>535.0</ele><time>2026-04-03T14:27:42.572Z</time></trkpt><trkpt lat="44.38369" lon="11.09803"><ele>535.1666666666667</ele><time>2026-04-03T14:27:43.57Z</time></trkpt><trkpt lat="44.3837283" lon="11.097945"><ele>535.3333333333334</ele><time>2026-04-03T14:27:44.572Z</time></trkpt><trkpt lat="44.3837733" lon="11.0978583"><ele>535.5</ele><time>2026-04-03T14:27:45.57Z</time></trkpt><trkpt lat="44.3838233" lon="11.0977717"><ele>535.6666666666666</ele><time>2026-04-03T14:27:46.572Z</time></trkpt><trkpt lat="44.3838783" lon="11.0976883"><ele>535.8333333333333</ele><time>2026-04-03T14:27:47.572Z</time></trkpt><trkpt lat="44.383945" lon="11.0976167"><ele>536.0</ele><time>2026-04-03T14:27:48.573Z</time></trkpt><trkpt lat="44.38402" lon="11.0975467"><ele>536.0</ele><time>2026-04-03T14:27:49.573Z</time></trkpt><trkpt lat="44.3840933" lon="11.0974667"><ele>536.0</ele><time>2026-04-03T14:27:50.573Z</time></trkpt><trkpt lat="44.384165" lon="11.0973767"><ele>536.0</ele><time>2026-04-03T14:27:51.572Z</time></trkpt><trkpt lat="44.3842317" lon="11.097285"><ele>536.0</ele><time>2026-04-03T14:27:52.572Z</time></trkpt><trkpt lat="44.3842933" lon="11.0971933"><ele>536.0</ele><time>2026-04-03T14:27:53.574Z</time></trkpt><trkpt lat="44.3843567" lon="11.0971217"><ele>534.3333333333333</ele><time>2026-04-03T14:27:54.572Z</time></trkpt><trkpt lat="44.38441" lon="11.0970633"><ele>532.6666666666666</ele><time>2026-04-03T14:27:55.572Z</time></trkpt><trkpt lat="44.3845183" lon="11.0970183"><ele>531.0</ele><time>2026-04-03T14:27:57.573Z</time></trkpt><trkpt lat="44.3846367" lon="11.0970583"><ele>529.3333333333334</ele><time>2026-04-03T14:27:59.571Z</time></trkpt><trkpt lat="44.38468" lon="11.0971233"><ele>527.6666666666667</ele><time>2026-04-03T14:28:00.573Z</time></trkpt><trkpt lat="44.384755" lon="11.097155"><ele>526.0</ele><time>2026-04-03T14:28:02.572Z</time></trkpt><trkpt lat="44.3848533" lon="11.0970683"><ele>526.0</ele><time>2026-04-03T14:28:04.568Z</time></trkpt><trkpt lat="44.3849167" lon="11.0969717"><ele>526.0</ele><time>2026-04-03T14:28:05.571Z</time></trkpt><trkpt lat="44.3849867" lon="11.0968583"><ele>526.0</ele><time>2026-04-03T14:28:06.57Z</time></trkpt><trkpt lat="44.38505" lon="11.096745"><ele>526.0</ele><time>2026-04-03T14:28:07.571Z</time></trkpt><trkpt lat="44.385115" lon="11.0966367"><ele>526.0</ele><time>2026-04-03T14:28:08.572Z</time></trkpt><trkpt lat="44.38518" lon="11.096525"><ele>523.4</ele><time>2026-04-03T14:28:09.571Z</time></trkpt><trkpt lat="44.3852417" lon="11.0964117"><ele>520.8</ele><time>2026-04-03T14:28:10.572Z</time></trkpt><trkpt lat="44.3853067" lon="11.0963"><ele>518.1999999999999</ele><time>2026-04-03T14:28:11.571Z</time></trkpt><trkpt lat="44.38537" lon="11.09619"><ele>515.6</ele><time>2026-04-03T14:28:12.571Z</time></trkpt><trkpt lat="44.3854317" lon="11.0960817"><ele>513.0</ele><time>2026-04-03T14:28:13.571Z</time></trkpt><trkpt lat="44.3854883" lon="11.095975"><ele>511.8333333333333</ele><time>2026-04-03T14:28:14.572Z</time></trkpt><trkpt lat="44.385545" lon="11.0958767"><ele>510.66666666666663</ele><time>2026-04-03T14:28:15.571Z</time></trkpt><trkpt lat="44.385605" lon="11.0957883"><ele>509.5</ele><time>2026-04-03T14:28:16.571Z</time></trkpt><trkpt lat="44.3856733" lon="11.0957183"><ele>508.3333333333333</ele><time>2026-04-03T14:28:17.572Z</time></trkpt><trkpt lat="44.38575" lon="11.0956733"><ele>507.16666666666663</ele><time>2026-04-03T14:28:18.572Z</time></trkpt><trkpt lat="44.38582" lon="11.0956417"><ele>506.0</ele><time>2026-04-03T14:28:19.573Z</time></trkpt><trkpt lat="44.3858817" lon="11.0956067"><ele>504.8571428571429</ele><time>2026-04-03T14:28:20.572Z</time></trkpt><trkpt lat="44.38593" lon="11.0955467"><ele>503.7142857142857</ele><time>2026-04-03T14:28:21.572Z</time></trkpt><trkpt lat="44.385965" lon="11.0954683"><ele>502.57142857142856</ele><time>2026-04-03T14:28:22.572Z</time></trkpt><trkpt lat="44.3859817" lon="11.0953767"><ele>501.42857142857144</ele><time>2026-04-03T14:28:23.572Z</time></trkpt><trkpt lat="44.3859683" lon="11.0952817"><ele>500.2857142857142</ele><time>2026-04-03T14:28:24.574Z</time></trkpt><trkpt lat="44.3859317" lon="11.09514"><ele>499.1428571428571</ele><time>2026-04-03T14:28:26.572Z</time></trkpt><trkpt lat="44.3859417" lon="11.0950483"><ele>498.0</ele><time>2026-04-03T14:28:29.572Z</time></trkpt><trkpt lat="44.38599" lon="11.095125"><ele>498.0</ele><time>2026-04-03T14:28:31.571Z</time></trkpt><trkpt lat="44.3860767" lon="11.0952333"><ele>498.0</ele><time>2026-04-03T14:28:33.572Z</time></trkpt><trkpt lat="44.38614" lon="11.0952783"><ele>498.0</ele><time>2026-04-03T14:28:34.57Z</time></trkpt><trkpt lat="44.3862067" lon="11.095315"><ele>498.0</ele><time>2026-04-03T14:28:35.57Z</time></trkpt><trkpt lat="44.3862767" lon="11.0953467"><ele>498.0</ele><time>2026-04-03T14:28:36.57Z</time></trkpt><trkpt lat="44.38635" lon="11.0953583"><ele>498.0</ele><time>2026-04-03T14:28:37.571Z</time></trkpt><trkpt lat="44.3864283" lon="11.0953633"><ele>495.1666666666667</ele><time>2026-04-03T14:28:38.572Z</time></trkpt><trkpt lat="44.3865083" lon="11.0953583"><ele>492.33333333333337</ele><time>2026-04-03T14:28:39.571Z</time></trkpt><trkpt lat="44.38659" lon="11.0953333"><ele>489.5</ele><time>2026-04-03T14:28:40.572Z</time></trkpt><trkpt lat="44.3866733" lon="11.0952867"><ele>486.6666666666667</ele><time>2026-04-03T14:28:41.572Z</time></trkpt><trkpt lat="44.3867483" lon="11.095235"><ele>483.83333333333337</ele><time>2026-04-03T14:28:42.57Z</time></trkpt><trkpt lat="44.38682" lon="11.0951717"><ele>481.0</ele><time>2026-04-03T14:28:43.571Z</time></trkpt><trkpt lat="44.3868933" lon="11.0951083"><ele>481.00000000000006</ele><time>2026-04-03T14:28:44.574Z</time></trkpt><trkpt lat="44.3869667" lon="11.0950417"><ele>481.0</ele><time>2026-04-03T14:28:45.571Z</time></trkpt><trkpt lat="44.3870367" lon="11.09498"><ele>481.0</ele><time>2026-04-03T14:28:46.572Z</time></trkpt><trkpt lat="44.3871083" lon="11.0949183"><ele>481.0</ele><time>2026-04-03T14:28:47.572Z</time></trkpt><trkpt lat="44.387175" lon="11.0948567"><ele>481.00000000000006</ele><time>2026-04-03T14:28:48.573Z</time></trkpt><trkpt lat="44.387235" lon="11.0947933"><ele>481.0</ele><time>2026-04-03T14:28:49.573Z</time></trkpt><trkpt lat="44.38729" lon="11.0947183"><ele>477.83333333333337</ele><time>2026-04-03T14:28:50.575Z</time></trkpt><trkpt lat="44.3873367" lon="11.0946267"><ele>474.6666666666667</ele><time>2026-04-03T14:28:51.573Z</time></trkpt><trkpt lat="44.3873767" lon="11.0945183"><ele>471.5</ele><time>2026-04-03T14:28:52.571Z</time></trkpt><trkpt lat="44.3874067" lon="11.094395"><ele>468.33333333333337</ele><time>2026-04-03T14:28:53.571Z</time></trkpt><trkpt lat="44.3874333" lon="11.0942717"><ele>465.1666666666667</ele><time>2026-04-03T14:28:54.573Z</time></trkpt><trkpt lat="44.3874667" lon="11.094155"><ele>462.0</ele><time>2026-04-03T14:28:55.571Z</time></trkpt><trkpt lat="44.3875033" lon="11.0940567"><ele>459.0</ele><time>2026-04-03T14:28:56.573Z</time></trkpt><trkpt lat="44.387545" lon="11.0939667"><ele>456.0</ele><time>2026-04-03T14:28:57.571Z</time></trkpt><trkpt lat="44.38759" lon="11.0938783"><ele>453.0</ele><time>2026-04-03T14:28:58.572Z</time></trkpt><trkpt lat="44.387635" lon="11.0937867"><ele>450.0</ele><time>2026-04-03T14:28:59.57Z</time></trkpt><trkpt lat="44.387685" lon="11.0937017"><ele>447.0</ele><time>2026-04-03T14:29:00.571Z</time></trkpt><trkpt lat="44.3877417" lon="11.0936167"><ele>444.0</ele><time>2026-04-03T14:29:01.572Z</time></trkpt><trkpt lat="44.3878067" lon="11.0935417"><ele>444.0</ele><time>2026-04-03T14:29:02.572Z</time></trkpt><trkpt lat="44.3878817" lon="11.0934783"><ele>444.0</ele><time>2026-04-03T14:29:03.57Z</time></trkpt><trkpt lat="44.3879683" lon="11.0934233"><ele>444.0</ele><time>2026-04-03T14:29:04.571Z</time></trkpt><trkpt lat="44.3880633" lon="11.0933567"><ele>444.0</ele><time>2026-04-03T14:29:05.571Z</time></trkpt><trkpt lat="44.3881667" lon="11.0932883"><ele>444.0</ele><time>2026-04-03T14:29:06.571Z</time></trkpt><trkpt lat="44.38827" lon="11.0932217"><ele>441.79999999999995</ele><time>2026-04-03T14:29:07.57Z</time></trkpt><trkpt lat="44.38837" lon="11.09316"><ele>439.59999999999997</ele><time>2026-04-03T14:29:08.569Z</time></trkpt><trkpt lat="44.388465" lon="11.0930933"><ele>437.4</ele><time>2026-04-03T14:29:09.571Z</time></trkpt><trkpt lat="44.38855" lon="11.0930217"><ele>435.2</ele><time>2026-04-03T14:29:10.571Z</time></trkpt><trkpt lat="44.3886183" lon="11.0929317"><ele>433.0</ele><time>2026-04-03T14:29:11.567Z</time></trkpt><trkpt lat="44.3886733" lon="11.092845"><ele>433.0</ele><time>2026-04-03T14:29:12.57Z</time></trkpt><trkpt lat="44.38872" lon="11.0927783"><ele>432.99999999999994</ele><time>2026-04-03T14:29:13.574Z</time></trkpt><trkpt lat="44.3887783" lon="11.0927283"><ele>432.99999999999994</ele><time>2026-04-03T14:29:14.574Z</time></trkpt><trkpt lat="44.3888567" lon="11.0926817"><ele>433.0</ele><time>2026-04-03T14:29:15.572Z</time></trkpt><trkpt lat="44.3889617" lon="11.0926483"><ele>433.0</ele><time>2026-04-03T14:29:16.571Z</time></trkpt><trkpt lat="44.3890817" lon="11.0926017"><ele>433.5</ele><time>2026-04-03T14:29:17.571Z</time></trkpt><trkpt lat="44.3892033" lon="11.0925433"><ele>434.0</ele><time>2026-04-03T14:29:18.573Z</time></trkpt><trkpt lat="44.38933" lon="11.0924833"><ele>434.5</ele><time>2026-04-03T14:29:19.572Z</time></trkpt><trkpt lat="44.3894633" lon="11.092425"><ele>435.0</ele><time>2026-04-03T14:29:20.573Z</time></trkpt><trkpt lat="44.3896017" lon="11.0923617"><ele>431.75</ele><time>2026-04-03T14:29:21.572Z</time></trkpt><trkpt lat="44.38974" lon="11.0922883"><ele>428.5</ele><time>2026-04-03T14:29:22.572Z</time></trkpt><trkpt lat="44.389875" lon="11.092195"><ele>425.25</ele><time>2026-04-03T14:29:23.572Z</time></trkpt><trkpt lat="44.39" lon="11.0920867"><ele>422.0</ele><time>2026-04-03T14:29:24.573Z</time></trkpt><trkpt lat="44.3901217" lon="11.0919617"><ele>422.0</ele><time>2026-04-03T14:29:25.573Z</time></trkpt><trkpt lat="44.3902317" lon="11.0918367"><ele>422.0</ele><time>2026-04-03T14:29:26.573Z</time></trkpt><trkpt lat="44.3903317" lon="11.0917233"><ele>422.0</ele><time>2026-04-03T14:29:27.572Z</time></trkpt><trkpt lat="44.3904433" lon="11.0916217"><ele>422.0</ele><time>2026-04-03T14:29:28.571Z</time></trkpt><trkpt lat="44.3905667" lon="11.0915267"><ele>421.20000000000005</ele><time>2026-04-03T14:29:29.573Z</time></trkpt><trkpt lat="44.390685" lon="11.0914517"><ele>420.4</ele><time>2026-04-03T14:29:30.572Z</time></trkpt><trkpt lat="44.390795" lon="11.0913967"><ele>419.6</ele><time>2026-04-03T14:29:31.571Z</time></trkpt><trkpt lat="44.3908967" lon="11.0913667"><ele>418.79999999999995</ele><time>2026-04-03T14:29:32.573Z</time></trkpt><trkpt lat="44.3909833" lon="11.09134"><ele>418.0</ele><time>2026-04-03T14:29:33.572Z</time></trkpt><trkpt lat="44.39105" lon="11.0913083"><ele>418.0</ele><time>2026-04-03T14:29:34.571Z</time></trkpt><trkpt lat="44.3911033" lon="11.0912533"><ele>418.0</ele><time>2026-04-03T14:29:35.572Z</time></trkpt><trkpt lat="44.3911317" lon="11.0911567"><ele>418.0</ele><time>2026-04-03T14:29:36.573Z</time></trkpt><trkpt lat="44.39115" lon="11.09106"><ele>418.0</ele><time>2026-04-03T14:29:37.574Z</time></trkpt><trkpt lat="44.391175" lon="11.0909733"><ele>418.0</ele><time>2026-04-03T14:29:38.573Z</time></trkpt><trkpt lat="44.391215" lon="11.090905"><ele>418.0</ele><time>2026-04-03T14:29:39.574Z</time></trkpt><trkpt lat="44.3912767" lon="11.0908583"><ele>418.0</ele><time>2026-04-03T14:29:40.57Z</time></trkpt><trkpt lat="44.391355" lon="11.0908317"><ele>417.2</ele><time>2026-04-03T14:29:41.568Z</time></trkpt><trkpt lat="44.391445" lon="11.0908367"><ele>416.4</ele><time>2026-04-03T14:29:42.571Z</time></trkpt><trkpt lat="44.3915317" lon="11.0908767"><ele>415.59999999999997</ele><time>2026-04-03T14:29:43.572Z</time></trkpt><trkpt lat="44.3916233" lon="11.0909517"><ele>414.79999999999995</ele><time>2026-04-03T14:29:44.573Z</time></trkpt><trkpt lat="44.3917133" lon="11.0910333"><ele>414.0</ele><time>2026-04-03T14:29:45.571Z</time></trkpt><trkpt lat="44.39181" lon="11.0911033"><ele>414.0</ele><time>2026-04-03T14:29:46.571Z</time></trkpt><trkpt lat="44.39191" lon="11.0911383"><ele>414.0</ele><time>2026-04-03T14:29:47.572Z</time></trkpt><trkpt lat="44.3920217" lon="11.0911217"><ele>414.0</ele><time>2026-04-03T14:29:48.573Z</time></trkpt><trkpt lat="44.3921383" lon="11.0910617"><ele>414.0</ele><time>2026-04-03T14:29:49.573Z</time></trkpt><trkpt lat="44.3922533" lon="11.0909817"><ele>413.2</ele><time>2026-04-03T14:29:50.572Z</time></trkpt><trkpt lat="44.3923683" lon="11.090905"><ele>412.4</ele><time>2026-04-03T14:29:51.572Z</time></trkpt><trkpt lat="44.392475" lon="11.0908367"><ele>411.6</ele><time>2026-04-03T14:29:52.572Z</time></trkpt><trkpt lat="44.3925733" lon="11.09078"><ele>410.8</ele><time>2026-04-03T14:29:53.572Z</time></trkpt><trkpt lat="44.39266" lon="11.090725"><ele>410.0</ele><time>2026-04-03T14:29:54.573Z</time></trkpt><trkpt lat="44.3927333" lon="11.090655"><ele>409.2</ele><time>2026-04-03T14:29:55.571Z</time></trkpt><trkpt lat="44.3928" lon="11.0905633"><ele>408.4</ele><time>2026-04-03T14:29:56.572Z</time></trkpt><trkpt lat="44.3928633" lon="11.0904483"><ele>407.6</ele><time>2026-04-03T14:29:57.574Z</time></trkpt><trkpt lat="44.39293" lon="11.0903183"><ele>406.8</ele><time>2026-04-03T14:29:58.571Z</time></trkpt><trkpt lat="44.3929983" lon="11.0901833"><ele>406.0</ele><time>2026-04-03T14:29:59.573Z</time></trkpt><trkpt lat="44.39307" lon="11.0900433"><ele>402.0</ele><time>2026-04-03T14:30:00.572Z</time></trkpt><trkpt lat="44.3931367" lon="11.089905"><ele>398.0</ele><time>2026-04-03T14:30:01.575Z</time></trkpt><trkpt lat="44.393215" lon="11.08978"><ele>394.0</ele><time>2026-04-03T14:30:02.573Z</time></trkpt><trkpt lat="44.39329" lon="11.0896567"><ele>390.0</ele><time>2026-04-03T14:30:03.57Z</time></trkpt><trkpt lat="44.3933633" lon="11.08954"><ele>390.0</ele><time>2026-04-03T14:30:04.573Z</time></trkpt><trkpt lat="44.393435" lon="11.089435"><ele>390.0</ele><time>2026-04-03T14:30:05.571Z</time></trkpt><trkpt lat="44.3934983" lon="11.0893467"><ele>390.0</ele><time>2026-04-03T14:30:06.572Z</time></trkpt><trkpt lat="44.3935533" lon="11.08928"><ele>390.0</ele><time>2026-04-03T14:30:07.572Z</time></trkpt><trkpt lat="44.3936583" lon="11.0892267"><ele>390.0</ele><time>2026-04-03T14:30:09.572Z</time></trkpt><trkpt lat="44.3937333" lon="11.08936"><ele>390.0</ele><time>2026-04-03T14:30:11.573Z</time></trkpt><trkpt lat="44.393765" lon="11.089475"><ele>390.0</ele><time>2026-04-03T14:30:12.572Z</time></trkpt><trkpt lat="44.3937817" lon="11.0896183"><ele>390.0</ele><time>2026-04-03T14:30:13.574Z</time></trkpt><trkpt lat="44.393795" lon="11.0897583"><ele>390.0</ele><time>2026-04-03T14:30:14.574Z</time></trkpt><trkpt lat="44.393815" lon="11.0898883"><ele>390.0</ele><time>2026-04-03T14:30:15.57Z</time></trkpt><trkpt lat="44.3938383" lon="11.0900117"><ele>388.5</ele><time>2026-04-03T14:30:16.571Z</time></trkpt><trkpt lat="44.3938633" lon="11.09013"><ele>387.0</ele><time>2026-04-03T14:30:17.57Z</time></trkpt><trkpt lat="44.3938883" lon="11.0902433"><ele>385.5</ele><time>2026-04-03T14:30:18.571Z</time></trkpt><trkpt lat="44.3939083" lon="11.0903517"><ele>384.0</ele><time>2026-04-03T14:30:19.57Z</time></trkpt><trkpt lat="44.3939233" lon="11.0904567"><ele>382.5</ele><time>2026-04-03T14:30:20.572Z</time></trkpt><trkpt lat="44.3939417" lon="11.0905583"><ele>381.0</ele><time>2026-04-03T14:30:21.572Z</time></trkpt><trkpt lat="44.3939533" lon="11.09066"><ele>381.0</ele><time>2026-04-03T14:30:22.571Z</time></trkpt><trkpt lat="44.3939733" lon="11.0907533"><ele>381.0</ele><time>2026-04-03T14:30:23.572Z</time></trkpt><trkpt lat="44.3939983" lon="11.0908433"><ele>381.0</ele><time>2026-04-03T14:30:24.573Z</time></trkpt><trkpt lat="44.3940333" lon="11.0909317"><ele>381.0</ele><time>2026-04-03T14:30:25.571Z</time></trkpt><trkpt lat="44.3940817" lon="11.0910167"><ele>381.0</ele><time>2026-04-03T14:30:26.572Z</time></trkpt><trkpt lat="44.3941267" lon="11.0910983"><ele>381.0</ele><time>2026-04-03T14:30:27.572Z</time></trkpt><trkpt lat="44.394165" lon="11.0911867"><ele>381.0</ele><time>2026-04-03T14:30:28.573Z</time></trkpt><trkpt lat="44.3941933" lon="11.091285"><ele>380.5</ele><time>2026-04-03T14:30:29.572Z</time></trkpt><trkpt lat="44.394205" lon="11.0913917"><ele>380.0</ele><time>2026-04-03T14:30:30.572Z</time></trkpt><trkpt lat="44.3941967" lon="11.0915067"><ele>379.5</ele><time>2026-04-03T14:30:31.571Z</time></trkpt><trkpt lat="44.394175" lon="11.0916183"><ele>379.0</ele><time>2026-04-03T14:30:32.572Z</time></trkpt><trkpt lat="44.3941483" lon="11.0917233"><ele>378.5</ele><time>2026-04-03T14:30:33.572Z</time></trkpt><trkpt lat="44.3941283" lon="11.0918283"><ele>378.0</ele><time>2026-04-03T14:30:34.571Z</time></trkpt><trkpt lat="44.3941033" lon="11.0919283"><ele>376.4</ele><time>2026-04-03T14:30:35.571Z</time></trkpt><trkpt lat="44.39406" lon="11.0920117"><ele>374.79999999999995</ele><time>2026-04-03T14:30:36.571Z</time></trkpt><trkpt lat="44.393995" lon="11.0920867"><ele>373.2</ele><time>2026-04-03T14:30:37.572Z</time></trkpt><trkpt lat="44.3939233" lon="11.0921667"><ele>371.6</ele><time>2026-04-03T14:30:38.573Z</time></trkpt><trkpt lat="44.393835" lon="11.0922467"><ele>370.0</ele><time>2026-04-03T14:30:39.571Z</time></trkpt><trkpt lat="44.3937433" lon="11.0923367"><ele>370.16666666666663</ele><time>2026-04-03T14:30:40.571Z</time></trkpt><trkpt lat="44.39366" lon="11.0924233"><ele>370.3333333333333</ele><time>2026-04-03T14:30:41.572Z</time></trkpt><trkpt lat="44.3935833" lon="11.0924967"><ele>370.5</ele><time>2026-04-03T14:30:42.572Z</time></trkpt><trkpt lat="44.3935133" lon="11.0925583"><ele>370.6666666666667</ele><time>2026-04-03T14:30:43.571Z</time></trkpt><trkpt lat="44.3934483" lon="11.0926033"><ele>370.83333333333337</ele><time>2026-04-03T14:30:44.573Z</time></trkpt><trkpt lat="44.3933933" lon="11.0926683"><ele>371.0</ele><time>2026-04-03T14:30:45.571Z</time></trkpt><trkpt lat="44.3933467" lon="11.09274"><ele>371.0</ele><time>2026-04-03T14:30:46.571Z</time></trkpt><trkpt lat="44.3933283" lon="11.09283"><ele>371.0</ele><time>2026-04-03T14:30:47.571Z</time></trkpt><trkpt lat="44.3933483" lon="11.092945"><ele>371.0</ele><time>2026-04-03T14:30:48.565Z</time></trkpt><trkpt lat="44.39339" lon="11.093065"><ele>371.0</ele><time>2026-04-03T14:30:49.57Z</time></trkpt><trkpt lat="44.3934283" lon="11.0931733"><ele>371.0</ele><time>2026-04-03T14:30:50.572Z</time></trkpt><trkpt lat="44.3934717" lon="11.0932583"><ele>371.0</ele><time>2026-04-03T14:30:51.571Z</time></trkpt><trkpt lat="44.3935267" lon="11.0933283"><ele>367.6</ele><time>2026-04-03T14:30:52.571Z</time></trkpt><trkpt lat="44.3936" lon="11.0933817"><ele>364.20000000000005</ele><time>2026-04-03T14:30:53.571Z</time></trkpt><trkpt lat="44.3936967" lon="11.09341"><ele>360.79999999999995</ele><time>2026-04-03T14:30:54.571Z</time></trkpt><trkpt lat="44.3938" lon="11.0934233"><ele>357.4</ele><time>2026-04-03T14:30:55.571Z</time></trkpt><trkpt lat="44.39389" lon="11.0934417"><ele>354.0</ele><time>2026-04-03T14:30:56.572Z</time></trkpt><trkpt lat="44.3939733" lon="11.09347"><ele>351.6666666666667</ele><time>2026-04-03T14:30:57.57Z</time></trkpt><trkpt lat="44.39405" lon="11.0934867"><ele>349.3333333333333</ele><time>2026-04-03T14:30:58.571Z</time></trkpt><trkpt lat="44.3941267" lon="11.0934917"><ele>347.0</ele><time>2026-04-03T14:30:59.572Z</time></trkpt><trkpt lat="44.3942083" lon="11.0934817"><ele>344.66666666666663</ele><time>2026-04-03T14:31:00.571Z</time></trkpt><trkpt lat="44.3942883" lon="11.0934733"><ele>342.3333333333333</ele><time>2026-04-03T14:31:01.572Z</time></trkpt><trkpt lat="44.394375" lon="11.0934617"><ele>340.0</ele><time>2026-04-03T14:31:02.574Z</time></trkpt><trkpt lat="44.3944717" lon="11.0934467"><ele>340.0</ele><time>2026-04-03T14:31:03.571Z</time></trkpt><trkpt lat="44.3945817" lon="11.0934267"><ele>340.0</ele><time>2026-04-03T14:31:04.572Z</time></trkpt><trkpt lat="44.3946917" lon="11.0934017"><ele>340.0</ele><time>2026-04-03T14:31:05.571Z</time></trkpt><trkpt lat="44.3948033" lon="11.093375"><ele>340.0</ele><time>2026-04-03T14:31:06.571Z</time></trkpt><trkpt lat="44.394915" lon="11.09335"><ele>340.0</ele><time>2026-04-03T14:31:07.572Z</time></trkpt><trkpt lat="44.3950233" lon="11.0933267"><ele>338.4</ele><time>2026-04-03T14:31:08.574Z</time></trkpt><trkpt lat="44.3951267" lon="11.0933017"><ele>336.8</ele><time>2026-04-03T14:31:09.571Z</time></trkpt><trkpt lat="44.395225" lon="11.093275"><ele>335.20000000000005</ele><time>2026-04-03T14:31:10.571Z</time></trkpt><trkpt lat="44.39532" lon="11.0932283"><ele>333.6</ele><time>2026-04-03T14:31:11.572Z</time></trkpt><trkpt lat="44.3954183" lon="11.09315"><ele>332.0</ele><time>2026-04-03T14:31:12.572Z</time></trkpt><trkpt lat="44.3955133" lon="11.0930517"><ele>328.0</ele><time>2026-04-03T14:31:13.572Z</time></trkpt><trkpt lat="44.3956067" lon="11.0929317"><ele>324.0</ele><time>2026-04-03T14:31:14.573Z</time></trkpt><trkpt lat="44.3956967" lon="11.0928017"><ele>320.0</ele><time>2026-04-03T14:31:15.574Z</time></trkpt><trkpt lat="44.39579" lon="11.092665"><ele>316.0</ele><time>2026-04-03T14:31:16.573Z</time></trkpt><trkpt lat="44.39588" lon="11.0925317"><ele>318.0</ele><time>2026-04-03T14:31:17.571Z</time></trkpt><trkpt lat="44.3959633" lon="11.092405"><ele>320.0</ele><time>2026-04-03T14:31:18.572Z</time></trkpt><trkpt lat="44.39605" lon="11.092295"><ele>322.0</ele><time>2026-04-03T14:31:19.572Z</time></trkpt><trkpt lat="44.39614" lon="11.092205"><ele>324.0</ele><time>2026-04-03T14:31:20.573Z</time></trkpt><trkpt lat="44.396235" lon="11.09213"><ele>321.5</ele><time>2026-04-03T14:31:21.571Z</time></trkpt><trkpt lat="44.3963433" lon="11.09206"><ele>319.0</ele><time>2026-04-03T14:31:22.572Z</time></trkpt><trkpt lat="44.3964617" lon="11.091995"><ele>316.5</ele><time>2026-04-03T14:31:23.572Z</time></trkpt><trkpt lat="44.3965817" lon="11.0919417"><ele>314.0</ele><time>2026-04-03T14:31:24.57Z</time></trkpt><trkpt lat="44.3966983" lon="11.09189"><ele>314.0</ele><time>2026-04-03T14:31:25.572Z</time></trkpt><trkpt lat="44.3968167" lon="11.09184"><ele>314.0</ele><time>2026-04-03T14:31:26.572Z</time></trkpt><trkpt lat="44.3969333" lon="11.091795"><ele>314.0</ele><time>2026-04-03T14:31:27.572Z</time></trkpt><trkpt lat="44.39705" lon="11.0917483"><ele>314.0</ele><time>2026-04-03T14:31:28.57Z</time></trkpt><trkpt lat="44.3971633" lon="11.0917"><ele>310.0</ele><time>2026-04-03T14:31:29.571Z</time></trkpt><trkpt lat="44.3972767" lon="11.0916533"><ele>306.0</ele><time>2026-04-03T14:31:30.572Z</time></trkpt><trkpt lat="44.397395" lon="11.0916067"><ele>302.0</ele><time>2026-04-03T14:31:31.572Z</time></trkpt><trkpt lat="44.3975167" lon="11.0915567"><ele>298.0</ele><time>2026-04-03T14:31:32.571Z</time></trkpt><trkpt lat="44.3976383" lon="11.0915017"><ele>298.0</ele><time>2026-04-03T14:31:33.572Z</time></trkpt><trkpt lat="44.397765" lon="11.0914517"><ele>298.0</ele><time>2026-04-03T14:31:34.571Z</time></trkpt><trkpt lat="44.39789" lon="11.0914067"><ele>298.0</ele><time>2026-04-03T14:31:35.572Z</time></trkpt><trkpt lat="44.3980133" lon="11.0913733"><ele>298.0</ele><time>2026-04-03T14:31:36.572Z</time></trkpt><trkpt lat="44.3981367" lon="11.0913483"><ele>295.0</ele><time>2026-04-03T14:31:37.571Z</time></trkpt><trkpt lat="44.39826" lon="11.0913333"><ele>292.0</ele><time>2026-04-03T14:31:38.573Z</time></trkpt><trkpt lat="44.3983833" lon="11.09132"><ele>289.0</ele><time>2026-04-03T14:31:39.572Z</time></trkpt><trkpt lat="44.3985083" lon="11.0912983"><ele>286.0</ele><time>2026-04-03T14:31:40.573Z</time></trkpt><trkpt lat="44.3986383" lon="11.091275"><ele>286.0</ele><time>2026-04-03T14:31:41.571Z</time></trkpt><trkpt lat="44.3987733" lon="11.0912533"><ele>286.0</ele><time>2026-04-03T14:31:42.571Z</time></trkpt><trkpt lat="44.3989067" lon="11.0912333"><ele>286.0</ele><time>2026-04-03T14:31:43.572Z</time></trkpt><trkpt lat="44.3990433" lon="11.0912133"><ele>286.0</ele><time>2026-04-03T14:31:44.571Z</time></trkpt><trkpt lat="44.3991783" lon="11.0911867"><ele>282.25</ele><time>2026-04-03T14:31:45.571Z</time></trkpt><trkpt lat="44.399315" lon="11.091155"><ele>278.5</ele><time>2026-04-03T14:31:46.57Z</time></trkpt><trkpt lat="44.3994483" lon="11.0911267"><ele>274.75</ele><time>2026-04-03T14:31:47.57Z</time></trkpt><trkpt lat="44.39958" lon="11.091105"><ele>271.0</ele><time>2026-04-03T14:31:48.571Z</time></trkpt><trkpt lat="44.399705" lon="11.09109"><ele>268.8</ele><time>2026-04-03T14:31:49.571Z</time></trkpt><trkpt lat="44.3998217" lon="11.091065"><ele>266.6</ele><time>2026-04-03T14:31:50.571Z</time></trkpt><trkpt lat="44.39993" lon="11.09103"><ele>264.4</ele><time>2026-04-03T14:31:51.568Z</time></trkpt><trkpt lat="44.4000283" lon="11.09098"><ele>262.2</ele><time>2026-04-03T14:31:52.57Z</time></trkpt><trkpt lat="44.4001217" lon="11.0909333"><ele>260.0</ele><time>2026-04-03T14:31:53.571Z</time></trkpt><trkpt lat="44.400215" lon="11.0909"><ele>260.0</ele><time>2026-04-03T14:31:54.571Z</time></trkpt><trkpt lat="44.4003117" lon="11.0908933"><ele>260.0</ele><time>2026-04-03T14:31:55.571Z</time></trkpt><trkpt lat="44.4004167" lon="11.090915"><ele>260.0</ele><time>2026-04-03T14:31:56.572Z</time></trkpt><trkpt lat="44.4005283" lon="11.0909733"><ele>260.0</ele><time>2026-04-03T14:31:57.572Z</time></trkpt><trkpt lat="44.4006367" lon="11.0910533"><ele>260.0</ele><time>2026-04-03T14:31:58.571Z</time></trkpt><trkpt lat="44.4007383" lon="11.0911367"><ele>257.75</ele><time>2026-04-03T14:31:59.572Z</time></trkpt><trkpt lat="44.4008367" lon="11.0912233"><ele>255.5</ele><time>2026-04-03T14:32:00.571Z</time></trkpt><trkpt lat="44.40094" lon="11.0913"><ele>253.25</ele><time>2026-04-03T14:32:01.571Z</time></trkpt><trkpt lat="44.4010433" lon="11.0913667"><ele>251.0</ele><time>2026-04-03T14:32:02.572Z</time></trkpt><trkpt lat="44.4011483" lon="11.09142"><ele>251.0</ele><time>2026-04-03T14:32:03.571Z</time></trkpt><trkpt lat="44.4012567" lon="11.091465"><ele>251.00000000000003</ele><time>2026-04-03T14:32:04.57Z</time></trkpt><trkpt lat="44.4013567" lon="11.091505"><ele>251.00000000000003</ele><time>2026-04-03T14:32:05.57Z</time></trkpt><trkpt lat="44.4014583" lon="11.0915383"><ele>251.0</ele><time>2026-04-03T14:32:06.571Z</time></trkpt><trkpt lat="44.4015467" lon="11.0915667"><ele>251.0</ele><time>2026-04-03T14:32:07.57Z</time></trkpt><trkpt lat="44.4016217" lon="11.091595"><ele>249.16666666666669</ele><time>2026-04-03T14:32:08.572Z</time></trkpt><trkpt lat="44.4016917" lon="11.09161"><ele>247.33333333333334</ele><time>2026-04-03T14:32:09.571Z</time></trkpt><trkpt lat="44.4017567" lon="11.0916"><ele>245.5</ele><time>2026-04-03T14:32:10.571Z</time></trkpt><trkpt lat="44.401825" lon="11.091555"><ele>243.66666666666669</ele><time>2026-04-03T14:32:11.571Z</time></trkpt><trkpt lat="44.4018917" lon="11.0914767"><ele>241.83333333333334</ele><time>2026-04-03T14:32:12.57Z</time></trkpt><trkpt lat="44.40194" lon="11.0913517"><ele>240.0</ele><time>2026-04-03T14:32:13.571Z</time></trkpt><trkpt lat="44.4019917" lon="11.0912233"><ele>240.0</ele><time>2026-04-03T14:32:14.572Z</time></trkpt><trkpt lat="44.402045" lon="11.0910933"><ele>240.0</ele><time>2026-04-03T14:32:15.571Z</time></trkpt><trkpt lat="44.4020967" lon="11.090965"><ele>240.0</ele><time>2026-04-03T14:32:16.571Z</time></trkpt><trkpt lat="44.4021517" lon="11.09084"><ele>240.0</ele><time>2026-04-03T14:32:17.573Z</time></trkpt><trkpt lat="44.4022117" lon="11.0907267"><ele>240.0</ele><time>2026-04-03T14:32:18.573Z</time></trkpt><trkpt lat="44.40228" lon="11.0906333"><ele>238.4</ele><time>2026-04-03T14:32:19.572Z</time></trkpt><trkpt lat="44.40236" lon="11.0905633"><ele>236.8</ele><time>2026-04-03T14:32:20.574Z</time></trkpt><trkpt lat="44.402455" lon="11.0905167"><ele>235.2</ele><time>2026-04-03T14:32:21.573Z</time></trkpt><trkpt lat="44.4025617" lon="11.090485"><ele>233.6</ele><time>2026-04-03T14:32:22.571Z</time></trkpt><trkpt lat="44.4026717" lon="11.0904367"><ele>232.0</ele><time>2026-04-03T14:32:23.571Z</time></trkpt><trkpt lat="44.4027817" lon="11.090375"><ele>232.0</ele><time>2026-04-03T14:32:24.572Z</time></trkpt><trkpt lat="44.4028917" lon="11.0903117"><ele>232.0</ele><time>2026-04-03T14:32:25.571Z</time></trkpt><trkpt lat="44.4029983" lon="11.0902483"><ele>232.0</ele><time>2026-04-03T14:32:26.574Z</time></trkpt><trkpt lat="44.4031033" lon="11.0901833"><ele>232.0</ele><time>2026-04-03T14:32:27.572Z</time></trkpt><trkpt lat="44.403205" lon="11.0901033"><ele>231.39999999999998</ele><time>2026-04-03T14:32:28.571Z</time></trkpt><trkpt lat="44.403295" lon="11.0900083"><ele>230.79999999999998</ele><time>2026-04-03T14:32:29.571Z</time></trkpt><trkpt lat="44.4033767" lon="11.0899083"><ele>230.2</ele><time>2026-04-03T14:32:30.572Z</time></trkpt><trkpt lat="44.4034483" lon="11.08981"><ele>229.6</ele><time>2026-04-03T14:32:31.572Z</time></trkpt><trkpt lat="44.4035167" lon="11.0897183"><ele>229.0</ele><time>2026-04-03T14:32:32.573Z</time></trkpt><trkpt lat="44.4035883" lon="11.0896417"><ele>228.2</ele><time>2026-04-03T14:32:33.573Z</time></trkpt><trkpt lat="44.4036667" lon="11.0895883"><ele>227.39999999999998</ele><time>2026-04-03T14:32:34.572Z</time></trkpt><trkpt lat="44.4037533" lon="11.08956"><ele>226.6</ele><time>2026-04-03T14:32:35.571Z</time></trkpt><trkpt lat="44.4038533" lon="11.0895667"><ele>225.8</ele><time>2026-04-03T14:32:36.571Z</time></trkpt><trkpt lat="44.40398" lon="11.0895983"><ele>225.0</ele><time>2026-04-03T14:32:37.571Z</time></trkpt><trkpt lat="44.4041033" lon="11.0896183"><ele>224.4</ele><time>2026-04-03T14:32:38.572Z</time></trkpt><trkpt lat="44.4042183" lon="11.08962"><ele>223.8</ele><time>2026-04-03T14:32:39.572Z</time></trkpt><trkpt lat="44.4043317" lon="11.089595"><ele>223.2</ele><time>2026-04-03T14:32:40.571Z</time></trkpt><trkpt lat="44.404435" lon="11.089555"><ele>222.6</ele><time>2026-04-03T14:32:41.573Z</time></trkpt><trkpt lat="44.404525" lon="11.0895117"><ele>222.0</ele><time>2026-04-03T14:32:42.572Z</time></trkpt><trkpt lat="44.40461" lon="11.0894867"><ele>221.5</ele><time>2026-04-03T14:32:43.571Z</time></trkpt><trkpt lat="44.4047133" lon="11.0895117"><ele>221.0</ele><time>2026-04-03T14:32:44.572Z</time></trkpt><trkpt lat="44.4048183" lon="11.0895617"><ele>220.5</ele><time>2026-04-03T14:32:45.572Z</time></trkpt><trkpt lat="44.4049267" lon="11.08963"><ele>220.0</ele><time>2026-04-03T14:32:46.571Z</time></trkpt><trkpt lat="44.4050283" lon="11.0897283"><ele>220.0</ele><time>2026-04-03T14:32:47.572Z</time></trkpt><trkpt lat="44.4051183" lon="11.0898567"><ele>220.0</ele><time>2026-04-03T14:32:48.571Z</time></trkpt><trkpt lat="44.4052067" lon="11.090005"><ele>220.0</ele><time>2026-04-03T14:32:49.571Z</time></trkpt><trkpt lat="44.4052967" lon="11.0901783"><ele>220.0</ele><time>2026-04-03T14:32:50.573Z</time></trkpt><trkpt lat="44.405385" lon="11.09038"><ele>220.66666666666666</ele><time>2026-04-03T14:32:51.572Z</time></trkpt><trkpt lat="44.4054683" lon="11.0905817"><ele>221.33333333333331</ele><time>2026-04-03T14:32:52.571Z</time></trkpt><trkpt lat="44.4055467" lon="11.09077"><ele>222.0</ele><time>2026-04-03T14:32:53.571Z</time></trkpt><trkpt lat="44.4056233" lon="11.0909467"><ele>221.0</ele><time>2026-04-03T14:32:54.571Z</time></trkpt><trkpt lat="44.4056967" lon="11.091105"><ele>220.0</ele><time>2026-04-03T14:32:55.571Z</time></trkpt><trkpt lat="44.405765" lon="11.09123"><ele>219.0</ele><time>2026-04-03T14:32:56.572Z</time></trkpt><trkpt lat="44.4058383" lon="11.09133"><ele>218.0</ele><time>2026-04-03T14:32:57.571Z</time></trkpt><trkpt lat="44.4059217" lon="11.091405"><ele>217.0</ele><time>2026-04-03T14:32:58.571Z</time></trkpt><trkpt lat="44.4060033" lon="11.091465"><ele>217.0</ele><time>2026-04-03T14:32:59.573Z</time></trkpt><trkpt lat="44.4060783" lon="11.0915317"><ele>217.0</ele><time>2026-04-03T14:33:00.572Z</time></trkpt><trkpt lat="44.40614" lon="11.0916333"><ele>217.0</ele><time>2026-04-03T14:33:01.573Z</time></trkpt><trkpt lat="44.4061883" lon="11.0917733"><ele>217.0</ele><time>2026-04-03T14:33:02.572Z</time></trkpt><trkpt lat="44.4062417" lon="11.0919367"><ele>217.0</ele><time>2026-04-03T14:33:03.572Z</time></trkpt><trkpt lat="44.40631" lon="11.0921167"><ele>217.0</ele><time>2026-04-03T14:33:04.573Z</time></trkpt><trkpt lat="44.40639" lon="11.0923067"><ele>217.0</ele><time>2026-04-03T14:33:05.572Z</time></trkpt><trkpt lat="44.4064767" lon="11.0925"><ele>217.0</ele><time>2026-04-03T14:33:06.575Z</time></trkpt><trkpt lat="44.406565" lon="11.0926933"><ele>217.0</ele><time>2026-04-03T14:33:07.571Z</time></trkpt><trkpt lat="44.4066483" lon="11.0928717"><ele>217.0</ele><time>2026-04-03T14:33:08.572Z</time></trkpt><trkpt lat="44.4067283" lon="11.0930367"><ele>217.0</ele><time>2026-04-03T14:33:09.572Z</time></trkpt><trkpt lat="44.40681" lon="11.09319"><ele>217.0</ele><time>2026-04-03T14:33:10.572Z</time></trkpt><trkpt lat="44.40688" lon="11.0933383"><ele>217.5</ele><time>2026-04-03T14:33:11.573Z</time></trkpt><trkpt lat="44.406935" lon="11.093485"><ele>218.0</ele><time>2026-04-03T14:33:12.571Z</time></trkpt><trkpt lat="44.4069783" lon="11.0936367"><ele>218.5</ele><time>2026-04-03T14:33:13.572Z</time></trkpt><trkpt lat="44.4070167" lon="11.09381"><ele>219.0</ele><time>2026-04-03T14:33:14.574Z</time></trkpt><trkpt lat="44.407055" lon="11.094005"><ele>219.5</ele><time>2026-04-03T14:33:15.572Z</time></trkpt><trkpt lat="44.4071033" lon="11.0941883"><ele>220.0</ele><time>2026-04-03T14:33:16.574Z</time></trkpt><trkpt lat="44.4071717" lon="11.0943733"><ele>220.5</ele><time>2026-04-03T14:33:17.571Z</time></trkpt><trkpt lat="44.4072517" lon="11.094555"><ele>221.0</ele><time>2026-04-03T14:33:18.571Z</time></trkpt><trkpt lat="44.40733" lon="11.0947067"><ele>220.0</ele><time>2026-04-03T14:33:19.571Z</time></trkpt><trkpt lat="44.4073983" lon="11.09482"><ele>219.00000000000003</ele><time>2026-04-03T14:33:20.572Z</time></trkpt><trkpt lat="44.40745" lon="11.0949017"><ele>218.00000000000003</ele><time>2026-04-03T14:33:21.572Z</time></trkpt><trkpt lat="44.4075067" lon="11.095035"><ele>217.0</ele><time>2026-04-03T14:33:23.57Z</time></trkpt><trkpt lat="44.4075233" lon="11.09522"><ele>216.0</ele><time>2026-04-03T14:33:25.571Z</time></trkpt><trkpt lat="44.4075267" lon="11.0953333"><ele>216.0</ele><time>2026-04-03T14:33:26.572Z</time></trkpt><trkpt lat="44.4075467" lon="11.0954617"><ele>216.0</ele><time>2026-04-03T14:33:27.572Z</time></trkpt><trkpt lat="44.40759" lon="11.095605"><ele>216.0</ele><time>2026-04-03T14:33:28.572Z</time></trkpt><trkpt lat="44.4076517" lon="11.095755"><ele>216.0</ele><time>2026-04-03T14:33:29.573Z</time></trkpt><trkpt lat="44.4077267" lon="11.0959"><ele>216.0</ele><time>2026-04-03T14:33:30.572Z</time></trkpt><trkpt lat="44.4078083" lon="11.0960483"><ele>216.0</ele><time>2026-04-03T14:33:31.572Z</time></trkpt><trkpt lat="44.4078933" lon="11.0962"><ele>216.0</ele><time>2026-04-03T14:33:32.573Z</time></trkpt><trkpt lat="44.4079783" lon="11.096345"><ele>216.0</ele><time>2026-04-03T14:33:33.573Z</time></trkpt><trkpt lat="44.4080567" lon="11.09648"><ele>215.0</ele><time>2026-04-03T14:33:34.572Z</time></trkpt><trkpt lat="44.4081267" lon="11.0966083"><ele>214.0</ele><time>2026-04-03T14:33:35.574Z</time></trkpt><trkpt lat="44.4082" lon="11.09674"><ele>213.0</ele><time>2026-04-03T14:33:36.573Z</time></trkpt><trkpt lat="44.4082717" lon="11.096875"><ele>212.0</ele><time>2026-04-03T14:33:37.572Z</time></trkpt><trkpt lat="44.4083467" lon="11.0970117"><ele>212.0</ele><time>2026-04-03T14:33:38.574Z</time></trkpt><trkpt lat="44.408425" lon="11.09715"><ele>212.0</ele><time>2026-04-03T14:33:39.573Z</time></trkpt><trkpt lat="44.4085067" lon="11.0972883"><ele>212.0</ele><time>2026-04-03T14:33:40.573Z</time></trkpt><trkpt lat="44.40859" lon="11.0974267"><ele>212.0</ele><time>2026-04-03T14:33:41.571Z</time></trkpt><trkpt lat="44.4086717" lon="11.0975683"><ele>212.0</ele><time>2026-04-03T14:33:42.571Z</time></trkpt><trkpt lat="44.408755" lon="11.09771"><ele>212.0</ele><time>2026-04-03T14:33:43.569Z</time></trkpt><trkpt lat="44.4088367" lon="11.097855"><ele>212.0</ele><time>2026-04-03T14:33:44.572Z</time></trkpt><trkpt lat="44.4089167" lon="11.0980017"><ele>212.0</ele><time>2026-04-03T14:33:45.571Z</time></trkpt><trkpt lat="44.4089917" lon="11.0981583"><ele>211.33333333333334</ele><time>2026-04-03T14:33:46.571Z</time></trkpt><trkpt lat="44.409065" lon="11.0983333"><ele>210.66666666666669</ele><time>2026-04-03T14:33:47.571Z</time></trkpt><trkpt lat="44.4091383" lon="11.098535"><ele>210.0</ele><time>2026-04-03T14:33:48.571Z</time></trkpt><trkpt lat="44.409205" lon="11.09874"><ele>210.0</ele><time>2026-04-03T14:33:49.572Z</time></trkpt><trkpt lat="44.40926" lon="11.0989333"><ele>210.0</ele><time>2026-04-03T14:33:50.572Z</time></trkpt><trkpt lat="44.4093117" lon="11.0991233"><ele>210.0</ele><time>2026-04-03T14:33:51.571Z</time></trkpt><trkpt lat="44.4093533" lon="11.099305"><ele>210.0</ele><time>2026-04-03T14:33:52.573Z</time></trkpt><trkpt lat="44.40939" lon="11.09948"><ele>210.4</ele><time>2026-04-03T14:33:53.571Z</time></trkpt><trkpt lat="44.409425" lon="11.0996367"><ele>210.8</ele><time>2026-04-03T14:33:54.571Z</time></trkpt><trkpt lat="44.4094533" lon="11.0997783"><ele>211.2</ele><time>2026-04-03T14:33:55.571Z</time></trkpt><trkpt lat="44.4094683" lon="11.09991"><ele>211.6</ele><time>2026-04-03T14:33:56.572Z</time></trkpt><trkpt lat="44.4094733" lon="11.1000333"><ele>212.0</ele><time>2026-04-03T14:33:57.571Z</time></trkpt><trkpt lat="44.409475" lon="11.1001433"><ele>212.33333333333334</ele><time>2026-04-03T14:33:58.573Z</time></trkpt><trkpt lat="44.4094867" lon="11.100235"><ele>212.66666666666669</ele><time>2026-04-03T14:33:59.573Z</time></trkpt><trkpt lat="44.4095783" lon="11.10034"><ele>213.0</ele><time>2026-04-03T14:34:01.573Z</time></trkpt><trkpt lat="44.4096583" lon="11.1003433"><ele>213.33333333333331</ele><time>2026-04-03T14:34:02.573Z</time></trkpt><trkpt lat="44.409745" lon="11.1003283"><ele>213.66666666666666</ele><time>2026-04-03T14:34:03.571Z</time></trkpt><trkpt lat="44.409835" lon="11.10031"><ele>214.0</ele><time>2026-04-03T14:34:04.571Z</time></trkpt><trkpt lat="44.4099233" lon="11.1002917"><ele>213.2</ele><time>2026-04-03T14:34:05.573Z</time></trkpt><trkpt lat="44.4100117" lon="11.1002717"><ele>212.39999999999998</ele><time>2026-04-03T14:34:06.572Z</time></trkpt><trkpt lat="44.4101133" lon="11.10025"><ele>211.6</ele><time>2026-04-03T14:34:07.572Z</time></trkpt><trkpt lat="44.410225" lon="11.1002267"><ele>210.8</ele><time>2026-04-03T14:34:08.571Z</time></trkpt><trkpt lat="44.41034" lon="11.1002"><ele>210.0</ele><time>2026-04-03T14:34:09.571Z</time></trkpt><trkpt lat="44.4104583" lon="11.1001683"><ele>209.5</ele><time>2026-04-03T14:34:10.571Z</time></trkpt><trkpt lat="44.410585" lon="11.100135"><ele>209.0</ele><time>2026-04-03T14:34:11.571Z</time></trkpt><trkpt lat="44.4107183" lon="11.1000983"><ele>208.5</ele><time>2026-04-03T14:34:12.571Z</time></trkpt><trkpt lat="44.4108483" lon="11.100065"><ele>208.0</ele><time>2026-04-03T14:34:13.57Z</time></trkpt><trkpt lat="44.4109683" lon="11.10004"><ele>208.0</ele><time>2026-04-03T14:34:14.573Z</time></trkpt><trkpt lat="44.4110833" lon="11.10003"><ele>208.0</ele><time>2026-04-03T14:34:15.571Z</time></trkpt><trkpt lat="44.4111983" lon="11.1000483"><ele>208.0</ele><time>2026-04-03T14:34:16.571Z</time></trkpt><trkpt lat="44.4113083" lon="11.100095"><ele>208.0</ele><time>2026-04-03T14:34:17.567Z</time></trkpt><trkpt lat="44.4114083" lon="11.1001717"><ele>206.5</ele><time>2026-04-03T14:34:18.573Z</time></trkpt><trkpt lat="44.4115067" lon="11.100265"><ele>205.0</ele><time>2026-04-03T14:34:19.571Z</time></trkpt><trkpt lat="44.4116067" lon="11.1003667"><ele>203.5</ele><time>2026-04-03T14:34:20.569Z</time></trkpt><trkpt lat="44.411705" lon="11.1004717"><ele>202.0</ele><time>2026-04-03T14:34:21.572Z</time></trkpt><trkpt lat="44.411805" lon="11.1005767"><ele>202.0</ele><time>2026-04-03T14:34:22.571Z</time></trkpt><trkpt lat="44.4119033" lon="11.1006983"><ele>202.0</ele><time>2026-04-03T14:34:23.571Z</time></trkpt><trkpt lat="44.4120067" lon="11.1008283"><ele>202.0</ele><time>2026-04-03T14:34:24.573Z</time></trkpt><trkpt lat="44.412115" lon="11.1009633"><ele>202.0</ele><time>2026-04-03T14:34:25.57Z</time></trkpt><trkpt lat="44.4122233" lon="11.1011067"><ele>201.75</ele><time>2026-04-03T14:34:26.572Z</time></trkpt><trkpt lat="44.4123217" lon="11.1012467"><ele>201.5</ele><time>2026-04-03T14:34:27.571Z</time></trkpt><trkpt lat="44.4124167" lon="11.10138"><ele>201.25</ele><time>2026-04-03T14:34:28.57Z</time></trkpt><trkpt lat="44.4125167" lon="11.1015083"><ele>201.0</ele><time>2026-04-03T14:34:29.572Z</time></trkpt><trkpt lat="44.4126283" lon="11.10163"><ele>201.33333333333331</ele><time>2026-04-03T14:34:30.573Z</time></trkpt><trkpt lat="44.4127517" lon="11.101745"><ele>201.66666666666666</ele><time>2026-04-03T14:34:31.573Z</time></trkpt><trkpt lat="44.4128833" lon="11.1018517"><ele>202.0</ele><time>2026-04-03T14:34:32.573Z</time></trkpt><trkpt lat="44.41302" lon="11.1019533"><ele>202.0</ele><time>2026-04-03T14:34:33.572Z</time></trkpt><trkpt lat="44.4131567" lon="11.1020533"><ele>202.0</ele><time>2026-04-03T14:34:34.571Z</time></trkpt><trkpt lat="44.4132917" lon="11.1021667"><ele>202.0</ele><time>2026-04-03T14:34:35.572Z</time></trkpt><trkpt lat="44.4134233" lon="11.10229"><ele>202.0</ele><time>2026-04-03T14:34:36.571Z</time></trkpt><trkpt lat="44.413555" lon="11.1024267"><ele>202.0</ele><time>2026-04-03T14:34:37.572Z</time></trkpt><trkpt lat="44.4136867" lon="11.1025717"><ele>202.0</ele><time>2026-04-03T14:34:38.572Z</time></trkpt><trkpt lat="44.41382" lon="11.1027217"><ele>201.0</ele><time>2026-04-03T14:34:39.573Z</time></trkpt><trkpt lat="44.413955" lon="11.1028733"><ele>200.0</ele><time>2026-04-03T14:34:40.571Z</time></trkpt><trkpt lat="44.4140917" lon="11.103025"><ele>199.0</ele><time>2026-04-03T14:34:41.572Z</time></trkpt><trkpt lat="44.4142267" lon="11.103175"><ele>200.0</ele><time>2026-04-03T14:34:42.572Z</time></trkpt><trkpt lat="44.41436" lon="11.10332"><ele>201.0</ele><time>2026-04-03T14:34:43.572Z</time></trkpt><trkpt lat="44.414495" lon="11.103455"><ele>202.0</ele><time>2026-04-03T14:34:44.573Z</time></trkpt><trkpt lat="44.4146283" lon="11.1035783"><ele>201.66666666666666</ele><time>2026-04-03T14:34:45.571Z</time></trkpt><trkpt lat="44.4147567" lon="11.10369"><ele>201.33333333333331</ele><time>2026-04-03T14:34:46.571Z</time></trkpt><trkpt lat="44.4148883" lon="11.1037817"><ele>201.0</ele><time>2026-04-03T14:34:47.573Z</time></trkpt><trkpt lat="44.4150283" lon="11.1038633"><ele>201.0</ele><time>2026-04-03T14:34:48.572Z</time></trkpt><trkpt lat="44.4151733" lon="11.1039367"><ele>201.0</ele><time>2026-04-03T14:34:49.573Z</time></trkpt><trkpt lat="44.4153267" lon="11.1040067"><ele>201.0</ele><time>2026-04-03T14:34:50.572Z</time></trkpt><trkpt lat="44.4154817" lon="11.1040767"><ele>200.66666666666669</ele><time>2026-04-03T14:34:51.572Z</time></trkpt><trkpt lat="44.41564" lon="11.1041467"><ele>200.33333333333334</ele><time>2026-04-03T14:34:52.571Z</time></trkpt><trkpt lat="44.4158033" lon="11.10422"><ele>200.0</ele><time>2026-04-03T14:34:53.572Z</time></trkpt><trkpt lat="44.4159683" lon="11.104295"><ele>200.0</ele><time>2026-04-03T14:34:54.573Z</time></trkpt><trkpt lat="44.4161333" lon="11.10437"><ele>200.0</ele><time>2026-04-03T14:34:55.571Z</time></trkpt><trkpt lat="44.41629" lon="11.1044433"><ele>200.0</ele><time>2026-04-03T14:34:56.573Z</time></trkpt><trkpt lat="44.4164433" lon="11.10452"><ele>199.75</ele><time>2026-04-03T14:34:57.572Z</time></trkpt><trkpt lat="44.41659" lon="11.104595"><ele>199.5</ele><time>2026-04-03T14:34:58.571Z</time></trkpt><trkpt lat="44.41673" lon="11.1046633"><ele>199.25</ele><time>2026-04-03T14:34:59.572Z</time></trkpt><trkpt lat="44.4168633" lon="11.1047267"><ele>199.0</ele><time>2026-04-03T14:35:00.572Z</time></trkpt><trkpt lat="44.4169883" lon="11.104785"><ele>199.0</ele><time>2026-04-03T14:35:01.569Z</time></trkpt><trkpt lat="44.4171117" lon="11.1048317"><ele>199.0</ele><time>2026-04-03T14:35:02.574Z</time></trkpt><trkpt lat="44.4172367" lon="11.104855"><ele>199.0</ele><time>2026-04-03T14:35:03.573Z</time></trkpt><trkpt lat="44.4173617" lon="11.1048517"><ele>199.0</ele><time>2026-04-03T14:35:04.571Z</time></trkpt><trkpt lat="44.4174817" lon="11.1048383"><ele>198.75</ele><time>2026-04-03T14:35:05.572Z</time></trkpt><trkpt lat="44.417605" lon="11.1048333"><ele>198.5</ele><time>2026-04-03T14:35:06.572Z</time></trkpt><trkpt lat="44.4177333" lon="11.10486"><ele>198.25</ele><time>2026-04-03T14:35:07.573Z</time></trkpt><trkpt lat="44.4178617" lon="11.10492"><ele>198.0</ele><time>2026-04-03T14:35:08.574Z</time></trkpt><trkpt lat="44.41799" lon="11.1050017"><ele>196.75</ele><time>2026-04-03T14:35:09.574Z</time></trkpt><trkpt lat="44.41812" lon="11.1050967"><ele>195.5</ele><time>2026-04-03T14:35:10.572Z</time></trkpt><trkpt lat="44.4182517" lon="11.1051867"><ele>194.25</ele><time>2026-04-03T14:35:11.57Z</time></trkpt><trkpt lat="44.41838" lon="11.1052733"><ele>193.0</ele><time>2026-04-03T14:35:12.571Z</time></trkpt><trkpt lat="44.418505" lon="11.1053533"><ele>193.0</ele><time>2026-04-03T14:35:13.572Z</time></trkpt><trkpt lat="44.4186267" lon="11.1054267"><ele>193.0</ele><time>2026-04-03T14:35:14.572Z</time></trkpt><trkpt lat="44.4187433" lon="11.1054983"><ele>193.0</ele><time>2026-04-03T14:35:15.572Z</time></trkpt><trkpt lat="44.4188567" lon="11.1055683"><ele>193.0</ele><time>2026-04-03T14:35:16.572Z</time></trkpt><trkpt lat="44.4189667" lon="11.1056283"><ele>193.0</ele><time>2026-04-03T14:35:17.571Z</time></trkpt><trkpt lat="44.4190733" lon="11.1056867"><ele>193.0</ele><time>2026-04-03T14:35:18.572Z</time></trkpt><trkpt lat="44.4191683" lon="11.1057533"><ele>193.0</ele><time>2026-04-03T14:35:19.572Z</time></trkpt><trkpt lat="44.419265" lon="11.10582"><ele>193.0</ele><time>2026-04-03T14:35:20.573Z</time></trkpt><trkpt lat="44.41934" lon="11.1058817"><ele>193.0</ele><time>2026-04-03T14:35:21.572Z</time></trkpt><trkpt lat="44.4194183" lon="11.105955"><ele>192.99999999999997</ele><time>2026-04-03T14:35:22.573Z</time></trkpt><trkpt lat="44.4194933" lon="11.1060383"><ele>193.0</ele><time>2026-04-03T14:35:23.573Z</time></trkpt><trkpt lat="44.4195217" lon="11.1061467"><ele>193.0</ele><time>2026-04-03T14:35:24.572Z</time></trkpt><trkpt lat="44.4195317" lon="11.1062583"><ele>193.0</ele><time>2026-04-03T14:35:25.571Z</time></trkpt><trkpt lat="44.4195133" lon="11.10638"><ele>192.99999999999997</ele><time>2026-04-03T14:35:26.573Z</time></trkpt><trkpt lat="44.4194733" lon="11.1064933"><ele>193.0</ele><time>2026-04-03T14:35:27.571Z</time></trkpt><trkpt lat="44.4194217" lon="11.1065883"><ele>192.99999999999997</ele><time>2026-04-03T14:35:28.572Z</time></trkpt><trkpt lat="44.4193867" lon="11.1066833"><ele>193.0</ele><time>2026-04-03T14:35:29.573Z</time></trkpt><trkpt lat="44.419365" lon="11.106785"><ele>193.0</ele><time>2026-04-03T14:35:30.572Z</time></trkpt><trkpt lat="44.419365" lon="11.1068917"><ele>193.0</ele><time>2026-04-03T14:35:31.571Z</time></trkpt><trkpt lat="44.4193933" lon="11.107005"><ele>192.99999999999997</ele><time>2026-04-03T14:35:32.572Z</time></trkpt><trkpt lat="44.4194417" lon="11.1071233"><ele>193.0</ele><time>2026-04-03T14:35:33.572Z</time></trkpt><trkpt lat="44.419515" lon="11.1072483"><ele>193.0</ele><time>2026-04-03T14:35:34.571Z</time></trkpt><trkpt lat="44.419595" lon="11.107375"><ele>193.0</ele><time>2026-04-03T14:35:35.572Z</time></trkpt><trkpt lat="44.4196833" lon="11.1075017"><ele>193.0</ele><time>2026-04-03T14:35:36.572Z</time></trkpt><trkpt lat="44.41977" lon="11.1076433"><ele>193.0</ele><time>2026-04-03T14:35:37.571Z</time></trkpt><trkpt lat="44.4198617" lon="11.1077967"><ele>192.75</ele><time>2026-04-03T14:35:38.574Z</time></trkpt><trkpt lat="44.419945" lon="11.1079533"><ele>192.5</ele><time>2026-04-03T14:35:39.571Z</time></trkpt><trkpt lat="44.420025" lon="11.1080983"><ele>192.25</ele><time>2026-04-03T14:35:40.57Z</time></trkpt><trkpt lat="44.4201067" lon="11.1082383"><ele>192.0</ele><time>2026-04-03T14:35:41.572Z</time></trkpt><trkpt lat="44.4201967" lon="11.1083733"><ele>191.75</ele><time>2026-04-03T14:35:42.572Z</time></trkpt><trkpt lat="44.4202933" lon="11.1085"><ele>191.5</ele><time>2026-04-03T14:35:43.571Z</time></trkpt><trkpt lat="44.420395" lon="11.108625"><ele>191.25</ele><time>2026-04-03T14:35:44.573Z</time></trkpt><trkpt lat="44.4205" lon="11.10875"><ele>191.0</ele><time>2026-04-03T14:35:45.57Z</time></trkpt><trkpt lat="44.420605" lon="11.1088817"><ele>191.0</ele><time>2026-04-03T14:35:46.571Z</time></trkpt><trkpt lat="44.4207083" lon="11.1090117"><ele>191.0</ele><time>2026-04-03T14:35:47.572Z</time></trkpt><trkpt lat="44.42081" lon="11.1091417"><ele>191.0</ele><time>2026-04-03T14:35:48.572Z</time></trkpt><trkpt lat="44.42091" lon="11.1092783"><ele>191.0</ele><time>2026-04-03T14:35:49.572Z</time></trkpt><trkpt lat="44.42101" lon="11.1094233"><ele>191.33333333333331</ele><time>2026-04-03T14:35:50.573Z</time></trkpt><trkpt lat="44.4211133" lon="11.1095667"><ele>191.66666666666666</ele><time>2026-04-03T14:35:51.572Z</time></trkpt><trkpt lat="44.4212217" lon="11.109715"><ele>192.0</ele><time>2026-04-03T14:35:52.572Z</time></trkpt><trkpt lat="44.4213367" lon="11.10986"><ele>191.33333333333334</ele><time>2026-04-03T14:35:53.572Z</time></trkpt><trkpt lat="44.421455" lon="11.1099983"><ele>190.66666666666669</ele><time>2026-04-03T14:35:54.572Z</time></trkpt><trkpt lat="44.4215717" lon="11.1101317"><ele>190.0</ele><time>2026-04-03T14:35:55.57Z</time></trkpt><trkpt lat="44.4216917" lon="11.11026"><ele>190.0</ele><time>2026-04-03T14:35:56.572Z</time></trkpt><trkpt lat="44.4218167" lon="11.1103817"><ele>190.0</ele><time>2026-04-03T14:35:57.571Z</time></trkpt><trkpt lat="44.42194" lon="11.1105"><ele>190.0</ele><time>2026-04-03T14:35:58.572Z</time></trkpt><trkpt lat="44.4220533" lon="11.11062"><ele>190.0</ele><time>2026-04-03T14:35:59.572Z</time></trkpt><trkpt lat="44.4221567" lon="11.1107517"><ele>189.25</ele><time>2026-04-03T14:36:00.572Z</time></trkpt><trkpt lat="44.4222517" lon="11.110895"><ele>188.5</ele><time>2026-04-03T14:36:01.57Z</time></trkpt><trkpt lat="44.42234" lon="11.1110433"><ele>187.75</ele><time>2026-04-03T14:36:02.572Z</time></trkpt><trkpt lat="44.422415" lon="11.1111883"><ele>187.0</ele><time>2026-04-03T14:36:03.572Z</time></trkpt><trkpt lat="44.4224817" lon="11.1113217"><ele>187.0</ele><time>2026-04-03T14:36:04.57Z</time></trkpt><trkpt lat="44.42255" lon="11.1114417"><ele>187.0</ele><time>2026-04-03T14:36:05.571Z</time></trkpt><trkpt lat="44.4226217" lon="11.111555"><ele>187.0</ele><time>2026-04-03T14:36:06.573Z</time></trkpt><trkpt lat="44.422705" lon="11.1116567"><ele>187.0</ele><time>2026-04-03T14:36:07.574Z</time></trkpt><trkpt lat="44.4227967" lon="11.1117417"><ele>187.0</ele><time>2026-04-03T14:36:08.573Z</time></trkpt><trkpt lat="44.4229017" lon="11.1118183"><ele>187.25</ele><time>2026-04-03T14:36:09.571Z</time></trkpt><trkpt lat="44.4230117" lon="11.1118933"><ele>187.5</ele><time>2026-04-03T14:36:10.572Z</time></trkpt><trkpt lat="44.4231217" lon="11.1119817"><ele>187.75</ele><time>2026-04-03T14:36:11.572Z</time></trkpt><trkpt lat="44.42323" lon="11.1120917"><ele>188.0</ele><time>2026-04-03T14:36:12.571Z</time></trkpt><trkpt lat="44.4233317" lon="11.11221"><ele>188.0</ele><time>2026-04-03T14:36:13.572Z</time></trkpt><trkpt lat="44.42342" lon="11.112325"><ele>188.0</ele><time>2026-04-03T14:36:14.571Z</time></trkpt><trkpt lat="44.4235067" lon="11.1124383"><ele>188.0</ele><time>2026-04-03T14:36:15.571Z</time></trkpt><trkpt lat="44.4235983" lon="11.1125533"><ele>188.0</ele><time>2026-04-03T14:36:16.571Z</time></trkpt><trkpt lat="44.4236933" lon="11.1126633"><ele>188.0</ele><time>2026-04-03T14:36:17.572Z</time></trkpt><trkpt lat="44.4237867" lon="11.11277"><ele>188.0</ele><time>2026-04-03T14:36:18.572Z</time></trkpt><trkpt lat="44.4238817" lon="11.112875"><ele>188.0</ele><time>2026-04-03T14:36:19.571Z</time></trkpt><trkpt lat="44.42398" lon="11.1129817"><ele>188.0</ele><time>2026-04-03T14:36:20.572Z</time></trkpt><trkpt lat="44.4240783" lon="11.1130867"><ele>188.0</ele><time>2026-04-03T14:36:21.572Z</time></trkpt><trkpt lat="44.4241683" lon="11.1131867"><ele>188.0</ele><time>2026-04-03T14:36:22.572Z</time></trkpt><trkpt lat="44.424255" lon="11.11328"><ele>188.0</ele><time>2026-04-03T14:36:23.573Z</time></trkpt><trkpt lat="44.4243383" lon="11.11338"><ele>188.0</ele><time>2026-04-03T14:36:24.57Z</time></trkpt><trkpt lat="44.4244233" lon="11.1134867"><ele>188.0</ele><time>2026-04-03T14:36:25.57Z</time></trkpt><trkpt lat="44.42451" lon="11.1136033"><ele>188.0</ele><time>2026-04-03T14:36:26.571Z</time></trkpt><trkpt lat="44.4246017" lon="11.113725"><ele>188.0</ele><time>2026-04-03T14:36:27.571Z</time></trkpt><trkpt lat="44.4247" lon="11.113855"><ele>188.0</ele><time>2026-04-03T14:36:28.572Z</time></trkpt><trkpt lat="44.4248" lon="11.1139833"><ele>188.0</ele><time>2026-04-03T14:36:29.572Z</time></trkpt><trkpt lat="44.4249" lon="11.1141067"><ele>188.0</ele><time>2026-04-03T14:36:30.571Z</time></trkpt><trkpt lat="44.425" lon="11.114225"><ele>188.0</ele><time>2026-04-03T14:36:31.572Z</time></trkpt><trkpt lat="44.4251" lon="11.1143367"><ele>188.0</ele><time>2026-04-03T14:36:32.573Z</time></trkpt><trkpt lat="44.4252" lon="11.1144483"><ele>188.0</ele><time>2026-04-03T14:36:33.571Z</time></trkpt><trkpt lat="44.4252967" lon="11.11456"><ele>188.0</ele><time>2026-04-03T14:36:34.572Z</time></trkpt><trkpt lat="44.4253883" lon="11.114675"><ele>188.0</ele><time>2026-04-03T14:36:35.57Z</time></trkpt><trkpt lat="44.4254783" lon="11.1147967"><ele>188.0</ele><time>2026-04-03T14:36:36.571Z</time></trkpt><trkpt lat="44.42557" lon="11.1149183"><ele>188.0</ele><time>2026-04-03T14:36:37.571Z</time></trkpt><trkpt lat="44.4256733" lon="11.115035"><ele>186.75</ele><time>2026-04-03T14:36:38.573Z</time></trkpt><trkpt lat="44.425785" lon="11.1151467"><ele>185.5</ele><time>2026-04-03T14:36:39.571Z</time></trkpt><trkpt lat="44.4258917" lon="11.1152633"><ele>184.25</ele><time>2026-04-03T14:36:40.571Z</time></trkpt><trkpt lat="44.4260067" lon="11.1153983"><ele>183.0</ele><time>2026-04-03T14:36:41.572Z</time></trkpt><trkpt lat="44.4261267" lon="11.1155317"><ele>183.0</ele><time>2026-04-03T14:36:42.572Z</time></trkpt><trkpt lat="44.4262533" lon="11.115675"><ele>183.0</ele><time>2026-04-03T14:36:43.571Z</time></trkpt><trkpt lat="44.4263783" lon="11.1158133"><ele>183.0</ele><time>2026-04-03T14:36:44.573Z</time></trkpt><trkpt lat="44.4264883" lon="11.115935"><ele>183.25</ele><time>2026-04-03T14:36:45.57Z</time></trkpt><trkpt lat="44.42659" lon="11.1160483"><ele>183.5</ele><time>2026-04-03T14:36:46.57Z</time></trkpt><trkpt lat="44.4266883" lon="11.1161533"><ele>183.75</ele><time>2026-04-03T14:36:47.572Z</time></trkpt><trkpt lat="44.4267917" lon="11.1162433"><ele>184.0</ele><time>2026-04-03T14:36:48.571Z</time></trkpt><trkpt lat="44.4269" lon="11.1163183"><ele>184.0</ele><time>2026-04-03T14:36:49.571Z</time></trkpt><trkpt lat="44.4270133" lon="11.11637"><ele>184.0</ele><time>2026-04-03T14:36:50.573Z</time></trkpt><trkpt lat="44.427115" lon="11.1164083"><ele>184.0</ele><time>2026-04-03T14:36:51.571Z</time></trkpt><trkpt lat="44.4272133" lon="11.1164567"><ele>184.0</ele><time>2026-04-03T14:36:52.573Z</time></trkpt><trkpt lat="44.4273067" lon="11.116525"><ele>184.0</ele><time>2026-04-03T14:36:53.572Z</time></trkpt><trkpt lat="44.4273917" lon="11.11662"><ele>185.6</ele><time>2026-04-03T14:36:54.57Z</time></trkpt><trkpt lat="44.42747" lon="11.1167433"><ele>187.2</ele><time>2026-04-03T14:36:55.572Z</time></trkpt><trkpt lat="44.42753" lon="11.1168733"><ele>188.79999999999998</ele><time>2026-04-03T14:36:56.573Z</time></trkpt><trkpt lat="44.42757" lon="11.1170017"><ele>190.39999999999998</ele><time>2026-04-03T14:36:57.57Z</time></trkpt><trkpt lat="44.427595" lon="11.1171317"><ele>192.0</ele><time>2026-04-03T14:36:58.572Z</time></trkpt><trkpt lat="44.4275917" lon="11.1172633"><ele>192.0</ele><time>2026-04-03T14:36:59.57Z</time></trkpt><trkpt lat="44.4275917" lon="11.11739"><ele>192.0</ele><time>2026-04-03T14:37:00.571Z</time></trkpt><trkpt lat="44.4276067" lon="11.1175117"><ele>192.0</ele><time>2026-04-03T14:37:01.566Z</time></trkpt><trkpt lat="44.427645" lon="11.1176367"><ele>192.0</ele><time>2026-04-03T14:37:02.573Z</time></trkpt><trkpt lat="44.4277217" lon="11.1177483"><ele>192.0</ele><time>2026-04-03T14:37:03.57Z</time></trkpt><trkpt lat="44.4278133" lon="11.11786"><ele>193.25</ele><time>2026-04-03T14:37:04.571Z</time></trkpt><trkpt lat="44.4279017" lon="11.11798"><ele>194.5</ele><time>2026-04-03T14:37:05.572Z</time></trkpt><trkpt lat="44.42799" lon="11.118105"><ele>195.75</ele><time>2026-04-03T14:37:06.57Z</time></trkpt><trkpt lat="44.4280733" lon="11.1182317"><ele>197.0</ele><time>2026-04-03T14:37:07.57Z</time></trkpt><trkpt lat="44.4281567" lon="11.11835"><ele>198.0</ele><time>2026-04-03T14:37:08.572Z</time></trkpt><trkpt lat="44.4282517" lon="11.1184567"><ele>199.0</ele><time>2026-04-03T14:37:09.57Z</time></trkpt><trkpt lat="44.42836" lon="11.1185467"><ele>200.0</ele><time>2026-04-03T14:37:10.566Z</time></trkpt><trkpt lat="44.42847" lon="11.1186233"><ele>201.0</ele><time>2026-04-03T14:37:11.571Z</time></trkpt><trkpt lat="44.428575" lon="11.1186917"><ele>201.0</ele><time>2026-04-03T14:37:12.573Z</time></trkpt><trkpt lat="44.4286733" lon="11.1187633"><ele>201.0</ele><time>2026-04-03T14:37:13.572Z</time></trkpt><trkpt lat="44.4287633" lon="11.1188333"><ele>201.0</ele><time>2026-04-03T14:37:14.572Z</time></trkpt><trkpt lat="44.42885" lon="11.1189017"><ele>201.0</ele><time>2026-04-03T14:37:15.571Z</time></trkpt><trkpt lat="44.4289333" lon="11.1189817"><ele>201.0</ele><time>2026-04-03T14:37:16.57Z</time></trkpt><trkpt lat="44.4290217" lon="11.1190717"><ele>202.25</ele><time>2026-04-03T14:37:17.571Z</time></trkpt><trkpt lat="44.429115" lon="11.1191667"><ele>203.5</ele><time>2026-04-03T14:37:18.572Z</time></trkpt><trkpt lat="44.429215" lon="11.11927"><ele>204.75</ele><time>2026-04-03T14:37:19.573Z</time></trkpt><trkpt lat="44.4293233" lon="11.1193733"><ele>206.0</ele><time>2026-04-03T14:37:20.572Z</time></trkpt><trkpt lat="44.4294383" lon="11.119475"><ele>206.0</ele><time>2026-04-03T14:37:21.572Z</time></trkpt><trkpt lat="44.4295617" lon="11.1195767"><ele>206.0</ele><time>2026-04-03T14:37:22.571Z</time></trkpt><trkpt lat="44.429695" lon="11.1196733"><ele>206.0</ele><time>2026-04-03T14:37:23.571Z</time></trkpt><trkpt lat="44.4298317" lon="11.1197633"><ele>206.0</ele><time>2026-04-03T14:37:24.57Z</time></trkpt><trkpt lat="44.4299717" lon="11.119855"><ele>205.25</ele><time>2026-04-03T14:37:25.571Z</time></trkpt><trkpt lat="44.4301117" lon="11.119945"><ele>204.5</ele><time>2026-04-03T14:37:26.571Z</time></trkpt><trkpt lat="44.4302467" lon="11.1200317"><ele>203.75</ele><time>2026-04-03T14:37:27.57Z</time></trkpt><trkpt lat="44.4303767" lon="11.1201183"><ele>203.0</ele><time>2026-04-03T14:37:28.572Z</time></trkpt><trkpt lat="44.4305067" lon="11.1202083"><ele>201.25</ele><time>2026-04-03T14:37:29.572Z</time></trkpt><trkpt lat="44.4306317" lon="11.1202933"><ele>199.5</ele><time>2026-04-03T14:37:30.572Z</time></trkpt><trkpt lat="44.4307533" lon="11.1203783"><ele>197.75</ele><time>2026-04-03T14:37:31.573Z</time></trkpt><trkpt lat="44.43087" lon="11.1204617"><ele>196.0</ele><time>2026-04-03T14:37:32.572Z</time></trkpt><trkpt lat="44.4309833" lon="11.1205383"><ele>196.0</ele><time>2026-04-03T14:37:33.572Z</time></trkpt><trkpt lat="44.4310917" lon="11.1206133"><ele>196.0</ele><time>2026-04-03T14:37:34.572Z</time></trkpt><trkpt lat="44.4312" lon="11.1206767"><ele>196.0</ele><time>2026-04-03T14:37:35.573Z</time></trkpt><trkpt lat="44.43131" lon="11.12073"><ele>196.0</ele><time>2026-04-03T14:37:36.572Z</time></trkpt><trkpt lat="44.4314317" lon="11.1207567"><ele>195.75</ele><time>2026-04-03T14:37:37.572Z</time></trkpt><trkpt lat="44.4315667" lon="11.1207517"><ele>195.5</ele><time>2026-04-03T14:37:38.571Z</time></trkpt><trkpt lat="44.4317117" lon="11.1207267"><ele>195.25</ele><time>2026-04-03T14:37:39.571Z</time></trkpt><trkpt lat="44.4318633" lon="11.1207"><ele>195.0</ele><time>2026-04-03T14:37:40.572Z</time></trkpt><trkpt lat="44.4320183" lon="11.1206767"><ele>193.33333333333334</ele><time>2026-04-03T14:37:41.57Z</time></trkpt><trkpt lat="44.4321733" lon="11.1206533"><ele>191.66666666666669</ele><time>2026-04-03T14:37:42.571Z</time></trkpt><trkpt lat="44.4323233" lon="11.120625"><ele>190.0</ele><time>2026-04-03T14:37:43.57Z</time></trkpt><trkpt lat="44.4324683" lon="11.1206017"><ele>190.0</ele><time>2026-04-03T14:37:44.573Z</time></trkpt><trkpt lat="44.4326033" lon="11.1205817"><ele>190.0</ele><time>2026-04-03T14:37:45.571Z</time></trkpt><trkpt lat="44.4327267" lon="11.1205683"><ele>190.0</ele><time>2026-04-03T14:37:46.57Z</time></trkpt><trkpt lat="44.432845" lon="11.120555"><ele>190.0</ele><time>2026-04-03T14:37:47.569Z</time></trkpt><trkpt lat="44.4329683" lon="11.1205367"><ele>189.5</ele><time>2026-04-03T14:37:48.57Z</time></trkpt><trkpt lat="44.433095" lon="11.12052"><ele>189.0</ele><time>2026-04-03T14:37:49.571Z</time></trkpt><trkpt lat="44.4332267" lon="11.1205"><ele>188.5</ele><time>2026-04-03T14:37:50.574Z</time></trkpt><trkpt lat="44.4333633" lon="11.1204783"><ele>188.0</ele><time>2026-04-03T14:37:51.571Z</time></trkpt><trkpt lat="44.4335" lon="11.1204633"><ele>188.0</ele><time>2026-04-03T14:37:52.572Z</time></trkpt><trkpt lat="44.4336383" lon="11.1204483"><ele>188.0</ele><time>2026-04-03T14:37:53.572Z</time></trkpt><trkpt lat="44.4337817" lon="11.12043"><ele>188.0</ele><time>2026-04-03T14:37:54.572Z</time></trkpt><trkpt lat="44.4339283" lon="11.12041"><ele>188.0</ele><time>2026-04-03T14:37:55.57Z</time></trkpt><trkpt lat="44.4340717" lon="11.1203883"><ele>187.5</ele><time>2026-04-03T14:37:56.573Z</time></trkpt><trkpt lat="44.4342183" lon="11.1203683"><ele>187.0</ele><time>2026-04-03T14:37:57.57Z</time></trkpt><trkpt lat="44.4343667" lon="11.12035"><ele>186.5</ele><time>2026-04-03T14:37:58.57Z</time></trkpt><trkpt lat="44.4345133" lon="11.1203367"><ele>186.0</ele><time>2026-04-03T14:37:59.571Z</time></trkpt><trkpt lat="44.4346567" lon="11.1203217"><ele>185.5</ele><time>2026-04-03T14:38:00.572Z</time></trkpt><trkpt lat="44.4348017" lon="11.1203033"><ele>185.0</ele><time>2026-04-03T14:38:01.573Z</time></trkpt><trkpt lat="44.4349467" lon="11.120285"><ele>184.5</ele><time>2026-04-03T14:38:02.571Z</time></trkpt><trkpt lat="44.43509" lon="11.1202667"><ele>184.0</ele><time>2026-04-03T14:38:03.571Z</time></trkpt><trkpt lat="44.4352333" lon="11.1202467"><ele>184.0</ele><time>2026-04-03T14:38:04.571Z</time></trkpt><trkpt lat="44.4353767" lon="11.1202233"><ele>184.0</ele><time>2026-04-03T14:38:05.568Z</time></trkpt><trkpt lat="44.43552" lon="11.1202"><ele>184.0</ele><time>2026-04-03T14:38:06.571Z</time></trkpt><trkpt lat="44.435665" lon="11.120175"><ele>184.0</ele><time>2026-04-03T14:38:07.571Z</time></trkpt><trkpt lat="44.43581" lon="11.1201517"><ele>183.5</ele><time>2026-04-03T14:38:08.572Z</time></trkpt><trkpt lat="44.4359517" lon="11.1201283"><ele>183.0</ele><time>2026-04-03T14:38:09.572Z</time></trkpt><trkpt lat="44.4360917" lon="11.1201067"><ele>182.5</ele><time>2026-04-03T14:38:10.569Z</time></trkpt><trkpt lat="44.4362317" lon="11.1200883"><ele>182.0</ele><time>2026-04-03T14:38:11.571Z</time></trkpt><trkpt lat="44.43637" lon="11.1200667"><ele>183.25</ele><time>2026-04-03T14:38:12.57Z</time></trkpt><trkpt lat="44.4365083" lon="11.1200517"><ele>184.5</ele><time>2026-04-03T14:38:13.571Z</time></trkpt><trkpt lat="44.436645" lon="11.1200417"><ele>185.75</ele><time>2026-04-03T14:38:14.573Z</time></trkpt><trkpt lat="44.436775" lon="11.1200267"><ele>187.0</ele><time>2026-04-03T14:38:15.571Z</time></trkpt><trkpt lat="44.4369" lon="11.12001"><ele>187.0</ele><time>2026-04-03T14:38:16.571Z</time></trkpt><trkpt lat="44.437015" lon="11.1200017"><ele>187.0</ele><time>2026-04-03T14:38:17.571Z</time></trkpt><trkpt lat="44.4371283" lon="11.119995"><ele>187.0</ele><time>2026-04-03T14:38:18.571Z</time></trkpt><trkpt lat="44.4372383" lon="11.1199867"><ele>187.0</ele><time>2026-04-03T14:38:19.57Z</time></trkpt><trkpt lat="44.437345" lon="11.11998"><ele>187.0</ele><time>2026-04-03T14:38:20.572Z</time></trkpt><trkpt lat="44.43745" lon="11.119975"><ele>186.2</ele><time>2026-04-03T14:38:21.57Z</time></trkpt><trkpt lat="44.437545" lon="11.1199733"><ele>185.39999999999998</ele><time>2026-04-03T14:38:22.571Z</time></trkpt><trkpt lat="44.437635" lon="11.11996"><ele>184.60000000000002</ele><time>2026-04-03T14:38:23.573Z</time></trkpt><trkpt lat="44.43772" lon="11.11993"><ele>183.8</ele><time>2026-04-03T14:38:24.571Z</time></trkpt><trkpt lat="44.4377767" lon="11.11984"><ele>183.0</ele><time>2026-04-03T14:38:25.57Z</time></trkpt><trkpt lat="44.4378217" lon="11.119705"><ele>182.0</ele><time>2026-04-03T14:38:26.573Z</time></trkpt><trkpt lat="44.4378483" lon="11.119535"><ele>181.0</ele><time>2026-04-03T14:38:27.571Z</time></trkpt><trkpt lat="44.4378633" lon="11.1193483"><ele>180.0</ele><time>2026-04-03T14:38:28.572Z</time></trkpt><trkpt lat="44.4378783" lon="11.1191633"><ele>179.0</ele><time>2026-04-03T14:38:29.571Z</time></trkpt><trkpt lat="44.4379017" lon="11.1189867"><ele>178.25</ele><time>2026-04-03T14:38:30.571Z</time></trkpt><trkpt lat="44.4379233" lon="11.118815"><ele>177.5</ele><time>2026-04-03T14:38:31.57Z</time></trkpt><trkpt lat="44.4379433" lon="11.118645"><ele>176.75</ele><time>2026-04-03T14:38:32.571Z</time></trkpt><trkpt lat="44.4379633" lon="11.1184733"><ele>176.0</ele><time>2026-04-03T14:38:33.571Z</time></trkpt><trkpt lat="44.4379833" lon="11.118305"><ele>175.25</ele><time>2026-04-03T14:38:34.57Z</time></trkpt><trkpt lat="44.43801" lon="11.1181417"><ele>174.5</ele><time>2026-04-03T14:38:35.571Z</time></trkpt><trkpt lat="44.4380367" lon="11.1179817"><ele>173.75</ele><time>2026-04-03T14:38:36.571Z</time></trkpt><trkpt lat="44.4380667" lon="11.1178333"><ele>173.0</ele><time>2026-04-03T14:38:37.57Z</time></trkpt><trkpt lat="44.4381017" lon="11.1176967"><ele>173.0</ele><time>2026-04-03T14:38:38.572Z</time></trkpt><trkpt lat="44.4381383" lon="11.117565"><ele>173.0</ele><time>2026-04-03T14:38:39.573Z</time></trkpt><trkpt lat="44.4381633" lon="11.1174367"><ele>173.0</ele><time>2026-04-03T14:38:40.572Z</time></trkpt><trkpt lat="44.4381883" lon="11.1173133"><ele>173.0</ele><time>2026-04-03T14:38:41.572Z</time></trkpt><trkpt lat="44.4382217" lon="11.11721"><ele>173.0</ele><time>2026-04-03T14:38:42.572Z</time></trkpt><trkpt lat="44.4382567" lon="11.117125"><ele>173.0</ele><time>2026-04-03T14:38:43.571Z</time></trkpt><trkpt lat="44.4382867" lon="11.1170433"><ele>171.25</ele><time>2026-04-03T14:38:44.574Z</time></trkpt><trkpt lat="44.438395" lon="11.1169833"><ele>169.5</ele><time>2026-04-03T14:38:46.572Z</time></trkpt><trkpt lat="44.4384717" lon="11.1169967"><ele>167.75</ele><time>2026-04-03T14:38:47.572Z</time></trkpt><trkpt lat="44.4386117" lon="11.11708"><ele>166.0</ele><time>2026-04-03T14:38:48.57Z</time></trkpt><trkpt lat="44.4387583" lon="11.1171333"><ele>165.25</ele><time>2026-04-03T14:38:49.572Z</time></trkpt><trkpt lat="44.4389" lon="11.11718"><ele>164.5</ele><time>2026-04-03T14:38:50.572Z</time></trkpt><trkpt lat="44.439035" lon="11.1172317"><ele>163.75</ele><time>2026-04-03T14:38:51.572Z</time></trkpt><trkpt lat="44.4391767" lon="11.1172867"><ele>163.0</ele><time>2026-04-03T14:38:52.571Z</time></trkpt><trkpt lat="44.4393233" lon="11.1173433"><ele>164.0</ele><time>2026-04-03T14:38:53.572Z</time></trkpt><trkpt lat="44.4394767" lon="11.1174033"><ele>165.0</ele><time>2026-04-03T14:38:54.572Z</time></trkpt><trkpt lat="44.43963" lon="11.11747"><ele>166.0</ele><time>2026-04-03T14:38:55.571Z</time></trkpt><trkpt lat="44.4397833" lon="11.1175383"><ele>166.0</ele><time>2026-04-03T14:38:56.574Z</time></trkpt><trkpt lat="44.4399333" lon="11.11761"><ele>166.0</ele><time>2026-04-03T14:38:57.571Z</time></trkpt><trkpt lat="44.4400817" lon="11.1176867"><ele>166.0</ele><time>2026-04-03T14:38:58.571Z</time></trkpt><trkpt lat="44.440225" lon="11.11776"><ele>166.0</ele><time>2026-04-03T14:38:59.571Z</time></trkpt><trkpt lat="44.44037" lon="11.1178283"><ele>166.0</ele><time>2026-04-03T14:39:00.572Z</time></trkpt><trkpt lat="44.4405167" lon="11.1178833"><ele>166.0</ele><time>2026-04-03T14:39:01.572Z</time></trkpt><trkpt lat="44.440665" lon="11.11792"><ele>164.33333333333334</ele><time>2026-04-03T14:39:02.573Z</time></trkpt><trkpt lat="44.440815" lon="11.11794"><ele>162.66666666666666</ele><time>2026-04-03T14:39:03.574Z</time></trkpt><trkpt lat="44.440965" lon="11.1179467"><ele>161.0</ele><time>2026-04-03T14:39:04.572Z</time></trkpt><trkpt lat="44.441115" lon="11.1179533"><ele>161.0</ele><time>2026-04-03T14:39:05.574Z</time></trkpt><trkpt lat="44.4412667" lon="11.11796"><ele>161.0</ele><time>2026-04-03T14:39:06.574Z</time></trkpt><trkpt lat="44.4414217" lon="11.1179683"><ele>161.0</ele><time>2026-04-03T14:39:07.573Z</time></trkpt><trkpt lat="44.4415783" lon="11.1179783"><ele>161.0</ele><time>2026-04-03T14:39:08.574Z</time></trkpt><trkpt lat="44.441735" lon="11.117985"><ele>161.0</ele><time>2026-04-03T14:39:09.572Z</time></trkpt><trkpt lat="44.4418917" lon="11.117995"><ele>161.0</ele><time>2026-04-03T14:39:10.573Z</time></trkpt><trkpt lat="44.4420483" lon="11.1180017"><ele>160.33333333333331</ele><time>2026-04-03T14:39:11.572Z</time></trkpt><trkpt lat="44.442205" lon="11.1180083"><ele>159.66666666666666</ele><time>2026-04-03T14:39:12.571Z</time></trkpt><trkpt lat="44.4423633" lon="11.1180133"><ele>159.0</ele><time>2026-04-03T14:39:13.572Z</time></trkpt><trkpt lat="44.4425217" lon="11.1180183"><ele>159.0</ele><time>2026-04-03T14:39:14.574Z</time></trkpt><trkpt lat="44.44268" lon="11.11802"><ele>159.0</ele><time>2026-04-03T14:39:15.572Z</time></trkpt><trkpt lat="44.4428417" lon="11.118025"><ele>159.0</ele><time>2026-04-03T14:39:16.572Z</time></trkpt><trkpt lat="44.4430033" lon="11.1180333"><ele>159.0</ele><time>2026-04-03T14:39:17.571Z</time></trkpt><trkpt lat="44.4431667" lon="11.1180433"><ele>159.0</ele><time>2026-04-03T14:39:18.573Z</time></trkpt><trkpt lat="44.4433317" lon="11.11805"><ele>159.0</ele><time>2026-04-03T14:39:19.573Z</time></trkpt><trkpt lat="44.4434967" lon="11.1180567"><ele>159.0</ele><time>2026-04-03T14:39:20.573Z</time></trkpt><trkpt lat="44.4436617" lon="11.1180633"><ele>159.0</ele><time>2026-04-03T14:39:21.572Z</time></trkpt><trkpt lat="44.4438217" lon="11.1180717"><ele>159.0</ele><time>2026-04-03T14:39:22.573Z</time></trkpt><trkpt lat="44.44398" lon="11.1180883"><ele>158.33333333333334</ele><time>2026-04-03T14:39:23.572Z</time></trkpt><trkpt lat="44.444135" lon="11.1181067"><ele>157.66666666666669</ele><time>2026-04-03T14:39:24.573Z</time></trkpt><trkpt lat="44.4442883" lon="11.118135"><ele>157.0</ele><time>2026-04-03T14:39:25.571Z</time></trkpt><trkpt lat="44.44444" lon="11.11818"><ele>158.33333333333334</ele><time>2026-04-03T14:39:26.574Z</time></trkpt><trkpt lat="44.4445867" lon="11.1182533"><ele>159.66666666666666</ele><time>2026-04-03T14:39:27.572Z</time></trkpt><trkpt lat="44.4447267" lon="11.118345"><ele>161.0</ele><time>2026-04-03T14:39:28.571Z</time></trkpt><trkpt lat="44.44486" lon="11.11844"><ele>161.0</ele><time>2026-04-03T14:39:29.571Z</time></trkpt><trkpt lat="44.4449817" lon="11.1185333"><ele>161.0</ele><time>2026-04-03T14:39:30.572Z</time></trkpt><trkpt lat="44.4451083" lon="11.1186233"><ele>161.0</ele><time>2026-04-03T14:39:31.574Z</time></trkpt><trkpt lat="44.4452383" lon="11.118715"><ele>161.0</ele><time>2026-04-03T14:39:32.573Z</time></trkpt><trkpt lat="44.44537" lon="11.1188017"><ele>159.66666666666666</ele><time>2026-04-03T14:39:33.573Z</time></trkpt><trkpt lat="44.4455117" lon="11.1188867"><ele>158.33333333333334</ele><time>2026-04-03T14:39:34.572Z</time></trkpt><trkpt lat="44.4456517" lon="11.1189767"><ele>157.0</ele><time>2026-04-03T14:39:35.573Z</time></trkpt><trkpt lat="44.445785" lon="11.1190817"><ele>160.66666666666669</ele><time>2026-04-03T14:39:36.573Z</time></trkpt><trkpt lat="44.445915" lon="11.1192017"><ele>164.33333333333334</ele><time>2026-04-03T14:39:37.573Z</time></trkpt><trkpt lat="44.4460483" lon="11.1193267"><ele>168.0</ele><time>2026-04-03T14:39:38.573Z</time></trkpt><trkpt lat="44.44618" lon="11.1194633"><ele>164.33333333333334</ele><time>2026-04-03T14:39:39.573Z</time></trkpt><trkpt lat="44.4463067" lon="11.1196017"><ele>160.66666666666669</ele><time>2026-04-03T14:39:40.572Z</time></trkpt><trkpt lat="44.4464283" lon="11.1197367"><ele>157.0</ele><time>2026-04-03T14:39:41.571Z</time></trkpt><trkpt lat="44.4465433" lon="11.1198667"><ele>159.25</ele><time>2026-04-03T14:39:42.572Z</time></trkpt><trkpt lat="44.4466583" lon="11.1199833"><ele>161.5</ele><time>2026-04-03T14:39:43.57Z</time></trkpt><trkpt lat="44.4467817" lon="11.1200733"><ele>163.75</ele><time>2026-04-03T14:39:44.573Z</time></trkpt><trkpt lat="44.4469183" lon="11.1201417"><ele>166.0</ele><time>2026-04-03T14:39:45.571Z</time></trkpt><trkpt lat="44.44706" lon="11.1201833"><ele>163.33333333333334</ele><time>2026-04-03T14:39:46.572Z</time></trkpt><trkpt lat="44.4472117" lon="11.1201983"><ele>160.66666666666666</ele><time>2026-04-03T14:39:47.573Z</time></trkpt><trkpt lat="44.4473683" lon="11.1202017"><ele>158.0</ele><time>2026-04-03T14:39:48.572Z</time></trkpt><trkpt lat="44.4475283" lon="11.120195"><ele>158.0</ele><time>2026-04-03T14:39:49.573Z</time></trkpt><trkpt lat="44.44769" lon="11.1201833"><ele>158.0</ele><time>2026-04-03T14:39:50.574Z</time></trkpt><trkpt lat="44.4478517" lon="11.1201683"><ele>158.0</ele><time>2026-04-03T14:39:51.572Z</time></trkpt><trkpt lat="44.44801" lon="11.1201433"><ele>157.33333333333331</ele><time>2026-04-03T14:39:52.572Z</time></trkpt><trkpt lat="44.4481683" lon="11.1201"><ele>156.66666666666666</ele><time>2026-04-03T14:39:53.572Z</time></trkpt><trkpt lat="44.4483267" lon="11.12004"><ele>156.0</ele><time>2026-04-03T14:39:54.572Z</time></trkpt><trkpt lat="44.4484783" lon="11.1199683"><ele>154.66666666666666</ele><time>2026-04-03T14:39:55.572Z</time></trkpt><trkpt lat="44.4486283" lon="11.119895"><ele>153.33333333333331</ele><time>2026-04-03T14:39:56.576Z</time></trkpt><trkpt lat="44.4487783" lon="11.1198233"><ele>152.0</ele><time>2026-04-03T14:39:57.573Z</time></trkpt><trkpt lat="44.44893" lon="11.1197533"><ele>151.66666666666666</ele><time>2026-04-03T14:39:58.572Z</time></trkpt><trkpt lat="44.4490817" lon="11.1196933"><ele>151.33333333333334</ele><time>2026-04-03T14:39:59.572Z</time></trkpt><trkpt lat="44.4492367" lon="11.11965"><ele>151.0</ele><time>2026-04-03T14:40:00.573Z</time></trkpt><trkpt lat="44.4493883" lon="11.1196283"><ele>151.0</ele><time>2026-04-03T14:40:01.571Z</time></trkpt><trkpt lat="44.4495367" lon="11.1196183"><ele>151.0</ele><time>2026-04-03T14:40:02.573Z</time></trkpt><trkpt lat="44.4496833" lon="11.11962"><ele>151.0</ele><time>2026-04-03T14:40:03.571Z</time></trkpt><trkpt lat="44.4498333" lon="11.119625"><ele>151.0</ele><time>2026-04-03T14:40:04.571Z</time></trkpt><trkpt lat="44.4499883" lon="11.119625"><ele>150.66666666666669</ele><time>2026-04-03T14:40:05.571Z</time></trkpt><trkpt lat="44.4501433" lon="11.11962"><ele>150.33333333333334</ele><time>2026-04-03T14:40:06.572Z</time></trkpt><trkpt lat="44.4503017" lon="11.1196167"><ele>150.0</ele><time>2026-04-03T14:40:07.572Z</time></trkpt><trkpt lat="44.4504617" lon="11.1196133"><ele>150.0</ele><time>2026-04-03T14:40:08.572Z</time></trkpt><trkpt lat="44.4506233" lon="11.1196133"><ele>150.0</ele><time>2026-04-03T14:40:09.571Z</time></trkpt><trkpt lat="44.4507833" lon="11.119615"><ele>150.0</ele><time>2026-04-03T14:40:10.572Z</time></trkpt><trkpt lat="44.450945" lon="11.119615"><ele>150.0</ele><time>2026-04-03T14:40:11.57Z</time></trkpt><trkpt lat="44.4511083" lon="11.1196133"><ele>150.0</ele><time>2026-04-03T14:40:12.573Z</time></trkpt><trkpt lat="44.451275" lon="11.1196083"><ele>150.0</ele><time>2026-04-03T14:40:13.571Z</time></trkpt><trkpt lat="44.4514417" lon="11.1196"><ele>149.66666666666666</ele><time>2026-04-03T14:40:14.573Z</time></trkpt><trkpt lat="44.45161" lon="11.1195967"><ele>149.33333333333331</ele><time>2026-04-03T14:40:15.572Z</time></trkpt><trkpt lat="44.4517767" lon="11.1195933"><ele>149.0</ele><time>2026-04-03T14:40:16.571Z</time></trkpt><trkpt lat="44.451945" lon="11.1195933"><ele>149.0</ele><time>2026-04-03T14:40:17.573Z</time></trkpt><trkpt lat="44.45211" lon="11.11959"><ele>149.0</ele><time>2026-04-03T14:40:18.573Z</time></trkpt><trkpt lat="44.4522733" lon="11.1195833"><ele>149.0</ele><time>2026-04-03T14:40:19.572Z</time></trkpt><trkpt lat="44.4524317" lon="11.11958"><ele>148.66666666666666</ele><time>2026-04-03T14:40:20.574Z</time></trkpt><trkpt lat="44.4525917" lon="11.1195817"><ele>148.33333333333334</ele><time>2026-04-03T14:40:21.573Z</time></trkpt><trkpt lat="44.452755" lon="11.1195817"><ele>148.0</ele><time>2026-04-03T14:40:22.571Z</time></trkpt><trkpt lat="44.45292" lon="11.1195817"><ele>147.33333333333334</ele><time>2026-04-03T14:40:23.573Z</time></trkpt><trkpt lat="44.453085" lon="11.11958"><ele>146.66666666666666</ele><time>2026-04-03T14:40:24.574Z</time></trkpt><trkpt lat="44.45325" lon="11.1195817"><ele>146.0</ele><time>2026-04-03T14:40:25.572Z</time></trkpt><trkpt lat="44.45342" lon="11.1195767"><ele>146.0</ele><time>2026-04-03T14:40:26.575Z</time></trkpt><trkpt lat="44.4535883" lon="11.11957"><ele>146.0</ele><time>2026-04-03T14:40:27.572Z</time></trkpt><trkpt lat="44.45375" lon="11.1195617"><ele>146.0</ele><time>2026-04-03T14:40:28.573Z</time></trkpt><trkpt lat="44.4539133" lon="11.1195583"><ele>145.66666666666666</ele><time>2026-04-03T14:40:29.572Z</time></trkpt><trkpt lat="44.454075" lon="11.1195567"><ele>145.33333333333334</ele><time>2026-04-03T14:40:30.572Z</time></trkpt><trkpt lat="44.4542383" lon="11.1195567"><ele>145.0</ele><time>2026-04-03T14:40:31.571Z</time></trkpt><trkpt lat="44.4543967" lon="11.119555"><ele>145.0</ele><time>2026-04-03T14:40:32.572Z</time></trkpt><trkpt lat="44.4545433" lon="11.11955"><ele>145.0</ele><time>2026-04-03T14:40:33.573Z</time></trkpt><trkpt lat="44.45468" lon="11.1195467"><ele>145.0</ele><time>2026-04-03T14:40:34.571Z</time></trkpt><trkpt lat="44.454805" lon="11.1195467"><ele>145.0</ele><time>2026-04-03T14:40:35.571Z</time></trkpt><trkpt lat="44.4549217" lon="11.1195483"><ele>145.16666666666669</ele><time>2026-04-03T14:40:36.571Z</time></trkpt><trkpt lat="44.4550283" lon="11.1195483"><ele>145.33333333333334</ele><time>2026-04-03T14:40:37.57Z</time></trkpt><trkpt lat="44.4551233" lon="11.1195467"><ele>145.5</ele><time>2026-04-03T14:40:38.572Z</time></trkpt><trkpt lat="44.4552017" lon="11.11955"><ele>145.66666666666666</ele><time>2026-04-03T14:40:39.57Z</time></trkpt><trkpt lat="44.4552667" lon="11.1195667"><ele>145.83333333333331</ele><time>2026-04-03T14:40:40.572Z</time></trkpt><trkpt lat="44.455355" lon="11.1196333"><ele>146.0</ele><time>2026-04-03T14:40:42.57Z</time></trkpt><trkpt lat="44.4553933" lon="11.1197333"><ele>146.0</ele><time>2026-04-03T14:40:44.572Z</time></trkpt></trkseg></trk></gpx>